<?xml version="1.0" encoding="UTF-8" standalone="no" ?>
<gpx xmlns="http://www.topografix.com/GPX/1/1" xmlns:xsi="http://www.w3.org/2001/XMLSchema-instance" xsi:schemaLocation="http://www.topografix.com/GPX/1/1 http://www.topografix.com/GPX/1/1/gpx.xsd" version="1.1" creator="VisuGPX - https://www.visugpx.com">
  <metadata>
    <name>Sainte Victoire depuis Bibémus</name>
    <desc><![CDATA[Traca jaune jusqu\\\'au barrage du Bimont puis bleu jusqu\\\'à la Sainte Victoire.]]></desc>
  </metadata>
  <trk>
    <name><![CDATA[(null)]]></name>
    <trkseg>
      <trkpt lat="43.53127" lon="5.50044">
        <ele>346.9946</ele>
        <time>2011-03-27T06:10:33Z</time>
      </trkpt>
      <trkpt lat="43.53127" lon="5.50048">
        <ele>346.9946</ele>
        <time>2011-03-27T06:10:34Z</time>
      </trkpt>
      <trkpt lat="43.53127" lon="5.50054">
        <ele>347.9947</ele>
        <time>2011-03-27T06:10:36Z</time>
      </trkpt>
      <trkpt lat="43.53127" lon="5.50057">
        <ele>347.9947</ele>
        <time>2011-03-27T06:10:37Z</time>
      </trkpt>
      <trkpt lat="43.53128" lon="5.50067">
        <ele>346.9947</ele>
        <time>2011-03-27T06:10:40Z</time>
      </trkpt>
      <trkpt lat="43.53128" lon="5.5007">
        <ele>347.9947</ele>
        <time>2011-03-27T06:10:41Z</time>
      </trkpt>
      <trkpt lat="43.53129" lon="5.50078">
        <ele>349.9947</ele>
        <time>2011-03-27T06:10:45Z</time>
      </trkpt>
      <trkpt lat="43.53129" lon="5.50079">
        <ele>349.9947</ele>
        <time>2011-03-27T06:10:46Z</time>
      </trkpt>
      <trkpt lat="43.5313" lon="5.5008">
        <ele>349.9947</ele>
        <time>2011-03-27T06:10:47Z</time>
      </trkpt>
      <trkpt lat="43.5313" lon="5.50081">
        <ele>349.9947</ele>
        <time>2011-03-27T06:10:48Z</time>
      </trkpt>
      <trkpt lat="43.5313" lon="5.50081">
        <ele>349.9947</ele>
        <time>2011-03-27T06:10:49Z</time>
      </trkpt>
      <trkpt lat="43.53131" lon="5.50088">
        <ele>349.9948</ele>
        <time>2011-03-27T06:10:53Z</time>
      </trkpt>
      <trkpt lat="43.53131" lon="5.50088">
        <ele>349.9948</ele>
        <time>2011-03-27T06:10:54Z</time>
      </trkpt>
      <trkpt lat="43.53132" lon="5.50093">
        <ele>350.9948</ele>
        <time>2011-03-27T06:10:55Z</time>
      </trkpt>
      <trkpt lat="43.53133" lon="5.50096">
        <ele>350.9948</ele>
        <time>2011-03-27T06:10:56Z</time>
      </trkpt>
      <trkpt lat="43.53137" lon="5.5011">
        <ele>350.9948</ele>
        <time>2011-03-27T06:11:01Z</time>
      </trkpt>
      <trkpt lat="43.5314" lon="5.50118">
        <ele>350.9948</ele>
        <time>2011-03-27T06:11:03Z</time>
      </trkpt>
      <trkpt lat="43.5314" lon="5.50118">
        <ele>350.9948</ele>
        <time>2011-03-27T06:11:04Z</time>
      </trkpt>
      <trkpt lat="43.53141" lon="5.50123">
        <ele>350.9948</ele>
        <time>2011-03-27T06:11:05Z</time>
      </trkpt>
      <trkpt lat="43.53146" lon="5.50133">
        <ele>351.9949</ele>
        <time>2011-03-27T06:11:08Z</time>
      </trkpt>
      <trkpt lat="43.53146" lon="5.50133">
        <ele>351.9949</ele>
        <time>2011-03-27T06:11:09Z</time>
      </trkpt>
      <trkpt lat="43.53148" lon="5.50139">
        <ele>352.9949</ele>
        <time>2011-03-27T06:11:10Z</time>
      </trkpt>
      <trkpt lat="43.5315" lon="5.50143">
        <ele>352.9949</ele>
        <time>2011-03-27T06:11:11Z</time>
      </trkpt>
      <trkpt lat="43.53155" lon="5.50154">
        <ele>352.9949</ele>
        <time>2011-03-27T06:11:14Z</time>
      </trkpt>
      <trkpt lat="43.53164" lon="5.5017">
        <ele>353.995</ele>
        <time>2011-03-27T06:11:22Z</time>
      </trkpt>
      <trkpt lat="43.53166" lon="5.50176">
        <ele>354.995</ele>
        <time>2011-03-27T06:11:25Z</time>
      </trkpt>
      <trkpt lat="43.53167" lon="5.50179">
        <ele>355.995</ele>
        <time>2011-03-27T06:11:26Z</time>
      </trkpt>
      <trkpt lat="43.53173" lon="5.50192">
        <ele>357.9951</ele>
        <time>2011-03-27T06:11:30Z</time>
      </trkpt>
      <trkpt lat="43.53174" lon="5.50194">
        <ele>357.9951</ele>
        <time>2011-03-27T06:11:31Z</time>
      </trkpt>
      <trkpt lat="43.53176" lon="5.50198">
        <ele>357.9951</ele>
        <time>2011-03-27T06:11:32Z</time>
      </trkpt>
      <trkpt lat="43.53177" lon="5.50202">
        <ele>357.9951</ele>
        <time>2011-03-27T06:11:33Z</time>
      </trkpt>
      <trkpt lat="43.53181" lon="5.50213">
        <ele>357.9951</ele>
        <time>2011-03-27T06:11:35Z</time>
      </trkpt>
      <trkpt lat="43.53183" lon="5.50219">
        <ele>358.9951</ele>
        <time>2011-03-27T06:11:36Z</time>
      </trkpt>
      <trkpt lat="43.53191" lon="5.50236">
        <ele>358.9952</ele>
        <time>2011-03-27T06:11:40Z</time>
      </trkpt>
      <trkpt lat="43.53195" lon="5.50246">
        <ele>358.9952</ele>
        <time>2011-03-27T06:11:43Z</time>
      </trkpt>
      <trkpt lat="43.53199" lon="5.50258">
        <ele>358.9953</ele>
        <time>2011-03-27T06:11:48Z</time>
      </trkpt>
      <trkpt lat="43.53202" lon="5.5027">
        <ele>359.9953</ele>
        <time>2011-03-27T06:11:53Z</time>
      </trkpt>
      <trkpt lat="43.53207" lon="5.50286">
        <ele>359.9954</ele>
        <time>2011-03-27T06:11:58Z</time>
      </trkpt>
      <trkpt lat="43.53209" lon="5.50292">
        <ele>359.9954</ele>
        <time>2011-03-27T06:11:59Z</time>
      </trkpt>
      <trkpt lat="43.53209" lon="5.50292">
        <ele>359.9954</ele>
        <time>2011-03-27T06:12:00Z</time>
      </trkpt>
      <trkpt lat="43.5321" lon="5.50302">
        <ele>359.9954</ele>
        <time>2011-03-27T06:12:01Z</time>
      </trkpt>
      <trkpt lat="43.53214" lon="5.50317">
        <ele>359.9954</ele>
        <time>2011-03-27T06:12:06Z</time>
      </trkpt>
      <trkpt lat="43.53215" lon="5.50321">
        <ele>359.9955</ele>
        <time>2011-03-27T06:12:07Z</time>
      </trkpt>
      <trkpt lat="43.53219" lon="5.50346">
        <ele>360.9955</ele>
        <time>2011-03-27T06:12:13Z</time>
      </trkpt>
      <trkpt lat="43.5322" lon="5.50351">
        <ele>360.9955</ele>
        <time>2011-03-27T06:12:14Z</time>
      </trkpt>
      <trkpt lat="43.5322" lon="5.50355">
        <ele>360.9955</ele>
        <time>2011-03-27T06:12:15Z</time>
      </trkpt>
      <trkpt lat="43.53221" lon="5.50359">
        <ele>360.9955</ele>
        <time>2011-03-27T06:12:16Z</time>
      </trkpt>
      <trkpt lat="43.53222" lon="5.50363">
        <ele>360.9955</ele>
        <time>2011-03-27T06:12:17Z</time>
      </trkpt>
      <trkpt lat="43.53223" lon="5.50367">
        <ele>359.9956</ele>
        <time>2011-03-27T06:12:18Z</time>
      </trkpt>
      <trkpt lat="43.5323" lon="5.50385">
        <ele>356.9956</ele>
        <time>2011-03-27T06:12:24Z</time>
      </trkpt>
      <trkpt lat="43.53236" lon="5.50396">
        <ele>355.9957</ele>
        <time>2011-03-27T06:12:29Z</time>
      </trkpt>
      <trkpt lat="43.53261" lon="5.50414">
        <ele>355.9958</ele>
        <time>2011-03-27T06:12:44Z</time>
      </trkpt>
      <trkpt lat="43.53271" lon="5.50416">
        <ele>354.9958</ele>
        <time>2011-03-27T06:12:47Z</time>
      </trkpt>
      <trkpt lat="43.53275" lon="5.50416">
        <ele>354.9958</ele>
        <time>2011-03-27T06:12:48Z</time>
      </trkpt>
      <trkpt lat="43.53286" lon="5.50416">
        <ele>354.9958</ele>
        <time>2011-03-27T06:12:51Z</time>
      </trkpt>
      <trkpt lat="43.53289" lon="5.50415">
        <ele>354.9958</ele>
        <time>2011-03-27T06:12:52Z</time>
      </trkpt>
      <trkpt lat="43.533" lon="5.50413">
        <ele>354.9958</ele>
        <time>2011-03-27T06:12:56Z</time>
      </trkpt>
      <trkpt lat="43.53303" lon="5.50412">
        <ele>355.9958</ele>
        <time>2011-03-27T06:12:57Z</time>
      </trkpt>
      <trkpt lat="43.53305" lon="5.50411">
        <ele>355.9958</ele>
        <time>2011-03-27T06:12:58Z</time>
      </trkpt>
      <trkpt lat="43.53309" lon="5.50409">
        <ele>355.9958</ele>
        <time>2011-03-27T06:12:59Z</time>
      </trkpt>
      <trkpt lat="43.53312" lon="5.50407">
        <ele>355.9958</ele>
        <time>2011-03-27T06:13:00Z</time>
      </trkpt>
      <trkpt lat="43.53315" lon="5.50406">
        <ele>355.9958</ele>
        <time>2011-03-27T06:13:01Z</time>
      </trkpt>
      <trkpt lat="43.5332" lon="5.50404">
        <ele>355.9959</ele>
        <time>2011-03-27T06:13:02Z</time>
      </trkpt>
      <trkpt lat="43.53322" lon="5.50403">
        <ele>355.9959</ele>
        <time>2011-03-27T06:13:03Z</time>
      </trkpt>
      <trkpt lat="43.53326" lon="5.50401">
        <ele>356.9959</ele>
        <time>2011-03-27T06:13:04Z</time>
      </trkpt>
      <trkpt lat="43.53328" lon="5.504">
        <ele>356.9959</ele>
        <time>2011-03-27T06:13:05Z</time>
      </trkpt>
      <trkpt lat="43.5333" lon="5.50399">
        <ele>357.9959</ele>
        <time>2011-03-27T06:13:06Z</time>
      </trkpt>
      <trkpt lat="43.53333" lon="5.50398">
        <ele>357.9959</ele>
        <time>2011-03-27T06:13:07Z</time>
      </trkpt>
      <trkpt lat="43.53338" lon="5.50395">
        <ele>357.9959</ele>
        <time>2011-03-27T06:13:09Z</time>
      </trkpt>
      <trkpt lat="43.5334" lon="5.50394">
        <ele>358.9959</ele>
        <time>2011-03-27T06:13:10Z</time>
      </trkpt>
      <trkpt lat="43.53343" lon="5.50392">
        <ele>358.9959</ele>
        <time>2011-03-27T06:13:11Z</time>
      </trkpt>
      <trkpt lat="43.53346" lon="5.50389">
        <ele>358.9959</ele>
        <time>2011-03-27T06:13:12Z</time>
      </trkpt>
      <trkpt lat="43.53349" lon="5.50387">
        <ele>358.9959</ele>
        <time>2011-03-27T06:13:13Z</time>
      </trkpt>
      <trkpt lat="43.53351" lon="5.50386">
        <ele>358.9959</ele>
        <time>2011-03-27T06:13:14Z</time>
      </trkpt>
      <trkpt lat="43.53353" lon="5.50384">
        <ele>358.9959</ele>
        <time>2011-03-27T06:13:15Z</time>
      </trkpt>
      <trkpt lat="43.53356" lon="5.50382">
        <ele>359.9959</ele>
        <time>2011-03-27T06:13:16Z</time>
      </trkpt>
      <trkpt lat="43.53359" lon="5.50379">
        <ele>359.9959</ele>
        <time>2011-03-27T06:13:17Z</time>
      </trkpt>
      <trkpt lat="43.53363" lon="5.50377">
        <ele>359.9959</ele>
        <time>2011-03-27T06:13:18Z</time>
      </trkpt>
      <trkpt lat="43.53372" lon="5.50372">
        <ele>359.9959</ele>
        <time>2011-03-27T06:13:21Z</time>
      </trkpt>
      <trkpt lat="43.53388" lon="5.50367">
        <ele>361.9959</ele>
        <time>2011-03-27T06:13:27Z</time>
      </trkpt>
      <trkpt lat="43.53393" lon="5.50366">
        <ele>361.9959</ele>
        <time>2011-03-27T06:13:28Z</time>
      </trkpt>
      <trkpt lat="43.53396" lon="5.50366">
        <ele>361.996</ele>
        <time>2011-03-27T06:13:29Z</time>
      </trkpt>
      <trkpt lat="43.53399" lon="5.50367">
        <ele>361.996</ele>
        <time>2011-03-27T06:13:30Z</time>
      </trkpt>
      <trkpt lat="43.53402" lon="5.50367">
        <ele>361.996</ele>
        <time>2011-03-27T06:13:31Z</time>
      </trkpt>
      <trkpt lat="43.53405" lon="5.50368">
        <ele>361.996</ele>
        <time>2011-03-27T06:13:32Z</time>
      </trkpt>
      <trkpt lat="43.53408" lon="5.5037">
        <ele>361.996</ele>
        <time>2011-03-27T06:13:33Z</time>
      </trkpt>
      <trkpt lat="43.53412" lon="5.50371">
        <ele>361.996</ele>
        <time>2011-03-27T06:13:34Z</time>
      </trkpt>
      <trkpt lat="43.53415" lon="5.50372">
        <ele>361.996</ele>
        <time>2011-03-27T06:13:35Z</time>
      </trkpt>
      <trkpt lat="43.53418" lon="5.50373">
        <ele>361.996</ele>
        <time>2011-03-27T06:13:36Z</time>
      </trkpt>
      <trkpt lat="43.5342" lon="5.50374">
        <ele>362.996</ele>
        <time>2011-03-27T06:13:37Z</time>
      </trkpt>
      <trkpt lat="43.53423" lon="5.50376">
        <ele>362.996</ele>
        <time>2011-03-27T06:13:38Z</time>
      </trkpt>
      <trkpt lat="43.53425" lon="5.50378">
        <ele>363.996</ele>
        <time>2011-03-27T06:13:39Z</time>
      </trkpt>
      <trkpt lat="43.53428" lon="5.50379">
        <ele>364.9961</ele>
        <time>2011-03-27T06:13:40Z</time>
      </trkpt>
      <trkpt lat="43.53429" lon="5.50382">
        <ele>364.9961</ele>
        <time>2011-03-27T06:13:41Z</time>
      </trkpt>
      <trkpt lat="43.53431" lon="5.50384">
        <ele>364.9961</ele>
        <time>2011-03-27T06:13:42Z</time>
      </trkpt>
      <trkpt lat="43.53432" lon="5.50386">
        <ele>363.9961</ele>
        <time>2011-03-27T06:13:43Z</time>
      </trkpt>
      <trkpt lat="43.53433" lon="5.50389">
        <ele>362.9961</ele>
        <time>2011-03-27T06:13:44Z</time>
      </trkpt>
      <trkpt lat="43.53434" lon="5.50391">
        <ele>362.9961</ele>
        <time>2011-03-27T06:13:45Z</time>
      </trkpt>
      <trkpt lat="43.53435" lon="5.50394">
        <ele>361.9961</ele>
        <time>2011-03-27T06:13:46Z</time>
      </trkpt>
      <trkpt lat="43.53436" lon="5.50396">
        <ele>360.9961</ele>
        <time>2011-03-27T06:13:47Z</time>
      </trkpt>
      <trkpt lat="43.53437" lon="5.50399">
        <ele>360.9961</ele>
        <time>2011-03-27T06:13:48Z</time>
      </trkpt>
      <trkpt lat="43.53438" lon="5.50401">
        <ele>360.9961</ele>
        <time>2011-03-27T06:13:49Z</time>
      </trkpt>
      <trkpt lat="43.53439" lon="5.50404">
        <ele>359.9962</ele>
        <time>2011-03-27T06:13:50Z</time>
      </trkpt>
      <trkpt lat="43.5344" lon="5.50407">
        <ele>359.9962</ele>
        <time>2011-03-27T06:13:51Z</time>
      </trkpt>
      <trkpt lat="43.53441" lon="5.5041">
        <ele>358.9962</ele>
        <time>2011-03-27T06:13:52Z</time>
      </trkpt>
      <trkpt lat="43.53442" lon="5.50413">
        <ele>358.9962</ele>
        <time>2011-03-27T06:13:53Z</time>
      </trkpt>
      <trkpt lat="43.53442" lon="5.50416">
        <ele>357.9962</ele>
        <time>2011-03-27T06:13:54Z</time>
      </trkpt>
      <trkpt lat="43.53443" lon="5.50419">
        <ele>357.9962</ele>
        <time>2011-03-27T06:13:55Z</time>
      </trkpt>
      <trkpt lat="43.53445" lon="5.50422">
        <ele>356.9962</ele>
        <time>2011-03-27T06:13:56Z</time>
      </trkpt>
      <trkpt lat="43.53446" lon="5.50425">
        <ele>356.9962</ele>
        <time>2011-03-27T06:13:57Z</time>
      </trkpt>
      <trkpt lat="43.53447" lon="5.50427">
        <ele>355.9962</ele>
        <time>2011-03-27T06:13:58Z</time>
      </trkpt>
      <trkpt lat="43.53448" lon="5.5043">
        <ele>355.9962</ele>
        <time>2011-03-27T06:13:59Z</time>
      </trkpt>
      <trkpt lat="43.53449" lon="5.50432">
        <ele>355.9962</ele>
        <time>2011-03-27T06:14:00Z</time>
      </trkpt>
      <trkpt lat="43.5345" lon="5.50435">
        <ele>355.9962</ele>
        <time>2011-03-27T06:14:01Z</time>
      </trkpt>
      <trkpt lat="43.53452" lon="5.50439">
        <ele>355.9962</ele>
        <time>2011-03-27T06:14:02Z</time>
      </trkpt>
      <trkpt lat="43.53453" lon="5.50442">
        <ele>356.9962</ele>
        <time>2011-03-27T06:14:03Z</time>
      </trkpt>
      <trkpt lat="43.53455" lon="5.50445">
        <ele>356.9963</ele>
        <time>2011-03-27T06:14:04Z</time>
      </trkpt>
      <trkpt lat="43.53457" lon="5.50448">
        <ele>356.9963</ele>
        <time>2011-03-27T06:14:05Z</time>
      </trkpt>
      <trkpt lat="43.53458" lon="5.50451">
        <ele>355.9963</ele>
        <time>2011-03-27T06:14:06Z</time>
      </trkpt>
      <trkpt lat="43.5346" lon="5.50454">
        <ele>356.9963</ele>
        <time>2011-03-27T06:14:07Z</time>
      </trkpt>
      <trkpt lat="43.53461" lon="5.50457">
        <ele>356.9963</ele>
        <time>2011-03-27T06:14:08Z</time>
      </trkpt>
      <trkpt lat="43.53463" lon="5.5046">
        <ele>356.9963</ele>
        <time>2011-03-27T06:14:09Z</time>
      </trkpt>
      <trkpt lat="43.53465" lon="5.50463">
        <ele>356.9963</ele>
        <time>2011-03-27T06:14:10Z</time>
      </trkpt>
      <trkpt lat="43.53468" lon="5.50468">
        <ele>355.9963</ele>
        <time>2011-03-27T06:14:12Z</time>
      </trkpt>
      <trkpt lat="43.53469" lon="5.50473">
        <ele>355.9964</ele>
        <time>2011-03-27T06:14:13Z</time>
      </trkpt>
      <trkpt lat="43.5347" lon="5.50477">
        <ele>355.9964</ele>
        <time>2011-03-27T06:14:14Z</time>
      </trkpt>
      <trkpt lat="43.53471" lon="5.50481">
        <ele>355.9964</ele>
        <time>2011-03-27T06:14:15Z</time>
      </trkpt>
      <trkpt lat="43.53471" lon="5.50484">
        <ele>355.9964</ele>
        <time>2011-03-27T06:14:16Z</time>
      </trkpt>
      <trkpt lat="43.53473" lon="5.50489">
        <ele>354.9964</ele>
        <time>2011-03-27T06:14:17Z</time>
      </trkpt>
      <trkpt lat="43.53473" lon="5.50493">
        <ele>354.9964</ele>
        <time>2011-03-27T06:14:18Z</time>
      </trkpt>
      <trkpt lat="43.53474" lon="5.50497">
        <ele>354.9964</ele>
        <time>2011-03-27T06:14:19Z</time>
      </trkpt>
      <trkpt lat="43.53475" lon="5.50502">
        <ele>354.9964</ele>
        <time>2011-03-27T06:14:20Z</time>
      </trkpt>
      <trkpt lat="43.53476" lon="5.50506">
        <ele>353.9965</ele>
        <time>2011-03-27T06:14:21Z</time>
      </trkpt>
      <trkpt lat="43.53478" lon="5.5051">
        <ele>353.9965</ele>
        <time>2011-03-27T06:14:22Z</time>
      </trkpt>
      <trkpt lat="43.53479" lon="5.50513">
        <ele>353.9965</ele>
        <time>2011-03-27T06:14:23Z</time>
      </trkpt>
      <trkpt lat="43.5348" lon="5.50517">
        <ele>353.9965</ele>
        <time>2011-03-27T06:14:24Z</time>
      </trkpt>
      <trkpt lat="43.53482" lon="5.5052">
        <ele>353.9965</ele>
        <time>2011-03-27T06:14:25Z</time>
      </trkpt>
      <trkpt lat="43.53483" lon="5.50524">
        <ele>353.9965</ele>
        <time>2011-03-27T06:14:26Z</time>
      </trkpt>
      <trkpt lat="43.53484" lon="5.50528">
        <ele>353.9965</ele>
        <time>2011-03-27T06:14:27Z</time>
      </trkpt>
      <trkpt lat="43.53486" lon="5.50531">
        <ele>353.9965</ele>
        <time>2011-03-27T06:14:28Z</time>
      </trkpt>
      <trkpt lat="43.53486" lon="5.50534">
        <ele>353.9965</ele>
        <time>2011-03-27T06:14:29Z</time>
      </trkpt>
      <trkpt lat="43.53488" lon="5.50537">
        <ele>353.9966</ele>
        <time>2011-03-27T06:14:30Z</time>
      </trkpt>
      <trkpt lat="43.5349" lon="5.5054">
        <ele>353.9966</ele>
        <time>2011-03-27T06:14:31Z</time>
      </trkpt>
      <trkpt lat="43.53492" lon="5.50543">
        <ele>354.9966</ele>
        <time>2011-03-27T06:14:32Z</time>
      </trkpt>
      <trkpt lat="43.53494" lon="5.50547">
        <ele>354.9966</ele>
        <time>2011-03-27T06:14:33Z</time>
      </trkpt>
      <trkpt lat="43.53495" lon="5.50549">
        <ele>354.9966</ele>
        <time>2011-03-27T06:14:34Z</time>
      </trkpt>
      <trkpt lat="43.53497" lon="5.50552">
        <ele>354.9966</ele>
        <time>2011-03-27T06:14:35Z</time>
      </trkpt>
      <trkpt lat="43.53499" lon="5.50555">
        <ele>354.9966</ele>
        <time>2011-03-27T06:14:36Z</time>
      </trkpt>
      <trkpt lat="43.535" lon="5.50557">
        <ele>355.9966</ele>
        <time>2011-03-27T06:14:37Z</time>
      </trkpt>
      <trkpt lat="43.53502" lon="5.5056">
        <ele>354.9966</ele>
        <time>2011-03-27T06:14:38Z</time>
      </trkpt>
      <trkpt lat="43.53503" lon="5.50562">
        <ele>354.9966</ele>
        <time>2011-03-27T06:14:39Z</time>
      </trkpt>
      <trkpt lat="43.53505" lon="5.50564">
        <ele>354.9966</ele>
        <time>2011-03-27T06:14:40Z</time>
      </trkpt>
      <trkpt lat="43.53508" lon="5.50566">
        <ele>354.9966</ele>
        <time>2011-03-27T06:14:41Z</time>
      </trkpt>
      <trkpt lat="43.5351" lon="5.50568">
        <ele>354.9967</ele>
        <time>2011-03-27T06:14:42Z</time>
      </trkpt>
      <trkpt lat="43.53511" lon="5.5057">
        <ele>354.9967</ele>
        <time>2011-03-27T06:14:43Z</time>
      </trkpt>
      <trkpt lat="43.53514" lon="5.50571">
        <ele>354.9967</ele>
        <time>2011-03-27T06:14:44Z</time>
      </trkpt>
      <trkpt lat="43.53516" lon="5.50573">
        <ele>354.9967</ele>
        <time>2011-03-27T06:14:45Z</time>
      </trkpt>
      <trkpt lat="43.53519" lon="5.50575">
        <ele>354.9967</ele>
        <time>2011-03-27T06:14:46Z</time>
      </trkpt>
      <trkpt lat="43.53521" lon="5.50577">
        <ele>354.9967</ele>
        <time>2011-03-27T06:14:47Z</time>
      </trkpt>
      <trkpt lat="43.53524" lon="5.50579">
        <ele>354.9967</ele>
        <time>2011-03-27T06:14:48Z</time>
      </trkpt>
      <trkpt lat="43.53528" lon="5.50582">
        <ele>354.9967</ele>
        <time>2011-03-27T06:14:49Z</time>
      </trkpt>
      <trkpt lat="43.5353" lon="5.50584">
        <ele>354.9968</ele>
        <time>2011-03-27T06:14:50Z</time>
      </trkpt>
      <trkpt lat="43.53533" lon="5.50587">
        <ele>354.9968</ele>
        <time>2011-03-27T06:14:51Z</time>
      </trkpt>
      <trkpt lat="43.53536" lon="5.50589">
        <ele>354.9968</ele>
        <time>2011-03-27T06:14:52Z</time>
      </trkpt>
      <trkpt lat="43.53539" lon="5.50591">
        <ele>354.9968</ele>
        <time>2011-03-27T06:14:53Z</time>
      </trkpt>
      <trkpt lat="43.53542" lon="5.50592">
        <ele>354.9968</ele>
        <time>2011-03-27T06:14:54Z</time>
      </trkpt>
      <trkpt lat="43.53544" lon="5.50595">
        <ele>354.9968</ele>
        <time>2011-03-27T06:14:55Z</time>
      </trkpt>
      <trkpt lat="43.53547" lon="5.50597">
        <ele>354.9968</ele>
        <time>2011-03-27T06:14:56Z</time>
      </trkpt>
      <trkpt lat="43.53549" lon="5.50599">
        <ele>354.9968</ele>
        <time>2011-03-27T06:14:57Z</time>
      </trkpt>
      <trkpt lat="43.53552" lon="5.50602">
        <ele>354.9968</ele>
        <time>2011-03-27T06:14:58Z</time>
      </trkpt>
      <trkpt lat="43.53555" lon="5.50604">
        <ele>354.9969</ele>
        <time>2011-03-27T06:14:59Z</time>
      </trkpt>
      <trkpt lat="43.53558" lon="5.50606">
        <ele>353.9969</ele>
        <time>2011-03-27T06:15:00Z</time>
      </trkpt>
      <trkpt lat="43.5356" lon="5.50609">
        <ele>353.9969</ele>
        <time>2011-03-27T06:15:01Z</time>
      </trkpt>
      <trkpt lat="43.53563" lon="5.50611">
        <ele>352.9969</ele>
        <time>2011-03-27T06:15:02Z</time>
      </trkpt>
      <trkpt lat="43.53565" lon="5.50613">
        <ele>352.9969</ele>
        <time>2011-03-27T06:15:03Z</time>
      </trkpt>
      <trkpt lat="43.53568" lon="5.50614">
        <ele>352.9969</ele>
        <time>2011-03-27T06:15:04Z</time>
      </trkpt>
      <trkpt lat="43.53569" lon="5.50616">
        <ele>352.9969</ele>
        <time>2011-03-27T06:15:05Z</time>
      </trkpt>
      <trkpt lat="43.53572" lon="5.50618">
        <ele>352.9969</ele>
        <time>2011-03-27T06:15:06Z</time>
      </trkpt>
      <trkpt lat="43.53574" lon="5.5062">
        <ele>351.9969</ele>
        <time>2011-03-27T06:15:07Z</time>
      </trkpt>
      <trkpt lat="43.53576" lon="5.50622">
        <ele>351.9969</ele>
        <time>2011-03-27T06:15:08Z</time>
      </trkpt>
      <trkpt lat="43.53578" lon="5.50625">
        <ele>351.9969</ele>
        <time>2011-03-27T06:15:09Z</time>
      </trkpt>
      <trkpt lat="43.53581" lon="5.50628">
        <ele>350.9969</ele>
        <time>2011-03-27T06:15:10Z</time>
      </trkpt>
      <trkpt lat="43.53584" lon="5.5063">
        <ele>350.997</ele>
        <time>2011-03-27T06:15:11Z</time>
      </trkpt>
      <trkpt lat="43.53586" lon="5.50632">
        <ele>351.997</ele>
        <time>2011-03-27T06:15:12Z</time>
      </trkpt>
      <trkpt lat="43.53589" lon="5.50634">
        <ele>351.997</ele>
        <time>2011-03-27T06:15:13Z</time>
      </trkpt>
      <trkpt lat="43.53591" lon="5.50636">
        <ele>351.997</ele>
        <time>2011-03-27T06:15:14Z</time>
      </trkpt>
      <trkpt lat="43.53593" lon="5.50638">
        <ele>351.997</ele>
        <time>2011-03-27T06:15:15Z</time>
      </trkpt>
      <trkpt lat="43.53595" lon="5.5064">
        <ele>351.997</ele>
        <time>2011-03-27T06:15:16Z</time>
      </trkpt>
      <trkpt lat="43.53597" lon="5.50642">
        <ele>352.997</ele>
        <time>2011-03-27T06:15:17Z</time>
      </trkpt>
      <trkpt lat="43.53599" lon="5.50644">
        <ele>352.997</ele>
        <time>2011-03-27T06:15:18Z</time>
      </trkpt>
      <trkpt lat="43.536" lon="5.50647">
        <ele>352.997</ele>
        <time>2011-03-27T06:15:19Z</time>
      </trkpt>
      <trkpt lat="43.53602" lon="5.5065">
        <ele>353.9971</ele>
        <time>2011-03-27T06:15:20Z</time>
      </trkpt>
      <trkpt lat="43.53603" lon="5.50653">
        <ele>353.9971</ele>
        <time>2011-03-27T06:15:21Z</time>
      </trkpt>
      <trkpt lat="43.53605" lon="5.50655">
        <ele>353.9971</ele>
        <time>2011-03-27T06:15:22Z</time>
      </trkpt>
      <trkpt lat="43.53606" lon="5.50658">
        <ele>353.9971</ele>
        <time>2011-03-27T06:15:23Z</time>
      </trkpt>
      <trkpt lat="43.53607" lon="5.50661">
        <ele>353.9971</ele>
        <time>2011-03-27T06:15:24Z</time>
      </trkpt>
      <trkpt lat="43.53608" lon="5.50665">
        <ele>353.9971</ele>
        <time>2011-03-27T06:15:25Z</time>
      </trkpt>
      <trkpt lat="43.53609" lon="5.50667">
        <ele>353.9971</ele>
        <time>2011-03-27T06:15:26Z</time>
      </trkpt>
      <trkpt lat="43.5361" lon="5.5067">
        <ele>353.9971</ele>
        <time>2011-03-27T06:15:27Z</time>
      </trkpt>
      <trkpt lat="43.53611" lon="5.50673">
        <ele>353.9971</ele>
        <time>2011-03-27T06:15:28Z</time>
      </trkpt>
      <trkpt lat="43.53612" lon="5.50676">
        <ele>353.9971</ele>
        <time>2011-03-27T06:15:29Z</time>
      </trkpt>
      <trkpt lat="43.53614" lon="5.5068">
        <ele>354.9972</ele>
        <time>2011-03-27T06:15:30Z</time>
      </trkpt>
      <trkpt lat="43.53615" lon="5.50683">
        <ele>354.9972</ele>
        <time>2011-03-27T06:15:31Z</time>
      </trkpt>
      <trkpt lat="43.53617" lon="5.50686">
        <ele>354.9972</ele>
        <time>2011-03-27T06:15:32Z</time>
      </trkpt>
      <trkpt lat="43.53619" lon="5.5069">
        <ele>354.9972</ele>
        <time>2011-03-27T06:15:33Z</time>
      </trkpt>
      <trkpt lat="43.53621" lon="5.50693">
        <ele>354.9972</ele>
        <time>2011-03-27T06:15:34Z</time>
      </trkpt>
      <trkpt lat="43.53622" lon="5.50696">
        <ele>355.9972</ele>
        <time>2011-03-27T06:15:35Z</time>
      </trkpt>
      <trkpt lat="43.53624" lon="5.50699">
        <ele>355.9972</ele>
        <time>2011-03-27T06:15:36Z</time>
      </trkpt>
      <trkpt lat="43.53626" lon="5.50702">
        <ele>355.9972</ele>
        <time>2011-03-27T06:15:37Z</time>
      </trkpt>
      <trkpt lat="43.53628" lon="5.50705">
        <ele>355.9973</ele>
        <time>2011-03-27T06:15:38Z</time>
      </trkpt>
      <trkpt lat="43.5363" lon="5.50708">
        <ele>355.9973</ele>
        <time>2011-03-27T06:15:39Z</time>
      </trkpt>
      <trkpt lat="43.53633" lon="5.50711">
        <ele>354.9973</ele>
        <time>2011-03-27T06:15:40Z</time>
      </trkpt>
      <trkpt lat="43.53635" lon="5.50714">
        <ele>354.9973</ele>
        <time>2011-03-27T06:15:41Z</time>
      </trkpt>
      <trkpt lat="43.53637" lon="5.50716">
        <ele>354.9973</ele>
        <time>2011-03-27T06:15:42Z</time>
      </trkpt>
      <trkpt lat="43.53639" lon="5.50719">
        <ele>353.9973</ele>
        <time>2011-03-27T06:15:43Z</time>
      </trkpt>
      <trkpt lat="43.53641" lon="5.50723">
        <ele>354.9973</ele>
        <time>2011-03-27T06:15:44Z</time>
      </trkpt>
      <trkpt lat="43.53643" lon="5.50726">
        <ele>353.9973</ele>
        <time>2011-03-27T06:15:45Z</time>
      </trkpt>
      <trkpt lat="43.53645" lon="5.50729">
        <ele>353.9973</ele>
        <time>2011-03-27T06:15:46Z</time>
      </trkpt>
      <trkpt lat="43.53647" lon="5.50732">
        <ele>353.9973</ele>
        <time>2011-03-27T06:15:47Z</time>
      </trkpt>
      <trkpt lat="43.53649" lon="5.50735">
        <ele>353.9973</ele>
        <time>2011-03-27T06:15:48Z</time>
      </trkpt>
      <trkpt lat="43.53651" lon="5.50738">
        <ele>353.9974</ele>
        <time>2011-03-27T06:15:49Z</time>
      </trkpt>
      <trkpt lat="43.53654" lon="5.50741">
        <ele>352.9974</ele>
        <time>2011-03-27T06:15:50Z</time>
      </trkpt>
      <trkpt lat="43.53656" lon="5.50744">
        <ele>352.9974</ele>
        <time>2011-03-27T06:15:51Z</time>
      </trkpt>
      <trkpt lat="43.53659" lon="5.50747">
        <ele>352.9974</ele>
        <time>2011-03-27T06:15:52Z</time>
      </trkpt>
      <trkpt lat="43.53661" lon="5.5075">
        <ele>352.9974</ele>
        <time>2011-03-27T06:15:53Z</time>
      </trkpt>
      <trkpt lat="43.53664" lon="5.50753">
        <ele>352.9974</ele>
        <time>2011-03-27T06:15:54Z</time>
      </trkpt>
      <trkpt lat="43.53666" lon="5.50755">
        <ele>352.9974</ele>
        <time>2011-03-27T06:15:55Z</time>
      </trkpt>
      <trkpt lat="43.53669" lon="5.50758">
        <ele>351.9974</ele>
        <time>2011-03-27T06:15:56Z</time>
      </trkpt>
      <trkpt lat="43.53672" lon="5.50761">
        <ele>351.9975</ele>
        <time>2011-03-27T06:15:57Z</time>
      </trkpt>
      <trkpt lat="43.53674" lon="5.50763">
        <ele>351.9975</ele>
        <time>2011-03-27T06:15:58Z</time>
      </trkpt>
      <trkpt lat="43.53677" lon="5.50766">
        <ele>351.9975</ele>
        <time>2011-03-27T06:15:59Z</time>
      </trkpt>
      <trkpt lat="43.53679" lon="5.50769">
        <ele>350.9975</ele>
        <time>2011-03-27T06:16:00Z</time>
      </trkpt>
      <trkpt lat="43.53682" lon="5.50771">
        <ele>350.9975</ele>
        <time>2011-03-27T06:16:01Z</time>
      </trkpt>
      <trkpt lat="43.53684" lon="5.50774">
        <ele>350.9975</ele>
        <time>2011-03-27T06:16:02Z</time>
      </trkpt>
      <trkpt lat="43.53686" lon="5.50777">
        <ele>350.9975</ele>
        <time>2011-03-27T06:16:03Z</time>
      </trkpt>
      <trkpt lat="43.53688" lon="5.5078">
        <ele>350.9975</ele>
        <time>2011-03-27T06:16:04Z</time>
      </trkpt>
      <trkpt lat="43.5369" lon="5.50783">
        <ele>350.9976</ele>
        <time>2011-03-27T06:16:05Z</time>
      </trkpt>
      <trkpt lat="43.53692" lon="5.50787">
        <ele>350.9976</ele>
        <time>2011-03-27T06:16:06Z</time>
      </trkpt>
      <trkpt lat="43.53694" lon="5.5079">
        <ele>350.9976</ele>
        <time>2011-03-27T06:16:07Z</time>
      </trkpt>
      <trkpt lat="43.53695" lon="5.50794">
        <ele>350.9976</ele>
        <time>2011-03-27T06:16:08Z</time>
      </trkpt>
      <trkpt lat="43.53697" lon="5.50797">
        <ele>350.9976</ele>
        <time>2011-03-27T06:16:09Z</time>
      </trkpt>
      <trkpt lat="43.53698" lon="5.50801">
        <ele>350.9976</ele>
        <time>2011-03-27T06:16:10Z</time>
      </trkpt>
      <trkpt lat="43.537" lon="5.50804">
        <ele>350.9976</ele>
        <time>2011-03-27T06:16:11Z</time>
      </trkpt>
      <trkpt lat="43.53701" lon="5.50808">
        <ele>351.9976</ele>
        <time>2011-03-27T06:16:12Z</time>
      </trkpt>
      <trkpt lat="43.53702" lon="5.50812">
        <ele>351.9977</ele>
        <time>2011-03-27T06:16:13Z</time>
      </trkpt>
      <trkpt lat="43.53703" lon="5.50815">
        <ele>351.9977</ele>
        <time>2011-03-27T06:16:14Z</time>
      </trkpt>
      <trkpt lat="43.53704" lon="5.50819">
        <ele>351.9977</ele>
        <time>2011-03-27T06:16:15Z</time>
      </trkpt>
      <trkpt lat="43.53705" lon="5.50823">
        <ele>351.9977</ele>
        <time>2011-03-27T06:16:16Z</time>
      </trkpt>
      <trkpt lat="43.53706" lon="5.50826">
        <ele>351.9977</ele>
        <time>2011-03-27T06:16:17Z</time>
      </trkpt>
      <trkpt lat="43.53707" lon="5.5083">
        <ele>351.9977</ele>
        <time>2011-03-27T06:16:18Z</time>
      </trkpt>
      <trkpt lat="43.53708" lon="5.50833">
        <ele>351.9977</ele>
        <time>2011-03-27T06:16:19Z</time>
      </trkpt>
      <trkpt lat="43.53709" lon="5.50836">
        <ele>351.9977</ele>
        <time>2011-03-27T06:16:20Z</time>
      </trkpt>
      <trkpt lat="43.53709" lon="5.5084">
        <ele>352.9977</ele>
        <time>2011-03-27T06:16:21Z</time>
      </trkpt>
      <trkpt lat="43.5371" lon="5.50843">
        <ele>351.9977</ele>
        <time>2011-03-27T06:16:22Z</time>
      </trkpt>
      <trkpt lat="43.53711" lon="5.50846">
        <ele>351.9977</ele>
        <time>2011-03-27T06:16:23Z</time>
      </trkpt>
      <trkpt lat="43.53711" lon="5.50849">
        <ele>351.9977</ele>
        <time>2011-03-27T06:16:24Z</time>
      </trkpt>
      <trkpt lat="43.53711" lon="5.50853">
        <ele>351.9977</ele>
        <time>2011-03-27T06:16:25Z</time>
      </trkpt>
      <trkpt lat="43.53712" lon="5.50856">
        <ele>351.9978</ele>
        <time>2011-03-27T06:16:26Z</time>
      </trkpt>
      <trkpt lat="43.53712" lon="5.5086">
        <ele>350.9978</ele>
        <time>2011-03-27T06:16:27Z</time>
      </trkpt>
      <trkpt lat="43.53713" lon="5.50863">
        <ele>350.9978</ele>
        <time>2011-03-27T06:16:28Z</time>
      </trkpt>
      <trkpt lat="43.53713" lon="5.50867">
        <ele>350.9978</ele>
        <time>2011-03-27T06:16:29Z</time>
      </trkpt>
      <trkpt lat="43.53713" lon="5.5087">
        <ele>350.9978</ele>
        <time>2011-03-27T06:16:30Z</time>
      </trkpt>
      <trkpt lat="43.53713" lon="5.50879">
        <ele>351.9978</ele>
        <time>2011-03-27T06:16:34Z</time>
      </trkpt>
      <trkpt lat="43.53712" lon="5.50882">
        <ele>351.9978</ele>
        <time>2011-03-27T06:16:35Z</time>
      </trkpt>
      <trkpt lat="43.53711" lon="5.50906">
        <ele>353.9979</ele>
        <time>2011-03-27T06:16:43Z</time>
      </trkpt>
      <trkpt lat="43.53712" lon="5.50908">
        <ele>353.9979</ele>
        <time>2011-03-27T06:16:44Z</time>
      </trkpt>
      <trkpt lat="43.53711" lon="5.50912">
        <ele>353.9979</ele>
        <time>2011-03-27T06:16:45Z</time>
      </trkpt>
      <trkpt lat="43.53711" lon="5.50915">
        <ele>353.9979</ele>
        <time>2011-03-27T06:16:46Z</time>
      </trkpt>
      <trkpt lat="43.5371" lon="5.50918">
        <ele>354.9979</ele>
        <time>2011-03-27T06:16:47Z</time>
      </trkpt>
      <trkpt lat="43.53709" lon="5.5092">
        <ele>354.9979</ele>
        <time>2011-03-27T06:16:48Z</time>
      </trkpt>
      <trkpt lat="43.53706" lon="5.50925">
        <ele>355.9979</ele>
        <time>2011-03-27T06:16:51Z</time>
      </trkpt>
      <trkpt lat="43.53705" lon="5.50926">
        <ele>355.9979</ele>
        <time>2011-03-27T06:16:52Z</time>
      </trkpt>
      <trkpt lat="43.53697" lon="5.50939">
        <ele>356.9979</ele>
        <time>2011-03-27T06:16:58Z</time>
      </trkpt>
      <trkpt lat="43.53696" lon="5.50942">
        <ele>357.9979</ele>
        <time>2011-03-27T06:16:59Z</time>
      </trkpt>
      <trkpt lat="43.53695" lon="5.50949">
        <ele>360.9979</ele>
        <time>2011-03-27T06:17:03Z</time>
      </trkpt>
      <trkpt lat="43.53695" lon="5.5095">
        <ele>360.9979</ele>
        <time>2011-03-27T06:17:04Z</time>
      </trkpt>
      <trkpt lat="43.53696" lon="5.50953">
        <ele>360.998</ele>
        <time>2011-03-27T06:17:05Z</time>
      </trkpt>
      <trkpt lat="43.53696" lon="5.50956">
        <ele>360.998</ele>
        <time>2011-03-27T06:17:06Z</time>
      </trkpt>
      <trkpt lat="43.53696" lon="5.50959">
        <ele>360.998</ele>
        <time>2011-03-27T06:17:07Z</time>
      </trkpt>
      <trkpt lat="43.53696" lon="5.50964">
        <ele>361.998</ele>
        <time>2011-03-27T06:17:08Z</time>
      </trkpt>
      <trkpt lat="43.537" lon="5.5098">
        <ele>362.998</ele>
        <time>2011-03-27T06:17:12Z</time>
      </trkpt>
      <trkpt lat="43.53702" lon="5.50986">
        <ele>362.998</ele>
        <time>2011-03-27T06:17:13Z</time>
      </trkpt>
      <trkpt lat="43.53703" lon="5.5099">
        <ele>362.998</ele>
        <time>2011-03-27T06:17:14Z</time>
      </trkpt>
      <trkpt lat="43.53704" lon="5.50993">
        <ele>362.998</ele>
        <time>2011-03-27T06:17:15Z</time>
      </trkpt>
      <trkpt lat="43.53705" lon="5.50996">
        <ele>362.998</ele>
        <time>2011-03-27T06:17:16Z</time>
      </trkpt>
      <trkpt lat="43.53708" lon="5.51008">
        <ele>362.9981</ele>
        <time>2011-03-27T06:17:19Z</time>
      </trkpt>
      <trkpt lat="43.5371" lon="5.51017">
        <ele>362.9981</ele>
        <time>2011-03-27T06:17:22Z</time>
      </trkpt>
      <trkpt lat="43.5371" lon="5.51019">
        <ele>362.9981</ele>
        <time>2011-03-27T06:17:23Z</time>
      </trkpt>
      <trkpt lat="43.53711" lon="5.51021">
        <ele>362.9981</ele>
        <time>2011-03-27T06:17:24Z</time>
      </trkpt>
      <trkpt lat="43.53711" lon="5.51023">
        <ele>361.9981</ele>
        <time>2011-03-27T06:17:25Z</time>
      </trkpt>
      <trkpt lat="43.53711" lon="5.51026">
        <ele>361.9981</ele>
        <time>2011-03-27T06:17:26Z</time>
      </trkpt>
      <trkpt lat="43.53712" lon="5.51028">
        <ele>361.9981</ele>
        <time>2011-03-27T06:17:27Z</time>
      </trkpt>
      <trkpt lat="43.53712" lon="5.51031">
        <ele>361.9982</ele>
        <time>2011-03-27T06:17:28Z</time>
      </trkpt>
      <trkpt lat="43.53712" lon="5.51034">
        <ele>361.9982</ele>
        <time>2011-03-27T06:17:29Z</time>
      </trkpt>
      <trkpt lat="43.53712" lon="5.51036">
        <ele>360.9982</ele>
        <time>2011-03-27T06:17:30Z</time>
      </trkpt>
      <trkpt lat="43.53712" lon="5.51038">
        <ele>360.9982</ele>
        <time>2011-03-27T06:17:31Z</time>
      </trkpt>
      <trkpt lat="43.53713" lon="5.5104">
        <ele>360.9982</ele>
        <time>2011-03-27T06:17:32Z</time>
      </trkpt>
      <trkpt lat="43.53713" lon="5.51043">
        <ele>360.9982</ele>
        <time>2011-03-27T06:17:33Z</time>
      </trkpt>
      <trkpt lat="43.53713" lon="5.51044">
        <ele>360.9982</ele>
        <time>2011-03-27T06:17:34Z</time>
      </trkpt>
      <trkpt lat="43.53712" lon="5.51046">
        <ele>360.9982</ele>
        <time>2011-03-27T06:17:35Z</time>
      </trkpt>
      <trkpt lat="43.53713" lon="5.51047">
        <ele>360.9982</ele>
        <time>2011-03-27T06:17:36Z</time>
      </trkpt>
      <trkpt lat="43.53712" lon="5.5105">
        <ele>360.9982</ele>
        <time>2011-03-27T06:17:37Z</time>
      </trkpt>
      <trkpt lat="43.53712" lon="5.51052">
        <ele>360.9982</ele>
        <time>2011-03-27T06:17:38Z</time>
      </trkpt>
      <trkpt lat="43.53711" lon="5.51055">
        <ele>360.9982</ele>
        <time>2011-03-27T06:17:39Z</time>
      </trkpt>
      <trkpt lat="43.53711" lon="5.51056">
        <ele>360.9982</ele>
        <time>2011-03-27T06:17:40Z</time>
      </trkpt>
      <trkpt lat="43.53711" lon="5.51059">
        <ele>360.9982</ele>
        <time>2011-03-27T06:17:41Z</time>
      </trkpt>
      <trkpt lat="43.53711" lon="5.51061">
        <ele>360.9982</ele>
        <time>2011-03-27T06:17:42Z</time>
      </trkpt>
      <trkpt lat="43.5371" lon="5.51063">
        <ele>360.9982</ele>
        <time>2011-03-27T06:17:43Z</time>
      </trkpt>
      <trkpt lat="43.53709" lon="5.51065">
        <ele>360.9982</ele>
        <time>2011-03-27T06:17:44Z</time>
      </trkpt>
      <trkpt lat="43.53707" lon="5.51071">
        <ele>359.9982</ele>
        <time>2011-03-27T06:17:48Z</time>
      </trkpt>
      <trkpt lat="43.53706" lon="5.51072">
        <ele>359.9982</ele>
        <time>2011-03-27T06:17:49Z</time>
      </trkpt>
      <trkpt lat="43.53705" lon="5.51074">
        <ele>359.9982</ele>
        <time>2011-03-27T06:17:50Z</time>
      </trkpt>
      <trkpt lat="43.53705" lon="5.51075">
        <ele>359.9982</ele>
        <time>2011-03-27T06:17:51Z</time>
      </trkpt>
      <trkpt lat="43.53704" lon="5.51077">
        <ele>359.9982</ele>
        <time>2011-03-27T06:17:52Z</time>
      </trkpt>
      <trkpt lat="43.53704" lon="5.51078">
        <ele>359.9982</ele>
        <time>2011-03-27T06:17:53Z</time>
      </trkpt>
      <trkpt lat="43.53703" lon="5.5108">
        <ele>358.9982</ele>
        <time>2011-03-27T06:17:54Z</time>
      </trkpt>
      <trkpt lat="43.53703" lon="5.51083">
        <ele>358.9982</ele>
        <time>2011-03-27T06:17:55Z</time>
      </trkpt>
      <trkpt lat="43.53702" lon="5.51084">
        <ele>358.9983</ele>
        <time>2011-03-27T06:17:56Z</time>
      </trkpt>
      <trkpt lat="43.53701" lon="5.51087">
        <ele>358.9983</ele>
        <time>2011-03-27T06:17:57Z</time>
      </trkpt>
      <trkpt lat="43.53701" lon="5.51092">
        <ele>358.9983</ele>
        <time>2011-03-27T06:17:58Z</time>
      </trkpt>
      <trkpt lat="43.53701" lon="5.51095">
        <ele>357.9983</ele>
        <time>2011-03-27T06:17:59Z</time>
      </trkpt>
      <trkpt lat="43.53702" lon="5.51099">
        <ele>357.9983</ele>
        <time>2011-03-27T06:18:00Z</time>
      </trkpt>
      <trkpt lat="43.53706" lon="5.51112">
        <ele>356.9983</ele>
        <time>2011-03-27T06:18:04Z</time>
      </trkpt>
      <trkpt lat="43.53707" lon="5.51115">
        <ele>356.9983</ele>
        <time>2011-03-27T06:18:05Z</time>
      </trkpt>
      <trkpt lat="43.53709" lon="5.51118">
        <ele>356.9984</ele>
        <time>2011-03-27T06:18:06Z</time>
      </trkpt>
      <trkpt lat="43.53711" lon="5.51121">
        <ele>356.9984</ele>
        <time>2011-03-27T06:18:07Z</time>
      </trkpt>
      <trkpt lat="43.53714" lon="5.51124">
        <ele>355.9984</ele>
        <time>2011-03-27T06:18:08Z</time>
      </trkpt>
      <trkpt lat="43.53715" lon="5.51126">
        <ele>355.9984</ele>
        <time>2011-03-27T06:18:09Z</time>
      </trkpt>
      <trkpt lat="43.53718" lon="5.51128">
        <ele>355.9984</ele>
        <time>2011-03-27T06:18:10Z</time>
      </trkpt>
      <trkpt lat="43.5372" lon="5.5113">
        <ele>355.9984</ele>
        <time>2011-03-27T06:18:11Z</time>
      </trkpt>
      <trkpt lat="43.53727" lon="5.51139">
        <ele>354.9984</ele>
        <time>2011-03-27T06:18:15Z</time>
      </trkpt>
      <trkpt lat="43.53728" lon="5.51141">
        <ele>354.9984</ele>
        <time>2011-03-27T06:18:16Z</time>
      </trkpt>
      <trkpt lat="43.53729" lon="5.51142">
        <ele>355.9984</ele>
        <time>2011-03-27T06:18:17Z</time>
      </trkpt>
      <trkpt lat="43.53729" lon="5.51144">
        <ele>355.9984</ele>
        <time>2011-03-27T06:18:18Z</time>
      </trkpt>
      <trkpt lat="43.53729" lon="5.51145">
        <ele>355.9984</ele>
        <time>2011-03-27T06:18:19Z</time>
      </trkpt>
      <trkpt lat="43.53729" lon="5.51146">
        <ele>355.9984</ele>
        <time>2011-03-27T06:18:20Z</time>
      </trkpt>
      <trkpt lat="43.53729" lon="5.51148">
        <ele>355.9984</ele>
        <time>2011-03-27T06:18:21Z</time>
      </trkpt>
      <trkpt lat="43.53728" lon="5.51151">
        <ele>355.9985</ele>
        <time>2011-03-27T06:18:23Z</time>
      </trkpt>
      <trkpt lat="43.53728" lon="5.51153">
        <ele>355.9985</ele>
        <time>2011-03-27T06:18:24Z</time>
      </trkpt>
      <trkpt lat="43.53725" lon="5.51153">
        <ele>356.9984</ele>
        <time>2011-03-27T06:18:25Z</time>
      </trkpt>
      <trkpt lat="43.53724" lon="5.51154">
        <ele>356.9985</ele>
        <time>2011-03-27T06:18:26Z</time>
      </trkpt>
      <trkpt lat="43.53723" lon="5.51156">
        <ele>357.9984</ele>
        <time>2011-03-27T06:18:27Z</time>
      </trkpt>
      <trkpt lat="43.53722" lon="5.51156">
        <ele>358.9985</ele>
        <time>2011-03-27T06:18:28Z</time>
      </trkpt>
      <trkpt lat="43.53719" lon="5.51157">
        <ele>358.9984</ele>
        <time>2011-03-27T06:18:34Z</time>
      </trkpt>
      <trkpt lat="43.53718" lon="5.51157">
        <ele>358.9984</ele>
        <time>2011-03-27T06:18:35Z</time>
      </trkpt>
      <trkpt lat="43.53708" lon="5.51164">
        <ele>358.9984</ele>
        <time>2011-03-27T06:18:42Z</time>
      </trkpt>
      <trkpt lat="43.53707" lon="5.51166">
        <ele>358.9984</ele>
        <time>2011-03-27T06:18:43Z</time>
      </trkpt>
      <trkpt lat="43.53705" lon="5.51168">
        <ele>358.9984</ele>
        <time>2011-03-27T06:18:44Z</time>
      </trkpt>
      <trkpt lat="43.53701" lon="5.51172">
        <ele>357.9984</ele>
        <time>2011-03-27T06:18:45Z</time>
      </trkpt>
      <trkpt lat="43.53695" lon="5.5118">
        <ele>356.9984</ele>
        <time>2011-03-27T06:18:47Z</time>
      </trkpt>
      <trkpt lat="43.53692" lon="5.51184">
        <ele>356.9984</ele>
        <time>2011-03-27T06:18:48Z</time>
      </trkpt>
      <trkpt lat="43.53689" lon="5.51189">
        <ele>356.9984</ele>
        <time>2011-03-27T06:18:49Z</time>
      </trkpt>
      <trkpt lat="43.53687" lon="5.51193">
        <ele>355.9985</ele>
        <time>2011-03-27T06:18:50Z</time>
      </trkpt>
      <trkpt lat="43.5368" lon="5.51224">
        <ele>352.9985</ele>
        <time>2011-03-27T06:18:58Z</time>
      </trkpt>
      <trkpt lat="43.53679" lon="5.51227">
        <ele>352.9985</ele>
        <time>2011-03-27T06:18:59Z</time>
      </trkpt>
      <trkpt lat="43.53679" lon="5.51231">
        <ele>352.9985</ele>
        <time>2011-03-27T06:19:00Z</time>
      </trkpt>
      <trkpt lat="43.53678" lon="5.51234">
        <ele>351.9985</ele>
        <time>2011-03-27T06:19:01Z</time>
      </trkpt>
      <trkpt lat="43.53678" lon="5.51245">
        <ele>351.9985</ele>
        <time>2011-03-27T06:19:04Z</time>
      </trkpt>
      <trkpt lat="43.53678" lon="5.51248">
        <ele>350.9986</ele>
        <time>2011-03-27T06:19:05Z</time>
      </trkpt>
      <trkpt lat="43.53678" lon="5.51254">
        <ele>350.9986</ele>
        <time>2011-03-27T06:19:06Z</time>
      </trkpt>
      <trkpt lat="43.53677" lon="5.51266">
        <ele>348.9986</ele>
        <time>2011-03-27T06:19:08Z</time>
      </trkpt>
      <trkpt lat="43.53677" lon="5.5127">
        <ele>348.9986</ele>
        <time>2011-03-27T06:19:09Z</time>
      </trkpt>
      <trkpt lat="43.53677" lon="5.51279">
        <ele>347.9986</ele>
        <time>2011-03-27T06:19:11Z</time>
      </trkpt>
      <trkpt lat="43.53677" lon="5.51283">
        <ele>348.9986</ele>
        <time>2011-03-27T06:19:12Z</time>
      </trkpt>
      <trkpt lat="43.53677" lon="5.51287">
        <ele>347.9987</ele>
        <time>2011-03-27T06:19:13Z</time>
      </trkpt>
      <trkpt lat="43.53677" lon="5.51291">
        <ele>348.9987</ele>
        <time>2011-03-27T06:19:14Z</time>
      </trkpt>
      <trkpt lat="43.53677" lon="5.51295">
        <ele>348.9987</ele>
        <time>2011-03-27T06:19:15Z</time>
      </trkpt>
      <trkpt lat="43.53678" lon="5.51299">
        <ele>348.9987</ele>
        <time>2011-03-27T06:19:16Z</time>
      </trkpt>
      <trkpt lat="43.53679" lon="5.51303">
        <ele>348.9987</ele>
        <time>2011-03-27T06:19:17Z</time>
      </trkpt>
      <trkpt lat="43.53679" lon="5.51306">
        <ele>348.9987</ele>
        <time>2011-03-27T06:19:18Z</time>
      </trkpt>
      <trkpt lat="43.5368" lon="5.5131">
        <ele>348.9987</ele>
        <time>2011-03-27T06:19:19Z</time>
      </trkpt>
      <trkpt lat="43.5368" lon="5.51314">
        <ele>349.9987</ele>
        <time>2011-03-27T06:19:20Z</time>
      </trkpt>
      <trkpt lat="43.53681" lon="5.51317">
        <ele>349.9987</ele>
        <time>2011-03-27T06:19:21Z</time>
      </trkpt>
      <trkpt lat="43.53682" lon="5.5132">
        <ele>349.9987</ele>
        <time>2011-03-27T06:19:22Z</time>
      </trkpt>
      <trkpt lat="43.53683" lon="5.51324">
        <ele>348.9987</ele>
        <time>2011-03-27T06:19:23Z</time>
      </trkpt>
      <trkpt lat="43.53683" lon="5.51327">
        <ele>348.9987</ele>
        <time>2011-03-27T06:19:24Z</time>
      </trkpt>
      <trkpt lat="43.53684" lon="5.5133">
        <ele>348.9987</ele>
        <time>2011-03-27T06:19:25Z</time>
      </trkpt>
      <trkpt lat="43.53684" lon="5.51333">
        <ele>348.9988</ele>
        <time>2011-03-27T06:19:26Z</time>
      </trkpt>
      <trkpt lat="43.53687" lon="5.51346">
        <ele>349.9988</ele>
        <time>2011-03-27T06:19:32Z</time>
      </trkpt>
      <trkpt lat="43.53688" lon="5.51348">
        <ele>349.9988</ele>
        <time>2011-03-27T06:19:33Z</time>
      </trkpt>
      <trkpt lat="43.53689" lon="5.5135">
        <ele>349.9988</ele>
        <time>2011-03-27T06:19:34Z</time>
      </trkpt>
      <trkpt lat="43.5369" lon="5.51352">
        <ele>348.9988</ele>
        <time>2011-03-27T06:19:35Z</time>
      </trkpt>
      <trkpt lat="43.53691" lon="5.51354">
        <ele>348.9988</ele>
        <time>2011-03-27T06:19:36Z</time>
      </trkpt>
      <trkpt lat="43.53694" lon="5.51359">
        <ele>348.9988</ele>
        <time>2011-03-27T06:19:39Z</time>
      </trkpt>
      <trkpt lat="43.53695" lon="5.51361">
        <ele>348.9988</ele>
        <time>2011-03-27T06:19:40Z</time>
      </trkpt>
      <trkpt lat="43.53698" lon="5.51363">
        <ele>348.9989</ele>
        <time>2011-03-27T06:19:41Z</time>
      </trkpt>
      <trkpt lat="43.53699" lon="5.51365">
        <ele>348.9989</ele>
        <time>2011-03-27T06:19:42Z</time>
      </trkpt>
      <trkpt lat="43.53701" lon="5.51368">
        <ele>347.9989</ele>
        <time>2011-03-27T06:19:43Z</time>
      </trkpt>
      <trkpt lat="43.5371" lon="5.51377">
        <ele>347.9989</ele>
        <time>2011-03-27T06:19:46Z</time>
      </trkpt>
      <trkpt lat="43.53716" lon="5.51384">
        <ele>347.999</ele>
        <time>2011-03-27T06:19:50Z</time>
      </trkpt>
      <trkpt lat="43.53717" lon="5.51386">
        <ele>347.999</ele>
        <time>2011-03-27T06:19:51Z</time>
      </trkpt>
      <trkpt lat="43.5372" lon="5.51389">
        <ele>348.999</ele>
        <time>2011-03-27T06:19:53Z</time>
      </trkpt>
      <trkpt lat="43.53722" lon="5.51391">
        <ele>348.999</ele>
        <time>2011-03-27T06:19:54Z</time>
      </trkpt>
      <trkpt lat="43.53727" lon="5.51399">
        <ele>348.999</ele>
        <time>2011-03-27T06:19:57Z</time>
      </trkpt>
      <trkpt lat="43.53728" lon="5.514">
        <ele>348.999</ele>
        <time>2011-03-27T06:19:58Z</time>
      </trkpt>
      <trkpt lat="43.5373" lon="5.51405">
        <ele>349.999</ele>
        <time>2011-03-27T06:19:59Z</time>
      </trkpt>
      <trkpt lat="43.53732" lon="5.51407">
        <ele>350.999</ele>
        <time>2011-03-27T06:20:00Z</time>
      </trkpt>
      <trkpt lat="43.53733" lon="5.51409">
        <ele>351.9991</ele>
        <time>2011-03-27T06:20:01Z</time>
      </trkpt>
      <trkpt lat="43.53733" lon="5.51411">
        <ele>352.9991</ele>
        <time>2011-03-27T06:20:02Z</time>
      </trkpt>
      <trkpt lat="43.53733" lon="5.51412">
        <ele>353.9991</ele>
        <time>2011-03-27T06:20:03Z</time>
      </trkpt>
      <trkpt lat="43.53732" lon="5.51414">
        <ele>353.9991</ele>
        <time>2011-03-27T06:20:04Z</time>
      </trkpt>
      <trkpt lat="43.5373" lon="5.51418">
        <ele>354.9991</ele>
        <time>2011-03-27T06:20:06Z</time>
      </trkpt>
      <trkpt lat="43.5373" lon="5.5142">
        <ele>354.9991</ele>
        <time>2011-03-27T06:20:07Z</time>
      </trkpt>
      <trkpt lat="43.53726" lon="5.5142">
        <ele>354.9991</ele>
        <time>2011-03-27T06:20:08Z</time>
      </trkpt>
      <trkpt lat="43.53722" lon="5.51423">
        <ele>356.9991</ele>
        <time>2011-03-27T06:20:10Z</time>
      </trkpt>
      <trkpt lat="43.53721" lon="5.51425">
        <ele>356.9991</ele>
        <time>2011-03-27T06:20:11Z</time>
      </trkpt>
      <trkpt lat="43.53719" lon="5.51426">
        <ele>357.9991</ele>
        <time>2011-03-27T06:20:12Z</time>
      </trkpt>
      <trkpt lat="43.53717" lon="5.51428">
        <ele>358.9991</ele>
        <time>2011-03-27T06:20:13Z</time>
      </trkpt>
      <trkpt lat="43.53715" lon="5.51431">
        <ele>359.9991</ele>
        <time>2011-03-27T06:20:14Z</time>
      </trkpt>
      <trkpt lat="43.53711" lon="5.51435">
        <ele>361.9991</ele>
        <time>2011-03-27T06:20:16Z</time>
      </trkpt>
      <trkpt lat="43.5371" lon="5.51438">
        <ele>361.9991</ele>
        <time>2011-03-27T06:20:17Z</time>
      </trkpt>
      <trkpt lat="43.53709" lon="5.51451">
        <ele>363.9991</ele>
        <time>2011-03-27T06:20:23Z</time>
      </trkpt>
      <trkpt lat="43.53709" lon="5.51455">
        <ele>363.9991</ele>
        <time>2011-03-27T06:20:24Z</time>
      </trkpt>
      <trkpt lat="43.53709" lon="5.51461">
        <ele>364.9991</ele>
        <time>2011-03-27T06:20:25Z</time>
      </trkpt>
      <trkpt lat="43.53711" lon="5.51472">
        <ele>364.9991</ele>
        <time>2011-03-27T06:20:27Z</time>
      </trkpt>
      <trkpt lat="43.53712" lon="5.51478">
        <ele>364.9991</ele>
        <time>2011-03-27T06:20:28Z</time>
      </trkpt>
      <trkpt lat="43.53715" lon="5.51489">
        <ele>364.9992</ele>
        <time>2011-03-27T06:20:30Z</time>
      </trkpt>
      <trkpt lat="43.53716" lon="5.51493">
        <ele>364.9992</ele>
        <time>2011-03-27T06:20:31Z</time>
      </trkpt>
      <trkpt lat="43.53718" lon="5.51498">
        <ele>364.9992</ele>
        <time>2011-03-27T06:20:32Z</time>
      </trkpt>
      <trkpt lat="43.53719" lon="5.51502">
        <ele>364.9992</ele>
        <time>2011-03-27T06:20:33Z</time>
      </trkpt>
      <trkpt lat="43.53722" lon="5.51511">
        <ele>363.9992</ele>
        <time>2011-03-27T06:20:35Z</time>
      </trkpt>
      <trkpt lat="43.53724" lon="5.51514">
        <ele>362.9993</ele>
        <time>2011-03-27T06:20:36Z</time>
      </trkpt>
      <trkpt lat="43.53725" lon="5.51518">
        <ele>361.9993</ele>
        <time>2011-03-27T06:20:37Z</time>
      </trkpt>
      <trkpt lat="43.53727" lon="5.51521">
        <ele>360.9993</ele>
        <time>2011-03-27T06:20:38Z</time>
      </trkpt>
      <trkpt lat="43.53729" lon="5.51524">
        <ele>360.9993</ele>
        <time>2011-03-27T06:20:39Z</time>
      </trkpt>
      <trkpt lat="43.53731" lon="5.51527">
        <ele>359.9993</ele>
        <time>2011-03-27T06:20:40Z</time>
      </trkpt>
      <trkpt lat="43.53733" lon="5.5153">
        <ele>359.9993</ele>
        <time>2011-03-27T06:20:41Z</time>
      </trkpt>
      <trkpt lat="43.53735" lon="5.51533">
        <ele>359.9993</ele>
        <time>2011-03-27T06:20:42Z</time>
      </trkpt>
      <trkpt lat="43.53737" lon="5.51536">
        <ele>359.9993</ele>
        <time>2011-03-27T06:20:43Z</time>
      </trkpt>
      <trkpt lat="43.53743" lon="5.51546">
        <ele>358.9994</ele>
        <time>2011-03-27T06:20:48Z</time>
      </trkpt>
      <trkpt lat="43.53745" lon="5.51548">
        <ele>358.9994</ele>
        <time>2011-03-27T06:20:49Z</time>
      </trkpt>
      <trkpt lat="43.53749" lon="5.51557">
        <ele>359.9994</ele>
        <time>2011-03-27T06:20:52Z</time>
      </trkpt>
      <trkpt lat="43.5375" lon="5.5156">
        <ele>360.9994</ele>
        <time>2011-03-27T06:20:53Z</time>
      </trkpt>
      <trkpt lat="43.53757" lon="5.51571">
        <ele>360.9995</ele>
        <time>2011-03-27T06:20:57Z</time>
      </trkpt>
      <trkpt lat="43.53759" lon="5.51574">
        <ele>360.9995</ele>
        <time>2011-03-27T06:20:58Z</time>
      </trkpt>
      <trkpt lat="43.5376" lon="5.51576">
        <ele>360.9995</ele>
        <time>2011-03-27T06:20:59Z</time>
      </trkpt>
      <trkpt lat="43.53762" lon="5.51579">
        <ele>360.9995</ele>
        <time>2011-03-27T06:21:00Z</time>
      </trkpt>
      <trkpt lat="43.53764" lon="5.51582">
        <ele>360.9995</ele>
        <time>2011-03-27T06:21:01Z</time>
      </trkpt>
      <trkpt lat="43.53766" lon="5.51585">
        <ele>361.9995</ele>
        <time>2011-03-27T06:21:02Z</time>
      </trkpt>
      <trkpt lat="43.53768" lon="5.51588">
        <ele>361.9995</ele>
        <time>2011-03-27T06:21:03Z</time>
      </trkpt>
      <trkpt lat="43.5377" lon="5.51592">
        <ele>361.9995</ele>
        <time>2011-03-27T06:21:04Z</time>
      </trkpt>
      <trkpt lat="43.53773" lon="5.51596">
        <ele>361.9995</ele>
        <time>2011-03-27T06:21:05Z</time>
      </trkpt>
      <trkpt lat="43.53775" lon="5.51601">
        <ele>361.9996</ele>
        <time>2011-03-27T06:21:06Z</time>
      </trkpt>
      <trkpt lat="43.53777" lon="5.51605">
        <ele>362.9996</ele>
        <time>2011-03-27T06:21:07Z</time>
      </trkpt>
      <trkpt lat="43.53778" lon="5.51608">
        <ele>362.9996</ele>
        <time>2011-03-27T06:21:08Z</time>
      </trkpt>
      <trkpt lat="43.5378" lon="5.51611">
        <ele>362.9996</ele>
        <time>2011-03-27T06:21:09Z</time>
      </trkpt>
      <trkpt lat="43.53782" lon="5.51615">
        <ele>363.9996</ele>
        <time>2011-03-27T06:21:10Z</time>
      </trkpt>
      <trkpt lat="43.53784" lon="5.51618">
        <ele>363.9996</ele>
        <time>2011-03-27T06:21:11Z</time>
      </trkpt>
      <trkpt lat="43.53786" lon="5.51622">
        <ele>364.9996</ele>
        <time>2011-03-27T06:21:12Z</time>
      </trkpt>
      <trkpt lat="43.53788" lon="5.51625">
        <ele>364.9996</ele>
        <time>2011-03-27T06:21:13Z</time>
      </trkpt>
      <trkpt lat="43.53795" lon="5.51644">
        <ele>363.9997</ele>
        <time>2011-03-27T06:21:21Z</time>
      </trkpt>
      <trkpt lat="43.53796" lon="5.51651">
        <ele>364.9997</ele>
        <time>2011-03-27T06:21:23Z</time>
      </trkpt>
      <trkpt lat="43.53797" lon="5.51654">
        <ele>364.9997</ele>
        <time>2011-03-27T06:21:24Z</time>
      </trkpt>
      <trkpt lat="43.53798" lon="5.51658">
        <ele>364.9998</ele>
        <time>2011-03-27T06:21:25Z</time>
      </trkpt>
      <trkpt lat="43.53799" lon="5.51661">
        <ele>363.9998</ele>
        <time>2011-03-27T06:21:26Z</time>
      </trkpt>
      <trkpt lat="43.53801" lon="5.51664">
        <ele>363.9998</ele>
        <time>2011-03-27T06:21:27Z</time>
      </trkpt>
      <trkpt lat="43.53802" lon="5.51666">
        <ele>363.9998</ele>
        <time>2011-03-27T06:21:28Z</time>
      </trkpt>
      <trkpt lat="43.53804" lon="5.51669">
        <ele>363.9998</ele>
        <time>2011-03-27T06:21:29Z</time>
      </trkpt>
      <trkpt lat="43.5381" lon="5.51675">
        <ele>361.9998</ele>
        <time>2011-03-27T06:21:32Z</time>
      </trkpt>
      <trkpt lat="43.53813" lon="5.51677">
        <ele>361.9998</ele>
        <time>2011-03-27T06:21:33Z</time>
      </trkpt>
      <trkpt lat="43.53818" lon="5.51681">
        <ele>360.9998</ele>
        <time>2011-03-27T06:21:35Z</time>
      </trkpt>
      <trkpt lat="43.53824" lon="5.51684">
        <ele>361.9998</ele>
        <time>2011-03-27T06:21:38Z</time>
      </trkpt>
      <trkpt lat="43.53826" lon="5.51685">
        <ele>361.9999</ele>
        <time>2011-03-27T06:21:39Z</time>
      </trkpt>
      <trkpt lat="43.53828" lon="5.51686">
        <ele>360.9999</ele>
        <time>2011-03-27T06:21:40Z</time>
      </trkpt>
      <trkpt lat="43.53831" lon="5.51687">
        <ele>360.9999</ele>
        <time>2011-03-27T06:21:41Z</time>
      </trkpt>
      <trkpt lat="43.53833" lon="5.51688">
        <ele>360.9999</ele>
        <time>2011-03-27T06:21:42Z</time>
      </trkpt>
      <trkpt lat="43.53843" lon="5.51694">
        <ele>361.9999</ele>
        <time>2011-03-27T06:21:46Z</time>
      </trkpt>
      <trkpt lat="43.53847" lon="5.51696">
        <ele>360.9999</ele>
        <time>2011-03-27T06:21:48Z</time>
      </trkpt>
      <trkpt lat="43.53849" lon="5.51698">
        <ele>359.9999</ele>
        <time>2011-03-27T06:21:49Z</time>
      </trkpt>
      <trkpt lat="43.53855" lon="5.51702">
        <ele>360</ele>
        <time>2011-03-27T06:21:52Z</time>
      </trkpt>
      <trkpt lat="43.53858" lon="5.51704">
        <ele>360</ele>
        <time>2011-03-27T06:21:53Z</time>
      </trkpt>
      <trkpt lat="43.5386" lon="5.51706">
        <ele>360</ele>
        <time>2011-03-27T06:21:54Z</time>
      </trkpt>
      <trkpt lat="43.53862" lon="5.51707">
        <ele>359</ele>
        <time>2011-03-27T06:21:55Z</time>
      </trkpt>
      <trkpt lat="43.53866" lon="5.5171">
        <ele>359</ele>
        <time>2011-03-27T06:21:57Z</time>
      </trkpt>
      <trkpt lat="43.53868" lon="5.51711">
        <ele>360</ele>
        <time>2011-03-27T06:21:58Z</time>
      </trkpt>
      <trkpt lat="43.53878" lon="5.51716">
        <ele>362.0001</ele>
        <time>2011-03-27T06:22:02Z</time>
      </trkpt>
      <trkpt lat="43.53889" lon="5.51721">
        <ele>362.0001</ele>
        <time>2011-03-27T06:22:06Z</time>
      </trkpt>
      <trkpt lat="43.53899" lon="5.51726">
        <ele>360.0001</ele>
        <time>2011-03-27T06:22:10Z</time>
      </trkpt>
      <trkpt lat="43.53906" lon="5.51732">
        <ele>360.0002</ele>
        <time>2011-03-27T06:22:13Z</time>
      </trkpt>
      <trkpt lat="43.53909" lon="5.51733">
        <ele>361.0002</ele>
        <time>2011-03-27T06:22:14Z</time>
      </trkpt>
      <trkpt lat="43.53916" lon="5.5174">
        <ele>362.0002</ele>
        <time>2011-03-27T06:22:17Z</time>
      </trkpt>
      <trkpt lat="43.53918" lon="5.51742">
        <ele>362.0002</ele>
        <time>2011-03-27T06:22:18Z</time>
      </trkpt>
      <trkpt lat="43.5392" lon="5.51745">
        <ele>362.0002</ele>
        <time>2011-03-27T06:22:19Z</time>
      </trkpt>
      <trkpt lat="43.53922" lon="5.51748">
        <ele>361.0002</ele>
        <time>2011-03-27T06:22:20Z</time>
      </trkpt>
      <trkpt lat="43.53924" lon="5.5175">
        <ele>361.0002</ele>
        <time>2011-03-27T06:22:21Z</time>
      </trkpt>
      <trkpt lat="43.53926" lon="5.51753">
        <ele>362.0002</ele>
        <time>2011-03-27T06:22:22Z</time>
      </trkpt>
      <trkpt lat="43.53928" lon="5.51755">
        <ele>362.0002</ele>
        <time>2011-03-27T06:22:23Z</time>
      </trkpt>
      <trkpt lat="43.5393" lon="5.51758">
        <ele>362.0003</ele>
        <time>2011-03-27T06:22:24Z</time>
      </trkpt>
      <trkpt lat="43.53932" lon="5.51761">
        <ele>362.0003</ele>
        <time>2011-03-27T06:22:25Z</time>
      </trkpt>
      <trkpt lat="43.53934" lon="5.51764">
        <ele>362.0003</ele>
        <time>2011-03-27T06:22:26Z</time>
      </trkpt>
      <trkpt lat="43.53936" lon="5.51766">
        <ele>362.0003</ele>
        <time>2011-03-27T06:22:27Z</time>
      </trkpt>
      <trkpt lat="43.53938" lon="5.5177">
        <ele>362.0003</ele>
        <time>2011-03-27T06:22:28Z</time>
      </trkpt>
      <trkpt lat="43.5394" lon="5.51774">
        <ele>362.0003</ele>
        <time>2011-03-27T06:22:29Z</time>
      </trkpt>
      <trkpt lat="43.53943" lon="5.51777">
        <ele>362.0003</ele>
        <time>2011-03-27T06:22:30Z</time>
      </trkpt>
      <trkpt lat="43.53944" lon="5.51781">
        <ele>362.0003</ele>
        <time>2011-03-27T06:22:31Z</time>
      </trkpt>
      <trkpt lat="43.53946" lon="5.51784">
        <ele>361.0004</ele>
        <time>2011-03-27T06:22:32Z</time>
      </trkpt>
      <trkpt lat="43.53947" lon="5.51787">
        <ele>361.0004</ele>
        <time>2011-03-27T06:22:33Z</time>
      </trkpt>
      <trkpt lat="43.53949" lon="5.5179">
        <ele>361.0004</ele>
        <time>2011-03-27T06:22:34Z</time>
      </trkpt>
      <trkpt lat="43.5395" lon="5.51793">
        <ele>361.0004</ele>
        <time>2011-03-27T06:22:35Z</time>
      </trkpt>
      <trkpt lat="43.53951" lon="5.51795">
        <ele>361.0004</ele>
        <time>2011-03-27T06:22:36Z</time>
      </trkpt>
      <trkpt lat="43.53952" lon="5.51799">
        <ele>361.0004</ele>
        <time>2011-03-27T06:22:37Z</time>
      </trkpt>
      <trkpt lat="43.53952" lon="5.51802">
        <ele>361.0004</ele>
        <time>2011-03-27T06:22:38Z</time>
      </trkpt>
      <trkpt lat="43.53953" lon="5.51806">
        <ele>361.0004</ele>
        <time>2011-03-27T06:22:39Z</time>
      </trkpt>
      <trkpt lat="43.53954" lon="5.51808">
        <ele>361.0004</ele>
        <time>2011-03-27T06:22:40Z</time>
      </trkpt>
      <trkpt lat="43.53955" lon="5.51811">
        <ele>361.0004</ele>
        <time>2011-03-27T06:22:41Z</time>
      </trkpt>
      <trkpt lat="43.53956" lon="5.51814">
        <ele>361.0005</ele>
        <time>2011-03-27T06:22:42Z</time>
      </trkpt>
      <trkpt lat="43.53956" lon="5.51817">
        <ele>361.0005</ele>
        <time>2011-03-27T06:22:43Z</time>
      </trkpt>
      <trkpt lat="43.53957" lon="5.5182">
        <ele>361.0005</ele>
        <time>2011-03-27T06:22:44Z</time>
      </trkpt>
      <trkpt lat="43.53958" lon="5.51823">
        <ele>361.0005</ele>
        <time>2011-03-27T06:22:45Z</time>
      </trkpt>
      <trkpt lat="43.53959" lon="5.51826">
        <ele>361.0005</ele>
        <time>2011-03-27T06:22:46Z</time>
      </trkpt>
      <trkpt lat="43.53959" lon="5.51828">
        <ele>361.0005</ele>
        <time>2011-03-27T06:22:47Z</time>
      </trkpt>
      <trkpt lat="43.5396" lon="5.5183">
        <ele>361.0005</ele>
        <time>2011-03-27T06:22:48Z</time>
      </trkpt>
      <trkpt lat="43.53961" lon="5.51832">
        <ele>361.0005</ele>
        <time>2011-03-27T06:22:49Z</time>
      </trkpt>
      <trkpt lat="43.53962" lon="5.51834">
        <ele>361.0005</ele>
        <time>2011-03-27T06:22:50Z</time>
      </trkpt>
      <trkpt lat="43.53964" lon="5.51836">
        <ele>361.0005</ele>
        <time>2011-03-27T06:22:51Z</time>
      </trkpt>
      <trkpt lat="43.53965" lon="5.51837">
        <ele>361.0005</ele>
        <time>2011-03-27T06:22:52Z</time>
      </trkpt>
      <trkpt lat="43.53967" lon="5.51839">
        <ele>361.0005</ele>
        <time>2011-03-27T06:22:53Z</time>
      </trkpt>
      <trkpt lat="43.53968" lon="5.5184">
        <ele>361.0005</ele>
        <time>2011-03-27T06:22:54Z</time>
      </trkpt>
      <trkpt lat="43.5397" lon="5.51841">
        <ele>361.0005</ele>
        <time>2011-03-27T06:22:55Z</time>
      </trkpt>
      <trkpt lat="43.53972" lon="5.51843">
        <ele>361.0005</ele>
        <time>2011-03-27T06:22:56Z</time>
      </trkpt>
      <trkpt lat="43.53974" lon="5.51845">
        <ele>361.0005</ele>
        <time>2011-03-27T06:22:57Z</time>
      </trkpt>
      <trkpt lat="43.53976" lon="5.51846">
        <ele>361.0005</ele>
        <time>2011-03-27T06:22:58Z</time>
      </trkpt>
      <trkpt lat="43.53977" lon="5.51847">
        <ele>361.0006</ele>
        <time>2011-03-27T06:22:59Z</time>
      </trkpt>
      <trkpt lat="43.53979" lon="5.51848">
        <ele>361.0006</ele>
        <time>2011-03-27T06:23:00Z</time>
      </trkpt>
      <trkpt lat="43.5398" lon="5.5185">
        <ele>361.0006</ele>
        <time>2011-03-27T06:23:01Z</time>
      </trkpt>
      <trkpt lat="43.53982" lon="5.51851">
        <ele>360.0006</ele>
        <time>2011-03-27T06:23:02Z</time>
      </trkpt>
      <trkpt lat="43.53982" lon="5.5185">
        <ele>360.0006</ele>
        <time>2011-03-27T06:23:03Z</time>
      </trkpt>
      <trkpt lat="43.53983" lon="5.51851">
        <ele>360.0006</ele>
        <time>2011-03-27T06:23:04Z</time>
      </trkpt>
      <trkpt lat="43.53983" lon="5.51852">
        <ele>360.0006</ele>
        <time>2011-03-27T06:23:05Z</time>
      </trkpt>
      <trkpt lat="43.53984" lon="5.51853">
        <ele>360.0006</ele>
        <time>2011-03-27T06:23:06Z</time>
      </trkpt>
      <trkpt lat="43.53985" lon="5.51853">
        <ele>360.0006</ele>
        <time>2011-03-27T06:23:07Z</time>
      </trkpt>
      <trkpt lat="43.53988" lon="5.51855">
        <ele>361.0006</ele>
        <time>2011-03-27T06:23:09Z</time>
      </trkpt>
      <trkpt lat="43.53989" lon="5.51857">
        <ele>361.0006</ele>
        <time>2011-03-27T06:23:10Z</time>
      </trkpt>
      <trkpt lat="43.53991" lon="5.51857">
        <ele>361.0006</ele>
        <time>2011-03-27T06:23:11Z</time>
      </trkpt>
      <trkpt lat="43.53993" lon="5.51858">
        <ele>361.0006</ele>
        <time>2011-03-27T06:23:12Z</time>
      </trkpt>
      <trkpt lat="43.53996" lon="5.51859">
        <ele>361.0006</ele>
        <time>2011-03-27T06:23:13Z</time>
      </trkpt>
      <trkpt lat="43.53998" lon="5.5186">
        <ele>361.0006</ele>
        <time>2011-03-27T06:23:14Z</time>
      </trkpt>
      <trkpt lat="43.54002" lon="5.51861">
        <ele>361.0007</ele>
        <time>2011-03-27T06:23:16Z</time>
      </trkpt>
      <trkpt lat="43.54004" lon="5.51862">
        <ele>361.0007</ele>
        <time>2011-03-27T06:23:17Z</time>
      </trkpt>
      <trkpt lat="43.54007" lon="5.51862">
        <ele>361.0007</ele>
        <time>2011-03-27T06:23:18Z</time>
      </trkpt>
      <trkpt lat="43.54008" lon="5.51863">
        <ele>361.0007</ele>
        <time>2011-03-27T06:23:19Z</time>
      </trkpt>
      <trkpt lat="43.5401" lon="5.51863">
        <ele>361.0007</ele>
        <time>2011-03-27T06:23:20Z</time>
      </trkpt>
      <trkpt lat="43.54014" lon="5.51864">
        <ele>361.0007</ele>
        <time>2011-03-27T06:23:21Z</time>
      </trkpt>
      <trkpt lat="43.5402" lon="5.51867">
        <ele>361.0007</ele>
        <time>2011-03-27T06:23:23Z</time>
      </trkpt>
      <trkpt lat="43.54023" lon="5.51869">
        <ele>362.0007</ele>
        <time>2011-03-27T06:23:24Z</time>
      </trkpt>
      <trkpt lat="43.54026" lon="5.5187">
        <ele>362.0007</ele>
        <time>2011-03-27T06:23:25Z</time>
      </trkpt>
      <trkpt lat="43.54028" lon="5.51872">
        <ele>363.0007</ele>
        <time>2011-03-27T06:23:26Z</time>
      </trkpt>
      <trkpt lat="43.54037" lon="5.51885">
        <ele>362.0008</ele>
        <time>2011-03-27T06:23:31Z</time>
      </trkpt>
      <trkpt lat="43.54038" lon="5.51887">
        <ele>362.0008</ele>
        <time>2011-03-27T06:23:32Z</time>
      </trkpt>
      <trkpt lat="43.54039" lon="5.5189">
        <ele>362.0008</ele>
        <time>2011-03-27T06:23:33Z</time>
      </trkpt>
      <trkpt lat="43.5404" lon="5.51892">
        <ele>363.0008</ele>
        <time>2011-03-27T06:23:34Z</time>
      </trkpt>
      <trkpt lat="43.54041" lon="5.51894">
        <ele>363.0008</ele>
        <time>2011-03-27T06:23:35Z</time>
      </trkpt>
      <trkpt lat="43.54041" lon="5.51896">
        <ele>363.0008</ele>
        <time>2011-03-27T06:23:36Z</time>
      </trkpt>
      <trkpt lat="43.54038" lon="5.5191">
        <ele>367.0009</ele>
        <time>2011-03-27T06:23:44Z</time>
      </trkpt>
      <trkpt lat="43.54036" lon="5.51911">
        <ele>368.0009</ele>
        <time>2011-03-27T06:23:45Z</time>
      </trkpt>
      <trkpt lat="43.54035" lon="5.51912">
        <ele>368.0009</ele>
        <time>2011-03-27T06:23:46Z</time>
      </trkpt>
      <trkpt lat="43.54029" lon="5.5192">
        <ele>367.0009</ele>
        <time>2011-03-27T06:23:51Z</time>
      </trkpt>
      <trkpt lat="43.54027" lon="5.51922">
        <ele>368.0009</ele>
        <time>2011-03-27T06:23:52Z</time>
      </trkpt>
      <trkpt lat="43.54025" lon="5.51924">
        <ele>368.0009</ele>
        <time>2011-03-27T06:23:53Z</time>
      </trkpt>
      <trkpt lat="43.54023" lon="5.51926">
        <ele>368.0009</ele>
        <time>2011-03-27T06:23:54Z</time>
      </trkpt>
      <trkpt lat="43.54022" lon="5.51928">
        <ele>368.0009</ele>
        <time>2011-03-27T06:23:55Z</time>
      </trkpt>
      <trkpt lat="43.5402" lon="5.5193">
        <ele>368.0009</ele>
        <time>2011-03-27T06:23:56Z</time>
      </trkpt>
      <trkpt lat="43.54012" lon="5.51936">
        <ele>367.0009</ele>
        <time>2011-03-27T06:24:00Z</time>
      </trkpt>
      <trkpt lat="43.5401" lon="5.51938">
        <ele>367.0009</ele>
        <time>2011-03-27T06:24:01Z</time>
      </trkpt>
      <trkpt lat="43.54006" lon="5.5194">
        <ele>367.0009</ele>
        <time>2011-03-27T06:24:03Z</time>
      </trkpt>
      <trkpt lat="43.54004" lon="5.51942">
        <ele>367.0009</ele>
        <time>2011-03-27T06:24:04Z</time>
      </trkpt>
      <trkpt lat="43.54002" lon="5.51943">
        <ele>368.0009</ele>
        <time>2011-03-27T06:24:05Z</time>
      </trkpt>
      <trkpt lat="43.53999" lon="5.51944">
        <ele>368.0008</ele>
        <time>2011-03-27T06:24:06Z</time>
      </trkpt>
      <trkpt lat="43.53997" lon="5.51945">
        <ele>368.0008</ele>
        <time>2011-03-27T06:24:07Z</time>
      </trkpt>
      <trkpt lat="43.53996" lon="5.51946">
        <ele>368.0008</ele>
        <time>2011-03-27T06:24:08Z</time>
      </trkpt>
      <trkpt lat="43.53994" lon="5.51947">
        <ele>368.0008</ele>
        <time>2011-03-27T06:24:09Z</time>
      </trkpt>
      <trkpt lat="43.53991" lon="5.51947">
        <ele>368.0008</ele>
        <time>2011-03-27T06:24:10Z</time>
      </trkpt>
      <trkpt lat="43.53989" lon="5.51947">
        <ele>368.0008</ele>
        <time>2011-03-27T06:24:11Z</time>
      </trkpt>
      <trkpt lat="43.53988" lon="5.51948">
        <ele>368.0008</ele>
        <time>2011-03-27T06:24:12Z</time>
      </trkpt>
      <trkpt lat="43.53986" lon="5.51948">
        <ele>369.0008</ele>
        <time>2011-03-27T06:24:13Z</time>
      </trkpt>
      <trkpt lat="43.53984" lon="5.51948">
        <ele>370.0008</ele>
        <time>2011-03-27T06:24:14Z</time>
      </trkpt>
      <trkpt lat="43.53983" lon="5.51949">
        <ele>371.0008</ele>
        <time>2011-03-27T06:24:15Z</time>
      </trkpt>
      <trkpt lat="43.53981" lon="5.51949">
        <ele>372.0008</ele>
        <time>2011-03-27T06:24:16Z</time>
      </trkpt>
      <trkpt lat="43.5398" lon="5.5195">
        <ele>373.0008</ele>
        <time>2011-03-27T06:24:17Z</time>
      </trkpt>
      <trkpt lat="43.53978" lon="5.5195">
        <ele>373.0008</ele>
        <time>2011-03-27T06:24:18Z</time>
      </trkpt>
      <trkpt lat="43.53969" lon="5.51953">
        <ele>373.0008</ele>
        <time>2011-03-27T06:24:24Z</time>
      </trkpt>
      <trkpt lat="43.53967" lon="5.51954">
        <ele>374.0008</ele>
        <time>2011-03-27T06:24:25Z</time>
      </trkpt>
      <trkpt lat="43.53965" lon="5.51956">
        <ele>375.0008</ele>
        <time>2011-03-27T06:24:26Z</time>
      </trkpt>
      <trkpt lat="43.53963" lon="5.51957">
        <ele>375.0008</ele>
        <time>2011-03-27T06:24:27Z</time>
      </trkpt>
      <trkpt lat="43.53961" lon="5.51958">
        <ele>376.0008</ele>
        <time>2011-03-27T06:24:28Z</time>
      </trkpt>
      <trkpt lat="43.53959" lon="5.5196">
        <ele>376.0008</ele>
        <time>2011-03-27T06:24:29Z</time>
      </trkpt>
      <trkpt lat="43.53949" lon="5.51968">
        <ele>377.0008</ele>
        <time>2011-03-27T06:24:33Z</time>
      </trkpt>
      <trkpt lat="43.53945" lon="5.51972">
        <ele>377.0008</ele>
        <time>2011-03-27T06:24:35Z</time>
      </trkpt>
      <trkpt lat="43.53943" lon="5.51974">
        <ele>377.0008</ele>
        <time>2011-03-27T06:24:36Z</time>
      </trkpt>
      <trkpt lat="43.53941" lon="5.51976">
        <ele>377.0008</ele>
        <time>2011-03-27T06:24:37Z</time>
      </trkpt>
      <trkpt lat="43.53938" lon="5.51978">
        <ele>377.0008</ele>
        <time>2011-03-27T06:24:38Z</time>
      </trkpt>
      <trkpt lat="43.53936" lon="5.5198">
        <ele>377.0008</ele>
        <time>2011-03-27T06:24:39Z</time>
      </trkpt>
      <trkpt lat="43.53933" lon="5.51981">
        <ele>376.0008</ele>
        <time>2011-03-27T06:24:40Z</time>
      </trkpt>
      <trkpt lat="43.53931" lon="5.51983">
        <ele>376.0008</ele>
        <time>2011-03-27T06:24:41Z</time>
      </trkpt>
      <trkpt lat="43.53929" lon="5.51985">
        <ele>376.0008</ele>
        <time>2011-03-27T06:24:42Z</time>
      </trkpt>
      <trkpt lat="43.53927" lon="5.51987">
        <ele>376.0008</ele>
        <time>2011-03-27T06:24:43Z</time>
      </trkpt>
      <trkpt lat="43.53925" lon="5.51989">
        <ele>376.0008</ele>
        <time>2011-03-27T06:24:44Z</time>
      </trkpt>
      <trkpt lat="43.53918" lon="5.52001">
        <ele>377.0008</ele>
        <time>2011-03-27T06:24:49Z</time>
      </trkpt>
      <trkpt lat="43.53918" lon="5.5201">
        <ele>377.0008</ele>
        <time>2011-03-27T06:24:53Z</time>
      </trkpt>
      <trkpt lat="43.53919" lon="5.52014">
        <ele>377.0008</ele>
        <time>2011-03-27T06:24:54Z</time>
      </trkpt>
      <trkpt lat="43.53923" lon="5.52025">
        <ele>377.0009</ele>
        <time>2011-03-27T06:24:57Z</time>
      </trkpt>
      <trkpt lat="43.53923" lon="5.52027">
        <ele>377.0009</ele>
        <time>2011-03-27T06:24:58Z</time>
      </trkpt>
      <trkpt lat="43.53926" lon="5.52031">
        <ele>377.0009</ele>
        <time>2011-03-27T06:24:59Z</time>
      </trkpt>
      <trkpt lat="43.53928" lon="5.52036">
        <ele>376.0009</ele>
        <time>2011-03-27T06:25:00Z</time>
      </trkpt>
      <trkpt lat="43.53932" lon="5.52043">
        <ele>376.0009</ele>
        <time>2011-03-27T06:25:02Z</time>
      </trkpt>
      <trkpt lat="43.53935" lon="5.52047">
        <ele>376.0009</ele>
        <time>2011-03-27T06:25:03Z</time>
      </trkpt>
      <trkpt lat="43.53941" lon="5.52059">
        <ele>376.001</ele>
        <time>2011-03-27T06:25:08Z</time>
      </trkpt>
      <trkpt lat="43.53943" lon="5.52063">
        <ele>376.001</ele>
        <time>2011-03-27T06:25:10Z</time>
      </trkpt>
      <trkpt lat="43.53944" lon="5.52065">
        <ele>377.001</ele>
        <time>2011-03-27T06:25:11Z</time>
      </trkpt>
      <trkpt lat="43.53946" lon="5.5207">
        <ele>376.001</ele>
        <time>2011-03-27T06:25:13Z</time>
      </trkpt>
      <trkpt lat="43.53947" lon="5.52072">
        <ele>376.001</ele>
        <time>2011-03-27T06:25:14Z</time>
      </trkpt>
      <trkpt lat="43.53947" lon="5.52074">
        <ele>375.001</ele>
        <time>2011-03-27T06:25:15Z</time>
      </trkpt>
      <trkpt lat="43.53949" lon="5.52076">
        <ele>375.001</ele>
        <time>2011-03-27T06:25:16Z</time>
      </trkpt>
      <trkpt lat="43.5396" lon="5.52093">
        <ele>371.0011</ele>
        <time>2011-03-27T06:25:24Z</time>
      </trkpt>
      <trkpt lat="43.53962" lon="5.52095">
        <ele>370.0011</ele>
        <time>2011-03-27T06:25:25Z</time>
      </trkpt>
      <trkpt lat="43.53964" lon="5.52098">
        <ele>370.0011</ele>
        <time>2011-03-27T06:25:26Z</time>
      </trkpt>
      <trkpt lat="43.53967" lon="5.52112">
        <ele>370.0011</ele>
        <time>2011-03-27T06:25:31Z</time>
      </trkpt>
      <trkpt lat="43.53966" lon="5.52114">
        <ele>370.0011</ele>
        <time>2011-03-27T06:25:32Z</time>
      </trkpt>
      <trkpt lat="43.53965" lon="5.52116">
        <ele>370.0011</ele>
        <time>2011-03-27T06:25:33Z</time>
      </trkpt>
      <trkpt lat="43.53964" lon="5.52118">
        <ele>369.0012</ele>
        <time>2011-03-27T06:25:34Z</time>
      </trkpt>
      <trkpt lat="43.53963" lon="5.52121">
        <ele>369.0012</ele>
        <time>2011-03-27T06:25:35Z</time>
      </trkpt>
      <trkpt lat="43.53961" lon="5.52122">
        <ele>369.0012</ele>
        <time>2011-03-27T06:25:36Z</time>
      </trkpt>
      <trkpt lat="43.5396" lon="5.52124">
        <ele>369.0012</ele>
        <time>2011-03-27T06:25:37Z</time>
      </trkpt>
      <trkpt lat="43.53958" lon="5.52126">
        <ele>369.0012</ele>
        <time>2011-03-27T06:25:38Z</time>
      </trkpt>
      <trkpt lat="43.53955" lon="5.52128">
        <ele>368.0012</ele>
        <time>2011-03-27T06:25:39Z</time>
      </trkpt>
      <trkpt lat="43.53953" lon="5.5213">
        <ele>368.0012</ele>
        <time>2011-03-27T06:25:40Z</time>
      </trkpt>
      <trkpt lat="43.5395" lon="5.52132">
        <ele>366.0012</ele>
        <time>2011-03-27T06:25:41Z</time>
      </trkpt>
      <trkpt lat="43.53947" lon="5.52133">
        <ele>366.0011</ele>
        <time>2011-03-27T06:25:42Z</time>
      </trkpt>
      <trkpt lat="43.53944" lon="5.52135">
        <ele>365.0011</ele>
        <time>2011-03-27T06:25:43Z</time>
      </trkpt>
      <trkpt lat="43.53942" lon="5.52137">
        <ele>364.0011</ele>
        <time>2011-03-27T06:25:44Z</time>
      </trkpt>
      <trkpt lat="43.53939" lon="5.52138">
        <ele>364.0011</ele>
        <time>2011-03-27T06:25:45Z</time>
      </trkpt>
      <trkpt lat="43.53936" lon="5.52139">
        <ele>363.0011</ele>
        <time>2011-03-27T06:25:46Z</time>
      </trkpt>
      <trkpt lat="43.53934" lon="5.52141">
        <ele>363.0011</ele>
        <time>2011-03-27T06:25:47Z</time>
      </trkpt>
      <trkpt lat="43.53931" lon="5.52142">
        <ele>363.0011</ele>
        <time>2011-03-27T06:25:48Z</time>
      </trkpt>
      <trkpt lat="43.53929" lon="5.52143">
        <ele>362.0011</ele>
        <time>2011-03-27T06:25:49Z</time>
      </trkpt>
      <trkpt lat="43.53927" lon="5.52144">
        <ele>362.0011</ele>
        <time>2011-03-27T06:25:50Z</time>
      </trkpt>
      <trkpt lat="43.53924" lon="5.52145">
        <ele>361.0011</ele>
        <time>2011-03-27T06:25:51Z</time>
      </trkpt>
      <trkpt lat="43.53922" lon="5.52147">
        <ele>361.0011</ele>
        <time>2011-03-27T06:25:52Z</time>
      </trkpt>
      <trkpt lat="43.5392" lon="5.52149">
        <ele>360.0011</ele>
        <time>2011-03-27T06:25:53Z</time>
      </trkpt>
      <trkpt lat="43.53918" lon="5.5215">
        <ele>360.0011</ele>
        <time>2011-03-27T06:25:54Z</time>
      </trkpt>
      <trkpt lat="43.53915" lon="5.52151">
        <ele>359.0011</ele>
        <time>2011-03-27T06:25:55Z</time>
      </trkpt>
      <trkpt lat="43.53914" lon="5.52152">
        <ele>359.0011</ele>
        <time>2011-03-27T06:25:56Z</time>
      </trkpt>
      <trkpt lat="43.53911" lon="5.52154">
        <ele>359.0011</ele>
        <time>2011-03-27T06:25:57Z</time>
      </trkpt>
      <trkpt lat="43.53909" lon="5.52155">
        <ele>358.0011</ele>
        <time>2011-03-27T06:25:58Z</time>
      </trkpt>
      <trkpt lat="43.53907" lon="5.52157">
        <ele>358.0011</ele>
        <time>2011-03-27T06:25:59Z</time>
      </trkpt>
      <trkpt lat="43.53905" lon="5.52159">
        <ele>358.0011</ele>
        <time>2011-03-27T06:26:00Z</time>
      </trkpt>
      <trkpt lat="43.53903" lon="5.52161">
        <ele>357.0011</ele>
        <time>2011-03-27T06:26:01Z</time>
      </trkpt>
      <trkpt lat="43.53901" lon="5.52162">
        <ele>357.0011</ele>
        <time>2011-03-27T06:26:02Z</time>
      </trkpt>
      <trkpt lat="43.53899" lon="5.52164">
        <ele>356.0011</ele>
        <time>2011-03-27T06:26:03Z</time>
      </trkpt>
      <trkpt lat="43.53896" lon="5.52166">
        <ele>355.0011</ele>
        <time>2011-03-27T06:26:04Z</time>
      </trkpt>
      <trkpt lat="43.53894" lon="5.52168">
        <ele>355.0011</ele>
        <time>2011-03-27T06:26:05Z</time>
      </trkpt>
      <trkpt lat="43.53891" lon="5.52169">
        <ele>354.0011</ele>
        <time>2011-03-27T06:26:06Z</time>
      </trkpt>
      <trkpt lat="43.53889" lon="5.52171">
        <ele>354.0011</ele>
        <time>2011-03-27T06:26:07Z</time>
      </trkpt>
      <trkpt lat="43.53887" lon="5.52173">
        <ele>353.0011</ele>
        <time>2011-03-27T06:26:08Z</time>
      </trkpt>
      <trkpt lat="43.53885" lon="5.52174">
        <ele>353.0011</ele>
        <time>2011-03-27T06:26:09Z</time>
      </trkpt>
      <trkpt lat="43.53882" lon="5.52175">
        <ele>353.0011</ele>
        <time>2011-03-27T06:26:10Z</time>
      </trkpt>
      <trkpt lat="43.5388" lon="5.52175">
        <ele>353.0011</ele>
        <time>2011-03-27T06:26:11Z</time>
      </trkpt>
      <trkpt lat="43.53878" lon="5.52175">
        <ele>353.0011</ele>
        <time>2011-03-27T06:26:12Z</time>
      </trkpt>
      <trkpt lat="43.53875" lon="5.52173">
        <ele>354.0011</ele>
        <time>2011-03-27T06:26:15Z</time>
      </trkpt>
      <trkpt lat="43.53874" lon="5.52173">
        <ele>354.0011</ele>
        <time>2011-03-27T06:26:16Z</time>
      </trkpt>
      <trkpt lat="43.53872" lon="5.52172">
        <ele>355.0011</ele>
        <time>2011-03-27T06:26:17Z</time>
      </trkpt>
      <trkpt lat="43.5387" lon="5.52171">
        <ele>355.001</ele>
        <time>2011-03-27T06:26:18Z</time>
      </trkpt>
      <trkpt lat="43.5386" lon="5.52167">
        <ele>355.001</ele>
        <time>2011-03-27T06:26:24Z</time>
      </trkpt>
      <trkpt lat="43.53858" lon="5.52165">
        <ele>354.001</ele>
        <time>2011-03-27T06:26:25Z</time>
      </trkpt>
      <trkpt lat="43.53848" lon="5.52158">
        <ele>353.001</ele>
        <time>2011-03-27T06:26:30Z</time>
      </trkpt>
      <trkpt lat="43.53846" lon="5.52157">
        <ele>352.001</ele>
        <time>2011-03-27T06:26:31Z</time>
      </trkpt>
      <trkpt lat="43.53844" lon="5.52156">
        <ele>353.001</ele>
        <time>2011-03-27T06:26:32Z</time>
      </trkpt>
      <trkpt lat="43.53831" lon="5.52151">
        <ele>353.0009</ele>
        <time>2011-03-27T06:26:37Z</time>
      </trkpt>
      <trkpt lat="43.53829" lon="5.52151">
        <ele>353.0009</ele>
        <time>2011-03-27T06:26:38Z</time>
      </trkpt>
      <trkpt lat="43.53827" lon="5.52151">
        <ele>354.0009</ele>
        <time>2011-03-27T06:26:39Z</time>
      </trkpt>
      <trkpt lat="43.53819" lon="5.52152">
        <ele>355.0009</ele>
        <time>2011-03-27T06:26:43Z</time>
      </trkpt>
      <trkpt lat="43.53816" lon="5.52152">
        <ele>355.0009</ele>
        <time>2011-03-27T06:26:44Z</time>
      </trkpt>
      <trkpt lat="43.53806" lon="5.52158">
        <ele>355.0009</ele>
        <time>2011-03-27T06:26:52Z</time>
      </trkpt>
      <trkpt lat="43.53803" lon="5.52164">
        <ele>357.0009</ele>
        <time>2011-03-27T06:26:56Z</time>
      </trkpt>
      <trkpt lat="43.53803" lon="5.52168">
        <ele>357.0009</ele>
        <time>2011-03-27T06:26:57Z</time>
      </trkpt>
      <trkpt lat="43.53802" lon="5.52189">
        <ele>359.0009</ele>
        <time>2011-03-27T06:27:02Z</time>
      </trkpt>
      <trkpt lat="43.53803" lon="5.52193">
        <ele>360.0009</ele>
        <time>2011-03-27T06:27:03Z</time>
      </trkpt>
      <trkpt lat="43.53805" lon="5.52208">
        <ele>359.001</ele>
        <time>2011-03-27T06:27:06Z</time>
      </trkpt>
      <trkpt lat="43.53807" lon="5.52216">
        <ele>358.001</ele>
        <time>2011-03-27T06:27:08Z</time>
      </trkpt>
      <trkpt lat="43.53808" lon="5.5222">
        <ele>359.001</ele>
        <time>2011-03-27T06:27:09Z</time>
      </trkpt>
      <trkpt lat="43.5381" lon="5.52223">
        <ele>359.001</ele>
        <time>2011-03-27T06:27:10Z</time>
      </trkpt>
      <trkpt lat="43.53811" lon="5.52226">
        <ele>359.001</ele>
        <time>2011-03-27T06:27:11Z</time>
      </trkpt>
      <trkpt lat="43.53813" lon="5.5223">
        <ele>359.001</ele>
        <time>2011-03-27T06:27:12Z</time>
      </trkpt>
      <trkpt lat="43.53815" lon="5.52232">
        <ele>360.0011</ele>
        <time>2011-03-27T06:27:13Z</time>
      </trkpt>
      <trkpt lat="43.5382" lon="5.52238">
        <ele>360.0011</ele>
        <time>2011-03-27T06:27:16Z</time>
      </trkpt>
      <trkpt lat="43.53822" lon="5.5224">
        <ele>360.0011</ele>
        <time>2011-03-27T06:27:17Z</time>
      </trkpt>
      <trkpt lat="43.53824" lon="5.52242">
        <ele>360.0011</ele>
        <time>2011-03-27T06:27:18Z</time>
      </trkpt>
      <trkpt lat="43.53826" lon="5.52244">
        <ele>360.0011</ele>
        <time>2011-03-27T06:27:19Z</time>
      </trkpt>
      <trkpt lat="43.53828" lon="5.52246">
        <ele>360.0011</ele>
        <time>2011-03-27T06:27:20Z</time>
      </trkpt>
      <trkpt lat="43.5383" lon="5.52248">
        <ele>360.0011</ele>
        <time>2011-03-27T06:27:21Z</time>
      </trkpt>
      <trkpt lat="43.53832" lon="5.52249">
        <ele>360.0011</ele>
        <time>2011-03-27T06:27:22Z</time>
      </trkpt>
      <trkpt lat="43.53833" lon="5.52251">
        <ele>360.0012</ele>
        <time>2011-03-27T06:27:23Z</time>
      </trkpt>
      <trkpt lat="43.53835" lon="5.52252">
        <ele>360.0012</ele>
        <time>2011-03-27T06:27:24Z</time>
      </trkpt>
      <trkpt lat="43.53837" lon="5.52253">
        <ele>361.0012</ele>
        <time>2011-03-27T06:27:25Z</time>
      </trkpt>
      <trkpt lat="43.53839" lon="5.52255">
        <ele>361.0012</ele>
        <time>2011-03-27T06:27:26Z</time>
      </trkpt>
      <trkpt lat="43.53841" lon="5.52257">
        <ele>361.0012</ele>
        <time>2011-03-27T06:27:27Z</time>
      </trkpt>
      <trkpt lat="43.53843" lon="5.5226">
        <ele>362.0012</ele>
        <time>2011-03-27T06:27:28Z</time>
      </trkpt>
      <trkpt lat="43.53845" lon="5.52262">
        <ele>362.0012</ele>
        <time>2011-03-27T06:27:29Z</time>
      </trkpt>
      <trkpt lat="43.53846" lon="5.52265">
        <ele>363.0012</ele>
        <time>2011-03-27T06:27:30Z</time>
      </trkpt>
      <trkpt lat="43.53848" lon="5.52267">
        <ele>362.0012</ele>
        <time>2011-03-27T06:27:31Z</time>
      </trkpt>
      <trkpt lat="43.53849" lon="5.5227">
        <ele>363.0012</ele>
        <time>2011-03-27T06:27:32Z</time>
      </trkpt>
      <trkpt lat="43.5385" lon="5.52272">
        <ele>363.0012</ele>
        <time>2011-03-27T06:27:33Z</time>
      </trkpt>
      <trkpt lat="43.53851" lon="5.52275">
        <ele>363.0013</ele>
        <time>2011-03-27T06:27:34Z</time>
      </trkpt>
      <trkpt lat="43.53853" lon="5.52277">
        <ele>363.0013</ele>
        <time>2011-03-27T06:27:35Z</time>
      </trkpt>
      <trkpt lat="43.53854" lon="5.52279">
        <ele>363.0013</ele>
        <time>2011-03-27T06:27:36Z</time>
      </trkpt>
      <trkpt lat="43.53855" lon="5.52281">
        <ele>363.0013</ele>
        <time>2011-03-27T06:27:37Z</time>
      </trkpt>
      <trkpt lat="43.53856" lon="5.52283">
        <ele>363.0013</ele>
        <time>2011-03-27T06:27:38Z</time>
      </trkpt>
      <trkpt lat="43.53857" lon="5.52286">
        <ele>364.0013</ele>
        <time>2011-03-27T06:27:39Z</time>
      </trkpt>
      <trkpt lat="43.53859" lon="5.52288">
        <ele>364.0013</ele>
        <time>2011-03-27T06:27:40Z</time>
      </trkpt>
      <trkpt lat="43.53859" lon="5.5229">
        <ele>364.0013</ele>
        <time>2011-03-27T06:27:41Z</time>
      </trkpt>
      <trkpt lat="43.53861" lon="5.52292">
        <ele>363.0013</ele>
        <time>2011-03-27T06:27:42Z</time>
      </trkpt>
      <trkpt lat="43.53862" lon="5.52295">
        <ele>363.0013</ele>
        <time>2011-03-27T06:27:43Z</time>
      </trkpt>
      <trkpt lat="43.53863" lon="5.52297">
        <ele>363.0013</ele>
        <time>2011-03-27T06:27:44Z</time>
      </trkpt>
      <trkpt lat="43.53864" lon="5.52299">
        <ele>364.0013</ele>
        <time>2011-03-27T06:27:45Z</time>
      </trkpt>
      <trkpt lat="43.53865" lon="5.52302">
        <ele>364.0013</ele>
        <time>2011-03-27T06:27:46Z</time>
      </trkpt>
      <trkpt lat="43.53867" lon="5.52305">
        <ele>364.0013</ele>
        <time>2011-03-27T06:27:47Z</time>
      </trkpt>
      <trkpt lat="43.53867" lon="5.52307">
        <ele>364.0013</ele>
        <time>2011-03-27T06:27:48Z</time>
      </trkpt>
      <trkpt lat="43.53868" lon="5.52311">
        <ele>364.0013</ele>
        <time>2011-03-27T06:27:49Z</time>
      </trkpt>
      <trkpt lat="43.53869" lon="5.52314">
        <ele>364.0014</ele>
        <time>2011-03-27T06:27:50Z</time>
      </trkpt>
      <trkpt lat="43.5387" lon="5.52317">
        <ele>364.0014</ele>
        <time>2011-03-27T06:27:51Z</time>
      </trkpt>
      <trkpt lat="43.53871" lon="5.5232">
        <ele>364.0014</ele>
        <time>2011-03-27T06:27:52Z</time>
      </trkpt>
      <trkpt lat="43.53872" lon="5.52323">
        <ele>364.0014</ele>
        <time>2011-03-27T06:27:53Z</time>
      </trkpt>
      <trkpt lat="43.53873" lon="5.52325">
        <ele>363.0014</ele>
        <time>2011-03-27T06:27:54Z</time>
      </trkpt>
      <trkpt lat="43.53876" lon="5.52335">
        <ele>366.0014</ele>
        <time>2011-03-27T06:28:00Z</time>
      </trkpt>
      <trkpt lat="43.53877" lon="5.52337">
        <ele>367.0014</ele>
        <time>2011-03-27T06:28:01Z</time>
      </trkpt>
      <trkpt lat="43.53878" lon="5.52339">
        <ele>368.0014</ele>
        <time>2011-03-27T06:28:02Z</time>
      </trkpt>
      <trkpt lat="43.53879" lon="5.52342">
        <ele>368.0015</ele>
        <time>2011-03-27T06:28:03Z</time>
      </trkpt>
      <trkpt lat="43.5388" lon="5.52344">
        <ele>368.0015</ele>
        <time>2011-03-27T06:28:04Z</time>
      </trkpt>
      <trkpt lat="43.53881" lon="5.52347">
        <ele>368.0015</ele>
        <time>2011-03-27T06:28:05Z</time>
      </trkpt>
      <trkpt lat="43.53882" lon="5.5235">
        <ele>369.0015</ele>
        <time>2011-03-27T06:28:06Z</time>
      </trkpt>
      <trkpt lat="43.53884" lon="5.52353">
        <ele>369.0015</ele>
        <time>2011-03-27T06:28:07Z</time>
      </trkpt>
      <trkpt lat="43.53887" lon="5.52363">
        <ele>369.0015</ele>
        <time>2011-03-27T06:28:11Z</time>
      </trkpt>
      <trkpt lat="43.53888" lon="5.52366">
        <ele>368.0015</ele>
        <time>2011-03-27T06:28:12Z</time>
      </trkpt>
      <trkpt lat="43.53888" lon="5.52369">
        <ele>369.0015</ele>
        <time>2011-03-27T06:28:13Z</time>
      </trkpt>
      <trkpt lat="43.53889" lon="5.52372">
        <ele>369.0015</ele>
        <time>2011-03-27T06:28:14Z</time>
      </trkpt>
      <trkpt lat="43.5389" lon="5.52378">
        <ele>370.0016</ele>
        <time>2011-03-27T06:28:16Z</time>
      </trkpt>
      <trkpt lat="43.53891" lon="5.52391">
        <ele>371.0016</ele>
        <time>2011-03-27T06:28:20Z</time>
      </trkpt>
      <trkpt lat="43.53892" lon="5.52395">
        <ele>371.0016</ele>
        <time>2011-03-27T06:28:21Z</time>
      </trkpt>
      <trkpt lat="43.53892" lon="5.52398">
        <ele>371.0016</ele>
        <time>2011-03-27T06:28:22Z</time>
      </trkpt>
      <trkpt lat="43.53893" lon="5.524">
        <ele>371.0016</ele>
        <time>2011-03-27T06:28:23Z</time>
      </trkpt>
      <trkpt lat="43.53893" lon="5.52404">
        <ele>372.0016</ele>
        <time>2011-03-27T06:28:24Z</time>
      </trkpt>
      <trkpt lat="43.53895" lon="5.52414">
        <ele>372.0016</ele>
        <time>2011-03-27T06:28:27Z</time>
      </trkpt>
      <trkpt lat="43.53897" lon="5.52427">
        <ele>373.0017</ele>
        <time>2011-03-27T06:28:31Z</time>
      </trkpt>
      <trkpt lat="43.539" lon="5.52442">
        <ele>374.0017</ele>
        <time>2011-03-27T06:28:36Z</time>
      </trkpt>
      <trkpt lat="43.53901" lon="5.52446">
        <ele>374.0017</ele>
        <time>2011-03-27T06:28:37Z</time>
      </trkpt>
      <trkpt lat="43.53902" lon="5.5245">
        <ele>374.0017</ele>
        <time>2011-03-27T06:28:38Z</time>
      </trkpt>
      <trkpt lat="43.53904" lon="5.52454">
        <ele>373.0018</ele>
        <time>2011-03-27T06:28:39Z</time>
      </trkpt>
      <trkpt lat="43.53906" lon="5.52458">
        <ele>373.0018</ele>
        <time>2011-03-27T06:28:40Z</time>
      </trkpt>
      <trkpt lat="43.53908" lon="5.52462">
        <ele>373.0018</ele>
        <time>2011-03-27T06:28:41Z</time>
      </trkpt>
      <trkpt lat="43.5391" lon="5.52467">
        <ele>373.0018</ele>
        <time>2011-03-27T06:28:42Z</time>
      </trkpt>
      <trkpt lat="43.53912" lon="5.52471">
        <ele>373.0018</ele>
        <time>2011-03-27T06:28:43Z</time>
      </trkpt>
      <trkpt lat="43.53914" lon="5.52474">
        <ele>372.0018</ele>
        <time>2011-03-27T06:28:44Z</time>
      </trkpt>
      <trkpt lat="43.53917" lon="5.52478">
        <ele>372.0018</ele>
        <time>2011-03-27T06:28:45Z</time>
      </trkpt>
      <trkpt lat="43.53919" lon="5.52481">
        <ele>371.0019</ele>
        <time>2011-03-27T06:28:46Z</time>
      </trkpt>
      <trkpt lat="43.53921" lon="5.52484">
        <ele>372.0019</ele>
        <time>2011-03-27T06:28:47Z</time>
      </trkpt>
      <trkpt lat="43.53923" lon="5.52487">
        <ele>372.0019</ele>
        <time>2011-03-27T06:28:48Z</time>
      </trkpt>
      <trkpt lat="43.53925" lon="5.52489">
        <ele>371.0019</ele>
        <time>2011-03-27T06:28:49Z</time>
      </trkpt>
      <trkpt lat="43.53927" lon="5.52489">
        <ele>371.0019</ele>
        <time>2011-03-27T06:28:50Z</time>
      </trkpt>
      <trkpt lat="43.5393" lon="5.52491">
        <ele>371.0019</ele>
        <time>2011-03-27T06:28:52Z</time>
      </trkpt>
      <trkpt lat="43.53931" lon="5.52492">
        <ele>371.0019</ele>
        <time>2011-03-27T06:28:53Z</time>
      </trkpt>
      <trkpt lat="43.53933" lon="5.52493">
        <ele>371.0019</ele>
        <time>2011-03-27T06:28:54Z</time>
      </trkpt>
      <trkpt lat="43.53935" lon="5.52495">
        <ele>371.0019</ele>
        <time>2011-03-27T06:28:55Z</time>
      </trkpt>
      <trkpt lat="43.53936" lon="5.52496">
        <ele>371.0019</ele>
        <time>2011-03-27T06:28:56Z</time>
      </trkpt>
      <trkpt lat="43.53938" lon="5.52497">
        <ele>371.0019</ele>
        <time>2011-03-27T06:28:57Z</time>
      </trkpt>
      <trkpt lat="43.53939" lon="5.52499">
        <ele>371.002</ele>
        <time>2011-03-27T06:28:58Z</time>
      </trkpt>
      <trkpt lat="43.53941" lon="5.52501">
        <ele>372.002</ele>
        <time>2011-03-27T06:28:59Z</time>
      </trkpt>
      <trkpt lat="43.53948" lon="5.5251">
        <ele>373.002</ele>
        <time>2011-03-27T06:29:03Z</time>
      </trkpt>
      <trkpt lat="43.53949" lon="5.52512">
        <ele>373.002</ele>
        <time>2011-03-27T06:29:04Z</time>
      </trkpt>
      <trkpt lat="43.53952" lon="5.52525">
        <ele>373.002</ele>
        <time>2011-03-27T06:29:08Z</time>
      </trkpt>
      <trkpt lat="43.53952" lon="5.52528">
        <ele>373.002</ele>
        <time>2011-03-27T06:29:09Z</time>
      </trkpt>
      <trkpt lat="43.53951" lon="5.52532">
        <ele>373.002</ele>
        <time>2011-03-27T06:29:10Z</time>
      </trkpt>
      <trkpt lat="43.53951" lon="5.52536">
        <ele>374.002</ele>
        <time>2011-03-27T06:29:11Z</time>
      </trkpt>
      <trkpt lat="43.5395" lon="5.52539">
        <ele>374.002</ele>
        <time>2011-03-27T06:29:12Z</time>
      </trkpt>
      <trkpt lat="43.5395" lon="5.52543">
        <ele>374.0021</ele>
        <time>2011-03-27T06:29:13Z</time>
      </trkpt>
      <trkpt lat="43.53949" lon="5.52547">
        <ele>374.0021</ele>
        <time>2011-03-27T06:29:14Z</time>
      </trkpt>
      <trkpt lat="43.53949" lon="5.52551">
        <ele>374.0021</ele>
        <time>2011-03-27T06:29:15Z</time>
      </trkpt>
      <trkpt lat="43.53949" lon="5.52555">
        <ele>374.0021</ele>
        <time>2011-03-27T06:29:16Z</time>
      </trkpt>
      <trkpt lat="43.53949" lon="5.52559">
        <ele>374.0021</ele>
        <time>2011-03-27T06:29:17Z</time>
      </trkpt>
      <trkpt lat="43.53949" lon="5.52563">
        <ele>375.0021</ele>
        <time>2011-03-27T06:29:18Z</time>
      </trkpt>
      <trkpt lat="43.53951" lon="5.52567">
        <ele>374.0021</ele>
        <time>2011-03-27T06:29:19Z</time>
      </trkpt>
      <trkpt lat="43.53952" lon="5.5257">
        <ele>374.0021</ele>
        <time>2011-03-27T06:29:20Z</time>
      </trkpt>
      <trkpt lat="43.53953" lon="5.52574">
        <ele>374.0021</ele>
        <time>2011-03-27T06:29:21Z</time>
      </trkpt>
      <trkpt lat="43.53954" lon="5.52578">
        <ele>374.0021</ele>
        <time>2011-03-27T06:29:22Z</time>
      </trkpt>
      <trkpt lat="43.53955" lon="5.52582">
        <ele>374.0022</ele>
        <time>2011-03-27T06:29:23Z</time>
      </trkpt>
      <trkpt lat="43.53957" lon="5.5259">
        <ele>372.0022</ele>
        <time>2011-03-27T06:29:26Z</time>
      </trkpt>
      <trkpt lat="43.53958" lon="5.52593">
        <ele>372.0022</ele>
        <time>2011-03-27T06:29:27Z</time>
      </trkpt>
      <trkpt lat="43.53959" lon="5.52596">
        <ele>371.0022</ele>
        <time>2011-03-27T06:29:28Z</time>
      </trkpt>
      <trkpt lat="43.5396" lon="5.52599">
        <ele>371.0022</ele>
        <time>2011-03-27T06:29:29Z</time>
      </trkpt>
      <trkpt lat="43.53961" lon="5.52603">
        <ele>372.0022</ele>
        <time>2011-03-27T06:29:30Z</time>
      </trkpt>
      <trkpt lat="43.53962" lon="5.52606">
        <ele>372.0022</ele>
        <time>2011-03-27T06:29:31Z</time>
      </trkpt>
      <trkpt lat="43.53963" lon="5.5261">
        <ele>372.0022</ele>
        <time>2011-03-27T06:29:32Z</time>
      </trkpt>
      <trkpt lat="43.53964" lon="5.52614">
        <ele>372.0023</ele>
        <time>2011-03-27T06:29:33Z</time>
      </trkpt>
      <trkpt lat="43.53965" lon="5.52618">
        <ele>372.0023</ele>
        <time>2011-03-27T06:29:34Z</time>
      </trkpt>
      <trkpt lat="43.53966" lon="5.52621">
        <ele>372.0023</ele>
        <time>2011-03-27T06:29:35Z</time>
      </trkpt>
      <trkpt lat="43.53967" lon="5.52626">
        <ele>372.0023</ele>
        <time>2011-03-27T06:29:36Z</time>
      </trkpt>
      <trkpt lat="43.53968" lon="5.5263">
        <ele>372.0023</ele>
        <time>2011-03-27T06:29:37Z</time>
      </trkpt>
      <trkpt lat="43.53969" lon="5.52634">
        <ele>372.0023</ele>
        <time>2011-03-27T06:29:38Z</time>
      </trkpt>
      <trkpt lat="43.5397" lon="5.52637">
        <ele>372.0023</ele>
        <time>2011-03-27T06:29:39Z</time>
      </trkpt>
      <trkpt lat="43.5397" lon="5.52641">
        <ele>371.0023</ele>
        <time>2011-03-27T06:29:40Z</time>
      </trkpt>
      <trkpt lat="43.5397" lon="5.52645">
        <ele>371.0023</ele>
        <time>2011-03-27T06:29:41Z</time>
      </trkpt>
      <trkpt lat="43.5397" lon="5.52648">
        <ele>371.0023</ele>
        <time>2011-03-27T06:29:42Z</time>
      </trkpt>
      <trkpt lat="43.53971" lon="5.52652">
        <ele>370.0023</ele>
        <time>2011-03-27T06:29:43Z</time>
      </trkpt>
      <trkpt lat="43.53971" lon="5.52656">
        <ele>370.0023</ele>
        <time>2011-03-27T06:29:44Z</time>
      </trkpt>
      <trkpt lat="43.53971" lon="5.52659">
        <ele>370.0024</ele>
        <time>2011-03-27T06:29:45Z</time>
      </trkpt>
      <trkpt lat="43.53972" lon="5.52663">
        <ele>370.0024</ele>
        <time>2011-03-27T06:29:46Z</time>
      </trkpt>
      <trkpt lat="43.53973" lon="5.52666">
        <ele>369.0024</ele>
        <time>2011-03-27T06:29:47Z</time>
      </trkpt>
      <trkpt lat="43.53974" lon="5.5267">
        <ele>369.0024</ele>
        <time>2011-03-27T06:29:48Z</time>
      </trkpt>
      <trkpt lat="43.53975" lon="5.52673">
        <ele>369.0024</ele>
        <time>2011-03-27T06:29:49Z</time>
      </trkpt>
      <trkpt lat="43.53976" lon="5.52677">
        <ele>370.0024</ele>
        <time>2011-03-27T06:29:50Z</time>
      </trkpt>
      <trkpt lat="43.53977" lon="5.5268">
        <ele>370.0024</ele>
        <time>2011-03-27T06:29:51Z</time>
      </trkpt>
      <trkpt lat="43.53978" lon="5.52684">
        <ele>370.0024</ele>
        <time>2011-03-27T06:29:52Z</time>
      </trkpt>
      <trkpt lat="43.53979" lon="5.52688">
        <ele>370.0024</ele>
        <time>2011-03-27T06:29:53Z</time>
      </trkpt>
      <trkpt lat="43.5398" lon="5.52691">
        <ele>370.0024</ele>
        <time>2011-03-27T06:29:54Z</time>
      </trkpt>
      <trkpt lat="43.53981" lon="5.52695">
        <ele>370.0025</ele>
        <time>2011-03-27T06:29:55Z</time>
      </trkpt>
      <trkpt lat="43.53982" lon="5.52698">
        <ele>370.0025</ele>
        <time>2011-03-27T06:29:56Z</time>
      </trkpt>
      <trkpt lat="43.53983" lon="5.52702">
        <ele>371.0025</ele>
        <time>2011-03-27T06:29:57Z</time>
      </trkpt>
      <trkpt lat="43.53984" lon="5.52705">
        <ele>372.0025</ele>
        <time>2011-03-27T06:29:58Z</time>
      </trkpt>
      <trkpt lat="43.53985" lon="5.52709">
        <ele>373.0025</ele>
        <time>2011-03-27T06:29:59Z</time>
      </trkpt>
      <trkpt lat="43.53985" lon="5.52712">
        <ele>373.0025</ele>
        <time>2011-03-27T06:30:00Z</time>
      </trkpt>
      <trkpt lat="43.53986" lon="5.52716">
        <ele>373.0025</ele>
        <time>2011-03-27T06:30:01Z</time>
      </trkpt>
      <trkpt lat="43.53987" lon="5.52719">
        <ele>372.0025</ele>
        <time>2011-03-27T06:30:02Z</time>
      </trkpt>
      <trkpt lat="43.53988" lon="5.52722">
        <ele>372.0025</ele>
        <time>2011-03-27T06:30:03Z</time>
      </trkpt>
      <trkpt lat="43.53988" lon="5.52726">
        <ele>372.0026</ele>
        <time>2011-03-27T06:30:04Z</time>
      </trkpt>
      <trkpt lat="43.53989" lon="5.52729">
        <ele>372.0026</ele>
        <time>2011-03-27T06:30:05Z</time>
      </trkpt>
      <trkpt lat="43.53989" lon="5.52732">
        <ele>372.0026</ele>
        <time>2011-03-27T06:30:06Z</time>
      </trkpt>
      <trkpt lat="43.53989" lon="5.52736">
        <ele>371.0026</ele>
        <time>2011-03-27T06:30:07Z</time>
      </trkpt>
      <trkpt lat="43.5399" lon="5.52739">
        <ele>371.0026</ele>
        <time>2011-03-27T06:30:08Z</time>
      </trkpt>
      <trkpt lat="43.5399" lon="5.52742">
        <ele>370.0026</ele>
        <time>2011-03-27T06:30:09Z</time>
      </trkpt>
      <trkpt lat="43.5399" lon="5.52745">
        <ele>370.0026</ele>
        <time>2011-03-27T06:30:10Z</time>
      </trkpt>
      <trkpt lat="43.5399" lon="5.52748">
        <ele>371.0026</ele>
        <time>2011-03-27T06:30:11Z</time>
      </trkpt>
      <trkpt lat="43.53991" lon="5.52751">
        <ele>371.0026</ele>
        <time>2011-03-27T06:30:12Z</time>
      </trkpt>
      <trkpt lat="43.53989" lon="5.52758">
        <ele>370.0026</ele>
        <time>2011-03-27T06:30:21Z</time>
      </trkpt>
      <trkpt lat="43.53988" lon="5.5276">
        <ele>370.0026</ele>
        <time>2011-03-27T06:30:22Z</time>
      </trkpt>
      <trkpt lat="43.53988" lon="5.52769">
        <ele>369.0027</ele>
        <time>2011-03-27T06:30:25Z</time>
      </trkpt>
      <trkpt lat="43.53988" lon="5.52772">
        <ele>369.0027</ele>
        <time>2011-03-27T06:30:26Z</time>
      </trkpt>
      <trkpt lat="43.53988" lon="5.52779">
        <ele>369.0027</ele>
        <time>2011-03-27T06:30:28Z</time>
      </trkpt>
      <trkpt lat="43.53989" lon="5.52783">
        <ele>368.0027</ele>
        <time>2011-03-27T06:30:29Z</time>
      </trkpt>
      <trkpt lat="43.53989" lon="5.52787">
        <ele>368.0027</ele>
        <time>2011-03-27T06:30:30Z</time>
      </trkpt>
      <trkpt lat="43.53989" lon="5.52791">
        <ele>368.0027</ele>
        <time>2011-03-27T06:30:31Z</time>
      </trkpt>
      <trkpt lat="43.53989" lon="5.52795">
        <ele>367.0027</ele>
        <time>2011-03-27T06:30:32Z</time>
      </trkpt>
      <trkpt lat="43.5399" lon="5.52799">
        <ele>367.0027</ele>
        <time>2011-03-27T06:30:33Z</time>
      </trkpt>
      <trkpt lat="43.53991" lon="5.52803">
        <ele>367.0027</ele>
        <time>2011-03-27T06:30:34Z</time>
      </trkpt>
      <trkpt lat="43.53992" lon="5.52806">
        <ele>367.0027</ele>
        <time>2011-03-27T06:30:35Z</time>
      </trkpt>
      <trkpt lat="43.53994" lon="5.52809">
        <ele>367.0027</ele>
        <time>2011-03-27T06:30:36Z</time>
      </trkpt>
      <trkpt lat="43.53995" lon="5.52812">
        <ele>367.0027</ele>
        <time>2011-03-27T06:30:37Z</time>
      </trkpt>
      <trkpt lat="43.53999" lon="5.52817">
        <ele>366.0028</ele>
        <time>2011-03-27T06:30:39Z</time>
      </trkpt>
      <trkpt lat="43.54001" lon="5.52819">
        <ele>366.0028</ele>
        <time>2011-03-27T06:30:40Z</time>
      </trkpt>
      <trkpt lat="43.54002" lon="5.52822">
        <ele>366.0028</ele>
        <time>2011-03-27T06:30:41Z</time>
      </trkpt>
      <trkpt lat="43.54004" lon="5.52824">
        <ele>365.0028</ele>
        <time>2011-03-27T06:30:42Z</time>
      </trkpt>
      <trkpt lat="43.54006" lon="5.52826">
        <ele>366.0028</ele>
        <time>2011-03-27T06:30:43Z</time>
      </trkpt>
      <trkpt lat="43.54008" lon="5.52829">
        <ele>366.0028</ele>
        <time>2011-03-27T06:30:44Z</time>
      </trkpt>
      <trkpt lat="43.5401" lon="5.52831">
        <ele>366.0028</ele>
        <time>2011-03-27T06:30:45Z</time>
      </trkpt>
      <trkpt lat="43.54012" lon="5.52834">
        <ele>366.0028</ele>
        <time>2011-03-27T06:30:46Z</time>
      </trkpt>
      <trkpt lat="43.54015" lon="5.52837">
        <ele>366.0029</ele>
        <time>2011-03-27T06:30:47Z</time>
      </trkpt>
      <trkpt lat="43.54017" lon="5.52839">
        <ele>365.0029</ele>
        <time>2011-03-27T06:30:48Z</time>
      </trkpt>
      <trkpt lat="43.54019" lon="5.52841">
        <ele>365.0029</ele>
        <time>2011-03-27T06:30:49Z</time>
      </trkpt>
      <trkpt lat="43.54021" lon="5.52844">
        <ele>366.0029</ele>
        <time>2011-03-27T06:30:50Z</time>
      </trkpt>
      <trkpt lat="43.54023" lon="5.52846">
        <ele>366.0029</ele>
        <time>2011-03-27T06:30:51Z</time>
      </trkpt>
      <trkpt lat="43.54026" lon="5.52849">
        <ele>366.0029</ele>
        <time>2011-03-27T06:30:52Z</time>
      </trkpt>
      <trkpt lat="43.54028" lon="5.52852">
        <ele>367.0029</ele>
        <time>2011-03-27T06:30:53Z</time>
      </trkpt>
      <trkpt lat="43.54031" lon="5.52855">
        <ele>367.0029</ele>
        <time>2011-03-27T06:30:54Z</time>
      </trkpt>
      <trkpt lat="43.54033" lon="5.52858">
        <ele>367.0029</ele>
        <time>2011-03-27T06:30:55Z</time>
      </trkpt>
      <trkpt lat="43.54035" lon="5.52861">
        <ele>367.003</ele>
        <time>2011-03-27T06:30:56Z</time>
      </trkpt>
      <trkpt lat="43.54038" lon="5.52864">
        <ele>367.003</ele>
        <time>2011-03-27T06:30:57Z</time>
      </trkpt>
      <trkpt lat="43.5404" lon="5.52866">
        <ele>367.003</ele>
        <time>2011-03-27T06:30:58Z</time>
      </trkpt>
      <trkpt lat="43.54042" lon="5.52869">
        <ele>366.003</ele>
        <time>2011-03-27T06:30:59Z</time>
      </trkpt>
      <trkpt lat="43.54044" lon="5.52871">
        <ele>366.003</ele>
        <time>2011-03-27T06:31:00Z</time>
      </trkpt>
      <trkpt lat="43.54047" lon="5.52873">
        <ele>365.003</ele>
        <time>2011-03-27T06:31:01Z</time>
      </trkpt>
      <trkpt lat="43.54049" lon="5.52876">
        <ele>366.003</ele>
        <time>2011-03-27T06:31:02Z</time>
      </trkpt>
      <trkpt lat="43.54051" lon="5.52878">
        <ele>366.003</ele>
        <time>2011-03-27T06:31:03Z</time>
      </trkpt>
      <trkpt lat="43.54054" lon="5.5288">
        <ele>366.0031</ele>
        <time>2011-03-27T06:31:04Z</time>
      </trkpt>
      <trkpt lat="43.54056" lon="5.52883">
        <ele>367.0031</ele>
        <time>2011-03-27T06:31:05Z</time>
      </trkpt>
      <trkpt lat="43.54058" lon="5.52886">
        <ele>367.0031</ele>
        <time>2011-03-27T06:31:06Z</time>
      </trkpt>
      <trkpt lat="43.54059" lon="5.52887">
        <ele>367.0031</ele>
        <time>2011-03-27T06:31:07Z</time>
      </trkpt>
      <trkpt lat="43.5406" lon="5.52888">
        <ele>367.0031</ele>
        <time>2011-03-27T06:31:08Z</time>
      </trkpt>
      <trkpt lat="43.54061" lon="5.5289">
        <ele>367.0031</ele>
        <time>2011-03-27T06:31:09Z</time>
      </trkpt>
      <trkpt lat="43.54062" lon="5.52892">
        <ele>368.0031</ele>
        <time>2011-03-27T06:31:10Z</time>
      </trkpt>
      <trkpt lat="43.54063" lon="5.52894">
        <ele>368.0031</ele>
        <time>2011-03-27T06:31:11Z</time>
      </trkpt>
      <trkpt lat="43.54064" lon="5.52896">
        <ele>368.0031</ele>
        <time>2011-03-27T06:31:12Z</time>
      </trkpt>
      <trkpt lat="43.54065" lon="5.52899">
        <ele>368.0031</ele>
        <time>2011-03-27T06:31:13Z</time>
      </trkpt>
      <trkpt lat="43.54066" lon="5.52901">
        <ele>368.0031</ele>
        <time>2011-03-27T06:31:14Z</time>
      </trkpt>
      <trkpt lat="43.5407" lon="5.52913">
        <ele>368.0031</ele>
        <time>2011-03-27T06:31:18Z</time>
      </trkpt>
      <trkpt lat="43.54071" lon="5.52915">
        <ele>368.0032</ele>
        <time>2011-03-27T06:31:19Z</time>
      </trkpt>
      <trkpt lat="43.54072" lon="5.52917">
        <ele>368.0032</ele>
        <time>2011-03-27T06:31:20Z</time>
      </trkpt>
      <trkpt lat="43.54078" lon="5.52933">
        <ele>365.0032</ele>
        <time>2011-03-27T06:31:25Z</time>
      </trkpt>
      <trkpt lat="43.54084" lon="5.52948">
        <ele>365.0033</ele>
        <time>2011-03-27T06:31:29Z</time>
      </trkpt>
      <trkpt lat="43.54089" lon="5.52956">
        <ele>365.0033</ele>
        <time>2011-03-27T06:31:32Z</time>
      </trkpt>
      <trkpt lat="43.5409" lon="5.52958">
        <ele>364.0033</ele>
        <time>2011-03-27T06:31:33Z</time>
      </trkpt>
      <trkpt lat="43.54096" lon="5.52967">
        <ele>365.0033</ele>
        <time>2011-03-27T06:31:38Z</time>
      </trkpt>
      <trkpt lat="43.54097" lon="5.52968">
        <ele>365.0033</ele>
        <time>2011-03-27T06:31:39Z</time>
      </trkpt>
      <trkpt lat="43.54099" lon="5.52969">
        <ele>366.0034</ele>
        <time>2011-03-27T06:31:40Z</time>
      </trkpt>
      <trkpt lat="43.541" lon="5.52972">
        <ele>366.0034</ele>
        <time>2011-03-27T06:31:41Z</time>
      </trkpt>
      <trkpt lat="43.54103" lon="5.52975">
        <ele>367.0034</ele>
        <time>2011-03-27T06:31:42Z</time>
      </trkpt>
      <trkpt lat="43.54109" lon="5.52984">
        <ele>367.0034</ele>
        <time>2011-03-27T06:31:46Z</time>
      </trkpt>
      <trkpt lat="43.54115" lon="5.52997">
        <ele>367.0034</ele>
        <time>2011-03-27T06:31:50Z</time>
      </trkpt>
      <trkpt lat="43.54116" lon="5.53">
        <ele>367.0034</ele>
        <time>2011-03-27T06:31:51Z</time>
      </trkpt>
      <trkpt lat="43.54116" lon="5.53002">
        <ele>367.0034</ele>
        <time>2011-03-27T06:31:52Z</time>
      </trkpt>
      <trkpt lat="43.54117" lon="5.53005">
        <ele>368.0035</ele>
        <time>2011-03-27T06:31:53Z</time>
      </trkpt>
      <trkpt lat="43.54117" lon="5.53009">
        <ele>368.0035</ele>
        <time>2011-03-27T06:31:54Z</time>
      </trkpt>
      <trkpt lat="43.54118" lon="5.53011">
        <ele>369.0035</ele>
        <time>2011-03-27T06:31:55Z</time>
      </trkpt>
      <trkpt lat="43.54118" lon="5.53015">
        <ele>370.0035</ele>
        <time>2011-03-27T06:31:56Z</time>
      </trkpt>
      <trkpt lat="43.54117" lon="5.53018">
        <ele>370.0035</ele>
        <time>2011-03-27T06:31:57Z</time>
      </trkpt>
      <trkpt lat="43.54116" lon="5.53033">
        <ele>374.0035</ele>
        <time>2011-03-27T06:32:01Z</time>
      </trkpt>
      <trkpt lat="43.54115" lon="5.53035">
        <ele>374.0035</ele>
        <time>2011-03-27T06:32:02Z</time>
      </trkpt>
      <trkpt lat="43.54115" lon="5.53039">
        <ele>374.0035</ele>
        <time>2011-03-27T06:32:03Z</time>
      </trkpt>
      <trkpt lat="43.54114" lon="5.53042">
        <ele>373.0035</ele>
        <time>2011-03-27T06:32:04Z</time>
      </trkpt>
      <trkpt lat="43.54113" lon="5.53045">
        <ele>373.0035</ele>
        <time>2011-03-27T06:32:05Z</time>
      </trkpt>
      <trkpt lat="43.54111" lon="5.53048">
        <ele>373.0035</ele>
        <time>2011-03-27T06:32:06Z</time>
      </trkpt>
      <trkpt lat="43.5411" lon="5.53051">
        <ele>373.0035</ele>
        <time>2011-03-27T06:32:07Z</time>
      </trkpt>
      <trkpt lat="43.54108" lon="5.53055">
        <ele>374.0035</ele>
        <time>2011-03-27T06:32:08Z</time>
      </trkpt>
      <trkpt lat="43.54107" lon="5.53058">
        <ele>373.0036</ele>
        <time>2011-03-27T06:32:09Z</time>
      </trkpt>
      <trkpt lat="43.54106" lon="5.53061">
        <ele>373.0036</ele>
        <time>2011-03-27T06:32:10Z</time>
      </trkpt>
      <trkpt lat="43.54105" lon="5.53064">
        <ele>373.0036</ele>
        <time>2011-03-27T06:32:11Z</time>
      </trkpt>
      <trkpt lat="43.54103" lon="5.53067">
        <ele>373.0036</ele>
        <time>2011-03-27T06:32:12Z</time>
      </trkpt>
      <trkpt lat="43.54102" lon="5.5307">
        <ele>373.0036</ele>
        <time>2011-03-27T06:32:13Z</time>
      </trkpt>
      <trkpt lat="43.541" lon="5.53074">
        <ele>373.0036</ele>
        <time>2011-03-27T06:32:14Z</time>
      </trkpt>
      <trkpt lat="43.54099" lon="5.53077">
        <ele>373.0036</ele>
        <time>2011-03-27T06:32:15Z</time>
      </trkpt>
      <trkpt lat="43.54098" lon="5.53081">
        <ele>373.0036</ele>
        <time>2011-03-27T06:32:16Z</time>
      </trkpt>
      <trkpt lat="43.54097" lon="5.53085">
        <ele>373.0036</ele>
        <time>2011-03-27T06:32:17Z</time>
      </trkpt>
      <trkpt lat="43.54096" lon="5.53088">
        <ele>373.0036</ele>
        <time>2011-03-27T06:32:18Z</time>
      </trkpt>
      <trkpt lat="43.54096" lon="5.53092">
        <ele>373.0036</ele>
        <time>2011-03-27T06:32:19Z</time>
      </trkpt>
      <trkpt lat="43.54095" lon="5.53096">
        <ele>372.0036</ele>
        <time>2011-03-27T06:32:20Z</time>
      </trkpt>
      <trkpt lat="43.54094" lon="5.53099">
        <ele>372.0036</ele>
        <time>2011-03-27T06:32:21Z</time>
      </trkpt>
      <trkpt lat="43.54095" lon="5.53107">
        <ele>372.0036</ele>
        <time>2011-03-27T06:32:22Z</time>
      </trkpt>
      <trkpt lat="43.54094" lon="5.5311">
        <ele>372.0037</ele>
        <time>2011-03-27T06:32:23Z</time>
      </trkpt>
      <trkpt lat="43.54096" lon="5.53118">
        <ele>371.0037</ele>
        <time>2011-03-27T06:32:24Z</time>
      </trkpt>
      <trkpt lat="43.54096" lon="5.53123">
        <ele>371.0037</ele>
        <time>2011-03-27T06:32:25Z</time>
      </trkpt>
      <trkpt lat="43.54098" lon="5.53129">
        <ele>370.0037</ele>
        <time>2011-03-27T06:32:26Z</time>
      </trkpt>
      <trkpt lat="43.54098" lon="5.53133">
        <ele>370.0037</ele>
        <time>2011-03-27T06:32:27Z</time>
      </trkpt>
      <trkpt lat="43.54099" lon="5.53143">
        <ele>369.0037</ele>
        <time>2011-03-27T06:32:29Z</time>
      </trkpt>
      <trkpt lat="43.54099" lon="5.53147">
        <ele>369.0037</ele>
        <time>2011-03-27T06:32:30Z</time>
      </trkpt>
      <trkpt lat="43.54099" lon="5.53153">
        <ele>369.0038</ele>
        <time>2011-03-27T06:32:31Z</time>
      </trkpt>
      <trkpt lat="43.541" lon="5.53157">
        <ele>369.0038</ele>
        <time>2011-03-27T06:32:32Z</time>
      </trkpt>
      <trkpt lat="43.541" lon="5.53157">
        <ele>369.0038</ele>
        <time>2011-03-27T06:32:33Z</time>
      </trkpt>
      <trkpt lat="43.54102" lon="5.53162">
        <ele>370.0038</ele>
        <time>2011-03-27T06:32:35Z</time>
      </trkpt>
      <trkpt lat="43.54103" lon="5.53166">
        <ele>369.0038</ele>
        <time>2011-03-27T06:32:36Z</time>
      </trkpt>
      <trkpt lat="43.54107" lon="5.53175">
        <ele>369.0038</ele>
        <time>2011-03-27T06:32:39Z</time>
      </trkpt>
      <trkpt lat="43.54109" lon="5.53178">
        <ele>369.0038</ele>
        <time>2011-03-27T06:32:40Z</time>
      </trkpt>
      <trkpt lat="43.54112" lon="5.53184">
        <ele>369.0038</ele>
        <time>2011-03-27T06:32:42Z</time>
      </trkpt>
      <trkpt lat="43.54114" lon="5.53187">
        <ele>369.0038</ele>
        <time>2011-03-27T06:32:43Z</time>
      </trkpt>
      <trkpt lat="43.54115" lon="5.5319">
        <ele>370.0039</ele>
        <time>2011-03-27T06:32:44Z</time>
      </trkpt>
      <trkpt lat="43.54117" lon="5.53193">
        <ele>369.0039</ele>
        <time>2011-03-27T06:32:45Z</time>
      </trkpt>
      <trkpt lat="43.5412" lon="5.532">
        <ele>369.0039</ele>
        <time>2011-03-27T06:32:47Z</time>
      </trkpt>
      <trkpt lat="43.54121" lon="5.53203">
        <ele>369.0039</ele>
        <time>2011-03-27T06:32:48Z</time>
      </trkpt>
      <trkpt lat="43.54132" lon="5.53221">
        <ele>369.004</ele>
        <time>2011-03-27T06:32:54Z</time>
      </trkpt>
      <trkpt lat="43.54133" lon="5.53225">
        <ele>369.004</ele>
        <time>2011-03-27T06:32:55Z</time>
      </trkpt>
      <trkpt lat="43.54136" lon="5.53228">
        <ele>369.004</ele>
        <time>2011-03-27T06:32:56Z</time>
      </trkpt>
      <trkpt lat="43.54137" lon="5.53231">
        <ele>369.004</ele>
        <time>2011-03-27T06:32:57Z</time>
      </trkpt>
      <trkpt lat="43.5414" lon="5.53236">
        <ele>369.004</ele>
        <time>2011-03-27T06:32:58Z</time>
      </trkpt>
      <trkpt lat="43.54142" lon="5.5324">
        <ele>369.004</ele>
        <time>2011-03-27T06:32:59Z</time>
      </trkpt>
      <trkpt lat="43.54144" lon="5.53244">
        <ele>369.0041</ele>
        <time>2011-03-27T06:33:00Z</time>
      </trkpt>
      <trkpt lat="43.54145" lon="5.53248">
        <ele>370.0041</ele>
        <time>2011-03-27T06:33:01Z</time>
      </trkpt>
      <trkpt lat="43.54147" lon="5.53251">
        <ele>370.0041</ele>
        <time>2011-03-27T06:33:02Z</time>
      </trkpt>
      <trkpt lat="43.54149" lon="5.53255">
        <ele>369.0041</ele>
        <time>2011-03-27T06:33:03Z</time>
      </trkpt>
      <trkpt lat="43.54151" lon="5.53259">
        <ele>369.0041</ele>
        <time>2011-03-27T06:33:04Z</time>
      </trkpt>
      <trkpt lat="43.54152" lon="5.53262">
        <ele>369.0041</ele>
        <time>2011-03-27T06:33:05Z</time>
      </trkpt>
      <trkpt lat="43.54154" lon="5.53266">
        <ele>369.0041</ele>
        <time>2011-03-27T06:33:06Z</time>
      </trkpt>
      <trkpt lat="43.54156" lon="5.5327">
        <ele>369.0042</ele>
        <time>2011-03-27T06:33:07Z</time>
      </trkpt>
      <trkpt lat="43.54157" lon="5.53274">
        <ele>368.0042</ele>
        <time>2011-03-27T06:33:08Z</time>
      </trkpt>
      <trkpt lat="43.54158" lon="5.53278">
        <ele>368.0042</ele>
        <time>2011-03-27T06:33:09Z</time>
      </trkpt>
      <trkpt lat="43.5416" lon="5.53282">
        <ele>369.0042</ele>
        <time>2011-03-27T06:33:10Z</time>
      </trkpt>
      <trkpt lat="43.54161" lon="5.53286">
        <ele>369.0042</ele>
        <time>2011-03-27T06:33:11Z</time>
      </trkpt>
      <trkpt lat="43.54162" lon="5.53291">
        <ele>369.0042</ele>
        <time>2011-03-27T06:33:12Z</time>
      </trkpt>
      <trkpt lat="43.54163" lon="5.53295">
        <ele>369.0042</ele>
        <time>2011-03-27T06:33:13Z</time>
      </trkpt>
      <trkpt lat="43.54164" lon="5.53299">
        <ele>369.0042</ele>
        <time>2011-03-27T06:33:14Z</time>
      </trkpt>
      <trkpt lat="43.54165" lon="5.53302">
        <ele>369.0042</ele>
        <time>2011-03-27T06:33:15Z</time>
      </trkpt>
      <trkpt lat="43.54166" lon="5.53306">
        <ele>369.0042</ele>
        <time>2011-03-27T06:33:16Z</time>
      </trkpt>
      <trkpt lat="43.54166" lon="5.5331">
        <ele>368.0043</ele>
        <time>2011-03-27T06:33:17Z</time>
      </trkpt>
      <trkpt lat="43.54167" lon="5.53314">
        <ele>368.0043</ele>
        <time>2011-03-27T06:33:18Z</time>
      </trkpt>
      <trkpt lat="43.54167" lon="5.53315">
        <ele>367.0043</ele>
        <time>2011-03-27T06:33:19Z</time>
      </trkpt>
      <trkpt lat="43.54166" lon="5.53323">
        <ele>368.0043</ele>
        <time>2011-03-27T06:33:22Z</time>
      </trkpt>
      <trkpt lat="43.54166" lon="5.53326">
        <ele>368.0043</ele>
        <time>2011-03-27T06:33:23Z</time>
      </trkpt>
      <trkpt lat="43.54166" lon="5.53329">
        <ele>369.0043</ele>
        <time>2011-03-27T06:33:24Z</time>
      </trkpt>
      <trkpt lat="43.54166" lon="5.53333">
        <ele>369.0043</ele>
        <time>2011-03-27T06:33:25Z</time>
      </trkpt>
      <trkpt lat="43.54166" lon="5.53336">
        <ele>370.0043</ele>
        <time>2011-03-27T06:33:26Z</time>
      </trkpt>
      <trkpt lat="43.54166" lon="5.5334">
        <ele>370.0043</ele>
        <time>2011-03-27T06:33:27Z</time>
      </trkpt>
      <trkpt lat="43.54166" lon="5.53343">
        <ele>370.0043</ele>
        <time>2011-03-27T06:33:28Z</time>
      </trkpt>
      <trkpt lat="43.54165" lon="5.53347">
        <ele>370.0043</ele>
        <time>2011-03-27T06:33:29Z</time>
      </trkpt>
      <trkpt lat="43.54165" lon="5.53363">
        <ele>368.0044</ele>
        <time>2011-03-27T06:33:34Z</time>
      </trkpt>
      <trkpt lat="43.54164" lon="5.53366">
        <ele>369.0044</ele>
        <time>2011-03-27T06:33:35Z</time>
      </trkpt>
      <trkpt lat="43.54164" lon="5.53372">
        <ele>369.0044</ele>
        <time>2011-03-27T06:33:37Z</time>
      </trkpt>
      <trkpt lat="43.54163" lon="5.53376">
        <ele>368.0044</ele>
        <time>2011-03-27T06:33:38Z</time>
      </trkpt>
      <trkpt lat="43.54162" lon="5.53379">
        <ele>368.0044</ele>
        <time>2011-03-27T06:33:39Z</time>
      </trkpt>
      <trkpt lat="43.54162" lon="5.53382">
        <ele>368.0044</ele>
        <time>2011-03-27T06:33:40Z</time>
      </trkpt>
      <trkpt lat="43.5416" lon="5.53386">
        <ele>368.0044</ele>
        <time>2011-03-27T06:33:41Z</time>
      </trkpt>
      <trkpt lat="43.54159" lon="5.53389">
        <ele>367.0044</ele>
        <time>2011-03-27T06:33:42Z</time>
      </trkpt>
      <trkpt lat="43.54157" lon="5.53392">
        <ele>367.0044</ele>
        <time>2011-03-27T06:33:43Z</time>
      </trkpt>
      <trkpt lat="43.54155" lon="5.53395">
        <ele>367.0044</ele>
        <time>2011-03-27T06:33:44Z</time>
      </trkpt>
      <trkpt lat="43.54153" lon="5.53398">
        <ele>368.0044</ele>
        <time>2011-03-27T06:33:45Z</time>
      </trkpt>
      <trkpt lat="43.54151" lon="5.534">
        <ele>368.0044</ele>
        <time>2011-03-27T06:33:46Z</time>
      </trkpt>
      <trkpt lat="43.54149" lon="5.53403">
        <ele>368.0044</ele>
        <time>2011-03-27T06:33:47Z</time>
      </trkpt>
      <trkpt lat="43.54147" lon="5.53406">
        <ele>368.0044</ele>
        <time>2011-03-27T06:33:48Z</time>
      </trkpt>
      <trkpt lat="43.54145" lon="5.53409">
        <ele>369.0044</ele>
        <time>2011-03-27T06:33:49Z</time>
      </trkpt>
      <trkpt lat="43.54143" lon="5.53411">
        <ele>369.0044</ele>
        <time>2011-03-27T06:33:50Z</time>
      </trkpt>
      <trkpt lat="43.54141" lon="5.53414">
        <ele>368.0044</ele>
        <time>2011-03-27T06:33:51Z</time>
      </trkpt>
      <trkpt lat="43.54139" lon="5.53417">
        <ele>368.0044</ele>
        <time>2011-03-27T06:33:52Z</time>
      </trkpt>
      <trkpt lat="43.54137" lon="5.53419">
        <ele>369.0044</ele>
        <time>2011-03-27T06:33:53Z</time>
      </trkpt>
      <trkpt lat="43.54135" lon="5.53422">
        <ele>369.0044</ele>
        <time>2011-03-27T06:33:54Z</time>
      </trkpt>
      <trkpt lat="43.54134" lon="5.53426">
        <ele>369.0044</ele>
        <time>2011-03-27T06:33:55Z</time>
      </trkpt>
      <trkpt lat="43.54133" lon="5.53429">
        <ele>369.0045</ele>
        <time>2011-03-27T06:33:56Z</time>
      </trkpt>
      <trkpt lat="43.54132" lon="5.53433">
        <ele>370.0045</ele>
        <time>2011-03-27T06:33:57Z</time>
      </trkpt>
      <trkpt lat="43.54131" lon="5.53436">
        <ele>370.0045</ele>
        <time>2011-03-27T06:33:58Z</time>
      </trkpt>
      <trkpt lat="43.54131" lon="5.5344">
        <ele>370.0045</ele>
        <time>2011-03-27T06:33:59Z</time>
      </trkpt>
      <trkpt lat="43.54131" lon="5.53445">
        <ele>371.0045</ele>
        <time>2011-03-27T06:34:00Z</time>
      </trkpt>
      <trkpt lat="43.54131" lon="5.5345">
        <ele>371.0045</ele>
        <time>2011-03-27T06:34:01Z</time>
      </trkpt>
      <trkpt lat="43.54131" lon="5.53454">
        <ele>370.0045</ele>
        <time>2011-03-27T06:34:02Z</time>
      </trkpt>
      <trkpt lat="43.54131" lon="5.53459">
        <ele>370.0045</ele>
        <time>2011-03-27T06:34:03Z</time>
      </trkpt>
      <trkpt lat="43.54131" lon="5.53463">
        <ele>370.0045</ele>
        <time>2011-03-27T06:34:04Z</time>
      </trkpt>
      <trkpt lat="43.54132" lon="5.53468">
        <ele>370.0045</ele>
        <time>2011-03-27T06:34:05Z</time>
      </trkpt>
      <trkpt lat="43.54133" lon="5.53473">
        <ele>370.0045</ele>
        <time>2011-03-27T06:34:06Z</time>
      </trkpt>
      <trkpt lat="43.54133" lon="5.53477">
        <ele>370.0045</ele>
        <time>2011-03-27T06:34:07Z</time>
      </trkpt>
      <trkpt lat="43.54134" lon="5.53482">
        <ele>370.0046</ele>
        <time>2011-03-27T06:34:08Z</time>
      </trkpt>
      <trkpt lat="43.54135" lon="5.53486">
        <ele>370.0046</ele>
        <time>2011-03-27T06:34:09Z</time>
      </trkpt>
      <trkpt lat="43.54137" lon="5.53491">
        <ele>369.0046</ele>
        <time>2011-03-27T06:34:10Z</time>
      </trkpt>
      <trkpt lat="43.54137" lon="5.53495">
        <ele>369.0046</ele>
        <time>2011-03-27T06:34:11Z</time>
      </trkpt>
      <trkpt lat="43.54138" lon="5.535">
        <ele>370.0046</ele>
        <time>2011-03-27T06:34:12Z</time>
      </trkpt>
      <trkpt lat="43.54139" lon="5.53504">
        <ele>369.0046</ele>
        <time>2011-03-27T06:34:13Z</time>
      </trkpt>
      <trkpt lat="43.54141" lon="5.53508">
        <ele>369.0046</ele>
        <time>2011-03-27T06:34:14Z</time>
      </trkpt>
      <trkpt lat="43.54142" lon="5.53512">
        <ele>369.0046</ele>
        <time>2011-03-27T06:34:15Z</time>
      </trkpt>
      <trkpt lat="43.54143" lon="5.53516">
        <ele>369.0047</ele>
        <time>2011-03-27T06:34:16Z</time>
      </trkpt>
      <trkpt lat="43.54144" lon="5.5352">
        <ele>368.0047</ele>
        <time>2011-03-27T06:34:17Z</time>
      </trkpt>
      <trkpt lat="43.54145" lon="5.53524">
        <ele>368.0047</ele>
        <time>2011-03-27T06:34:18Z</time>
      </trkpt>
      <trkpt lat="43.54145" lon="5.53528">
        <ele>368.0047</ele>
        <time>2011-03-27T06:34:19Z</time>
      </trkpt>
      <trkpt lat="43.54147" lon="5.53533">
        <ele>367.0047</ele>
        <time>2011-03-27T06:34:20Z</time>
      </trkpt>
      <trkpt lat="43.54147" lon="5.53537">
        <ele>367.0047</ele>
        <time>2011-03-27T06:34:21Z</time>
      </trkpt>
      <trkpt lat="43.54149" lon="5.53541">
        <ele>367.0047</ele>
        <time>2011-03-27T06:34:22Z</time>
      </trkpt>
      <trkpt lat="43.54149" lon="5.53545">
        <ele>367.0047</ele>
        <time>2011-03-27T06:34:23Z</time>
      </trkpt>
      <trkpt lat="43.5415" lon="5.53549">
        <ele>368.0048</ele>
        <time>2011-03-27T06:34:24Z</time>
      </trkpt>
      <trkpt lat="43.5415" lon="5.53553">
        <ele>368.0048</ele>
        <time>2011-03-27T06:34:25Z</time>
      </trkpt>
      <trkpt lat="43.5415" lon="5.53557">
        <ele>368.0048</ele>
        <time>2011-03-27T06:34:26Z</time>
      </trkpt>
      <trkpt lat="43.5415" lon="5.5356">
        <ele>367.0048</ele>
        <time>2011-03-27T06:34:27Z</time>
      </trkpt>
      <trkpt lat="43.54149" lon="5.53564">
        <ele>367.0048</ele>
        <time>2011-03-27T06:34:28Z</time>
      </trkpt>
      <trkpt lat="43.54149" lon="5.53567">
        <ele>367.0048</ele>
        <time>2011-03-27T06:34:29Z</time>
      </trkpt>
      <trkpt lat="43.54148" lon="5.53571">
        <ele>368.0048</ele>
        <time>2011-03-27T06:34:30Z</time>
      </trkpt>
      <trkpt lat="43.54144" lon="5.53576">
        <ele>369.0048</ele>
        <time>2011-03-27T06:34:34Z</time>
      </trkpt>
      <trkpt lat="43.54143" lon="5.53578">
        <ele>369.0048</ele>
        <time>2011-03-27T06:34:35Z</time>
      </trkpt>
      <trkpt lat="43.54142" lon="5.5358">
        <ele>369.0048</ele>
        <time>2011-03-27T06:34:36Z</time>
      </trkpt>
      <trkpt lat="43.5414" lon="5.53582">
        <ele>369.0048</ele>
        <time>2011-03-27T06:34:37Z</time>
      </trkpt>
      <trkpt lat="43.54139" lon="5.53584">
        <ele>369.0048</ele>
        <time>2011-03-27T06:34:38Z</time>
      </trkpt>
      <trkpt lat="43.54137" lon="5.53586">
        <ele>369.0048</ele>
        <time>2011-03-27T06:34:39Z</time>
      </trkpt>
      <trkpt lat="43.54134" lon="5.53588">
        <ele>370.0048</ele>
        <time>2011-03-27T06:34:40Z</time>
      </trkpt>
      <trkpt lat="43.54132" lon="5.53591">
        <ele>370.0048</ele>
        <time>2011-03-27T06:34:41Z</time>
      </trkpt>
      <trkpt lat="43.5413" lon="5.53593">
        <ele>370.0048</ele>
        <time>2011-03-27T06:34:42Z</time>
      </trkpt>
      <trkpt lat="43.54128" lon="5.53596">
        <ele>370.0048</ele>
        <time>2011-03-27T06:34:43Z</time>
      </trkpt>
      <trkpt lat="43.54126" lon="5.53598">
        <ele>370.0048</ele>
        <time>2011-03-27T06:34:44Z</time>
      </trkpt>
      <trkpt lat="43.54123" lon="5.53601">
        <ele>370.0048</ele>
        <time>2011-03-27T06:34:45Z</time>
      </trkpt>
      <trkpt lat="43.54121" lon="5.53603">
        <ele>370.0048</ele>
        <time>2011-03-27T06:34:46Z</time>
      </trkpt>
      <trkpt lat="43.54115" lon="5.5361">
        <ele>368.0048</ele>
        <time>2011-03-27T06:34:50Z</time>
      </trkpt>
      <trkpt lat="43.54113" lon="5.53612">
        <ele>368.0048</ele>
        <time>2011-03-27T06:34:51Z</time>
      </trkpt>
      <trkpt lat="43.54112" lon="5.53614">
        <ele>368.0048</ele>
        <time>2011-03-27T06:34:52Z</time>
      </trkpt>
      <trkpt lat="43.54109" lon="5.53616">
        <ele>367.0048</ele>
        <time>2011-03-27T06:34:53Z</time>
      </trkpt>
      <trkpt lat="43.54107" lon="5.53618">
        <ele>367.0048</ele>
        <time>2011-03-27T06:34:54Z</time>
      </trkpt>
      <trkpt lat="43.54105" lon="5.5362">
        <ele>366.0048</ele>
        <time>2011-03-27T06:34:55Z</time>
      </trkpt>
      <trkpt lat="43.54103" lon="5.53622">
        <ele>366.0048</ele>
        <time>2011-03-27T06:34:56Z</time>
      </trkpt>
      <trkpt lat="43.54101" lon="5.53624">
        <ele>365.0048</ele>
        <time>2011-03-27T06:34:57Z</time>
      </trkpt>
      <trkpt lat="43.54099" lon="5.53627">
        <ele>364.0048</ele>
        <time>2011-03-27T06:34:58Z</time>
      </trkpt>
      <trkpt lat="43.54091" lon="5.53637">
        <ele>361.0048</ele>
        <time>2011-03-27T06:35:02Z</time>
      </trkpt>
      <trkpt lat="43.54089" lon="5.53639">
        <ele>361.0048</ele>
        <time>2011-03-27T06:35:03Z</time>
      </trkpt>
      <trkpt lat="43.54082" lon="5.53644">
        <ele>360.0048</ele>
        <time>2011-03-27T06:35:06Z</time>
      </trkpt>
      <trkpt lat="43.54076" lon="5.53647">
        <ele>358.0048</ele>
        <time>2011-03-27T06:35:09Z</time>
      </trkpt>
      <trkpt lat="43.54074" lon="5.53648">
        <ele>359.0048</ele>
        <time>2011-03-27T06:35:10Z</time>
      </trkpt>
      <trkpt lat="43.54072" lon="5.53648">
        <ele>358.0048</ele>
        <time>2011-03-27T06:35:11Z</time>
      </trkpt>
      <trkpt lat="43.5407" lon="5.53649">
        <ele>358.0048</ele>
        <time>2011-03-27T06:35:12Z</time>
      </trkpt>
      <trkpt lat="43.54067" lon="5.5365">
        <ele>357.0048</ele>
        <time>2011-03-27T06:35:13Z</time>
      </trkpt>
      <trkpt lat="43.54058" lon="5.53652">
        <ele>356.0048</ele>
        <time>2011-03-27T06:35:17Z</time>
      </trkpt>
      <trkpt lat="43.54049" lon="5.53654">
        <ele>355.0048</ele>
        <time>2011-03-27T06:35:20Z</time>
      </trkpt>
      <trkpt lat="43.54046" lon="5.53654">
        <ele>354.0048</ele>
        <time>2011-03-27T06:35:21Z</time>
      </trkpt>
      <trkpt lat="43.54037" lon="5.53654">
        <ele>354.0047</ele>
        <time>2011-03-27T06:35:24Z</time>
      </trkpt>
      <trkpt lat="43.54033" lon="5.53654">
        <ele>354.0047</ele>
        <time>2011-03-27T06:35:25Z</time>
      </trkpt>
      <trkpt lat="43.54023" lon="5.53654">
        <ele>354.0047</ele>
        <time>2011-03-27T06:35:28Z</time>
      </trkpt>
      <trkpt lat="43.54017" lon="5.53653">
        <ele>353.0047</ele>
        <time>2011-03-27T06:35:30Z</time>
      </trkpt>
      <trkpt lat="43.54007" lon="5.5365">
        <ele>352.0046</ele>
        <time>2011-03-27T06:35:33Z</time>
      </trkpt>
      <trkpt lat="43.54003" lon="5.53649">
        <ele>353.0046</ele>
        <time>2011-03-27T06:35:34Z</time>
      </trkpt>
      <trkpt lat="43.53999" lon="5.53647">
        <ele>352.0046</ele>
        <time>2011-03-27T06:35:35Z</time>
      </trkpt>
      <trkpt lat="43.53996" lon="5.53646">
        <ele>352.0046</ele>
        <time>2011-03-27T06:35:36Z</time>
      </trkpt>
      <trkpt lat="43.53993" lon="5.53644">
        <ele>353.0046</ele>
        <time>2011-03-27T06:35:37Z</time>
      </trkpt>
      <trkpt lat="43.53991" lon="5.53643">
        <ele>353.0046</ele>
        <time>2011-03-27T06:35:38Z</time>
      </trkpt>
      <trkpt lat="43.53986" lon="5.5364">
        <ele>353.0046</ele>
        <time>2011-03-27T06:35:39Z</time>
      </trkpt>
      <trkpt lat="43.53983" lon="5.53637">
        <ele>354.0046</ele>
        <time>2011-03-27T06:35:40Z</time>
      </trkpt>
      <trkpt lat="43.53977" lon="5.53633">
        <ele>355.0045</ele>
        <time>2011-03-27T06:35:41Z</time>
      </trkpt>
      <trkpt lat="43.53973" lon="5.53631">
        <ele>355.0045</ele>
        <time>2011-03-27T06:35:42Z</time>
      </trkpt>
      <trkpt lat="43.5397" lon="5.53629">
        <ele>356.0045</ele>
        <time>2011-03-27T06:35:43Z</time>
      </trkpt>
      <trkpt lat="43.53967" lon="5.53628">
        <ele>356.0045</ele>
        <time>2011-03-27T06:35:44Z</time>
      </trkpt>
      <trkpt lat="43.53964" lon="5.53626">
        <ele>356.0045</ele>
        <time>2011-03-27T06:35:45Z</time>
      </trkpt>
      <trkpt lat="43.53961" lon="5.53624">
        <ele>356.0045</ele>
        <time>2011-03-27T06:35:46Z</time>
      </trkpt>
      <trkpt lat="43.53958" lon="5.53622">
        <ele>356.0045</ele>
        <time>2011-03-27T06:35:47Z</time>
      </trkpt>
      <trkpt lat="43.53956" lon="5.5362">
        <ele>357.0045</ele>
        <time>2011-03-27T06:35:48Z</time>
      </trkpt>
      <trkpt lat="43.53953" lon="5.53618">
        <ele>357.0045</ele>
        <time>2011-03-27T06:35:49Z</time>
      </trkpt>
      <trkpt lat="43.5395" lon="5.53615">
        <ele>357.0045</ele>
        <time>2011-03-27T06:35:50Z</time>
      </trkpt>
      <trkpt lat="43.53947" lon="5.53613">
        <ele>357.0045</ele>
        <time>2011-03-27T06:35:51Z</time>
      </trkpt>
      <trkpt lat="43.53944" lon="5.53611">
        <ele>358.0044</ele>
        <time>2011-03-27T06:35:52Z</time>
      </trkpt>
      <trkpt lat="43.53942" lon="5.53609">
        <ele>359.0044</ele>
        <time>2011-03-27T06:35:53Z</time>
      </trkpt>
      <trkpt lat="43.53939" lon="5.53608">
        <ele>360.0044</ele>
        <time>2011-03-27T06:35:54Z</time>
      </trkpt>
      <trkpt lat="43.53937" lon="5.53606">
        <ele>361.0044</ele>
        <time>2011-03-27T06:35:55Z</time>
      </trkpt>
      <trkpt lat="43.53935" lon="5.53605">
        <ele>361.0044</ele>
        <time>2011-03-27T06:35:56Z</time>
      </trkpt>
      <trkpt lat="43.53933" lon="5.53605">
        <ele>361.0044</ele>
        <time>2011-03-27T06:35:57Z</time>
      </trkpt>
      <trkpt lat="43.53932" lon="5.53605">
        <ele>361.0044</ele>
        <time>2011-03-27T06:35:58Z</time>
      </trkpt>
      <trkpt lat="43.53931" lon="5.53607">
        <ele>361.0044</ele>
        <time>2011-03-27T06:35:59Z</time>
      </trkpt>
      <trkpt lat="43.5393" lon="5.53609">
        <ele>361.0044</ele>
        <time>2011-03-27T06:36:00Z</time>
      </trkpt>
      <trkpt lat="43.53931" lon="5.53612">
        <ele>361.0044</ele>
        <time>2011-03-27T06:36:01Z</time>
      </trkpt>
      <trkpt lat="43.53933" lon="5.53615">
        <ele>361.0044</ele>
        <time>2011-03-27T06:36:02Z</time>
      </trkpt>
      <trkpt lat="43.53932" lon="5.53617">
        <ele>361.0044</ele>
        <time>2011-03-27T06:36:03Z</time>
      </trkpt>
      <trkpt lat="43.53931" lon="5.53618">
        <ele>361.0044</ele>
        <time>2011-03-27T06:36:04Z</time>
      </trkpt>
      <trkpt lat="43.53932" lon="5.5362">
        <ele>362.0044</ele>
        <time>2011-03-27T06:36:05Z</time>
      </trkpt>
      <trkpt lat="43.53933" lon="5.53622">
        <ele>362.0044</ele>
        <time>2011-03-27T06:36:07Z</time>
      </trkpt>
      <trkpt lat="43.53935" lon="5.53622">
        <ele>363.0044</ele>
        <time>2011-03-27T06:36:08Z</time>
      </trkpt>
      <trkpt lat="43.53938" lon="5.53624">
        <ele>364.0045</ele>
        <time>2011-03-27T06:36:12Z</time>
      </trkpt>
      <trkpt lat="43.53938" lon="5.53625">
        <ele>364.0045</ele>
        <time>2011-03-27T06:36:13Z</time>
      </trkpt>
      <trkpt lat="43.53938" lon="5.5363">
        <ele>365.0045</ele>
        <time>2011-03-27T06:36:20Z</time>
      </trkpt>
      <trkpt lat="43.53938" lon="5.53631">
        <ele>365.0045</ele>
        <time>2011-03-27T06:36:21Z</time>
      </trkpt>
      <trkpt lat="43.53937" lon="5.53632">
        <ele>365.0045</ele>
        <time>2011-03-27T06:36:22Z</time>
      </trkpt>
      <trkpt lat="43.53937" lon="5.53633">
        <ele>366.0045</ele>
        <time>2011-03-27T06:36:23Z</time>
      </trkpt>
      <trkpt lat="43.53937" lon="5.53634">
        <ele>367.0045</ele>
        <time>2011-03-27T06:36:24Z</time>
      </trkpt>
      <trkpt lat="43.53937" lon="5.53636">
        <ele>367.0045</ele>
        <time>2011-03-27T06:36:25Z</time>
      </trkpt>
      <trkpt lat="43.53937" lon="5.5364">
        <ele>366.0045</ele>
        <time>2011-03-27T06:36:27Z</time>
      </trkpt>
      <trkpt lat="43.53936" lon="5.53643">
        <ele>366.0045</ele>
        <time>2011-03-27T06:36:28Z</time>
      </trkpt>
      <trkpt lat="43.53936" lon="5.53646">
        <ele>366.0045</ele>
        <time>2011-03-27T06:36:29Z</time>
      </trkpt>
      <trkpt lat="43.53936" lon="5.53649">
        <ele>365.0045</ele>
        <time>2011-03-27T06:36:30Z</time>
      </trkpt>
      <trkpt lat="43.53936" lon="5.53652">
        <ele>365.0045</ele>
        <time>2011-03-27T06:36:31Z</time>
      </trkpt>
      <trkpt lat="43.53936" lon="5.53655">
        <ele>365.0045</ele>
        <time>2011-03-27T06:36:32Z</time>
      </trkpt>
      <trkpt lat="43.53934" lon="5.53663">
        <ele>366.0045</ele>
        <time>2011-03-27T06:36:35Z</time>
      </trkpt>
      <trkpt lat="43.53933" lon="5.53666">
        <ele>366.0045</ele>
        <time>2011-03-27T06:36:37Z</time>
      </trkpt>
      <trkpt lat="43.53932" lon="5.53668">
        <ele>366.0045</ele>
        <time>2011-03-27T06:36:38Z</time>
      </trkpt>
      <trkpt lat="43.53928" lon="5.5368">
        <ele>370.0045</ele>
        <time>2011-03-27T06:36:44Z</time>
      </trkpt>
      <trkpt lat="43.53926" lon="5.53687">
        <ele>370.0045</ele>
        <time>2011-03-27T06:36:47Z</time>
      </trkpt>
      <trkpt lat="43.53925" lon="5.53689">
        <ele>370.0045</ele>
        <time>2011-03-27T06:36:48Z</time>
      </trkpt>
      <trkpt lat="43.53922" lon="5.53694">
        <ele>371.0046</ele>
        <time>2011-03-27T06:36:51Z</time>
      </trkpt>
      <trkpt lat="43.53917" lon="5.53699">
        <ele>371.0046</ele>
        <time>2011-03-27T06:36:57Z</time>
      </trkpt>
      <trkpt lat="43.53916" lon="5.537">
        <ele>371.0046</ele>
        <time>2011-03-27T06:36:58Z</time>
      </trkpt>
      <trkpt lat="43.53914" lon="5.53703">
        <ele>371.0046</ele>
        <time>2011-03-27T06:37:00Z</time>
      </trkpt>
      <trkpt lat="43.53914" lon="5.53703">
        <ele>371.0046</ele>
        <time>2011-03-27T06:37:01Z</time>
      </trkpt>
      <trkpt lat="43.53912" lon="5.53706">
        <ele>372.0046</ele>
        <time>2011-03-27T06:37:02Z</time>
      </trkpt>
      <trkpt lat="43.53911" lon="5.53708">
        <ele>372.0046</ele>
        <time>2011-03-27T06:37:03Z</time>
      </trkpt>
      <trkpt lat="43.53905" lon="5.53718">
        <ele>374.0046</ele>
        <time>2011-03-27T06:37:08Z</time>
      </trkpt>
      <trkpt lat="43.53904" lon="5.53719">
        <ele>375.0046</ele>
        <time>2011-03-27T06:37:09Z</time>
      </trkpt>
      <trkpt lat="43.53902" lon="5.53721">
        <ele>376.0046</ele>
        <time>2011-03-27T06:37:10Z</time>
      </trkpt>
      <trkpt lat="43.53898" lon="5.53728">
        <ele>377.0046</ele>
        <time>2011-03-27T06:37:15Z</time>
      </trkpt>
      <trkpt lat="43.53897" lon="5.53729">
        <ele>377.0046</ele>
        <time>2011-03-27T06:37:16Z</time>
      </trkpt>
      <trkpt lat="43.53895" lon="5.53731">
        <ele>378.0046</ele>
        <time>2011-03-27T06:37:17Z</time>
      </trkpt>
      <trkpt lat="43.53893" lon="5.53733">
        <ele>378.0046</ele>
        <time>2011-03-27T06:37:18Z</time>
      </trkpt>
      <trkpt lat="43.53886" lon="5.53738">
        <ele>379.0046</ele>
        <time>2011-03-27T06:37:22Z</time>
      </trkpt>
      <trkpt lat="43.53886" lon="5.53739">
        <ele>378.0046</ele>
        <time>2011-03-27T06:37:23Z</time>
      </trkpt>
      <trkpt lat="43.53878" lon="5.53746">
        <ele>378.0046</ele>
        <time>2011-03-27T06:37:30Z</time>
      </trkpt>
      <trkpt lat="43.53877" lon="5.53748">
        <ele>378.0046</ele>
        <time>2011-03-27T06:37:31Z</time>
      </trkpt>
      <trkpt lat="43.53876" lon="5.5375">
        <ele>378.0046</ele>
        <time>2011-03-27T06:37:32Z</time>
      </trkpt>
      <trkpt lat="43.53874" lon="5.53752">
        <ele>378.0046</ele>
        <time>2011-03-27T06:37:33Z</time>
      </trkpt>
      <trkpt lat="43.53873" lon="5.53755">
        <ele>379.0046</ele>
        <time>2011-03-27T06:37:34Z</time>
      </trkpt>
      <trkpt lat="43.53873" lon="5.53755">
        <ele>379.0046</ele>
        <time>2011-03-27T06:37:35Z</time>
      </trkpt>
      <trkpt lat="43.5387" lon="5.5376">
        <ele>379.0046</ele>
        <time>2011-03-27T06:37:36Z</time>
      </trkpt>
      <trkpt lat="43.53863" lon="5.5377">
        <ele>380.0046</ele>
        <time>2011-03-27T06:37:38Z</time>
      </trkpt>
      <trkpt lat="43.53861" lon="5.53773">
        <ele>380.0046</ele>
        <time>2011-03-27T06:37:39Z</time>
      </trkpt>
      <trkpt lat="43.53858" lon="5.53777">
        <ele>381.0046</ele>
        <time>2011-03-27T06:37:40Z</time>
      </trkpt>
      <trkpt lat="43.53856" lon="5.5378">
        <ele>381.0046</ele>
        <time>2011-03-27T06:37:41Z</time>
      </trkpt>
      <trkpt lat="43.53851" lon="5.53788">
        <ele>383.0046</ele>
        <time>2011-03-27T06:37:44Z</time>
      </trkpt>
      <trkpt lat="43.5385" lon="5.5379">
        <ele>384.0046</ele>
        <time>2011-03-27T06:37:45Z</time>
      </trkpt>
      <trkpt lat="43.53848" lon="5.53792">
        <ele>384.0046</ele>
        <time>2011-03-27T06:37:46Z</time>
      </trkpt>
      <trkpt lat="43.53846" lon="5.53796">
        <ele>384.0046</ele>
        <time>2011-03-27T06:37:47Z</time>
      </trkpt>
      <trkpt lat="43.53842" lon="5.53802">
        <ele>384.0046</ele>
        <time>2011-03-27T06:37:49Z</time>
      </trkpt>
      <trkpt lat="43.53836" lon="5.53811">
        <ele>384.0046</ele>
        <time>2011-03-27T06:37:54Z</time>
      </trkpt>
      <trkpt lat="43.53831" lon="5.53817">
        <ele>384.0046</ele>
        <time>2011-03-27T06:37:56Z</time>
      </trkpt>
      <trkpt lat="43.53831" lon="5.53817">
        <ele>384.0046</ele>
        <time>2011-03-27T06:37:57Z</time>
      </trkpt>
      <trkpt lat="43.53828" lon="5.5382">
        <ele>384.0046</ele>
        <time>2011-03-27T06:37:58Z</time>
      </trkpt>
      <trkpt lat="43.53827" lon="5.5382">
        <ele>384.0046</ele>
        <time>2011-03-27T06:37:59Z</time>
      </trkpt>
      <trkpt lat="43.53827" lon="5.5382">
        <ele>384.0046</ele>
        <time>2011-03-27T06:38:00Z</time>
      </trkpt>
      <trkpt lat="43.53822" lon="5.53824">
        <ele>385.0046</ele>
        <time>2011-03-27T06:38:01Z</time>
      </trkpt>
      <trkpt lat="43.53817" lon="5.53829">
        <ele>385.0046</ele>
        <time>2011-03-27T06:38:03Z</time>
      </trkpt>
      <trkpt lat="43.53817" lon="5.53829">
        <ele>385.0046</ele>
        <time>2011-03-27T06:38:04Z</time>
      </trkpt>
      <trkpt lat="43.53814" lon="5.53837">
        <ele>386.0046</ele>
        <time>2011-03-27T06:38:05Z</time>
      </trkpt>
      <trkpt lat="43.53812" lon="5.53841">
        <ele>386.0046</ele>
        <time>2011-03-27T06:38:06Z</time>
      </trkpt>
      <trkpt lat="43.5381" lon="5.53846">
        <ele>386.0046</ele>
        <time>2011-03-27T06:38:07Z</time>
      </trkpt>
      <trkpt lat="43.53809" lon="5.5385">
        <ele>387.0047</ele>
        <time>2011-03-27T06:38:08Z</time>
      </trkpt>
      <trkpt lat="43.53809" lon="5.53851">
        <ele>387.0047</ele>
        <time>2011-03-27T06:38:09Z</time>
      </trkpt>
      <trkpt lat="43.53806" lon="5.53862">
        <ele>387.0047</ele>
        <time>2011-03-27T06:38:10Z</time>
      </trkpt>
      <trkpt lat="43.53803" lon="5.53874">
        <ele>388.0047</ele>
        <time>2011-03-27T06:38:12Z</time>
      </trkpt>
      <trkpt lat="43.53803" lon="5.53876">
        <ele>388.0047</ele>
        <time>2011-03-27T06:38:13Z</time>
      </trkpt>
      <trkpt lat="43.53799" lon="5.53881">
        <ele>388.0047</ele>
        <time>2011-03-27T06:38:14Z</time>
      </trkpt>
      <trkpt lat="43.53797" lon="5.53884">
        <ele>389.0047</ele>
        <time>2011-03-27T06:38:15Z</time>
      </trkpt>
      <trkpt lat="43.53795" lon="5.53886">
        <ele>389.0047</ele>
        <time>2011-03-27T06:38:16Z</time>
      </trkpt>
      <trkpt lat="43.53794" lon="5.53888">
        <ele>389.0047</ele>
        <time>2011-03-27T06:38:17Z</time>
      </trkpt>
      <trkpt lat="43.53792" lon="5.53889">
        <ele>389.0047</ele>
        <time>2011-03-27T06:38:18Z</time>
      </trkpt>
      <trkpt lat="43.5379" lon="5.53892">
        <ele>389.0047</ele>
        <time>2011-03-27T06:38:19Z</time>
      </trkpt>
      <trkpt lat="43.53788" lon="5.53893">
        <ele>390.0047</ele>
        <time>2011-03-27T06:38:20Z</time>
      </trkpt>
      <trkpt lat="43.53786" lon="5.53895">
        <ele>390.0047</ele>
        <time>2011-03-27T06:38:21Z</time>
      </trkpt>
      <trkpt lat="43.53784" lon="5.53896">
        <ele>390.0047</ele>
        <time>2011-03-27T06:38:22Z</time>
      </trkpt>
      <trkpt lat="43.53782" lon="5.53898">
        <ele>390.0047</ele>
        <time>2011-03-27T06:38:23Z</time>
      </trkpt>
      <trkpt lat="43.5378" lon="5.539">
        <ele>390.0047</ele>
        <time>2011-03-27T06:38:24Z</time>
      </trkpt>
      <trkpt lat="43.53779" lon="5.53902">
        <ele>391.0047</ele>
        <time>2011-03-27T06:38:25Z</time>
      </trkpt>
      <trkpt lat="43.53771" lon="5.53908">
        <ele>393.0047</ele>
        <time>2011-03-27T06:38:28Z</time>
      </trkpt>
      <trkpt lat="43.5377" lon="5.53909">
        <ele>393.0047</ele>
        <time>2011-03-27T06:38:29Z</time>
      </trkpt>
      <trkpt lat="43.53767" lon="5.53911">
        <ele>393.0047</ele>
        <time>2011-03-27T06:38:30Z</time>
      </trkpt>
      <trkpt lat="43.53766" lon="5.53912">
        <ele>394.0047</ele>
        <time>2011-03-27T06:38:31Z</time>
      </trkpt>
      <trkpt lat="43.53757" lon="5.53922">
        <ele>395.0047</ele>
        <time>2011-03-27T06:38:37Z</time>
      </trkpt>
      <trkpt lat="43.53756" lon="5.53924">
        <ele>395.0047</ele>
        <time>2011-03-27T06:38:38Z</time>
      </trkpt>
      <trkpt lat="43.53755" lon="5.53928">
        <ele>394.0047</ele>
        <time>2011-03-27T06:38:39Z</time>
      </trkpt>
      <trkpt lat="43.53753" lon="5.53932">
        <ele>393.0047</ele>
        <time>2011-03-27T06:38:40Z</time>
      </trkpt>
      <trkpt lat="43.53751" lon="5.53935">
        <ele>392.0047</ele>
        <time>2011-03-27T06:38:41Z</time>
      </trkpt>
      <trkpt lat="43.5375" lon="5.53938">
        <ele>391.0047</ele>
        <time>2011-03-27T06:38:42Z</time>
      </trkpt>
      <trkpt lat="43.53748" lon="5.53941">
        <ele>390.0047</ele>
        <time>2011-03-27T06:38:43Z</time>
      </trkpt>
      <trkpt lat="43.53746" lon="5.53944">
        <ele>389.0047</ele>
        <time>2011-03-27T06:38:44Z</time>
      </trkpt>
      <trkpt lat="43.53742" lon="5.53953">
        <ele>387.0047</ele>
        <time>2011-03-27T06:38:48Z</time>
      </trkpt>
      <trkpt lat="43.5374" lon="5.53956">
        <ele>386.0048</ele>
        <time>2011-03-27T06:38:49Z</time>
      </trkpt>
      <trkpt lat="43.53738" lon="5.53958">
        <ele>386.0048</ele>
        <time>2011-03-27T06:38:50Z</time>
      </trkpt>
      <trkpt lat="43.53737" lon="5.5396">
        <ele>386.0048</ele>
        <time>2011-03-27T06:38:51Z</time>
      </trkpt>
      <trkpt lat="43.53732" lon="5.53966">
        <ele>386.0048</ele>
        <time>2011-03-27T06:38:54Z</time>
      </trkpt>
      <trkpt lat="43.53731" lon="5.53967">
        <ele>387.0048</ele>
        <time>2011-03-27T06:38:55Z</time>
      </trkpt>
      <trkpt lat="43.53728" lon="5.5397">
        <ele>387.0048</ele>
        <time>2011-03-27T06:38:57Z</time>
      </trkpt>
      <trkpt lat="43.53727" lon="5.53971">
        <ele>387.0048</ele>
        <time>2011-03-27T06:38:58Z</time>
      </trkpt>
      <trkpt lat="43.53723" lon="5.53975">
        <ele>387.0048</ele>
        <time>2011-03-27T06:39:01Z</time>
      </trkpt>
      <trkpt lat="43.53721" lon="5.53977">
        <ele>388.0048</ele>
        <time>2011-03-27T06:39:02Z</time>
      </trkpt>
      <trkpt lat="43.53714" lon="5.53993">
        <ele>389.0048</ele>
        <time>2011-03-27T06:39:09Z</time>
      </trkpt>
      <trkpt lat="43.53713" lon="5.54002">
        <ele>389.0048</ele>
        <time>2011-03-27T06:39:11Z</time>
      </trkpt>
      <trkpt lat="43.53711" lon="5.54017">
        <ele>389.0048</ele>
        <time>2011-03-27T06:39:14Z</time>
      </trkpt>
      <trkpt lat="43.53709" lon="5.54031">
        <ele>389.0049</ele>
        <time>2011-03-27T06:39:17Z</time>
      </trkpt>
      <trkpt lat="43.53708" lon="5.54041">
        <ele>391.0049</ele>
        <time>2011-03-27T06:39:20Z</time>
      </trkpt>
      <trkpt lat="43.53708" lon="5.54044">
        <ele>391.0049</ele>
        <time>2011-03-27T06:39:21Z</time>
      </trkpt>
      <trkpt lat="43.53708" lon="5.54048">
        <ele>391.0049</ele>
        <time>2011-03-27T06:39:22Z</time>
      </trkpt>
      <trkpt lat="43.53707" lon="5.54051">
        <ele>391.0049</ele>
        <time>2011-03-27T06:39:23Z</time>
      </trkpt>
      <trkpt lat="43.53706" lon="5.54058">
        <ele>391.0049</ele>
        <time>2011-03-27T06:39:25Z</time>
      </trkpt>
      <trkpt lat="43.53705" lon="5.54069">
        <ele>391.0049</ele>
        <time>2011-03-27T06:39:28Z</time>
      </trkpt>
      <trkpt lat="43.53703" lon="5.54075">
        <ele>391.0049</ele>
        <time>2011-03-27T06:39:30Z</time>
      </trkpt>
      <trkpt lat="43.53702" lon="5.54081">
        <ele>391.0049</ele>
        <time>2011-03-27T06:39:32Z</time>
      </trkpt>
      <trkpt lat="43.53701" lon="5.54084">
        <ele>391.0049</ele>
        <time>2011-03-27T06:39:33Z</time>
      </trkpt>
      <trkpt lat="43.537" lon="5.54086">
        <ele>391.0049</ele>
        <time>2011-03-27T06:39:34Z</time>
      </trkpt>
      <trkpt lat="43.537" lon="5.54087">
        <ele>391.0049</ele>
        <time>2011-03-27T06:39:35Z</time>
      </trkpt>
      <trkpt lat="43.53699" lon="5.54089">
        <ele>391.0049</ele>
        <time>2011-03-27T06:39:36Z</time>
      </trkpt>
      <trkpt lat="43.53698" lon="5.54091">
        <ele>391.0049</ele>
        <time>2011-03-27T06:39:37Z</time>
      </trkpt>
      <trkpt lat="43.53698" lon="5.54093">
        <ele>391.0049</ele>
        <time>2011-03-27T06:39:38Z</time>
      </trkpt>
      <trkpt lat="43.53693" lon="5.54104">
        <ele>390.005</ele>
        <time>2011-03-27T06:39:45Z</time>
      </trkpt>
      <trkpt lat="43.53691" lon="5.5411">
        <ele>390.005</ele>
        <time>2011-03-27T06:39:49Z</time>
      </trkpt>
      <trkpt lat="43.5369" lon="5.54112">
        <ele>389.005</ele>
        <time>2011-03-27T06:39:51Z</time>
      </trkpt>
      <trkpt lat="43.53689" lon="5.54115">
        <ele>388.005</ele>
        <time>2011-03-27T06:39:52Z</time>
      </trkpt>
      <trkpt lat="43.53688" lon="5.54118">
        <ele>388.005</ele>
        <time>2011-03-27T06:39:53Z</time>
      </trkpt>
      <trkpt lat="43.53686" lon="5.5412">
        <ele>388.005</ele>
        <time>2011-03-27T06:39:54Z</time>
      </trkpt>
      <trkpt lat="43.53684" lon="5.54124">
        <ele>387.005</ele>
        <time>2011-03-27T06:39:55Z</time>
      </trkpt>
      <trkpt lat="43.53682" lon="5.54125">
        <ele>387.005</ele>
        <time>2011-03-27T06:39:56Z</time>
      </trkpt>
      <trkpt lat="43.53681" lon="5.54127">
        <ele>387.005</ele>
        <time>2011-03-27T06:39:57Z</time>
      </trkpt>
      <trkpt lat="43.5368" lon="5.54128">
        <ele>387.005</ele>
        <time>2011-03-27T06:39:58Z</time>
      </trkpt>
      <trkpt lat="43.53678" lon="5.5413">
        <ele>386.005</ele>
        <time>2011-03-27T06:40:00Z</time>
      </trkpt>
      <trkpt lat="43.53677" lon="5.54132">
        <ele>386.005</ele>
        <time>2011-03-27T06:40:01Z</time>
      </trkpt>
      <trkpt lat="43.53676" lon="5.54134">
        <ele>385.005</ele>
        <time>2011-03-27T06:40:02Z</time>
      </trkpt>
      <trkpt lat="43.53674" lon="5.54137">
        <ele>384.005</ele>
        <time>2011-03-27T06:40:03Z</time>
      </trkpt>
      <trkpt lat="43.53674" lon="5.54139">
        <ele>382.005</ele>
        <time>2011-03-27T06:40:04Z</time>
      </trkpt>
      <trkpt lat="43.53673" lon="5.54141">
        <ele>381.005</ele>
        <time>2011-03-27T06:40:05Z</time>
      </trkpt>
      <trkpt lat="43.53672" lon="5.54143">
        <ele>380.005</ele>
        <time>2011-03-27T06:40:06Z</time>
      </trkpt>
      <trkpt lat="43.53671" lon="5.54145">
        <ele>379.005</ele>
        <time>2011-03-27T06:40:07Z</time>
      </trkpt>
      <trkpt lat="43.53666" lon="5.54156">
        <ele>373.005</ele>
        <time>2011-03-27T06:40:15Z</time>
      </trkpt>
      <trkpt lat="43.53661" lon="5.54167">
        <ele>372.005</ele>
        <time>2011-03-27T06:40:22Z</time>
      </trkpt>
      <trkpt lat="43.53659" lon="5.54181">
        <ele>371.0051</ele>
        <time>2011-03-27T06:40:28Z</time>
      </trkpt>
      <trkpt lat="43.53659" lon="5.54184">
        <ele>371.0051</ele>
        <time>2011-03-27T06:40:29Z</time>
      </trkpt>
      <trkpt lat="43.53659" lon="5.54187">
        <ele>371.0051</ele>
        <time>2011-03-27T06:40:30Z</time>
      </trkpt>
      <trkpt lat="43.53661" lon="5.54202">
        <ele>370.0051</ele>
        <time>2011-03-27T06:40:34Z</time>
      </trkpt>
      <trkpt lat="43.53663" lon="5.54213">
        <ele>369.0051</ele>
        <time>2011-03-27T06:40:37Z</time>
      </trkpt>
      <trkpt lat="43.53664" lon="5.5422">
        <ele>368.0052</ele>
        <time>2011-03-27T06:40:39Z</time>
      </trkpt>
      <trkpt lat="43.53664" lon="5.54223">
        <ele>368.0052</ele>
        <time>2011-03-27T06:40:40Z</time>
      </trkpt>
      <trkpt lat="43.53668" lon="5.54236">
        <ele>367.0052</ele>
        <time>2011-03-27T06:40:45Z</time>
      </trkpt>
      <trkpt lat="43.53669" lon="5.54238">
        <ele>367.0052</ele>
        <time>2011-03-27T06:40:46Z</time>
      </trkpt>
      <trkpt lat="43.5367" lon="5.54241">
        <ele>366.0052</ele>
        <time>2011-03-27T06:40:47Z</time>
      </trkpt>
      <trkpt lat="43.53672" lon="5.54251">
        <ele>364.0052</ele>
        <time>2011-03-27T06:40:52Z</time>
      </trkpt>
      <trkpt lat="43.53671" lon="5.54253">
        <ele>364.0052</ele>
        <time>2011-03-27T06:40:53Z</time>
      </trkpt>
      <trkpt lat="43.53671" lon="5.54256">
        <ele>364.0052</ele>
        <time>2011-03-27T06:40:54Z</time>
      </trkpt>
      <trkpt lat="43.53672" lon="5.54258">
        <ele>364.0052</ele>
        <time>2011-03-27T06:40:55Z</time>
      </trkpt>
      <trkpt lat="43.53673" lon="5.54266">
        <ele>365.0053</ele>
        <time>2011-03-27T06:40:58Z</time>
      </trkpt>
      <trkpt lat="43.53673" lon="5.54269">
        <ele>365.0053</ele>
        <time>2011-03-27T06:40:59Z</time>
      </trkpt>
      <trkpt lat="43.53675" lon="5.54283">
        <ele>365.0053</ele>
        <time>2011-03-27T06:41:04Z</time>
      </trkpt>
      <trkpt lat="43.53673" lon="5.54297">
        <ele>366.0054</ele>
        <time>2011-03-27T06:41:10Z</time>
      </trkpt>
      <trkpt lat="43.5367" lon="5.54306">
        <ele>368.0054</ele>
        <time>2011-03-27T06:41:14Z</time>
      </trkpt>
      <trkpt lat="43.53669" lon="5.54308">
        <ele>368.0054</ele>
        <time>2011-03-27T06:41:15Z</time>
      </trkpt>
      <trkpt lat="43.53668" lon="5.5431">
        <ele>368.0054</ele>
        <time>2011-03-27T06:41:16Z</time>
      </trkpt>
      <trkpt lat="43.53667" lon="5.54312">
        <ele>368.0054</ele>
        <time>2011-03-27T06:41:17Z</time>
      </trkpt>
      <trkpt lat="43.53666" lon="5.54316">
        <ele>367.0054</ele>
        <time>2011-03-27T06:41:19Z</time>
      </trkpt>
      <trkpt lat="43.53665" lon="5.54318">
        <ele>367.0054</ele>
        <time>2011-03-27T06:41:20Z</time>
      </trkpt>
      <trkpt lat="43.53664" lon="5.5432">
        <ele>367.0054</ele>
        <time>2011-03-27T06:41:21Z</time>
      </trkpt>
      <trkpt lat="43.53663" lon="5.54321">
        <ele>367.0054</ele>
        <time>2011-03-27T06:41:22Z</time>
      </trkpt>
      <trkpt lat="43.53663" lon="5.54322">
        <ele>367.0054</ele>
        <time>2011-03-27T06:41:24Z</time>
      </trkpt>
      <trkpt lat="43.53662" lon="5.54323">
        <ele>367.0054</ele>
        <time>2011-03-27T06:41:25Z</time>
      </trkpt>
      <trkpt lat="43.53661" lon="5.5433">
        <ele>369.0054</ele>
        <time>2011-03-27T06:41:28Z</time>
      </trkpt>
      <trkpt lat="43.53661" lon="5.54332">
        <ele>369.0054</ele>
        <time>2011-03-27T06:41:29Z</time>
      </trkpt>
      <trkpt lat="43.5366" lon="5.54335">
        <ele>369.0054</ele>
        <time>2011-03-27T06:41:30Z</time>
      </trkpt>
      <trkpt lat="43.5366" lon="5.54338">
        <ele>368.0054</ele>
        <time>2011-03-27T06:41:31Z</time>
      </trkpt>
      <trkpt lat="43.53661" lon="5.54348">
        <ele>369.0054</ele>
        <time>2011-03-27T06:41:36Z</time>
      </trkpt>
      <trkpt lat="43.53661" lon="5.54348">
        <ele>369.0054</ele>
        <time>2011-03-27T06:41:37Z</time>
      </trkpt>
      <trkpt lat="43.53661" lon="5.54349">
        <ele>369.0054</ele>
        <time>2011-03-27T06:41:38Z</time>
      </trkpt>
      <trkpt lat="43.53661" lon="5.54352">
        <ele>369.0054</ele>
        <time>2011-03-27T06:41:39Z</time>
      </trkpt>
      <trkpt lat="43.53661" lon="5.54354">
        <ele>369.0055</ele>
        <time>2011-03-27T06:41:40Z</time>
      </trkpt>
      <trkpt lat="43.53663" lon="5.54364">
        <ele>370.0055</ele>
        <time>2011-03-27T06:41:43Z</time>
      </trkpt>
      <trkpt lat="43.53663" lon="5.54366">
        <ele>370.0055</ele>
        <time>2011-03-27T06:41:44Z</time>
      </trkpt>
      <trkpt lat="43.53664" lon="5.54369">
        <ele>370.0055</ele>
        <time>2011-03-27T06:41:45Z</time>
      </trkpt>
      <trkpt lat="43.53664" lon="5.54371">
        <ele>370.0055</ele>
        <time>2011-03-27T06:41:46Z</time>
      </trkpt>
      <trkpt lat="43.53665" lon="5.54374">
        <ele>371.0055</ele>
        <time>2011-03-27T06:41:47Z</time>
      </trkpt>
      <trkpt lat="43.53666" lon="5.54377">
        <ele>370.0055</ele>
        <time>2011-03-27T06:41:48Z</time>
      </trkpt>
      <trkpt lat="43.53671" lon="5.54389">
        <ele>370.0056</ele>
        <time>2011-03-27T06:41:54Z</time>
      </trkpt>
      <trkpt lat="43.53677" lon="5.544">
        <ele>369.0056</ele>
        <time>2011-03-27T06:42:00Z</time>
      </trkpt>
      <trkpt lat="43.53677" lon="5.54401">
        <ele>369.0056</ele>
        <time>2011-03-27T06:42:01Z</time>
      </trkpt>
      <trkpt lat="43.53678" lon="5.54402">
        <ele>369.0056</ele>
        <time>2011-03-27T06:42:02Z</time>
      </trkpt>
      <trkpt lat="43.53678" lon="5.54403">
        <ele>370.0056</ele>
        <time>2011-03-27T06:42:03Z</time>
      </trkpt>
      <trkpt lat="43.53678" lon="5.54404">
        <ele>370.0056</ele>
        <time>2011-03-27T06:42:04Z</time>
      </trkpt>
      <trkpt lat="43.53679" lon="5.54407">
        <ele>370.0056</ele>
        <time>2011-03-27T06:42:05Z</time>
      </trkpt>
      <trkpt lat="43.5368" lon="5.54407">
        <ele>370.0056</ele>
        <time>2011-03-27T06:42:06Z</time>
      </trkpt>
      <trkpt lat="43.53681" lon="5.54411">
        <ele>370.0056</ele>
        <time>2011-03-27T06:42:07Z</time>
      </trkpt>
      <trkpt lat="43.53682" lon="5.54414">
        <ele>371.0056</ele>
        <time>2011-03-27T06:42:08Z</time>
      </trkpt>
      <trkpt lat="43.53684" lon="5.54417">
        <ele>371.0056</ele>
        <time>2011-03-27T06:42:09Z</time>
      </trkpt>
      <trkpt lat="43.53685" lon="5.5442">
        <ele>371.0056</ele>
        <time>2011-03-27T06:42:10Z</time>
      </trkpt>
      <trkpt lat="43.53687" lon="5.54424">
        <ele>372.0057</ele>
        <time>2011-03-27T06:42:11Z</time>
      </trkpt>
      <trkpt lat="43.53689" lon="5.54427">
        <ele>372.0057</ele>
        <time>2011-03-27T06:42:12Z</time>
      </trkpt>
      <trkpt lat="43.5369" lon="5.5443">
        <ele>372.0057</ele>
        <time>2011-03-27T06:42:13Z</time>
      </trkpt>
      <trkpt lat="43.53692" lon="5.54433">
        <ele>372.0057</ele>
        <time>2011-03-27T06:42:14Z</time>
      </trkpt>
      <trkpt lat="43.53694" lon="5.54437">
        <ele>372.0057</ele>
        <time>2011-03-27T06:42:16Z</time>
      </trkpt>
      <trkpt lat="43.53694" lon="5.54438">
        <ele>372.0057</ele>
        <time>2011-03-27T06:42:17Z</time>
      </trkpt>
      <trkpt lat="43.53696" lon="5.54441">
        <ele>373.0057</ele>
        <time>2011-03-27T06:42:18Z</time>
      </trkpt>
      <trkpt lat="43.53697" lon="5.54444">
        <ele>373.0057</ele>
        <time>2011-03-27T06:42:19Z</time>
      </trkpt>
      <trkpt lat="43.53698" lon="5.54446">
        <ele>374.0057</ele>
        <time>2011-03-27T06:42:20Z</time>
      </trkpt>
      <trkpt lat="43.53699" lon="5.54448">
        <ele>374.0057</ele>
        <time>2011-03-27T06:42:21Z</time>
      </trkpt>
      <trkpt lat="43.537" lon="5.5445">
        <ele>374.0057</ele>
        <time>2011-03-27T06:42:22Z</time>
      </trkpt>
      <trkpt lat="43.53701" lon="5.54451">
        <ele>375.0058</ele>
        <time>2011-03-27T06:42:23Z</time>
      </trkpt>
      <trkpt lat="43.53705" lon="5.54459">
        <ele>376.0058</ele>
        <time>2011-03-27T06:42:28Z</time>
      </trkpt>
      <trkpt lat="43.53706" lon="5.54461">
        <ele>377.0058</ele>
        <time>2011-03-27T06:42:29Z</time>
      </trkpt>
      <trkpt lat="43.53706" lon="5.54463">
        <ele>377.0058</ele>
        <time>2011-03-27T06:42:30Z</time>
      </trkpt>
      <trkpt lat="43.53708" lon="5.54466">
        <ele>378.0058</ele>
        <time>2011-03-27T06:42:32Z</time>
      </trkpt>
      <trkpt lat="43.53709" lon="5.54469">
        <ele>378.0058</ele>
        <time>2011-03-27T06:42:33Z</time>
      </trkpt>
      <trkpt lat="43.53709" lon="5.54471">
        <ele>378.0058</ele>
        <time>2011-03-27T06:42:34Z</time>
      </trkpt>
      <trkpt lat="43.5371" lon="5.54474">
        <ele>378.0058</ele>
        <time>2011-03-27T06:42:35Z</time>
      </trkpt>
      <trkpt lat="43.53711" lon="5.54477">
        <ele>379.0058</ele>
        <time>2011-03-27T06:42:36Z</time>
      </trkpt>
      <trkpt lat="43.53712" lon="5.5448">
        <ele>379.0059</ele>
        <time>2011-03-27T06:42:37Z</time>
      </trkpt>
      <trkpt lat="43.53713" lon="5.54485">
        <ele>380.0059</ele>
        <time>2011-03-27T06:42:39Z</time>
      </trkpt>
      <trkpt lat="43.53714" lon="5.54487">
        <ele>380.0059</ele>
        <time>2011-03-27T06:42:40Z</time>
      </trkpt>
      <trkpt lat="43.53714" lon="5.5449">
        <ele>380.0059</ele>
        <time>2011-03-27T06:42:41Z</time>
      </trkpt>
      <trkpt lat="43.53715" lon="5.54493">
        <ele>381.0059</ele>
        <time>2011-03-27T06:42:42Z</time>
      </trkpt>
      <trkpt lat="43.53716" lon="5.54496">
        <ele>381.0059</ele>
        <time>2011-03-27T06:42:43Z</time>
      </trkpt>
      <trkpt lat="43.53717" lon="5.54499">
        <ele>381.0059</ele>
        <time>2011-03-27T06:42:44Z</time>
      </trkpt>
      <trkpt lat="43.53722" lon="5.54512">
        <ele>383.006</ele>
        <time>2011-03-27T06:42:49Z</time>
      </trkpt>
      <trkpt lat="43.53723" lon="5.54515">
        <ele>383.006</ele>
        <time>2011-03-27T06:42:50Z</time>
      </trkpt>
      <trkpt lat="43.53724" lon="5.54517">
        <ele>383.006</ele>
        <time>2011-03-27T06:42:51Z</time>
      </trkpt>
      <trkpt lat="43.53724" lon="5.54518">
        <ele>383.006</ele>
        <time>2011-03-27T06:42:52Z</time>
      </trkpt>
      <trkpt lat="43.53725" lon="5.54521">
        <ele>383.006</ele>
        <time>2011-03-27T06:42:53Z</time>
      </trkpt>
      <trkpt lat="43.53725" lon="5.54523">
        <ele>383.006</ele>
        <time>2011-03-27T06:42:54Z</time>
      </trkpt>
      <trkpt lat="43.53725" lon="5.54525">
        <ele>383.006</ele>
        <time>2011-03-27T06:42:55Z</time>
      </trkpt>
      <trkpt lat="43.53726" lon="5.54528">
        <ele>384.006</ele>
        <time>2011-03-27T06:42:56Z</time>
      </trkpt>
      <trkpt lat="43.53726" lon="5.5453">
        <ele>384.006</ele>
        <time>2011-03-27T06:42:57Z</time>
      </trkpt>
      <trkpt lat="43.53726" lon="5.54532">
        <ele>385.006</ele>
        <time>2011-03-27T06:42:58Z</time>
      </trkpt>
      <trkpt lat="43.53726" lon="5.54534">
        <ele>386.006</ele>
        <time>2011-03-27T06:42:59Z</time>
      </trkpt>
      <trkpt lat="43.53725" lon="5.54549">
        <ele>388.006</ele>
        <time>2011-03-27T06:43:06Z</time>
      </trkpt>
      <trkpt lat="43.53725" lon="5.54554">
        <ele>387.006</ele>
        <time>2011-03-27T06:43:08Z</time>
      </trkpt>
      <trkpt lat="43.53725" lon="5.54557">
        <ele>387.006</ele>
        <time>2011-03-27T06:43:09Z</time>
      </trkpt>
      <trkpt lat="43.53725" lon="5.5456">
        <ele>388.006</ele>
        <time>2011-03-27T06:43:10Z</time>
      </trkpt>
      <trkpt lat="43.53725" lon="5.54562">
        <ele>388.006</ele>
        <time>2011-03-27T06:43:11Z</time>
      </trkpt>
      <trkpt lat="43.53729" lon="5.54576">
        <ele>387.0061</ele>
        <time>2011-03-27T06:43:17Z</time>
      </trkpt>
      <trkpt lat="43.53733" lon="5.54585">
        <ele>388.0061</ele>
        <time>2011-03-27T06:43:25Z</time>
      </trkpt>
      <trkpt lat="43.53734" lon="5.54587">
        <ele>388.0061</ele>
        <time>2011-03-27T06:43:27Z</time>
      </trkpt>
      <trkpt lat="43.53735" lon="5.54589">
        <ele>388.0061</ele>
        <time>2011-03-27T06:43:28Z</time>
      </trkpt>
      <trkpt lat="43.53736" lon="5.5459">
        <ele>388.0062</ele>
        <time>2011-03-27T06:43:29Z</time>
      </trkpt>
      <trkpt lat="43.53737" lon="5.54592">
        <ele>388.0062</ele>
        <time>2011-03-27T06:43:30Z</time>
      </trkpt>
      <trkpt lat="43.53737" lon="5.54593">
        <ele>388.0062</ele>
        <time>2011-03-27T06:43:31Z</time>
      </trkpt>
      <trkpt lat="43.53738" lon="5.54594">
        <ele>389.0062</ele>
        <time>2011-03-27T06:43:32Z</time>
      </trkpt>
      <trkpt lat="43.53739" lon="5.54595">
        <ele>389.0062</ele>
        <time>2011-03-27T06:43:33Z</time>
      </trkpt>
      <trkpt lat="43.5374" lon="5.54597">
        <ele>389.0062</ele>
        <time>2011-03-27T06:43:34Z</time>
      </trkpt>
      <trkpt lat="43.53742" lon="5.54601">
        <ele>390.0062</ele>
        <time>2011-03-27T06:43:37Z</time>
      </trkpt>
      <trkpt lat="43.53743" lon="5.54603">
        <ele>391.0062</ele>
        <time>2011-03-27T06:43:38Z</time>
      </trkpt>
      <trkpt lat="43.53743" lon="5.54605">
        <ele>391.0062</ele>
        <time>2011-03-27T06:43:40Z</time>
      </trkpt>
      <trkpt lat="43.53744" lon="5.54606">
        <ele>391.0062</ele>
        <time>2011-03-27T06:43:41Z</time>
      </trkpt>
      <trkpt lat="43.53746" lon="5.54609">
        <ele>392.0062</ele>
        <time>2011-03-27T06:43:42Z</time>
      </trkpt>
      <trkpt lat="43.53747" lon="5.54613">
        <ele>392.0062</ele>
        <time>2011-03-27T06:43:43Z</time>
      </trkpt>
      <trkpt lat="43.53754" lon="5.54623">
        <ele>393.0063</ele>
        <time>2011-03-27T06:43:47Z</time>
      </trkpt>
      <trkpt lat="43.53756" lon="5.54624">
        <ele>394.0063</ele>
        <time>2011-03-27T06:43:48Z</time>
      </trkpt>
      <trkpt lat="43.53757" lon="5.54626">
        <ele>394.0063</ele>
        <time>2011-03-27T06:43:49Z</time>
      </trkpt>
      <trkpt lat="43.53758" lon="5.54626">
        <ele>394.0063</ele>
        <time>2011-03-27T06:43:50Z</time>
      </trkpt>
      <trkpt lat="43.53759" lon="5.54628">
        <ele>395.0063</ele>
        <time>2011-03-27T06:43:51Z</time>
      </trkpt>
      <trkpt lat="43.5376" lon="5.5463">
        <ele>396.0063</ele>
        <time>2011-03-27T06:43:52Z</time>
      </trkpt>
      <trkpt lat="43.53761" lon="5.54632">
        <ele>397.0063</ele>
        <time>2011-03-27T06:43:53Z</time>
      </trkpt>
      <trkpt lat="43.53762" lon="5.54634">
        <ele>397.0063</ele>
        <time>2011-03-27T06:43:54Z</time>
      </trkpt>
      <trkpt lat="43.53765" lon="5.54646">
        <ele>402.0063</ele>
        <time>2011-03-27T06:44:01Z</time>
      </trkpt>
      <trkpt lat="43.53766" lon="5.5465">
        <ele>403.0063</ele>
        <time>2011-03-27T06:44:04Z</time>
      </trkpt>
      <trkpt lat="43.53766" lon="5.54653">
        <ele>403.0063</ele>
        <time>2011-03-27T06:44:05Z</time>
      </trkpt>
      <trkpt lat="43.53767" lon="5.54656">
        <ele>404.0063</ele>
        <time>2011-03-27T06:44:06Z</time>
      </trkpt>
      <trkpt lat="43.53767" lon="5.54659">
        <ele>404.0064</ele>
        <time>2011-03-27T06:44:07Z</time>
      </trkpt>
      <trkpt lat="43.53768" lon="5.54664">
        <ele>405.0064</ele>
        <time>2011-03-27T06:44:09Z</time>
      </trkpt>
      <trkpt lat="43.53768" lon="5.54665">
        <ele>405.0064</ele>
        <time>2011-03-27T06:44:10Z</time>
      </trkpt>
      <trkpt lat="43.53769" lon="5.54669">
        <ele>405.0064</ele>
        <time>2011-03-27T06:44:11Z</time>
      </trkpt>
      <trkpt lat="43.53769" lon="5.54674">
        <ele>405.0064</ele>
        <time>2011-03-27T06:44:12Z</time>
      </trkpt>
      <trkpt lat="43.5377" lon="5.54678">
        <ele>405.0064</ele>
        <time>2011-03-27T06:44:13Z</time>
      </trkpt>
      <trkpt lat="43.5377" lon="5.54682">
        <ele>406.0064</ele>
        <time>2011-03-27T06:44:14Z</time>
      </trkpt>
      <trkpt lat="43.53772" lon="5.54688">
        <ele>406.0064</ele>
        <time>2011-03-27T06:44:16Z</time>
      </trkpt>
      <trkpt lat="43.53772" lon="5.54689">
        <ele>406.0064</ele>
        <time>2011-03-27T06:44:17Z</time>
      </trkpt>
      <trkpt lat="43.53772" lon="5.54693">
        <ele>406.0065</ele>
        <time>2011-03-27T06:44:18Z</time>
      </trkpt>
      <trkpt lat="43.53774" lon="5.54696">
        <ele>406.0065</ele>
        <time>2011-03-27T06:44:19Z</time>
      </trkpt>
      <trkpt lat="43.53776" lon="5.54701">
        <ele>408.0065</ele>
        <time>2011-03-27T06:44:25Z</time>
      </trkpt>
      <trkpt lat="43.53776" lon="5.54702">
        <ele>408.0065</ele>
        <time>2011-03-27T06:44:26Z</time>
      </trkpt>
      <trkpt lat="43.53776" lon="5.54703">
        <ele>408.0065</ele>
        <time>2011-03-27T06:44:27Z</time>
      </trkpt>
      <trkpt lat="43.53777" lon="5.54705">
        <ele>410.0065</ele>
        <time>2011-03-27T06:44:30Z</time>
      </trkpt>
      <trkpt lat="43.53777" lon="5.54706">
        <ele>410.0065</ele>
        <time>2011-03-27T06:44:31Z</time>
      </trkpt>
      <trkpt lat="43.53779" lon="5.54712">
        <ele>412.0065</ele>
        <time>2011-03-27T06:44:35Z</time>
      </trkpt>
      <trkpt lat="43.53779" lon="5.54714">
        <ele>412.0065</ele>
        <time>2011-03-27T06:44:36Z</time>
      </trkpt>
      <trkpt lat="43.5378" lon="5.54718">
        <ele>414.0065</ele>
        <time>2011-03-27T06:44:40Z</time>
      </trkpt>
      <trkpt lat="43.5378" lon="5.54718">
        <ele>414.0065</ele>
        <time>2011-03-27T06:44:41Z</time>
      </trkpt>
      <trkpt lat="43.53781" lon="5.5472">
        <ele>414.0065</ele>
        <time>2011-03-27T06:44:42Z</time>
      </trkpt>
      <trkpt lat="43.53781" lon="5.54722">
        <ele>414.0065</ele>
        <time>2011-03-27T06:44:43Z</time>
      </trkpt>
      <trkpt lat="43.53781" lon="5.54722">
        <ele>414.0065</ele>
        <time>2011-03-27T06:44:44Z</time>
      </trkpt>
      <trkpt lat="43.53782" lon="5.54725">
        <ele>414.0065</ele>
        <time>2011-03-27T06:44:45Z</time>
      </trkpt>
      <trkpt lat="43.53782" lon="5.54725">
        <ele>414.0066</ele>
        <time>2011-03-27T06:44:46Z</time>
      </trkpt>
      <trkpt lat="43.53783" lon="5.54727">
        <ele>415.0066</ele>
        <time>2011-03-27T06:44:47Z</time>
      </trkpt>
      <trkpt lat="43.53783" lon="5.54728">
        <ele>415.0066</ele>
        <time>2011-03-27T06:44:48Z</time>
      </trkpt>
      <trkpt lat="43.53783" lon="5.5473">
        <ele>415.0066</ele>
        <time>2011-03-27T06:44:49Z</time>
      </trkpt>
      <trkpt lat="43.53784" lon="5.54731">
        <ele>416.0066</ele>
        <time>2011-03-27T06:44:50Z</time>
      </trkpt>
      <trkpt lat="43.53784" lon="5.54732">
        <ele>416.0066</ele>
        <time>2011-03-27T06:44:51Z</time>
      </trkpt>
      <trkpt lat="43.53785" lon="5.54735">
        <ele>416.0066</ele>
        <time>2011-03-27T06:44:52Z</time>
      </trkpt>
      <trkpt lat="43.53786" lon="5.54739">
        <ele>417.0066</ele>
        <time>2011-03-27T06:44:54Z</time>
      </trkpt>
      <trkpt lat="43.53786" lon="5.5474">
        <ele>418.0066</ele>
        <time>2011-03-27T06:44:55Z</time>
      </trkpt>
      <trkpt lat="43.53787" lon="5.54742">
        <ele>418.0066</ele>
        <time>2011-03-27T06:44:56Z</time>
      </trkpt>
      <trkpt lat="43.53787" lon="5.54743">
        <ele>418.0066</ele>
        <time>2011-03-27T06:44:57Z</time>
      </trkpt>
      <trkpt lat="43.53787" lon="5.54745">
        <ele>419.0066</ele>
        <time>2011-03-27T06:44:58Z</time>
      </trkpt>
      <trkpt lat="43.53788" lon="5.54747">
        <ele>419.0066</ele>
        <time>2011-03-27T06:44:59Z</time>
      </trkpt>
      <trkpt lat="43.53789" lon="5.54748">
        <ele>419.0066</ele>
        <time>2011-03-27T06:45:00Z</time>
      </trkpt>
      <trkpt lat="43.5379" lon="5.54754">
        <ele>421.0066</ele>
        <time>2011-03-27T06:45:06Z</time>
      </trkpt>
      <trkpt lat="43.5379" lon="5.54756">
        <ele>421.0067</ele>
        <time>2011-03-27T06:45:07Z</time>
      </trkpt>
      <trkpt lat="43.5379" lon="5.54757">
        <ele>421.0067</ele>
        <time>2011-03-27T06:45:08Z</time>
      </trkpt>
      <trkpt lat="43.5379" lon="5.54758">
        <ele>421.0067</ele>
        <time>2011-03-27T06:45:09Z</time>
      </trkpt>
      <trkpt lat="43.53791" lon="5.54766">
        <ele>421.0067</ele>
        <time>2011-03-27T06:45:15Z</time>
      </trkpt>
      <trkpt lat="43.53791" lon="5.54767">
        <ele>421.0067</ele>
        <time>2011-03-27T06:45:16Z</time>
      </trkpt>
      <trkpt lat="43.53792" lon="5.54772">
        <ele>422.0067</ele>
        <time>2011-03-27T06:45:20Z</time>
      </trkpt>
      <trkpt lat="43.53792" lon="5.54772">
        <ele>422.0067</ele>
        <time>2011-03-27T06:45:21Z</time>
      </trkpt>
      <trkpt lat="43.53793" lon="5.54774">
        <ele>423.0067</ele>
        <time>2011-03-27T06:45:27Z</time>
      </trkpt>
      <trkpt lat="43.53793" lon="5.54775">
        <ele>423.0067</ele>
        <time>2011-03-27T06:45:28Z</time>
      </trkpt>
      <trkpt lat="43.53793" lon="5.54779">
        <ele>425.0067</ele>
        <time>2011-03-27T06:45:35Z</time>
      </trkpt>
      <trkpt lat="43.53793" lon="5.54781">
        <ele>425.0067</ele>
        <time>2011-03-27T06:45:36Z</time>
      </trkpt>
      <trkpt lat="43.53793" lon="5.54781">
        <ele>426.0067</ele>
        <time>2011-03-27T06:45:37Z</time>
      </trkpt>
      <trkpt lat="43.53793" lon="5.54783">
        <ele>426.0067</ele>
        <time>2011-03-27T06:45:38Z</time>
      </trkpt>
      <trkpt lat="43.53793" lon="5.54795">
        <ele>429.0067</ele>
        <time>2011-03-27T06:45:44Z</time>
      </trkpt>
      <trkpt lat="43.53793" lon="5.54796">
        <ele>429.0067</ele>
        <time>2011-03-27T06:45:45Z</time>
      </trkpt>
      <trkpt lat="43.53793" lon="5.548">
        <ele>430.0067</ele>
        <time>2011-03-27T06:45:46Z</time>
      </trkpt>
      <trkpt lat="43.53794" lon="5.54802">
        <ele>430.0067</ele>
        <time>2011-03-27T06:45:47Z</time>
      </trkpt>
      <trkpt lat="43.53794" lon="5.54805">
        <ele>430.0068</ele>
        <time>2011-03-27T06:45:48Z</time>
      </trkpt>
      <trkpt lat="43.53794" lon="5.54808">
        <ele>431.0068</ele>
        <time>2011-03-27T06:45:49Z</time>
      </trkpt>
      <trkpt lat="43.53794" lon="5.5481">
        <ele>431.0068</ele>
        <time>2011-03-27T06:45:50Z</time>
      </trkpt>
      <trkpt lat="43.53794" lon="5.54813">
        <ele>432.0068</ele>
        <time>2011-03-27T06:45:51Z</time>
      </trkpt>
      <trkpt lat="43.53795" lon="5.54816">
        <ele>432.0068</ele>
        <time>2011-03-27T06:45:53Z</time>
      </trkpt>
      <trkpt lat="43.53795" lon="5.54817">
        <ele>432.0068</ele>
        <time>2011-03-27T06:45:54Z</time>
      </trkpt>
      <trkpt lat="43.53796" lon="5.54824">
        <ele>433.0068</ele>
        <time>2011-03-27T06:45:59Z</time>
      </trkpt>
      <trkpt lat="43.53797" lon="5.54826">
        <ele>433.0068</ele>
        <time>2011-03-27T06:46:01Z</time>
      </trkpt>
      <trkpt lat="43.53798" lon="5.54829">
        <ele>433.0068</ele>
        <time>2011-03-27T06:46:02Z</time>
      </trkpt>
      <trkpt lat="43.53798" lon="5.54831">
        <ele>433.0068</ele>
        <time>2011-03-27T06:46:03Z</time>
      </trkpt>
      <trkpt lat="43.53798" lon="5.54833">
        <ele>434.0068</ele>
        <time>2011-03-27T06:46:04Z</time>
      </trkpt>
      <trkpt lat="43.53799" lon="5.54836">
        <ele>434.0068</ele>
        <time>2011-03-27T06:46:06Z</time>
      </trkpt>
      <trkpt lat="43.538" lon="5.54839">
        <ele>433.0068</ele>
        <time>2011-03-27T06:46:07Z</time>
      </trkpt>
      <trkpt lat="43.53806" lon="5.54849">
        <ele>433.0069</ele>
        <time>2011-03-27T06:46:13Z</time>
      </trkpt>
      <trkpt lat="43.53808" lon="5.54852">
        <ele>434.0069</ele>
        <time>2011-03-27T06:46:15Z</time>
      </trkpt>
      <trkpt lat="43.53809" lon="5.54853">
        <ele>434.0069</ele>
        <time>2011-03-27T06:46:16Z</time>
      </trkpt>
      <trkpt lat="43.53811" lon="5.54855">
        <ele>433.0069</ele>
        <time>2011-03-27T06:46:17Z</time>
      </trkpt>
      <trkpt lat="43.53818" lon="5.54863">
        <ele>434.007</ele>
        <time>2011-03-27T06:46:23Z</time>
      </trkpt>
      <trkpt lat="43.53819" lon="5.54864">
        <ele>434.007</ele>
        <time>2011-03-27T06:46:24Z</time>
      </trkpt>
      <trkpt lat="43.5382" lon="5.54866">
        <ele>434.007</ele>
        <time>2011-03-27T06:46:25Z</time>
      </trkpt>
      <trkpt lat="43.53821" lon="5.54868">
        <ele>435.007</ele>
        <time>2011-03-27T06:46:26Z</time>
      </trkpt>
      <trkpt lat="43.53825" lon="5.54873">
        <ele>435.007</ele>
        <time>2011-03-27T06:46:28Z</time>
      </trkpt>
      <trkpt lat="43.53827" lon="5.54876">
        <ele>435.007</ele>
        <time>2011-03-27T06:46:29Z</time>
      </trkpt>
      <trkpt lat="43.53829" lon="5.54879">
        <ele>435.007</ele>
        <time>2011-03-27T06:46:30Z</time>
      </trkpt>
      <trkpt lat="43.5383" lon="5.54881">
        <ele>436.007</ele>
        <time>2011-03-27T06:46:31Z</time>
      </trkpt>
      <trkpt lat="43.53834" lon="5.54886">
        <ele>437.007</ele>
        <time>2011-03-27T06:46:34Z</time>
      </trkpt>
      <trkpt lat="43.53835" lon="5.54888">
        <ele>437.007</ele>
        <time>2011-03-27T06:46:35Z</time>
      </trkpt>
      <trkpt lat="43.53843" lon="5.54895">
        <ele>440.0071</ele>
        <time>2011-03-27T06:46:41Z</time>
      </trkpt>
      <trkpt lat="43.53846" lon="5.54898">
        <ele>440.0071</ele>
        <time>2011-03-27T06:46:42Z</time>
      </trkpt>
      <trkpt lat="43.53849" lon="5.54902">
        <ele>440.0071</ele>
        <time>2011-03-27T06:46:44Z</time>
      </trkpt>
      <trkpt lat="43.53849" lon="5.54902">
        <ele>440.0071</ele>
        <time>2011-03-27T06:46:45Z</time>
      </trkpt>
      <trkpt lat="43.53851" lon="5.54906">
        <ele>441.0071</ele>
        <time>2011-03-27T06:46:46Z</time>
      </trkpt>
      <trkpt lat="43.53853" lon="5.54911">
        <ele>442.0071</ele>
        <time>2011-03-27T06:46:49Z</time>
      </trkpt>
      <trkpt lat="43.53854" lon="5.54914">
        <ele>442.0071</ele>
        <time>2011-03-27T06:46:50Z</time>
      </trkpt>
      <trkpt lat="43.53855" lon="5.54916">
        <ele>443.0071</ele>
        <time>2011-03-27T06:46:51Z</time>
      </trkpt>
      <trkpt lat="43.53856" lon="5.5492">
        <ele>444.0071</ele>
        <time>2011-03-27T06:46:53Z</time>
      </trkpt>
      <trkpt lat="43.53856" lon="5.5492">
        <ele>444.0071</ele>
        <time>2011-03-27T06:46:54Z</time>
      </trkpt>
      <trkpt lat="43.53857" lon="5.54923">
        <ele>445.0072</ele>
        <time>2011-03-27T06:46:55Z</time>
      </trkpt>
      <trkpt lat="43.53858" lon="5.54926">
        <ele>445.0072</ele>
        <time>2011-03-27T06:46:56Z</time>
      </trkpt>
      <trkpt lat="43.53861" lon="5.54932">
        <ele>445.0072</ele>
        <time>2011-03-27T06:46:59Z</time>
      </trkpt>
      <trkpt lat="43.53862" lon="5.54934">
        <ele>446.0072</ele>
        <time>2011-03-27T06:47:00Z</time>
      </trkpt>
      <trkpt lat="43.53862" lon="5.54935">
        <ele>446.0072</ele>
        <time>2011-03-27T06:47:01Z</time>
      </trkpt>
      <trkpt lat="43.53863" lon="5.54938">
        <ele>447.0072</ele>
        <time>2011-03-27T06:47:02Z</time>
      </trkpt>
      <trkpt lat="43.53864" lon="5.5494">
        <ele>447.0072</ele>
        <time>2011-03-27T06:47:03Z</time>
      </trkpt>
      <trkpt lat="43.53865" lon="5.54943">
        <ele>448.0072</ele>
        <time>2011-03-27T06:47:04Z</time>
      </trkpt>
      <trkpt lat="43.53867" lon="5.54945">
        <ele>448.0072</ele>
        <time>2011-03-27T06:47:05Z</time>
      </trkpt>
      <trkpt lat="43.53868" lon="5.54948">
        <ele>449.0072</ele>
        <time>2011-03-27T06:47:06Z</time>
      </trkpt>
      <trkpt lat="43.53869" lon="5.5495">
        <ele>449.0073</ele>
        <time>2011-03-27T06:47:07Z</time>
      </trkpt>
      <trkpt lat="43.53872" lon="5.54961">
        <ele>450.0073</ele>
        <time>2011-03-27T06:47:14Z</time>
      </trkpt>
      <trkpt lat="43.53872" lon="5.54963">
        <ele>450.0073</ele>
        <time>2011-03-27T06:47:15Z</time>
      </trkpt>
      <trkpt lat="43.53873" lon="5.54965">
        <ele>451.0073</ele>
        <time>2011-03-27T06:47:16Z</time>
      </trkpt>
      <trkpt lat="43.53874" lon="5.54974">
        <ele>452.0073</ele>
        <time>2011-03-27T06:47:20Z</time>
      </trkpt>
      <trkpt lat="43.53875" lon="5.54978">
        <ele>452.0073</ele>
        <time>2011-03-27T06:47:21Z</time>
      </trkpt>
      <trkpt lat="43.53876" lon="5.54981">
        <ele>452.0073</ele>
        <time>2011-03-27T06:47:22Z</time>
      </trkpt>
      <trkpt lat="43.53877" lon="5.54984">
        <ele>452.0073</ele>
        <time>2011-03-27T06:47:23Z</time>
      </trkpt>
      <trkpt lat="43.53879" lon="5.54991">
        <ele>453.0074</ele>
        <time>2011-03-27T06:47:26Z</time>
      </trkpt>
      <trkpt lat="43.5388" lon="5.54993">
        <ele>452.0074</ele>
        <time>2011-03-27T06:47:27Z</time>
      </trkpt>
      <trkpt lat="43.53881" lon="5.54995">
        <ele>452.0074</ele>
        <time>2011-03-27T06:47:28Z</time>
      </trkpt>
      <trkpt lat="43.53884" lon="5.55001">
        <ele>453.0074</ele>
        <time>2011-03-27T06:47:32Z</time>
      </trkpt>
      <trkpt lat="43.53885" lon="5.55002">
        <ele>453.0074</ele>
        <time>2011-03-27T06:47:33Z</time>
      </trkpt>
      <trkpt lat="43.53886" lon="5.55006">
        <ele>454.0074</ele>
        <time>2011-03-27T06:47:35Z</time>
      </trkpt>
      <trkpt lat="43.53886" lon="5.55007">
        <ele>454.0074</ele>
        <time>2011-03-27T06:47:36Z</time>
      </trkpt>
      <trkpt lat="43.53888" lon="5.55012">
        <ele>455.0074</ele>
        <time>2011-03-27T06:47:39Z</time>
      </trkpt>
      <trkpt lat="43.53888" lon="5.55014">
        <ele>455.0074</ele>
        <time>2011-03-27T06:47:40Z</time>
      </trkpt>
      <trkpt lat="43.53894" lon="5.55025">
        <ele>459.0075</ele>
        <time>2011-03-27T06:47:49Z</time>
      </trkpt>
      <trkpt lat="43.53894" lon="5.55026">
        <ele>459.0075</ele>
        <time>2011-03-27T06:47:52Z</time>
      </trkpt>
      <trkpt lat="43.53894" lon="5.55026">
        <ele>459.0075</ele>
        <time>2011-03-27T06:47:53Z</time>
      </trkpt>
      <trkpt lat="43.53894" lon="5.55027">
        <ele>459.0075</ele>
        <time>2011-03-27T06:47:54Z</time>
      </trkpt>
      <trkpt lat="43.53895" lon="5.55028">
        <ele>459.0075</ele>
        <time>2011-03-27T06:47:55Z</time>
      </trkpt>
      <trkpt lat="43.53895" lon="5.55029">
        <ele>459.0075</ele>
        <time>2011-03-27T06:47:56Z</time>
      </trkpt>
      <trkpt lat="43.53896" lon="5.55031">
        <ele>458.0075</ele>
        <time>2011-03-27T06:47:58Z</time>
      </trkpt>
      <trkpt lat="43.53896" lon="5.55032">
        <ele>458.0075</ele>
        <time>2011-03-27T06:47:59Z</time>
      </trkpt>
      <trkpt lat="43.53896" lon="5.55034">
        <ele>458.0075</ele>
        <time>2011-03-27T06:48:00Z</time>
      </trkpt>
      <trkpt lat="43.53898" lon="5.5504">
        <ele>457.0075</ele>
        <time>2011-03-27T06:48:06Z</time>
      </trkpt>
      <trkpt lat="43.539" lon="5.55046">
        <ele>458.0075</ele>
        <time>2011-03-27T06:48:11Z</time>
      </trkpt>
      <trkpt lat="43.53901" lon="5.5505">
        <ele>459.0075</ele>
        <time>2011-03-27T06:48:14Z</time>
      </trkpt>
      <trkpt lat="43.53901" lon="5.55052">
        <ele>459.0075</ele>
        <time>2011-03-27T06:48:15Z</time>
      </trkpt>
      <trkpt lat="43.53902" lon="5.55058">
        <ele>458.0076</ele>
        <time>2011-03-27T06:48:19Z</time>
      </trkpt>
      <trkpt lat="43.53903" lon="5.55059">
        <ele>458.0076</ele>
        <time>2011-03-27T06:48:20Z</time>
      </trkpt>
      <trkpt lat="43.53903" lon="5.55061">
        <ele>458.0076</ele>
        <time>2011-03-27T06:48:21Z</time>
      </trkpt>
      <trkpt lat="43.53904" lon="5.55063">
        <ele>458.0076</ele>
        <time>2011-03-27T06:48:22Z</time>
      </trkpt>
      <trkpt lat="43.53907" lon="5.55075">
        <ele>459.0076</ele>
        <time>2011-03-27T06:48:27Z</time>
      </trkpt>
      <trkpt lat="43.53909" lon="5.55084">
        <ele>459.0076</ele>
        <time>2011-03-27T06:48:30Z</time>
      </trkpt>
      <trkpt lat="43.5391" lon="5.55086">
        <ele>460.0076</ele>
        <time>2011-03-27T06:48:31Z</time>
      </trkpt>
      <trkpt lat="43.53911" lon="5.55088">
        <ele>460.0076</ele>
        <time>2011-03-27T06:48:32Z</time>
      </trkpt>
      <trkpt lat="43.53912" lon="5.55091">
        <ele>461.0077</ele>
        <time>2011-03-27T06:48:33Z</time>
      </trkpt>
      <trkpt lat="43.53912" lon="5.55092">
        <ele>461.0077</ele>
        <time>2011-03-27T06:48:34Z</time>
      </trkpt>
      <trkpt lat="43.53913" lon="5.55096">
        <ele>461.0077</ele>
        <time>2011-03-27T06:48:35Z</time>
      </trkpt>
      <trkpt lat="43.53914" lon="5.55102">
        <ele>462.0077</ele>
        <time>2011-03-27T06:48:37Z</time>
      </trkpt>
      <trkpt lat="43.53915" lon="5.55105">
        <ele>462.0077</ele>
        <time>2011-03-27T06:48:38Z</time>
      </trkpt>
      <trkpt lat="43.53917" lon="5.55112">
        <ele>463.0077</ele>
        <time>2011-03-27T06:48:41Z</time>
      </trkpt>
      <trkpt lat="43.53918" lon="5.55119">
        <ele>464.0077</ele>
        <time>2011-03-27T06:48:45Z</time>
      </trkpt>
      <trkpt lat="43.53917" lon="5.55121">
        <ele>464.0078</ele>
        <time>2011-03-27T06:48:46Z</time>
      </trkpt>
      <trkpt lat="43.53917" lon="5.55127">
        <ele>466.0078</ele>
        <time>2011-03-27T06:48:52Z</time>
      </trkpt>
      <trkpt lat="43.53916" lon="5.55128">
        <ele>466.0078</ele>
        <time>2011-03-27T06:48:53Z</time>
      </trkpt>
      <trkpt lat="43.53915" lon="5.55139">
        <ele>468.0078</ele>
        <time>2011-03-27T06:48:58Z</time>
      </trkpt>
      <trkpt lat="43.53914" lon="5.55147">
        <ele>468.0078</ele>
        <time>2011-03-27T06:49:00Z</time>
      </trkpt>
      <trkpt lat="43.53914" lon="5.55151">
        <ele>468.0078</ele>
        <time>2011-03-27T06:49:01Z</time>
      </trkpt>
      <trkpt lat="43.53914" lon="5.55155">
        <ele>469.0078</ele>
        <time>2011-03-27T06:49:02Z</time>
      </trkpt>
      <trkpt lat="43.53914" lon="5.55157">
        <ele>469.0078</ele>
        <time>2011-03-27T06:49:03Z</time>
      </trkpt>
      <trkpt lat="43.53914" lon="5.55161">
        <ele>469.0078</ele>
        <time>2011-03-27T06:49:04Z</time>
      </trkpt>
      <trkpt lat="43.53913" lon="5.55164">
        <ele>469.0078</ele>
        <time>2011-03-27T06:49:05Z</time>
      </trkpt>
      <trkpt lat="43.53913" lon="5.55167">
        <ele>469.0078</ele>
        <time>2011-03-27T06:49:06Z</time>
      </trkpt>
      <trkpt lat="43.53913" lon="5.5517">
        <ele>469.0078</ele>
        <time>2011-03-27T06:49:07Z</time>
      </trkpt>
      <trkpt lat="43.53913" lon="5.55176">
        <ele>469.0078</ele>
        <time>2011-03-27T06:49:09Z</time>
      </trkpt>
      <trkpt lat="43.53913" lon="5.55178">
        <ele>469.0078</ele>
        <time>2011-03-27T06:49:10Z</time>
      </trkpt>
      <trkpt lat="43.53913" lon="5.55182">
        <ele>470.0079</ele>
        <time>2011-03-27T06:49:11Z</time>
      </trkpt>
      <trkpt lat="43.53913" lon="5.55189">
        <ele>470.0079</ele>
        <time>2011-03-27T06:49:13Z</time>
      </trkpt>
      <trkpt lat="43.53913" lon="5.55192">
        <ele>470.0079</ele>
        <time>2011-03-27T06:49:14Z</time>
      </trkpt>
      <trkpt lat="43.53914" lon="5.552">
        <ele>471.0079</ele>
        <time>2011-03-27T06:49:17Z</time>
      </trkpt>
      <trkpt lat="43.53914" lon="5.55202">
        <ele>471.0079</ele>
        <time>2011-03-27T06:49:18Z</time>
      </trkpt>
      <trkpt lat="43.53914" lon="5.55205">
        <ele>471.0079</ele>
        <time>2011-03-27T06:49:19Z</time>
      </trkpt>
      <trkpt lat="43.53915" lon="5.55207">
        <ele>472.0079</ele>
        <time>2011-03-27T06:49:20Z</time>
      </trkpt>
      <trkpt lat="43.53916" lon="5.55209">
        <ele>472.0079</ele>
        <time>2011-03-27T06:49:21Z</time>
      </trkpt>
      <trkpt lat="43.53919" lon="5.55215">
        <ele>473.0079</ele>
        <time>2011-03-27T06:49:25Z</time>
      </trkpt>
      <trkpt lat="43.5392" lon="5.55217">
        <ele>473.008</ele>
        <time>2011-03-27T06:49:26Z</time>
      </trkpt>
      <trkpt lat="43.53921" lon="5.55219">
        <ele>473.008</ele>
        <time>2011-03-27T06:49:27Z</time>
      </trkpt>
      <trkpt lat="43.53922" lon="5.55221">
        <ele>474.008</ele>
        <time>2011-03-27T06:49:28Z</time>
      </trkpt>
      <trkpt lat="43.53923" lon="5.55224">
        <ele>474.008</ele>
        <time>2011-03-27T06:49:29Z</time>
      </trkpt>
      <trkpt lat="43.53924" lon="5.55226">
        <ele>474.008</ele>
        <time>2011-03-27T06:49:30Z</time>
      </trkpt>
      <trkpt lat="43.53925" lon="5.55231">
        <ele>474.008</ele>
        <time>2011-03-27T06:49:32Z</time>
      </trkpt>
      <trkpt lat="43.53926" lon="5.55233">
        <ele>474.008</ele>
        <time>2011-03-27T06:49:33Z</time>
      </trkpt>
      <trkpt lat="43.53929" lon="5.55242">
        <ele>476.008</ele>
        <time>2011-03-27T06:49:37Z</time>
      </trkpt>
      <trkpt lat="43.5393" lon="5.55247">
        <ele>477.0081</ele>
        <time>2011-03-27T06:49:43Z</time>
      </trkpt>
      <trkpt lat="43.5393" lon="5.55249">
        <ele>477.0081</ele>
        <time>2011-03-27T06:49:44Z</time>
      </trkpt>
      <trkpt lat="43.5393" lon="5.55252">
        <ele>477.0081</ele>
        <time>2011-03-27T06:49:46Z</time>
      </trkpt>
      <trkpt lat="43.5393" lon="5.55252">
        <ele>477.0081</ele>
        <time>2011-03-27T06:49:47Z</time>
      </trkpt>
      <trkpt lat="43.5393" lon="5.55255">
        <ele>478.0081</ele>
        <time>2011-03-27T06:49:48Z</time>
      </trkpt>
      <trkpt lat="43.53929" lon="5.55264">
        <ele>479.0081</ele>
        <time>2011-03-27T06:49:53Z</time>
      </trkpt>
      <trkpt lat="43.53929" lon="5.55264">
        <ele>479.0081</ele>
        <time>2011-03-27T06:49:54Z</time>
      </trkpt>
      <trkpt lat="43.53929" lon="5.55267">
        <ele>480.0081</ele>
        <time>2011-03-27T06:49:55Z</time>
      </trkpt>
      <trkpt lat="43.53929" lon="5.55269">
        <ele>480.0081</ele>
        <time>2011-03-27T06:49:56Z</time>
      </trkpt>
      <trkpt lat="43.53927" lon="5.55275">
        <ele>483.0081</ele>
        <time>2011-03-27T06:50:03Z</time>
      </trkpt>
      <trkpt lat="43.53927" lon="5.55276">
        <ele>483.0081</ele>
        <time>2011-03-27T06:50:04Z</time>
      </trkpt>
      <trkpt lat="43.53927" lon="5.55276">
        <ele>483.0081</ele>
        <time>2011-03-27T06:50:05Z</time>
      </trkpt>
      <trkpt lat="43.53926" lon="5.55278">
        <ele>483.0081</ele>
        <time>2011-03-27T06:50:08Z</time>
      </trkpt>
      <trkpt lat="43.53926" lon="5.55278">
        <ele>483.0081</ele>
        <time>2011-03-27T06:50:09Z</time>
      </trkpt>
      <trkpt lat="43.53926" lon="5.55279">
        <ele>483.0081</ele>
        <time>2011-03-27T06:50:10Z</time>
      </trkpt>
      <trkpt lat="43.53925" lon="5.55281">
        <ele>483.0081</ele>
        <time>2011-03-27T06:50:11Z</time>
      </trkpt>
      <trkpt lat="43.53923" lon="5.55284">
        <ele>484.0081</ele>
        <time>2011-03-27T06:50:13Z</time>
      </trkpt>
      <trkpt lat="43.53923" lon="5.55285">
        <ele>484.0081</ele>
        <time>2011-03-27T06:50:14Z</time>
      </trkpt>
      <trkpt lat="43.53922" lon="5.55292">
        <ele>484.0081</ele>
        <time>2011-03-27T06:50:20Z</time>
      </trkpt>
      <trkpt lat="43.53922" lon="5.55293">
        <ele>485.0081</ele>
        <time>2011-03-27T06:50:21Z</time>
      </trkpt>
      <trkpt lat="43.53922" lon="5.55296">
        <ele>485.0081</ele>
        <time>2011-03-27T06:50:23Z</time>
      </trkpt>
      <trkpt lat="43.53922" lon="5.55297">
        <ele>485.0081</ele>
        <time>2011-03-27T06:50:24Z</time>
      </trkpt>
      <trkpt lat="43.53921" lon="5.55304">
        <ele>486.0081</ele>
        <time>2011-03-27T06:50:29Z</time>
      </trkpt>
      <trkpt lat="43.5392" lon="5.55312">
        <ele>489.0082</ele>
        <time>2011-03-27T06:50:40Z</time>
      </trkpt>
      <trkpt lat="43.5392" lon="5.55313">
        <ele>490.0082</ele>
        <time>2011-03-27T06:50:41Z</time>
      </trkpt>
      <trkpt lat="43.53919" lon="5.55314">
        <ele>490.0082</ele>
        <time>2011-03-27T06:50:42Z</time>
      </trkpt>
      <trkpt lat="43.53919" lon="5.55315">
        <ele>490.0082</ele>
        <time>2011-03-27T06:50:43Z</time>
      </trkpt>
      <trkpt lat="43.53919" lon="5.55317">
        <ele>491.0082</ele>
        <time>2011-03-27T06:50:45Z</time>
      </trkpt>
      <trkpt lat="43.53918" lon="5.55318">
        <ele>491.0082</ele>
        <time>2011-03-27T06:50:46Z</time>
      </trkpt>
      <trkpt lat="43.53918" lon="5.55319">
        <ele>491.0082</ele>
        <time>2011-03-27T06:50:47Z</time>
      </trkpt>
      <trkpt lat="43.53917" lon="5.5532">
        <ele>491.0082</ele>
        <time>2011-03-27T06:50:48Z</time>
      </trkpt>
      <trkpt lat="43.53917" lon="5.55321">
        <ele>492.0082</ele>
        <time>2011-03-27T06:50:50Z</time>
      </trkpt>
      <trkpt lat="43.53917" lon="5.55322">
        <ele>492.0082</ele>
        <time>2011-03-27T06:50:51Z</time>
      </trkpt>
      <trkpt lat="43.53917" lon="5.55322">
        <ele>492.0082</ele>
        <time>2011-03-27T06:50:52Z</time>
      </trkpt>
      <trkpt lat="43.53916" lon="5.55323">
        <ele>493.0082</ele>
        <time>2011-03-27T06:50:53Z</time>
      </trkpt>
      <trkpt lat="43.53916" lon="5.55324">
        <ele>493.0082</ele>
        <time>2011-03-27T06:50:54Z</time>
      </trkpt>
      <trkpt lat="43.53915" lon="5.55325">
        <ele>493.0082</ele>
        <time>2011-03-27T06:50:55Z</time>
      </trkpt>
      <trkpt lat="43.53915" lon="5.55327">
        <ele>493.0082</ele>
        <time>2011-03-27T06:50:56Z</time>
      </trkpt>
      <trkpt lat="43.53913" lon="5.55332">
        <ele>495.0082</ele>
        <time>2011-03-27T06:51:01Z</time>
      </trkpt>
      <trkpt lat="43.53912" lon="5.55333">
        <ele>495.0082</ele>
        <time>2011-03-27T06:51:02Z</time>
      </trkpt>
      <trkpt lat="43.53911" lon="5.55335">
        <ele>495.0082</ele>
        <time>2011-03-27T06:51:03Z</time>
      </trkpt>
      <trkpt lat="43.5391" lon="5.55337">
        <ele>495.0082</ele>
        <time>2011-03-27T06:51:04Z</time>
      </trkpt>
      <trkpt lat="43.53909" lon="5.55339">
        <ele>495.0082</ele>
        <time>2011-03-27T06:51:06Z</time>
      </trkpt>
      <trkpt lat="43.53908" lon="5.5534">
        <ele>495.0082</ele>
        <time>2011-03-27T06:51:07Z</time>
      </trkpt>
      <trkpt lat="43.53907" lon="5.5534">
        <ele>495.0082</ele>
        <time>2011-03-27T06:51:08Z</time>
      </trkpt>
      <trkpt lat="43.53907" lon="5.55341">
        <ele>495.0082</ele>
        <time>2011-03-27T06:51:09Z</time>
      </trkpt>
      <trkpt lat="43.53904" lon="5.55344">
        <ele>495.0082</ele>
        <time>2011-03-27T06:51:13Z</time>
      </trkpt>
      <trkpt lat="43.53904" lon="5.55345">
        <ele>495.0082</ele>
        <time>2011-03-27T06:51:14Z</time>
      </trkpt>
      <trkpt lat="43.53899" lon="5.55353">
        <ele>496.0082</ele>
        <time>2011-03-27T06:51:24Z</time>
      </trkpt>
      <trkpt lat="43.53899" lon="5.55353">
        <ele>495.0082</ele>
        <time>2011-03-27T06:51:25Z</time>
      </trkpt>
      <trkpt lat="43.53898" lon="5.55354">
        <ele>495.0082</ele>
        <time>2011-03-27T06:51:26Z</time>
      </trkpt>
      <trkpt lat="43.53897" lon="5.55355">
        <ele>495.0082</ele>
        <time>2011-03-27T06:51:27Z</time>
      </trkpt>
      <trkpt lat="43.53895" lon="5.55356">
        <ele>495.0082</ele>
        <time>2011-03-27T06:51:28Z</time>
      </trkpt>
      <trkpt lat="43.53894" lon="5.55358">
        <ele>495.0082</ele>
        <time>2011-03-27T06:51:29Z</time>
      </trkpt>
      <trkpt lat="43.53894" lon="5.55358">
        <ele>495.0082</ele>
        <time>2011-03-27T06:51:30Z</time>
      </trkpt>
      <trkpt lat="43.53893" lon="5.55361">
        <ele>495.0082</ele>
        <time>2011-03-27T06:51:31Z</time>
      </trkpt>
      <trkpt lat="43.53892" lon="5.55362">
        <ele>495.0082</ele>
        <time>2011-03-27T06:51:32Z</time>
      </trkpt>
      <trkpt lat="43.53892" lon="5.55362">
        <ele>495.0082</ele>
        <time>2011-03-27T06:51:33Z</time>
      </trkpt>
      <trkpt lat="43.53891" lon="5.55365">
        <ele>495.0082</ele>
        <time>2011-03-27T06:51:34Z</time>
      </trkpt>
      <trkpt lat="43.53891" lon="5.55367">
        <ele>495.0082</ele>
        <time>2011-03-27T06:51:35Z</time>
      </trkpt>
      <trkpt lat="43.5389" lon="5.55369">
        <ele>496.0082</ele>
        <time>2011-03-27T06:51:36Z</time>
      </trkpt>
      <trkpt lat="43.53889" lon="5.5537">
        <ele>496.0082</ele>
        <time>2011-03-27T06:51:37Z</time>
      </trkpt>
      <trkpt lat="43.53888" lon="5.55372">
        <ele>496.0082</ele>
        <time>2011-03-27T06:51:38Z</time>
      </trkpt>
      <trkpt lat="43.53887" lon="5.55373">
        <ele>496.0082</ele>
        <time>2011-03-27T06:51:39Z</time>
      </trkpt>
      <trkpt lat="43.53886" lon="5.55374">
        <ele>496.0082</ele>
        <time>2011-03-27T06:51:40Z</time>
      </trkpt>
      <trkpt lat="43.53885" lon="5.55375">
        <ele>497.0082</ele>
        <time>2011-03-27T06:51:41Z</time>
      </trkpt>
      <trkpt lat="43.53884" lon="5.55376">
        <ele>497.0082</ele>
        <time>2011-03-27T06:51:43Z</time>
      </trkpt>
      <trkpt lat="43.53883" lon="5.55376">
        <ele>497.0082</ele>
        <time>2011-03-27T06:51:44Z</time>
      </trkpt>
      <trkpt lat="43.53882" lon="5.55377">
        <ele>497.0082</ele>
        <time>2011-03-27T06:51:45Z</time>
      </trkpt>
      <trkpt lat="43.53882" lon="5.55377">
        <ele>497.0082</ele>
        <time>2011-03-27T06:51:46Z</time>
      </trkpt>
      <trkpt lat="43.53877" lon="5.55387">
        <ele>500.0082</ele>
        <time>2011-03-27T06:52:03Z</time>
      </trkpt>
      <trkpt lat="43.53876" lon="5.55387">
        <ele>500.0082</ele>
        <time>2011-03-27T06:52:04Z</time>
      </trkpt>
      <trkpt lat="43.53874" lon="5.55392">
        <ele>501.0082</ele>
        <time>2011-03-27T06:52:10Z</time>
      </trkpt>
      <trkpt lat="43.53874" lon="5.55393">
        <ele>501.0082</ele>
        <time>2011-03-27T06:52:11Z</time>
      </trkpt>
      <trkpt lat="43.53868" lon="5.55403">
        <ele>504.0082</ele>
        <time>2011-03-27T06:52:26Z</time>
      </trkpt>
      <trkpt lat="43.53868" lon="5.55403">
        <ele>504.0082</ele>
        <time>2011-03-27T06:52:27Z</time>
      </trkpt>
      <trkpt lat="43.53867" lon="5.55404">
        <ele>505.0082</ele>
        <time>2011-03-27T06:52:28Z</time>
      </trkpt>
      <trkpt lat="43.53866" lon="5.55405">
        <ele>505.0082</ele>
        <time>2011-03-27T06:52:29Z</time>
      </trkpt>
      <trkpt lat="43.53861" lon="5.55415">
        <ele>506.0083</ele>
        <time>2011-03-27T06:52:38Z</time>
      </trkpt>
      <trkpt lat="43.53861" lon="5.55416">
        <ele>506.0083</ele>
        <time>2011-03-27T06:52:39Z</time>
      </trkpt>
      <trkpt lat="43.53859" lon="5.5542">
        <ele>507.0083</ele>
        <time>2011-03-27T06:52:44Z</time>
      </trkpt>
      <trkpt lat="43.53859" lon="5.55421">
        <ele>508.0083</ele>
        <time>2011-03-27T06:52:45Z</time>
      </trkpt>
      <trkpt lat="43.53857" lon="5.55429">
        <ele>509.0083</ele>
        <time>2011-03-27T06:52:53Z</time>
      </trkpt>
      <trkpt lat="43.53856" lon="5.5543">
        <ele>510.0083</ele>
        <time>2011-03-27T06:52:54Z</time>
      </trkpt>
      <trkpt lat="43.53856" lon="5.5543">
        <ele>510.0083</ele>
        <time>2011-03-27T06:52:55Z</time>
      </trkpt>
      <trkpt lat="43.53856" lon="5.55432">
        <ele>510.0083</ele>
        <time>2011-03-27T06:52:56Z</time>
      </trkpt>
      <trkpt lat="43.53855" lon="5.55434">
        <ele>510.0083</ele>
        <time>2011-03-27T06:52:58Z</time>
      </trkpt>
      <trkpt lat="43.53855" lon="5.55436">
        <ele>510.0083</ele>
        <time>2011-03-27T06:52:59Z</time>
      </trkpt>
      <trkpt lat="43.53855" lon="5.55437">
        <ele>510.0083</ele>
        <time>2011-03-27T06:53:00Z</time>
      </trkpt>
      <trkpt lat="43.53855" lon="5.55438">
        <ele>510.0083</ele>
        <time>2011-03-27T06:53:01Z</time>
      </trkpt>
      <trkpt lat="43.53854" lon="5.5544">
        <ele>511.0083</ele>
        <time>2011-03-27T06:53:03Z</time>
      </trkpt>
      <trkpt lat="43.53854" lon="5.5544">
        <ele>511.0083</ele>
        <time>2011-03-27T06:53:04Z</time>
      </trkpt>
      <trkpt lat="43.53854" lon="5.55441">
        <ele>511.0083</ele>
        <time>2011-03-27T06:53:05Z</time>
      </trkpt>
      <trkpt lat="43.53854" lon="5.55441">
        <ele>512.0083</ele>
        <time>2011-03-27T06:53:06Z</time>
      </trkpt>
      <trkpt lat="43.53854" lon="5.55442">
        <ele>512.0083</ele>
        <time>2011-03-27T06:53:07Z</time>
      </trkpt>
      <trkpt lat="43.53853" lon="5.55443">
        <ele>512.0083</ele>
        <time>2011-03-27T06:53:08Z</time>
      </trkpt>
      <trkpt lat="43.53853" lon="5.55445">
        <ele>512.0083</ele>
        <time>2011-03-27T06:53:10Z</time>
      </trkpt>
      <trkpt lat="43.53853" lon="5.55446">
        <ele>512.0083</ele>
        <time>2011-03-27T06:53:11Z</time>
      </trkpt>
      <trkpt lat="43.53853" lon="5.55449">
        <ele>514.0083</ele>
        <time>2011-03-27T06:53:15Z</time>
      </trkpt>
      <trkpt lat="43.53853" lon="5.55449">
        <ele>514.0083</ele>
        <time>2011-03-27T06:53:16Z</time>
      </trkpt>
      <trkpt lat="43.53853" lon="5.55451">
        <ele>514.0083</ele>
        <time>2011-03-27T06:53:17Z</time>
      </trkpt>
      <trkpt lat="43.53853" lon="5.55452">
        <ele>515.0083</ele>
        <time>2011-03-27T06:53:18Z</time>
      </trkpt>
      <trkpt lat="43.53853" lon="5.55452">
        <ele>515.0083</ele>
        <time>2011-03-27T06:53:19Z</time>
      </trkpt>
      <trkpt lat="43.53853" lon="5.55454">
        <ele>515.0083</ele>
        <time>2011-03-27T06:53:20Z</time>
      </trkpt>
      <trkpt lat="43.53853" lon="5.55455">
        <ele>516.0083</ele>
        <time>2011-03-27T06:53:21Z</time>
      </trkpt>
      <trkpt lat="43.53853" lon="5.55457">
        <ele>516.0084</ele>
        <time>2011-03-27T06:53:22Z</time>
      </trkpt>
      <trkpt lat="43.53853" lon="5.55459">
        <ele>517.0084</ele>
        <time>2011-03-27T06:53:23Z</time>
      </trkpt>
      <trkpt lat="43.53853" lon="5.55461">
        <ele>519.0084</ele>
        <time>2011-03-27T06:53:25Z</time>
      </trkpt>
      <trkpt lat="43.53853" lon="5.55463">
        <ele>519.0084</ele>
        <time>2011-03-27T06:53:26Z</time>
      </trkpt>
      <trkpt lat="43.53853" lon="5.55465">
        <ele>520.0084</ele>
        <time>2011-03-27T06:53:28Z</time>
      </trkpt>
      <trkpt lat="43.53853" lon="5.55465">
        <ele>520.0084</ele>
        <time>2011-03-27T06:53:29Z</time>
      </trkpt>
      <trkpt lat="43.53854" lon="5.55466">
        <ele>520.0084</ele>
        <time>2011-03-27T06:53:30Z</time>
      </trkpt>
      <trkpt lat="43.53854" lon="5.55467">
        <ele>520.0084</ele>
        <time>2011-03-27T06:53:31Z</time>
      </trkpt>
      <trkpt lat="43.53854" lon="5.55468">
        <ele>520.0084</ele>
        <time>2011-03-27T06:53:32Z</time>
      </trkpt>
      <trkpt lat="43.53855" lon="5.55469">
        <ele>520.0084</ele>
        <time>2011-03-27T06:53:33Z</time>
      </trkpt>
      <trkpt lat="43.53857" lon="5.55481">
        <ele>525.0084</ele>
        <time>2011-03-27T06:53:51Z</time>
      </trkpt>
      <trkpt lat="43.53859" lon="5.55483">
        <ele>526.0084</ele>
        <time>2011-03-27T06:53:53Z</time>
      </trkpt>
      <trkpt lat="43.53859" lon="5.55484">
        <ele>526.0084</ele>
        <time>2011-03-27T06:53:54Z</time>
      </trkpt>
      <trkpt lat="43.5386" lon="5.55485">
        <ele>527.0084</ele>
        <time>2011-03-27T06:53:56Z</time>
      </trkpt>
      <trkpt lat="43.5386" lon="5.55485">
        <ele>527.0084</ele>
        <time>2011-03-27T06:53:57Z</time>
      </trkpt>
      <trkpt lat="43.53861" lon="5.55486">
        <ele>528.0084</ele>
        <time>2011-03-27T06:53:58Z</time>
      </trkpt>
      <trkpt lat="43.53861" lon="5.55487">
        <ele>528.0084</ele>
        <time>2011-03-27T06:53:59Z</time>
      </trkpt>
      <trkpt lat="43.53861" lon="5.55488">
        <ele>528.0084</ele>
        <time>2011-03-27T06:54:00Z</time>
      </trkpt>
      <trkpt lat="43.53861" lon="5.55489">
        <ele>528.0084</ele>
        <time>2011-03-27T06:54:01Z</time>
      </trkpt>
      <trkpt lat="43.53861" lon="5.55494">
        <ele>529.0084</ele>
        <time>2011-03-27T06:54:08Z</time>
      </trkpt>
      <trkpt lat="43.53861" lon="5.55495">
        <ele>529.0084</ele>
        <time>2011-03-27T06:54:09Z</time>
      </trkpt>
      <trkpt lat="43.5386" lon="5.555">
        <ele>530.0084</ele>
        <time>2011-03-27T06:54:14Z</time>
      </trkpt>
      <trkpt lat="43.5386" lon="5.55501">
        <ele>531.0085</ele>
        <time>2011-03-27T06:54:15Z</time>
      </trkpt>
      <trkpt lat="43.5386" lon="5.55505">
        <ele>531.0085</ele>
        <time>2011-03-27T06:54:18Z</time>
      </trkpt>
      <trkpt lat="43.5386" lon="5.55506">
        <ele>532.0085</ele>
        <time>2011-03-27T06:54:19Z</time>
      </trkpt>
      <trkpt lat="43.5386" lon="5.55508">
        <ele>531.0085</ele>
        <time>2011-03-27T06:54:20Z</time>
      </trkpt>
      <trkpt lat="43.5386" lon="5.55509">
        <ele>531.0085</ele>
        <time>2011-03-27T06:54:21Z</time>
      </trkpt>
      <trkpt lat="43.5386" lon="5.5551">
        <ele>531.0085</ele>
        <time>2011-03-27T06:54:22Z</time>
      </trkpt>
      <trkpt lat="43.5386" lon="5.55511">
        <ele>531.0085</ele>
        <time>2011-03-27T06:54:23Z</time>
      </trkpt>
      <trkpt lat="43.5386" lon="5.55512">
        <ele>531.0085</ele>
        <time>2011-03-27T06:54:24Z</time>
      </trkpt>
      <trkpt lat="43.53859" lon="5.55514">
        <ele>532.0085</ele>
        <time>2011-03-27T06:54:25Z</time>
      </trkpt>
      <trkpt lat="43.53859" lon="5.55516">
        <ele>532.0085</ele>
        <time>2011-03-27T06:54:27Z</time>
      </trkpt>
      <trkpt lat="43.53859" lon="5.55518">
        <ele>532.0085</ele>
        <time>2011-03-27T06:54:28Z</time>
      </trkpt>
      <trkpt lat="43.53859" lon="5.55519">
        <ele>532.0085</ele>
        <time>2011-03-27T06:54:29Z</time>
      </trkpt>
      <trkpt lat="43.53859" lon="5.5552">
        <ele>532.0085</ele>
        <time>2011-03-27T06:54:30Z</time>
      </trkpt>
      <trkpt lat="43.53859" lon="5.55521">
        <ele>532.0085</ele>
        <time>2011-03-27T06:54:31Z</time>
      </trkpt>
      <trkpt lat="43.53859" lon="5.5552">
        <ele>532.0085</ele>
        <time>2011-03-27T06:54:32Z</time>
      </trkpt>
      <trkpt lat="43.53859" lon="5.5552">
        <ele>533.0085</ele>
        <time>2011-03-27T06:54:35Z</time>
      </trkpt>
      <trkpt lat="43.53859" lon="5.5552">
        <ele>533.0085</ele>
        <time>2011-03-27T06:54:36Z</time>
      </trkpt>
      <trkpt lat="43.53859" lon="5.5552">
        <ele>533.0085</ele>
        <time>2011-03-27T06:54:37Z</time>
      </trkpt>
      <trkpt lat="43.53859" lon="5.5552">
        <ele>533.0085</ele>
        <time>2011-03-27T06:54:38Z</time>
      </trkpt>
      <trkpt lat="43.53859" lon="5.55521">
        <ele>533.0085</ele>
        <time>2011-03-27T06:54:39Z</time>
      </trkpt>
      <trkpt lat="43.53859" lon="5.55521">
        <ele>533.0085</ele>
        <time>2011-03-27T06:54:40Z</time>
      </trkpt>
      <trkpt lat="43.53859" lon="5.55522">
        <ele>535.0085</ele>
        <time>2011-03-27T06:54:46Z</time>
      </trkpt>
      <trkpt lat="43.5386" lon="5.55522">
        <ele>535.0085</ele>
        <time>2011-03-27T06:54:47Z</time>
      </trkpt>
      <trkpt lat="43.5386" lon="5.55522">
        <ele>536.0085</ele>
        <time>2011-03-27T06:54:48Z</time>
      </trkpt>
      <trkpt lat="43.53859" lon="5.55523">
        <ele>536.0085</ele>
        <time>2011-03-27T06:54:49Z</time>
      </trkpt>
      <trkpt lat="43.53859" lon="5.55523">
        <ele>537.0085</ele>
        <time>2011-03-27T06:54:50Z</time>
      </trkpt>
      <trkpt lat="43.53859" lon="5.55524">
        <ele>537.0085</ele>
        <time>2011-03-27T06:54:51Z</time>
      </trkpt>
      <trkpt lat="43.53859" lon="5.55524">
        <ele>538.0085</ele>
        <time>2011-03-27T06:54:52Z</time>
      </trkpt>
      <trkpt lat="43.53857" lon="5.55525">
        <ele>539.0085</ele>
        <time>2011-03-27T06:54:54Z</time>
      </trkpt>
      <trkpt lat="43.53857" lon="5.55526">
        <ele>539.0085</ele>
        <time>2011-03-27T06:54:55Z</time>
      </trkpt>
      <trkpt lat="43.53855" lon="5.55529">
        <ele>541.0085</ele>
        <time>2011-03-27T06:54:59Z</time>
      </trkpt>
      <trkpt lat="43.53854" lon="5.5553">
        <ele>542.0085</ele>
        <time>2011-03-27T06:55:00Z</time>
      </trkpt>
      <trkpt lat="43.53854" lon="5.55531">
        <ele>542.0085</ele>
        <time>2011-03-27T06:55:01Z</time>
      </trkpt>
      <trkpt lat="43.53854" lon="5.55531">
        <ele>541.0085</ele>
        <time>2011-03-27T06:55:02Z</time>
      </trkpt>
      <trkpt lat="43.53853" lon="5.55532">
        <ele>541.0085</ele>
        <time>2011-03-27T06:55:03Z</time>
      </trkpt>
      <trkpt lat="43.53853" lon="5.55533">
        <ele>541.0085</ele>
        <time>2011-03-27T06:55:04Z</time>
      </trkpt>
      <trkpt lat="43.53853" lon="5.55535">
        <ele>542.0085</ele>
        <time>2011-03-27T06:55:08Z</time>
      </trkpt>
      <trkpt lat="43.53852" lon="5.55535">
        <ele>542.0085</ele>
        <time>2011-03-27T06:55:09Z</time>
      </trkpt>
      <trkpt lat="43.53851" lon="5.55537">
        <ele>542.0085</ele>
        <time>2011-03-27T06:55:14Z</time>
      </trkpt>
      <trkpt lat="43.53851" lon="5.55538">
        <ele>542.0085</ele>
        <time>2011-03-27T06:55:15Z</time>
      </trkpt>
      <trkpt lat="43.53848" lon="5.55549">
        <ele>545.0085</ele>
        <time>2011-03-27T06:55:31Z</time>
      </trkpt>
      <trkpt lat="43.53848" lon="5.55549">
        <ele>545.0085</ele>
        <time>2011-03-27T06:55:32Z</time>
      </trkpt>
      <trkpt lat="43.53848" lon="5.55549">
        <ele>545.0085</ele>
        <time>2011-03-27T06:55:33Z</time>
      </trkpt>
      <trkpt lat="43.53847" lon="5.5555">
        <ele>545.0085</ele>
        <time>2011-03-27T06:55:34Z</time>
      </trkpt>
      <trkpt lat="43.53846" lon="5.55555">
        <ele>547.0085</ele>
        <time>2011-03-27T06:55:39Z</time>
      </trkpt>
      <trkpt lat="43.53845" lon="5.55557">
        <ele>548.0085</ele>
        <time>2011-03-27T06:55:40Z</time>
      </trkpt>
      <trkpt lat="43.53845" lon="5.55559">
        <ele>548.0085</ele>
        <time>2011-03-27T06:55:41Z</time>
      </trkpt>
      <trkpt lat="43.53845" lon="5.55561">
        <ele>549.0085</ele>
        <time>2011-03-27T06:55:42Z</time>
      </trkpt>
      <trkpt lat="43.53845" lon="5.55563">
        <ele>549.0085</ele>
        <time>2011-03-27T06:55:43Z</time>
      </trkpt>
      <trkpt lat="43.53844" lon="5.55565">
        <ele>550.0085</ele>
        <time>2011-03-27T06:55:44Z</time>
      </trkpt>
      <trkpt lat="43.53843" lon="5.5557">
        <ele>551.0085</ele>
        <time>2011-03-27T06:55:48Z</time>
      </trkpt>
      <trkpt lat="43.53843" lon="5.55571">
        <ele>551.0085</ele>
        <time>2011-03-27T06:55:49Z</time>
      </trkpt>
      <trkpt lat="43.53841" lon="5.55577">
        <ele>552.0086</ele>
        <time>2011-03-27T06:55:55Z</time>
      </trkpt>
      <trkpt lat="43.53841" lon="5.55578">
        <ele>553.0086</ele>
        <time>2011-03-27T06:55:56Z</time>
      </trkpt>
      <trkpt lat="43.53841" lon="5.55581">
        <ele>553.0086</ele>
        <time>2011-03-27T06:55:58Z</time>
      </trkpt>
      <trkpt lat="43.5384" lon="5.55582">
        <ele>554.0086</ele>
        <time>2011-03-27T06:55:59Z</time>
      </trkpt>
      <trkpt lat="43.5384" lon="5.55585">
        <ele>554.0086</ele>
        <time>2011-03-27T06:56:03Z</time>
      </trkpt>
      <trkpt lat="43.5384" lon="5.55586">
        <ele>554.0086</ele>
        <time>2011-03-27T06:56:04Z</time>
      </trkpt>
      <trkpt lat="43.5384" lon="5.55588">
        <ele>554.0086</ele>
        <time>2011-03-27T06:56:05Z</time>
      </trkpt>
      <trkpt lat="43.5384" lon="5.5559">
        <ele>555.0086</ele>
        <time>2011-03-27T06:56:06Z</time>
      </trkpt>
      <trkpt lat="43.5384" lon="5.55592">
        <ele>555.0086</ele>
        <time>2011-03-27T06:56:07Z</time>
      </trkpt>
      <trkpt lat="43.5384" lon="5.55593">
        <ele>555.0086</ele>
        <time>2011-03-27T06:56:08Z</time>
      </trkpt>
      <trkpt lat="43.5384" lon="5.55594">
        <ele>555.0086</ele>
        <time>2011-03-27T06:56:09Z</time>
      </trkpt>
      <trkpt lat="43.5384" lon="5.55597">
        <ele>555.0086</ele>
        <time>2011-03-27T06:56:10Z</time>
      </trkpt>
      <trkpt lat="43.5384" lon="5.55602">
        <ele>556.0087</ele>
        <time>2011-03-27T06:56:12Z</time>
      </trkpt>
      <trkpt lat="43.53839" lon="5.55604">
        <ele>556.0087</ele>
        <time>2011-03-27T06:56:13Z</time>
      </trkpt>
      <trkpt lat="43.53839" lon="5.55606">
        <ele>556.0087</ele>
        <time>2011-03-27T06:56:14Z</time>
      </trkpt>
      <trkpt lat="43.53839" lon="5.55607">
        <ele>557.0087</ele>
        <time>2011-03-27T06:56:15Z</time>
      </trkpt>
      <trkpt lat="43.53838" lon="5.55616">
        <ele>558.0087</ele>
        <time>2011-03-27T06:56:22Z</time>
      </trkpt>
      <trkpt lat="43.53838" lon="5.55617">
        <ele>558.0087</ele>
        <time>2011-03-27T06:56:23Z</time>
      </trkpt>
      <trkpt lat="43.53838" lon="5.55618">
        <ele>558.0087</ele>
        <time>2011-03-27T06:56:24Z</time>
      </trkpt>
      <trkpt lat="43.53838" lon="5.5562">
        <ele>559.0087</ele>
        <time>2011-03-27T06:56:25Z</time>
      </trkpt>
      <trkpt lat="43.53838" lon="5.55622">
        <ele>559.0087</ele>
        <time>2011-03-27T06:56:27Z</time>
      </trkpt>
      <trkpt lat="43.53838" lon="5.55622">
        <ele>559.0087</ele>
        <time>2011-03-27T06:56:28Z</time>
      </trkpt>
      <trkpt lat="43.53837" lon="5.55623">
        <ele>559.0087</ele>
        <time>2011-03-27T06:56:29Z</time>
      </trkpt>
      <trkpt lat="43.53836" lon="5.55644">
        <ele>562.0087</ele>
        <time>2011-03-27T06:56:46Z</time>
      </trkpt>
      <trkpt lat="43.53836" lon="5.55655">
        <ele>565.0087</ele>
        <time>2011-03-27T06:56:56Z</time>
      </trkpt>
      <trkpt lat="43.53836" lon="5.55655">
        <ele>565.0087</ele>
        <time>2011-03-27T06:56:57Z</time>
      </trkpt>
      <trkpt lat="43.53836" lon="5.55657">
        <ele>565.0087</ele>
        <time>2011-03-27T06:56:58Z</time>
      </trkpt>
      <trkpt lat="43.53836" lon="5.55657">
        <ele>565.0087</ele>
        <time>2011-03-27T06:56:59Z</time>
      </trkpt>
      <trkpt lat="43.53836" lon="5.55659">
        <ele>566.0087</ele>
        <time>2011-03-27T06:57:00Z</time>
      </trkpt>
      <trkpt lat="43.53832" lon="5.5567">
        <ele>570.0088</ele>
        <time>2011-03-27T06:57:13Z</time>
      </trkpt>
      <trkpt lat="43.53831" lon="5.55674">
        <ele>572.0088</ele>
        <time>2011-03-27T06:57:16Z</time>
      </trkpt>
      <trkpt lat="43.5383" lon="5.55676">
        <ele>572.0088</ele>
        <time>2011-03-27T06:57:17Z</time>
      </trkpt>
      <trkpt lat="43.5383" lon="5.55677">
        <ele>572.0088</ele>
        <time>2011-03-27T06:57:18Z</time>
      </trkpt>
      <trkpt lat="43.5383" lon="5.55679">
        <ele>572.0088</ele>
        <time>2011-03-27T06:57:19Z</time>
      </trkpt>
      <trkpt lat="43.5383" lon="5.55681">
        <ele>571.0088</ele>
        <time>2011-03-27T06:57:20Z</time>
      </trkpt>
      <trkpt lat="43.53829" lon="5.55682">
        <ele>571.0088</ele>
        <time>2011-03-27T06:57:21Z</time>
      </trkpt>
      <trkpt lat="43.53829" lon="5.55684">
        <ele>571.0088</ele>
        <time>2011-03-27T06:57:22Z</time>
      </trkpt>
      <trkpt lat="43.5383" lon="5.55689">
        <ele>573.0088</ele>
        <time>2011-03-27T06:57:29Z</time>
      </trkpt>
      <trkpt lat="43.5383" lon="5.5569">
        <ele>573.0088</ele>
        <time>2011-03-27T06:57:30Z</time>
      </trkpt>
      <trkpt lat="43.5383" lon="5.55696">
        <ele>575.0089</ele>
        <time>2011-03-27T06:57:38Z</time>
      </trkpt>
      <trkpt lat="43.5383" lon="5.55698">
        <ele>575.0089</ele>
        <time>2011-03-27T06:57:41Z</time>
      </trkpt>
      <trkpt lat="43.5383" lon="5.55699">
        <ele>576.0089</ele>
        <time>2011-03-27T06:57:42Z</time>
      </trkpt>
      <trkpt lat="43.5383" lon="5.55706">
        <ele>578.0089</ele>
        <time>2011-03-27T06:57:49Z</time>
      </trkpt>
      <trkpt lat="43.5383" lon="5.55707">
        <ele>578.0089</ele>
        <time>2011-03-27T06:57:50Z</time>
      </trkpt>
      <trkpt lat="43.53831" lon="5.55708">
        <ele>578.0089</ele>
        <time>2011-03-27T06:57:51Z</time>
      </trkpt>
      <trkpt lat="43.53831" lon="5.55711">
        <ele>579.0089</ele>
        <time>2011-03-27T06:57:52Z</time>
      </trkpt>
      <trkpt lat="43.53834" lon="5.5572">
        <ele>580.0089</ele>
        <time>2011-03-27T06:57:55Z</time>
      </trkpt>
      <trkpt lat="43.53836" lon="5.55725">
        <ele>581.0089</ele>
        <time>2011-03-27T06:57:58Z</time>
      </trkpt>
      <trkpt lat="43.53836" lon="5.55727">
        <ele>582.0089</ele>
        <time>2011-03-27T06:57:59Z</time>
      </trkpt>
      <trkpt lat="43.53837" lon="5.55728">
        <ele>582.0089</ele>
        <time>2011-03-27T06:58:00Z</time>
      </trkpt>
      <trkpt lat="43.5384" lon="5.55744">
        <ele>584.009</ele>
        <time>2011-03-27T06:58:09Z</time>
      </trkpt>
      <trkpt lat="43.5384" lon="5.55746">
        <ele>584.009</ele>
        <time>2011-03-27T06:58:10Z</time>
      </trkpt>
      <trkpt lat="43.5384" lon="5.55752">
        <ele>585.009</ele>
        <time>2011-03-27T06:58:12Z</time>
      </trkpt>
      <trkpt lat="43.5384" lon="5.55754">
        <ele>586.009</ele>
        <time>2011-03-27T06:58:13Z</time>
      </trkpt>
      <trkpt lat="43.5384" lon="5.55757">
        <ele>586.009</ele>
        <time>2011-03-27T06:58:14Z</time>
      </trkpt>
      <trkpt lat="43.53841" lon="5.55761">
        <ele>587.009</ele>
        <time>2011-03-27T06:58:16Z</time>
      </trkpt>
      <trkpt lat="43.53843" lon="5.55763">
        <ele>587.009</ele>
        <time>2011-03-27T06:58:17Z</time>
      </trkpt>
      <trkpt lat="43.53844" lon="5.55766">
        <ele>587.009</ele>
        <time>2011-03-27T06:58:19Z</time>
      </trkpt>
      <trkpt lat="43.53844" lon="5.55768">
        <ele>587.009</ele>
        <time>2011-03-27T06:58:20Z</time>
      </trkpt>
      <trkpt lat="43.53845" lon="5.5577">
        <ele>587.009</ele>
        <time>2011-03-27T06:58:21Z</time>
      </trkpt>
      <trkpt lat="43.53845" lon="5.55772">
        <ele>587.009</ele>
        <time>2011-03-27T06:58:22Z</time>
      </trkpt>
      <trkpt lat="43.53846" lon="5.55779">
        <ele>588.009</ele>
        <time>2011-03-27T06:58:25Z</time>
      </trkpt>
      <trkpt lat="43.53848" lon="5.55787">
        <ele>589.009</ele>
        <time>2011-03-27T06:58:28Z</time>
      </trkpt>
      <trkpt lat="43.53848" lon="5.55789">
        <ele>589.0091</ele>
        <time>2011-03-27T06:58:29Z</time>
      </trkpt>
      <trkpt lat="43.53849" lon="5.55796">
        <ele>590.0091</ele>
        <time>2011-03-27T06:58:32Z</time>
      </trkpt>
      <trkpt lat="43.53849" lon="5.55798">
        <ele>590.0091</ele>
        <time>2011-03-27T06:58:33Z</time>
      </trkpt>
      <trkpt lat="43.53849" lon="5.55801">
        <ele>590.0091</ele>
        <time>2011-03-27T06:58:34Z</time>
      </trkpt>
      <trkpt lat="43.5385" lon="5.55803">
        <ele>589.0091</ele>
        <time>2011-03-27T06:58:35Z</time>
      </trkpt>
      <trkpt lat="43.5385" lon="5.55806">
        <ele>590.0091</ele>
        <time>2011-03-27T06:58:36Z</time>
      </trkpt>
      <trkpt lat="43.5385" lon="5.55808">
        <ele>592.0091</ele>
        <time>2011-03-27T06:58:38Z</time>
      </trkpt>
      <trkpt lat="43.5385" lon="5.55809">
        <ele>592.0091</ele>
        <time>2011-03-27T06:58:39Z</time>
      </trkpt>
      <trkpt lat="43.53851" lon="5.55813">
        <ele>594.0092</ele>
        <time>2011-03-27T06:58:43Z</time>
      </trkpt>
      <trkpt lat="43.53851" lon="5.55814">
        <ele>594.0092</ele>
        <time>2011-03-27T06:58:44Z</time>
      </trkpt>
      <trkpt lat="43.53851" lon="5.55815">
        <ele>594.0092</ele>
        <time>2011-03-27T06:58:45Z</time>
      </trkpt>
      <trkpt lat="43.53851" lon="5.55817">
        <ele>594.0092</ele>
        <time>2011-03-27T06:58:46Z</time>
      </trkpt>
      <trkpt lat="43.53851" lon="5.55818">
        <ele>594.0092</ele>
        <time>2011-03-27T06:58:47Z</time>
      </trkpt>
      <trkpt lat="43.53851" lon="5.5582">
        <ele>594.0092</ele>
        <time>2011-03-27T06:58:48Z</time>
      </trkpt>
      <trkpt lat="43.5385" lon="5.55828">
        <ele>595.0092</ele>
        <time>2011-03-27T06:58:53Z</time>
      </trkpt>
      <trkpt lat="43.53849" lon="5.55835">
        <ele>596.0092</ele>
        <time>2011-03-27T06:59:00Z</time>
      </trkpt>
      <trkpt lat="43.53849" lon="5.55844">
        <ele>598.0092</ele>
        <time>2011-03-27T06:59:06Z</time>
      </trkpt>
      <trkpt lat="43.53849" lon="5.55846">
        <ele>599.0092</ele>
        <time>2011-03-27T06:59:07Z</time>
      </trkpt>
      <trkpt lat="43.53849" lon="5.55848">
        <ele>599.0092</ele>
        <time>2011-03-27T06:59:08Z</time>
      </trkpt>
      <trkpt lat="43.53851" lon="5.55861">
        <ele>600.0092</ele>
        <time>2011-03-27T06:59:14Z</time>
      </trkpt>
      <trkpt lat="43.53851" lon="5.55863">
        <ele>600.0092</ele>
        <time>2011-03-27T06:59:15Z</time>
      </trkpt>
      <trkpt lat="43.53851" lon="5.55866">
        <ele>601.0093</ele>
        <time>2011-03-27T06:59:17Z</time>
      </trkpt>
      <trkpt lat="43.53852" lon="5.55869">
        <ele>601.0093</ele>
        <time>2011-03-27T06:59:18Z</time>
      </trkpt>
      <trkpt lat="43.53853" lon="5.55875">
        <ele>601.0093</ele>
        <time>2011-03-27T06:59:21Z</time>
      </trkpt>
      <trkpt lat="43.53855" lon="5.55884">
        <ele>601.0093</ele>
        <time>2011-03-27T06:59:27Z</time>
      </trkpt>
      <trkpt lat="43.53856" lon="5.55886">
        <ele>601.0093</ele>
        <time>2011-03-27T06:59:28Z</time>
      </trkpt>
      <trkpt lat="43.53856" lon="5.55891">
        <ele>601.0093</ele>
        <time>2011-03-27T06:59:32Z</time>
      </trkpt>
      <trkpt lat="43.53856" lon="5.55892">
        <ele>602.0093</ele>
        <time>2011-03-27T06:59:33Z</time>
      </trkpt>
      <trkpt lat="43.53856" lon="5.55893">
        <ele>602.0093</ele>
        <time>2011-03-27T06:59:34Z</time>
      </trkpt>
      <trkpt lat="43.53857" lon="5.55895">
        <ele>602.0093</ele>
        <time>2011-03-27T06:59:35Z</time>
      </trkpt>
      <trkpt lat="43.53858" lon="5.55901">
        <ele>603.0093</ele>
        <time>2011-03-27T06:59:39Z</time>
      </trkpt>
      <trkpt lat="43.53858" lon="5.55902">
        <ele>603.0093</ele>
        <time>2011-03-27T06:59:40Z</time>
      </trkpt>
      <trkpt lat="43.5386" lon="5.55908">
        <ele>603.0093</ele>
        <time>2011-03-27T06:59:43Z</time>
      </trkpt>
      <trkpt lat="43.53861" lon="5.55909">
        <ele>603.0094</ele>
        <time>2011-03-27T06:59:44Z</time>
      </trkpt>
      <trkpt lat="43.53862" lon="5.55915">
        <ele>602.0094</ele>
        <time>2011-03-27T06:59:48Z</time>
      </trkpt>
      <trkpt lat="43.53863" lon="5.55916">
        <ele>602.0094</ele>
        <time>2011-03-27T06:59:49Z</time>
      </trkpt>
      <trkpt lat="43.53865" lon="5.5592">
        <ele>602.0094</ele>
        <time>2011-03-27T06:59:53Z</time>
      </trkpt>
      <trkpt lat="43.53865" lon="5.55921">
        <ele>602.0094</ele>
        <time>2011-03-27T06:59:54Z</time>
      </trkpt>
      <trkpt lat="43.53866" lon="5.55923">
        <ele>602.0094</ele>
        <time>2011-03-27T06:59:56Z</time>
      </trkpt>
      <trkpt lat="43.53866" lon="5.55924">
        <ele>602.0094</ele>
        <time>2011-03-27T06:59:57Z</time>
      </trkpt>
      <trkpt lat="43.53867" lon="5.55929">
        <ele>603.0094</ele>
        <time>2011-03-27T07:00:00Z</time>
      </trkpt>
      <trkpt lat="43.53868" lon="5.55931">
        <ele>603.0095</ele>
        <time>2011-03-27T07:00:01Z</time>
      </trkpt>
      <trkpt lat="43.53868" lon="5.55932">
        <ele>603.0095</ele>
        <time>2011-03-27T07:00:02Z</time>
      </trkpt>
      <trkpt lat="43.53869" lon="5.55934">
        <ele>603.0095</ele>
        <time>2011-03-27T07:00:03Z</time>
      </trkpt>
      <trkpt lat="43.5387" lon="5.55939">
        <ele>604.0095</ele>
        <time>2011-03-27T07:00:07Z</time>
      </trkpt>
      <trkpt lat="43.5387" lon="5.5594">
        <ele>604.0095</ele>
        <time>2011-03-27T07:00:08Z</time>
      </trkpt>
      <trkpt lat="43.53871" lon="5.55945">
        <ele>605.0095</ele>
        <time>2011-03-27T07:00:11Z</time>
      </trkpt>
      <trkpt lat="43.53871" lon="5.55946">
        <ele>605.0095</ele>
        <time>2011-03-27T07:00:12Z</time>
      </trkpt>
      <trkpt lat="43.53871" lon="5.55947">
        <ele>605.0095</ele>
        <time>2011-03-27T07:00:13Z</time>
      </trkpt>
      <trkpt lat="43.53871" lon="5.55949">
        <ele>605.0095</ele>
        <time>2011-03-27T07:00:14Z</time>
      </trkpt>
      <trkpt lat="43.53871" lon="5.55951">
        <ele>606.0095</ele>
        <time>2011-03-27T07:00:15Z</time>
      </trkpt>
      <trkpt lat="43.53871" lon="5.55953">
        <ele>606.0095</ele>
        <time>2011-03-27T07:00:16Z</time>
      </trkpt>
      <trkpt lat="43.53872" lon="5.55959">
        <ele>606.0095</ele>
        <time>2011-03-27T07:00:19Z</time>
      </trkpt>
      <trkpt lat="43.53872" lon="5.55964">
        <ele>606.0095</ele>
        <time>2011-03-27T07:00:23Z</time>
      </trkpt>
      <trkpt lat="43.53872" lon="5.55965">
        <ele>607.0095</ele>
        <time>2011-03-27T07:00:24Z</time>
      </trkpt>
      <trkpt lat="43.53872" lon="5.55967">
        <ele>607.0095</ele>
        <time>2011-03-27T07:00:25Z</time>
      </trkpt>
      <trkpt lat="43.53872" lon="5.55968">
        <ele>607.0095</ele>
        <time>2011-03-27T07:00:26Z</time>
      </trkpt>
      <trkpt lat="43.53872" lon="5.5597">
        <ele>608.0095</ele>
        <time>2011-03-27T07:00:27Z</time>
      </trkpt>
      <trkpt lat="43.53872" lon="5.55971">
        <ele>608.0095</ele>
        <time>2011-03-27T07:00:28Z</time>
      </trkpt>
      <trkpt lat="43.53872" lon="5.55972">
        <ele>608.0095</ele>
        <time>2011-03-27T07:00:29Z</time>
      </trkpt>
      <trkpt lat="43.53872" lon="5.55974">
        <ele>608.0095</ele>
        <time>2011-03-27T07:00:30Z</time>
      </trkpt>
      <trkpt lat="43.53872" lon="5.55977">
        <ele>608.0095</ele>
        <time>2011-03-27T07:00:32Z</time>
      </trkpt>
      <trkpt lat="43.53872" lon="5.5598">
        <ele>608.0095</ele>
        <time>2011-03-27T07:00:33Z</time>
      </trkpt>
      <trkpt lat="43.53872" lon="5.55992">
        <ele>608.0096</ele>
        <time>2011-03-27T07:00:39Z</time>
      </trkpt>
      <trkpt lat="43.53873" lon="5.55994">
        <ele>608.0096</ele>
        <time>2011-03-27T07:00:40Z</time>
      </trkpt>
      <trkpt lat="43.53873" lon="5.55999">
        <ele>608.0096</ele>
        <time>2011-03-27T07:00:42Z</time>
      </trkpt>
      <trkpt lat="43.53873" lon="5.56001">
        <ele>609.0096</ele>
        <time>2011-03-27T07:00:43Z</time>
      </trkpt>
      <trkpt lat="43.53874" lon="5.56008">
        <ele>609.0096</ele>
        <time>2011-03-27T07:00:47Z</time>
      </trkpt>
      <trkpt lat="43.53874" lon="5.56009">
        <ele>609.0096</ele>
        <time>2011-03-27T07:00:48Z</time>
      </trkpt>
      <trkpt lat="43.53875" lon="5.56011">
        <ele>609.0096</ele>
        <time>2011-03-27T07:00:49Z</time>
      </trkpt>
      <trkpt lat="43.53876" lon="5.56018">
        <ele>610.0096</ele>
        <time>2011-03-27T07:00:53Z</time>
      </trkpt>
      <trkpt lat="43.53876" lon="5.56019">
        <ele>610.0096</ele>
        <time>2011-03-27T07:00:54Z</time>
      </trkpt>
      <trkpt lat="43.53876" lon="5.56021">
        <ele>610.0096</ele>
        <time>2011-03-27T07:00:55Z</time>
      </trkpt>
      <trkpt lat="43.53877" lon="5.56026">
        <ele>610.0096</ele>
        <time>2011-03-27T07:01:00Z</time>
      </trkpt>
      <trkpt lat="43.53877" lon="5.56027">
        <ele>611.0096</ele>
        <time>2011-03-27T07:01:01Z</time>
      </trkpt>
      <trkpt lat="43.53877" lon="5.56027">
        <ele>610.0096</ele>
        <time>2011-03-27T07:01:02Z</time>
      </trkpt>
      <trkpt lat="43.53876" lon="5.56028">
        <ele>610.0096</ele>
        <time>2011-03-27T07:01:03Z</time>
      </trkpt>
      <trkpt lat="43.53876" lon="5.56029">
        <ele>610.0096</ele>
        <time>2011-03-27T07:01:05Z</time>
      </trkpt>
      <trkpt lat="43.53876" lon="5.56031">
        <ele>610.0096</ele>
        <time>2011-03-27T07:01:06Z</time>
      </trkpt>
      <trkpt lat="43.53876" lon="5.56032">
        <ele>611.0096</ele>
        <time>2011-03-27T07:01:07Z</time>
      </trkpt>
      <trkpt lat="43.53876" lon="5.56036">
        <ele>611.0097</ele>
        <time>2011-03-27T07:01:10Z</time>
      </trkpt>
      <trkpt lat="43.53876" lon="5.56038">
        <ele>611.0097</ele>
        <time>2011-03-27T07:01:11Z</time>
      </trkpt>
      <trkpt lat="43.53876" lon="5.56039">
        <ele>612.0097</ele>
        <time>2011-03-27T07:01:12Z</time>
      </trkpt>
      <trkpt lat="43.53876" lon="5.56041">
        <ele>612.0097</ele>
        <time>2011-03-27T07:01:13Z</time>
      </trkpt>
      <trkpt lat="43.53876" lon="5.56042">
        <ele>612.0097</ele>
        <time>2011-03-27T07:01:14Z</time>
      </trkpt>
      <trkpt lat="43.53876" lon="5.56044">
        <ele>612.0097</ele>
        <time>2011-03-27T07:01:15Z</time>
      </trkpt>
      <trkpt lat="43.53876" lon="5.56055">
        <ele>613.0097</ele>
        <time>2011-03-27T07:01:21Z</time>
      </trkpt>
      <trkpt lat="43.53877" lon="5.56057">
        <ele>613.0098</ele>
        <time>2011-03-27T07:01:22Z</time>
      </trkpt>
      <trkpt lat="43.53877" lon="5.56066">
        <ele>614.0098</ele>
        <time>2011-03-27T07:01:26Z</time>
      </trkpt>
      <trkpt lat="43.53877" lon="5.56069">
        <ele>614.0098</ele>
        <time>2011-03-27T07:01:27Z</time>
      </trkpt>
      <trkpt lat="43.53878" lon="5.56082">
        <ele>615.0098</ele>
        <time>2011-03-27T07:01:32Z</time>
      </trkpt>
      <trkpt lat="43.53878" lon="5.5609">
        <ele>615.0098</ele>
        <time>2011-03-27T07:01:35Z</time>
      </trkpt>
      <trkpt lat="43.53879" lon="5.56096">
        <ele>616.0098</ele>
        <time>2011-03-27T07:01:37Z</time>
      </trkpt>
      <trkpt lat="43.53879" lon="5.56098">
        <ele>616.0098</ele>
        <time>2011-03-27T07:01:38Z</time>
      </trkpt>
      <trkpt lat="43.53878" lon="5.56107">
        <ele>615.0098</ele>
        <time>2011-03-27T07:01:42Z</time>
      </trkpt>
      <trkpt lat="43.53878" lon="5.5611">
        <ele>615.0099</ele>
        <time>2011-03-27T07:01:43Z</time>
      </trkpt>
      <trkpt lat="43.53878" lon="5.56112">
        <ele>615.0099</ele>
        <time>2011-03-27T07:01:44Z</time>
      </trkpt>
      <trkpt lat="43.53878" lon="5.56114">
        <ele>615.0099</ele>
        <time>2011-03-27T07:01:45Z</time>
      </trkpt>
      <trkpt lat="43.53875" lon="5.5612">
        <ele>616.0099</ele>
        <time>2011-03-27T07:01:50Z</time>
      </trkpt>
      <trkpt lat="43.53874" lon="5.56121">
        <ele>615.0099</ele>
        <time>2011-03-27T07:01:51Z</time>
      </trkpt>
      <trkpt lat="43.53873" lon="5.56122">
        <ele>615.0099</ele>
        <time>2011-03-27T07:01:52Z</time>
      </trkpt>
      <trkpt lat="43.53872" lon="5.56124">
        <ele>614.0099</ele>
        <time>2011-03-27T07:01:54Z</time>
      </trkpt>
      <trkpt lat="43.5387" lon="5.56125">
        <ele>615.0099</ele>
        <time>2011-03-27T07:01:55Z</time>
      </trkpt>
      <trkpt lat="43.53869" lon="5.56126">
        <ele>615.0099</ele>
        <time>2011-03-27T07:01:56Z</time>
      </trkpt>
      <trkpt lat="43.53868" lon="5.56127">
        <ele>615.0099</ele>
        <time>2011-03-27T07:01:57Z</time>
      </trkpt>
      <trkpt lat="43.53861" lon="5.56136">
        <ele>614.0099</ele>
        <time>2011-03-27T07:02:03Z</time>
      </trkpt>
      <trkpt lat="43.5386" lon="5.56136">
        <ele>614.0099</ele>
        <time>2011-03-27T07:02:04Z</time>
      </trkpt>
      <trkpt lat="43.53859" lon="5.56137">
        <ele>614.0099</ele>
        <time>2011-03-27T07:02:05Z</time>
      </trkpt>
      <trkpt lat="43.53856" lon="5.56142">
        <ele>614.0099</ele>
        <time>2011-03-27T07:02:07Z</time>
      </trkpt>
      <trkpt lat="43.53854" lon="5.56145">
        <ele>614.0099</ele>
        <time>2011-03-27T07:02:08Z</time>
      </trkpt>
      <trkpt lat="43.53852" lon="5.56147">
        <ele>614.0099</ele>
        <time>2011-03-27T07:02:09Z</time>
      </trkpt>
      <trkpt lat="43.53851" lon="5.56148">
        <ele>614.0099</ele>
        <time>2011-03-27T07:02:10Z</time>
      </trkpt>
      <trkpt lat="43.53849" lon="5.5615">
        <ele>614.0099</ele>
        <time>2011-03-27T07:02:11Z</time>
      </trkpt>
      <trkpt lat="43.53848" lon="5.56153">
        <ele>614.0099</ele>
        <time>2011-03-27T07:02:12Z</time>
      </trkpt>
      <trkpt lat="43.53847" lon="5.56156">
        <ele>614.0099</ele>
        <time>2011-03-27T07:02:13Z</time>
      </trkpt>
      <trkpt lat="43.53842" lon="5.56167">
        <ele>614.0099</ele>
        <time>2011-03-27T07:02:18Z</time>
      </trkpt>
      <trkpt lat="43.53838" lon="5.56176">
        <ele>614.0099</ele>
        <time>2011-03-27T07:02:22Z</time>
      </trkpt>
      <trkpt lat="43.53835" lon="5.56187">
        <ele>614.0099</ele>
        <time>2011-03-27T07:02:26Z</time>
      </trkpt>
      <trkpt lat="43.53835" lon="5.5619">
        <ele>614.0099</ele>
        <time>2011-03-27T07:02:27Z</time>
      </trkpt>
      <trkpt lat="43.53834" lon="5.56193">
        <ele>614.0099</ele>
        <time>2011-03-27T07:02:28Z</time>
      </trkpt>
      <trkpt lat="43.53833" lon="5.56196">
        <ele>614.0099</ele>
        <time>2011-03-27T07:02:29Z</time>
      </trkpt>
      <trkpt lat="43.53832" lon="5.56199">
        <ele>614.0099</ele>
        <time>2011-03-27T07:02:30Z</time>
      </trkpt>
      <trkpt lat="43.53832" lon="5.56202">
        <ele>613.0099</ele>
        <time>2011-03-27T07:02:31Z</time>
      </trkpt>
      <trkpt lat="43.5383" lon="5.56208">
        <ele>613.0099</ele>
        <time>2011-03-27T07:02:33Z</time>
      </trkpt>
      <trkpt lat="43.5383" lon="5.5621">
        <ele>613.0099</ele>
        <time>2011-03-27T07:02:34Z</time>
      </trkpt>
      <trkpt lat="43.53829" lon="5.56213">
        <ele>613.01</ele>
        <time>2011-03-27T07:02:35Z</time>
      </trkpt>
      <trkpt lat="43.53829" lon="5.56216">
        <ele>613.01</ele>
        <time>2011-03-27T07:02:36Z</time>
      </trkpt>
      <trkpt lat="43.53828" lon="5.56222">
        <ele>613.01</ele>
        <time>2011-03-27T07:02:38Z</time>
      </trkpt>
      <trkpt lat="43.53827" lon="5.56225">
        <ele>613.01</ele>
        <time>2011-03-27T07:02:39Z</time>
      </trkpt>
      <trkpt lat="43.53827" lon="5.56228">
        <ele>613.01</ele>
        <time>2011-03-27T07:02:40Z</time>
      </trkpt>
      <trkpt lat="43.53827" lon="5.56231">
        <ele>613.01</ele>
        <time>2011-03-27T07:02:41Z</time>
      </trkpt>
      <trkpt lat="43.53827" lon="5.56237">
        <ele>613.01</ele>
        <time>2011-03-27T07:02:45Z</time>
      </trkpt>
      <trkpt lat="43.53827" lon="5.56239">
        <ele>612.01</ele>
        <time>2011-03-27T07:02:46Z</time>
      </trkpt>
      <trkpt lat="43.53828" lon="5.56246">
        <ele>613.0101</ele>
        <time>2011-03-27T07:02:50Z</time>
      </trkpt>
      <trkpt lat="43.53828" lon="5.56247">
        <ele>613.0101</ele>
        <time>2011-03-27T07:02:51Z</time>
      </trkpt>
      <trkpt lat="43.53828" lon="5.5625">
        <ele>613.0101</ele>
        <time>2011-03-27T07:02:52Z</time>
      </trkpt>
      <trkpt lat="43.53828" lon="5.56252">
        <ele>613.0101</ele>
        <time>2011-03-27T07:02:53Z</time>
      </trkpt>
      <trkpt lat="43.53828" lon="5.56262">
        <ele>612.0101</ele>
        <time>2011-03-27T07:02:58Z</time>
      </trkpt>
      <trkpt lat="43.53828" lon="5.56264">
        <ele>612.0101</ele>
        <time>2011-03-27T07:02:59Z</time>
      </trkpt>
      <trkpt lat="43.53828" lon="5.56267">
        <ele>612.0101</ele>
        <time>2011-03-27T07:03:00Z</time>
      </trkpt>
      <trkpt lat="43.5383" lon="5.56276">
        <ele>612.0101</ele>
        <time>2011-03-27T07:03:04Z</time>
      </trkpt>
      <trkpt lat="43.5383" lon="5.56278">
        <ele>612.0101</ele>
        <time>2011-03-27T07:03:05Z</time>
      </trkpt>
      <trkpt lat="43.5383" lon="5.5628">
        <ele>611.0101</ele>
        <time>2011-03-27T07:03:06Z</time>
      </trkpt>
      <trkpt lat="43.5383" lon="5.56282">
        <ele>611.0101</ele>
        <time>2011-03-27T07:03:07Z</time>
      </trkpt>
      <trkpt lat="43.53832" lon="5.56296">
        <ele>611.0101</ele>
        <time>2011-03-27T07:03:14Z</time>
      </trkpt>
      <trkpt lat="43.53831" lon="5.563">
        <ele>611.0102</ele>
        <time>2011-03-27T07:03:16Z</time>
      </trkpt>
      <trkpt lat="43.53831" lon="5.56301">
        <ele>612.0102</ele>
        <time>2011-03-27T07:03:17Z</time>
      </trkpt>
      <trkpt lat="43.5383" lon="5.56311">
        <ele>612.0102</ele>
        <time>2011-03-27T07:03:22Z</time>
      </trkpt>
      <trkpt lat="43.5383" lon="5.56317">
        <ele>611.0102</ele>
        <time>2011-03-27T07:03:26Z</time>
      </trkpt>
      <trkpt lat="43.5383" lon="5.56318">
        <ele>611.0102</ele>
        <time>2011-03-27T07:03:27Z</time>
      </trkpt>
      <trkpt lat="43.5383" lon="5.56321">
        <ele>611.0102</ele>
        <time>2011-03-27T07:03:28Z</time>
      </trkpt>
      <trkpt lat="43.5383" lon="5.56323">
        <ele>611.0103</ele>
        <time>2011-03-27T07:03:29Z</time>
      </trkpt>
      <trkpt lat="43.5383" lon="5.56338">
        <ele>612.0103</ele>
        <time>2011-03-27T07:03:35Z</time>
      </trkpt>
      <trkpt lat="43.5383" lon="5.56341">
        <ele>613.0103</ele>
        <time>2011-03-27T07:03:36Z</time>
      </trkpt>
      <trkpt lat="43.5383" lon="5.56347">
        <ele>614.0103</ele>
        <time>2011-03-27T07:03:39Z</time>
      </trkpt>
      <trkpt lat="43.5383" lon="5.56349">
        <ele>614.0103</ele>
        <time>2011-03-27T07:03:40Z</time>
      </trkpt>
      <trkpt lat="43.53831" lon="5.56358">
        <ele>613.0103</ele>
        <time>2011-03-27T07:03:43Z</time>
      </trkpt>
      <trkpt lat="43.53832" lon="5.56366">
        <ele>613.0103</ele>
        <time>2011-03-27T07:03:45Z</time>
      </trkpt>
      <trkpt lat="43.53832" lon="5.5637">
        <ele>613.0103</ele>
        <time>2011-03-27T07:03:46Z</time>
      </trkpt>
      <trkpt lat="43.53833" lon="5.56373">
        <ele>614.0103</ele>
        <time>2011-03-27T07:03:47Z</time>
      </trkpt>
      <trkpt lat="43.53833" lon="5.56376">
        <ele>614.0104</ele>
        <time>2011-03-27T07:03:48Z</time>
      </trkpt>
      <trkpt lat="43.53834" lon="5.5638">
        <ele>615.0104</ele>
        <time>2011-03-27T07:03:49Z</time>
      </trkpt>
      <trkpt lat="43.53837" lon="5.56393">
        <ele>614.0104</ele>
        <time>2011-03-27T07:03:55Z</time>
      </trkpt>
      <trkpt lat="43.53838" lon="5.56395">
        <ele>614.0104</ele>
        <time>2011-03-27T07:03:56Z</time>
      </trkpt>
      <trkpt lat="43.53838" lon="5.56396">
        <ele>614.0104</ele>
        <time>2011-03-27T07:03:57Z</time>
      </trkpt>
      <trkpt lat="43.53838" lon="5.56397">
        <ele>614.0104</ele>
        <time>2011-03-27T07:03:58Z</time>
      </trkpt>
      <trkpt lat="43.5384" lon="5.5641">
        <ele>616.0104</ele>
        <time>2011-03-27T07:04:03Z</time>
      </trkpt>
      <trkpt lat="43.53841" lon="5.56411">
        <ele>616.0104</ele>
        <time>2011-03-27T07:04:04Z</time>
      </trkpt>
      <trkpt lat="43.53841" lon="5.56414">
        <ele>616.0104</ele>
        <time>2011-03-27T07:04:05Z</time>
      </trkpt>
      <trkpt lat="43.53843" lon="5.56427">
        <ele>616.0105</ele>
        <time>2011-03-27T07:04:12Z</time>
      </trkpt>
      <trkpt lat="43.53844" lon="5.56436">
        <ele>616.0105</ele>
        <time>2011-03-27T07:04:18Z</time>
      </trkpt>
      <trkpt lat="43.53845" lon="5.56439">
        <ele>617.0105</ele>
        <time>2011-03-27T07:04:19Z</time>
      </trkpt>
      <trkpt lat="43.53845" lon="5.56441">
        <ele>617.0105</ele>
        <time>2011-03-27T07:04:20Z</time>
      </trkpt>
      <trkpt lat="43.53845" lon="5.56445">
        <ele>617.0105</ele>
        <time>2011-03-27T07:04:21Z</time>
      </trkpt>
      <trkpt lat="43.53845" lon="5.56449">
        <ele>618.0106</ele>
        <time>2011-03-27T07:04:22Z</time>
      </trkpt>
      <trkpt lat="43.53846" lon="5.56456">
        <ele>619.0106</ele>
        <time>2011-03-27T07:04:24Z</time>
      </trkpt>
      <trkpt lat="43.53848" lon="5.56463">
        <ele>620.0106</ele>
        <time>2011-03-27T07:04:26Z</time>
      </trkpt>
      <trkpt lat="43.53848" lon="5.56464">
        <ele>620.0106</ele>
        <time>2011-03-27T07:04:27Z</time>
      </trkpt>
      <trkpt lat="43.53848" lon="5.56467">
        <ele>620.0106</ele>
        <time>2011-03-27T07:04:28Z</time>
      </trkpt>
      <trkpt lat="43.5385" lon="5.56473">
        <ele>620.0106</ele>
        <time>2011-03-27T07:04:31Z</time>
      </trkpt>
      <trkpt lat="43.5385" lon="5.56474">
        <ele>620.0106</ele>
        <time>2011-03-27T07:04:32Z</time>
      </trkpt>
      <trkpt lat="43.5385" lon="5.56477">
        <ele>620.0106</ele>
        <time>2011-03-27T07:04:33Z</time>
      </trkpt>
      <trkpt lat="43.53851" lon="5.56479">
        <ele>620.0106</ele>
        <time>2011-03-27T07:04:35Z</time>
      </trkpt>
      <trkpt lat="43.53851" lon="5.5648">
        <ele>620.0106</ele>
        <time>2011-03-27T07:04:36Z</time>
      </trkpt>
      <trkpt lat="43.53851" lon="5.56481">
        <ele>620.0106</ele>
        <time>2011-03-27T07:04:37Z</time>
      </trkpt>
      <trkpt lat="43.5385" lon="5.56483">
        <ele>621.0106</ele>
        <time>2011-03-27T07:04:38Z</time>
      </trkpt>
      <trkpt lat="43.5385" lon="5.56485">
        <ele>620.0106</ele>
        <time>2011-03-27T07:04:42Z</time>
      </trkpt>
      <trkpt lat="43.5385" lon="5.56486">
        <ele>621.0106</ele>
        <time>2011-03-27T07:04:43Z</time>
      </trkpt>
      <trkpt lat="43.5385" lon="5.56488">
        <ele>622.0106</ele>
        <time>2011-03-27T07:04:45Z</time>
      </trkpt>
      <trkpt lat="43.5385" lon="5.56489">
        <ele>622.0106</ele>
        <time>2011-03-27T07:04:46Z</time>
      </trkpt>
      <trkpt lat="43.5385" lon="5.5649">
        <ele>622.0106</ele>
        <time>2011-03-27T07:04:47Z</time>
      </trkpt>
      <trkpt lat="43.5385" lon="5.56491">
        <ele>623.0106</ele>
        <time>2011-03-27T07:04:48Z</time>
      </trkpt>
      <trkpt lat="43.5385" lon="5.56492">
        <ele>623.0106</ele>
        <time>2011-03-27T07:04:49Z</time>
      </trkpt>
      <trkpt lat="43.5385" lon="5.56493">
        <ele>623.0106</ele>
        <time>2011-03-27T07:04:50Z</time>
      </trkpt>
      <trkpt lat="43.5385" lon="5.56494">
        <ele>623.0106</ele>
        <time>2011-03-27T07:04:51Z</time>
      </trkpt>
      <trkpt lat="43.5385" lon="5.56496">
        <ele>623.0106</ele>
        <time>2011-03-27T07:04:52Z</time>
      </trkpt>
      <trkpt lat="43.5385" lon="5.56497">
        <ele>623.0106</ele>
        <time>2011-03-27T07:04:53Z</time>
      </trkpt>
      <trkpt lat="43.53851" lon="5.56499">
        <ele>623.0107</ele>
        <time>2011-03-27T07:04:54Z</time>
      </trkpt>
      <trkpt lat="43.53851" lon="5.565">
        <ele>623.0107</ele>
        <time>2011-03-27T07:04:55Z</time>
      </trkpt>
      <trkpt lat="43.53851" lon="5.56507">
        <ele>624.0107</ele>
        <time>2011-03-27T07:04:58Z</time>
      </trkpt>
      <trkpt lat="43.53851" lon="5.56509">
        <ele>624.0107</ele>
        <time>2011-03-27T07:04:59Z</time>
      </trkpt>
      <trkpt lat="43.53851" lon="5.5651">
        <ele>624.0107</ele>
        <time>2011-03-27T07:05:00Z</time>
      </trkpt>
      <trkpt lat="43.53852" lon="5.56511">
        <ele>624.0107</ele>
        <time>2011-03-27T07:05:01Z</time>
      </trkpt>
      <trkpt lat="43.53852" lon="5.56513">
        <ele>624.0107</ele>
        <time>2011-03-27T07:05:02Z</time>
      </trkpt>
      <trkpt lat="43.53853" lon="5.56514">
        <ele>624.0107</ele>
        <time>2011-03-27T07:05:03Z</time>
      </trkpt>
      <trkpt lat="43.53853" lon="5.56516">
        <ele>624.0107</ele>
        <time>2011-03-27T07:05:04Z</time>
      </trkpt>
      <trkpt lat="43.53854" lon="5.56518">
        <ele>624.0107</ele>
        <time>2011-03-27T07:05:05Z</time>
      </trkpt>
      <trkpt lat="43.53858" lon="5.5653">
        <ele>628.0107</ele>
        <time>2011-03-27T07:05:17Z</time>
      </trkpt>
      <trkpt lat="43.5386" lon="5.56536">
        <ele>629.0107</ele>
        <time>2011-03-27T07:05:22Z</time>
      </trkpt>
      <trkpt lat="43.5386" lon="5.56537">
        <ele>629.0107</ele>
        <time>2011-03-27T07:05:23Z</time>
      </trkpt>
      <trkpt lat="43.5386" lon="5.56537">
        <ele>629.0107</ele>
        <time>2011-03-27T07:05:24Z</time>
      </trkpt>
      <trkpt lat="43.53861" lon="5.56539">
        <ele>629.0107</ele>
        <time>2011-03-27T07:05:25Z</time>
      </trkpt>
      <trkpt lat="43.53861" lon="5.56541">
        <ele>629.0108</ele>
        <time>2011-03-27T07:05:26Z</time>
      </trkpt>
      <trkpt lat="43.53862" lon="5.56543">
        <ele>629.0108</ele>
        <time>2011-03-27T07:05:27Z</time>
      </trkpt>
      <trkpt lat="43.53862" lon="5.56545">
        <ele>630.0108</ele>
        <time>2011-03-27T07:05:28Z</time>
      </trkpt>
      <trkpt lat="43.53862" lon="5.56548">
        <ele>630.0108</ele>
        <time>2011-03-27T07:05:30Z</time>
      </trkpt>
      <trkpt lat="43.53862" lon="5.5655">
        <ele>630.0108</ele>
        <time>2011-03-27T07:05:31Z</time>
      </trkpt>
      <trkpt lat="43.53864" lon="5.56558">
        <ele>629.0108</ele>
        <time>2011-03-27T07:05:37Z</time>
      </trkpt>
      <trkpt lat="43.53864" lon="5.56561">
        <ele>629.0108</ele>
        <time>2011-03-27T07:05:40Z</time>
      </trkpt>
      <trkpt lat="43.53864" lon="5.56563">
        <ele>629.0109</ele>
        <time>2011-03-27T07:05:41Z</time>
      </trkpt>
      <trkpt lat="43.53863" lon="5.56568">
        <ele>629.0109</ele>
        <time>2011-03-27T07:05:46Z</time>
      </trkpt>
      <trkpt lat="43.53863" lon="5.56568">
        <ele>630.0109</ele>
        <time>2011-03-27T07:05:47Z</time>
      </trkpt>
      <trkpt lat="43.53862" lon="5.5657">
        <ele>631.0109</ele>
        <time>2011-03-27T07:05:49Z</time>
      </trkpt>
      <trkpt lat="43.53862" lon="5.56571">
        <ele>631.0109</ele>
        <time>2011-03-27T07:05:50Z</time>
      </trkpt>
      <trkpt lat="43.53862" lon="5.56572">
        <ele>631.0109</ele>
        <time>2011-03-27T07:05:51Z</time>
      </trkpt>
      <trkpt lat="43.53861" lon="5.56573">
        <ele>631.0109</ele>
        <time>2011-03-27T07:05:52Z</time>
      </trkpt>
      <trkpt lat="43.53861" lon="5.56574">
        <ele>631.0109</ele>
        <time>2011-03-27T07:05:53Z</time>
      </trkpt>
      <trkpt lat="43.53861" lon="5.56576">
        <ele>632.0109</ele>
        <time>2011-03-27T07:05:54Z</time>
      </trkpt>
      <trkpt lat="43.53861" lon="5.56577">
        <ele>632.0109</ele>
        <time>2011-03-27T07:05:55Z</time>
      </trkpt>
      <trkpt lat="43.53861" lon="5.56578">
        <ele>632.0109</ele>
        <time>2011-03-27T07:05:56Z</time>
      </trkpt>
      <trkpt lat="43.53861" lon="5.5658">
        <ele>632.0109</ele>
        <time>2011-03-27T07:05:57Z</time>
      </trkpt>
      <trkpt lat="43.53861" lon="5.56581">
        <ele>632.0109</ele>
        <time>2011-03-27T07:05:58Z</time>
      </trkpt>
      <trkpt lat="43.53859" lon="5.56587">
        <ele>633.0109</ele>
        <time>2011-03-27T07:06:02Z</time>
      </trkpt>
      <trkpt lat="43.53859" lon="5.56588">
        <ele>634.0109</ele>
        <time>2011-03-27T07:06:03Z</time>
      </trkpt>
      <trkpt lat="43.53859" lon="5.56596">
        <ele>635.0109</ele>
        <time>2011-03-27T07:06:08Z</time>
      </trkpt>
      <trkpt lat="43.53859" lon="5.56598">
        <ele>636.0109</ele>
        <time>2011-03-27T07:06:09Z</time>
      </trkpt>
      <trkpt lat="43.53859" lon="5.56604">
        <ele>638.0109</ele>
        <time>2011-03-27T07:06:13Z</time>
      </trkpt>
      <trkpt lat="43.5386" lon="5.56608">
        <ele>638.0109</ele>
        <time>2011-03-27T07:06:15Z</time>
      </trkpt>
      <trkpt lat="43.5386" lon="5.5661">
        <ele>638.0109</ele>
        <time>2011-03-27T07:06:16Z</time>
      </trkpt>
      <trkpt lat="43.53861" lon="5.56613">
        <ele>639.0109</ele>
        <time>2011-03-27T07:06:17Z</time>
      </trkpt>
      <trkpt lat="43.53861" lon="5.56619">
        <ele>639.011</ele>
        <time>2011-03-27T07:06:20Z</time>
      </trkpt>
      <trkpt lat="43.5386" lon="5.56621">
        <ele>639.011</ele>
        <time>2011-03-27T07:06:21Z</time>
      </trkpt>
      <trkpt lat="43.5386" lon="5.56622">
        <ele>639.011</ele>
        <time>2011-03-27T07:06:22Z</time>
      </trkpt>
      <trkpt lat="43.53859" lon="5.56624">
        <ele>640.011</ele>
        <time>2011-03-27T07:06:23Z</time>
      </trkpt>
      <trkpt lat="43.53859" lon="5.56626">
        <ele>640.011</ele>
        <time>2011-03-27T07:06:24Z</time>
      </trkpt>
      <trkpt lat="43.53856" lon="5.56633">
        <ele>641.011</ele>
        <time>2011-03-27T07:06:32Z</time>
      </trkpt>
      <trkpt lat="43.53854" lon="5.56645">
        <ele>642.011</ele>
        <time>2011-03-27T07:06:39Z</time>
      </trkpt>
      <trkpt lat="43.53853" lon="5.56654">
        <ele>644.011</ele>
        <time>2011-03-27T07:06:43Z</time>
      </trkpt>
      <trkpt lat="43.53852" lon="5.56658">
        <ele>644.011</ele>
        <time>2011-03-27T07:06:44Z</time>
      </trkpt>
      <trkpt lat="43.53852" lon="5.56672">
        <ele>647.011</ele>
        <time>2011-03-27T07:06:51Z</time>
      </trkpt>
      <trkpt lat="43.53851" lon="5.56677">
        <ele>647.011</ele>
        <time>2011-03-27T07:06:55Z</time>
      </trkpt>
      <trkpt lat="43.53851" lon="5.56677">
        <ele>647.011</ele>
        <time>2011-03-27T07:06:56Z</time>
      </trkpt>
      <trkpt lat="43.53851" lon="5.5668">
        <ele>647.011</ele>
        <time>2011-03-27T07:06:57Z</time>
      </trkpt>
      <trkpt lat="43.53851" lon="5.56683">
        <ele>647.011</ele>
        <time>2011-03-27T07:06:58Z</time>
      </trkpt>
      <trkpt lat="43.5385" lon="5.56686">
        <ele>647.0111</ele>
        <time>2011-03-27T07:06:59Z</time>
      </trkpt>
      <trkpt lat="43.5385" lon="5.56689">
        <ele>647.0111</ele>
        <time>2011-03-27T07:07:00Z</time>
      </trkpt>
      <trkpt lat="43.53849" lon="5.56696">
        <ele>648.0111</ele>
        <time>2011-03-27T07:07:05Z</time>
      </trkpt>
      <trkpt lat="43.53848" lon="5.56698">
        <ele>649.0111</ele>
        <time>2011-03-27T07:07:06Z</time>
      </trkpt>
      <trkpt lat="43.53848" lon="5.567">
        <ele>649.0111</ele>
        <time>2011-03-27T07:07:07Z</time>
      </trkpt>
      <trkpt lat="43.53848" lon="5.56701">
        <ele>650.0111</ele>
        <time>2011-03-27T07:07:08Z</time>
      </trkpt>
      <trkpt lat="43.53847" lon="5.56703">
        <ele>649.0111</ele>
        <time>2011-03-27T07:07:09Z</time>
      </trkpt>
      <trkpt lat="43.53846" lon="5.56706">
        <ele>649.0111</ele>
        <time>2011-03-27T07:07:10Z</time>
      </trkpt>
      <trkpt lat="43.53846" lon="5.56707">
        <ele>650.0111</ele>
        <time>2011-03-27T07:07:11Z</time>
      </trkpt>
      <trkpt lat="43.53844" lon="5.56712">
        <ele>650.0111</ele>
        <time>2011-03-27T07:07:14Z</time>
      </trkpt>
      <trkpt lat="43.53843" lon="5.56714">
        <ele>651.0111</ele>
        <time>2011-03-27T07:07:15Z</time>
      </trkpt>
      <trkpt lat="43.53842" lon="5.56717">
        <ele>651.0111</ele>
        <time>2011-03-27T07:07:19Z</time>
      </trkpt>
      <trkpt lat="43.53841" lon="5.56718">
        <ele>651.0111</ele>
        <time>2011-03-27T07:07:20Z</time>
      </trkpt>
      <trkpt lat="43.53836" lon="5.5673">
        <ele>653.0112</ele>
        <time>2011-03-27T07:07:29Z</time>
      </trkpt>
      <trkpt lat="43.53835" lon="5.56736">
        <ele>650.0112</ele>
        <time>2011-03-27T07:07:39Z</time>
      </trkpt>
      <trkpt lat="43.53835" lon="5.56736">
        <ele>650.0112</ele>
        <time>2011-03-27T07:07:40Z</time>
      </trkpt>
      <trkpt lat="43.53835" lon="5.56736">
        <ele>650.0112</ele>
        <time>2011-03-27T07:07:41Z</time>
      </trkpt>
      <trkpt lat="43.53835" lon="5.56736">
        <ele>650.0112</ele>
        <time>2011-03-27T07:07:43Z</time>
      </trkpt>
      <trkpt lat="43.53835" lon="5.56736">
        <ele>650.0112</ele>
        <time>2011-03-27T07:07:44Z</time>
      </trkpt>
      <trkpt lat="43.53835" lon="5.56735">
        <ele>649.0112</ele>
        <time>2011-03-27T07:07:51Z</time>
      </trkpt>
      <trkpt lat="43.53835" lon="5.56735">
        <ele>649.0112</ele>
        <time>2011-03-27T07:07:52Z</time>
      </trkpt>
      <trkpt lat="43.53835" lon="5.56735">
        <ele>649.0112</ele>
        <time>2011-03-27T07:07:53Z</time>
      </trkpt>
      <trkpt lat="43.53834" lon="5.56734">
        <ele>649.0112</ele>
        <time>2011-03-27T07:07:54Z</time>
      </trkpt>
      <trkpt lat="43.53833" lon="5.56733">
        <ele>650.0112</ele>
        <time>2011-03-27T07:08:00Z</time>
      </trkpt>
      <trkpt lat="43.53833" lon="5.56733">
        <ele>650.0112</ele>
        <time>2011-03-27T07:08:01Z</time>
      </trkpt>
      <trkpt lat="43.53833" lon="5.56733">
        <ele>649.0112</ele>
        <time>2011-03-27T07:08:02Z</time>
      </trkpt>
      <trkpt lat="43.53833" lon="5.56733">
        <ele>649.0112</ele>
        <time>2011-03-27T07:08:03Z</time>
      </trkpt>
      <trkpt lat="43.53833" lon="5.56732">
        <ele>649.0111</ele>
        <time>2011-03-27T07:08:05Z</time>
      </trkpt>
      <trkpt lat="43.53833" lon="5.56732">
        <ele>649.0111</ele>
        <time>2011-03-27T07:08:06Z</time>
      </trkpt>
      <trkpt lat="43.53832" lon="5.56732">
        <ele>649.0112</ele>
        <time>2011-03-27T07:08:10Z</time>
      </trkpt>
      <trkpt lat="43.53832" lon="5.56732">
        <ele>649.0112</ele>
        <time>2011-03-27T07:08:11Z</time>
      </trkpt>
      <trkpt lat="43.53832" lon="5.56733">
        <ele>649.0111</ele>
        <time>2011-03-27T07:08:12Z</time>
      </trkpt>
      <trkpt lat="43.53832" lon="5.56734">
        <ele>649.0112</ele>
        <time>2011-03-27T07:08:13Z</time>
      </trkpt>
      <trkpt lat="43.53831" lon="5.56734">
        <ele>649.0112</ele>
        <time>2011-03-27T07:08:14Z</time>
      </trkpt>
      <trkpt lat="43.53831" lon="5.56736">
        <ele>649.0112</ele>
        <time>2011-03-27T07:08:15Z</time>
      </trkpt>
      <trkpt lat="43.5383" lon="5.56737">
        <ele>649.0112</ele>
        <time>2011-03-27T07:08:16Z</time>
      </trkpt>
      <trkpt lat="43.53831" lon="5.56738">
        <ele>649.0112</ele>
        <time>2011-03-27T07:08:17Z</time>
      </trkpt>
      <trkpt lat="43.53831" lon="5.5674">
        <ele>649.0112</ele>
        <time>2011-03-27T07:08:18Z</time>
      </trkpt>
      <trkpt lat="43.53831" lon="5.5674">
        <ele>649.0112</ele>
        <time>2011-03-27T07:08:19Z</time>
      </trkpt>
      <trkpt lat="43.53831" lon="5.56743">
        <ele>649.0112</ele>
        <time>2011-03-27T07:08:20Z</time>
      </trkpt>
      <trkpt lat="43.53831" lon="5.56745">
        <ele>648.0112</ele>
        <time>2011-03-27T07:08:21Z</time>
      </trkpt>
      <trkpt lat="43.5383" lon="5.5675">
        <ele>648.0112</ele>
        <time>2011-03-27T07:08:25Z</time>
      </trkpt>
      <trkpt lat="43.5383" lon="5.56752">
        <ele>648.0112</ele>
        <time>2011-03-27T07:08:26Z</time>
      </trkpt>
      <trkpt lat="43.53826" lon="5.56759">
        <ele>649.0112</ele>
        <time>2011-03-27T07:08:37Z</time>
      </trkpt>
      <trkpt lat="43.53826" lon="5.5676">
        <ele>649.0112</ele>
        <time>2011-03-27T07:08:38Z</time>
      </trkpt>
      <trkpt lat="43.53826" lon="5.5676">
        <ele>649.0112</ele>
        <time>2011-03-27T07:08:39Z</time>
      </trkpt>
      <trkpt lat="43.53826" lon="5.56761">
        <ele>649.0112</ele>
        <time>2011-03-27T07:08:40Z</time>
      </trkpt>
      <trkpt lat="43.53826" lon="5.56764">
        <ele>649.0112</ele>
        <time>2011-03-27T07:08:44Z</time>
      </trkpt>
      <trkpt lat="43.53826" lon="5.56764">
        <ele>649.0112</ele>
        <time>2011-03-27T07:08:45Z</time>
      </trkpt>
      <trkpt lat="43.53825" lon="5.56765">
        <ele>649.0112</ele>
        <time>2011-03-27T07:08:46Z</time>
      </trkpt>
      <trkpt lat="43.53825" lon="5.56765">
        <ele>649.0112</ele>
        <time>2011-03-27T07:08:47Z</time>
      </trkpt>
      <trkpt lat="43.53825" lon="5.56765">
        <ele>650.0112</ele>
        <time>2011-03-27T07:08:48Z</time>
      </trkpt>
      <trkpt lat="43.53825" lon="5.56765">
        <ele>650.0112</ele>
        <time>2011-03-27T07:08:49Z</time>
      </trkpt>
      <trkpt lat="43.53825" lon="5.56765">
        <ele>650.0112</ele>
        <time>2011-03-27T07:08:53Z</time>
      </trkpt>
      <trkpt lat="43.53825" lon="5.56766">
        <ele>650.0112</ele>
        <time>2011-03-27T07:08:54Z</time>
      </trkpt>
      <trkpt lat="43.53825" lon="5.56766">
        <ele>651.0112</ele>
        <time>2011-03-27T07:08:55Z</time>
      </trkpt>
      <trkpt lat="43.53825" lon="5.56766">
        <ele>650.0112</ele>
        <time>2011-03-27T07:08:56Z</time>
      </trkpt>
      <trkpt lat="43.53825" lon="5.56768">
        <ele>650.0112</ele>
        <time>2011-03-27T07:08:59Z</time>
      </trkpt>
      <trkpt lat="43.53825" lon="5.56769">
        <ele>650.0112</ele>
        <time>2011-03-27T07:09:00Z</time>
      </trkpt>
      <trkpt lat="43.53823" lon="5.56781">
        <ele>648.0112</ele>
        <time>2011-03-27T07:09:13Z</time>
      </trkpt>
      <trkpt lat="43.53821" lon="5.56788">
        <ele>649.0112</ele>
        <time>2011-03-27T07:09:19Z</time>
      </trkpt>
      <trkpt lat="43.53821" lon="5.56789">
        <ele>649.0112</ele>
        <time>2011-03-27T07:09:20Z</time>
      </trkpt>
      <trkpt lat="43.53819" lon="5.56794">
        <ele>649.0112</ele>
        <time>2011-03-27T07:09:24Z</time>
      </trkpt>
      <trkpt lat="43.53819" lon="5.56795">
        <ele>650.0112</ele>
        <time>2011-03-27T07:09:25Z</time>
      </trkpt>
      <trkpt lat="43.53816" lon="5.56805">
        <ele>651.0113</ele>
        <time>2011-03-27T07:09:34Z</time>
      </trkpt>
      <trkpt lat="43.53816" lon="5.56806">
        <ele>651.0113</ele>
        <time>2011-03-27T07:09:35Z</time>
      </trkpt>
      <trkpt lat="43.53816" lon="5.56807">
        <ele>651.0113</ele>
        <time>2011-03-27T07:09:36Z</time>
      </trkpt>
      <trkpt lat="43.53815" lon="5.56808">
        <ele>651.0113</ele>
        <time>2011-03-27T07:09:37Z</time>
      </trkpt>
      <trkpt lat="43.53811" lon="5.56815">
        <ele>653.0113</ele>
        <time>2011-03-27T07:09:42Z</time>
      </trkpt>
      <trkpt lat="43.53806" lon="5.56824">
        <ele>655.0113</ele>
        <time>2011-03-27T07:09:49Z</time>
      </trkpt>
      <trkpt lat="43.53806" lon="5.56826">
        <ele>656.0113</ele>
        <time>2011-03-27T07:09:50Z</time>
      </trkpt>
      <trkpt lat="43.53803" lon="5.56835">
        <ele>656.0113</ele>
        <time>2011-03-27T07:09:55Z</time>
      </trkpt>
      <trkpt lat="43.53802" lon="5.56836">
        <ele>655.0113</ele>
        <time>2011-03-27T07:09:56Z</time>
      </trkpt>
      <trkpt lat="43.538" lon="5.5684">
        <ele>655.0113</ele>
        <time>2011-03-27T07:10:00Z</time>
      </trkpt>
      <trkpt lat="43.538" lon="5.56841">
        <ele>655.0113</ele>
        <time>2011-03-27T07:10:01Z</time>
      </trkpt>
      <trkpt lat="43.53799" lon="5.56841">
        <ele>655.0113</ele>
        <time>2011-03-27T07:10:02Z</time>
      </trkpt>
      <trkpt lat="43.53799" lon="5.56842">
        <ele>656.0113</ele>
        <time>2011-03-27T07:10:03Z</time>
      </trkpt>
      <trkpt lat="43.53797" lon="5.56844">
        <ele>657.0113</ele>
        <time>2011-03-27T07:10:06Z</time>
      </trkpt>
      <trkpt lat="43.53796" lon="5.56845">
        <ele>657.0113</ele>
        <time>2011-03-27T07:10:07Z</time>
      </trkpt>
      <trkpt lat="43.53793" lon="5.56851">
        <ele>660.0113</ele>
        <time>2011-03-27T07:10:14Z</time>
      </trkpt>
      <trkpt lat="43.53793" lon="5.56851">
        <ele>660.0113</ele>
        <time>2011-03-27T07:10:15Z</time>
      </trkpt>
      <trkpt lat="43.53792" lon="5.56853">
        <ele>660.0114</ele>
        <time>2011-03-27T07:10:16Z</time>
      </trkpt>
      <trkpt lat="43.53788" lon="5.56858">
        <ele>661.0114</ele>
        <time>2011-03-27T07:10:21Z</time>
      </trkpt>
      <trkpt lat="43.53787" lon="5.56859">
        <ele>661.0114</ele>
        <time>2011-03-27T07:10:22Z</time>
      </trkpt>
      <trkpt lat="43.53782" lon="5.56864">
        <ele>661.0114</ele>
        <time>2011-03-27T07:10:28Z</time>
      </trkpt>
      <trkpt lat="43.53782" lon="5.56864">
        <ele>661.0114</ele>
        <time>2011-03-27T07:10:29Z</time>
      </trkpt>
      <trkpt lat="43.5378" lon="5.56866">
        <ele>661.0114</ele>
        <time>2011-03-27T07:10:33Z</time>
      </trkpt>
      <trkpt lat="43.53779" lon="5.56867">
        <ele>661.0114</ele>
        <time>2011-03-27T07:10:34Z</time>
      </trkpt>
      <trkpt lat="43.53776" lon="5.56879">
        <ele>660.0114</ele>
        <time>2011-03-27T07:10:44Z</time>
      </trkpt>
      <trkpt lat="43.53775" lon="5.56881">
        <ele>659.0114</ele>
        <time>2011-03-27T07:10:46Z</time>
      </trkpt>
      <trkpt lat="43.53775" lon="5.56881">
        <ele>659.0114</ele>
        <time>2011-03-27T07:10:47Z</time>
      </trkpt>
      <trkpt lat="43.53775" lon="5.56882">
        <ele>659.0114</ele>
        <time>2011-03-27T07:10:48Z</time>
      </trkpt>
      <trkpt lat="43.53774" lon="5.56884">
        <ele>658.0114</ele>
        <time>2011-03-27T07:10:49Z</time>
      </trkpt>
      <trkpt lat="43.53773" lon="5.56887">
        <ele>658.0114</ele>
        <time>2011-03-27T07:10:51Z</time>
      </trkpt>
      <trkpt lat="43.53773" lon="5.56887">
        <ele>658.0114</ele>
        <time>2011-03-27T07:10:52Z</time>
      </trkpt>
      <trkpt lat="43.5377" lon="5.56892">
        <ele>658.0114</ele>
        <time>2011-03-27T07:10:53Z</time>
      </trkpt>
      <trkpt lat="43.5377" lon="5.56893">
        <ele>658.0114</ele>
        <time>2011-03-27T07:10:54Z</time>
      </trkpt>
      <trkpt lat="43.53768" lon="5.56897">
        <ele>658.0114</ele>
        <time>2011-03-27T07:10:55Z</time>
      </trkpt>
      <trkpt lat="43.53766" lon="5.56902">
        <ele>657.0114</ele>
        <time>2011-03-27T07:10:56Z</time>
      </trkpt>
      <trkpt lat="43.53764" lon="5.56905">
        <ele>657.0114</ele>
        <time>2011-03-27T07:10:57Z</time>
      </trkpt>
      <trkpt lat="43.53762" lon="5.56908">
        <ele>657.0114</ele>
        <time>2011-03-27T07:10:58Z</time>
      </trkpt>
      <trkpt lat="43.53761" lon="5.5691">
        <ele>657.0114</ele>
        <time>2011-03-27T07:10:59Z</time>
      </trkpt>
      <trkpt lat="43.53758" lon="5.56913">
        <ele>657.0114</ele>
        <time>2011-03-27T07:11:00Z</time>
      </trkpt>
      <trkpt lat="43.53757" lon="5.56917">
        <ele>656.0114</ele>
        <time>2011-03-27T07:11:01Z</time>
      </trkpt>
      <trkpt lat="43.53755" lon="5.5692">
        <ele>657.0114</ele>
        <time>2011-03-27T07:11:02Z</time>
      </trkpt>
      <trkpt lat="43.53754" lon="5.56922">
        <ele>657.0114</ele>
        <time>2011-03-27T07:11:03Z</time>
      </trkpt>
      <trkpt lat="43.53754" lon="5.56924">
        <ele>657.0114</ele>
        <time>2011-03-27T07:11:04Z</time>
      </trkpt>
      <trkpt lat="43.53753" lon="5.56927">
        <ele>656.0114</ele>
        <time>2011-03-27T07:11:05Z</time>
      </trkpt>
      <trkpt lat="43.53752" lon="5.56929">
        <ele>657.0114</ele>
        <time>2011-03-27T07:11:06Z</time>
      </trkpt>
      <trkpt lat="43.53751" lon="5.5693">
        <ele>657.0114</ele>
        <time>2011-03-27T07:11:07Z</time>
      </trkpt>
      <trkpt lat="43.53751" lon="5.56932">
        <ele>657.0114</ele>
        <time>2011-03-27T07:11:08Z</time>
      </trkpt>
      <trkpt lat="43.5375" lon="5.56933">
        <ele>657.0114</ele>
        <time>2011-03-27T07:11:09Z</time>
      </trkpt>
      <trkpt lat="43.53749" lon="5.56935">
        <ele>657.0114</ele>
        <time>2011-03-27T07:11:10Z</time>
      </trkpt>
      <trkpt lat="43.53748" lon="5.56947">
        <ele>656.0114</ele>
        <time>2011-03-27T07:11:16Z</time>
      </trkpt>
      <trkpt lat="43.53748" lon="5.56952">
        <ele>656.0115</ele>
        <time>2011-03-27T07:11:21Z</time>
      </trkpt>
      <trkpt lat="43.53748" lon="5.56953">
        <ele>656.0115</ele>
        <time>2011-03-27T07:11:22Z</time>
      </trkpt>
      <trkpt lat="43.53746" lon="5.56962">
        <ele>658.0115</ele>
        <time>2011-03-27T07:11:29Z</time>
      </trkpt>
      <trkpt lat="43.53745" lon="5.56963">
        <ele>658.0115</ele>
        <time>2011-03-27T07:11:30Z</time>
      </trkpt>
      <trkpt lat="43.53745" lon="5.56965">
        <ele>659.0115</ele>
        <time>2011-03-27T07:11:31Z</time>
      </trkpt>
      <trkpt lat="43.53745" lon="5.56965">
        <ele>659.0115</ele>
        <time>2011-03-27T07:11:32Z</time>
      </trkpt>
      <trkpt lat="43.53744" lon="5.56967">
        <ele>659.0115</ele>
        <time>2011-03-27T07:11:33Z</time>
      </trkpt>
      <trkpt lat="43.53741" lon="5.56973">
        <ele>660.0115</ele>
        <time>2011-03-27T07:11:36Z</time>
      </trkpt>
      <trkpt lat="43.53741" lon="5.56974">
        <ele>660.0115</ele>
        <time>2011-03-27T07:11:37Z</time>
      </trkpt>
      <trkpt lat="43.5374" lon="5.56976">
        <ele>660.0115</ele>
        <time>2011-03-27T07:11:38Z</time>
      </trkpt>
      <trkpt lat="43.53738" lon="5.56978">
        <ele>660.0115</ele>
        <time>2011-03-27T07:11:39Z</time>
      </trkpt>
      <trkpt lat="43.53736" lon="5.56981">
        <ele>660.0115</ele>
        <time>2011-03-27T07:11:41Z</time>
      </trkpt>
      <trkpt lat="43.53735" lon="5.56982">
        <ele>660.0115</ele>
        <time>2011-03-27T07:11:42Z</time>
      </trkpt>
      <trkpt lat="43.53729" lon="5.56989">
        <ele>660.0115</ele>
        <time>2011-03-27T07:11:46Z</time>
      </trkpt>
      <trkpt lat="43.53729" lon="5.5699">
        <ele>660.0115</ele>
        <time>2011-03-27T07:11:47Z</time>
      </trkpt>
      <trkpt lat="43.53726" lon="5.56992">
        <ele>661.0115</ele>
        <time>2011-03-27T07:11:48Z</time>
      </trkpt>
      <trkpt lat="43.53725" lon="5.56995">
        <ele>662.0115</ele>
        <time>2011-03-27T07:11:49Z</time>
      </trkpt>
      <trkpt lat="43.53721" lon="5.56999">
        <ele>663.0115</ele>
        <time>2011-03-27T07:11:53Z</time>
      </trkpt>
      <trkpt lat="43.5372" lon="5.57">
        <ele>663.0115</ele>
        <time>2011-03-27T07:11:54Z</time>
      </trkpt>
      <trkpt lat="43.53716" lon="5.57007">
        <ele>666.0115</ele>
        <time>2011-03-27T07:12:03Z</time>
      </trkpt>
      <trkpt lat="43.53716" lon="5.57008">
        <ele>667.0115</ele>
        <time>2011-03-27T07:12:04Z</time>
      </trkpt>
      <trkpt lat="43.53716" lon="5.57009">
        <ele>667.0115</ele>
        <time>2011-03-27T07:12:05Z</time>
      </trkpt>
      <trkpt lat="43.53715" lon="5.57009">
        <ele>667.0115</ele>
        <time>2011-03-27T07:12:06Z</time>
      </trkpt>
      <trkpt lat="43.53715" lon="5.5701">
        <ele>667.0115</ele>
        <time>2011-03-27T07:12:07Z</time>
      </trkpt>
      <trkpt lat="43.53715" lon="5.57011">
        <ele>667.0115</ele>
        <time>2011-03-27T07:12:08Z</time>
      </trkpt>
      <trkpt lat="43.53714" lon="5.57012">
        <ele>667.0115</ele>
        <time>2011-03-27T07:12:09Z</time>
      </trkpt>
      <trkpt lat="43.53714" lon="5.57012">
        <ele>667.0115</ele>
        <time>2011-03-27T07:12:10Z</time>
      </trkpt>
      <trkpt lat="43.53714" lon="5.57013">
        <ele>667.0115</ele>
        <time>2011-03-27T07:12:11Z</time>
      </trkpt>
      <trkpt lat="43.53713" lon="5.57014">
        <ele>668.0115</ele>
        <time>2011-03-27T07:12:12Z</time>
      </trkpt>
      <trkpt lat="43.53712" lon="5.57014">
        <ele>668.0115</ele>
        <time>2011-03-27T07:12:13Z</time>
      </trkpt>
      <trkpt lat="43.53709" lon="5.57019">
        <ele>670.0115</ele>
        <time>2011-03-27T07:12:19Z</time>
      </trkpt>
      <trkpt lat="43.53708" lon="5.5702">
        <ele>671.0115</ele>
        <time>2011-03-27T07:12:20Z</time>
      </trkpt>
      <trkpt lat="43.53707" lon="5.57022">
        <ele>671.0115</ele>
        <time>2011-03-27T07:12:23Z</time>
      </trkpt>
      <trkpt lat="43.53706" lon="5.57023">
        <ele>671.0115</ele>
        <time>2011-03-27T07:12:24Z</time>
      </trkpt>
      <trkpt lat="43.53705" lon="5.57024">
        <ele>673.0115</ele>
        <time>2011-03-27T07:12:28Z</time>
      </trkpt>
      <trkpt lat="43.53704" lon="5.57025">
        <ele>673.0115</ele>
        <time>2011-03-27T07:12:29Z</time>
      </trkpt>
      <trkpt lat="43.53702" lon="5.57026">
        <ele>674.0115</ele>
        <time>2011-03-27T07:12:33Z</time>
      </trkpt>
      <trkpt lat="43.53702" lon="5.57027">
        <ele>674.0115</ele>
        <time>2011-03-27T07:12:34Z</time>
      </trkpt>
      <trkpt lat="43.53701" lon="5.57027">
        <ele>674.0115</ele>
        <time>2011-03-27T07:12:35Z</time>
      </trkpt>
      <trkpt lat="43.53701" lon="5.57028">
        <ele>674.0115</ele>
        <time>2011-03-27T07:12:36Z</time>
      </trkpt>
      <trkpt lat="43.537" lon="5.57028">
        <ele>675.0115</ele>
        <time>2011-03-27T07:12:37Z</time>
      </trkpt>
      <trkpt lat="43.537" lon="5.57028">
        <ele>675.0115</ele>
        <time>2011-03-27T07:12:38Z</time>
      </trkpt>
      <trkpt lat="43.53699" lon="5.57029">
        <ele>675.0115</ele>
        <time>2011-03-27T07:12:39Z</time>
      </trkpt>
      <trkpt lat="43.53698" lon="5.57029">
        <ele>675.0115</ele>
        <time>2011-03-27T07:12:40Z</time>
      </trkpt>
      <trkpt lat="43.53698" lon="5.5703">
        <ele>675.0115</ele>
        <time>2011-03-27T07:12:41Z</time>
      </trkpt>
      <trkpt lat="43.53697" lon="5.5703">
        <ele>675.0115</ele>
        <time>2011-03-27T07:12:42Z</time>
      </trkpt>
      <trkpt lat="43.53696" lon="5.5703">
        <ele>676.0115</ele>
        <time>2011-03-27T07:12:44Z</time>
      </trkpt>
      <trkpt lat="43.53696" lon="5.57031">
        <ele>676.0115</ele>
        <time>2011-03-27T07:12:45Z</time>
      </trkpt>
      <trkpt lat="43.53695" lon="5.57031">
        <ele>676.0115</ele>
        <time>2011-03-27T07:12:47Z</time>
      </trkpt>
      <trkpt lat="43.53695" lon="5.57032">
        <ele>676.0115</ele>
        <time>2011-03-27T07:12:48Z</time>
      </trkpt>
      <trkpt lat="43.53692" lon="5.57034">
        <ele>676.0115</ele>
        <time>2011-03-27T07:12:53Z</time>
      </trkpt>
      <trkpt lat="43.53692" lon="5.57034">
        <ele>676.0115</ele>
        <time>2011-03-27T07:12:54Z</time>
      </trkpt>
      <trkpt lat="43.53691" lon="5.57035">
        <ele>677.0115</ele>
        <time>2011-03-27T07:12:55Z</time>
      </trkpt>
      <trkpt lat="43.53691" lon="5.57035">
        <ele>677.0115</ele>
        <time>2011-03-27T07:12:56Z</time>
      </trkpt>
      <trkpt lat="43.5369" lon="5.57035">
        <ele>677.0115</ele>
        <time>2011-03-27T07:12:57Z</time>
      </trkpt>
      <trkpt lat="43.5369" lon="5.57036">
        <ele>677.0115</ele>
        <time>2011-03-27T07:12:58Z</time>
      </trkpt>
      <trkpt lat="43.5369" lon="5.57036">
        <ele>677.0115</ele>
        <time>2011-03-27T07:12:59Z</time>
      </trkpt>
      <trkpt lat="43.53689" lon="5.57037">
        <ele>677.0115</ele>
        <time>2011-03-27T07:13:00Z</time>
      </trkpt>
      <trkpt lat="43.53686" lon="5.57043">
        <ele>677.0115</ele>
        <time>2011-03-27T07:13:08Z</time>
      </trkpt>
      <trkpt lat="43.53686" lon="5.57044">
        <ele>677.0115</ele>
        <time>2011-03-27T07:13:09Z</time>
      </trkpt>
      <trkpt lat="43.53685" lon="5.57049">
        <ele>677.0115</ele>
        <time>2011-03-27T07:13:13Z</time>
      </trkpt>
      <trkpt lat="43.53685" lon="5.5705">
        <ele>677.0115</ele>
        <time>2011-03-27T07:13:14Z</time>
      </trkpt>
      <trkpt lat="43.53684" lon="5.57051">
        <ele>677.0115</ele>
        <time>2011-03-27T07:13:15Z</time>
      </trkpt>
      <trkpt lat="43.53684" lon="5.57053">
        <ele>678.0115</ele>
        <time>2011-03-27T07:13:16Z</time>
      </trkpt>
      <trkpt lat="43.53683" lon="5.57056">
        <ele>678.0115</ele>
        <time>2011-03-27T07:13:19Z</time>
      </trkpt>
      <trkpt lat="43.53682" lon="5.57057">
        <ele>678.0115</ele>
        <time>2011-03-27T07:13:20Z</time>
      </trkpt>
      <trkpt lat="43.53682" lon="5.57058">
        <ele>678.0115</ele>
        <time>2011-03-27T07:13:21Z</time>
      </trkpt>
      <trkpt lat="43.53681" lon="5.57059">
        <ele>679.0115</ele>
        <time>2011-03-27T07:13:22Z</time>
      </trkpt>
      <trkpt lat="43.53679" lon="5.57063">
        <ele>681.0115</ele>
        <time>2011-03-27T07:13:26Z</time>
      </trkpt>
      <trkpt lat="43.53678" lon="5.57064">
        <ele>681.0115</ele>
        <time>2011-03-27T07:13:27Z</time>
      </trkpt>
      <trkpt lat="43.53677" lon="5.57065">
        <ele>682.0115</ele>
        <time>2011-03-27T07:13:28Z</time>
      </trkpt>
      <trkpt lat="43.53677" lon="5.57065">
        <ele>682.0115</ele>
        <time>2011-03-27T07:13:29Z</time>
      </trkpt>
      <trkpt lat="43.53676" lon="5.57066">
        <ele>682.0115</ele>
        <time>2011-03-27T07:13:30Z</time>
      </trkpt>
      <trkpt lat="43.53675" lon="5.57067">
        <ele>682.0115</ele>
        <time>2011-03-27T07:13:31Z</time>
      </trkpt>
      <trkpt lat="43.53675" lon="5.57067">
        <ele>683.0115</ele>
        <time>2011-03-27T07:13:32Z</time>
      </trkpt>
      <trkpt lat="43.53674" lon="5.57068">
        <ele>683.0115</ele>
        <time>2011-03-27T07:13:33Z</time>
      </trkpt>
      <trkpt lat="43.53672" lon="5.57068">
        <ele>684.0115</ele>
        <time>2011-03-27T07:13:36Z</time>
      </trkpt>
      <trkpt lat="43.53672" lon="5.57069">
        <ele>684.0115</ele>
        <time>2011-03-27T07:13:37Z</time>
      </trkpt>
      <trkpt lat="43.53671" lon="5.57069">
        <ele>684.0115</ele>
        <time>2011-03-27T07:13:38Z</time>
      </trkpt>
      <trkpt lat="43.53668" lon="5.57071">
        <ele>684.0115</ele>
        <time>2011-03-27T07:13:44Z</time>
      </trkpt>
      <trkpt lat="43.53668" lon="5.57072">
        <ele>685.0115</ele>
        <time>2011-03-27T07:13:45Z</time>
      </trkpt>
      <trkpt lat="43.53664" lon="5.57081">
        <ele>687.0115</ele>
        <time>2011-03-27T07:13:54Z</time>
      </trkpt>
      <trkpt lat="43.53663" lon="5.57082">
        <ele>688.0115</ele>
        <time>2011-03-27T07:13:55Z</time>
      </trkpt>
      <trkpt lat="43.53663" lon="5.57083">
        <ele>688.0115</ele>
        <time>2011-03-27T07:13:56Z</time>
      </trkpt>
      <trkpt lat="43.53663" lon="5.57084">
        <ele>689.0115</ele>
        <time>2011-03-27T07:13:57Z</time>
      </trkpt>
      <trkpt lat="43.53662" lon="5.57085">
        <ele>689.0115</ele>
        <time>2011-03-27T07:13:58Z</time>
      </trkpt>
      <trkpt lat="43.53662" lon="5.57086">
        <ele>689.0115</ele>
        <time>2011-03-27T07:13:59Z</time>
      </trkpt>
      <trkpt lat="43.53661" lon="5.57087">
        <ele>689.0115</ele>
        <time>2011-03-27T07:14:00Z</time>
      </trkpt>
      <trkpt lat="43.53661" lon="5.57088">
        <ele>690.0115</ele>
        <time>2011-03-27T07:14:01Z</time>
      </trkpt>
      <trkpt lat="43.53658" lon="5.57094">
        <ele>692.0116</ele>
        <time>2011-03-27T07:14:07Z</time>
      </trkpt>
      <trkpt lat="43.53658" lon="5.57095">
        <ele>692.0116</ele>
        <time>2011-03-27T07:14:08Z</time>
      </trkpt>
      <trkpt lat="43.53656" lon="5.571">
        <ele>693.0116</ele>
        <time>2011-03-27T07:14:12Z</time>
      </trkpt>
      <trkpt lat="43.53656" lon="5.57102">
        <ele>693.0116</ele>
        <time>2011-03-27T07:14:13Z</time>
      </trkpt>
      <trkpt lat="43.53655" lon="5.57103">
        <ele>693.0116</ele>
        <time>2011-03-27T07:14:14Z</time>
      </trkpt>
      <trkpt lat="43.53655" lon="5.57105">
        <ele>693.0116</ele>
        <time>2011-03-27T07:14:15Z</time>
      </trkpt>
      <trkpt lat="43.53655" lon="5.57106">
        <ele>693.0116</ele>
        <time>2011-03-27T07:14:16Z</time>
      </trkpt>
      <trkpt lat="43.53654" lon="5.57108">
        <ele>693.0116</ele>
        <time>2011-03-27T07:14:17Z</time>
      </trkpt>
      <trkpt lat="43.53654" lon="5.57112">
        <ele>693.0116</ele>
        <time>2011-03-27T07:14:19Z</time>
      </trkpt>
      <trkpt lat="43.53653" lon="5.57113">
        <ele>693.0116</ele>
        <time>2011-03-27T07:14:20Z</time>
      </trkpt>
      <trkpt lat="43.53653" lon="5.57116">
        <ele>693.0116</ele>
        <time>2011-03-27T07:14:22Z</time>
      </trkpt>
      <trkpt lat="43.53653" lon="5.57117">
        <ele>693.0116</ele>
        <time>2011-03-27T07:14:23Z</time>
      </trkpt>
      <trkpt lat="43.53652" lon="5.57119">
        <ele>694.0116</ele>
        <time>2011-03-27T07:14:24Z</time>
      </trkpt>
      <trkpt lat="43.53651" lon="5.57129">
        <ele>695.0116</ele>
        <time>2011-03-27T07:14:31Z</time>
      </trkpt>
      <trkpt lat="43.53651" lon="5.5713">
        <ele>695.0117</ele>
        <time>2011-03-27T07:14:32Z</time>
      </trkpt>
      <trkpt lat="43.53651" lon="5.57131">
        <ele>695.0117</ele>
        <time>2011-03-27T07:14:33Z</time>
      </trkpt>
      <trkpt lat="43.53651" lon="5.57132">
        <ele>695.0117</ele>
        <time>2011-03-27T07:14:34Z</time>
      </trkpt>
      <trkpt lat="43.53651" lon="5.57133">
        <ele>696.0117</ele>
        <time>2011-03-27T07:14:35Z</time>
      </trkpt>
      <trkpt lat="43.53651" lon="5.57134">
        <ele>695.0117</ele>
        <time>2011-03-27T07:14:36Z</time>
      </trkpt>
      <trkpt lat="43.5365" lon="5.57135">
        <ele>695.0117</ele>
        <time>2011-03-27T07:14:37Z</time>
      </trkpt>
      <trkpt lat="43.5365" lon="5.57136">
        <ele>695.0117</ele>
        <time>2011-03-27T07:14:38Z</time>
      </trkpt>
      <trkpt lat="43.5365" lon="5.57136">
        <ele>695.0117</ele>
        <time>2011-03-27T07:14:39Z</time>
      </trkpt>
      <trkpt lat="43.53646" lon="5.57136">
        <ele>696.0116</ele>
        <time>2011-03-27T07:14:53Z</time>
      </trkpt>
      <trkpt lat="43.53645" lon="5.57136">
        <ele>696.0116</ele>
        <time>2011-03-27T07:14:54Z</time>
      </trkpt>
      <trkpt lat="43.53642" lon="5.57136">
        <ele>698.0116</ele>
        <time>2011-03-27T07:15:00Z</time>
      </trkpt>
      <trkpt lat="43.53642" lon="5.57136">
        <ele>698.0116</ele>
        <time>2011-03-27T07:15:01Z</time>
      </trkpt>
      <trkpt lat="43.53641" lon="5.57137">
        <ele>699.0116</ele>
        <time>2011-03-27T07:15:02Z</time>
      </trkpt>
      <trkpt lat="43.5364" lon="5.57137">
        <ele>700.0116</ele>
        <time>2011-03-27T07:15:03Z</time>
      </trkpt>
      <trkpt lat="43.5364" lon="5.57138">
        <ele>700.0116</ele>
        <time>2011-03-27T07:15:04Z</time>
      </trkpt>
      <trkpt lat="43.5364" lon="5.57139">
        <ele>700.0116</ele>
        <time>2011-03-27T07:15:05Z</time>
      </trkpt>
      <trkpt lat="43.5364" lon="5.57139">
        <ele>700.0116</ele>
        <time>2011-03-27T07:15:06Z</time>
      </trkpt>
      <trkpt lat="43.5364" lon="5.57141">
        <ele>700.0116</ele>
        <time>2011-03-27T07:15:08Z</time>
      </trkpt>
      <trkpt lat="43.53639" lon="5.57143">
        <ele>700.0116</ele>
        <time>2011-03-27T07:15:09Z</time>
      </trkpt>
      <trkpt lat="43.53639" lon="5.57144">
        <ele>699.0117</ele>
        <time>2011-03-27T07:15:10Z</time>
      </trkpt>
      <trkpt lat="43.53639" lon="5.57145">
        <ele>699.0117</ele>
        <time>2011-03-27T07:15:11Z</time>
      </trkpt>
      <trkpt lat="43.53639" lon="5.57147">
        <ele>700.0117</ele>
        <time>2011-03-27T07:15:13Z</time>
      </trkpt>
      <trkpt lat="43.53639" lon="5.57148">
        <ele>700.0117</ele>
        <time>2011-03-27T07:15:14Z</time>
      </trkpt>
      <trkpt lat="43.53639" lon="5.57152">
        <ele>700.0117</ele>
        <time>2011-03-27T07:15:18Z</time>
      </trkpt>
      <trkpt lat="43.53639" lon="5.57153">
        <ele>701.0117</ele>
        <time>2011-03-27T07:15:19Z</time>
      </trkpt>
      <trkpt lat="43.53638" lon="5.57154">
        <ele>701.0117</ele>
        <time>2011-03-27T07:15:20Z</time>
      </trkpt>
      <trkpt lat="43.53638" lon="5.57155">
        <ele>701.0117</ele>
        <time>2011-03-27T07:15:21Z</time>
      </trkpt>
      <trkpt lat="43.53637" lon="5.57157">
        <ele>703.0117</ele>
        <time>2011-03-27T07:15:25Z</time>
      </trkpt>
      <trkpt lat="43.53637" lon="5.57158">
        <ele>703.0117</ele>
        <time>2011-03-27T07:15:26Z</time>
      </trkpt>
      <trkpt lat="43.53636" lon="5.57158">
        <ele>704.0117</ele>
        <time>2011-03-27T07:15:31Z</time>
      </trkpt>
      <trkpt lat="43.53635" lon="5.57158">
        <ele>704.0117</ele>
        <time>2011-03-27T07:15:32Z</time>
      </trkpt>
      <trkpt lat="43.53635" lon="5.57158">
        <ele>705.0117</ele>
        <time>2011-03-27T07:15:33Z</time>
      </trkpt>
      <trkpt lat="43.53634" lon="5.57159">
        <ele>704.0117</ele>
        <time>2011-03-27T07:15:34Z</time>
      </trkpt>
      <trkpt lat="43.53633" lon="5.57159">
        <ele>705.0117</ele>
        <time>2011-03-27T07:15:35Z</time>
      </trkpt>
      <trkpt lat="43.53633" lon="5.57159">
        <ele>705.0117</ele>
        <time>2011-03-27T07:15:36Z</time>
      </trkpt>
      <trkpt lat="43.53632" lon="5.5716">
        <ele>705.0117</ele>
        <time>2011-03-27T07:15:37Z</time>
      </trkpt>
      <trkpt lat="43.53632" lon="5.5716">
        <ele>705.0117</ele>
        <time>2011-03-27T07:15:38Z</time>
      </trkpt>
      <trkpt lat="43.53631" lon="5.57161">
        <ele>705.0117</ele>
        <time>2011-03-27T07:15:39Z</time>
      </trkpt>
      <trkpt lat="43.5363" lon="5.57161">
        <ele>705.0117</ele>
        <time>2011-03-27T07:15:40Z</time>
      </trkpt>
      <trkpt lat="43.5363" lon="5.57162">
        <ele>705.0117</ele>
        <time>2011-03-27T07:15:41Z</time>
      </trkpt>
      <trkpt lat="43.5363" lon="5.57162">
        <ele>705.0117</ele>
        <time>2011-03-27T07:15:42Z</time>
      </trkpt>
      <trkpt lat="43.53629" lon="5.57163">
        <ele>706.0117</ele>
        <time>2011-03-27T07:15:43Z</time>
      </trkpt>
      <trkpt lat="43.53629" lon="5.57163">
        <ele>706.0117</ele>
        <time>2011-03-27T07:15:44Z</time>
      </trkpt>
      <trkpt lat="43.53629" lon="5.57163">
        <ele>706.0117</ele>
        <time>2011-03-27T07:15:45Z</time>
      </trkpt>
      <trkpt lat="43.53628" lon="5.57164">
        <ele>706.0117</ele>
        <time>2011-03-27T07:15:46Z</time>
      </trkpt>
      <trkpt lat="43.53628" lon="5.57164">
        <ele>706.0117</ele>
        <time>2011-03-27T07:15:47Z</time>
      </trkpt>
      <trkpt lat="43.53624" lon="5.5717">
        <ele>710.0117</ele>
        <time>2011-03-27T07:15:59Z</time>
      </trkpt>
      <trkpt lat="43.53624" lon="5.57171">
        <ele>710.0117</ele>
        <time>2011-03-27T07:16:00Z</time>
      </trkpt>
      <trkpt lat="43.53624" lon="5.57172">
        <ele>711.0117</ele>
        <time>2011-03-27T07:16:01Z</time>
      </trkpt>
      <trkpt lat="43.53623" lon="5.57173">
        <ele>711.0117</ele>
        <time>2011-03-27T07:16:02Z</time>
      </trkpt>
      <trkpt lat="43.53623" lon="5.57173">
        <ele>711.0117</ele>
        <time>2011-03-27T07:16:03Z</time>
      </trkpt>
      <trkpt lat="43.53623" lon="5.57174">
        <ele>711.0117</ele>
        <time>2011-03-27T07:16:04Z</time>
      </trkpt>
      <trkpt lat="43.53622" lon="5.57174">
        <ele>711.0117</ele>
        <time>2011-03-27T07:16:05Z</time>
      </trkpt>
      <trkpt lat="43.53622" lon="5.57175">
        <ele>711.0117</ele>
        <time>2011-03-27T07:16:06Z</time>
      </trkpt>
      <trkpt lat="43.53622" lon="5.57175">
        <ele>711.0117</ele>
        <time>2011-03-27T07:16:07Z</time>
      </trkpt>
      <trkpt lat="43.53614" lon="5.57182">
        <ele>714.0117</ele>
        <time>2011-03-27T07:16:22Z</time>
      </trkpt>
      <trkpt lat="43.53614" lon="5.57182">
        <ele>715.0117</ele>
        <time>2011-03-27T07:16:23Z</time>
      </trkpt>
      <trkpt lat="43.5361" lon="5.57188">
        <ele>715.0117</ele>
        <time>2011-03-27T07:16:31Z</time>
      </trkpt>
      <trkpt lat="43.53609" lon="5.57189">
        <ele>715.0117</ele>
        <time>2011-03-27T07:16:32Z</time>
      </trkpt>
      <trkpt lat="43.53603" lon="5.57198">
        <ele>718.0117</ele>
        <time>2011-03-27T07:16:40Z</time>
      </trkpt>
      <trkpt lat="43.53601" lon="5.57201">
        <ele>720.0117</ele>
        <time>2011-03-27T07:16:44Z</time>
      </trkpt>
      <trkpt lat="43.53601" lon="5.57202">
        <ele>720.0117</ele>
        <time>2011-03-27T07:16:45Z</time>
      </trkpt>
      <trkpt lat="43.536" lon="5.57202">
        <ele>721.0117</ele>
        <time>2011-03-27T07:16:46Z</time>
      </trkpt>
      <trkpt lat="43.536" lon="5.57202">
        <ele>721.0117</ele>
        <time>2011-03-27T07:16:47Z</time>
      </trkpt>
      <trkpt lat="43.53599" lon="5.57203">
        <ele>721.0117</ele>
        <time>2011-03-27T07:16:48Z</time>
      </trkpt>
      <trkpt lat="43.53598" lon="5.57203">
        <ele>722.0117</ele>
        <time>2011-03-27T07:16:49Z</time>
      </trkpt>
      <trkpt lat="43.53598" lon="5.57203">
        <ele>722.0117</ele>
        <time>2011-03-27T07:16:50Z</time>
      </trkpt>
      <trkpt lat="43.53597" lon="5.57203">
        <ele>722.0117</ele>
        <time>2011-03-27T07:16:51Z</time>
      </trkpt>
      <trkpt lat="43.53597" lon="5.57203">
        <ele>722.0117</ele>
        <time>2011-03-27T07:16:52Z</time>
      </trkpt>
      <trkpt lat="43.53596" lon="5.57203">
        <ele>723.0117</ele>
        <time>2011-03-27T07:16:53Z</time>
      </trkpt>
      <trkpt lat="43.53595" lon="5.57203">
        <ele>723.0117</ele>
        <time>2011-03-27T07:16:54Z</time>
      </trkpt>
      <trkpt lat="43.53593" lon="5.57203">
        <ele>724.0117</ele>
        <time>2011-03-27T07:16:56Z</time>
      </trkpt>
      <trkpt lat="43.53593" lon="5.57203">
        <ele>724.0117</ele>
        <time>2011-03-27T07:16:57Z</time>
      </trkpt>
      <trkpt lat="43.53591" lon="5.57203">
        <ele>724.0117</ele>
        <time>2011-03-27T07:17:01Z</time>
      </trkpt>
      <trkpt lat="43.5359" lon="5.57203">
        <ele>724.0117</ele>
        <time>2011-03-27T07:17:02Z</time>
      </trkpt>
      <trkpt lat="43.53585" lon="5.57202">
        <ele>725.0117</ele>
        <time>2011-03-27T07:17:11Z</time>
      </trkpt>
      <trkpt lat="43.53585" lon="5.57202">
        <ele>725.0117</ele>
        <time>2011-03-27T07:17:12Z</time>
      </trkpt>
      <trkpt lat="43.53584" lon="5.57202">
        <ele>725.0117</ele>
        <time>2011-03-27T07:17:13Z</time>
      </trkpt>
      <trkpt lat="43.53581" lon="5.57202">
        <ele>726.0117</ele>
        <time>2011-03-27T07:17:16Z</time>
      </trkpt>
      <trkpt lat="43.53581" lon="5.57203">
        <ele>726.0117</ele>
        <time>2011-03-27T07:17:17Z</time>
      </trkpt>
      <trkpt lat="43.53577" lon="5.57205">
        <ele>729.0117</ele>
        <time>2011-03-27T07:17:22Z</time>
      </trkpt>
      <trkpt lat="43.53577" lon="5.57205">
        <ele>729.0117</ele>
        <time>2011-03-27T07:17:23Z</time>
      </trkpt>
      <trkpt lat="43.53577" lon="5.57206">
        <ele>730.0117</ele>
        <time>2011-03-27T07:17:24Z</time>
      </trkpt>
      <trkpt lat="43.53575" lon="5.57208">
        <ele>730.0117</ele>
        <time>2011-03-27T07:17:29Z</time>
      </trkpt>
      <trkpt lat="43.53574" lon="5.5721">
        <ele>730.0117</ele>
        <time>2011-03-27T07:17:30Z</time>
      </trkpt>
      <trkpt lat="43.53572" lon="5.57213">
        <ele>729.0117</ele>
        <time>2011-03-27T07:17:32Z</time>
      </trkpt>
      <trkpt lat="43.53571" lon="5.57215">
        <ele>730.0117</ele>
        <time>2011-03-27T07:17:33Z</time>
      </trkpt>
      <trkpt lat="43.5357" lon="5.57218">
        <ele>730.0117</ele>
        <time>2011-03-27T07:17:35Z</time>
      </trkpt>
      <trkpt lat="43.53569" lon="5.5722">
        <ele>730.0117</ele>
        <time>2011-03-27T07:17:36Z</time>
      </trkpt>
      <trkpt lat="43.53566" lon="5.57226">
        <ele>729.0117</ele>
        <time>2011-03-27T07:17:42Z</time>
      </trkpt>
      <trkpt lat="43.53565" lon="5.57227">
        <ele>730.0117</ele>
        <time>2011-03-27T07:17:43Z</time>
      </trkpt>
      <trkpt lat="43.53565" lon="5.57228">
        <ele>730.0117</ele>
        <time>2011-03-27T07:17:44Z</time>
      </trkpt>
      <trkpt lat="43.53564" lon="5.57229">
        <ele>730.0117</ele>
        <time>2011-03-27T07:17:45Z</time>
      </trkpt>
      <trkpt lat="43.53564" lon="5.5723">
        <ele>729.0117</ele>
        <time>2011-03-27T07:17:46Z</time>
      </trkpt>
      <trkpt lat="43.53563" lon="5.57231">
        <ele>729.0117</ele>
        <time>2011-03-27T07:17:47Z</time>
      </trkpt>
      <trkpt lat="43.53562" lon="5.57232">
        <ele>729.0117</ele>
        <time>2011-03-27T07:17:48Z</time>
      </trkpt>
      <trkpt lat="43.53562" lon="5.57233">
        <ele>729.0117</ele>
        <time>2011-03-27T07:17:49Z</time>
      </trkpt>
      <trkpt lat="43.53557" lon="5.57238">
        <ele>731.0117</ele>
        <time>2011-03-27T07:17:55Z</time>
      </trkpt>
      <trkpt lat="43.53556" lon="5.57239">
        <ele>732.0117</ele>
        <time>2011-03-27T07:17:56Z</time>
      </trkpt>
      <trkpt lat="43.53555" lon="5.5724">
        <ele>732.0117</ele>
        <time>2011-03-27T07:17:57Z</time>
      </trkpt>
      <trkpt lat="43.53554" lon="5.57241">
        <ele>732.0117</ele>
        <time>2011-03-27T07:17:58Z</time>
      </trkpt>
      <trkpt lat="43.53553" lon="5.57241">
        <ele>732.0117</ele>
        <time>2011-03-27T07:17:59Z</time>
      </trkpt>
      <trkpt lat="43.53552" lon="5.57242">
        <ele>732.0117</ele>
        <time>2011-03-27T07:18:00Z</time>
      </trkpt>
      <trkpt lat="43.53552" lon="5.57243">
        <ele>732.0117</ele>
        <time>2011-03-27T07:18:01Z</time>
      </trkpt>
      <trkpt lat="43.53551" lon="5.57244">
        <ele>732.0117</ele>
        <time>2011-03-27T07:18:02Z</time>
      </trkpt>
      <trkpt lat="43.5355" lon="5.57244">
        <ele>732.0117</ele>
        <time>2011-03-27T07:18:03Z</time>
      </trkpt>
      <trkpt lat="43.53549" lon="5.57245">
        <ele>732.0117</ele>
        <time>2011-03-27T07:18:04Z</time>
      </trkpt>
      <trkpt lat="43.53548" lon="5.57246">
        <ele>732.0117</ele>
        <time>2011-03-27T07:18:05Z</time>
      </trkpt>
      <trkpt lat="43.53547" lon="5.57247">
        <ele>733.0117</ele>
        <time>2011-03-27T07:18:07Z</time>
      </trkpt>
      <trkpt lat="43.53546" lon="5.57248">
        <ele>733.0117</ele>
        <time>2011-03-27T07:18:08Z</time>
      </trkpt>
      <trkpt lat="43.53545" lon="5.57249">
        <ele>733.0117</ele>
        <time>2011-03-27T07:18:09Z</time>
      </trkpt>
      <trkpt lat="43.53544" lon="5.5725">
        <ele>733.0117</ele>
        <time>2011-03-27T07:18:10Z</time>
      </trkpt>
      <trkpt lat="43.53544" lon="5.57251">
        <ele>733.0117</ele>
        <time>2011-03-27T07:18:11Z</time>
      </trkpt>
      <trkpt lat="43.53543" lon="5.57252">
        <ele>733.0117</ele>
        <time>2011-03-27T07:18:12Z</time>
      </trkpt>
      <trkpt lat="43.53542" lon="5.57253">
        <ele>733.0117</ele>
        <time>2011-03-27T07:18:13Z</time>
      </trkpt>
      <trkpt lat="43.53541" lon="5.57254">
        <ele>734.0117</ele>
        <time>2011-03-27T07:18:14Z</time>
      </trkpt>
      <trkpt lat="43.53539" lon="5.57256">
        <ele>735.0117</ele>
        <time>2011-03-27T07:18:16Z</time>
      </trkpt>
      <trkpt lat="43.53538" lon="5.57257">
        <ele>735.0117</ele>
        <time>2011-03-27T07:18:17Z</time>
      </trkpt>
      <trkpt lat="43.53537" lon="5.57258">
        <ele>736.0117</ele>
        <time>2011-03-27T07:18:18Z</time>
      </trkpt>
      <trkpt lat="43.53536" lon="5.57259">
        <ele>736.0117</ele>
        <time>2011-03-27T07:18:19Z</time>
      </trkpt>
      <trkpt lat="43.53535" lon="5.5726">
        <ele>735.0117</ele>
        <time>2011-03-27T07:18:20Z</time>
      </trkpt>
      <trkpt lat="43.53528" lon="5.57266">
        <ele>736.0117</ele>
        <time>2011-03-27T07:18:26Z</time>
      </trkpt>
      <trkpt lat="43.53528" lon="5.57267">
        <ele>736.0117</ele>
        <time>2011-03-27T07:18:27Z</time>
      </trkpt>
      <trkpt lat="43.53525" lon="5.57272">
        <ele>736.0117</ele>
        <time>2011-03-27T07:18:31Z</time>
      </trkpt>
      <trkpt lat="43.53524" lon="5.57273">
        <ele>736.0117</ele>
        <time>2011-03-27T07:18:32Z</time>
      </trkpt>
      <trkpt lat="43.53523" lon="5.57276">
        <ele>737.0117</ele>
        <time>2011-03-27T07:18:38Z</time>
      </trkpt>
      <trkpt lat="43.53523" lon="5.57277">
        <ele>737.0117</ele>
        <time>2011-03-27T07:18:39Z</time>
      </trkpt>
      <trkpt lat="43.53521" lon="5.57279">
        <ele>738.0117</ele>
        <time>2011-03-27T07:18:44Z</time>
      </trkpt>
      <trkpt lat="43.5352" lon="5.5728">
        <ele>738.0117</ele>
        <time>2011-03-27T07:18:45Z</time>
      </trkpt>
      <trkpt lat="43.53519" lon="5.57281">
        <ele>739.0117</ele>
        <time>2011-03-27T07:18:46Z</time>
      </trkpt>
      <trkpt lat="43.53519" lon="5.57281">
        <ele>739.0117</ele>
        <time>2011-03-27T07:18:47Z</time>
      </trkpt>
      <trkpt lat="43.53519" lon="5.57282">
        <ele>739.0117</ele>
        <time>2011-03-27T07:18:48Z</time>
      </trkpt>
      <trkpt lat="43.53518" lon="5.57283">
        <ele>739.0117</ele>
        <time>2011-03-27T07:18:49Z</time>
      </trkpt>
      <trkpt lat="43.53517" lon="5.57284">
        <ele>739.0117</ele>
        <time>2011-03-27T07:18:51Z</time>
      </trkpt>
      <trkpt lat="43.53516" lon="5.57285">
        <ele>740.0117</ele>
        <time>2011-03-27T07:18:52Z</time>
      </trkpt>
      <trkpt lat="43.53516" lon="5.57287">
        <ele>740.0117</ele>
        <time>2011-03-27T07:18:54Z</time>
      </trkpt>
      <trkpt lat="43.53515" lon="5.57289">
        <ele>740.0117</ele>
        <time>2011-03-27T07:18:55Z</time>
      </trkpt>
      <trkpt lat="43.53509" lon="5.573">
        <ele>742.0117</ele>
        <time>2011-03-27T07:19:06Z</time>
      </trkpt>
      <trkpt lat="43.53508" lon="5.57301">
        <ele>742.0117</ele>
        <time>2011-03-27T07:19:07Z</time>
      </trkpt>
      <trkpt lat="43.53508" lon="5.57302">
        <ele>742.0117</ele>
        <time>2011-03-27T07:19:08Z</time>
      </trkpt>
      <trkpt lat="43.53507" lon="5.57304">
        <ele>742.0117</ele>
        <time>2011-03-27T07:19:10Z</time>
      </trkpt>
      <trkpt lat="43.53506" lon="5.57305">
        <ele>742.0117</ele>
        <time>2011-03-27T07:19:11Z</time>
      </trkpt>
      <trkpt lat="43.53505" lon="5.57307">
        <ele>743.0117</ele>
        <time>2011-03-27T07:19:13Z</time>
      </trkpt>
      <trkpt lat="43.53504" lon="5.57308">
        <ele>743.0117</ele>
        <time>2011-03-27T07:19:14Z</time>
      </trkpt>
      <trkpt lat="43.53503" lon="5.57311">
        <ele>744.0117</ele>
        <time>2011-03-27T07:19:16Z</time>
      </trkpt>
      <trkpt lat="43.53502" lon="5.57312">
        <ele>745.0117</ele>
        <time>2011-03-27T07:19:17Z</time>
      </trkpt>
      <trkpt lat="43.53497" lon="5.57316">
        <ele>746.0117</ele>
        <time>2011-03-27T07:19:22Z</time>
      </trkpt>
      <trkpt lat="43.53496" lon="5.57316">
        <ele>746.0117</ele>
        <time>2011-03-27T07:19:23Z</time>
      </trkpt>
      <trkpt lat="43.53495" lon="5.57317">
        <ele>747.0117</ele>
        <time>2011-03-27T07:19:24Z</time>
      </trkpt>
      <trkpt lat="43.53494" lon="5.57317">
        <ele>747.0117</ele>
        <time>2011-03-27T07:19:25Z</time>
      </trkpt>
      <trkpt lat="43.53493" lon="5.57317">
        <ele>747.0117</ele>
        <time>2011-03-27T07:19:26Z</time>
      </trkpt>
      <trkpt lat="43.53492" lon="5.57316">
        <ele>748.0117</ele>
        <time>2011-03-27T07:19:27Z</time>
      </trkpt>
      <trkpt lat="43.53491" lon="5.57316">
        <ele>748.0117</ele>
        <time>2011-03-27T07:19:28Z</time>
      </trkpt>
      <trkpt lat="43.5349" lon="5.57316">
        <ele>748.0117</ele>
        <time>2011-03-27T07:19:29Z</time>
      </trkpt>
      <trkpt lat="43.53487" lon="5.57316">
        <ele>749.0117</ele>
        <time>2011-03-27T07:19:31Z</time>
      </trkpt>
      <trkpt lat="43.53486" lon="5.57316">
        <ele>749.0117</ele>
        <time>2011-03-27T07:19:32Z</time>
      </trkpt>
      <trkpt lat="43.53485" lon="5.57316">
        <ele>750.0117</ele>
        <time>2011-03-27T07:19:33Z</time>
      </trkpt>
      <trkpt lat="43.53484" lon="5.57316">
        <ele>750.0117</ele>
        <time>2011-03-27T07:19:34Z</time>
      </trkpt>
      <trkpt lat="43.53479" lon="5.57319">
        <ele>751.0117</ele>
        <time>2011-03-27T07:19:39Z</time>
      </trkpt>
      <trkpt lat="43.53478" lon="5.57319">
        <ele>751.0117</ele>
        <time>2011-03-27T07:19:40Z</time>
      </trkpt>
      <trkpt lat="43.53478" lon="5.5732">
        <ele>751.0117</ele>
        <time>2011-03-27T07:19:41Z</time>
      </trkpt>
      <trkpt lat="43.53477" lon="5.57321">
        <ele>751.0117</ele>
        <time>2011-03-27T07:19:42Z</time>
      </trkpt>
      <trkpt lat="43.53477" lon="5.57322">
        <ele>751.0117</ele>
        <time>2011-03-27T07:19:43Z</time>
      </trkpt>
      <trkpt lat="43.53476" lon="5.57323">
        <ele>751.0117</ele>
        <time>2011-03-27T07:19:44Z</time>
      </trkpt>
      <trkpt lat="43.53476" lon="5.57323">
        <ele>751.0117</ele>
        <time>2011-03-27T07:19:45Z</time>
      </trkpt>
      <trkpt lat="43.53475" lon="5.57324">
        <ele>751.0117</ele>
        <time>2011-03-27T07:19:46Z</time>
      </trkpt>
      <trkpt lat="43.53472" lon="5.5733">
        <ele>753.0117</ele>
        <time>2011-03-27T07:19:52Z</time>
      </trkpt>
      <trkpt lat="43.53472" lon="5.57331">
        <ele>753.0117</ele>
        <time>2011-03-27T07:19:53Z</time>
      </trkpt>
      <trkpt lat="43.53471" lon="5.57331">
        <ele>753.0117</ele>
        <time>2011-03-27T07:19:54Z</time>
      </trkpt>
      <trkpt lat="43.5347" lon="5.57332">
        <ele>754.0117</ele>
        <time>2011-03-27T07:19:55Z</time>
      </trkpt>
      <trkpt lat="43.5347" lon="5.57333">
        <ele>754.0117</ele>
        <time>2011-03-27T07:19:56Z</time>
      </trkpt>
      <trkpt lat="43.53469" lon="5.57333">
        <ele>754.0117</ele>
        <time>2011-03-27T07:19:57Z</time>
      </trkpt>
      <trkpt lat="43.53468" lon="5.57334">
        <ele>755.0117</ele>
        <time>2011-03-27T07:19:58Z</time>
      </trkpt>
      <trkpt lat="43.53468" lon="5.57334">
        <ele>755.0117</ele>
        <time>2011-03-27T07:19:59Z</time>
      </trkpt>
      <trkpt lat="43.53465" lon="5.57337">
        <ele>756.0117</ele>
        <time>2011-03-27T07:20:03Z</time>
      </trkpt>
      <trkpt lat="43.53465" lon="5.57338">
        <ele>756.0117</ele>
        <time>2011-03-27T07:20:04Z</time>
      </trkpt>
      <trkpt lat="43.53463" lon="5.57339">
        <ele>756.0117</ele>
        <time>2011-03-27T07:20:06Z</time>
      </trkpt>
      <trkpt lat="43.53463" lon="5.5734">
        <ele>756.0117</ele>
        <time>2011-03-27T07:20:07Z</time>
      </trkpt>
      <trkpt lat="43.53462" lon="5.57341">
        <ele>756.0117</ele>
        <time>2011-03-27T07:20:09Z</time>
      </trkpt>
      <trkpt lat="43.53461" lon="5.57342">
        <ele>757.0117</ele>
        <time>2011-03-27T07:20:10Z</time>
      </trkpt>
      <trkpt lat="43.5346" lon="5.57343">
        <ele>758.0117</ele>
        <time>2011-03-27T07:20:12Z</time>
      </trkpt>
      <trkpt lat="43.53459" lon="5.57344">
        <ele>758.0117</ele>
        <time>2011-03-27T07:20:13Z</time>
      </trkpt>
      <trkpt lat="43.53458" lon="5.57344">
        <ele>759.0117</ele>
        <time>2011-03-27T07:20:14Z</time>
      </trkpt>
      <trkpt lat="43.53458" lon="5.57345">
        <ele>759.0117</ele>
        <time>2011-03-27T07:20:15Z</time>
      </trkpt>
      <trkpt lat="43.53457" lon="5.57346">
        <ele>759.0117</ele>
        <time>2011-03-27T07:20:16Z</time>
      </trkpt>
      <trkpt lat="43.53457" lon="5.57347">
        <ele>759.0117</ele>
        <time>2011-03-27T07:20:17Z</time>
      </trkpt>
      <trkpt lat="43.53456" lon="5.57348">
        <ele>759.0117</ele>
        <time>2011-03-27T07:20:18Z</time>
      </trkpt>
      <trkpt lat="43.53456" lon="5.57349">
        <ele>759.0117</ele>
        <time>2011-03-27T07:20:19Z</time>
      </trkpt>
      <trkpt lat="43.53452" lon="5.57353">
        <ele>760.0117</ele>
        <time>2011-03-27T07:20:26Z</time>
      </trkpt>
      <trkpt lat="43.53452" lon="5.57354">
        <ele>760.0117</ele>
        <time>2011-03-27T07:20:27Z</time>
      </trkpt>
      <trkpt lat="43.53451" lon="5.57354">
        <ele>760.0117</ele>
        <time>2011-03-27T07:20:28Z</time>
      </trkpt>
      <trkpt lat="43.5345" lon="5.57355">
        <ele>760.0117</ele>
        <time>2011-03-27T07:20:29Z</time>
      </trkpt>
      <trkpt lat="43.5345" lon="5.57355">
        <ele>760.0117</ele>
        <time>2011-03-27T07:20:30Z</time>
      </trkpt>
      <trkpt lat="43.53449" lon="5.57356">
        <ele>760.0117</ele>
        <time>2011-03-27T07:20:31Z</time>
      </trkpt>
      <trkpt lat="43.53448" lon="5.57356">
        <ele>761.0117</ele>
        <time>2011-03-27T07:20:32Z</time>
      </trkpt>
      <trkpt lat="43.53447" lon="5.57356">
        <ele>761.0117</ele>
        <time>2011-03-27T07:20:33Z</time>
      </trkpt>
      <trkpt lat="43.53446" lon="5.57357">
        <ele>761.0117</ele>
        <time>2011-03-27T07:20:34Z</time>
      </trkpt>
      <trkpt lat="43.53445" lon="5.57358">
        <ele>761.0117</ele>
        <time>2011-03-27T07:20:35Z</time>
      </trkpt>
      <trkpt lat="43.53444" lon="5.57359">
        <ele>761.0117</ele>
        <time>2011-03-27T07:20:36Z</time>
      </trkpt>
      <trkpt lat="43.53443" lon="5.57359">
        <ele>761.0117</ele>
        <time>2011-03-27T07:20:37Z</time>
      </trkpt>
      <trkpt lat="43.53442" lon="5.57361">
        <ele>761.0117</ele>
        <time>2011-03-27T07:20:39Z</time>
      </trkpt>
      <trkpt lat="43.53441" lon="5.57361">
        <ele>761.0117</ele>
        <time>2011-03-27T07:20:40Z</time>
      </trkpt>
      <trkpt lat="43.5344" lon="5.57362">
        <ele>761.0117</ele>
        <time>2011-03-27T07:20:42Z</time>
      </trkpt>
      <trkpt lat="43.53439" lon="5.57363">
        <ele>761.0117</ele>
        <time>2011-03-27T07:20:43Z</time>
      </trkpt>
      <trkpt lat="43.53438" lon="5.57363">
        <ele>761.0117</ele>
        <time>2011-03-27T07:20:44Z</time>
      </trkpt>
      <trkpt lat="43.53437" lon="5.57364">
        <ele>761.0117</ele>
        <time>2011-03-27T07:20:45Z</time>
      </trkpt>
      <trkpt lat="43.53436" lon="5.57364">
        <ele>761.0117</ele>
        <time>2011-03-27T07:20:46Z</time>
      </trkpt>
      <trkpt lat="43.53435" lon="5.57365">
        <ele>761.0117</ele>
        <time>2011-03-27T07:20:47Z</time>
      </trkpt>
      <trkpt lat="43.53434" lon="5.57365">
        <ele>762.0117</ele>
        <time>2011-03-27T07:20:48Z</time>
      </trkpt>
      <trkpt lat="43.53433" lon="5.57365">
        <ele>762.0117</ele>
        <time>2011-03-27T07:20:49Z</time>
      </trkpt>
      <trkpt lat="43.5343" lon="5.57364">
        <ele>763.0117</ele>
        <time>2011-03-27T07:20:54Z</time>
      </trkpt>
      <trkpt lat="43.53429" lon="5.57364">
        <ele>763.0117</ele>
        <time>2011-03-27T07:20:55Z</time>
      </trkpt>
      <trkpt lat="43.53428" lon="5.57363">
        <ele>764.0117</ele>
        <time>2011-03-27T07:20:56Z</time>
      </trkpt>
      <trkpt lat="43.53427" lon="5.57363">
        <ele>764.0117</ele>
        <time>2011-03-27T07:20:57Z</time>
      </trkpt>
      <trkpt lat="43.53425" lon="5.57362">
        <ele>764.0117</ele>
        <time>2011-03-27T07:20:59Z</time>
      </trkpt>
      <trkpt lat="43.53425" lon="5.57362">
        <ele>765.0117</ele>
        <time>2011-03-27T07:21:00Z</time>
      </trkpt>
      <trkpt lat="43.53423" lon="5.57361">
        <ele>765.0117</ele>
        <time>2011-03-27T07:21:01Z</time>
      </trkpt>
      <trkpt lat="43.53422" lon="5.57361">
        <ele>766.0117</ele>
        <time>2011-03-27T07:21:02Z</time>
      </trkpt>
      <trkpt lat="43.53421" lon="5.5736">
        <ele>766.0117</ele>
        <time>2011-03-27T07:21:03Z</time>
      </trkpt>
      <trkpt lat="43.53421" lon="5.5736">
        <ele>766.0117</ele>
        <time>2011-03-27T07:21:04Z</time>
      </trkpt>
      <trkpt lat="43.5342" lon="5.57359">
        <ele>766.0116</ele>
        <time>2011-03-27T07:21:05Z</time>
      </trkpt>
      <trkpt lat="43.53418" lon="5.57359">
        <ele>766.0116</ele>
        <time>2011-03-27T07:21:06Z</time>
      </trkpt>
      <trkpt lat="43.53417" lon="5.57359">
        <ele>766.0116</ele>
        <time>2011-03-27T07:21:07Z</time>
      </trkpt>
      <trkpt lat="43.53416" lon="5.57359">
        <ele>766.0116</ele>
        <time>2011-03-27T07:21:08Z</time>
      </trkpt>
      <trkpt lat="43.53416" lon="5.57358">
        <ele>766.0116</ele>
        <time>2011-03-27T07:21:09Z</time>
      </trkpt>
      <trkpt lat="43.53415" lon="5.57358">
        <ele>766.0116</ele>
        <time>2011-03-27T07:21:10Z</time>
      </trkpt>
      <trkpt lat="43.53414" lon="5.57358">
        <ele>766.0116</ele>
        <time>2011-03-27T07:21:11Z</time>
      </trkpt>
      <trkpt lat="43.53413" lon="5.57359">
        <ele>767.0116</ele>
        <time>2011-03-27T07:21:12Z</time>
      </trkpt>
      <trkpt lat="43.53412" lon="5.57359">
        <ele>767.0116</ele>
        <time>2011-03-27T07:21:13Z</time>
      </trkpt>
      <trkpt lat="43.53411" lon="5.57359">
        <ele>767.0116</ele>
        <time>2011-03-27T07:21:14Z</time>
      </trkpt>
      <trkpt lat="43.5341" lon="5.57359">
        <ele>767.0116</ele>
        <time>2011-03-27T07:21:15Z</time>
      </trkpt>
      <trkpt lat="43.53408" lon="5.5736">
        <ele>768.0116</ele>
        <time>2011-03-27T07:21:16Z</time>
      </trkpt>
      <trkpt lat="43.53404" lon="5.57362">
        <ele>768.0116</ele>
        <time>2011-03-27T07:21:20Z</time>
      </trkpt>
      <trkpt lat="43.53403" lon="5.57363">
        <ele>768.0116</ele>
        <time>2011-03-27T07:21:21Z</time>
      </trkpt>
      <trkpt lat="43.53402" lon="5.57363">
        <ele>768.0116</ele>
        <time>2011-03-27T07:21:22Z</time>
      </trkpt>
      <trkpt lat="43.53401" lon="5.57364">
        <ele>769.0116</ele>
        <time>2011-03-27T07:21:23Z</time>
      </trkpt>
      <trkpt lat="43.534" lon="5.57364">
        <ele>769.0116</ele>
        <time>2011-03-27T07:21:24Z</time>
      </trkpt>
      <trkpt lat="43.53399" lon="5.57365">
        <ele>769.0116</ele>
        <time>2011-03-27T07:21:25Z</time>
      </trkpt>
      <trkpt lat="43.53399" lon="5.57365">
        <ele>769.0116</ele>
        <time>2011-03-27T07:21:26Z</time>
      </trkpt>
      <trkpt lat="43.53399" lon="5.57366">
        <ele>769.0116</ele>
        <time>2011-03-27T07:21:27Z</time>
      </trkpt>
      <trkpt lat="43.53398" lon="5.57367">
        <ele>769.0116</ele>
        <time>2011-03-27T07:21:28Z</time>
      </trkpt>
      <trkpt lat="43.53397" lon="5.57368">
        <ele>769.0116</ele>
        <time>2011-03-27T07:21:29Z</time>
      </trkpt>
      <trkpt lat="43.53396" lon="5.5737">
        <ele>770.0116</ele>
        <time>2011-03-27T07:21:31Z</time>
      </trkpt>
      <trkpt lat="43.53396" lon="5.57371">
        <ele>770.0116</ele>
        <time>2011-03-27T07:21:32Z</time>
      </trkpt>
      <trkpt lat="43.53395" lon="5.57373">
        <ele>770.0116</ele>
        <time>2011-03-27T07:21:34Z</time>
      </trkpt>
      <trkpt lat="43.53395" lon="5.57375">
        <ele>770.0116</ele>
        <time>2011-03-27T07:21:35Z</time>
      </trkpt>
      <trkpt lat="43.53393" lon="5.57377">
        <ele>770.0116</ele>
        <time>2011-03-27T07:21:38Z</time>
      </trkpt>
      <trkpt lat="43.53392" lon="5.57378">
        <ele>769.0116</ele>
        <time>2011-03-27T07:21:39Z</time>
      </trkpt>
      <trkpt lat="43.53392" lon="5.57379">
        <ele>770.0116</ele>
        <time>2011-03-27T07:21:40Z</time>
      </trkpt>
      <trkpt lat="43.53392" lon="5.5738">
        <ele>770.0116</ele>
        <time>2011-03-27T07:21:41Z</time>
      </trkpt>
      <trkpt lat="43.53391" lon="5.57381">
        <ele>770.0116</ele>
        <time>2011-03-27T07:21:43Z</time>
      </trkpt>
      <trkpt lat="43.53391" lon="5.57382">
        <ele>770.0116</ele>
        <time>2011-03-27T07:21:44Z</time>
      </trkpt>
      <trkpt lat="43.53389" lon="5.57385">
        <ele>771.0116</ele>
        <time>2011-03-27T07:21:48Z</time>
      </trkpt>
      <trkpt lat="43.53389" lon="5.57385">
        <ele>771.0116</ele>
        <time>2011-03-27T07:21:49Z</time>
      </trkpt>
      <trkpt lat="43.53388" lon="5.57388">
        <ele>772.0116</ele>
        <time>2011-03-27T07:21:53Z</time>
      </trkpt>
      <trkpt lat="43.53387" lon="5.57389">
        <ele>773.0116</ele>
        <time>2011-03-27T07:21:54Z</time>
      </trkpt>
      <trkpt lat="43.53387" lon="5.57389">
        <ele>773.0116</ele>
        <time>2011-03-27T07:21:55Z</time>
      </trkpt>
      <trkpt lat="43.53386" lon="5.57391">
        <ele>774.0116</ele>
        <time>2011-03-27T07:21:58Z</time>
      </trkpt>
      <trkpt lat="43.53385" lon="5.57391">
        <ele>774.0116</ele>
        <time>2011-03-27T07:21:59Z</time>
      </trkpt>
      <trkpt lat="43.53383" lon="5.57397">
        <ele>775.0116</ele>
        <time>2011-03-27T07:22:07Z</time>
      </trkpt>
      <trkpt lat="43.53382" lon="5.57398">
        <ele>775.0117</ele>
        <time>2011-03-27T07:22:08Z</time>
      </trkpt>
      <trkpt lat="43.53381" lon="5.57399">
        <ele>775.0116</ele>
        <time>2011-03-27T07:22:09Z</time>
      </trkpt>
      <trkpt lat="43.53381" lon="5.574">
        <ele>775.0117</ele>
        <time>2011-03-27T07:22:10Z</time>
      </trkpt>
      <trkpt lat="43.53381" lon="5.57401">
        <ele>776.0117</ele>
        <time>2011-03-27T07:22:11Z</time>
      </trkpt>
      <trkpt lat="43.53381" lon="5.57401">
        <ele>776.0117</ele>
        <time>2011-03-27T07:22:12Z</time>
      </trkpt>
      <trkpt lat="43.5338" lon="5.57402">
        <ele>776.0117</ele>
        <time>2011-03-27T07:22:13Z</time>
      </trkpt>
      <trkpt lat="43.5338" lon="5.57403">
        <ele>776.0117</ele>
        <time>2011-03-27T07:22:14Z</time>
      </trkpt>
      <trkpt lat="43.53378" lon="5.5741">
        <ele>779.0117</ele>
        <time>2011-03-27T07:22:20Z</time>
      </trkpt>
      <trkpt lat="43.53378" lon="5.57411">
        <ele>779.0117</ele>
        <time>2011-03-27T07:22:21Z</time>
      </trkpt>
      <trkpt lat="43.53378" lon="5.57412">
        <ele>779.0117</ele>
        <time>2011-03-27T07:22:22Z</time>
      </trkpt>
      <trkpt lat="43.53377" lon="5.57413">
        <ele>779.0117</ele>
        <time>2011-03-27T07:22:23Z</time>
      </trkpt>
      <trkpt lat="43.53377" lon="5.57414">
        <ele>780.0117</ele>
        <time>2011-03-27T07:22:24Z</time>
      </trkpt>
      <trkpt lat="43.53376" lon="5.57414">
        <ele>780.0117</ele>
        <time>2011-03-27T07:22:25Z</time>
      </trkpt>
      <trkpt lat="43.53376" lon="5.57415">
        <ele>780.0117</ele>
        <time>2011-03-27T07:22:26Z</time>
      </trkpt>
      <trkpt lat="43.53375" lon="5.57416">
        <ele>780.0117</ele>
        <time>2011-03-27T07:22:27Z</time>
      </trkpt>
      <trkpt lat="43.53371" lon="5.57422">
        <ele>782.0117</ele>
        <time>2011-03-27T07:22:35Z</time>
      </trkpt>
      <trkpt lat="43.5337" lon="5.57422">
        <ele>783.0117</ele>
        <time>2011-03-27T07:22:36Z</time>
      </trkpt>
      <trkpt lat="43.5337" lon="5.57423">
        <ele>783.0117</ele>
        <time>2011-03-27T07:22:37Z</time>
      </trkpt>
      <trkpt lat="43.53369" lon="5.57424">
        <ele>784.0117</ele>
        <time>2011-03-27T07:22:38Z</time>
      </trkpt>
      <trkpt lat="43.53369" lon="5.57424">
        <ele>784.0117</ele>
        <time>2011-03-27T07:22:39Z</time>
      </trkpt>
      <trkpt lat="43.53368" lon="5.57425">
        <ele>785.0117</ele>
        <time>2011-03-27T07:22:40Z</time>
      </trkpt>
      <trkpt lat="43.53368" lon="5.57426">
        <ele>785.0117</ele>
        <time>2011-03-27T07:22:41Z</time>
      </trkpt>
      <trkpt lat="43.53367" lon="5.57426">
        <ele>786.0117</ele>
        <time>2011-03-27T07:22:42Z</time>
      </trkpt>
      <trkpt lat="43.53367" lon="5.57427">
        <ele>786.0117</ele>
        <time>2011-03-27T07:22:44Z</time>
      </trkpt>
      <trkpt lat="43.53366" lon="5.57427">
        <ele>786.0117</ele>
        <time>2011-03-27T07:22:45Z</time>
      </trkpt>
      <trkpt lat="43.53366" lon="5.57428">
        <ele>786.0117</ele>
        <time>2011-03-27T07:22:46Z</time>
      </trkpt>
      <trkpt lat="43.53365" lon="5.57429">
        <ele>787.0117</ele>
        <time>2011-03-27T07:22:47Z</time>
      </trkpt>
      <trkpt lat="43.53363" lon="5.57433">
        <ele>788.0117</ele>
        <time>2011-03-27T07:22:53Z</time>
      </trkpt>
      <trkpt lat="43.53363" lon="5.57434">
        <ele>788.0117</ele>
        <time>2011-03-27T07:22:54Z</time>
      </trkpt>
      <trkpt lat="43.53363" lon="5.57434">
        <ele>788.0117</ele>
        <time>2011-03-27T07:22:55Z</time>
      </trkpt>
      <trkpt lat="43.53362" lon="5.57435">
        <ele>788.0117</ele>
        <time>2011-03-27T07:22:56Z</time>
      </trkpt>
      <trkpt lat="43.53362" lon="5.57436">
        <ele>787.0117</ele>
        <time>2011-03-27T07:22:57Z</time>
      </trkpt>
      <trkpt lat="43.53362" lon="5.57437">
        <ele>788.0117</ele>
        <time>2011-03-27T07:22:58Z</time>
      </trkpt>
      <trkpt lat="43.53362" lon="5.57438">
        <ele>788.0117</ele>
        <time>2011-03-27T07:22:59Z</time>
      </trkpt>
      <trkpt lat="43.53362" lon="5.57438">
        <ele>788.0117</ele>
        <time>2011-03-27T07:23:00Z</time>
      </trkpt>
      <trkpt lat="43.53362" lon="5.57439">
        <ele>788.0117</ele>
        <time>2011-03-27T07:23:01Z</time>
      </trkpt>
      <trkpt lat="43.53361" lon="5.5744">
        <ele>788.0117</ele>
        <time>2011-03-27T07:23:02Z</time>
      </trkpt>
      <trkpt lat="43.53361" lon="5.57441">
        <ele>788.0117</ele>
        <time>2011-03-27T07:23:04Z</time>
      </trkpt>
      <trkpt lat="43.5336" lon="5.57442">
        <ele>789.0117</ele>
        <time>2011-03-27T07:23:05Z</time>
      </trkpt>
      <trkpt lat="43.5336" lon="5.57443">
        <ele>789.0117</ele>
        <time>2011-03-27T07:23:06Z</time>
      </trkpt>
      <trkpt lat="43.5336" lon="5.57443">
        <ele>789.0117</ele>
        <time>2011-03-27T07:23:07Z</time>
      </trkpt>
      <trkpt lat="43.5336" lon="5.57444">
        <ele>790.0117</ele>
        <time>2011-03-27T07:23:08Z</time>
      </trkpt>
      <trkpt lat="43.5336" lon="5.57445">
        <ele>790.0117</ele>
        <time>2011-03-27T07:23:09Z</time>
      </trkpt>
      <trkpt lat="43.5336" lon="5.57445">
        <ele>790.0117</ele>
        <time>2011-03-27T07:23:10Z</time>
      </trkpt>
      <trkpt lat="43.53359" lon="5.57445">
        <ele>790.0117</ele>
        <time>2011-03-27T07:23:11Z</time>
      </trkpt>
      <trkpt lat="43.53359" lon="5.57446">
        <ele>790.0117</ele>
        <time>2011-03-27T07:23:12Z</time>
      </trkpt>
      <trkpt lat="43.53359" lon="5.57446">
        <ele>790.0117</ele>
        <time>2011-03-27T07:23:13Z</time>
      </trkpt>
      <trkpt lat="43.53359" lon="5.57447">
        <ele>791.0117</ele>
        <time>2011-03-27T07:23:14Z</time>
      </trkpt>
      <trkpt lat="43.53358" lon="5.57447">
        <ele>791.0117</ele>
        <time>2011-03-27T07:23:15Z</time>
      </trkpt>
      <trkpt lat="43.53358" lon="5.57448">
        <ele>792.0117</ele>
        <time>2011-03-27T07:23:16Z</time>
      </trkpt>
      <trkpt lat="43.53357" lon="5.57449">
        <ele>792.0117</ele>
        <time>2011-03-27T07:23:18Z</time>
      </trkpt>
      <trkpt lat="43.53357" lon="5.57449">
        <ele>792.0117</ele>
        <time>2011-03-27T07:23:19Z</time>
      </trkpt>
      <trkpt lat="43.53357" lon="5.5745">
        <ele>792.0117</ele>
        <time>2011-03-27T07:23:20Z</time>
      </trkpt>
      <trkpt lat="43.53357" lon="5.57451">
        <ele>793.0117</ele>
        <time>2011-03-27T07:23:21Z</time>
      </trkpt>
      <trkpt lat="43.53357" lon="5.57454">
        <ele>793.0117</ele>
        <time>2011-03-27T07:23:25Z</time>
      </trkpt>
      <trkpt lat="43.53357" lon="5.57455">
        <ele>793.0117</ele>
        <time>2011-03-27T07:23:26Z</time>
      </trkpt>
      <trkpt lat="43.53357" lon="5.57456">
        <ele>794.0117</ele>
        <time>2011-03-27T07:23:27Z</time>
      </trkpt>
      <trkpt lat="43.53357" lon="5.57457">
        <ele>794.0117</ele>
        <time>2011-03-27T07:23:28Z</time>
      </trkpt>
      <trkpt lat="43.53357" lon="5.57458">
        <ele>794.0117</ele>
        <time>2011-03-27T07:23:29Z</time>
      </trkpt>
      <trkpt lat="43.53357" lon="5.5746">
        <ele>794.0117</ele>
        <time>2011-03-27T07:23:30Z</time>
      </trkpt>
      <trkpt lat="43.53358" lon="5.57463">
        <ele>795.0117</ele>
        <time>2011-03-27T07:23:34Z</time>
      </trkpt>
      <trkpt lat="43.53358" lon="5.57464">
        <ele>795.0117</ele>
        <time>2011-03-27T07:23:35Z</time>
      </trkpt>
      <trkpt lat="43.53359" lon="5.57467">
        <ele>794.0117</ele>
        <time>2011-03-27T07:23:39Z</time>
      </trkpt>
      <trkpt lat="43.53359" lon="5.57468">
        <ele>794.0117</ele>
        <time>2011-03-27T07:23:40Z</time>
      </trkpt>
      <trkpt lat="43.53359" lon="5.57468">
        <ele>795.0117</ele>
        <time>2011-03-27T07:23:41Z</time>
      </trkpt>
      <trkpt lat="43.53359" lon="5.57468">
        <ele>795.0117</ele>
        <time>2011-03-27T07:23:42Z</time>
      </trkpt>
      <trkpt lat="43.53359" lon="5.57468">
        <ele>795.0117</ele>
        <time>2011-03-27T07:23:43Z</time>
      </trkpt>
      <trkpt lat="43.53359" lon="5.57468">
        <ele>795.0117</ele>
        <time>2011-03-27T07:23:44Z</time>
      </trkpt>
      <trkpt lat="43.53358" lon="5.57467">
        <ele>795.0117</ele>
        <time>2011-03-27T07:23:45Z</time>
      </trkpt>
      <trkpt lat="43.53358" lon="5.57467">
        <ele>796.0117</ele>
        <time>2011-03-27T07:23:46Z</time>
      </trkpt>
      <trkpt lat="43.53356" lon="5.57463">
        <ele>798.0117</ele>
        <time>2011-03-27T07:23:50Z</time>
      </trkpt>
      <trkpt lat="43.53355" lon="5.57463">
        <ele>798.0117</ele>
        <time>2011-03-27T07:23:51Z</time>
      </trkpt>
      <trkpt lat="43.53354" lon="5.57462">
        <ele>798.0117</ele>
        <time>2011-03-27T07:23:53Z</time>
      </trkpt>
      <trkpt lat="43.53354" lon="5.57459">
        <ele>798.0117</ele>
        <time>2011-03-27T07:23:54Z</time>
      </trkpt>
      <trkpt lat="43.53351" lon="5.57452">
        <ele>799.0117</ele>
        <time>2011-03-27T07:23:58Z</time>
      </trkpt>
      <trkpt lat="43.53351" lon="5.5745">
        <ele>799.0117</ele>
        <time>2011-03-27T07:23:59Z</time>
      </trkpt>
      <trkpt lat="43.5335" lon="5.57448">
        <ele>799.0117</ele>
        <time>2011-03-27T07:24:01Z</time>
      </trkpt>
      <trkpt lat="43.5335" lon="5.57447">
        <ele>799.0117</ele>
        <time>2011-03-27T07:24:02Z</time>
      </trkpt>
      <trkpt lat="43.53348" lon="5.57444">
        <ele>800.0117</ele>
        <time>2011-03-27T07:24:06Z</time>
      </trkpt>
      <trkpt lat="43.53348" lon="5.57444">
        <ele>800.0117</ele>
        <time>2011-03-27T07:24:07Z</time>
      </trkpt>
      <trkpt lat="43.53346" lon="5.57443">
        <ele>800.0117</ele>
        <time>2011-03-27T07:24:08Z</time>
      </trkpt>
      <trkpt lat="43.53345" lon="5.57442">
        <ele>800.0117</ele>
        <time>2011-03-27T07:24:09Z</time>
      </trkpt>
      <trkpt lat="43.53342" lon="5.57441">
        <ele>800.0117</ele>
        <time>2011-03-27T07:24:11Z</time>
      </trkpt>
      <trkpt lat="43.53341" lon="5.57441">
        <ele>800.0117</ele>
        <time>2011-03-27T07:24:12Z</time>
      </trkpt>
      <trkpt lat="43.53339" lon="5.5744">
        <ele>801.0116</ele>
        <time>2011-03-27T07:24:13Z</time>
      </trkpt>
      <trkpt lat="43.53338" lon="5.5744">
        <ele>801.0116</ele>
        <time>2011-03-27T07:24:14Z</time>
      </trkpt>
      <trkpt lat="43.53336" lon="5.57439">
        <ele>801.0116</ele>
        <time>2011-03-27T07:24:15Z</time>
      </trkpt>
      <trkpt lat="43.5333" lon="5.57439">
        <ele>802.0116</ele>
        <time>2011-03-27T07:24:18Z</time>
      </trkpt>
      <trkpt lat="43.53329" lon="5.57439">
        <ele>802.0116</ele>
        <time>2011-03-27T07:24:19Z</time>
      </trkpt>
      <trkpt lat="43.53328" lon="5.57439">
        <ele>803.0116</ele>
        <time>2011-03-27T07:24:20Z</time>
      </trkpt>
      <trkpt lat="43.53327" lon="5.5744">
        <ele>803.0116</ele>
        <time>2011-03-27T07:24:21Z</time>
      </trkpt>
      <trkpt lat="43.53326" lon="5.5744">
        <ele>803.0116</ele>
        <time>2011-03-27T07:24:22Z</time>
      </trkpt>
      <trkpt lat="43.53326" lon="5.57442">
        <ele>804.0116</ele>
        <time>2011-03-27T07:24:26Z</time>
      </trkpt>
      <trkpt lat="43.53326" lon="5.57443">
        <ele>804.0116</ele>
        <time>2011-03-27T07:24:27Z</time>
      </trkpt>
      <trkpt lat="43.53326" lon="5.57445">
        <ele>804.0116</ele>
        <time>2011-03-27T07:24:28Z</time>
      </trkpt>
      <trkpt lat="43.53326" lon="5.57446">
        <ele>804.0116</ele>
        <time>2011-03-27T07:24:29Z</time>
      </trkpt>
      <trkpt lat="43.53326" lon="5.57447">
        <ele>804.0116</ele>
        <time>2011-03-27T07:24:30Z</time>
      </trkpt>
      <trkpt lat="43.53327" lon="5.57448">
        <ele>804.0116</ele>
        <time>2011-03-27T07:24:31Z</time>
      </trkpt>
      <trkpt lat="43.53327" lon="5.57449">
        <ele>804.0116</ele>
        <time>2011-03-27T07:24:32Z</time>
      </trkpt>
      <trkpt lat="43.53328" lon="5.57451">
        <ele>805.0116</ele>
        <time>2011-03-27T07:24:33Z</time>
      </trkpt>
      <trkpt lat="43.53328" lon="5.57452">
        <ele>805.0116</ele>
        <time>2011-03-27T07:24:34Z</time>
      </trkpt>
      <trkpt lat="43.53328" lon="5.57453">
        <ele>805.0117</ele>
        <time>2011-03-27T07:24:35Z</time>
      </trkpt>
      <trkpt lat="43.53328" lon="5.57454">
        <ele>805.0117</ele>
        <time>2011-03-27T07:24:36Z</time>
      </trkpt>
      <trkpt lat="43.53331" lon="5.57461">
        <ele>807.0117</ele>
        <time>2011-03-27T07:24:46Z</time>
      </trkpt>
      <trkpt lat="43.5333" lon="5.57461">
        <ele>807.0117</ele>
        <time>2011-03-27T07:24:47Z</time>
      </trkpt>
      <trkpt lat="43.53331" lon="5.57462">
        <ele>807.0117</ele>
        <time>2011-03-27T07:24:48Z</time>
      </trkpt>
      <trkpt lat="43.53331" lon="5.57462">
        <ele>807.0117</ele>
        <time>2011-03-27T07:24:49Z</time>
      </trkpt>
      <trkpt lat="43.53331" lon="5.57462">
        <ele>807.0117</ele>
        <time>2011-03-27T07:24:50Z</time>
      </trkpt>
      <trkpt lat="43.5333" lon="5.57463">
        <ele>808.0117</ele>
        <time>2011-03-27T07:24:51Z</time>
      </trkpt>
      <trkpt lat="43.5333" lon="5.57463">
        <ele>808.0117</ele>
        <time>2011-03-27T07:24:52Z</time>
      </trkpt>
      <trkpt lat="43.5333" lon="5.57463">
        <ele>808.0117</ele>
        <time>2011-03-27T07:24:53Z</time>
      </trkpt>
      <trkpt lat="43.53328" lon="5.57465">
        <ele>809.0117</ele>
        <time>2011-03-27T07:24:58Z</time>
      </trkpt>
      <trkpt lat="43.53328" lon="5.57465">
        <ele>809.0117</ele>
        <time>2011-03-27T07:24:59Z</time>
      </trkpt>
      <trkpt lat="43.53328" lon="5.57465">
        <ele>810.0117</ele>
        <time>2011-03-27T07:25:00Z</time>
      </trkpt>
      <trkpt lat="43.53326" lon="5.57466">
        <ele>811.0117</ele>
        <time>2011-03-27T07:25:03Z</time>
      </trkpt>
      <trkpt lat="43.53325" lon="5.57466">
        <ele>811.0117</ele>
        <time>2011-03-27T07:25:04Z</time>
      </trkpt>
      <trkpt lat="43.53324" lon="5.57467">
        <ele>811.0117</ele>
        <time>2011-03-27T07:25:06Z</time>
      </trkpt>
      <trkpt lat="43.53324" lon="5.57467">
        <ele>811.0117</ele>
        <time>2011-03-27T07:25:07Z</time>
      </trkpt>
      <trkpt lat="43.53323" lon="5.57467">
        <ele>812.0117</ele>
        <time>2011-03-27T07:25:08Z</time>
      </trkpt>
      <trkpt lat="43.53323" lon="5.57467">
        <ele>812.0117</ele>
        <time>2011-03-27T07:25:09Z</time>
      </trkpt>
      <trkpt lat="43.53322" lon="5.57468">
        <ele>812.0117</ele>
        <time>2011-03-27T07:25:11Z</time>
      </trkpt>
      <trkpt lat="43.53322" lon="5.57468">
        <ele>812.0117</ele>
        <time>2011-03-27T07:25:12Z</time>
      </trkpt>
      <trkpt lat="43.53321" lon="5.57468">
        <ele>812.0117</ele>
        <time>2011-03-27T07:25:13Z</time>
      </trkpt>
      <trkpt lat="43.5332" lon="5.57469">
        <ele>812.0117</ele>
        <time>2011-03-27T07:25:14Z</time>
      </trkpt>
      <trkpt lat="43.53319" lon="5.57469">
        <ele>813.0117</ele>
        <time>2011-03-27T07:25:16Z</time>
      </trkpt>
      <trkpt lat="43.53319" lon="5.5747">
        <ele>813.0117</ele>
        <time>2011-03-27T07:25:17Z</time>
      </trkpt>
      <trkpt lat="43.53313" lon="5.57473">
        <ele>818.0117</ele>
        <time>2011-03-27T07:25:31Z</time>
      </trkpt>
      <trkpt lat="43.53312" lon="5.57474">
        <ele>818.0117</ele>
        <time>2011-03-27T07:25:32Z</time>
      </trkpt>
      <trkpt lat="43.53309" lon="5.57474">
        <ele>818.0117</ele>
        <time>2011-03-27T07:25:36Z</time>
      </trkpt>
      <trkpt lat="43.53309" lon="5.57474">
        <ele>819.0117</ele>
        <time>2011-03-27T07:25:37Z</time>
      </trkpt>
      <trkpt lat="43.53308" lon="5.57475">
        <ele>819.0117</ele>
        <time>2011-03-27T07:25:38Z</time>
      </trkpt>
      <trkpt lat="43.53307" lon="5.57475">
        <ele>820.0117</ele>
        <time>2011-03-27T07:25:39Z</time>
      </trkpt>
      <trkpt lat="43.53307" lon="5.57475">
        <ele>820.0117</ele>
        <time>2011-03-27T07:25:40Z</time>
      </trkpt>
      <trkpt lat="43.53306" lon="5.57475">
        <ele>821.0117</ele>
        <time>2011-03-27T07:25:41Z</time>
      </trkpt>
      <trkpt lat="43.53306" lon="5.57475">
        <ele>821.0117</ele>
        <time>2011-03-27T07:25:42Z</time>
      </trkpt>
      <trkpt lat="43.53305" lon="5.57476">
        <ele>822.0117</ele>
        <time>2011-03-27T07:25:43Z</time>
      </trkpt>
      <trkpt lat="43.53305" lon="5.57476">
        <ele>822.0117</ele>
        <time>2011-03-27T07:25:45Z</time>
      </trkpt>
      <trkpt lat="43.53304" lon="5.57477">
        <ele>822.0117</ele>
        <time>2011-03-27T07:25:46Z</time>
      </trkpt>
      <trkpt lat="43.53302" lon="5.57479">
        <ele>823.0117</ele>
        <time>2011-03-27T07:25:51Z</time>
      </trkpt>
      <trkpt lat="43.53302" lon="5.5748">
        <ele>823.0117</ele>
        <time>2011-03-27T07:25:52Z</time>
      </trkpt>
      <trkpt lat="43.53302" lon="5.57484">
        <ele>824.0117</ele>
        <time>2011-03-27T07:25:57Z</time>
      </trkpt>
      <trkpt lat="43.53301" lon="5.57484">
        <ele>824.0117</ele>
        <time>2011-03-27T07:25:58Z</time>
      </trkpt>
      <trkpt lat="43.53302" lon="5.57485">
        <ele>824.0117</ele>
        <time>2011-03-27T07:25:59Z</time>
      </trkpt>
      <trkpt lat="43.53301" lon="5.57486">
        <ele>824.0117</ele>
        <time>2011-03-27T07:26:00Z</time>
      </trkpt>
      <trkpt lat="43.53301" lon="5.57487">
        <ele>825.0117</ele>
        <time>2011-03-27T07:26:01Z</time>
      </trkpt>
      <trkpt lat="43.53301" lon="5.57489">
        <ele>825.0117</ele>
        <time>2011-03-27T07:26:02Z</time>
      </trkpt>
      <trkpt lat="43.533" lon="5.5749">
        <ele>825.0117</ele>
        <time>2011-03-27T07:26:04Z</time>
      </trkpt>
      <trkpt lat="43.53299" lon="5.57492">
        <ele>825.0117</ele>
        <time>2011-03-27T07:26:05Z</time>
      </trkpt>
      <trkpt lat="43.53298" lon="5.57494">
        <ele>826.0117</ele>
        <time>2011-03-27T07:26:07Z</time>
      </trkpt>
      <trkpt lat="43.53297" lon="5.57495">
        <ele>826.0117</ele>
        <time>2011-03-27T07:26:08Z</time>
      </trkpt>
      <trkpt lat="43.53297" lon="5.57496">
        <ele>826.0117</ele>
        <time>2011-03-27T07:26:09Z</time>
      </trkpt>
      <trkpt lat="43.53296" lon="5.57497">
        <ele>826.0117</ele>
        <time>2011-03-27T07:26:10Z</time>
      </trkpt>
      <trkpt lat="43.53296" lon="5.57498">
        <ele>826.0117</ele>
        <time>2011-03-27T07:26:11Z</time>
      </trkpt>
      <trkpt lat="43.53295" lon="5.57499">
        <ele>827.0117</ele>
        <time>2011-03-27T07:26:12Z</time>
      </trkpt>
      <trkpt lat="43.53295" lon="5.575">
        <ele>827.0117</ele>
        <time>2011-03-27T07:26:13Z</time>
      </trkpt>
      <trkpt lat="43.53294" lon="5.575">
        <ele>827.0117</ele>
        <time>2011-03-27T07:26:14Z</time>
      </trkpt>
      <trkpt lat="43.53293" lon="5.57502">
        <ele>828.0117</ele>
        <time>2011-03-27T07:26:16Z</time>
      </trkpt>
      <trkpt lat="43.53293" lon="5.57503">
        <ele>829.0117</ele>
        <time>2011-03-27T07:26:17Z</time>
      </trkpt>
      <trkpt lat="43.53292" lon="5.57504">
        <ele>829.0117</ele>
        <time>2011-03-27T07:26:21Z</time>
      </trkpt>
      <trkpt lat="43.53291" lon="5.57504">
        <ele>829.0117</ele>
        <time>2011-03-27T07:26:22Z</time>
      </trkpt>
      <trkpt lat="43.53291" lon="5.57504">
        <ele>829.0117</ele>
        <time>2011-03-27T07:26:23Z</time>
      </trkpt>
      <trkpt lat="43.53291" lon="5.57505">
        <ele>829.0117</ele>
        <time>2011-03-27T07:26:24Z</time>
      </trkpt>
      <trkpt lat="43.5329" lon="5.57505">
        <ele>829.0117</ele>
        <time>2011-03-27T07:26:25Z</time>
      </trkpt>
      <trkpt lat="43.53286" lon="5.5751">
        <ele>831.0117</ele>
        <time>2011-03-27T07:26:33Z</time>
      </trkpt>
      <trkpt lat="43.53285" lon="5.57511">
        <ele>831.0117</ele>
        <time>2011-03-27T07:26:34Z</time>
      </trkpt>
      <trkpt lat="43.53285" lon="5.57512">
        <ele>832.0117</ele>
        <time>2011-03-27T07:26:35Z</time>
      </trkpt>
      <trkpt lat="43.53284" lon="5.57513">
        <ele>832.0117</ele>
        <time>2011-03-27T07:26:36Z</time>
      </trkpt>
      <trkpt lat="43.53284" lon="5.57513">
        <ele>832.0117</ele>
        <time>2011-03-27T07:26:37Z</time>
      </trkpt>
      <trkpt lat="43.53283" lon="5.57514">
        <ele>832.0117</ele>
        <time>2011-03-27T07:26:38Z</time>
      </trkpt>
      <trkpt lat="43.53283" lon="5.57515">
        <ele>832.0117</ele>
        <time>2011-03-27T07:26:39Z</time>
      </trkpt>
      <trkpt lat="43.53282" lon="5.57515">
        <ele>832.0117</ele>
        <time>2011-03-27T07:26:40Z</time>
      </trkpt>
      <trkpt lat="43.53281" lon="5.57518">
        <ele>833.0117</ele>
        <time>2011-03-27T07:26:44Z</time>
      </trkpt>
      <trkpt lat="43.5328" lon="5.57519">
        <ele>833.0117</ele>
        <time>2011-03-27T07:26:45Z</time>
      </trkpt>
      <trkpt lat="43.5328" lon="5.57519">
        <ele>834.0117</ele>
        <time>2011-03-27T07:26:46Z</time>
      </trkpt>
      <trkpt lat="43.53278" lon="5.57521">
        <ele>835.0117</ele>
        <time>2011-03-27T07:26:50Z</time>
      </trkpt>
      <trkpt lat="43.53278" lon="5.57521">
        <ele>835.0117</ele>
        <time>2011-03-27T07:26:51Z</time>
      </trkpt>
      <trkpt lat="43.53278" lon="5.57521">
        <ele>836.0117</ele>
        <time>2011-03-27T07:26:52Z</time>
      </trkpt>
      <trkpt lat="43.53277" lon="5.57521">
        <ele>836.0117</ele>
        <time>2011-03-27T07:26:53Z</time>
      </trkpt>
      <trkpt lat="43.53277" lon="5.57522">
        <ele>836.0117</ele>
        <time>2011-03-27T07:26:54Z</time>
      </trkpt>
      <trkpt lat="43.53276" lon="5.57522">
        <ele>837.0117</ele>
        <time>2011-03-27T07:26:55Z</time>
      </trkpt>
      <trkpt lat="43.53276" lon="5.57522">
        <ele>837.0117</ele>
        <time>2011-03-27T07:26:56Z</time>
      </trkpt>
      <trkpt lat="43.53276" lon="5.57522">
        <ele>837.0117</ele>
        <time>2011-03-27T07:26:57Z</time>
      </trkpt>
      <trkpt lat="43.53275" lon="5.57522">
        <ele>837.0117</ele>
        <time>2011-03-27T07:26:58Z</time>
      </trkpt>
      <trkpt lat="43.53271" lon="5.57522">
        <ele>838.0117</ele>
        <time>2011-03-27T07:27:04Z</time>
      </trkpt>
      <trkpt lat="43.5327" lon="5.57522">
        <ele>838.0117</ele>
        <time>2011-03-27T07:27:05Z</time>
      </trkpt>
      <trkpt lat="43.5327" lon="5.57523">
        <ele>838.0117</ele>
        <time>2011-03-27T07:27:07Z</time>
      </trkpt>
      <trkpt lat="43.53269" lon="5.57523">
        <ele>838.0117</ele>
        <time>2011-03-27T07:27:08Z</time>
      </trkpt>
      <trkpt lat="43.53268" lon="5.57524">
        <ele>839.0117</ele>
        <time>2011-03-27T07:27:09Z</time>
      </trkpt>
      <trkpt lat="43.53268" lon="5.57524">
        <ele>839.0117</ele>
        <time>2011-03-27T07:27:10Z</time>
      </trkpt>
      <trkpt lat="43.53268" lon="5.57525">
        <ele>839.0117</ele>
        <time>2011-03-27T07:27:11Z</time>
      </trkpt>
      <trkpt lat="43.53267" lon="5.57525">
        <ele>839.0117</ele>
        <time>2011-03-27T07:27:12Z</time>
      </trkpt>
      <trkpt lat="43.53267" lon="5.57525">
        <ele>839.0117</ele>
        <time>2011-03-27T07:27:13Z</time>
      </trkpt>
      <trkpt lat="43.53267" lon="5.57527">
        <ele>839.0117</ele>
        <time>2011-03-27T07:27:14Z</time>
      </trkpt>
      <trkpt lat="43.53267" lon="5.57529">
        <ele>840.0117</ele>
        <time>2011-03-27T07:27:16Z</time>
      </trkpt>
      <trkpt lat="43.53266" lon="5.5753">
        <ele>841.0117</ele>
        <time>2011-03-27T07:27:17Z</time>
      </trkpt>
      <trkpt lat="43.53266" lon="5.57531">
        <ele>841.0117</ele>
        <time>2011-03-27T07:27:18Z</time>
      </trkpt>
      <trkpt lat="43.53266" lon="5.57531">
        <ele>841.0117</ele>
        <time>2011-03-27T07:27:19Z</time>
      </trkpt>
      <trkpt lat="43.53265" lon="5.57534">
        <ele>843.0117</ele>
        <time>2011-03-27T07:27:25Z</time>
      </trkpt>
      <trkpt lat="43.53264" lon="5.57535">
        <ele>843.0117</ele>
        <time>2011-03-27T07:27:26Z</time>
      </trkpt>
      <trkpt lat="43.53264" lon="5.57535">
        <ele>843.0117</ele>
        <time>2011-03-27T07:27:27Z</time>
      </trkpt>
      <trkpt lat="43.53264" lon="5.57536">
        <ele>843.0117</ele>
        <time>2011-03-27T07:27:28Z</time>
      </trkpt>
      <trkpt lat="43.53264" lon="5.57536">
        <ele>843.0117</ele>
        <time>2011-03-27T07:27:30Z</time>
      </trkpt>
      <trkpt lat="43.53263" lon="5.57537">
        <ele>843.0117</ele>
        <time>2011-03-27T07:27:31Z</time>
      </trkpt>
      <trkpt lat="43.53262" lon="5.57538">
        <ele>844.0117</ele>
        <time>2011-03-27T07:27:34Z</time>
      </trkpt>
      <trkpt lat="43.53262" lon="5.57538">
        <ele>844.0117</ele>
        <time>2011-03-27T07:27:35Z</time>
      </trkpt>
      <trkpt lat="43.53262" lon="5.57538">
        <ele>844.0117</ele>
        <time>2011-03-27T07:27:36Z</time>
      </trkpt>
      <trkpt lat="43.53262" lon="5.57538">
        <ele>844.0117</ele>
        <time>2011-03-27T07:27:37Z</time>
      </trkpt>
      <trkpt lat="43.53262" lon="5.57538">
        <ele>844.0117</ele>
        <time>2011-03-27T07:27:38Z</time>
      </trkpt>
      <trkpt lat="43.53261" lon="5.57538">
        <ele>844.0117</ele>
        <time>2011-03-27T07:27:39Z</time>
      </trkpt>
      <trkpt lat="43.53261" lon="5.57538">
        <ele>845.0117</ele>
        <time>2011-03-27T07:27:40Z</time>
      </trkpt>
      <trkpt lat="43.5326" lon="5.57539">
        <ele>845.0117</ele>
        <time>2011-03-27T07:27:42Z</time>
      </trkpt>
      <trkpt lat="43.53259" lon="5.57539">
        <ele>845.0117</ele>
        <time>2011-03-27T07:27:43Z</time>
      </trkpt>
      <trkpt lat="43.53259" lon="5.5754">
        <ele>845.0117</ele>
        <time>2011-03-27T07:27:44Z</time>
      </trkpt>
      <trkpt lat="43.53259" lon="5.5754">
        <ele>845.0117</ele>
        <time>2011-03-27T07:27:45Z</time>
      </trkpt>
      <trkpt lat="43.53258" lon="5.57541">
        <ele>845.0117</ele>
        <time>2011-03-27T07:27:46Z</time>
      </trkpt>
      <trkpt lat="43.53258" lon="5.57541">
        <ele>845.0117</ele>
        <time>2011-03-27T07:27:47Z</time>
      </trkpt>
      <trkpt lat="43.53257" lon="5.57541">
        <ele>845.0117</ele>
        <time>2011-03-27T07:27:48Z</time>
      </trkpt>
      <trkpt lat="43.53257" lon="5.57541">
        <ele>845.0117</ele>
        <time>2011-03-27T07:27:49Z</time>
      </trkpt>
      <trkpt lat="43.53257" lon="5.57541">
        <ele>845.0117</ele>
        <time>2011-03-27T07:27:50Z</time>
      </trkpt>
      <trkpt lat="43.53256" lon="5.57542">
        <ele>846.0117</ele>
        <time>2011-03-27T07:27:51Z</time>
      </trkpt>
      <trkpt lat="43.53255" lon="5.57542">
        <ele>846.0117</ele>
        <time>2011-03-27T07:27:52Z</time>
      </trkpt>
      <trkpt lat="43.53254" lon="5.57543">
        <ele>846.0117</ele>
        <time>2011-03-27T07:27:53Z</time>
      </trkpt>
      <trkpt lat="43.53252" lon="5.57544">
        <ele>846.0117</ele>
        <time>2011-03-27T07:27:54Z</time>
      </trkpt>
      <trkpt lat="43.5325" lon="5.57547">
        <ele>848.0117</ele>
        <time>2011-03-27T07:27:58Z</time>
      </trkpt>
      <trkpt lat="43.53249" lon="5.57548">
        <ele>849.0117</ele>
        <time>2011-03-27T07:27:59Z</time>
      </trkpt>
      <trkpt lat="43.53249" lon="5.57549">
        <ele>849.0117</ele>
        <time>2011-03-27T07:28:00Z</time>
      </trkpt>
      <trkpt lat="43.53248" lon="5.57549">
        <ele>849.0117</ele>
        <time>2011-03-27T07:28:01Z</time>
      </trkpt>
      <trkpt lat="43.53248" lon="5.57551">
        <ele>849.0117</ele>
        <time>2011-03-27T07:28:02Z</time>
      </trkpt>
      <trkpt lat="43.53248" lon="5.57552">
        <ele>849.0117</ele>
        <time>2011-03-27T07:28:03Z</time>
      </trkpt>
      <trkpt lat="43.53247" lon="5.57554">
        <ele>849.0117</ele>
        <time>2011-03-27T07:28:05Z</time>
      </trkpt>
      <trkpt lat="43.53246" lon="5.57555">
        <ele>849.0117</ele>
        <time>2011-03-27T07:28:06Z</time>
      </trkpt>
      <trkpt lat="43.53243" lon="5.57561">
        <ele>851.0117</ele>
        <time>2011-03-27T07:28:13Z</time>
      </trkpt>
      <trkpt lat="43.53243" lon="5.57562">
        <ele>851.0117</ele>
        <time>2011-03-27T07:28:14Z</time>
      </trkpt>
      <trkpt lat="43.53241" lon="5.57564">
        <ele>851.0117</ele>
        <time>2011-03-27T07:28:18Z</time>
      </trkpt>
      <trkpt lat="43.53241" lon="5.57565">
        <ele>852.0117</ele>
        <time>2011-03-27T07:28:19Z</time>
      </trkpt>
      <trkpt lat="43.53241" lon="5.57567">
        <ele>853.0117</ele>
        <time>2011-03-27T07:28:23Z</time>
      </trkpt>
      <trkpt lat="43.5324" lon="5.57568">
        <ele>854.0117</ele>
        <time>2011-03-27T07:28:24Z</time>
      </trkpt>
      <trkpt lat="43.53239" lon="5.5757">
        <ele>855.0117</ele>
        <time>2011-03-27T07:28:28Z</time>
      </trkpt>
      <trkpt lat="43.53239" lon="5.57571">
        <ele>856.0117</ele>
        <time>2011-03-27T07:28:29Z</time>
      </trkpt>
      <trkpt lat="43.53237" lon="5.57575">
        <ele>857.0117</ele>
        <time>2011-03-27T07:28:35Z</time>
      </trkpt>
      <trkpt lat="43.53236" lon="5.57576">
        <ele>857.0117</ele>
        <time>2011-03-27T07:28:36Z</time>
      </trkpt>
      <trkpt lat="43.53236" lon="5.57577">
        <ele>857.0117</ele>
        <time>2011-03-27T07:28:37Z</time>
      </trkpt>
      <trkpt lat="43.53236" lon="5.57578">
        <ele>857.0117</ele>
        <time>2011-03-27T07:28:38Z</time>
      </trkpt>
      <trkpt lat="43.53235" lon="5.57578">
        <ele>857.0117</ele>
        <time>2011-03-27T07:28:39Z</time>
      </trkpt>
      <trkpt lat="43.53235" lon="5.57579">
        <ele>857.0117</ele>
        <time>2011-03-27T07:28:40Z</time>
      </trkpt>
      <trkpt lat="43.53235" lon="5.57579">
        <ele>857.0117</ele>
        <time>2011-03-27T07:28:41Z</time>
      </trkpt>
      <trkpt lat="43.53234" lon="5.5758">
        <ele>857.0117</ele>
        <time>2011-03-27T07:28:42Z</time>
      </trkpt>
      <trkpt lat="43.53234" lon="5.5758">
        <ele>857.0117</ele>
        <time>2011-03-27T07:28:43Z</time>
      </trkpt>
      <trkpt lat="43.53233" lon="5.5758">
        <ele>857.0117</ele>
        <time>2011-03-27T07:28:44Z</time>
      </trkpt>
      <trkpt lat="43.53231" lon="5.57581">
        <ele>857.0117</ele>
        <time>2011-03-27T07:28:49Z</time>
      </trkpt>
      <trkpt lat="43.53231" lon="5.57581">
        <ele>858.0117</ele>
        <time>2011-03-27T07:28:50Z</time>
      </trkpt>
      <trkpt lat="43.53231" lon="5.57581">
        <ele>858.0117</ele>
        <time>2011-03-27T07:28:51Z</time>
      </trkpt>
      <trkpt lat="43.53231" lon="5.57581">
        <ele>858.0117</ele>
        <time>2011-03-27T07:28:52Z</time>
      </trkpt>
      <trkpt lat="43.5323" lon="5.57581">
        <ele>859.0117</ele>
        <time>2011-03-27T07:28:53Z</time>
      </trkpt>
      <trkpt lat="43.5323" lon="5.57581">
        <ele>859.0117</ele>
        <time>2011-03-27T07:28:54Z</time>
      </trkpt>
      <trkpt lat="43.53229" lon="5.57581">
        <ele>859.0117</ele>
        <time>2011-03-27T07:28:55Z</time>
      </trkpt>
      <trkpt lat="43.53229" lon="5.57581">
        <ele>859.0117</ele>
        <time>2011-03-27T07:28:56Z</time>
      </trkpt>
      <trkpt lat="43.53227" lon="5.57582">
        <ele>860.0117</ele>
        <time>2011-03-27T07:29:00Z</time>
      </trkpt>
      <trkpt lat="43.53226" lon="5.57582">
        <ele>860.0117</ele>
        <time>2011-03-27T07:29:01Z</time>
      </trkpt>
      <trkpt lat="43.53226" lon="5.57583">
        <ele>860.0117</ele>
        <time>2011-03-27T07:29:02Z</time>
      </trkpt>
      <trkpt lat="43.53225" lon="5.57583">
        <ele>860.0117</ele>
        <time>2011-03-27T07:29:03Z</time>
      </trkpt>
      <trkpt lat="43.53225" lon="5.57584">
        <ele>860.0117</ele>
        <time>2011-03-27T07:29:04Z</time>
      </trkpt>
      <trkpt lat="43.53224" lon="5.57584">
        <ele>860.0117</ele>
        <time>2011-03-27T07:29:05Z</time>
      </trkpt>
      <trkpt lat="43.53224" lon="5.57585">
        <ele>860.0117</ele>
        <time>2011-03-27T07:29:06Z</time>
      </trkpt>
      <trkpt lat="43.53223" lon="5.57585">
        <ele>860.0117</ele>
        <time>2011-03-27T07:29:07Z</time>
      </trkpt>
      <trkpt lat="43.53223" lon="5.57586">
        <ele>860.0117</ele>
        <time>2011-03-27T07:29:08Z</time>
      </trkpt>
      <trkpt lat="43.53223" lon="5.57586">
        <ele>860.0117</ele>
        <time>2011-03-27T07:29:09Z</time>
      </trkpt>
      <trkpt lat="43.53222" lon="5.57587">
        <ele>861.0117</ele>
        <time>2011-03-27T07:29:10Z</time>
      </trkpt>
      <trkpt lat="43.53222" lon="5.57587">
        <ele>861.0117</ele>
        <time>2011-03-27T07:29:11Z</time>
      </trkpt>
      <trkpt lat="43.5322" lon="5.57589">
        <ele>862.0117</ele>
        <time>2011-03-27T07:29:17Z</time>
      </trkpt>
      <trkpt lat="43.5322" lon="5.57589">
        <ele>862.0117</ele>
        <time>2011-03-27T07:29:18Z</time>
      </trkpt>
      <trkpt lat="43.5322" lon="5.5759">
        <ele>863.0117</ele>
        <time>2011-03-27T07:29:19Z</time>
      </trkpt>
      <trkpt lat="43.53219" lon="5.5759">
        <ele>863.0117</ele>
        <time>2011-03-27T07:29:20Z</time>
      </trkpt>
      <trkpt lat="43.53219" lon="5.57591">
        <ele>864.0117</ele>
        <time>2011-03-27T07:29:21Z</time>
      </trkpt>
      <trkpt lat="43.53219" lon="5.57592">
        <ele>865.0117</ele>
        <time>2011-03-27T07:29:22Z</time>
      </trkpt>
      <trkpt lat="43.53219" lon="5.57592">
        <ele>865.0117</ele>
        <time>2011-03-27T07:29:23Z</time>
      </trkpt>
      <trkpt lat="43.53218" lon="5.57593">
        <ele>866.0117</ele>
        <time>2011-03-27T07:29:24Z</time>
      </trkpt>
      <trkpt lat="43.53215" lon="5.57596">
        <ele>866.0117</ele>
        <time>2011-03-27T07:29:30Z</time>
      </trkpt>
      <trkpt lat="43.53214" lon="5.57597">
        <ele>866.0117</ele>
        <time>2011-03-27T07:29:31Z</time>
      </trkpt>
      <trkpt lat="43.53214" lon="5.57597">
        <ele>866.0117</ele>
        <time>2011-03-27T07:29:32Z</time>
      </trkpt>
      <trkpt lat="43.53213" lon="5.57598">
        <ele>866.0117</ele>
        <time>2011-03-27T07:29:33Z</time>
      </trkpt>
      <trkpt lat="43.53213" lon="5.57599">
        <ele>866.0117</ele>
        <time>2011-03-27T07:29:34Z</time>
      </trkpt>
      <trkpt lat="43.53213" lon="5.576">
        <ele>866.0117</ele>
        <time>2011-03-27T07:29:35Z</time>
      </trkpt>
      <trkpt lat="43.53213" lon="5.57601">
        <ele>867.0117</ele>
        <time>2011-03-27T07:29:36Z</time>
      </trkpt>
      <trkpt lat="43.53212" lon="5.57602">
        <ele>867.0117</ele>
        <time>2011-03-27T07:29:37Z</time>
      </trkpt>
      <trkpt lat="43.53212" lon="5.57603">
        <ele>867.0117</ele>
        <time>2011-03-27T07:29:38Z</time>
      </trkpt>
      <trkpt lat="43.53212" lon="5.57605">
        <ele>867.0117</ele>
        <time>2011-03-27T07:29:39Z</time>
      </trkpt>
      <trkpt lat="43.53212" lon="5.57606">
        <ele>867.0117</ele>
        <time>2011-03-27T07:29:40Z</time>
      </trkpt>
      <trkpt lat="43.53212" lon="5.57607">
        <ele>867.0117</ele>
        <time>2011-03-27T07:29:41Z</time>
      </trkpt>
      <trkpt lat="43.53212" lon="5.57608">
        <ele>868.0117</ele>
        <time>2011-03-27T07:29:42Z</time>
      </trkpt>
      <trkpt lat="43.53212" lon="5.57609">
        <ele>868.0117</ele>
        <time>2011-03-27T07:29:43Z</time>
      </trkpt>
      <trkpt lat="43.53212" lon="5.57611">
        <ele>868.0117</ele>
        <time>2011-03-27T07:29:44Z</time>
      </trkpt>
      <trkpt lat="43.53212" lon="5.57613">
        <ele>868.0117</ele>
        <time>2011-03-27T07:29:46Z</time>
      </trkpt>
      <trkpt lat="43.53212" lon="5.57614">
        <ele>868.0117</ele>
        <time>2011-03-27T07:29:47Z</time>
      </trkpt>
      <trkpt lat="43.53212" lon="5.57616">
        <ele>868.0117</ele>
        <time>2011-03-27T07:29:48Z</time>
      </trkpt>
      <trkpt lat="43.53211" lon="5.57617">
        <ele>868.0117</ele>
        <time>2011-03-27T07:29:49Z</time>
      </trkpt>
      <trkpt lat="43.53211" lon="5.57618">
        <ele>868.0117</ele>
        <time>2011-03-27T07:29:50Z</time>
      </trkpt>
      <trkpt lat="43.5321" lon="5.5762">
        <ele>869.0117</ele>
        <time>2011-03-27T07:29:51Z</time>
      </trkpt>
      <trkpt lat="43.5321" lon="5.57621">
        <ele>869.0117</ele>
        <time>2011-03-27T07:29:52Z</time>
      </trkpt>
      <trkpt lat="43.5321" lon="5.57623">
        <ele>869.0117</ele>
        <time>2011-03-27T07:29:53Z</time>
      </trkpt>
      <trkpt lat="43.53209" lon="5.57624">
        <ele>869.0118</ele>
        <time>2011-03-27T07:29:54Z</time>
      </trkpt>
      <trkpt lat="43.53209" lon="5.57625">
        <ele>869.0118</ele>
        <time>2011-03-27T07:29:55Z</time>
      </trkpt>
      <trkpt lat="43.53208" lon="5.57627">
        <ele>870.0118</ele>
        <time>2011-03-27T07:29:56Z</time>
      </trkpt>
      <trkpt lat="43.53208" lon="5.57628">
        <ele>870.0118</ele>
        <time>2011-03-27T07:29:57Z</time>
      </trkpt>
      <trkpt lat="43.53207" lon="5.57629">
        <ele>870.0118</ele>
        <time>2011-03-27T07:29:58Z</time>
      </trkpt>
      <trkpt lat="43.53206" lon="5.57638">
        <ele>871.0118</ele>
        <time>2011-03-27T07:30:04Z</time>
      </trkpt>
      <trkpt lat="43.53206" lon="5.57639">
        <ele>872.0118</ele>
        <time>2011-03-27T07:30:05Z</time>
      </trkpt>
      <trkpt lat="43.53205" lon="5.57644">
        <ele>871.0118</ele>
        <time>2011-03-27T07:30:09Z</time>
      </trkpt>
      <trkpt lat="43.53205" lon="5.57646">
        <ele>872.0118</ele>
        <time>2011-03-27T07:30:10Z</time>
      </trkpt>
      <trkpt lat="43.53204" lon="5.57651">
        <ele>873.0118</ele>
        <time>2011-03-27T07:30:14Z</time>
      </trkpt>
      <trkpt lat="43.53204" lon="5.57653">
        <ele>873.0118</ele>
        <time>2011-03-27T07:30:15Z</time>
      </trkpt>
      <trkpt lat="43.53203" lon="5.57654">
        <ele>873.0118</ele>
        <time>2011-03-27T07:30:16Z</time>
      </trkpt>
      <trkpt lat="43.53203" lon="5.57656">
        <ele>873.0118</ele>
        <time>2011-03-27T07:30:17Z</time>
      </trkpt>
      <trkpt lat="43.53203" lon="5.57657">
        <ele>873.0118</ele>
        <time>2011-03-27T07:30:18Z</time>
      </trkpt>
      <trkpt lat="43.53202" lon="5.57659">
        <ele>873.0118</ele>
        <time>2011-03-27T07:30:19Z</time>
      </trkpt>
      <trkpt lat="43.53202" lon="5.5766">
        <ele>874.0118</ele>
        <time>2011-03-27T07:30:20Z</time>
      </trkpt>
      <trkpt lat="43.53202" lon="5.57661">
        <ele>874.0118</ele>
        <time>2011-03-27T07:30:21Z</time>
      </trkpt>
      <trkpt lat="43.53201" lon="5.57663">
        <ele>874.0118</ele>
        <time>2011-03-27T07:30:22Z</time>
      </trkpt>
      <trkpt lat="43.53201" lon="5.57664">
        <ele>875.0118</ele>
        <time>2011-03-27T07:30:23Z</time>
      </trkpt>
      <trkpt lat="43.53199" lon="5.5767">
        <ele>876.0118</ele>
        <time>2011-03-27T07:30:28Z</time>
      </trkpt>
      <trkpt lat="43.53199" lon="5.57671">
        <ele>876.0118</ele>
        <time>2011-03-27T07:30:29Z</time>
      </trkpt>
      <trkpt lat="43.53198" lon="5.57672">
        <ele>876.0118</ele>
        <time>2011-03-27T07:30:30Z</time>
      </trkpt>
      <trkpt lat="43.53198" lon="5.57673">
        <ele>877.0118</ele>
        <time>2011-03-27T07:30:31Z</time>
      </trkpt>
      <trkpt lat="43.53197" lon="5.57675">
        <ele>877.0118</ele>
        <time>2011-03-27T07:30:32Z</time>
      </trkpt>
      <trkpt lat="43.53197" lon="5.57676">
        <ele>877.0118</ele>
        <time>2011-03-27T07:30:33Z</time>
      </trkpt>
      <trkpt lat="43.53196" lon="5.57677">
        <ele>878.0118</ele>
        <time>2011-03-27T07:30:34Z</time>
      </trkpt>
      <trkpt lat="43.53196" lon="5.5768">
        <ele>878.0118</ele>
        <time>2011-03-27T07:30:36Z</time>
      </trkpt>
      <trkpt lat="43.53195" lon="5.57681">
        <ele>878.0118</ele>
        <time>2011-03-27T07:30:37Z</time>
      </trkpt>
      <trkpt lat="43.53195" lon="5.57682">
        <ele>878.0118</ele>
        <time>2011-03-27T07:30:38Z</time>
      </trkpt>
      <trkpt lat="43.53194" lon="5.57683">
        <ele>878.0118</ele>
        <time>2011-03-27T07:30:39Z</time>
      </trkpt>
      <trkpt lat="43.53194" lon="5.57684">
        <ele>878.0118</ele>
        <time>2011-03-27T07:30:40Z</time>
      </trkpt>
      <trkpt lat="43.53193" lon="5.57685">
        <ele>878.0118</ele>
        <time>2011-03-27T07:30:41Z</time>
      </trkpt>
      <trkpt lat="43.53193" lon="5.57686">
        <ele>878.0118</ele>
        <time>2011-03-27T07:30:42Z</time>
      </trkpt>
      <trkpt lat="43.53192" lon="5.57687">
        <ele>879.0118</ele>
        <time>2011-03-27T07:30:43Z</time>
      </trkpt>
      <trkpt lat="43.53192" lon="5.57689">
        <ele>879.0118</ele>
        <time>2011-03-27T07:30:44Z</time>
      </trkpt>
      <trkpt lat="43.53191" lon="5.57691">
        <ele>879.0118</ele>
        <time>2011-03-27T07:30:45Z</time>
      </trkpt>
      <trkpt lat="43.53189" lon="5.57697">
        <ele>880.0118</ele>
        <time>2011-03-27T07:30:49Z</time>
      </trkpt>
      <trkpt lat="43.53188" lon="5.57701">
        <ele>881.0119</ele>
        <time>2011-03-27T07:30:51Z</time>
      </trkpt>
      <trkpt lat="43.53188" lon="5.57702">
        <ele>881.0119</ele>
        <time>2011-03-27T07:30:52Z</time>
      </trkpt>
      <trkpt lat="43.53187" lon="5.57704">
        <ele>881.0119</ele>
        <time>2011-03-27T07:30:53Z</time>
      </trkpt>
      <trkpt lat="43.53186" lon="5.57706">
        <ele>881.0119</ele>
        <time>2011-03-27T07:30:54Z</time>
      </trkpt>
      <trkpt lat="43.53185" lon="5.57708">
        <ele>881.0119</ele>
        <time>2011-03-27T07:30:55Z</time>
      </trkpt>
      <trkpt lat="43.53185" lon="5.57709">
        <ele>881.0119</ele>
        <time>2011-03-27T07:30:56Z</time>
      </trkpt>
      <trkpt lat="43.53184" lon="5.57711">
        <ele>881.0119</ele>
        <time>2011-03-27T07:30:57Z</time>
      </trkpt>
      <trkpt lat="43.53183" lon="5.57712">
        <ele>881.0119</ele>
        <time>2011-03-27T07:30:58Z</time>
      </trkpt>
      <trkpt lat="43.53182" lon="5.57714">
        <ele>881.0119</ele>
        <time>2011-03-27T07:30:59Z</time>
      </trkpt>
      <trkpt lat="43.53181" lon="5.57716">
        <ele>881.0119</ele>
        <time>2011-03-27T07:31:00Z</time>
      </trkpt>
      <trkpt lat="43.53177" lon="5.57728">
        <ele>883.0119</ele>
        <time>2011-03-27T07:31:06Z</time>
      </trkpt>
      <trkpt lat="43.53177" lon="5.57731">
        <ele>883.0119</ele>
        <time>2011-03-27T07:31:07Z</time>
      </trkpt>
      <trkpt lat="43.53176" lon="5.57733">
        <ele>884.0119</ele>
        <time>2011-03-27T07:31:08Z</time>
      </trkpt>
      <trkpt lat="43.53177" lon="5.57736">
        <ele>884.0119</ele>
        <time>2011-03-27T07:31:09Z</time>
      </trkpt>
      <trkpt lat="43.53177" lon="5.57738">
        <ele>884.012</ele>
        <time>2011-03-27T07:31:10Z</time>
      </trkpt>
      <trkpt lat="43.53177" lon="5.5774">
        <ele>884.012</ele>
        <time>2011-03-27T07:31:11Z</time>
      </trkpt>
      <trkpt lat="43.53177" lon="5.57742">
        <ele>884.012</ele>
        <time>2011-03-27T07:31:12Z</time>
      </trkpt>
      <trkpt lat="43.53178" lon="5.57744">
        <ele>885.012</ele>
        <time>2011-03-27T07:31:13Z</time>
      </trkpt>
      <trkpt lat="43.53179" lon="5.57747">
        <ele>885.012</ele>
        <time>2011-03-27T07:31:14Z</time>
      </trkpt>
      <trkpt lat="43.53179" lon="5.57749">
        <ele>885.012</ele>
        <time>2011-03-27T07:31:15Z</time>
      </trkpt>
      <trkpt lat="43.5318" lon="5.5775">
        <ele>886.012</ele>
        <time>2011-03-27T07:31:16Z</time>
      </trkpt>
      <trkpt lat="43.5318" lon="5.57752">
        <ele>886.012</ele>
        <time>2011-03-27T07:31:17Z</time>
      </trkpt>
      <trkpt lat="43.5318" lon="5.57754">
        <ele>886.012</ele>
        <time>2011-03-27T07:31:18Z</time>
      </trkpt>
      <trkpt lat="43.5318" lon="5.57755">
        <ele>886.012</ele>
        <time>2011-03-27T07:31:19Z</time>
      </trkpt>
      <trkpt lat="43.5318" lon="5.57756">
        <ele>886.012</ele>
        <time>2011-03-27T07:31:20Z</time>
      </trkpt>
      <trkpt lat="43.5318" lon="5.57758">
        <ele>886.012</ele>
        <time>2011-03-27T07:31:21Z</time>
      </trkpt>
      <trkpt lat="43.53179" lon="5.57765">
        <ele>887.012</ele>
        <time>2011-03-27T07:31:26Z</time>
      </trkpt>
      <trkpt lat="43.53179" lon="5.57766">
        <ele>887.012</ele>
        <time>2011-03-27T07:31:27Z</time>
      </trkpt>
      <trkpt lat="43.53178" lon="5.57767">
        <ele>888.012</ele>
        <time>2011-03-27T07:31:28Z</time>
      </trkpt>
      <trkpt lat="43.53178" lon="5.57769">
        <ele>888.012</ele>
        <time>2011-03-27T07:31:29Z</time>
      </trkpt>
      <trkpt lat="43.53178" lon="5.5777">
        <ele>888.012</ele>
        <time>2011-03-27T07:31:30Z</time>
      </trkpt>
      <trkpt lat="43.53179" lon="5.57771">
        <ele>888.012</ele>
        <time>2011-03-27T07:31:31Z</time>
      </trkpt>
      <trkpt lat="43.53179" lon="5.57772">
        <ele>889.012</ele>
        <time>2011-03-27T07:31:32Z</time>
      </trkpt>
      <trkpt lat="43.53179" lon="5.57774">
        <ele>889.012</ele>
        <time>2011-03-27T07:31:33Z</time>
      </trkpt>
      <trkpt lat="43.53179" lon="5.57782">
        <ele>889.012</ele>
        <time>2011-03-27T07:31:39Z</time>
      </trkpt>
      <trkpt lat="43.53179" lon="5.5779">
        <ele>889.0121</ele>
        <time>2011-03-27T07:31:44Z</time>
      </trkpt>
      <trkpt lat="43.53179" lon="5.57792">
        <ele>890.0121</ele>
        <time>2011-03-27T07:31:47Z</time>
      </trkpt>
      <trkpt lat="43.53179" lon="5.57793">
        <ele>890.0121</ele>
        <time>2011-03-27T07:31:48Z</time>
      </trkpt>
      <trkpt lat="43.53178" lon="5.57798">
        <ele>890.0121</ele>
        <time>2011-03-27T07:31:54Z</time>
      </trkpt>
      <trkpt lat="43.53178" lon="5.57798">
        <ele>890.0121</ele>
        <time>2011-03-27T07:31:55Z</time>
      </trkpt>
      <trkpt lat="43.53178" lon="5.57799">
        <ele>891.0121</ele>
        <time>2011-03-27T07:31:56Z</time>
      </trkpt>
      <trkpt lat="43.53177" lon="5.578">
        <ele>892.0121</ele>
        <time>2011-03-27T07:31:57Z</time>
      </trkpt>
      <trkpt lat="43.53176" lon="5.57803">
        <ele>892.0121</ele>
        <time>2011-03-27T07:32:02Z</time>
      </trkpt>
      <trkpt lat="43.53176" lon="5.57803">
        <ele>892.0121</ele>
        <time>2011-03-27T07:32:03Z</time>
      </trkpt>
      <trkpt lat="43.53175" lon="5.57804">
        <ele>893.0121</ele>
        <time>2011-03-27T07:32:04Z</time>
      </trkpt>
      <trkpt lat="43.53171" lon="5.57807">
        <ele>893.0121</ele>
        <time>2011-03-27T07:32:11Z</time>
      </trkpt>
      <trkpt lat="43.53171" lon="5.57808">
        <ele>893.0121</ele>
        <time>2011-03-27T07:32:12Z</time>
      </trkpt>
      <trkpt lat="43.5317" lon="5.57808">
        <ele>893.0121</ele>
        <time>2011-03-27T07:32:13Z</time>
      </trkpt>
      <trkpt lat="43.5317" lon="5.57808">
        <ele>893.0121</ele>
        <time>2011-03-27T07:32:14Z</time>
      </trkpt>
      <trkpt lat="43.5317" lon="5.57808">
        <ele>893.0121</ele>
        <time>2011-03-27T07:32:15Z</time>
      </trkpt>
      <trkpt lat="43.53169" lon="5.57809">
        <ele>893.0121</ele>
        <time>2011-03-27T07:32:16Z</time>
      </trkpt>
      <trkpt lat="43.53169" lon="5.57809">
        <ele>893.0121</ele>
        <time>2011-03-27T07:32:18Z</time>
      </trkpt>
      <trkpt lat="43.53168" lon="5.5781">
        <ele>894.0121</ele>
        <time>2011-03-27T07:32:19Z</time>
      </trkpt>
      <trkpt lat="43.53161" lon="5.57817">
        <ele>896.0121</ele>
        <time>2011-03-27T07:32:39Z</time>
      </trkpt>
      <trkpt lat="43.53148" lon="5.57832">
        <ele>899.0121</ele>
        <time>2011-03-27T07:32:52Z</time>
      </trkpt>
      <trkpt lat="43.53145" lon="5.57833">
        <ele>899.0121</ele>
        <time>2011-03-27T07:32:53Z</time>
      </trkpt>
      <trkpt lat="43.53143" lon="5.57835">
        <ele>899.0121</ele>
        <time>2011-03-27T07:32:54Z</time>
      </trkpt>
      <trkpt lat="43.53138" lon="5.57844">
        <ele>899.0121</ele>
        <time>2011-03-27T07:33:07Z</time>
      </trkpt>
      <trkpt lat="43.53138" lon="5.57845">
        <ele>899.0121</ele>
        <time>2011-03-27T07:33:09Z</time>
      </trkpt>
      <trkpt lat="43.53138" lon="5.57845">
        <ele>899.0121</ele>
        <time>2011-03-27T07:33:10Z</time>
      </trkpt>
      <trkpt lat="43.53138" lon="5.57845">
        <ele>899.0121</ele>
        <time>2011-03-27T07:33:11Z</time>
      </trkpt>
      <trkpt lat="43.53138" lon="5.57845">
        <ele>899.0121</ele>
        <time>2011-03-27T07:33:12Z</time>
      </trkpt>
      <trkpt lat="43.53139" lon="5.57846">
        <ele>899.0121</ele>
        <time>2011-03-27T07:33:16Z</time>
      </trkpt>
      <trkpt lat="43.53139" lon="5.57846">
        <ele>899.0121</ele>
        <time>2011-03-27T07:33:17Z</time>
      </trkpt>
      <trkpt lat="43.5314" lon="5.57846">
        <ele>899.0121</ele>
        <time>2011-03-27T07:33:18Z</time>
      </trkpt>
      <trkpt lat="43.5314" lon="5.57846">
        <ele>899.0121</ele>
        <time>2011-03-27T07:33:19Z</time>
      </trkpt>
      <trkpt lat="43.53141" lon="5.57846">
        <ele>899.0121</ele>
        <time>2011-03-27T07:33:20Z</time>
      </trkpt>
      <trkpt lat="43.53141" lon="5.57846">
        <ele>899.0121</ele>
        <time>2011-03-27T07:33:21Z</time>
      </trkpt>
      <trkpt lat="43.53141" lon="5.57846">
        <ele>899.0121</ele>
        <time>2011-03-27T07:33:22Z</time>
      </trkpt>
      <trkpt lat="43.53143" lon="5.57846">
        <ele>899.0121</ele>
        <time>2011-03-27T07:33:23Z</time>
      </trkpt>
      <trkpt lat="43.53143" lon="5.57846">
        <ele>899.0121</ele>
        <time>2011-03-27T07:33:24Z</time>
      </trkpt>
      <trkpt lat="43.53144" lon="5.57846">
        <ele>900.0121</ele>
        <time>2011-03-27T07:33:25Z</time>
      </trkpt>
      <trkpt lat="43.53145" lon="5.57846">
        <ele>900.0121</ele>
        <time>2011-03-27T07:33:26Z</time>
      </trkpt>
      <trkpt lat="43.53146" lon="5.57846">
        <ele>900.0121</ele>
        <time>2011-03-27T07:33:27Z</time>
      </trkpt>
      <trkpt lat="43.53146" lon="5.57846">
        <ele>900.0121</ele>
        <time>2011-03-27T07:33:28Z</time>
      </trkpt>
      <trkpt lat="43.53147" lon="5.57846">
        <ele>900.0121</ele>
        <time>2011-03-27T07:33:29Z</time>
      </trkpt>
      <trkpt lat="43.53148" lon="5.57846">
        <ele>900.0121</ele>
        <time>2011-03-27T07:33:30Z</time>
      </trkpt>
      <trkpt lat="43.53148" lon="5.57846">
        <ele>900.0121</ele>
        <time>2011-03-27T07:33:31Z</time>
      </trkpt>
      <trkpt lat="43.53151" lon="5.57846">
        <ele>900.0121</ele>
        <time>2011-03-27T07:33:32Z</time>
      </trkpt>
      <trkpt lat="43.53151" lon="5.57846">
        <ele>900.0121</ele>
        <time>2011-03-27T07:33:33Z</time>
      </trkpt>
      <trkpt lat="43.53154" lon="5.57846">
        <ele>900.0121</ele>
        <time>2011-03-27T07:33:34Z</time>
      </trkpt>
      <trkpt lat="43.53154" lon="5.57846">
        <ele>900.0121</ele>
        <time>2011-03-27T07:33:35Z</time>
      </trkpt>
      <trkpt lat="43.53154" lon="5.57845">
        <ele>900.0121</ele>
        <time>2011-03-27T07:33:36Z</time>
      </trkpt>
      <trkpt lat="43.53156" lon="5.57844">
        <ele>901.0121</ele>
        <time>2011-03-27T07:33:37Z</time>
      </trkpt>
      <trkpt lat="43.53157" lon="5.57844">
        <ele>901.0121</ele>
        <time>2011-03-27T07:33:38Z</time>
      </trkpt>
      <trkpt lat="43.53158" lon="5.57842">
        <ele>901.0121</ele>
        <time>2011-03-27T07:33:39Z</time>
      </trkpt>
      <trkpt lat="43.53159" lon="5.57842">
        <ele>901.0121</ele>
        <time>2011-03-27T07:33:40Z</time>
      </trkpt>
      <trkpt lat="43.5316" lon="5.57841">
        <ele>901.0121</ele>
        <time>2011-03-27T07:33:41Z</time>
      </trkpt>
      <trkpt lat="43.53161" lon="5.5784">
        <ele>901.0121</ele>
        <time>2011-03-27T07:33:42Z</time>
      </trkpt>
      <trkpt lat="43.53161" lon="5.57839">
        <ele>901.0121</ele>
        <time>2011-03-27T07:33:43Z</time>
      </trkpt>
      <trkpt lat="43.53162" lon="5.57838">
        <ele>901.0121</ele>
        <time>2011-03-27T07:33:44Z</time>
      </trkpt>
      <trkpt lat="43.53162" lon="5.57837">
        <ele>901.0121</ele>
        <time>2011-03-27T07:33:45Z</time>
      </trkpt>
      <trkpt lat="43.53164" lon="5.57835">
        <ele>902.0121</ele>
        <time>2011-03-27T07:33:47Z</time>
      </trkpt>
      <trkpt lat="43.53164" lon="5.57834">
        <ele>902.0121</ele>
        <time>2011-03-27T07:33:48Z</time>
      </trkpt>
      <trkpt lat="43.53164" lon="5.57833">
        <ele>902.0121</ele>
        <time>2011-03-27T07:33:49Z</time>
      </trkpt>
      <trkpt lat="43.53165" lon="5.57831">
        <ele>903.0121</ele>
        <time>2011-03-27T07:33:50Z</time>
      </trkpt>
      <trkpt lat="43.53165" lon="5.57831">
        <ele>903.0121</ele>
        <time>2011-03-27T07:33:51Z</time>
      </trkpt>
      <trkpt lat="43.53167" lon="5.57828">
        <ele>903.0121</ele>
        <time>2011-03-27T07:33:52Z</time>
      </trkpt>
      <trkpt lat="43.53167" lon="5.57828">
        <ele>903.0121</ele>
        <time>2011-03-27T07:33:53Z</time>
      </trkpt>
      <trkpt lat="43.53168" lon="5.57826">
        <ele>904.0121</ele>
        <time>2011-03-27T07:33:54Z</time>
      </trkpt>
      <trkpt lat="43.53168" lon="5.57826">
        <ele>904.0121</ele>
        <time>2011-03-27T07:33:55Z</time>
      </trkpt>
      <trkpt lat="43.53169" lon="5.57824">
        <ele>904.0121</ele>
        <time>2011-03-27T07:33:56Z</time>
      </trkpt>
      <trkpt lat="43.53169" lon="5.57824">
        <ele>904.0121</ele>
        <time>2011-03-27T07:33:57Z</time>
      </trkpt>
      <trkpt lat="43.5317" lon="5.57822">
        <ele>904.0121</ele>
        <time>2011-03-27T07:33:58Z</time>
      </trkpt>
      <trkpt lat="43.53171" lon="5.57821">
        <ele>904.0121</ele>
        <time>2011-03-27T07:33:59Z</time>
      </trkpt>
      <trkpt lat="43.53172" lon="5.5782">
        <ele>904.0121</ele>
        <time>2011-03-27T07:34:00Z</time>
      </trkpt>
      <trkpt lat="43.53173" lon="5.57818">
        <ele>905.0121</ele>
        <time>2011-03-27T07:34:01Z</time>
      </trkpt>
      <trkpt lat="43.53173" lon="5.57816">
        <ele>905.0121</ele>
        <time>2011-03-27T07:34:02Z</time>
      </trkpt>
      <trkpt lat="43.53174" lon="5.57815">
        <ele>905.0121</ele>
        <time>2011-03-27T07:34:03Z</time>
      </trkpt>
      <trkpt lat="43.53175" lon="5.57813">
        <ele>905.0121</ele>
        <time>2011-03-27T07:34:04Z</time>
      </trkpt>
      <trkpt lat="43.53175" lon="5.57812">
        <ele>905.0121</ele>
        <time>2011-03-27T07:34:05Z</time>
      </trkpt>
      <trkpt lat="43.53176" lon="5.5781">
        <ele>905.0121</ele>
        <time>2011-03-27T07:34:06Z</time>
      </trkpt>
      <trkpt lat="43.53178" lon="5.57804">
        <ele>905.0121</ele>
        <time>2011-03-27T07:34:10Z</time>
      </trkpt>
      <trkpt lat="43.53179" lon="5.57803">
        <ele>905.0121</ele>
        <time>2011-03-27T07:34:11Z</time>
      </trkpt>
      <trkpt lat="43.53179" lon="5.57801">
        <ele>906.0121</ele>
        <time>2011-03-27T07:34:12Z</time>
      </trkpt>
      <trkpt lat="43.5318" lon="5.57799">
        <ele>906.0121</ele>
        <time>2011-03-27T07:34:13Z</time>
      </trkpt>
      <trkpt lat="43.53181" lon="5.57797">
        <ele>906.0121</ele>
        <time>2011-03-27T07:34:14Z</time>
      </trkpt>
      <trkpt lat="43.53182" lon="5.57795">
        <ele>905.0121</ele>
        <time>2011-03-27T07:34:15Z</time>
      </trkpt>
      <trkpt lat="43.53185" lon="5.57784">
        <ele>906.0121</ele>
        <time>2011-03-27T07:34:21Z</time>
      </trkpt>
      <trkpt lat="43.53186" lon="5.57783">
        <ele>906.0121</ele>
        <time>2011-03-27T07:34:22Z</time>
      </trkpt>
      <trkpt lat="43.53186" lon="5.57781">
        <ele>906.012</ele>
        <time>2011-03-27T07:34:23Z</time>
      </trkpt>
      <trkpt lat="43.53186" lon="5.57779">
        <ele>906.012</ele>
        <time>2011-03-27T07:34:24Z</time>
      </trkpt>
      <trkpt lat="43.53187" lon="5.57777">
        <ele>906.012</ele>
        <time>2011-03-27T07:34:25Z</time>
      </trkpt>
      <trkpt lat="43.53187" lon="5.57776">
        <ele>906.012</ele>
        <time>2011-03-27T07:34:26Z</time>
      </trkpt>
      <trkpt lat="43.53187" lon="5.57766">
        <ele>905.012</ele>
        <time>2011-03-27T07:34:32Z</time>
      </trkpt>
      <trkpt lat="43.53187" lon="5.57765">
        <ele>905.012</ele>
        <time>2011-03-27T07:34:33Z</time>
      </trkpt>
      <trkpt lat="43.53188" lon="5.57762">
        <ele>905.012</ele>
        <time>2011-03-27T07:34:35Z</time>
      </trkpt>
      <trkpt lat="43.53188" lon="5.57761">
        <ele>905.012</ele>
        <time>2011-03-27T07:34:36Z</time>
      </trkpt>
      <trkpt lat="43.53188" lon="5.57758">
        <ele>905.012</ele>
        <time>2011-03-27T07:34:37Z</time>
      </trkpt>
      <trkpt lat="43.53188" lon="5.57757">
        <ele>904.012</ele>
        <time>2011-03-27T07:34:38Z</time>
      </trkpt>
      <trkpt lat="43.53188" lon="5.57755">
        <ele>904.012</ele>
        <time>2011-03-27T07:34:39Z</time>
      </trkpt>
      <trkpt lat="43.53188" lon="5.57753">
        <ele>904.012</ele>
        <time>2011-03-27T07:34:40Z</time>
      </trkpt>
      <trkpt lat="43.53188" lon="5.57751">
        <ele>903.012</ele>
        <time>2011-03-27T07:34:42Z</time>
      </trkpt>
      <trkpt lat="43.53188" lon="5.5775">
        <ele>903.012</ele>
        <time>2011-03-27T07:34:43Z</time>
      </trkpt>
      <trkpt lat="43.53188" lon="5.57748">
        <ele>903.012</ele>
        <time>2011-03-27T07:34:44Z</time>
      </trkpt>
      <trkpt lat="43.53188" lon="5.57746">
        <ele>903.012</ele>
        <time>2011-03-27T07:34:45Z</time>
      </trkpt>
      <trkpt lat="43.53188" lon="5.57745">
        <ele>903.012</ele>
        <time>2011-03-27T07:34:46Z</time>
      </trkpt>
      <trkpt lat="43.53188" lon="5.57743">
        <ele>903.012</ele>
        <time>2011-03-27T07:34:47Z</time>
      </trkpt>
      <trkpt lat="43.53188" lon="5.5774">
        <ele>902.012</ele>
        <time>2011-03-27T07:34:49Z</time>
      </trkpt>
      <trkpt lat="43.53188" lon="5.57739">
        <ele>902.012</ele>
        <time>2011-03-27T07:34:50Z</time>
      </trkpt>
      <trkpt lat="43.53188" lon="5.57737">
        <ele>902.012</ele>
        <time>2011-03-27T07:34:51Z</time>
      </trkpt>
      <trkpt lat="43.53188" lon="5.57735">
        <ele>901.012</ele>
        <time>2011-03-27T07:34:52Z</time>
      </trkpt>
      <trkpt lat="43.53188" lon="5.57734">
        <ele>901.012</ele>
        <time>2011-03-27T07:34:53Z</time>
      </trkpt>
      <trkpt lat="43.53188" lon="5.57732">
        <ele>901.012</ele>
        <time>2011-03-27T07:34:54Z</time>
      </trkpt>
      <trkpt lat="43.53188" lon="5.57731">
        <ele>901.012</ele>
        <time>2011-03-27T07:34:55Z</time>
      </trkpt>
      <trkpt lat="43.53188" lon="5.57729">
        <ele>900.012</ele>
        <time>2011-03-27T07:34:56Z</time>
      </trkpt>
      <trkpt lat="43.53188" lon="5.57728">
        <ele>900.012</ele>
        <time>2011-03-27T07:34:57Z</time>
      </trkpt>
      <trkpt lat="43.53188" lon="5.57727">
        <ele>900.012</ele>
        <time>2011-03-27T07:34:58Z</time>
      </trkpt>
      <trkpt lat="43.53188" lon="5.57725">
        <ele>900.012</ele>
        <time>2011-03-27T07:34:59Z</time>
      </trkpt>
      <trkpt lat="43.53188" lon="5.57724">
        <ele>900.0119</ele>
        <time>2011-03-27T07:35:00Z</time>
      </trkpt>
      <trkpt lat="43.53189" lon="5.5772">
        <ele>899.0119</ele>
        <time>2011-03-27T07:35:04Z</time>
      </trkpt>
      <trkpt lat="43.53189" lon="5.57719">
        <ele>899.0119</ele>
        <time>2011-03-27T07:35:05Z</time>
      </trkpt>
      <trkpt lat="43.53192" lon="5.57714">
        <ele>897.0119</ele>
        <time>2011-03-27T07:35:10Z</time>
      </trkpt>
      <trkpt lat="43.53192" lon="5.57712">
        <ele>897.0119</ele>
        <time>2011-03-27T07:35:11Z</time>
      </trkpt>
      <trkpt lat="43.53193" lon="5.57711">
        <ele>897.0119</ele>
        <time>2011-03-27T07:35:12Z</time>
      </trkpt>
      <trkpt lat="43.53193" lon="5.57709">
        <ele>897.0119</ele>
        <time>2011-03-27T07:35:13Z</time>
      </trkpt>
      <trkpt lat="43.53194" lon="5.57708">
        <ele>897.0119</ele>
        <time>2011-03-27T07:35:14Z</time>
      </trkpt>
      <trkpt lat="43.53197" lon="5.57696">
        <ele>896.0119</ele>
        <time>2011-03-27T07:35:21Z</time>
      </trkpt>
      <trkpt lat="43.53198" lon="5.57695">
        <ele>896.0119</ele>
        <time>2011-03-27T07:35:22Z</time>
      </trkpt>
      <trkpt lat="43.53198" lon="5.57693">
        <ele>896.0119</ele>
        <time>2011-03-27T07:35:23Z</time>
      </trkpt>
      <trkpt lat="43.53198" lon="5.57691">
        <ele>896.0119</ele>
        <time>2011-03-27T07:35:24Z</time>
      </trkpt>
      <trkpt lat="43.53199" lon="5.5769">
        <ele>895.0119</ele>
        <time>2011-03-27T07:35:25Z</time>
      </trkpt>
      <trkpt lat="43.53199" lon="5.57689">
        <ele>895.0118</ele>
        <time>2011-03-27T07:35:26Z</time>
      </trkpt>
      <trkpt lat="43.532" lon="5.57687">
        <ele>895.0118</ele>
        <time>2011-03-27T07:35:27Z</time>
      </trkpt>
      <trkpt lat="43.53201" lon="5.57686">
        <ele>895.0118</ele>
        <time>2011-03-27T07:35:28Z</time>
      </trkpt>
      <trkpt lat="43.53201" lon="5.57685">
        <ele>895.0118</ele>
        <time>2011-03-27T07:35:29Z</time>
      </trkpt>
      <trkpt lat="43.53202" lon="5.57684">
        <ele>894.0118</ele>
        <time>2011-03-27T07:35:30Z</time>
      </trkpt>
      <trkpt lat="43.53203" lon="5.57683">
        <ele>894.0118</ele>
        <time>2011-03-27T07:35:31Z</time>
      </trkpt>
      <trkpt lat="43.53204" lon="5.57682">
        <ele>894.0118</ele>
        <time>2011-03-27T07:35:32Z</time>
      </trkpt>
      <trkpt lat="43.53204" lon="5.5768">
        <ele>894.0118</ele>
        <time>2011-03-27T07:35:33Z</time>
      </trkpt>
      <trkpt lat="43.53205" lon="5.57679">
        <ele>894.0118</ele>
        <time>2011-03-27T07:35:34Z</time>
      </trkpt>
      <trkpt lat="43.53205" lon="5.57677">
        <ele>894.0118</ele>
        <time>2011-03-27T07:35:35Z</time>
      </trkpt>
      <trkpt lat="43.53205" lon="5.57675">
        <ele>894.0118</ele>
        <time>2011-03-27T07:35:36Z</time>
      </trkpt>
      <trkpt lat="43.53206" lon="5.57669">
        <ele>894.0118</ele>
        <time>2011-03-27T07:35:40Z</time>
      </trkpt>
      <trkpt lat="43.53207" lon="5.57668">
        <ele>894.0118</ele>
        <time>2011-03-27T07:35:41Z</time>
      </trkpt>
      <trkpt lat="43.53207" lon="5.57666">
        <ele>895.0118</ele>
        <time>2011-03-27T07:35:45Z</time>
      </trkpt>
      <trkpt lat="43.53207" lon="5.57666">
        <ele>895.0118</ele>
        <time>2011-03-27T07:35:46Z</time>
      </trkpt>
      <trkpt lat="43.53207" lon="5.57664">
        <ele>893.0118</ele>
        <time>2011-03-27T07:35:50Z</time>
      </trkpt>
      <trkpt lat="43.53207" lon="5.57663">
        <ele>893.0118</ele>
        <time>2011-03-27T07:35:51Z</time>
      </trkpt>
      <trkpt lat="43.53207" lon="5.57662">
        <ele>893.0118</ele>
        <time>2011-03-27T07:35:52Z</time>
      </trkpt>
      <trkpt lat="43.53207" lon="5.57662">
        <ele>893.0118</ele>
        <time>2011-03-27T07:35:53Z</time>
      </trkpt>
      <trkpt lat="43.53208" lon="5.57661">
        <ele>893.0118</ele>
        <time>2011-03-27T07:35:54Z</time>
      </trkpt>
      <trkpt lat="43.53208" lon="5.57659">
        <ele>893.0118</ele>
        <time>2011-03-27T07:35:55Z</time>
      </trkpt>
      <trkpt lat="43.53208" lon="5.57658">
        <ele>893.0118</ele>
        <time>2011-03-27T07:35:57Z</time>
      </trkpt>
      <trkpt lat="43.53208" lon="5.57658">
        <ele>893.0118</ele>
        <time>2011-03-27T07:35:58Z</time>
      </trkpt>
      <trkpt lat="43.53209" lon="5.57656">
        <ele>892.0118</ele>
        <time>2011-03-27T07:35:59Z</time>
      </trkpt>
      <trkpt lat="43.53209" lon="5.57655">
        <ele>892.0118</ele>
        <time>2011-03-27T07:36:00Z</time>
      </trkpt>
      <trkpt lat="43.53209" lon="5.57654">
        <ele>892.0118</ele>
        <time>2011-03-27T07:36:01Z</time>
      </trkpt>
      <trkpt lat="43.53209" lon="5.57652">
        <ele>892.0118</ele>
        <time>2011-03-27T07:36:02Z</time>
      </trkpt>
      <trkpt lat="43.53209" lon="5.57652">
        <ele>892.0118</ele>
        <time>2011-03-27T07:36:03Z</time>
      </trkpt>
      <trkpt lat="43.53209" lon="5.57648">
        <ele>891.0118</ele>
        <time>2011-03-27T07:36:04Z</time>
      </trkpt>
      <trkpt lat="43.53209" lon="5.57647">
        <ele>891.0118</ele>
        <time>2011-03-27T07:36:05Z</time>
      </trkpt>
      <trkpt lat="43.5321" lon="5.57643">
        <ele>891.0118</ele>
        <time>2011-03-27T07:36:06Z</time>
      </trkpt>
      <trkpt lat="43.5321" lon="5.57641">
        <ele>891.0118</ele>
        <time>2011-03-27T07:36:07Z</time>
      </trkpt>
      <trkpt lat="43.53211" lon="5.57639">
        <ele>890.0118</ele>
        <time>2011-03-27T07:36:08Z</time>
      </trkpt>
      <trkpt lat="43.53213" lon="5.57633">
        <ele>889.0118</ele>
        <time>2011-03-27T07:36:12Z</time>
      </trkpt>
      <trkpt lat="43.53214" lon="5.57632">
        <ele>889.0118</ele>
        <time>2011-03-27T07:36:13Z</time>
      </trkpt>
      <trkpt lat="43.53214" lon="5.57631">
        <ele>888.0118</ele>
        <time>2011-03-27T07:36:14Z</time>
      </trkpt>
      <trkpt lat="43.53215" lon="5.5763">
        <ele>888.0118</ele>
        <time>2011-03-27T07:36:15Z</time>
      </trkpt>
      <trkpt lat="43.53215" lon="5.57629">
        <ele>888.0118</ele>
        <time>2011-03-27T07:36:16Z</time>
      </trkpt>
      <trkpt lat="43.53215" lon="5.57628">
        <ele>888.0118</ele>
        <time>2011-03-27T07:36:17Z</time>
      </trkpt>
      <trkpt lat="43.53216" lon="5.57626">
        <ele>887.0118</ele>
        <time>2011-03-27T07:36:18Z</time>
      </trkpt>
      <trkpt lat="43.53217" lon="5.57625">
        <ele>887.0118</ele>
        <time>2011-03-27T07:36:19Z</time>
      </trkpt>
      <trkpt lat="43.53218" lon="5.57623">
        <ele>887.0118</ele>
        <time>2011-03-27T07:36:21Z</time>
      </trkpt>
      <trkpt lat="43.53219" lon="5.57622">
        <ele>887.0118</ele>
        <time>2011-03-27T07:36:22Z</time>
      </trkpt>
      <trkpt lat="43.5322" lon="5.57618">
        <ele>887.0118</ele>
        <time>2011-03-27T07:36:26Z</time>
      </trkpt>
      <trkpt lat="43.5322" lon="5.57617">
        <ele>886.0118</ele>
        <time>2011-03-27T07:36:27Z</time>
      </trkpt>
      <trkpt lat="43.5322" lon="5.57614">
        <ele>886.0117</ele>
        <time>2011-03-27T07:36:29Z</time>
      </trkpt>
      <trkpt lat="43.5322" lon="5.57613">
        <ele>886.0117</ele>
        <time>2011-03-27T07:36:30Z</time>
      </trkpt>
      <trkpt lat="43.53221" lon="5.57611">
        <ele>886.0117</ele>
        <time>2011-03-27T07:36:34Z</time>
      </trkpt>
      <trkpt lat="43.53221" lon="5.57611">
        <ele>886.0117</ele>
        <time>2011-03-27T07:36:35Z</time>
      </trkpt>
      <trkpt lat="43.53221" lon="5.57611">
        <ele>885.0117</ele>
        <time>2011-03-27T07:36:36Z</time>
      </trkpt>
      <trkpt lat="43.53221" lon="5.5761">
        <ele>885.0117</ele>
        <time>2011-03-27T07:36:38Z</time>
      </trkpt>
      <trkpt lat="43.53221" lon="5.5761">
        <ele>885.0117</ele>
        <time>2011-03-27T07:36:39Z</time>
      </trkpt>
      <trkpt lat="43.53222" lon="5.57609">
        <ele>885.0117</ele>
        <time>2011-03-27T07:36:40Z</time>
      </trkpt>
      <trkpt lat="43.53222" lon="5.57609">
        <ele>885.0117</ele>
        <time>2011-03-27T07:36:41Z</time>
      </trkpt>
      <trkpt lat="43.53222" lon="5.57608">
        <ele>885.0117</ele>
        <time>2011-03-27T07:36:42Z</time>
      </trkpt>
      <trkpt lat="43.53222" lon="5.57607">
        <ele>884.0117</ele>
        <time>2011-03-27T07:36:43Z</time>
      </trkpt>
      <trkpt lat="43.53222" lon="5.57606">
        <ele>884.0117</ele>
        <time>2011-03-27T07:36:44Z</time>
      </trkpt>
      <trkpt lat="43.53222" lon="5.57605">
        <ele>884.0117</ele>
        <time>2011-03-27T07:36:45Z</time>
      </trkpt>
      <trkpt lat="43.53222" lon="5.57604">
        <ele>884.0117</ele>
        <time>2011-03-27T07:36:46Z</time>
      </trkpt>
      <trkpt lat="43.53222" lon="5.57602">
        <ele>884.0117</ele>
        <time>2011-03-27T07:36:47Z</time>
      </trkpt>
      <trkpt lat="43.53222" lon="5.57601">
        <ele>884.0117</ele>
        <time>2011-03-27T07:36:48Z</time>
      </trkpt>
      <trkpt lat="43.53222" lon="5.576">
        <ele>883.0117</ele>
        <time>2011-03-27T07:36:49Z</time>
      </trkpt>
      <trkpt lat="43.53222" lon="5.576">
        <ele>883.0117</ele>
        <time>2011-03-27T07:36:50Z</time>
      </trkpt>
      <trkpt lat="43.53222" lon="5.57599">
        <ele>883.0117</ele>
        <time>2011-03-27T07:36:51Z</time>
      </trkpt>
      <trkpt lat="43.53222" lon="5.57597">
        <ele>883.0117</ele>
        <time>2011-03-27T07:36:52Z</time>
      </trkpt>
      <trkpt lat="43.53222" lon="5.57596">
        <ele>883.0117</ele>
        <time>2011-03-27T07:36:53Z</time>
      </trkpt>
      <trkpt lat="43.53222" lon="5.57595">
        <ele>882.0117</ele>
        <time>2011-03-27T07:36:54Z</time>
      </trkpt>
      <trkpt lat="43.53222" lon="5.57594">
        <ele>882.0117</ele>
        <time>2011-03-27T07:36:55Z</time>
      </trkpt>
      <trkpt lat="43.53222" lon="5.57593">
        <ele>882.0117</ele>
        <time>2011-03-27T07:36:56Z</time>
      </trkpt>
      <trkpt lat="43.53223" lon="5.57592">
        <ele>882.0117</ele>
        <time>2011-03-27T07:36:57Z</time>
      </trkpt>
      <trkpt lat="43.53223" lon="5.5759">
        <ele>882.0117</ele>
        <time>2011-03-27T07:36:58Z</time>
      </trkpt>
      <trkpt lat="43.53223" lon="5.57589">
        <ele>882.0117</ele>
        <time>2011-03-27T07:36:59Z</time>
      </trkpt>
      <trkpt lat="43.53223" lon="5.57588">
        <ele>882.0117</ele>
        <time>2011-03-27T07:37:00Z</time>
      </trkpt>
      <trkpt lat="43.53225" lon="5.57586">
        <ele>881.0117</ele>
        <time>2011-03-27T07:37:04Z</time>
      </trkpt>
      <trkpt lat="43.53225" lon="5.57586">
        <ele>881.0117</ele>
        <time>2011-03-27T07:37:05Z</time>
      </trkpt>
      <trkpt lat="43.53225" lon="5.57585">
        <ele>881.0117</ele>
        <time>2011-03-27T07:37:07Z</time>
      </trkpt>
      <trkpt lat="43.53225" lon="5.57585">
        <ele>881.0117</ele>
        <time>2011-03-27T07:37:08Z</time>
      </trkpt>
      <trkpt lat="43.53226" lon="5.57585">
        <ele>881.0117</ele>
        <time>2011-03-27T07:37:09Z</time>
      </trkpt>
      <trkpt lat="43.53226" lon="5.57584">
        <ele>881.0117</ele>
        <time>2011-03-27T07:37:10Z</time>
      </trkpt>
      <trkpt lat="43.53226" lon="5.57584">
        <ele>881.0117</ele>
        <time>2011-03-27T07:37:11Z</time>
      </trkpt>
      <trkpt lat="43.53226" lon="5.57584">
        <ele>881.0117</ele>
        <time>2011-03-27T07:37:12Z</time>
      </trkpt>
      <trkpt lat="43.53227" lon="5.57582">
        <ele>881.0117</ele>
        <time>2011-03-27T07:37:16Z</time>
      </trkpt>
      <trkpt lat="43.53227" lon="5.57582">
        <ele>880.0117</ele>
        <time>2011-03-27T07:37:17Z</time>
      </trkpt>
      <trkpt lat="43.53227" lon="5.57581">
        <ele>880.0117</ele>
        <time>2011-03-27T07:37:18Z</time>
      </trkpt>
      <trkpt lat="43.53227" lon="5.57581">
        <ele>880.0117</ele>
        <time>2011-03-27T07:37:19Z</time>
      </trkpt>
      <trkpt lat="43.53228" lon="5.5758">
        <ele>880.0117</ele>
        <time>2011-03-27T07:37:20Z</time>
      </trkpt>
      <trkpt lat="43.53228" lon="5.5758">
        <ele>880.0117</ele>
        <time>2011-03-27T07:37:21Z</time>
      </trkpt>
      <trkpt lat="43.53228" lon="5.57579">
        <ele>880.0117</ele>
        <time>2011-03-27T07:37:22Z</time>
      </trkpt>
      <trkpt lat="43.53229" lon="5.57579">
        <ele>880.0117</ele>
        <time>2011-03-27T07:37:23Z</time>
      </trkpt>
      <trkpt lat="43.53229" lon="5.57578">
        <ele>880.0117</ele>
        <time>2011-03-27T07:37:24Z</time>
      </trkpt>
      <trkpt lat="43.5323" lon="5.57576">
        <ele>879.0117</ele>
        <time>2011-03-27T07:37:27Z</time>
      </trkpt>
      <trkpt lat="43.53231" lon="5.57575">
        <ele>879.0117</ele>
        <time>2011-03-27T07:37:28Z</time>
      </trkpt>
      <trkpt lat="43.53231" lon="5.57575">
        <ele>879.0117</ele>
        <time>2011-03-27T07:37:29Z</time>
      </trkpt>
      <trkpt lat="43.53231" lon="5.57574">
        <ele>878.0117</ele>
        <time>2011-03-27T07:37:30Z</time>
      </trkpt>
      <trkpt lat="43.53232" lon="5.57573">
        <ele>877.0117</ele>
        <time>2011-03-27T07:37:34Z</time>
      </trkpt>
      <trkpt lat="43.53233" lon="5.57573">
        <ele>877.0117</ele>
        <time>2011-03-27T07:37:35Z</time>
      </trkpt>
      <trkpt lat="43.53233" lon="5.57573">
        <ele>876.0117</ele>
        <time>2011-03-27T07:37:36Z</time>
      </trkpt>
      <trkpt lat="43.53233" lon="5.57573">
        <ele>876.0117</ele>
        <time>2011-03-27T07:37:37Z</time>
      </trkpt>
      <trkpt lat="43.53235" lon="5.57572">
        <ele>874.0117</ele>
        <time>2011-03-27T07:37:41Z</time>
      </trkpt>
      <trkpt lat="43.53235" lon="5.57572">
        <ele>873.0117</ele>
        <time>2011-03-27T07:37:42Z</time>
      </trkpt>
      <trkpt lat="43.53238" lon="5.57571">
        <ele>872.0117</ele>
        <time>2011-03-27T07:37:46Z</time>
      </trkpt>
      <trkpt lat="43.53238" lon="5.5757">
        <ele>872.0117</ele>
        <time>2011-03-27T07:37:47Z</time>
      </trkpt>
      <trkpt lat="43.53239" lon="5.5757">
        <ele>871.0117</ele>
        <time>2011-03-27T07:37:48Z</time>
      </trkpt>
      <trkpt lat="43.5324" lon="5.57569">
        <ele>871.0117</ele>
        <time>2011-03-27T07:37:49Z</time>
      </trkpt>
      <trkpt lat="43.53242" lon="5.57569">
        <ele>871.0117</ele>
        <time>2011-03-27T07:37:51Z</time>
      </trkpt>
      <trkpt lat="43.53243" lon="5.57568">
        <ele>871.0117</ele>
        <time>2011-03-27T07:37:52Z</time>
      </trkpt>
      <trkpt lat="43.53243" lon="5.57568">
        <ele>870.0117</ele>
        <time>2011-03-27T07:37:53Z</time>
      </trkpt>
      <trkpt lat="43.53244" lon="5.57566">
        <ele>870.0117</ele>
        <time>2011-03-27T07:37:56Z</time>
      </trkpt>
      <trkpt lat="43.53244" lon="5.57566">
        <ele>870.0117</ele>
        <time>2011-03-27T07:37:57Z</time>
      </trkpt>
      <trkpt lat="43.53244" lon="5.57565">
        <ele>870.0117</ele>
        <time>2011-03-27T07:37:58Z</time>
      </trkpt>
      <trkpt lat="43.53245" lon="5.57564">
        <ele>869.0117</ele>
        <time>2011-03-27T07:37:59Z</time>
      </trkpt>
      <trkpt lat="43.53246" lon="5.57561">
        <ele>867.0117</ele>
        <time>2011-03-27T07:38:03Z</time>
      </trkpt>
      <trkpt lat="43.53246" lon="5.57561">
        <ele>867.0117</ele>
        <time>2011-03-27T07:38:04Z</time>
      </trkpt>
      <trkpt lat="43.53247" lon="5.5756">
        <ele>867.0117</ele>
        <time>2011-03-27T07:38:05Z</time>
      </trkpt>
      <trkpt lat="43.53247" lon="5.5756">
        <ele>867.0117</ele>
        <time>2011-03-27T07:38:06Z</time>
      </trkpt>
      <trkpt lat="43.53247" lon="5.5756">
        <ele>867.0117</ele>
        <time>2011-03-27T07:38:07Z</time>
      </trkpt>
      <trkpt lat="43.53247" lon="5.57559">
        <ele>867.0117</ele>
        <time>2011-03-27T07:38:08Z</time>
      </trkpt>
      <trkpt lat="43.53247" lon="5.57559">
        <ele>867.0117</ele>
        <time>2011-03-27T07:38:09Z</time>
      </trkpt>
      <trkpt lat="43.53248" lon="5.57558">
        <ele>867.0117</ele>
        <time>2011-03-27T07:38:10Z</time>
      </trkpt>
      <trkpt lat="43.53248" lon="5.57558">
        <ele>866.0117</ele>
        <time>2011-03-27T07:38:11Z</time>
      </trkpt>
      <trkpt lat="43.53248" lon="5.57557">
        <ele>866.0117</ele>
        <time>2011-03-27T07:38:12Z</time>
      </trkpt>
      <trkpt lat="43.53248" lon="5.57557">
        <ele>866.0117</ele>
        <time>2011-03-27T07:38:13Z</time>
      </trkpt>
      <trkpt lat="43.53248" lon="5.57556">
        <ele>865.0117</ele>
        <time>2011-03-27T07:38:14Z</time>
      </trkpt>
      <trkpt lat="43.53248" lon="5.57555">
        <ele>865.0117</ele>
        <time>2011-03-27T07:38:16Z</time>
      </trkpt>
      <trkpt lat="43.53248" lon="5.57554">
        <ele>864.0117</ele>
        <time>2011-03-27T07:38:17Z</time>
      </trkpt>
      <trkpt lat="43.53249" lon="5.57553">
        <ele>864.0117</ele>
        <time>2011-03-27T07:38:18Z</time>
      </trkpt>
      <trkpt lat="43.53249" lon="5.57552">
        <ele>864.0117</ele>
        <time>2011-03-27T07:38:19Z</time>
      </trkpt>
      <trkpt lat="43.53249" lon="5.57552">
        <ele>863.0117</ele>
        <time>2011-03-27T07:38:20Z</time>
      </trkpt>
      <trkpt lat="43.5325" lon="5.57551">
        <ele>863.0117</ele>
        <time>2011-03-27T07:38:21Z</time>
      </trkpt>
      <trkpt lat="43.53253" lon="5.57546">
        <ele>861.0117</ele>
        <time>2011-03-27T07:38:27Z</time>
      </trkpt>
      <trkpt lat="43.53253" lon="5.57546">
        <ele>861.0117</ele>
        <time>2011-03-27T07:38:28Z</time>
      </trkpt>
      <trkpt lat="43.53254" lon="5.57545">
        <ele>861.0117</ele>
        <time>2011-03-27T07:38:29Z</time>
      </trkpt>
      <trkpt lat="43.53254" lon="5.57545">
        <ele>860.0117</ele>
        <time>2011-03-27T07:38:30Z</time>
      </trkpt>
      <trkpt lat="43.53255" lon="5.57544">
        <ele>860.0117</ele>
        <time>2011-03-27T07:38:31Z</time>
      </trkpt>
      <trkpt lat="43.53256" lon="5.57543">
        <ele>860.0117</ele>
        <time>2011-03-27T07:38:32Z</time>
      </trkpt>
      <trkpt lat="43.53257" lon="5.57541">
        <ele>859.0117</ele>
        <time>2011-03-27T07:38:34Z</time>
      </trkpt>
      <trkpt lat="43.53257" lon="5.57541">
        <ele>859.0117</ele>
        <time>2011-03-27T07:38:35Z</time>
      </trkpt>
      <trkpt lat="43.53257" lon="5.5754">
        <ele>859.0117</ele>
        <time>2011-03-27T07:38:36Z</time>
      </trkpt>
      <trkpt lat="43.53257" lon="5.5754">
        <ele>859.0117</ele>
        <time>2011-03-27T07:38:37Z</time>
      </trkpt>
      <trkpt lat="43.53258" lon="5.5754">
        <ele>859.0117</ele>
        <time>2011-03-27T07:38:38Z</time>
      </trkpt>
      <trkpt lat="43.53258" lon="5.57539">
        <ele>858.0117</ele>
        <time>2011-03-27T07:38:39Z</time>
      </trkpt>
      <trkpt lat="43.53258" lon="5.57539">
        <ele>858.0117</ele>
        <time>2011-03-27T07:38:40Z</time>
      </trkpt>
      <trkpt lat="43.53258" lon="5.57539">
        <ele>858.0117</ele>
        <time>2011-03-27T07:38:41Z</time>
      </trkpt>
      <trkpt lat="43.53258" lon="5.5754">
        <ele>857.0117</ele>
        <time>2011-03-27T07:38:43Z</time>
      </trkpt>
      <trkpt lat="43.53258" lon="5.5754">
        <ele>857.0117</ele>
        <time>2011-03-27T07:38:44Z</time>
      </trkpt>
      <trkpt lat="43.53259" lon="5.57541">
        <ele>856.0117</ele>
        <time>2011-03-27T07:38:45Z</time>
      </trkpt>
      <trkpt lat="43.53259" lon="5.57541">
        <ele>856.0117</ele>
        <time>2011-03-27T07:38:46Z</time>
      </trkpt>
      <trkpt lat="43.53259" lon="5.5754">
        <ele>856.0117</ele>
        <time>2011-03-27T07:38:47Z</time>
      </trkpt>
      <trkpt lat="43.53259" lon="5.57541">
        <ele>856.0117</ele>
        <time>2011-03-27T07:38:48Z</time>
      </trkpt>
      <trkpt lat="43.53259" lon="5.57541">
        <ele>856.0117</ele>
        <time>2011-03-27T07:38:49Z</time>
      </trkpt>
      <trkpt lat="43.53259" lon="5.5754">
        <ele>855.0117</ele>
        <time>2011-03-27T07:38:50Z</time>
      </trkpt>
      <trkpt lat="43.53259" lon="5.5754">
        <ele>855.0117</ele>
        <time>2011-03-27T07:38:51Z</time>
      </trkpt>
      <trkpt lat="43.53259" lon="5.5754">
        <ele>855.0117</ele>
        <time>2011-03-27T07:38:52Z</time>
      </trkpt>
      <trkpt lat="43.5326" lon="5.5754">
        <ele>855.0117</ele>
        <time>2011-03-27T07:38:53Z</time>
      </trkpt>
      <trkpt lat="43.5326" lon="5.57539">
        <ele>855.0117</ele>
        <time>2011-03-27T07:38:54Z</time>
      </trkpt>
      <trkpt lat="43.5326" lon="5.57538">
        <ele>854.0117</ele>
        <time>2011-03-27T07:38:57Z</time>
      </trkpt>
      <trkpt lat="43.5326" lon="5.57538">
        <ele>854.0117</ele>
        <time>2011-03-27T07:38:58Z</time>
      </trkpt>
      <trkpt lat="43.53261" lon="5.57537">
        <ele>854.0117</ele>
        <time>2011-03-27T07:38:59Z</time>
      </trkpt>
      <trkpt lat="43.53261" lon="5.57537">
        <ele>854.0117</ele>
        <time>2011-03-27T07:39:00Z</time>
      </trkpt>
      <trkpt lat="43.53262" lon="5.57537">
        <ele>854.0117</ele>
        <time>2011-03-27T07:39:01Z</time>
      </trkpt>
      <trkpt lat="43.53262" lon="5.57536">
        <ele>853.0117</ele>
        <time>2011-03-27T07:39:02Z</time>
      </trkpt>
      <trkpt lat="43.53262" lon="5.57536">
        <ele>853.0117</ele>
        <time>2011-03-27T07:39:03Z</time>
      </trkpt>
      <trkpt lat="43.53262" lon="5.57536">
        <ele>853.0117</ele>
        <time>2011-03-27T07:39:04Z</time>
      </trkpt>
      <trkpt lat="43.53263" lon="5.57536">
        <ele>853.0117</ele>
        <time>2011-03-27T07:39:05Z</time>
      </trkpt>
      <trkpt lat="43.53263" lon="5.57536">
        <ele>853.0117</ele>
        <time>2011-03-27T07:39:06Z</time>
      </trkpt>
      <trkpt lat="43.53263" lon="5.57536">
        <ele>853.0117</ele>
        <time>2011-03-27T07:39:07Z</time>
      </trkpt>
      <trkpt lat="43.53264" lon="5.57536">
        <ele>853.0117</ele>
        <time>2011-03-27T07:39:08Z</time>
      </trkpt>
      <trkpt lat="43.53264" lon="5.57536">
        <ele>853.0117</ele>
        <time>2011-03-27T07:39:09Z</time>
      </trkpt>
      <trkpt lat="43.53265" lon="5.57536">
        <ele>853.0117</ele>
        <time>2011-03-27T07:39:10Z</time>
      </trkpt>
      <trkpt lat="43.53266" lon="5.57536">
        <ele>853.0117</ele>
        <time>2011-03-27T07:39:11Z</time>
      </trkpt>
      <trkpt lat="43.53267" lon="5.57535">
        <ele>853.0117</ele>
        <time>2011-03-27T07:39:12Z</time>
      </trkpt>
      <trkpt lat="43.53267" lon="5.57535">
        <ele>853.0117</ele>
        <time>2011-03-27T07:39:13Z</time>
      </trkpt>
      <trkpt lat="43.53268" lon="5.57534">
        <ele>853.0117</ele>
        <time>2011-03-27T07:39:14Z</time>
      </trkpt>
      <trkpt lat="43.5327" lon="5.5753">
        <ele>852.0117</ele>
        <time>2011-03-27T07:39:18Z</time>
      </trkpt>
      <trkpt lat="43.5327" lon="5.5753">
        <ele>852.0117</ele>
        <time>2011-03-27T07:39:19Z</time>
      </trkpt>
      <trkpt lat="43.53271" lon="5.57529">
        <ele>852.0117</ele>
        <time>2011-03-27T07:39:20Z</time>
      </trkpt>
      <trkpt lat="43.53272" lon="5.57528">
        <ele>852.0117</ele>
        <time>2011-03-27T07:39:21Z</time>
      </trkpt>
      <trkpt lat="43.53272" lon="5.57528">
        <ele>852.0117</ele>
        <time>2011-03-27T07:39:22Z</time>
      </trkpt>
      <trkpt lat="43.53273" lon="5.57527">
        <ele>852.0117</ele>
        <time>2011-03-27T07:39:23Z</time>
      </trkpt>
      <trkpt lat="43.53273" lon="5.57527">
        <ele>852.0117</ele>
        <time>2011-03-27T07:39:24Z</time>
      </trkpt>
      <trkpt lat="43.53274" lon="5.57527">
        <ele>852.0117</ele>
        <time>2011-03-27T07:39:25Z</time>
      </trkpt>
      <trkpt lat="43.53275" lon="5.57526">
        <ele>852.0117</ele>
        <time>2011-03-27T07:39:26Z</time>
      </trkpt>
      <trkpt lat="43.53276" lon="5.57526">
        <ele>852.0117</ele>
        <time>2011-03-27T07:39:27Z</time>
      </trkpt>
      <trkpt lat="43.53276" lon="5.57526">
        <ele>852.0117</ele>
        <time>2011-03-27T07:39:28Z</time>
      </trkpt>
      <trkpt lat="43.53277" lon="5.57526">
        <ele>852.0117</ele>
        <time>2011-03-27T07:39:29Z</time>
      </trkpt>
      <trkpt lat="43.53278" lon="5.57525">
        <ele>851.0117</ele>
        <time>2011-03-27T07:39:30Z</time>
      </trkpt>
      <trkpt lat="43.53279" lon="5.57526">
        <ele>851.0117</ele>
        <time>2011-03-27T07:39:31Z</time>
      </trkpt>
      <trkpt lat="43.5328" lon="5.57525">
        <ele>851.0117</ele>
        <time>2011-03-27T07:39:32Z</time>
      </trkpt>
      <trkpt lat="43.53281" lon="5.57525">
        <ele>851.0117</ele>
        <time>2011-03-27T07:39:33Z</time>
      </trkpt>
      <trkpt lat="43.53281" lon="5.57524">
        <ele>851.0117</ele>
        <time>2011-03-27T07:39:34Z</time>
      </trkpt>
      <trkpt lat="43.53282" lon="5.57524">
        <ele>851.0117</ele>
        <time>2011-03-27T07:39:35Z</time>
      </trkpt>
      <trkpt lat="43.53282" lon="5.57524">
        <ele>851.0117</ele>
        <time>2011-03-27T07:39:36Z</time>
      </trkpt>
      <trkpt lat="43.53283" lon="5.57523">
        <ele>851.0117</ele>
        <time>2011-03-27T07:39:37Z</time>
      </trkpt>
      <trkpt lat="43.53283" lon="5.57523">
        <ele>851.0117</ele>
        <time>2011-03-27T07:39:38Z</time>
      </trkpt>
      <trkpt lat="43.53283" lon="5.57523">
        <ele>850.0117</ele>
        <time>2011-03-27T07:39:39Z</time>
      </trkpt>
      <trkpt lat="43.53283" lon="5.57522">
        <ele>850.0117</ele>
        <time>2011-03-27T07:39:40Z</time>
      </trkpt>
      <trkpt lat="43.53284" lon="5.57522">
        <ele>850.0117</ele>
        <time>2011-03-27T07:39:41Z</time>
      </trkpt>
      <trkpt lat="43.53284" lon="5.57521">
        <ele>850.0117</ele>
        <time>2011-03-27T07:39:42Z</time>
      </trkpt>
      <trkpt lat="43.53284" lon="5.57521">
        <ele>850.0117</ele>
        <time>2011-03-27T07:39:43Z</time>
      </trkpt>
      <trkpt lat="43.53284" lon="5.57521">
        <ele>849.0117</ele>
        <time>2011-03-27T07:39:44Z</time>
      </trkpt>
      <trkpt lat="43.53284" lon="5.5752">
        <ele>848.0117</ele>
        <time>2011-03-27T07:39:46Z</time>
      </trkpt>
      <trkpt lat="43.53284" lon="5.5752">
        <ele>848.0117</ele>
        <time>2011-03-27T07:39:47Z</time>
      </trkpt>
      <trkpt lat="43.53285" lon="5.57519">
        <ele>848.0117</ele>
        <time>2011-03-27T07:39:49Z</time>
      </trkpt>
      <trkpt lat="43.53285" lon="5.57519">
        <ele>847.0117</ele>
        <time>2011-03-27T07:39:50Z</time>
      </trkpt>
      <trkpt lat="43.53285" lon="5.57519">
        <ele>847.0117</ele>
        <time>2011-03-27T07:39:51Z</time>
      </trkpt>
      <trkpt lat="43.53285" lon="5.57519">
        <ele>847.0117</ele>
        <time>2011-03-27T07:39:52Z</time>
      </trkpt>
      <trkpt lat="43.53286" lon="5.57518">
        <ele>846.0117</ele>
        <time>2011-03-27T07:39:53Z</time>
      </trkpt>
      <trkpt lat="43.53286" lon="5.57518">
        <ele>846.0117</ele>
        <time>2011-03-27T07:39:54Z</time>
      </trkpt>
      <trkpt lat="43.53287" lon="5.57518">
        <ele>846.0117</ele>
        <time>2011-03-27T07:39:55Z</time>
      </trkpt>
      <trkpt lat="43.53288" lon="5.57517">
        <ele>846.0117</ele>
        <time>2011-03-27T07:39:56Z</time>
      </trkpt>
      <trkpt lat="43.53288" lon="5.57517">
        <ele>846.0117</ele>
        <time>2011-03-27T07:39:57Z</time>
      </trkpt>
      <trkpt lat="43.53289" lon="5.57516">
        <ele>845.0117</ele>
        <time>2011-03-27T07:39:58Z</time>
      </trkpt>
      <trkpt lat="43.53289" lon="5.57515">
        <ele>845.0117</ele>
        <time>2011-03-27T07:39:59Z</time>
      </trkpt>
      <trkpt lat="43.53289" lon="5.57515">
        <ele>845.0117</ele>
        <time>2011-03-27T07:40:00Z</time>
      </trkpt>
      <trkpt lat="43.53289" lon="5.57515">
        <ele>845.0117</ele>
        <time>2011-03-27T07:40:01Z</time>
      </trkpt>
      <trkpt lat="43.53289" lon="5.57515">
        <ele>845.0117</ele>
        <time>2011-03-27T07:40:02Z</time>
      </trkpt>
      <trkpt lat="43.53289" lon="5.57514">
        <ele>844.0117</ele>
        <time>2011-03-27T07:40:03Z</time>
      </trkpt>
      <trkpt lat="43.5329" lon="5.57513">
        <ele>844.0117</ele>
        <time>2011-03-27T07:40:04Z</time>
      </trkpt>
      <trkpt lat="43.53291" lon="5.57513">
        <ele>844.0117</ele>
        <time>2011-03-27T07:40:05Z</time>
      </trkpt>
      <trkpt lat="43.53291" lon="5.57512">
        <ele>843.0117</ele>
        <time>2011-03-27T07:40:06Z</time>
      </trkpt>
      <trkpt lat="43.53293" lon="5.57509">
        <ele>842.0117</ele>
        <time>2011-03-27T07:40:10Z</time>
      </trkpt>
      <trkpt lat="43.53293" lon="5.57508">
        <ele>842.0117</ele>
        <time>2011-03-27T07:40:11Z</time>
      </trkpt>
      <trkpt lat="43.53293" lon="5.57508">
        <ele>842.0117</ele>
        <time>2011-03-27T07:40:12Z</time>
      </trkpt>
      <trkpt lat="43.53294" lon="5.57507">
        <ele>842.0117</ele>
        <time>2011-03-27T07:40:13Z</time>
      </trkpt>
      <trkpt lat="43.53295" lon="5.57505">
        <ele>842.0117</ele>
        <time>2011-03-27T07:40:15Z</time>
      </trkpt>
      <trkpt lat="43.53295" lon="5.57504">
        <ele>842.0117</ele>
        <time>2011-03-27T07:40:16Z</time>
      </trkpt>
      <trkpt lat="43.53295" lon="5.57503">
        <ele>842.0117</ele>
        <time>2011-03-27T07:40:17Z</time>
      </trkpt>
      <trkpt lat="43.53296" lon="5.57502">
        <ele>841.0117</ele>
        <time>2011-03-27T07:40:18Z</time>
      </trkpt>
      <trkpt lat="43.53297" lon="5.57499">
        <ele>839.0117</ele>
        <time>2011-03-27T07:40:23Z</time>
      </trkpt>
      <trkpt lat="43.53298" lon="5.57498">
        <ele>839.0117</ele>
        <time>2011-03-27T07:40:24Z</time>
      </trkpt>
      <trkpt lat="43.53301" lon="5.57496">
        <ele>837.0117</ele>
        <time>2011-03-27T07:40:30Z</time>
      </trkpt>
      <trkpt lat="43.53302" lon="5.57496">
        <ele>837.0117</ele>
        <time>2011-03-27T07:40:31Z</time>
      </trkpt>
      <trkpt lat="43.53303" lon="5.57494">
        <ele>836.0117</ele>
        <time>2011-03-27T07:40:35Z</time>
      </trkpt>
      <trkpt lat="43.53303" lon="5.57493">
        <ele>836.0117</ele>
        <time>2011-03-27T07:40:36Z</time>
      </trkpt>
      <trkpt lat="43.53305" lon="5.57489">
        <ele>834.0117</ele>
        <time>2011-03-27T07:40:40Z</time>
      </trkpt>
      <trkpt lat="43.53305" lon="5.57489">
        <ele>834.0117</ele>
        <time>2011-03-27T07:40:41Z</time>
      </trkpt>
      <trkpt lat="43.53305" lon="5.57488">
        <ele>834.0117</ele>
        <time>2011-03-27T07:40:42Z</time>
      </trkpt>
      <trkpt lat="43.53306" lon="5.57486">
        <ele>833.0117</ele>
        <time>2011-03-27T07:40:43Z</time>
      </trkpt>
      <trkpt lat="43.53307" lon="5.57485">
        <ele>833.0117</ele>
        <time>2011-03-27T07:40:44Z</time>
      </trkpt>
      <trkpt lat="43.53307" lon="5.57484">
        <ele>833.0117</ele>
        <time>2011-03-27T07:40:45Z</time>
      </trkpt>
      <trkpt lat="43.53307" lon="5.57483">
        <ele>832.0117</ele>
        <time>2011-03-27T07:40:46Z</time>
      </trkpt>
      <trkpt lat="43.53308" lon="5.57482">
        <ele>832.0117</ele>
        <time>2011-03-27T07:40:48Z</time>
      </trkpt>
      <trkpt lat="43.53308" lon="5.57481">
        <ele>832.0117</ele>
        <time>2011-03-27T07:40:49Z</time>
      </trkpt>
      <trkpt lat="43.53309" lon="5.5748">
        <ele>831.0117</ele>
        <time>2011-03-27T07:40:50Z</time>
      </trkpt>
      <trkpt lat="43.53309" lon="5.57479">
        <ele>831.0117</ele>
        <time>2011-03-27T07:40:51Z</time>
      </trkpt>
      <trkpt lat="43.53309" lon="5.57478">
        <ele>831.0117</ele>
        <time>2011-03-27T07:40:52Z</time>
      </trkpt>
      <trkpt lat="43.53309" lon="5.57478">
        <ele>831.0117</ele>
        <time>2011-03-27T07:40:53Z</time>
      </trkpt>
      <trkpt lat="43.5331" lon="5.57477">
        <ele>831.0117</ele>
        <time>2011-03-27T07:40:54Z</time>
      </trkpt>
      <trkpt lat="43.5331" lon="5.57477">
        <ele>831.0117</ele>
        <time>2011-03-27T07:40:55Z</time>
      </trkpt>
      <trkpt lat="43.53311" lon="5.57476">
        <ele>830.0117</ele>
        <time>2011-03-27T07:40:56Z</time>
      </trkpt>
      <trkpt lat="43.53311" lon="5.57476">
        <ele>830.0117</ele>
        <time>2011-03-27T07:40:57Z</time>
      </trkpt>
      <trkpt lat="43.53311" lon="5.57476">
        <ele>829.0117</ele>
        <time>2011-03-27T07:40:58Z</time>
      </trkpt>
      <trkpt lat="43.53312" lon="5.57476">
        <ele>829.0117</ele>
        <time>2011-03-27T07:40:59Z</time>
      </trkpt>
      <trkpt lat="43.53312" lon="5.57476">
        <ele>828.0117</ele>
        <time>2011-03-27T07:41:00Z</time>
      </trkpt>
      <trkpt lat="43.53312" lon="5.57476">
        <ele>828.0117</ele>
        <time>2011-03-27T07:41:01Z</time>
      </trkpt>
      <trkpt lat="43.53312" lon="5.57475">
        <ele>828.0117</ele>
        <time>2011-03-27T07:41:02Z</time>
      </trkpt>
      <trkpt lat="43.53312" lon="5.57476">
        <ele>828.0117</ele>
        <time>2011-03-27T07:41:03Z</time>
      </trkpt>
      <trkpt lat="43.53313" lon="5.57475">
        <ele>828.0117</ele>
        <time>2011-03-27T07:41:04Z</time>
      </trkpt>
      <trkpt lat="43.53313" lon="5.57475">
        <ele>828.0117</ele>
        <time>2011-03-27T07:41:05Z</time>
      </trkpt>
      <trkpt lat="43.53313" lon="5.57474">
        <ele>827.0117</ele>
        <time>2011-03-27T07:41:06Z</time>
      </trkpt>
      <trkpt lat="43.53314" lon="5.57474">
        <ele>827.0117</ele>
        <time>2011-03-27T07:41:07Z</time>
      </trkpt>
      <trkpt lat="43.53315" lon="5.57474">
        <ele>827.0117</ele>
        <time>2011-03-27T07:41:08Z</time>
      </trkpt>
      <trkpt lat="43.53315" lon="5.57473">
        <ele>827.0117</ele>
        <time>2011-03-27T07:41:09Z</time>
      </trkpt>
      <trkpt lat="43.53315" lon="5.57473">
        <ele>827.0117</ele>
        <time>2011-03-27T07:41:10Z</time>
      </trkpt>
      <trkpt lat="43.53316" lon="5.57473">
        <ele>827.0117</ele>
        <time>2011-03-27T07:41:11Z</time>
      </trkpt>
      <trkpt lat="43.53317" lon="5.57472">
        <ele>827.0117</ele>
        <time>2011-03-27T07:41:12Z</time>
      </trkpt>
      <trkpt lat="43.53317" lon="5.57473">
        <ele>827.0117</ele>
        <time>2011-03-27T07:41:13Z</time>
      </trkpt>
      <trkpt lat="43.53324" lon="5.57468">
        <ele>826.0117</ele>
        <time>2011-03-27T07:41:22Z</time>
      </trkpt>
      <trkpt lat="43.53324" lon="5.57468">
        <ele>826.0117</ele>
        <time>2011-03-27T07:41:23Z</time>
      </trkpt>
      <trkpt lat="43.53325" lon="5.57468">
        <ele>826.0117</ele>
        <time>2011-03-27T07:41:24Z</time>
      </trkpt>
      <trkpt lat="43.53326" lon="5.57468">
        <ele>826.0117</ele>
        <time>2011-03-27T07:41:25Z</time>
      </trkpt>
      <trkpt lat="43.53326" lon="5.57468">
        <ele>825.0117</ele>
        <time>2011-03-27T07:41:26Z</time>
      </trkpt>
      <trkpt lat="43.53327" lon="5.57468">
        <ele>825.0117</ele>
        <time>2011-03-27T07:41:27Z</time>
      </trkpt>
      <trkpt lat="43.53328" lon="5.57468">
        <ele>825.0117</ele>
        <time>2011-03-27T07:41:28Z</time>
      </trkpt>
      <trkpt lat="43.53329" lon="5.57468">
        <ele>824.0117</ele>
        <time>2011-03-27T07:41:29Z</time>
      </trkpt>
      <trkpt lat="43.53329" lon="5.57467">
        <ele>824.0117</ele>
        <time>2011-03-27T07:41:30Z</time>
      </trkpt>
      <trkpt lat="43.5333" lon="5.57467">
        <ele>823.0117</ele>
        <time>2011-03-27T07:41:31Z</time>
      </trkpt>
      <trkpt lat="43.53331" lon="5.57466">
        <ele>823.0117</ele>
        <time>2011-03-27T07:41:32Z</time>
      </trkpt>
      <trkpt lat="43.53332" lon="5.57465">
        <ele>821.0117</ele>
        <time>2011-03-27T07:41:36Z</time>
      </trkpt>
      <trkpt lat="43.53333" lon="5.57463">
        <ele>820.0117</ele>
        <time>2011-03-27T07:41:37Z</time>
      </trkpt>
      <trkpt lat="43.53334" lon="5.57458">
        <ele>820.0117</ele>
        <time>2011-03-27T07:41:41Z</time>
      </trkpt>
      <trkpt lat="43.53334" lon="5.57456">
        <ele>820.0117</ele>
        <time>2011-03-27T07:41:42Z</time>
      </trkpt>
      <trkpt lat="43.53334" lon="5.57455">
        <ele>820.0117</ele>
        <time>2011-03-27T07:41:43Z</time>
      </trkpt>
      <trkpt lat="43.53334" lon="5.57453">
        <ele>820.0117</ele>
        <time>2011-03-27T07:41:44Z</time>
      </trkpt>
      <trkpt lat="43.53334" lon="5.57452">
        <ele>820.0117</ele>
        <time>2011-03-27T07:41:45Z</time>
      </trkpt>
      <trkpt lat="43.53334" lon="5.5745">
        <ele>820.0117</ele>
        <time>2011-03-27T07:41:46Z</time>
      </trkpt>
      <trkpt lat="43.53334" lon="5.57449">
        <ele>820.0117</ele>
        <time>2011-03-27T07:41:47Z</time>
      </trkpt>
      <trkpt lat="43.53334" lon="5.57448">
        <ele>820.0117</ele>
        <time>2011-03-27T07:41:48Z</time>
      </trkpt>
      <trkpt lat="43.53333" lon="5.57442">
        <ele>818.0116</ele>
        <time>2011-03-27T07:41:54Z</time>
      </trkpt>
      <trkpt lat="43.53333" lon="5.57441">
        <ele>818.0116</ele>
        <time>2011-03-27T07:41:55Z</time>
      </trkpt>
      <trkpt lat="43.53333" lon="5.5744">
        <ele>817.0116</ele>
        <time>2011-03-27T07:41:56Z</time>
      </trkpt>
      <trkpt lat="43.53334" lon="5.57439">
        <ele>817.0116</ele>
        <time>2011-03-27T07:41:57Z</time>
      </trkpt>
      <trkpt lat="43.53334" lon="5.57438">
        <ele>817.0116</ele>
        <time>2011-03-27T07:41:58Z</time>
      </trkpt>
      <trkpt lat="43.53334" lon="5.57437">
        <ele>817.0116</ele>
        <time>2011-03-27T07:41:59Z</time>
      </trkpt>
      <trkpt lat="43.53335" lon="5.5743">
        <ele>816.0116</ele>
        <time>2011-03-27T07:42:05Z</time>
      </trkpt>
      <trkpt lat="43.53335" lon="5.57429">
        <ele>816.0116</ele>
        <time>2011-03-27T07:42:06Z</time>
      </trkpt>
      <trkpt lat="43.53336" lon="5.57429">
        <ele>816.0116</ele>
        <time>2011-03-27T07:42:07Z</time>
      </trkpt>
      <trkpt lat="43.53337" lon="5.57428">
        <ele>816.0116</ele>
        <time>2011-03-27T07:42:08Z</time>
      </trkpt>
      <trkpt lat="43.53338" lon="5.57429">
        <ele>815.0116</ele>
        <time>2011-03-27T07:42:09Z</time>
      </trkpt>
      <trkpt lat="43.53339" lon="5.57429">
        <ele>815.0116</ele>
        <time>2011-03-27T07:42:10Z</time>
      </trkpt>
      <trkpt lat="43.5334" lon="5.57429">
        <ele>815.0116</ele>
        <time>2011-03-27T07:42:11Z</time>
      </trkpt>
      <trkpt lat="43.53341" lon="5.5743">
        <ele>815.0116</ele>
        <time>2011-03-27T07:42:12Z</time>
      </trkpt>
      <trkpt lat="43.53346" lon="5.57433">
        <ele>815.0117</ele>
        <time>2011-03-27T07:42:17Z</time>
      </trkpt>
      <trkpt lat="43.53346" lon="5.57434">
        <ele>815.0117</ele>
        <time>2011-03-27T07:42:18Z</time>
      </trkpt>
      <trkpt lat="43.53347" lon="5.57435">
        <ele>815.0117</ele>
        <time>2011-03-27T07:42:19Z</time>
      </trkpt>
      <trkpt lat="43.53352" lon="5.57442">
        <ele>814.0117</ele>
        <time>2011-03-27T07:42:25Z</time>
      </trkpt>
      <trkpt lat="43.53352" lon="5.57443">
        <ele>814.0117</ele>
        <time>2011-03-27T07:42:26Z</time>
      </trkpt>
      <trkpt lat="43.53353" lon="5.57445">
        <ele>814.0117</ele>
        <time>2011-03-27T07:42:27Z</time>
      </trkpt>
      <trkpt lat="43.53354" lon="5.57446">
        <ele>814.0117</ele>
        <time>2011-03-27T07:42:28Z</time>
      </trkpt>
      <trkpt lat="43.53354" lon="5.57448">
        <ele>814.0117</ele>
        <time>2011-03-27T07:42:30Z</time>
      </trkpt>
      <trkpt lat="43.53355" lon="5.57449">
        <ele>813.0117</ele>
        <time>2011-03-27T07:42:31Z</time>
      </trkpt>
      <trkpt lat="43.53355" lon="5.5745">
        <ele>813.0117</ele>
        <time>2011-03-27T07:42:32Z</time>
      </trkpt>
      <trkpt lat="43.53355" lon="5.57451">
        <ele>813.0117</ele>
        <time>2011-03-27T07:42:33Z</time>
      </trkpt>
      <trkpt lat="43.53356" lon="5.57452">
        <ele>814.0117</ele>
        <time>2011-03-27T07:42:34Z</time>
      </trkpt>
      <trkpt lat="43.53356" lon="5.57453">
        <ele>814.0117</ele>
        <time>2011-03-27T07:42:35Z</time>
      </trkpt>
      <trkpt lat="43.53357" lon="5.57454">
        <ele>814.0117</ele>
        <time>2011-03-27T07:42:36Z</time>
      </trkpt>
      <trkpt lat="43.53357" lon="5.57455">
        <ele>814.0117</ele>
        <time>2011-03-27T07:42:37Z</time>
      </trkpt>
      <trkpt lat="43.5336" lon="5.57461">
        <ele>812.0117</ele>
        <time>2011-03-27T07:42:43Z</time>
      </trkpt>
      <trkpt lat="43.5336" lon="5.57462">
        <ele>812.0117</ele>
        <time>2011-03-27T07:42:44Z</time>
      </trkpt>
      <trkpt lat="43.5336" lon="5.57463">
        <ele>812.0117</ele>
        <time>2011-03-27T07:42:45Z</time>
      </trkpt>
      <trkpt lat="43.5336" lon="5.57463">
        <ele>812.0117</ele>
        <time>2011-03-27T07:42:46Z</time>
      </trkpt>
      <trkpt lat="43.53361" lon="5.57463">
        <ele>812.0117</ele>
        <time>2011-03-27T07:42:47Z</time>
      </trkpt>
      <trkpt lat="43.53361" lon="5.57464">
        <ele>812.0117</ele>
        <time>2011-03-27T07:42:48Z</time>
      </trkpt>
      <trkpt lat="43.53362" lon="5.57464">
        <ele>813.0117</ele>
        <time>2011-03-27T07:42:50Z</time>
      </trkpt>
      <trkpt lat="43.53363" lon="5.57464">
        <ele>813.0117</ele>
        <time>2011-03-27T07:42:51Z</time>
      </trkpt>
      <trkpt lat="43.53363" lon="5.57463">
        <ele>813.0117</ele>
        <time>2011-03-27T07:42:52Z</time>
      </trkpt>
      <trkpt lat="43.53364" lon="5.57463">
        <ele>813.0117</ele>
        <time>2011-03-27T07:42:53Z</time>
      </trkpt>
      <trkpt lat="43.53364" lon="5.57462">
        <ele>813.0117</ele>
        <time>2011-03-27T07:42:54Z</time>
      </trkpt>
      <trkpt lat="43.53364" lon="5.57461">
        <ele>812.0117</ele>
        <time>2011-03-27T07:42:55Z</time>
      </trkpt>
      <trkpt lat="43.53365" lon="5.5746">
        <ele>812.0117</ele>
        <time>2011-03-27T07:42:56Z</time>
      </trkpt>
      <trkpt lat="43.53365" lon="5.57459">
        <ele>812.0117</ele>
        <time>2011-03-27T07:42:57Z</time>
      </trkpt>
      <trkpt lat="43.53365" lon="5.57458">
        <ele>812.0117</ele>
        <time>2011-03-27T07:42:58Z</time>
      </trkpt>
      <trkpt lat="43.53365" lon="5.57455">
        <ele>811.0117</ele>
        <time>2011-03-27T07:43:01Z</time>
      </trkpt>
      <trkpt lat="43.53365" lon="5.57454">
        <ele>810.0117</ele>
        <time>2011-03-27T07:43:02Z</time>
      </trkpt>
      <trkpt lat="43.53365" lon="5.57453">
        <ele>810.0117</ele>
        <time>2011-03-27T07:43:03Z</time>
      </trkpt>
      <trkpt lat="43.53365" lon="5.57452">
        <ele>810.0117</ele>
        <time>2011-03-27T07:43:04Z</time>
      </trkpt>
      <trkpt lat="43.53365" lon="5.5745">
        <ele>809.0117</ele>
        <time>2011-03-27T07:43:06Z</time>
      </trkpt>
      <trkpt lat="43.53365" lon="5.57449">
        <ele>809.0117</ele>
        <time>2011-03-27T07:43:07Z</time>
      </trkpt>
      <trkpt lat="43.53366" lon="5.57447">
        <ele>809.0117</ele>
        <time>2011-03-27T07:43:09Z</time>
      </trkpt>
      <trkpt lat="43.53366" lon="5.57446">
        <ele>809.0117</ele>
        <time>2011-03-27T07:43:10Z</time>
      </trkpt>
      <trkpt lat="43.53366" lon="5.57445">
        <ele>809.0117</ele>
        <time>2011-03-27T07:43:11Z</time>
      </trkpt>
      <trkpt lat="43.53367" lon="5.57444">
        <ele>809.0117</ele>
        <time>2011-03-27T07:43:12Z</time>
      </trkpt>
      <trkpt lat="43.53367" lon="5.57444">
        <ele>809.0117</ele>
        <time>2011-03-27T07:43:13Z</time>
      </trkpt>
      <trkpt lat="43.53367" lon="5.57444">
        <ele>809.0117</ele>
        <time>2011-03-27T07:43:14Z</time>
      </trkpt>
      <trkpt lat="43.53367" lon="5.57443">
        <ele>809.0117</ele>
        <time>2011-03-27T07:43:15Z</time>
      </trkpt>
      <trkpt lat="43.53367" lon="5.57444">
        <ele>809.0117</ele>
        <time>2011-03-27T07:43:16Z</time>
      </trkpt>
      <trkpt lat="43.53367" lon="5.57443">
        <ele>809.0117</ele>
        <time>2011-03-27T07:43:19Z</time>
      </trkpt>
      <trkpt lat="43.53367" lon="5.57442">
        <ele>809.0117</ele>
        <time>2011-03-27T07:43:20Z</time>
      </trkpt>
      <trkpt lat="43.53368" lon="5.57442">
        <ele>808.0117</ele>
        <time>2011-03-27T07:43:21Z</time>
      </trkpt>
      <trkpt lat="43.53368" lon="5.57442">
        <ele>808.0117</ele>
        <time>2011-03-27T07:43:22Z</time>
      </trkpt>
      <trkpt lat="43.53368" lon="5.57442">
        <ele>808.0117</ele>
        <time>2011-03-27T07:43:23Z</time>
      </trkpt>
      <trkpt lat="43.53369" lon="5.57441">
        <ele>808.0117</ele>
        <time>2011-03-27T07:43:24Z</time>
      </trkpt>
      <trkpt lat="43.5337" lon="5.57439">
        <ele>806.0117</ele>
        <time>2011-03-27T07:43:28Z</time>
      </trkpt>
      <trkpt lat="43.5337" lon="5.57439">
        <ele>806.0117</ele>
        <time>2011-03-27T07:43:29Z</time>
      </trkpt>
      <trkpt lat="43.5337" lon="5.57439">
        <ele>806.0117</ele>
        <time>2011-03-27T07:43:30Z</time>
      </trkpt>
      <trkpt lat="43.5337" lon="5.57438">
        <ele>806.0117</ele>
        <time>2011-03-27T07:43:31Z</time>
      </trkpt>
      <trkpt lat="43.5337" lon="5.57438">
        <ele>806.0117</ele>
        <time>2011-03-27T07:43:32Z</time>
      </trkpt>
      <trkpt lat="43.53371" lon="5.57437">
        <ele>806.0117</ele>
        <time>2011-03-27T07:43:33Z</time>
      </trkpt>
      <trkpt lat="43.53371" lon="5.57437">
        <ele>806.0117</ele>
        <time>2011-03-27T07:43:34Z</time>
      </trkpt>
      <trkpt lat="43.5337" lon="5.57435">
        <ele>805.0117</ele>
        <time>2011-03-27T07:43:39Z</time>
      </trkpt>
      <trkpt lat="43.53371" lon="5.57435">
        <ele>805.0117</ele>
        <time>2011-03-27T07:43:40Z</time>
      </trkpt>
      <trkpt lat="43.53371" lon="5.57435">
        <ele>804.0117</ele>
        <time>2011-03-27T07:43:41Z</time>
      </trkpt>
      <trkpt lat="43.53371" lon="5.57435">
        <ele>804.0117</ele>
        <time>2011-03-27T07:43:42Z</time>
      </trkpt>
      <trkpt lat="43.53372" lon="5.57436">
        <ele>804.0117</ele>
        <time>2011-03-27T07:43:43Z</time>
      </trkpt>
      <trkpt lat="43.53372" lon="5.57436">
        <ele>804.0117</ele>
        <time>2011-03-27T07:43:44Z</time>
      </trkpt>
      <trkpt lat="43.53373" lon="5.57436">
        <ele>803.0117</ele>
        <time>2011-03-27T07:43:45Z</time>
      </trkpt>
      <trkpt lat="43.53373" lon="5.57436">
        <ele>802.0117</ele>
        <time>2011-03-27T07:43:49Z</time>
      </trkpt>
      <trkpt lat="43.53374" lon="5.57435">
        <ele>802.0117</ele>
        <time>2011-03-27T07:43:50Z</time>
      </trkpt>
      <trkpt lat="43.53374" lon="5.57435">
        <ele>802.0117</ele>
        <time>2011-03-27T07:43:51Z</time>
      </trkpt>
      <trkpt lat="43.53374" lon="5.57434">
        <ele>802.0117</ele>
        <time>2011-03-27T07:43:52Z</time>
      </trkpt>
      <trkpt lat="43.53375" lon="5.57433">
        <ele>802.0117</ele>
        <time>2011-03-27T07:43:53Z</time>
      </trkpt>
      <trkpt lat="43.53375" lon="5.57432">
        <ele>802.0117</ele>
        <time>2011-03-27T07:43:54Z</time>
      </trkpt>
      <trkpt lat="43.53376" lon="5.57431">
        <ele>802.0117</ele>
        <time>2011-03-27T07:43:55Z</time>
      </trkpt>
      <trkpt lat="43.53376" lon="5.5743">
        <ele>802.0117</ele>
        <time>2011-03-27T07:43:56Z</time>
      </trkpt>
      <trkpt lat="43.53376" lon="5.57429">
        <ele>801.0117</ele>
        <time>2011-03-27T07:43:57Z</time>
      </trkpt>
      <trkpt lat="43.53376" lon="5.57428">
        <ele>800.0117</ele>
        <time>2011-03-27T07:44:01Z</time>
      </trkpt>
      <trkpt lat="43.53376" lon="5.57427">
        <ele>800.0117</ele>
        <time>2011-03-27T07:44:02Z</time>
      </trkpt>
      <trkpt lat="43.53376" lon="5.57427">
        <ele>800.0117</ele>
        <time>2011-03-27T07:44:03Z</time>
      </trkpt>
      <trkpt lat="43.53377" lon="5.57427">
        <ele>800.0117</ele>
        <time>2011-03-27T07:44:04Z</time>
      </trkpt>
      <trkpt lat="43.53377" lon="5.57426">
        <ele>800.0117</ele>
        <time>2011-03-27T07:44:05Z</time>
      </trkpt>
      <trkpt lat="43.53377" lon="5.57425">
        <ele>799.0117</ele>
        <time>2011-03-27T07:44:06Z</time>
      </trkpt>
      <trkpt lat="43.53377" lon="5.57423">
        <ele>799.0117</ele>
        <time>2011-03-27T07:44:07Z</time>
      </trkpt>
      <trkpt lat="43.53379" lon="5.57419">
        <ele>798.0117</ele>
        <time>2011-03-27T07:44:11Z</time>
      </trkpt>
      <trkpt lat="43.53379" lon="5.57418">
        <ele>798.0117</ele>
        <time>2011-03-27T07:44:12Z</time>
      </trkpt>
      <trkpt lat="43.53379" lon="5.57417">
        <ele>798.0117</ele>
        <time>2011-03-27T07:44:13Z</time>
      </trkpt>
      <trkpt lat="43.5338" lon="5.57415">
        <ele>798.0117</ele>
        <time>2011-03-27T07:44:14Z</time>
      </trkpt>
      <trkpt lat="43.5338" lon="5.57414">
        <ele>798.0117</ele>
        <time>2011-03-27T07:44:15Z</time>
      </trkpt>
      <trkpt lat="43.5338" lon="5.57413">
        <ele>798.0117</ele>
        <time>2011-03-27T07:44:16Z</time>
      </trkpt>
      <trkpt lat="43.53381" lon="5.57407">
        <ele>797.0117</ele>
        <time>2011-03-27T07:44:21Z</time>
      </trkpt>
      <trkpt lat="43.53381" lon="5.57407">
        <ele>796.0117</ele>
        <time>2011-03-27T07:44:22Z</time>
      </trkpt>
      <trkpt lat="43.53381" lon="5.57407">
        <ele>796.0117</ele>
        <time>2011-03-27T07:44:23Z</time>
      </trkpt>
      <trkpt lat="43.53382" lon="5.57407">
        <ele>796.0117</ele>
        <time>2011-03-27T07:44:24Z</time>
      </trkpt>
      <trkpt lat="43.53382" lon="5.57406">
        <ele>795.0117</ele>
        <time>2011-03-27T07:44:25Z</time>
      </trkpt>
      <trkpt lat="43.53383" lon="5.57405">
        <ele>794.0117</ele>
        <time>2011-03-27T07:44:26Z</time>
      </trkpt>
      <trkpt lat="43.53383" lon="5.57404">
        <ele>794.0117</ele>
        <time>2011-03-27T07:44:28Z</time>
      </trkpt>
      <trkpt lat="43.53384" lon="5.57403">
        <ele>793.0117</ele>
        <time>2011-03-27T07:44:29Z</time>
      </trkpt>
      <trkpt lat="43.53384" lon="5.57402">
        <ele>792.0117</ele>
        <time>2011-03-27T07:44:30Z</time>
      </trkpt>
      <trkpt lat="43.53384" lon="5.57402">
        <ele>792.0117</ele>
        <time>2011-03-27T07:44:31Z</time>
      </trkpt>
      <trkpt lat="43.53386" lon="5.57399">
        <ele>792.0117</ele>
        <time>2011-03-27T07:44:35Z</time>
      </trkpt>
      <trkpt lat="43.53386" lon="5.57398">
        <ele>791.0117</ele>
        <time>2011-03-27T07:44:36Z</time>
      </trkpt>
      <trkpt lat="43.53386" lon="5.57397">
        <ele>790.0117</ele>
        <time>2011-03-27T07:44:38Z</time>
      </trkpt>
      <trkpt lat="43.53386" lon="5.57396">
        <ele>790.0117</ele>
        <time>2011-03-27T07:44:39Z</time>
      </trkpt>
      <trkpt lat="43.53387" lon="5.57395">
        <ele>790.0117</ele>
        <time>2011-03-27T07:44:41Z</time>
      </trkpt>
      <trkpt lat="43.53387" lon="5.57395">
        <ele>790.0117</ele>
        <time>2011-03-27T07:44:42Z</time>
      </trkpt>
      <trkpt lat="43.53387" lon="5.57394">
        <ele>789.0117</ele>
        <time>2011-03-27T07:44:43Z</time>
      </trkpt>
      <trkpt lat="43.53388" lon="5.57393">
        <ele>788.0116</ele>
        <time>2011-03-27T07:44:45Z</time>
      </trkpt>
      <trkpt lat="43.53388" lon="5.57392">
        <ele>788.0116</ele>
        <time>2011-03-27T07:44:46Z</time>
      </trkpt>
      <trkpt lat="43.53388" lon="5.57391">
        <ele>787.0117</ele>
        <time>2011-03-27T07:44:47Z</time>
      </trkpt>
      <trkpt lat="43.53389" lon="5.57391">
        <ele>787.0116</ele>
        <time>2011-03-27T07:44:48Z</time>
      </trkpt>
      <trkpt lat="43.53389" lon="5.5739">
        <ele>787.0116</ele>
        <time>2011-03-27T07:44:49Z</time>
      </trkpt>
      <trkpt lat="43.5339" lon="5.57389">
        <ele>786.0116</ele>
        <time>2011-03-27T07:44:50Z</time>
      </trkpt>
      <trkpt lat="43.53391" lon="5.57388">
        <ele>785.0116</ele>
        <time>2011-03-27T07:44:51Z</time>
      </trkpt>
      <trkpt lat="43.53391" lon="5.57387">
        <ele>785.0116</ele>
        <time>2011-03-27T07:44:52Z</time>
      </trkpt>
      <trkpt lat="43.53391" lon="5.57387">
        <ele>784.0116</ele>
        <time>2011-03-27T07:44:53Z</time>
      </trkpt>
      <trkpt lat="43.53392" lon="5.57386">
        <ele>784.0116</ele>
        <time>2011-03-27T07:44:54Z</time>
      </trkpt>
      <trkpt lat="43.53392" lon="5.57386">
        <ele>784.0116</ele>
        <time>2011-03-27T07:44:55Z</time>
      </trkpt>
      <trkpt lat="43.53392" lon="5.57385">
        <ele>783.0116</ele>
        <time>2011-03-27T07:44:56Z</time>
      </trkpt>
      <trkpt lat="43.53395" lon="5.57384">
        <ele>783.0116</ele>
        <time>2011-03-27T07:45:00Z</time>
      </trkpt>
      <trkpt lat="43.53396" lon="5.57384">
        <ele>783.0116</ele>
        <time>2011-03-27T07:45:01Z</time>
      </trkpt>
      <trkpt lat="43.53397" lon="5.57384">
        <ele>783.0117</ele>
        <time>2011-03-27T07:45:02Z</time>
      </trkpt>
      <trkpt lat="43.53397" lon="5.57383">
        <ele>782.0116</ele>
        <time>2011-03-27T07:45:03Z</time>
      </trkpt>
      <trkpt lat="43.53398" lon="5.57382">
        <ele>782.0117</ele>
        <time>2011-03-27T07:45:04Z</time>
      </trkpt>
      <trkpt lat="43.53399" lon="5.57381">
        <ele>782.0116</ele>
        <time>2011-03-27T07:45:05Z</time>
      </trkpt>
      <trkpt lat="43.53399" lon="5.5738">
        <ele>781.0117</ele>
        <time>2011-03-27T07:45:07Z</time>
      </trkpt>
      <trkpt lat="43.534" lon="5.57379">
        <ele>781.0116</ele>
        <time>2011-03-27T07:45:08Z</time>
      </trkpt>
      <trkpt lat="43.534" lon="5.57379">
        <ele>781.0116</ele>
        <time>2011-03-27T07:45:09Z</time>
      </trkpt>
      <trkpt lat="43.53404" lon="5.57377">
        <ele>779.0117</ele>
        <time>2011-03-27T07:45:13Z</time>
      </trkpt>
      <trkpt lat="43.53404" lon="5.57377">
        <ele>779.0117</ele>
        <time>2011-03-27T07:45:14Z</time>
      </trkpt>
      <trkpt lat="43.53405" lon="5.57376">
        <ele>779.0117</ele>
        <time>2011-03-27T07:45:15Z</time>
      </trkpt>
      <trkpt lat="43.53405" lon="5.57376">
        <ele>779.0117</ele>
        <time>2011-03-27T07:45:16Z</time>
      </trkpt>
      <trkpt lat="43.53406" lon="5.57375">
        <ele>779.0117</ele>
        <time>2011-03-27T07:45:17Z</time>
      </trkpt>
      <trkpt lat="43.53408" lon="5.57372">
        <ele>779.0116</ele>
        <time>2011-03-27T07:45:20Z</time>
      </trkpt>
      <trkpt lat="43.53408" lon="5.57371">
        <ele>779.0116</ele>
        <time>2011-03-27T07:45:21Z</time>
      </trkpt>
      <trkpt lat="43.53409" lon="5.57371">
        <ele>778.0116</ele>
        <time>2011-03-27T07:45:22Z</time>
      </trkpt>
      <trkpt lat="43.53409" lon="5.5737">
        <ele>778.0116</ele>
        <time>2011-03-27T07:45:23Z</time>
      </trkpt>
      <trkpt lat="43.5341" lon="5.5737">
        <ele>778.0116</ele>
        <time>2011-03-27T07:45:24Z</time>
      </trkpt>
      <trkpt lat="43.5341" lon="5.57369">
        <ele>778.0116</ele>
        <time>2011-03-27T07:45:25Z</time>
      </trkpt>
      <trkpt lat="43.5341" lon="5.57369">
        <ele>778.0116</ele>
        <time>2011-03-27T07:45:26Z</time>
      </trkpt>
      <trkpt lat="43.5341" lon="5.57368">
        <ele>778.0116</ele>
        <time>2011-03-27T07:45:27Z</time>
      </trkpt>
      <trkpt lat="43.5341" lon="5.57368">
        <ele>778.0116</ele>
        <time>2011-03-27T07:45:28Z</time>
      </trkpt>
      <trkpt lat="43.53411" lon="5.57367">
        <ele>778.0116</ele>
        <time>2011-03-27T07:45:29Z</time>
      </trkpt>
      <trkpt lat="43.53411" lon="5.57367">
        <ele>777.0116</ele>
        <time>2011-03-27T07:45:30Z</time>
      </trkpt>
      <trkpt lat="43.53412" lon="5.57366">
        <ele>777.0116</ele>
        <time>2011-03-27T07:45:31Z</time>
      </trkpt>
      <trkpt lat="43.53412" lon="5.57366">
        <ele>776.0116</ele>
        <time>2011-03-27T07:45:32Z</time>
      </trkpt>
      <trkpt lat="43.53412" lon="5.57365">
        <ele>776.0116</ele>
        <time>2011-03-27T07:45:33Z</time>
      </trkpt>
      <trkpt lat="43.53413" lon="5.57364">
        <ele>775.0116</ele>
        <time>2011-03-27T07:45:34Z</time>
      </trkpt>
      <trkpt lat="43.53413" lon="5.57364">
        <ele>775.0116</ele>
        <time>2011-03-27T07:45:35Z</time>
      </trkpt>
      <trkpt lat="43.53414" lon="5.57363">
        <ele>775.0116</ele>
        <time>2011-03-27T07:45:36Z</time>
      </trkpt>
      <trkpt lat="43.53414" lon="5.57362">
        <ele>775.0116</ele>
        <time>2011-03-27T07:45:37Z</time>
      </trkpt>
      <trkpt lat="43.53415" lon="5.57361">
        <ele>775.0116</ele>
        <time>2011-03-27T07:45:38Z</time>
      </trkpt>
      <trkpt lat="43.53415" lon="5.5736">
        <ele>775.0116</ele>
        <time>2011-03-27T07:45:39Z</time>
      </trkpt>
      <trkpt lat="43.53416" lon="5.5736">
        <ele>774.0116</ele>
        <time>2011-03-27T07:45:40Z</time>
      </trkpt>
      <trkpt lat="43.53416" lon="5.57359">
        <ele>773.0116</ele>
        <time>2011-03-27T07:45:41Z</time>
      </trkpt>
      <trkpt lat="43.53417" lon="5.57359">
        <ele>773.0116</ele>
        <time>2011-03-27T07:45:42Z</time>
      </trkpt>
      <trkpt lat="43.53418" lon="5.57359">
        <ele>772.0116</ele>
        <time>2011-03-27T07:45:43Z</time>
      </trkpt>
      <trkpt lat="43.53418" lon="5.57359">
        <ele>772.0116</ele>
        <time>2011-03-27T07:45:44Z</time>
      </trkpt>
      <trkpt lat="43.53419" lon="5.57359">
        <ele>773.0116</ele>
        <time>2011-03-27T07:45:45Z</time>
      </trkpt>
      <trkpt lat="43.53423" lon="5.57361">
        <ele>772.0117</ele>
        <time>2011-03-27T07:45:51Z</time>
      </trkpt>
      <trkpt lat="43.53425" lon="5.57361">
        <ele>772.0117</ele>
        <time>2011-03-27T07:45:53Z</time>
      </trkpt>
      <trkpt lat="43.53426" lon="5.57361">
        <ele>772.0117</ele>
        <time>2011-03-27T07:45:54Z</time>
      </trkpt>
      <trkpt lat="43.53427" lon="5.57361">
        <ele>772.0117</ele>
        <time>2011-03-27T07:45:55Z</time>
      </trkpt>
      <trkpt lat="43.53428" lon="5.57361">
        <ele>772.0117</ele>
        <time>2011-03-27T07:45:56Z</time>
      </trkpt>
      <trkpt lat="43.53429" lon="5.57361">
        <ele>772.0117</ele>
        <time>2011-03-27T07:45:57Z</time>
      </trkpt>
      <trkpt lat="43.5343" lon="5.57361">
        <ele>772.0117</ele>
        <time>2011-03-27T07:45:58Z</time>
      </trkpt>
      <trkpt lat="43.53433" lon="5.57361">
        <ele>772.0117</ele>
        <time>2011-03-27T07:46:02Z</time>
      </trkpt>
      <trkpt lat="43.53434" lon="5.57361">
        <ele>771.0117</ele>
        <time>2011-03-27T07:46:03Z</time>
      </trkpt>
      <trkpt lat="43.53435" lon="5.5736">
        <ele>771.0117</ele>
        <time>2011-03-27T07:46:04Z</time>
      </trkpt>
      <trkpt lat="43.53436" lon="5.5736">
        <ele>770.0117</ele>
        <time>2011-03-27T07:46:05Z</time>
      </trkpt>
      <trkpt lat="43.53439" lon="5.57358">
        <ele>769.0117</ele>
        <time>2011-03-27T07:46:09Z</time>
      </trkpt>
      <trkpt lat="43.5344" lon="5.57358">
        <ele>769.0117</ele>
        <time>2011-03-27T07:46:10Z</time>
      </trkpt>
      <trkpt lat="43.53445" lon="5.57353">
        <ele>769.0117</ele>
        <time>2011-03-27T07:46:19Z</time>
      </trkpt>
      <trkpt lat="43.53446" lon="5.57352">
        <ele>768.0117</ele>
        <time>2011-03-27T07:46:20Z</time>
      </trkpt>
      <trkpt lat="43.53447" lon="5.57352">
        <ele>768.0117</ele>
        <time>2011-03-27T07:46:21Z</time>
      </trkpt>
      <trkpt lat="43.53448" lon="5.57352">
        <ele>768.0117</ele>
        <time>2011-03-27T07:46:22Z</time>
      </trkpt>
      <trkpt lat="43.5345" lon="5.57351">
        <ele>767.0117</ele>
        <time>2011-03-27T07:46:26Z</time>
      </trkpt>
      <trkpt lat="43.53451" lon="5.5735">
        <ele>767.0117</ele>
        <time>2011-03-27T07:46:27Z</time>
      </trkpt>
      <trkpt lat="43.53452" lon="5.57349">
        <ele>767.0117</ele>
        <time>2011-03-27T07:46:29Z</time>
      </trkpt>
      <trkpt lat="43.53453" lon="5.57349">
        <ele>766.0117</ele>
        <time>2011-03-27T07:46:30Z</time>
      </trkpt>
      <trkpt lat="43.53453" lon="5.57349">
        <ele>766.0117</ele>
        <time>2011-03-27T07:46:31Z</time>
      </trkpt>
      <trkpt lat="43.53454" lon="5.57348">
        <ele>765.0117</ele>
        <time>2011-03-27T07:46:32Z</time>
      </trkpt>
      <trkpt lat="43.53459" lon="5.57344">
        <ele>765.0117</ele>
        <time>2011-03-27T07:46:39Z</time>
      </trkpt>
      <trkpt lat="43.5346" lon="5.57344">
        <ele>765.0117</ele>
        <time>2011-03-27T07:46:40Z</time>
      </trkpt>
      <trkpt lat="43.5346" lon="5.57343">
        <ele>765.0117</ele>
        <time>2011-03-27T07:46:41Z</time>
      </trkpt>
      <trkpt lat="43.53461" lon="5.57342">
        <ele>764.0117</ele>
        <time>2011-03-27T07:46:42Z</time>
      </trkpt>
      <trkpt lat="43.53462" lon="5.57341">
        <ele>764.0117</ele>
        <time>2011-03-27T07:46:43Z</time>
      </trkpt>
      <trkpt lat="43.53463" lon="5.5734">
        <ele>764.0117</ele>
        <time>2011-03-27T07:46:44Z</time>
      </trkpt>
      <trkpt lat="43.53463" lon="5.57339">
        <ele>764.0117</ele>
        <time>2011-03-27T07:46:45Z</time>
      </trkpt>
      <trkpt lat="43.53464" lon="5.57338">
        <ele>764.0117</ele>
        <time>2011-03-27T07:46:46Z</time>
      </trkpt>
      <trkpt lat="43.53465" lon="5.57338">
        <ele>764.0117</ele>
        <time>2011-03-27T07:46:47Z</time>
      </trkpt>
      <trkpt lat="43.53466" lon="5.57337">
        <ele>763.0117</ele>
        <time>2011-03-27T07:46:48Z</time>
      </trkpt>
      <trkpt lat="43.53466" lon="5.57336">
        <ele>763.0117</ele>
        <time>2011-03-27T07:46:49Z</time>
      </trkpt>
      <trkpt lat="43.53471" lon="5.57332">
        <ele>763.0117</ele>
        <time>2011-03-27T07:46:55Z</time>
      </trkpt>
      <trkpt lat="43.53472" lon="5.57331">
        <ele>762.0117</ele>
        <time>2011-03-27T07:46:56Z</time>
      </trkpt>
      <trkpt lat="43.53476" lon="5.57327">
        <ele>762.0117</ele>
        <time>2011-03-27T07:47:01Z</time>
      </trkpt>
      <trkpt lat="43.53478" lon="5.57323">
        <ele>761.0117</ele>
        <time>2011-03-27T07:47:05Z</time>
      </trkpt>
      <trkpt lat="43.53479" lon="5.57323">
        <ele>761.0117</ele>
        <time>2011-03-27T07:47:06Z</time>
      </trkpt>
      <trkpt lat="43.53479" lon="5.57322">
        <ele>760.0117</ele>
        <time>2011-03-27T07:47:07Z</time>
      </trkpt>
      <trkpt lat="43.53479" lon="5.57322">
        <ele>760.0117</ele>
        <time>2011-03-27T07:47:08Z</time>
      </trkpt>
      <trkpt lat="43.5348" lon="5.57321">
        <ele>759.0117</ele>
        <time>2011-03-27T07:47:09Z</time>
      </trkpt>
      <trkpt lat="43.53481" lon="5.57321">
        <ele>759.0117</ele>
        <time>2011-03-27T07:47:10Z</time>
      </trkpt>
      <trkpt lat="43.53481" lon="5.5732">
        <ele>758.0117</ele>
        <time>2011-03-27T07:47:12Z</time>
      </trkpt>
      <trkpt lat="43.53482" lon="5.5732">
        <ele>758.0117</ele>
        <time>2011-03-27T07:47:13Z</time>
      </trkpt>
      <trkpt lat="43.53484" lon="5.57318">
        <ele>756.0117</ele>
        <time>2011-03-27T07:47:15Z</time>
      </trkpt>
      <trkpt lat="43.53485" lon="5.57318">
        <ele>756.0117</ele>
        <time>2011-03-27T07:47:16Z</time>
      </trkpt>
      <trkpt lat="43.53494" lon="5.57317">
        <ele>754.0117</ele>
        <time>2011-03-27T07:47:26Z</time>
      </trkpt>
      <trkpt lat="43.53495" lon="5.57317">
        <ele>754.0117</ele>
        <time>2011-03-27T07:47:27Z</time>
      </trkpt>
      <trkpt lat="43.53496" lon="5.57317">
        <ele>753.0117</ele>
        <time>2011-03-27T07:47:28Z</time>
      </trkpt>
      <trkpt lat="43.53497" lon="5.57317">
        <ele>753.0117</ele>
        <time>2011-03-27T07:47:29Z</time>
      </trkpt>
      <trkpt lat="43.53504" lon="5.57313">
        <ele>753.0117</ele>
        <time>2011-03-27T07:47:37Z</time>
      </trkpt>
      <trkpt lat="43.53505" lon="5.57312">
        <ele>753.0117</ele>
        <time>2011-03-27T07:47:38Z</time>
      </trkpt>
      <trkpt lat="43.53505" lon="5.57312">
        <ele>752.0117</ele>
        <time>2011-03-27T07:47:39Z</time>
      </trkpt>
      <trkpt lat="43.53506" lon="5.57311">
        <ele>752.0117</ele>
        <time>2011-03-27T07:47:40Z</time>
      </trkpt>
      <trkpt lat="43.53507" lon="5.5731">
        <ele>751.0117</ele>
        <time>2011-03-27T07:47:42Z</time>
      </trkpt>
      <trkpt lat="43.53508" lon="5.5731">
        <ele>751.0117</ele>
        <time>2011-03-27T07:47:43Z</time>
      </trkpt>
      <trkpt lat="43.53507" lon="5.5731">
        <ele>751.0117</ele>
        <time>2011-03-27T07:47:44Z</time>
      </trkpt>
      <trkpt lat="43.53509" lon="5.57308">
        <ele>750.0117</ele>
        <time>2011-03-27T07:47:47Z</time>
      </trkpt>
      <trkpt lat="43.53509" lon="5.57308">
        <ele>750.0117</ele>
        <time>2011-03-27T07:47:48Z</time>
      </trkpt>
      <trkpt lat="43.5351" lon="5.57306">
        <ele>749.0117</ele>
        <time>2011-03-27T07:47:49Z</time>
      </trkpt>
      <trkpt lat="43.5351" lon="5.57305">
        <ele>749.0117</ele>
        <time>2011-03-27T07:47:50Z</time>
      </trkpt>
      <trkpt lat="43.53511" lon="5.57303">
        <ele>749.0117</ele>
        <time>2011-03-27T07:47:52Z</time>
      </trkpt>
      <trkpt lat="43.53511" lon="5.57302">
        <ele>749.0117</ele>
        <time>2011-03-27T07:47:53Z</time>
      </trkpt>
      <trkpt lat="43.53512" lon="5.57299">
        <ele>749.0117</ele>
        <time>2011-03-27T07:47:56Z</time>
      </trkpt>
      <trkpt lat="43.53513" lon="5.57298">
        <ele>749.0117</ele>
        <time>2011-03-27T07:47:57Z</time>
      </trkpt>
      <trkpt lat="43.53514" lon="5.57294">
        <ele>748.0117</ele>
        <time>2011-03-27T07:48:01Z</time>
      </trkpt>
      <trkpt lat="43.53514" lon="5.57294">
        <ele>748.0117</ele>
        <time>2011-03-27T07:48:02Z</time>
      </trkpt>
      <trkpt lat="43.53516" lon="5.5729">
        <ele>747.0117</ele>
        <time>2011-03-27T07:48:08Z</time>
      </trkpt>
      <trkpt lat="43.53517" lon="5.5729">
        <ele>747.0117</ele>
        <time>2011-03-27T07:48:09Z</time>
      </trkpt>
      <trkpt lat="43.53517" lon="5.57289">
        <ele>747.0117</ele>
        <time>2011-03-27T07:48:10Z</time>
      </trkpt>
      <trkpt lat="43.53518" lon="5.57288">
        <ele>747.0117</ele>
        <time>2011-03-27T07:48:11Z</time>
      </trkpt>
      <trkpt lat="43.53519" lon="5.57287">
        <ele>747.0117</ele>
        <time>2011-03-27T07:48:12Z</time>
      </trkpt>
      <trkpt lat="43.53521" lon="5.57282">
        <ele>746.0117</ele>
        <time>2011-03-27T07:48:16Z</time>
      </trkpt>
      <trkpt lat="43.53522" lon="5.5728">
        <ele>745.0117</ele>
        <time>2011-03-27T07:48:17Z</time>
      </trkpt>
      <trkpt lat="43.53528" lon="5.57274">
        <ele>745.0117</ele>
        <time>2011-03-27T07:48:26Z</time>
      </trkpt>
      <trkpt lat="43.53528" lon="5.57274">
        <ele>745.0117</ele>
        <time>2011-03-27T07:48:27Z</time>
      </trkpt>
      <trkpt lat="43.53529" lon="5.57273">
        <ele>745.0117</ele>
        <time>2011-03-27T07:48:28Z</time>
      </trkpt>
      <trkpt lat="43.53532" lon="5.57269">
        <ele>744.0117</ele>
        <time>2011-03-27T07:48:32Z</time>
      </trkpt>
      <trkpt lat="43.53532" lon="5.57269">
        <ele>744.0117</ele>
        <time>2011-03-27T07:48:33Z</time>
      </trkpt>
      <trkpt lat="43.53535" lon="5.57266">
        <ele>743.0117</ele>
        <time>2011-03-27T07:48:34Z</time>
      </trkpt>
      <trkpt lat="43.53536" lon="5.57264">
        <ele>743.0117</ele>
        <time>2011-03-27T07:48:35Z</time>
      </trkpt>
      <trkpt lat="43.53538" lon="5.57262">
        <ele>743.0117</ele>
        <time>2011-03-27T07:48:36Z</time>
      </trkpt>
      <trkpt lat="43.5354" lon="5.5726">
        <ele>743.0117</ele>
        <time>2011-03-27T07:48:37Z</time>
      </trkpt>
      <trkpt lat="43.53546" lon="5.57253">
        <ele>741.0117</ele>
        <time>2011-03-27T07:48:46Z</time>
      </trkpt>
      <trkpt lat="43.53547" lon="5.57252">
        <ele>741.0117</ele>
        <time>2011-03-27T07:48:47Z</time>
      </trkpt>
      <trkpt lat="43.53548" lon="5.5725">
        <ele>740.0117</ele>
        <time>2011-03-27T07:48:49Z</time>
      </trkpt>
      <trkpt lat="43.53549" lon="5.5725">
        <ele>740.0117</ele>
        <time>2011-03-27T07:48:50Z</time>
      </trkpt>
      <trkpt lat="43.5355" lon="5.5725">
        <ele>740.0117</ele>
        <time>2011-03-27T07:48:51Z</time>
      </trkpt>
      <trkpt lat="43.53553" lon="5.57248">
        <ele>740.0117</ele>
        <time>2011-03-27T07:48:54Z</time>
      </trkpt>
      <trkpt lat="43.53553" lon="5.57247">
        <ele>740.0117</ele>
        <time>2011-03-27T07:48:55Z</time>
      </trkpt>
      <trkpt lat="43.53556" lon="5.57245">
        <ele>740.0117</ele>
        <time>2011-03-27T07:48:56Z</time>
      </trkpt>
      <trkpt lat="43.53558" lon="5.57245">
        <ele>740.0117</ele>
        <time>2011-03-27T07:48:57Z</time>
      </trkpt>
      <trkpt lat="43.5356" lon="5.57243">
        <ele>739.0117</ele>
        <time>2011-03-27T07:48:58Z</time>
      </trkpt>
      <trkpt lat="43.53563" lon="5.57236">
        <ele>739.0117</ele>
        <time>2011-03-27T07:49:04Z</time>
      </trkpt>
      <trkpt lat="43.53563" lon="5.57235">
        <ele>739.0117</ele>
        <time>2011-03-27T07:49:05Z</time>
      </trkpt>
      <trkpt lat="43.53563" lon="5.57232">
        <ele>738.0117</ele>
        <time>2011-03-27T07:49:09Z</time>
      </trkpt>
      <trkpt lat="43.53563" lon="5.57231">
        <ele>737.0117</ele>
        <time>2011-03-27T07:49:10Z</time>
      </trkpt>
      <trkpt lat="43.53565" lon="5.57228">
        <ele>737.0117</ele>
        <time>2011-03-27T07:49:14Z</time>
      </trkpt>
      <trkpt lat="43.53565" lon="5.57227">
        <ele>737.0117</ele>
        <time>2011-03-27T07:49:15Z</time>
      </trkpt>
      <trkpt lat="43.5357" lon="5.5722">
        <ele>736.0117</ele>
        <time>2011-03-27T07:49:26Z</time>
      </trkpt>
      <trkpt lat="43.5357" lon="5.5722">
        <ele>736.0117</ele>
        <time>2011-03-27T07:49:27Z</time>
      </trkpt>
      <trkpt lat="43.53571" lon="5.57219">
        <ele>736.0117</ele>
        <time>2011-03-27T07:49:28Z</time>
      </trkpt>
      <trkpt lat="43.53571" lon="5.57219">
        <ele>736.0117</ele>
        <time>2011-03-27T07:49:29Z</time>
      </trkpt>
      <trkpt lat="43.53572" lon="5.57218">
        <ele>737.0117</ele>
        <time>2011-03-27T07:49:30Z</time>
      </trkpt>
      <trkpt lat="43.53573" lon="5.57218">
        <ele>737.0117</ele>
        <time>2011-03-27T07:49:31Z</time>
      </trkpt>
      <trkpt lat="43.53573" lon="5.57218">
        <ele>737.0117</ele>
        <time>2011-03-27T07:49:32Z</time>
      </trkpt>
      <trkpt lat="43.53575" lon="5.57217">
        <ele>736.0117</ele>
        <time>2011-03-27T07:49:33Z</time>
      </trkpt>
      <trkpt lat="43.53576" lon="5.57216">
        <ele>736.0117</ele>
        <time>2011-03-27T07:49:34Z</time>
      </trkpt>
      <trkpt lat="43.53577" lon="5.57215">
        <ele>736.0117</ele>
        <time>2011-03-27T07:49:35Z</time>
      </trkpt>
      <trkpt lat="43.53578" lon="5.57215">
        <ele>735.0117</ele>
        <time>2011-03-27T07:49:36Z</time>
      </trkpt>
      <trkpt lat="43.53578" lon="5.57214">
        <ele>735.0117</ele>
        <time>2011-03-27T07:49:37Z</time>
      </trkpt>
      <trkpt lat="43.53578" lon="5.57213">
        <ele>735.0117</ele>
        <time>2011-03-27T07:49:38Z</time>
      </trkpt>
      <trkpt lat="43.53579" lon="5.57211">
        <ele>735.0117</ele>
        <time>2011-03-27T07:49:40Z</time>
      </trkpt>
      <trkpt lat="43.53579" lon="5.57211">
        <ele>735.0117</ele>
        <time>2011-03-27T07:49:41Z</time>
      </trkpt>
      <trkpt lat="43.5358" lon="5.5721">
        <ele>735.0117</ele>
        <time>2011-03-27T07:49:42Z</time>
      </trkpt>
      <trkpt lat="43.53581" lon="5.57209">
        <ele>735.0117</ele>
        <time>2011-03-27T07:49:43Z</time>
      </trkpt>
      <trkpt lat="43.53583" lon="5.57207">
        <ele>734.0117</ele>
        <time>2011-03-27T07:49:47Z</time>
      </trkpt>
      <trkpt lat="43.53584" lon="5.57207">
        <ele>734.0117</ele>
        <time>2011-03-27T07:49:48Z</time>
      </trkpt>
      <trkpt lat="43.53585" lon="5.57207">
        <ele>734.0117</ele>
        <time>2011-03-27T07:49:49Z</time>
      </trkpt>
      <trkpt lat="43.53585" lon="5.57207">
        <ele>734.0117</ele>
        <time>2011-03-27T07:49:50Z</time>
      </trkpt>
      <trkpt lat="43.53587" lon="5.57207">
        <ele>734.0117</ele>
        <time>2011-03-27T07:49:52Z</time>
      </trkpt>
      <trkpt lat="43.53587" lon="5.57207">
        <ele>734.0117</ele>
        <time>2011-03-27T07:49:53Z</time>
      </trkpt>
      <trkpt lat="43.53589" lon="5.57207">
        <ele>734.0117</ele>
        <time>2011-03-27T07:49:54Z</time>
      </trkpt>
      <trkpt lat="43.53589" lon="5.57207">
        <ele>734.0117</ele>
        <time>2011-03-27T07:49:55Z</time>
      </trkpt>
      <trkpt lat="43.5359" lon="5.57208">
        <ele>734.0117</ele>
        <time>2011-03-27T07:49:56Z</time>
      </trkpt>
      <trkpt lat="43.53591" lon="5.57208">
        <ele>733.0117</ele>
        <time>2011-03-27T07:49:57Z</time>
      </trkpt>
      <trkpt lat="43.53593" lon="5.57208">
        <ele>733.0117</ele>
        <time>2011-03-27T07:50:01Z</time>
      </trkpt>
      <trkpt lat="43.53593" lon="5.57209">
        <ele>733.0117</ele>
        <time>2011-03-27T07:50:02Z</time>
      </trkpt>
      <trkpt lat="43.53594" lon="5.57209">
        <ele>732.0117</ele>
        <time>2011-03-27T07:50:06Z</time>
      </trkpt>
      <trkpt lat="43.53595" lon="5.57209">
        <ele>732.0117</ele>
        <time>2011-03-27T07:50:07Z</time>
      </trkpt>
      <trkpt lat="43.53595" lon="5.57209">
        <ele>732.0117</ele>
        <time>2011-03-27T07:50:08Z</time>
      </trkpt>
      <trkpt lat="43.53595" lon="5.57209">
        <ele>731.0117</ele>
        <time>2011-03-27T07:50:09Z</time>
      </trkpt>
      <trkpt lat="43.53596" lon="5.57209">
        <ele>731.0117</ele>
        <time>2011-03-27T07:50:10Z</time>
      </trkpt>
      <trkpt lat="43.53597" lon="5.57209">
        <ele>731.0117</ele>
        <time>2011-03-27T07:50:11Z</time>
      </trkpt>
      <trkpt lat="43.53598" lon="5.57209">
        <ele>731.0117</ele>
        <time>2011-03-27T07:50:12Z</time>
      </trkpt>
      <trkpt lat="43.536" lon="5.57209">
        <ele>731.0117</ele>
        <time>2011-03-27T07:50:13Z</time>
      </trkpt>
      <trkpt lat="43.53602" lon="5.57209">
        <ele>731.0117</ele>
        <time>2011-03-27T07:50:14Z</time>
      </trkpt>
      <trkpt lat="43.53604" lon="5.57209">
        <ele>730.0117</ele>
        <time>2011-03-27T07:50:15Z</time>
      </trkpt>
      <trkpt lat="43.53605" lon="5.57208">
        <ele>730.0117</ele>
        <time>2011-03-27T07:50:16Z</time>
      </trkpt>
      <trkpt lat="43.53608" lon="5.57206">
        <ele>729.0117</ele>
        <time>2011-03-27T07:50:19Z</time>
      </trkpt>
      <trkpt lat="43.53609" lon="5.57205">
        <ele>728.0117</ele>
        <time>2011-03-27T07:50:20Z</time>
      </trkpt>
      <trkpt lat="43.5361" lon="5.57204">
        <ele>728.0117</ele>
        <time>2011-03-27T07:50:22Z</time>
      </trkpt>
      <trkpt lat="43.53611" lon="5.57204">
        <ele>729.0117</ele>
        <time>2011-03-27T07:50:23Z</time>
      </trkpt>
      <trkpt lat="43.53611" lon="5.57203">
        <ele>729.0117</ele>
        <time>2011-03-27T07:50:24Z</time>
      </trkpt>
      <trkpt lat="43.53611" lon="5.57202">
        <ele>728.0117</ele>
        <time>2011-03-27T07:50:25Z</time>
      </trkpt>
      <trkpt lat="43.53617" lon="5.57192">
        <ele>725.0117</ele>
        <time>2011-03-27T07:50:35Z</time>
      </trkpt>
      <trkpt lat="43.53618" lon="5.57186">
        <ele>724.0117</ele>
        <time>2011-03-27T07:50:38Z</time>
      </trkpt>
      <trkpt lat="43.53618" lon="5.57185">
        <ele>723.0117</ele>
        <time>2011-03-27T07:50:39Z</time>
      </trkpt>
      <trkpt lat="43.53619" lon="5.57184">
        <ele>722.0117</ele>
        <time>2011-03-27T07:50:40Z</time>
      </trkpt>
      <trkpt lat="43.53619" lon="5.57183">
        <ele>722.0117</ele>
        <time>2011-03-27T07:50:41Z</time>
      </trkpt>
      <trkpt lat="43.53619" lon="5.57182">
        <ele>722.0117</ele>
        <time>2011-03-27T07:50:42Z</time>
      </trkpt>
      <trkpt lat="43.53619" lon="5.57182">
        <ele>721.0117</ele>
        <time>2011-03-27T07:50:43Z</time>
      </trkpt>
      <trkpt lat="43.53621" lon="5.57181">
        <ele>717.0117</ele>
        <time>2011-03-27T07:50:51Z</time>
      </trkpt>
      <trkpt lat="43.53621" lon="5.57181">
        <ele>717.0117</ele>
        <time>2011-03-27T07:50:52Z</time>
      </trkpt>
      <trkpt lat="43.53622" lon="5.57181">
        <ele>717.0117</ele>
        <time>2011-03-27T07:50:53Z</time>
      </trkpt>
      <trkpt lat="43.53622" lon="5.57181">
        <ele>717.0117</ele>
        <time>2011-03-27T07:50:54Z</time>
      </trkpt>
      <trkpt lat="43.53623" lon="5.5718">
        <ele>718.0117</ele>
        <time>2011-03-27T07:50:55Z</time>
      </trkpt>
      <trkpt lat="43.53628" lon="5.57175">
        <ele>718.0117</ele>
        <time>2011-03-27T07:51:05Z</time>
      </trkpt>
      <trkpt lat="43.53629" lon="5.57174">
        <ele>718.0117</ele>
        <time>2011-03-27T07:51:06Z</time>
      </trkpt>
      <trkpt lat="43.53629" lon="5.57174">
        <ele>717.0117</ele>
        <time>2011-03-27T07:51:07Z</time>
      </trkpt>
      <trkpt lat="43.5363" lon="5.57173">
        <ele>717.0117</ele>
        <time>2011-03-27T07:51:08Z</time>
      </trkpt>
      <trkpt lat="43.53631" lon="5.57172">
        <ele>717.0117</ele>
        <time>2011-03-27T07:51:09Z</time>
      </trkpt>
      <trkpt lat="43.53632" lon="5.57171">
        <ele>717.0117</ele>
        <time>2011-03-27T07:51:10Z</time>
      </trkpt>
      <trkpt lat="43.53635" lon="5.57167">
        <ele>716.0117</ele>
        <time>2011-03-27T07:51:14Z</time>
      </trkpt>
      <trkpt lat="43.53635" lon="5.57166">
        <ele>716.0117</ele>
        <time>2011-03-27T07:51:15Z</time>
      </trkpt>
      <trkpt lat="43.53636" lon="5.57164">
        <ele>716.0117</ele>
        <time>2011-03-27T07:51:16Z</time>
      </trkpt>
      <trkpt lat="43.53637" lon="5.57162">
        <ele>715.0117</ele>
        <time>2011-03-27T07:51:19Z</time>
      </trkpt>
      <trkpt lat="43.53637" lon="5.57162">
        <ele>715.0117</ele>
        <time>2011-03-27T07:51:20Z</time>
      </trkpt>
      <trkpt lat="43.53637" lon="5.57162">
        <ele>715.0117</ele>
        <time>2011-03-27T07:51:21Z</time>
      </trkpt>
      <trkpt lat="43.53638" lon="5.57162">
        <ele>715.0117</ele>
        <time>2011-03-27T07:51:22Z</time>
      </trkpt>
      <trkpt lat="43.53638" lon="5.57162">
        <ele>715.0117</ele>
        <time>2011-03-27T07:51:23Z</time>
      </trkpt>
      <trkpt lat="43.53639" lon="5.57161">
        <ele>714.0117</ele>
        <time>2011-03-27T07:51:24Z</time>
      </trkpt>
      <trkpt lat="43.53639" lon="5.57161">
        <ele>714.0117</ele>
        <time>2011-03-27T07:51:25Z</time>
      </trkpt>
      <trkpt lat="43.53639" lon="5.57161">
        <ele>714.0117</ele>
        <time>2011-03-27T07:51:26Z</time>
      </trkpt>
      <trkpt lat="43.53639" lon="5.57161">
        <ele>714.0117</ele>
        <time>2011-03-27T07:51:27Z</time>
      </trkpt>
      <trkpt lat="43.53639" lon="5.57161">
        <ele>714.0117</ele>
        <time>2011-03-27T07:51:28Z</time>
      </trkpt>
      <trkpt lat="43.53641" lon="5.57161">
        <ele>714.0117</ele>
        <time>2011-03-27T07:51:29Z</time>
      </trkpt>
      <trkpt lat="43.53641" lon="5.57161">
        <ele>714.0117</ele>
        <time>2011-03-27T07:51:30Z</time>
      </trkpt>
      <trkpt lat="43.53642" lon="5.57161">
        <ele>713.0117</ele>
        <time>2011-03-27T07:51:31Z</time>
      </trkpt>
      <trkpt lat="43.53643" lon="5.57161">
        <ele>713.0117</ele>
        <time>2011-03-27T07:51:32Z</time>
      </trkpt>
      <trkpt lat="43.53643" lon="5.57161">
        <ele>712.0117</ele>
        <time>2011-03-27T07:51:33Z</time>
      </trkpt>
      <trkpt lat="43.53643" lon="5.57161">
        <ele>712.0117</ele>
        <time>2011-03-27T07:51:34Z</time>
      </trkpt>
      <trkpt lat="43.53645" lon="5.57158">
        <ele>710.0117</ele>
        <time>2011-03-27T07:51:38Z</time>
      </trkpt>
      <trkpt lat="43.53646" lon="5.57157">
        <ele>710.0117</ele>
        <time>2011-03-27T07:51:39Z</time>
      </trkpt>
      <trkpt lat="43.53646" lon="5.57156">
        <ele>710.0117</ele>
        <time>2011-03-27T07:51:40Z</time>
      </trkpt>
      <trkpt lat="43.53646" lon="5.57154">
        <ele>710.0117</ele>
        <time>2011-03-27T07:51:41Z</time>
      </trkpt>
      <trkpt lat="43.53646" lon="5.57153">
        <ele>710.0117</ele>
        <time>2011-03-27T07:51:42Z</time>
      </trkpt>
      <trkpt lat="43.53646" lon="5.57151">
        <ele>710.0117</ele>
        <time>2011-03-27T07:51:43Z</time>
      </trkpt>
      <trkpt lat="43.53646" lon="5.57149">
        <ele>711.0117</ele>
        <time>2011-03-27T07:51:44Z</time>
      </trkpt>
      <trkpt lat="43.53646" lon="5.57148">
        <ele>710.0117</ele>
        <time>2011-03-27T07:51:45Z</time>
      </trkpt>
      <trkpt lat="43.53646" lon="5.57147">
        <ele>710.0117</ele>
        <time>2011-03-27T07:51:46Z</time>
      </trkpt>
      <trkpt lat="43.53646" lon="5.57145">
        <ele>710.0117</ele>
        <time>2011-03-27T07:51:47Z</time>
      </trkpt>
      <trkpt lat="43.53644" lon="5.57139">
        <ele>709.0117</ele>
        <time>2011-03-27T07:51:51Z</time>
      </trkpt>
      <trkpt lat="43.53644" lon="5.57138">
        <ele>708.0116</ele>
        <time>2011-03-27T07:51:52Z</time>
      </trkpt>
      <trkpt lat="43.53643" lon="5.57137">
        <ele>708.0116</ele>
        <time>2011-03-27T07:51:53Z</time>
      </trkpt>
      <trkpt lat="43.53643" lon="5.57136">
        <ele>709.0116</ele>
        <time>2011-03-27T07:51:54Z</time>
      </trkpt>
      <trkpt lat="43.53642" lon="5.57135">
        <ele>709.0116</ele>
        <time>2011-03-27T07:51:55Z</time>
      </trkpt>
      <trkpt lat="43.53642" lon="5.57134">
        <ele>709.0116</ele>
        <time>2011-03-27T07:51:56Z</time>
      </trkpt>
      <trkpt lat="43.5364" lon="5.57132">
        <ele>710.0116</ele>
        <time>2011-03-27T07:51:59Z</time>
      </trkpt>
      <trkpt lat="43.5364" lon="5.57131">
        <ele>710.0116</ele>
        <time>2011-03-27T07:52:00Z</time>
      </trkpt>
      <trkpt lat="43.5364" lon="5.5713">
        <ele>710.0116</ele>
        <time>2011-03-27T07:52:01Z</time>
      </trkpt>
      <trkpt lat="43.5364" lon="5.5713">
        <ele>710.0116</ele>
        <time>2011-03-27T07:52:02Z</time>
      </trkpt>
      <trkpt lat="43.5364" lon="5.57129">
        <ele>709.0116</ele>
        <time>2011-03-27T07:52:06Z</time>
      </trkpt>
      <trkpt lat="43.5364" lon="5.57129">
        <ele>709.0116</ele>
        <time>2011-03-27T07:52:07Z</time>
      </trkpt>
      <trkpt lat="43.5364" lon="5.57129">
        <ele>708.0116</ele>
        <time>2011-03-27T07:52:08Z</time>
      </trkpt>
      <trkpt lat="43.5364" lon="5.57128">
        <ele>708.0116</ele>
        <time>2011-03-27T07:52:09Z</time>
      </trkpt>
      <trkpt lat="43.5364" lon="5.57127">
        <ele>708.0116</ele>
        <time>2011-03-27T07:52:10Z</time>
      </trkpt>
      <trkpt lat="43.53641" lon="5.57128">
        <ele>708.0116</ele>
        <time>2011-03-27T07:52:11Z</time>
      </trkpt>
      <trkpt lat="43.53641" lon="5.57127">
        <ele>708.0116</ele>
        <time>2011-03-27T07:52:12Z</time>
      </trkpt>
      <trkpt lat="43.53642" lon="5.57128">
        <ele>708.0116</ele>
        <time>2011-03-27T07:52:13Z</time>
      </trkpt>
      <trkpt lat="43.53643" lon="5.57128">
        <ele>708.0116</ele>
        <time>2011-03-27T07:52:14Z</time>
      </trkpt>
      <trkpt lat="43.53643" lon="5.57128">
        <ele>708.0116</ele>
        <time>2011-03-27T07:52:15Z</time>
      </trkpt>
      <trkpt lat="43.53643" lon="5.57128">
        <ele>708.0116</ele>
        <time>2011-03-27T07:52:16Z</time>
      </trkpt>
      <trkpt lat="43.53644" lon="5.57124">
        <ele>707.0116</ele>
        <time>2011-03-27T07:52:21Z</time>
      </trkpt>
      <trkpt lat="43.53644" lon="5.57124">
        <ele>707.0116</ele>
        <time>2011-03-27T07:52:22Z</time>
      </trkpt>
      <trkpt lat="43.53644" lon="5.57123">
        <ele>707.0116</ele>
        <time>2011-03-27T07:52:23Z</time>
      </trkpt>
      <trkpt lat="43.53644" lon="5.57121">
        <ele>706.0116</ele>
        <time>2011-03-27T07:52:26Z</time>
      </trkpt>
      <trkpt lat="43.53645" lon="5.57121">
        <ele>706.0116</ele>
        <time>2011-03-27T07:52:27Z</time>
      </trkpt>
      <trkpt lat="43.53645" lon="5.57121">
        <ele>706.0116</ele>
        <time>2011-03-27T07:52:28Z</time>
      </trkpt>
      <trkpt lat="43.53646" lon="5.57119">
        <ele>706.0116</ele>
        <time>2011-03-27T07:52:31Z</time>
      </trkpt>
      <trkpt lat="43.53646" lon="5.57118">
        <ele>706.0116</ele>
        <time>2011-03-27T07:52:32Z</time>
      </trkpt>
      <trkpt lat="43.53647" lon="5.57117">
        <ele>706.0116</ele>
        <time>2011-03-27T07:52:33Z</time>
      </trkpt>
      <trkpt lat="43.53647" lon="5.57116">
        <ele>706.0116</ele>
        <time>2011-03-27T07:52:34Z</time>
      </trkpt>
      <trkpt lat="43.53647" lon="5.57115">
        <ele>706.0116</ele>
        <time>2011-03-27T07:52:35Z</time>
      </trkpt>
      <trkpt lat="43.53648" lon="5.57115">
        <ele>706.0116</ele>
        <time>2011-03-27T07:52:36Z</time>
      </trkpt>
      <trkpt lat="43.53648" lon="5.57115">
        <ele>705.0116</ele>
        <time>2011-03-27T07:52:37Z</time>
      </trkpt>
      <trkpt lat="43.53649" lon="5.57114">
        <ele>705.0116</ele>
        <time>2011-03-27T07:52:38Z</time>
      </trkpt>
      <trkpt lat="43.5365" lon="5.57114">
        <ele>705.0116</ele>
        <time>2011-03-27T07:52:39Z</time>
      </trkpt>
      <trkpt lat="43.53651" lon="5.57114">
        <ele>705.0116</ele>
        <time>2011-03-27T07:52:40Z</time>
      </trkpt>
      <trkpt lat="43.53652" lon="5.57113">
        <ele>705.0116</ele>
        <time>2011-03-27T07:52:41Z</time>
      </trkpt>
      <trkpt lat="43.53653" lon="5.57112">
        <ele>704.0116</ele>
        <time>2011-03-27T07:52:42Z</time>
      </trkpt>
      <trkpt lat="43.53653" lon="5.57112">
        <ele>704.0116</ele>
        <time>2011-03-27T07:52:43Z</time>
      </trkpt>
      <trkpt lat="43.53654" lon="5.57111">
        <ele>704.0116</ele>
        <time>2011-03-27T07:52:44Z</time>
      </trkpt>
      <trkpt lat="43.53655" lon="5.57109">
        <ele>704.0116</ele>
        <time>2011-03-27T07:52:45Z</time>
      </trkpt>
      <trkpt lat="43.53656" lon="5.57108">
        <ele>704.0116</ele>
        <time>2011-03-27T07:52:46Z</time>
      </trkpt>
      <trkpt lat="43.53658" lon="5.57103">
        <ele>702.0116</ele>
        <time>2011-03-27T07:52:52Z</time>
      </trkpt>
      <trkpt lat="43.53658" lon="5.57103">
        <ele>702.0116</ele>
        <time>2011-03-27T07:52:53Z</time>
      </trkpt>
      <trkpt lat="43.53659" lon="5.57102">
        <ele>702.0116</ele>
        <time>2011-03-27T07:52:54Z</time>
      </trkpt>
      <trkpt lat="43.53661" lon="5.57095">
        <ele>701.0116</ele>
        <time>2011-03-27T07:53:00Z</time>
      </trkpt>
      <trkpt lat="43.53661" lon="5.57095">
        <ele>701.0116</ele>
        <time>2011-03-27T07:53:01Z</time>
      </trkpt>
      <trkpt lat="43.53662" lon="5.57093">
        <ele>700.0116</ele>
        <time>2011-03-27T07:53:02Z</time>
      </trkpt>
      <trkpt lat="43.53662" lon="5.57091">
        <ele>700.0116</ele>
        <time>2011-03-27T07:53:03Z</time>
      </trkpt>
      <trkpt lat="43.53665" lon="5.57084">
        <ele>698.0115</ele>
        <time>2011-03-27T07:53:10Z</time>
      </trkpt>
      <trkpt lat="43.53665" lon="5.57083">
        <ele>698.0115</ele>
        <time>2011-03-27T07:53:11Z</time>
      </trkpt>
      <trkpt lat="43.53666" lon="5.57081">
        <ele>698.0115</ele>
        <time>2011-03-27T07:53:12Z</time>
      </trkpt>
      <trkpt lat="43.53666" lon="5.57079">
        <ele>697.0115</ele>
        <time>2011-03-27T07:53:13Z</time>
      </trkpt>
      <trkpt lat="43.53672" lon="5.57067">
        <ele>693.0115</ele>
        <time>2011-03-27T07:53:24Z</time>
      </trkpt>
      <trkpt lat="43.53676" lon="5.57061">
        <ele>690.0115</ele>
        <time>2011-03-27T07:53:29Z</time>
      </trkpt>
      <trkpt lat="43.53676" lon="5.57061">
        <ele>690.0115</ele>
        <time>2011-03-27T07:53:30Z</time>
      </trkpt>
      <trkpt lat="43.53677" lon="5.57059">
        <ele>689.0115</ele>
        <time>2011-03-27T07:53:31Z</time>
      </trkpt>
      <trkpt lat="43.53679" lon="5.57057">
        <ele>688.0115</ele>
        <time>2011-03-27T07:53:34Z</time>
      </trkpt>
      <trkpt lat="43.53679" lon="5.57055">
        <ele>688.0115</ele>
        <time>2011-03-27T07:53:35Z</time>
      </trkpt>
      <trkpt lat="43.53679" lon="5.57055">
        <ele>688.0115</ele>
        <time>2011-03-27T07:53:36Z</time>
      </trkpt>
      <trkpt lat="43.5368" lon="5.57052">
        <ele>687.0115</ele>
        <time>2011-03-27T07:53:37Z</time>
      </trkpt>
      <trkpt lat="43.5368" lon="5.57052">
        <ele>687.0115</ele>
        <time>2011-03-27T07:53:38Z</time>
      </trkpt>
      <trkpt lat="43.53681" lon="5.57049">
        <ele>687.0115</ele>
        <time>2011-03-27T07:53:39Z</time>
      </trkpt>
      <trkpt lat="43.53682" lon="5.57046">
        <ele>686.0115</ele>
        <time>2011-03-27T07:53:40Z</time>
      </trkpt>
      <trkpt lat="43.53684" lon="5.57044">
        <ele>686.0115</ele>
        <time>2011-03-27T07:53:41Z</time>
      </trkpt>
      <trkpt lat="43.53684" lon="5.57042">
        <ele>685.0115</ele>
        <time>2011-03-27T07:53:42Z</time>
      </trkpt>
      <trkpt lat="43.53685" lon="5.5704">
        <ele>685.0115</ele>
        <time>2011-03-27T07:53:43Z</time>
      </trkpt>
      <trkpt lat="43.53687" lon="5.57037">
        <ele>685.0115</ele>
        <time>2011-03-27T07:53:44Z</time>
      </trkpt>
      <trkpt lat="43.53688" lon="5.57035">
        <ele>684.0115</ele>
        <time>2011-03-27T07:53:45Z</time>
      </trkpt>
      <trkpt lat="43.53692" lon="5.57031">
        <ele>683.0115</ele>
        <time>2011-03-27T07:53:49Z</time>
      </trkpt>
      <trkpt lat="43.53693" lon="5.5703">
        <ele>683.0115</ele>
        <time>2011-03-27T07:53:50Z</time>
      </trkpt>
      <trkpt lat="43.53694" lon="5.57029">
        <ele>683.0115</ele>
        <time>2011-03-27T07:53:51Z</time>
      </trkpt>
      <trkpt lat="43.53695" lon="5.57029">
        <ele>682.0115</ele>
        <time>2011-03-27T07:53:52Z</time>
      </trkpt>
      <trkpt lat="43.53695" lon="5.57028">
        <ele>682.0115</ele>
        <time>2011-03-27T07:53:53Z</time>
      </trkpt>
      <trkpt lat="43.53696" lon="5.57028">
        <ele>681.0115</ele>
        <time>2011-03-27T07:53:55Z</time>
      </trkpt>
      <trkpt lat="43.53696" lon="5.57028">
        <ele>681.0115</ele>
        <time>2011-03-27T07:53:56Z</time>
      </trkpt>
      <trkpt lat="43.53697" lon="5.57027">
        <ele>681.0115</ele>
        <time>2011-03-27T07:53:57Z</time>
      </trkpt>
      <trkpt lat="43.53699" lon="5.57027">
        <ele>680.0115</ele>
        <time>2011-03-27T07:54:00Z</time>
      </trkpt>
      <trkpt lat="43.53701" lon="5.57026">
        <ele>679.0115</ele>
        <time>2011-03-27T07:54:01Z</time>
      </trkpt>
      <trkpt lat="43.53703" lon="5.57025">
        <ele>678.0115</ele>
        <time>2011-03-27T07:54:03Z</time>
      </trkpt>
      <trkpt lat="43.53703" lon="5.57025">
        <ele>678.0115</ele>
        <time>2011-03-27T07:54:04Z</time>
      </trkpt>
      <trkpt lat="43.53705" lon="5.57024">
        <ele>678.0115</ele>
        <time>2011-03-27T07:54:05Z</time>
      </trkpt>
      <trkpt lat="43.53707" lon="5.57023">
        <ele>677.0115</ele>
        <time>2011-03-27T07:54:06Z</time>
      </trkpt>
      <trkpt lat="43.53708" lon="5.57023">
        <ele>677.0115</ele>
        <time>2011-03-27T07:54:07Z</time>
      </trkpt>
      <trkpt lat="43.5371" lon="5.57022">
        <ele>677.0115</ele>
        <time>2011-03-27T07:54:08Z</time>
      </trkpt>
      <trkpt lat="43.53718" lon="5.57017">
        <ele>674.0115</ele>
        <time>2011-03-27T07:54:14Z</time>
      </trkpt>
      <trkpt lat="43.53719" lon="5.57016">
        <ele>674.0115</ele>
        <time>2011-03-27T07:54:15Z</time>
      </trkpt>
      <trkpt lat="43.53727" lon="5.57006">
        <ele>672.0115</ele>
        <time>2011-03-27T07:54:21Z</time>
      </trkpt>
      <trkpt lat="43.53728" lon="5.57004">
        <ele>671.0115</ele>
        <time>2011-03-27T07:54:22Z</time>
      </trkpt>
      <trkpt lat="43.53729" lon="5.57003">
        <ele>671.0115</ele>
        <time>2011-03-27T07:54:23Z</time>
      </trkpt>
      <trkpt lat="43.5373" lon="5.57001">
        <ele>670.0115</ele>
        <time>2011-03-27T07:54:24Z</time>
      </trkpt>
      <trkpt lat="43.53732" lon="5.56997">
        <ele>668.0115</ele>
        <time>2011-03-27T07:54:31Z</time>
      </trkpt>
      <trkpt lat="43.53732" lon="5.56996">
        <ele>668.0115</ele>
        <time>2011-03-27T07:54:32Z</time>
      </trkpt>
      <trkpt lat="43.53735" lon="5.56991">
        <ele>668.0115</ele>
        <time>2011-03-27T07:54:38Z</time>
      </trkpt>
      <trkpt lat="43.53735" lon="5.5699">
        <ele>668.0115</ele>
        <time>2011-03-27T07:54:39Z</time>
      </trkpt>
      <trkpt lat="43.53737" lon="5.56986">
        <ele>667.0115</ele>
        <time>2011-03-27T07:54:43Z</time>
      </trkpt>
      <trkpt lat="43.53738" lon="5.56985">
        <ele>667.0115</ele>
        <time>2011-03-27T07:54:44Z</time>
      </trkpt>
      <trkpt lat="43.5374" lon="5.56978">
        <ele>666.0115</ele>
        <time>2011-03-27T07:54:48Z</time>
      </trkpt>
      <trkpt lat="43.53741" lon="5.56977">
        <ele>665.0115</ele>
        <time>2011-03-27T07:54:49Z</time>
      </trkpt>
      <trkpt lat="43.53741" lon="5.56976">
        <ele>665.0115</ele>
        <time>2011-03-27T07:54:50Z</time>
      </trkpt>
      <trkpt lat="43.53742" lon="5.56974">
        <ele>664.0115</ele>
        <time>2011-03-27T07:54:51Z</time>
      </trkpt>
      <trkpt lat="43.53742" lon="5.56973">
        <ele>664.0115</ele>
        <time>2011-03-27T07:54:52Z</time>
      </trkpt>
      <trkpt lat="43.53743" lon="5.56971">
        <ele>664.0115</ele>
        <time>2011-03-27T07:54:53Z</time>
      </trkpt>
      <trkpt lat="43.53744" lon="5.56969">
        <ele>664.0115</ele>
        <time>2011-03-27T07:54:54Z</time>
      </trkpt>
      <trkpt lat="43.53745" lon="5.56968">
        <ele>664.0115</ele>
        <time>2011-03-27T07:54:55Z</time>
      </trkpt>
      <trkpt lat="43.53746" lon="5.56965">
        <ele>664.0115</ele>
        <time>2011-03-27T07:54:59Z</time>
      </trkpt>
      <trkpt lat="43.53747" lon="5.56964">
        <ele>664.0115</ele>
        <time>2011-03-27T07:55:00Z</time>
      </trkpt>
      <trkpt lat="43.53748" lon="5.56962">
        <ele>664.0115</ele>
        <time>2011-03-27T07:55:01Z</time>
      </trkpt>
      <trkpt lat="43.53749" lon="5.56961">
        <ele>664.0115</ele>
        <time>2011-03-27T07:55:02Z</time>
      </trkpt>
      <trkpt lat="43.53751" lon="5.56956">
        <ele>664.0115</ele>
        <time>2011-03-27T07:55:04Z</time>
      </trkpt>
      <trkpt lat="43.53752" lon="5.56954">
        <ele>664.0115</ele>
        <time>2011-03-27T07:55:05Z</time>
      </trkpt>
      <trkpt lat="43.53753" lon="5.56951">
        <ele>663.0115</ele>
        <time>2011-03-27T07:55:06Z</time>
      </trkpt>
      <trkpt lat="43.53753" lon="5.56949">
        <ele>663.0115</ele>
        <time>2011-03-27T07:55:07Z</time>
      </trkpt>
      <trkpt lat="43.53754" lon="5.56946">
        <ele>663.0115</ele>
        <time>2011-03-27T07:55:08Z</time>
      </trkpt>
      <trkpt lat="43.53755" lon="5.56943">
        <ele>663.0115</ele>
        <time>2011-03-27T07:55:09Z</time>
      </trkpt>
      <trkpt lat="43.53758" lon="5.56935">
        <ele>662.0114</ele>
        <time>2011-03-27T07:55:13Z</time>
      </trkpt>
      <trkpt lat="43.53758" lon="5.56933">
        <ele>662.0114</ele>
        <time>2011-03-27T07:55:14Z</time>
      </trkpt>
      <trkpt lat="43.53763" lon="5.5692">
        <ele>660.0114</ele>
        <time>2011-03-27T07:55:24Z</time>
      </trkpt>
      <trkpt lat="43.53764" lon="5.56918">
        <ele>660.0114</ele>
        <time>2011-03-27T07:55:25Z</time>
      </trkpt>
      <trkpt lat="43.5377" lon="5.56908">
        <ele>658.0114</ele>
        <time>2011-03-27T07:55:32Z</time>
      </trkpt>
      <trkpt lat="43.5377" lon="5.56907">
        <ele>658.0114</ele>
        <time>2011-03-27T07:55:33Z</time>
      </trkpt>
      <trkpt lat="43.53772" lon="5.56905">
        <ele>658.0114</ele>
        <time>2011-03-27T07:55:34Z</time>
      </trkpt>
      <trkpt lat="43.53773" lon="5.56903">
        <ele>658.0114</ele>
        <time>2011-03-27T07:55:35Z</time>
      </trkpt>
      <trkpt lat="43.53777" lon="5.56892">
        <ele>659.0114</ele>
        <time>2011-03-27T07:55:41Z</time>
      </trkpt>
      <trkpt lat="43.53778" lon="5.56892">
        <ele>658.0114</ele>
        <time>2011-03-27T07:55:42Z</time>
      </trkpt>
      <trkpt lat="43.53778" lon="5.56892">
        <ele>658.0114</ele>
        <time>2011-03-27T07:55:43Z</time>
      </trkpt>
      <trkpt lat="43.53778" lon="5.56889">
        <ele>658.0114</ele>
        <time>2011-03-27T07:55:44Z</time>
      </trkpt>
      <trkpt lat="43.53779" lon="5.56886">
        <ele>657.0114</ele>
        <time>2011-03-27T07:55:46Z</time>
      </trkpt>
      <trkpt lat="43.53779" lon="5.56885">
        <ele>657.0114</ele>
        <time>2011-03-27T07:55:47Z</time>
      </trkpt>
      <trkpt lat="43.53781" lon="5.56875">
        <ele>656.0114</ele>
        <time>2011-03-27T07:55:53Z</time>
      </trkpt>
      <trkpt lat="43.53782" lon="5.56874">
        <ele>656.0114</ele>
        <time>2011-03-27T07:55:54Z</time>
      </trkpt>
      <trkpt lat="43.53783" lon="5.56872">
        <ele>657.0114</ele>
        <time>2011-03-27T07:55:56Z</time>
      </trkpt>
      <trkpt lat="43.53784" lon="5.56871">
        <ele>657.0114</ele>
        <time>2011-03-27T07:55:57Z</time>
      </trkpt>
      <trkpt lat="43.53788" lon="5.56863">
        <ele>656.0114</ele>
        <time>2011-03-27T07:56:05Z</time>
      </trkpt>
      <trkpt lat="43.53789" lon="5.56862">
        <ele>656.0114</ele>
        <time>2011-03-27T07:56:06Z</time>
      </trkpt>
      <trkpt lat="43.5379" lon="5.56861">
        <ele>656.0114</ele>
        <time>2011-03-27T07:56:07Z</time>
      </trkpt>
      <trkpt lat="43.5379" lon="5.5686">
        <ele>656.0114</ele>
        <time>2011-03-27T07:56:08Z</time>
      </trkpt>
      <trkpt lat="43.5379" lon="5.56859">
        <ele>657.0114</ele>
        <time>2011-03-27T07:56:09Z</time>
      </trkpt>
      <trkpt lat="43.53791" lon="5.56858">
        <ele>657.0114</ele>
        <time>2011-03-27T07:56:10Z</time>
      </trkpt>
      <trkpt lat="43.53791" lon="5.56857">
        <ele>657.0114</ele>
        <time>2011-03-27T07:56:11Z</time>
      </trkpt>
      <trkpt lat="43.53792" lon="5.56855">
        <ele>657.0114</ele>
        <time>2011-03-27T07:56:12Z</time>
      </trkpt>
      <trkpt lat="43.53793" lon="5.56854">
        <ele>657.0114</ele>
        <time>2011-03-27T07:56:13Z</time>
      </trkpt>
      <trkpt lat="43.53793" lon="5.56853">
        <ele>658.0114</ele>
        <time>2011-03-27T07:56:14Z</time>
      </trkpt>
      <trkpt lat="43.53794" lon="5.56851">
        <ele>658.0114</ele>
        <time>2011-03-27T07:56:15Z</time>
      </trkpt>
      <trkpt lat="43.53795" lon="5.5685">
        <ele>658.0114</ele>
        <time>2011-03-27T07:56:16Z</time>
      </trkpt>
      <trkpt lat="43.53798" lon="5.56842">
        <ele>658.0113</ele>
        <time>2011-03-27T07:56:22Z</time>
      </trkpt>
      <trkpt lat="43.53799" lon="5.56841">
        <ele>657.0113</ele>
        <time>2011-03-27T07:56:23Z</time>
      </trkpt>
      <trkpt lat="43.53799" lon="5.5684">
        <ele>657.0113</ele>
        <time>2011-03-27T07:56:24Z</time>
      </trkpt>
      <trkpt lat="43.538" lon="5.56838">
        <ele>657.0113</ele>
        <time>2011-03-27T07:56:25Z</time>
      </trkpt>
      <trkpt lat="43.53801" lon="5.56836">
        <ele>657.0113</ele>
        <time>2011-03-27T07:56:27Z</time>
      </trkpt>
      <trkpt lat="43.53802" lon="5.56834">
        <ele>656.0113</ele>
        <time>2011-03-27T07:56:28Z</time>
      </trkpt>
      <trkpt lat="43.53803" lon="5.56832">
        <ele>656.0113</ele>
        <time>2011-03-27T07:56:29Z</time>
      </trkpt>
      <trkpt lat="43.53804" lon="5.5683">
        <ele>655.0113</ele>
        <time>2011-03-27T07:56:30Z</time>
      </trkpt>
      <trkpt lat="43.53805" lon="5.56829">
        <ele>654.0113</ele>
        <time>2011-03-27T07:56:32Z</time>
      </trkpt>
      <trkpt lat="43.53806" lon="5.56827">
        <ele>654.0113</ele>
        <time>2011-03-27T07:56:33Z</time>
      </trkpt>
      <trkpt lat="43.53806" lon="5.56826">
        <ele>654.0113</ele>
        <time>2011-03-27T07:56:34Z</time>
      </trkpt>
      <trkpt lat="43.53807" lon="5.56826">
        <ele>654.0113</ele>
        <time>2011-03-27T07:56:35Z</time>
      </trkpt>
      <trkpt lat="43.53808" lon="5.56825">
        <ele>653.0113</ele>
        <time>2011-03-27T07:56:36Z</time>
      </trkpt>
      <trkpt lat="43.53809" lon="5.56824">
        <ele>653.0113</ele>
        <time>2011-03-27T07:56:37Z</time>
      </trkpt>
      <trkpt lat="43.5381" lon="5.56823">
        <ele>653.0113</ele>
        <time>2011-03-27T07:56:38Z</time>
      </trkpt>
      <trkpt lat="43.53811" lon="5.56822">
        <ele>652.0113</ele>
        <time>2011-03-27T07:56:39Z</time>
      </trkpt>
      <trkpt lat="43.53812" lon="5.56821">
        <ele>652.0113</ele>
        <time>2011-03-27T07:56:41Z</time>
      </trkpt>
      <trkpt lat="43.53813" lon="5.5682">
        <ele>652.0113</ele>
        <time>2011-03-27T07:56:42Z</time>
      </trkpt>
      <trkpt lat="43.53814" lon="5.56819">
        <ele>652.0113</ele>
        <time>2011-03-27T07:56:43Z</time>
      </trkpt>
      <trkpt lat="43.53815" lon="5.56817">
        <ele>652.0113</ele>
        <time>2011-03-27T07:56:44Z</time>
      </trkpt>
      <trkpt lat="43.53816" lon="5.56816">
        <ele>652.0113</ele>
        <time>2011-03-27T07:56:46Z</time>
      </trkpt>
      <trkpt lat="43.53816" lon="5.56815">
        <ele>652.0113</ele>
        <time>2011-03-27T07:56:47Z</time>
      </trkpt>
      <trkpt lat="43.53817" lon="5.56814">
        <ele>652.0113</ele>
        <time>2011-03-27T07:56:48Z</time>
      </trkpt>
      <trkpt lat="43.53817" lon="5.56813">
        <ele>652.0113</ele>
        <time>2011-03-27T07:56:49Z</time>
      </trkpt>
      <trkpt lat="43.53818" lon="5.56812">
        <ele>651.0113</ele>
        <time>2011-03-27T07:56:50Z</time>
      </trkpt>
      <trkpt lat="43.53818" lon="5.56811">
        <ele>651.0113</ele>
        <time>2011-03-27T07:56:51Z</time>
      </trkpt>
      <trkpt lat="43.53819" lon="5.56809">
        <ele>650.0113</ele>
        <time>2011-03-27T07:56:52Z</time>
      </trkpt>
      <trkpt lat="43.53819" lon="5.56809">
        <ele>650.0113</ele>
        <time>2011-03-27T07:56:53Z</time>
      </trkpt>
      <trkpt lat="43.5382" lon="5.56807">
        <ele>650.0113</ele>
        <time>2011-03-27T07:56:54Z</time>
      </trkpt>
      <trkpt lat="43.53821" lon="5.56805">
        <ele>650.0113</ele>
        <time>2011-03-27T07:56:55Z</time>
      </trkpt>
      <trkpt lat="43.53821" lon="5.56802">
        <ele>651.0113</ele>
        <time>2011-03-27T07:56:57Z</time>
      </trkpt>
      <trkpt lat="43.53822" lon="5.568">
        <ele>651.0113</ele>
        <time>2011-03-27T07:56:58Z</time>
      </trkpt>
      <trkpt lat="43.53822" lon="5.56797">
        <ele>651.0113</ele>
        <time>2011-03-27T07:57:00Z</time>
      </trkpt>
      <trkpt lat="43.53822" lon="5.56794">
        <ele>651.0112</ele>
        <time>2011-03-27T07:57:01Z</time>
      </trkpt>
      <trkpt lat="43.53823" lon="5.56792">
        <ele>651.0112</ele>
        <time>2011-03-27T07:57:02Z</time>
      </trkpt>
      <trkpt lat="43.53823" lon="5.5679">
        <ele>652.0112</ele>
        <time>2011-03-27T07:57:03Z</time>
      </trkpt>
      <trkpt lat="43.53823" lon="5.56787">
        <ele>652.0112</ele>
        <time>2011-03-27T07:57:04Z</time>
      </trkpt>
      <trkpt lat="43.53824" lon="5.56784">
        <ele>652.0112</ele>
        <time>2011-03-27T07:57:05Z</time>
      </trkpt>
      <trkpt lat="43.53825" lon="5.56772">
        <ele>651.0112</ele>
        <time>2011-03-27T07:57:09Z</time>
      </trkpt>
      <trkpt lat="43.53825" lon="5.56771">
        <ele>651.0112</ele>
        <time>2011-03-27T07:57:10Z</time>
      </trkpt>
      <trkpt lat="43.53826" lon="5.56769">
        <ele>651.0112</ele>
        <time>2011-03-27T07:57:11Z</time>
      </trkpt>
      <trkpt lat="43.53827" lon="5.56768">
        <ele>651.0112</ele>
        <time>2011-03-27T07:57:12Z</time>
      </trkpt>
      <trkpt lat="43.53827" lon="5.56767">
        <ele>652.0112</ele>
        <time>2011-03-27T07:57:13Z</time>
      </trkpt>
      <trkpt lat="43.53828" lon="5.56765">
        <ele>652.0112</ele>
        <time>2011-03-27T07:57:14Z</time>
      </trkpt>
      <trkpt lat="43.53829" lon="5.56764">
        <ele>652.0112</ele>
        <time>2011-03-27T07:57:15Z</time>
      </trkpt>
      <trkpt lat="43.5383" lon="5.56763">
        <ele>652.0112</ele>
        <time>2011-03-27T07:57:16Z</time>
      </trkpt>
      <trkpt lat="43.53833" lon="5.56758">
        <ele>653.0112</ele>
        <time>2011-03-27T07:57:19Z</time>
      </trkpt>
      <trkpt lat="43.53834" lon="5.56756">
        <ele>654.0112</ele>
        <time>2011-03-27T07:57:20Z</time>
      </trkpt>
      <trkpt lat="43.53835" lon="5.56751">
        <ele>654.0112</ele>
        <time>2011-03-27T07:57:22Z</time>
      </trkpt>
      <trkpt lat="43.53836" lon="5.56749">
        <ele>654.0112</ele>
        <time>2011-03-27T07:57:23Z</time>
      </trkpt>
      <trkpt lat="43.53837" lon="5.56747">
        <ele>654.0112</ele>
        <time>2011-03-27T07:57:24Z</time>
      </trkpt>
      <trkpt lat="43.53838" lon="5.56745">
        <ele>654.0112</ele>
        <time>2011-03-27T07:57:25Z</time>
      </trkpt>
      <trkpt lat="43.53838" lon="5.56743">
        <ele>655.0112</ele>
        <time>2011-03-27T07:57:26Z</time>
      </trkpt>
      <trkpt lat="43.53839" lon="5.5674">
        <ele>655.0112</ele>
        <time>2011-03-27T07:57:27Z</time>
      </trkpt>
      <trkpt lat="43.5384" lon="5.56738">
        <ele>655.0112</ele>
        <time>2011-03-27T07:57:28Z</time>
      </trkpt>
      <trkpt lat="43.53841" lon="5.56736">
        <ele>654.0112</ele>
        <time>2011-03-27T07:57:29Z</time>
      </trkpt>
      <trkpt lat="43.53845" lon="5.56724">
        <ele>654.0112</ele>
        <time>2011-03-27T07:57:35Z</time>
      </trkpt>
      <trkpt lat="43.53846" lon="5.56717">
        <ele>652.0111</ele>
        <time>2011-03-27T07:57:41Z</time>
      </trkpt>
      <trkpt lat="43.53847" lon="5.56715">
        <ele>652.0111</ele>
        <time>2011-03-27T07:57:42Z</time>
      </trkpt>
      <trkpt lat="43.53848" lon="5.56713">
        <ele>652.0111</ele>
        <time>2011-03-27T07:57:44Z</time>
      </trkpt>
      <trkpt lat="43.53848" lon="5.56712">
        <ele>652.0111</ele>
        <time>2011-03-27T07:57:45Z</time>
      </trkpt>
      <trkpt lat="43.53848" lon="5.5671">
        <ele>652.0111</ele>
        <time>2011-03-27T07:57:47Z</time>
      </trkpt>
      <trkpt lat="43.53848" lon="5.56708">
        <ele>652.0111</ele>
        <time>2011-03-27T07:57:48Z</time>
      </trkpt>
      <trkpt lat="43.53849" lon="5.56707">
        <ele>652.0111</ele>
        <time>2011-03-27T07:57:49Z</time>
      </trkpt>
      <trkpt lat="43.53849" lon="5.56705">
        <ele>652.0111</ele>
        <time>2011-03-27T07:57:50Z</time>
      </trkpt>
      <trkpt lat="43.53851" lon="5.56693">
        <ele>651.0111</ele>
        <time>2011-03-27T07:57:58Z</time>
      </trkpt>
      <trkpt lat="43.53851" lon="5.56691">
        <ele>651.0111</ele>
        <time>2011-03-27T07:57:59Z</time>
      </trkpt>
      <trkpt lat="43.5385" lon="5.56689">
        <ele>651.0111</ele>
        <time>2011-03-27T07:58:01Z</time>
      </trkpt>
      <trkpt lat="43.5385" lon="5.56687">
        <ele>651.0111</ele>
        <time>2011-03-27T07:58:02Z</time>
      </trkpt>
      <trkpt lat="43.53851" lon="5.56679">
        <ele>650.011</ele>
        <time>2011-03-27T07:58:06Z</time>
      </trkpt>
      <trkpt lat="43.53851" lon="5.56677">
        <ele>650.011</ele>
        <time>2011-03-27T07:58:07Z</time>
      </trkpt>
      <trkpt lat="43.53851" lon="5.56675">
        <ele>650.011</ele>
        <time>2011-03-27T07:58:08Z</time>
      </trkpt>
      <trkpt lat="43.53851" lon="5.56673">
        <ele>650.011</ele>
        <time>2011-03-27T07:58:09Z</time>
      </trkpt>
      <trkpt lat="43.53851" lon="5.56671">
        <ele>650.011</ele>
        <time>2011-03-27T07:58:10Z</time>
      </trkpt>
      <trkpt lat="43.53851" lon="5.56669">
        <ele>650.011</ele>
        <time>2011-03-27T07:58:11Z</time>
      </trkpt>
      <trkpt lat="43.53851" lon="5.56667">
        <ele>650.011</ele>
        <time>2011-03-27T07:58:12Z</time>
      </trkpt>
      <trkpt lat="43.53851" lon="5.56665">
        <ele>650.011</ele>
        <time>2011-03-27T07:58:13Z</time>
      </trkpt>
      <trkpt lat="43.53852" lon="5.56664">
        <ele>650.011</ele>
        <time>2011-03-27T07:58:14Z</time>
      </trkpt>
      <trkpt lat="43.53852" lon="5.56662">
        <ele>650.011</ele>
        <time>2011-03-27T07:58:15Z</time>
      </trkpt>
      <trkpt lat="43.53852" lon="5.5666">
        <ele>650.011</ele>
        <time>2011-03-27T07:58:16Z</time>
      </trkpt>
      <trkpt lat="43.53853" lon="5.56653">
        <ele>649.011</ele>
        <time>2011-03-27T07:58:20Z</time>
      </trkpt>
      <trkpt lat="43.53854" lon="5.56653">
        <ele>648.011</ele>
        <time>2011-03-27T07:58:21Z</time>
      </trkpt>
      <trkpt lat="43.53854" lon="5.56652">
        <ele>648.011</ele>
        <time>2011-03-27T07:58:22Z</time>
      </trkpt>
      <trkpt lat="43.53856" lon="5.56651">
        <ele>648.011</ele>
        <time>2011-03-27T07:58:23Z</time>
      </trkpt>
      <trkpt lat="43.53856" lon="5.5665">
        <ele>648.011</ele>
        <time>2011-03-27T07:58:24Z</time>
      </trkpt>
      <trkpt lat="43.53857" lon="5.56648">
        <ele>648.011</ele>
        <time>2011-03-27T07:58:25Z</time>
      </trkpt>
      <trkpt lat="43.5386" lon="5.56641">
        <ele>647.011</ele>
        <time>2011-03-27T07:58:29Z</time>
      </trkpt>
      <trkpt lat="43.5386" lon="5.56639">
        <ele>646.011</ele>
        <time>2011-03-27T07:58:30Z</time>
      </trkpt>
      <trkpt lat="43.53861" lon="5.56636">
        <ele>646.011</ele>
        <time>2011-03-27T07:58:32Z</time>
      </trkpt>
      <trkpt lat="43.53861" lon="5.56633">
        <ele>646.011</ele>
        <time>2011-03-27T07:58:33Z</time>
      </trkpt>
      <trkpt lat="43.53862" lon="5.5663">
        <ele>646.011</ele>
        <time>2011-03-27T07:58:34Z</time>
      </trkpt>
      <trkpt lat="43.53862" lon="5.56628">
        <ele>645.011</ele>
        <time>2011-03-27T07:58:35Z</time>
      </trkpt>
      <trkpt lat="43.53862" lon="5.56624">
        <ele>645.011</ele>
        <time>2011-03-27T07:58:36Z</time>
      </trkpt>
      <trkpt lat="43.53862" lon="5.56621">
        <ele>645.011</ele>
        <time>2011-03-27T07:58:37Z</time>
      </trkpt>
      <trkpt lat="43.53862" lon="5.56618">
        <ele>646.0109</ele>
        <time>2011-03-27T07:58:38Z</time>
      </trkpt>
      <trkpt lat="43.53862" lon="5.56615">
        <ele>646.0109</ele>
        <time>2011-03-27T07:58:39Z</time>
      </trkpt>
      <trkpt lat="43.53862" lon="5.56614">
        <ele>646.0109</ele>
        <time>2011-03-27T07:58:40Z</time>
      </trkpt>
      <trkpt lat="43.53862" lon="5.5661">
        <ele>646.0109</ele>
        <time>2011-03-27T07:58:41Z</time>
      </trkpt>
      <trkpt lat="43.53862" lon="5.56608">
        <ele>646.0109</ele>
        <time>2011-03-27T07:58:42Z</time>
      </trkpt>
      <trkpt lat="43.53863" lon="5.56604">
        <ele>646.0109</ele>
        <time>2011-03-27T07:58:43Z</time>
      </trkpt>
      <trkpt lat="43.53863" lon="5.56602">
        <ele>646.0109</ele>
        <time>2011-03-27T07:58:44Z</time>
      </trkpt>
      <trkpt lat="43.53863" lon="5.56598">
        <ele>646.0109</ele>
        <time>2011-03-27T07:58:45Z</time>
      </trkpt>
      <trkpt lat="43.53863" lon="5.56582">
        <ele>648.0109</ele>
        <time>2011-03-27T07:58:55Z</time>
      </trkpt>
      <trkpt lat="43.53863" lon="5.5658">
        <ele>648.0109</ele>
        <time>2011-03-27T07:58:57Z</time>
      </trkpt>
      <trkpt lat="43.53863" lon="5.56579">
        <ele>648.0109</ele>
        <time>2011-03-27T07:58:58Z</time>
      </trkpt>
      <trkpt lat="43.53865" lon="5.56566">
        <ele>648.0109</ele>
        <time>2011-03-27T07:59:07Z</time>
      </trkpt>
      <trkpt lat="43.53865" lon="5.56547">
        <ele>647.0108</ele>
        <time>2011-03-27T07:59:20Z</time>
      </trkpt>
      <trkpt lat="43.53865" lon="5.56544">
        <ele>647.0108</ele>
        <time>2011-03-27T07:59:21Z</time>
      </trkpt>
      <trkpt lat="43.53862" lon="5.56529">
        <ele>646.0107</ele>
        <time>2011-03-27T07:59:27Z</time>
      </trkpt>
      <trkpt lat="43.53862" lon="5.56527">
        <ele>646.0107</ele>
        <time>2011-03-27T07:59:28Z</time>
      </trkpt>
      <trkpt lat="43.53861" lon="5.56525">
        <ele>646.0107</ele>
        <time>2011-03-27T07:59:29Z</time>
      </trkpt>
      <trkpt lat="43.5386" lon="5.5652">
        <ele>646.0107</ele>
        <time>2011-03-27T07:59:30Z</time>
      </trkpt>
      <trkpt lat="43.5386" lon="5.56519">
        <ele>646.0107</ele>
        <time>2011-03-27T07:59:31Z</time>
      </trkpt>
      <trkpt lat="43.53859" lon="5.56514">
        <ele>645.0107</ele>
        <time>2011-03-27T07:59:32Z</time>
      </trkpt>
      <trkpt lat="43.53857" lon="5.56501">
        <ele>645.0107</ele>
        <time>2011-03-27T07:59:36Z</time>
      </trkpt>
      <trkpt lat="43.53858" lon="5.56484">
        <ele>645.0106</ele>
        <time>2011-03-27T07:59:46Z</time>
      </trkpt>
      <trkpt lat="43.53858" lon="5.56477">
        <ele>645.0106</ele>
        <time>2011-03-27T07:59:48Z</time>
      </trkpt>
      <trkpt lat="43.53858" lon="5.56474">
        <ele>644.0106</ele>
        <time>2011-03-27T07:59:49Z</time>
      </trkpt>
      <trkpt lat="43.53856" lon="5.56463">
        <ele>643.0106</ele>
        <time>2011-03-27T07:59:53Z</time>
      </trkpt>
      <trkpt lat="43.53855" lon="5.5646">
        <ele>642.0106</ele>
        <time>2011-03-27T07:59:54Z</time>
      </trkpt>
      <trkpt lat="43.53852" lon="5.56446">
        <ele>641.0106</ele>
        <time>2011-03-27T08:00:02Z</time>
      </trkpt>
      <trkpt lat="43.53852" lon="5.56444">
        <ele>641.0106</ele>
        <time>2011-03-27T08:00:03Z</time>
      </trkpt>
      <trkpt lat="43.53853" lon="5.5644">
        <ele>641.0106</ele>
        <time>2011-03-27T08:00:04Z</time>
      </trkpt>
      <trkpt lat="43.53853" lon="5.56436">
        <ele>641.0105</ele>
        <time>2011-03-27T08:00:05Z</time>
      </trkpt>
      <trkpt lat="43.53853" lon="5.5643">
        <ele>640.0105</ele>
        <time>2011-03-27T08:00:09Z</time>
      </trkpt>
      <trkpt lat="43.53853" lon="5.56429">
        <ele>639.0105</ele>
        <time>2011-03-27T08:00:10Z</time>
      </trkpt>
      <trkpt lat="43.53853" lon="5.56427">
        <ele>639.0105</ele>
        <time>2011-03-27T08:00:11Z</time>
      </trkpt>
      <trkpt lat="43.53853" lon="5.56425">
        <ele>639.0105</ele>
        <time>2011-03-27T08:00:12Z</time>
      </trkpt>
      <trkpt lat="43.53853" lon="5.56423">
        <ele>638.0105</ele>
        <time>2011-03-27T08:00:13Z</time>
      </trkpt>
      <trkpt lat="43.53852" lon="5.56421">
        <ele>638.0105</ele>
        <time>2011-03-27T08:00:14Z</time>
      </trkpt>
      <trkpt lat="43.53851" lon="5.56419">
        <ele>638.0105</ele>
        <time>2011-03-27T08:00:15Z</time>
      </trkpt>
      <trkpt lat="43.53851" lon="5.56416">
        <ele>637.0105</ele>
        <time>2011-03-27T08:00:16Z</time>
      </trkpt>
      <trkpt lat="43.53846" lon="5.56395">
        <ele>638.0104</ele>
        <time>2011-03-27T08:00:24Z</time>
      </trkpt>
      <trkpt lat="43.53846" lon="5.56392">
        <ele>638.0104</ele>
        <time>2011-03-27T08:00:25Z</time>
      </trkpt>
      <trkpt lat="43.53845" lon="5.56389">
        <ele>638.0104</ele>
        <time>2011-03-27T08:00:26Z</time>
      </trkpt>
      <trkpt lat="43.53845" lon="5.56387">
        <ele>637.0104</ele>
        <time>2011-03-27T08:00:27Z</time>
      </trkpt>
      <trkpt lat="43.53845" lon="5.56384">
        <ele>637.0104</ele>
        <time>2011-03-27T08:00:28Z</time>
      </trkpt>
      <trkpt lat="43.53844" lon="5.56382">
        <ele>636.0104</ele>
        <time>2011-03-27T08:00:29Z</time>
      </trkpt>
      <trkpt lat="43.53844" lon="5.56379">
        <ele>636.0104</ele>
        <time>2011-03-27T08:00:30Z</time>
      </trkpt>
      <trkpt lat="43.53841" lon="5.56367">
        <ele>634.0104</ele>
        <time>2011-03-27T08:00:35Z</time>
      </trkpt>
      <trkpt lat="43.53841" lon="5.56365">
        <ele>634.0103</ele>
        <time>2011-03-27T08:00:36Z</time>
      </trkpt>
      <trkpt lat="43.53838" lon="5.5635">
        <ele>632.0103</ele>
        <time>2011-03-27T08:00:42Z</time>
      </trkpt>
      <trkpt lat="43.53838" lon="5.56347">
        <ele>631.0103</ele>
        <time>2011-03-27T08:00:43Z</time>
      </trkpt>
      <trkpt lat="43.53837" lon="5.56345">
        <ele>631.0103</ele>
        <time>2011-03-27T08:00:44Z</time>
      </trkpt>
      <trkpt lat="43.53837" lon="5.56342">
        <ele>631.0103</ele>
        <time>2011-03-27T08:00:45Z</time>
      </trkpt>
      <trkpt lat="43.53836" lon="5.5634">
        <ele>631.0103</ele>
        <time>2011-03-27T08:00:46Z</time>
      </trkpt>
      <trkpt lat="43.53836" lon="5.56337">
        <ele>630.0103</ele>
        <time>2011-03-27T08:00:47Z</time>
      </trkpt>
      <trkpt lat="43.53836" lon="5.56334">
        <ele>630.0103</ele>
        <time>2011-03-27T08:00:48Z</time>
      </trkpt>
      <trkpt lat="43.53836" lon="5.56331">
        <ele>630.0103</ele>
        <time>2011-03-27T08:00:49Z</time>
      </trkpt>
      <trkpt lat="43.53836" lon="5.56316">
        <ele>627.0102</ele>
        <time>2011-03-27T08:00:55Z</time>
      </trkpt>
      <trkpt lat="43.53836" lon="5.56314">
        <ele>627.0102</ele>
        <time>2011-03-27T08:00:56Z</time>
      </trkpt>
      <trkpt lat="43.53836" lon="5.56312">
        <ele>626.0102</ele>
        <time>2011-03-27T08:00:57Z</time>
      </trkpt>
      <trkpt lat="43.53836" lon="5.56311">
        <ele>625.0102</ele>
        <time>2011-03-27T08:00:58Z</time>
      </trkpt>
      <trkpt lat="43.53837" lon="5.56309">
        <ele>625.0102</ele>
        <time>2011-03-27T08:00:59Z</time>
      </trkpt>
      <trkpt lat="43.53837" lon="5.56307">
        <ele>624.0102</ele>
        <time>2011-03-27T08:01:00Z</time>
      </trkpt>
      <trkpt lat="43.53838" lon="5.56306">
        <ele>624.0102</ele>
        <time>2011-03-27T08:01:01Z</time>
      </trkpt>
      <trkpt lat="43.53838" lon="5.56304">
        <ele>623.0102</ele>
        <time>2011-03-27T08:01:02Z</time>
      </trkpt>
      <trkpt lat="43.53838" lon="5.56302">
        <ele>622.0102</ele>
        <time>2011-03-27T08:01:03Z</time>
      </trkpt>
      <trkpt lat="43.53839" lon="5.56299">
        <ele>621.0102</ele>
        <time>2011-03-27T08:01:04Z</time>
      </trkpt>
      <trkpt lat="43.53841" lon="5.56284">
        <ele>618.0101</ele>
        <time>2011-03-27T08:01:10Z</time>
      </trkpt>
      <trkpt lat="43.53841" lon="5.56282">
        <ele>618.0101</ele>
        <time>2011-03-27T08:01:11Z</time>
      </trkpt>
      <trkpt lat="43.53841" lon="5.5628">
        <ele>617.0101</ele>
        <time>2011-03-27T08:01:12Z</time>
      </trkpt>
      <trkpt lat="43.53841" lon="5.56278">
        <ele>617.0101</ele>
        <time>2011-03-27T08:01:13Z</time>
      </trkpt>
      <trkpt lat="43.5384" lon="5.56276">
        <ele>617.0101</ele>
        <time>2011-03-27T08:01:15Z</time>
      </trkpt>
      <trkpt lat="43.5384" lon="5.56275">
        <ele>617.0101</ele>
        <time>2011-03-27T08:01:16Z</time>
      </trkpt>
      <trkpt lat="43.5384" lon="5.56273">
        <ele>617.0101</ele>
        <time>2011-03-27T08:01:17Z</time>
      </trkpt>
      <trkpt lat="43.53839" lon="5.56271">
        <ele>617.0101</ele>
        <time>2011-03-27T08:01:18Z</time>
      </trkpt>
      <trkpt lat="43.53839" lon="5.5627">
        <ele>617.0101</ele>
        <time>2011-03-27T08:01:19Z</time>
      </trkpt>
      <trkpt lat="43.53838" lon="5.56268">
        <ele>617.0101</ele>
        <time>2011-03-27T08:01:20Z</time>
      </trkpt>
      <trkpt lat="43.53838" lon="5.56266">
        <ele>617.0101</ele>
        <time>2011-03-27T08:01:21Z</time>
      </trkpt>
      <trkpt lat="43.53838" lon="5.56263">
        <ele>618.0101</ele>
        <time>2011-03-27T08:01:22Z</time>
      </trkpt>
      <trkpt lat="43.53838" lon="5.56259">
        <ele>618.0101</ele>
        <time>2011-03-27T08:01:24Z</time>
      </trkpt>
      <trkpt lat="43.53837" lon="5.56257">
        <ele>618.0101</ele>
        <time>2011-03-27T08:01:25Z</time>
      </trkpt>
      <trkpt lat="43.53837" lon="5.56254">
        <ele>618.0101</ele>
        <time>2011-03-27T08:01:26Z</time>
      </trkpt>
      <trkpt lat="43.53837" lon="5.56252">
        <ele>618.0101</ele>
        <time>2011-03-27T08:01:27Z</time>
      </trkpt>
      <trkpt lat="43.53837" lon="5.56249">
        <ele>618.0101</ele>
        <time>2011-03-27T08:01:28Z</time>
      </trkpt>
      <trkpt lat="43.53838" lon="5.56247">
        <ele>618.0101</ele>
        <time>2011-03-27T08:01:29Z</time>
      </trkpt>
      <trkpt lat="43.53838" lon="5.56245">
        <ele>619.0101</ele>
        <time>2011-03-27T08:01:30Z</time>
      </trkpt>
      <trkpt lat="43.53838" lon="5.56243">
        <ele>619.0101</ele>
        <time>2011-03-27T08:01:31Z</time>
      </trkpt>
      <trkpt lat="43.53838" lon="5.5624">
        <ele>619.0101</ele>
        <time>2011-03-27T08:01:32Z</time>
      </trkpt>
      <trkpt lat="43.53837" lon="5.56221">
        <ele>620.01</ele>
        <time>2011-03-27T08:01:40Z</time>
      </trkpt>
      <trkpt lat="43.53837" lon="5.56219">
        <ele>620.01</ele>
        <time>2011-03-27T08:01:41Z</time>
      </trkpt>
      <trkpt lat="43.53837" lon="5.56217">
        <ele>620.01</ele>
        <time>2011-03-27T08:01:42Z</time>
      </trkpt>
      <trkpt lat="43.53838" lon="5.56215">
        <ele>620.01</ele>
        <time>2011-03-27T08:01:43Z</time>
      </trkpt>
      <trkpt lat="43.5384" lon="5.56203">
        <ele>620.01</ele>
        <time>2011-03-27T08:01:49Z</time>
      </trkpt>
      <trkpt lat="43.5384" lon="5.56201">
        <ele>620.0099</ele>
        <time>2011-03-27T08:01:50Z</time>
      </trkpt>
      <trkpt lat="43.53841" lon="5.56199">
        <ele>620.0099</ele>
        <time>2011-03-27T08:01:51Z</time>
      </trkpt>
      <trkpt lat="43.53841" lon="5.56197">
        <ele>620.0099</ele>
        <time>2011-03-27T08:01:52Z</time>
      </trkpt>
      <trkpt lat="43.53842" lon="5.56195">
        <ele>620.0099</ele>
        <time>2011-03-27T08:01:53Z</time>
      </trkpt>
      <trkpt lat="43.53843" lon="5.56193">
        <ele>619.0099</ele>
        <time>2011-03-27T08:01:54Z</time>
      </trkpt>
      <trkpt lat="43.53843" lon="5.56191">
        <ele>619.0099</ele>
        <time>2011-03-27T08:01:55Z</time>
      </trkpt>
      <trkpt lat="43.53843" lon="5.56188">
        <ele>619.0099</ele>
        <time>2011-03-27T08:01:56Z</time>
      </trkpt>
      <trkpt lat="43.53843" lon="5.56186">
        <ele>619.0099</ele>
        <time>2011-03-27T08:01:57Z</time>
      </trkpt>
      <trkpt lat="43.53844" lon="5.56184">
        <ele>619.0099</ele>
        <time>2011-03-27T08:01:58Z</time>
      </trkpt>
      <trkpt lat="43.53848" lon="5.56172">
        <ele>619.0099</ele>
        <time>2011-03-27T08:02:04Z</time>
      </trkpt>
      <trkpt lat="43.53849" lon="5.5617">
        <ele>619.0099</ele>
        <time>2011-03-27T08:02:05Z</time>
      </trkpt>
      <trkpt lat="43.5385" lon="5.56167">
        <ele>619.0099</ele>
        <time>2011-03-27T08:02:06Z</time>
      </trkpt>
      <trkpt lat="43.53851" lon="5.56165">
        <ele>619.0099</ele>
        <time>2011-03-27T08:02:07Z</time>
      </trkpt>
      <trkpt lat="43.53852" lon="5.56162">
        <ele>619.0099</ele>
        <time>2011-03-27T08:02:08Z</time>
      </trkpt>
      <trkpt lat="43.53852" lon="5.5616">
        <ele>619.0099</ele>
        <time>2011-03-27T08:02:09Z</time>
      </trkpt>
      <trkpt lat="43.53853" lon="5.56157">
        <ele>619.0099</ele>
        <time>2011-03-27T08:02:10Z</time>
      </trkpt>
      <trkpt lat="43.53853" lon="5.56155">
        <ele>619.0099</ele>
        <time>2011-03-27T08:02:11Z</time>
      </trkpt>
      <trkpt lat="43.53854" lon="5.56152">
        <ele>619.0099</ele>
        <time>2011-03-27T08:02:12Z</time>
      </trkpt>
      <trkpt lat="43.53855" lon="5.5615">
        <ele>619.0099</ele>
        <time>2011-03-27T08:02:13Z</time>
      </trkpt>
      <trkpt lat="43.5386" lon="5.5614">
        <ele>619.0099</ele>
        <time>2011-03-27T08:02:19Z</time>
      </trkpt>
      <trkpt lat="43.53861" lon="5.56138">
        <ele>619.0099</ele>
        <time>2011-03-27T08:02:20Z</time>
      </trkpt>
      <trkpt lat="43.53862" lon="5.56136">
        <ele>619.0099</ele>
        <time>2011-03-27T08:02:21Z</time>
      </trkpt>
      <trkpt lat="43.53863" lon="5.56135">
        <ele>619.0099</ele>
        <time>2011-03-27T08:02:22Z</time>
      </trkpt>
      <trkpt lat="43.53865" lon="5.56133">
        <ele>619.0099</ele>
        <time>2011-03-27T08:02:24Z</time>
      </trkpt>
      <trkpt lat="43.53866" lon="5.56132">
        <ele>619.0099</ele>
        <time>2011-03-27T08:02:25Z</time>
      </trkpt>
      <trkpt lat="43.5387" lon="5.56125">
        <ele>618.0099</ele>
        <time>2011-03-27T08:02:31Z</time>
      </trkpt>
      <trkpt lat="43.53872" lon="5.56124">
        <ele>618.0099</ele>
        <time>2011-03-27T08:02:32Z</time>
      </trkpt>
      <trkpt lat="43.53873" lon="5.56123">
        <ele>618.0099</ele>
        <time>2011-03-27T08:02:33Z</time>
      </trkpt>
      <trkpt lat="43.53874" lon="5.56122">
        <ele>618.0099</ele>
        <time>2011-03-27T08:02:34Z</time>
      </trkpt>
      <trkpt lat="43.53875" lon="5.56121">
        <ele>618.0099</ele>
        <time>2011-03-27T08:02:35Z</time>
      </trkpt>
      <trkpt lat="43.53876" lon="5.5612">
        <ele>618.0099</ele>
        <time>2011-03-27T08:02:36Z</time>
      </trkpt>
      <trkpt lat="43.53878" lon="5.56117">
        <ele>618.0099</ele>
        <time>2011-03-27T08:02:38Z</time>
      </trkpt>
      <trkpt lat="43.53879" lon="5.56116">
        <ele>618.0099</ele>
        <time>2011-03-27T08:02:39Z</time>
      </trkpt>
      <trkpt lat="43.5388" lon="5.56115">
        <ele>618.0099</ele>
        <time>2011-03-27T08:02:40Z</time>
      </trkpt>
      <trkpt lat="43.53881" lon="5.56114">
        <ele>618.0099</ele>
        <time>2011-03-27T08:02:41Z</time>
      </trkpt>
      <trkpt lat="43.53882" lon="5.56113">
        <ele>618.0099</ele>
        <time>2011-03-27T08:02:42Z</time>
      </trkpt>
      <trkpt lat="43.53882" lon="5.56111">
        <ele>619.0099</ele>
        <time>2011-03-27T08:02:43Z</time>
      </trkpt>
      <trkpt lat="43.53883" lon="5.5611">
        <ele>619.0099</ele>
        <time>2011-03-27T08:02:44Z</time>
      </trkpt>
      <trkpt lat="43.53883" lon="5.56109">
        <ele>619.0099</ele>
        <time>2011-03-27T08:02:45Z</time>
      </trkpt>
      <trkpt lat="43.53885" lon="5.561">
        <ele>619.0098</ele>
        <time>2011-03-27T08:02:51Z</time>
      </trkpt>
      <trkpt lat="43.53885" lon="5.56099">
        <ele>619.0098</ele>
        <time>2011-03-27T08:02:52Z</time>
      </trkpt>
      <trkpt lat="43.53885" lon="5.56098">
        <ele>619.0098</ele>
        <time>2011-03-27T08:02:53Z</time>
      </trkpt>
      <trkpt lat="43.53885" lon="5.56096">
        <ele>619.0098</ele>
        <time>2011-03-27T08:02:54Z</time>
      </trkpt>
      <trkpt lat="43.53885" lon="5.56095">
        <ele>619.0098</ele>
        <time>2011-03-27T08:02:55Z</time>
      </trkpt>
      <trkpt lat="43.53885" lon="5.56093">
        <ele>619.0098</ele>
        <time>2011-03-27T08:02:56Z</time>
      </trkpt>
      <trkpt lat="43.53886" lon="5.56086">
        <ele>619.0098</ele>
        <time>2011-03-27T08:03:01Z</time>
      </trkpt>
      <trkpt lat="43.53886" lon="5.56085">
        <ele>619.0098</ele>
        <time>2011-03-27T08:03:02Z</time>
      </trkpt>
      <trkpt lat="43.53886" lon="5.56083">
        <ele>619.0098</ele>
        <time>2011-03-27T08:03:03Z</time>
      </trkpt>
      <trkpt lat="43.53886" lon="5.56081">
        <ele>619.0098</ele>
        <time>2011-03-27T08:03:04Z</time>
      </trkpt>
      <trkpt lat="43.53886" lon="5.5608">
        <ele>619.0098</ele>
        <time>2011-03-27T08:03:05Z</time>
      </trkpt>
      <trkpt lat="43.53886" lon="5.56078">
        <ele>619.0098</ele>
        <time>2011-03-27T08:03:06Z</time>
      </trkpt>
      <trkpt lat="43.53886" lon="5.56076">
        <ele>619.0098</ele>
        <time>2011-03-27T08:03:07Z</time>
      </trkpt>
      <trkpt lat="43.53885" lon="5.56075">
        <ele>619.0098</ele>
        <time>2011-03-27T08:03:08Z</time>
      </trkpt>
      <trkpt lat="43.53885" lon="5.56073">
        <ele>619.0098</ele>
        <time>2011-03-27T08:03:09Z</time>
      </trkpt>
      <trkpt lat="43.53885" lon="5.56071">
        <ele>619.0098</ele>
        <time>2011-03-27T08:03:10Z</time>
      </trkpt>
      <trkpt lat="43.53885" lon="5.56069">
        <ele>619.0098</ele>
        <time>2011-03-27T08:03:11Z</time>
      </trkpt>
      <trkpt lat="43.53885" lon="5.56068">
        <ele>619.0098</ele>
        <time>2011-03-27T08:03:12Z</time>
      </trkpt>
      <trkpt lat="43.53884" lon="5.56066">
        <ele>619.0098</ele>
        <time>2011-03-27T08:03:13Z</time>
      </trkpt>
      <trkpt lat="43.53883" lon="5.5606">
        <ele>620.0098</ele>
        <time>2011-03-27T08:03:16Z</time>
      </trkpt>
      <trkpt lat="43.53882" lon="5.56058">
        <ele>620.0098</ele>
        <time>2011-03-27T08:03:17Z</time>
      </trkpt>
      <trkpt lat="43.53882" lon="5.56056">
        <ele>620.0098</ele>
        <time>2011-03-27T08:03:18Z</time>
      </trkpt>
      <trkpt lat="43.53881" lon="5.56053">
        <ele>619.0098</ele>
        <time>2011-03-27T08:03:20Z</time>
      </trkpt>
      <trkpt lat="43.5388" lon="5.56051">
        <ele>619.0097</ele>
        <time>2011-03-27T08:03:21Z</time>
      </trkpt>
      <trkpt lat="43.53878" lon="5.56038">
        <ele>620.0097</ele>
        <time>2011-03-27T08:03:29Z</time>
      </trkpt>
      <trkpt lat="43.53877" lon="5.56036">
        <ele>620.0097</ele>
        <time>2011-03-27T08:03:30Z</time>
      </trkpt>
      <trkpt lat="43.53877" lon="5.56032">
        <ele>620.0097</ele>
        <time>2011-03-27T08:03:33Z</time>
      </trkpt>
      <trkpt lat="43.53877" lon="5.5603">
        <ele>620.0096</ele>
        <time>2011-03-27T08:03:34Z</time>
      </trkpt>
      <trkpt lat="43.53877" lon="5.56028">
        <ele>620.0096</ele>
        <time>2011-03-27T08:03:35Z</time>
      </trkpt>
      <trkpt lat="43.53876" lon="5.56027">
        <ele>620.0096</ele>
        <time>2011-03-27T08:03:36Z</time>
      </trkpt>
      <trkpt lat="43.53876" lon="5.56022">
        <ele>621.0096</ele>
        <time>2011-03-27T08:03:39Z</time>
      </trkpt>
      <trkpt lat="43.53877" lon="5.5602">
        <ele>620.0096</ele>
        <time>2011-03-27T08:03:40Z</time>
      </trkpt>
      <trkpt lat="43.53878" lon="5.56011">
        <ele>621.0096</ele>
        <time>2011-03-27T08:03:46Z</time>
      </trkpt>
      <trkpt lat="43.53879" lon="5.56009">
        <ele>622.0096</ele>
        <time>2011-03-27T08:03:47Z</time>
      </trkpt>
      <trkpt lat="43.53879" lon="5.56008">
        <ele>622.0096</ele>
        <time>2011-03-27T08:03:48Z</time>
      </trkpt>
      <trkpt lat="43.53879" lon="5.56007">
        <ele>622.0096</ele>
        <time>2011-03-27T08:03:49Z</time>
      </trkpt>
      <trkpt lat="43.5388" lon="5.56005">
        <ele>622.0096</ele>
        <time>2011-03-27T08:03:50Z</time>
      </trkpt>
      <trkpt lat="43.5388" lon="5.56004">
        <ele>622.0096</ele>
        <time>2011-03-27T08:03:51Z</time>
      </trkpt>
      <trkpt lat="43.5388" lon="5.56002">
        <ele>623.0096</ele>
        <time>2011-03-27T08:03:52Z</time>
      </trkpt>
      <trkpt lat="43.5388" lon="5.56">
        <ele>622.0096</ele>
        <time>2011-03-27T08:03:53Z</time>
      </trkpt>
      <trkpt lat="43.5388" lon="5.55998">
        <ele>622.0096</ele>
        <time>2011-03-27T08:03:54Z</time>
      </trkpt>
      <trkpt lat="43.5388" lon="5.55996">
        <ele>622.0096</ele>
        <time>2011-03-27T08:03:55Z</time>
      </trkpt>
      <trkpt lat="43.5388" lon="5.55994">
        <ele>622.0096</ele>
        <time>2011-03-27T08:03:56Z</time>
      </trkpt>
      <trkpt lat="43.53879" lon="5.55992">
        <ele>622.0096</ele>
        <time>2011-03-27T08:03:57Z</time>
      </trkpt>
      <trkpt lat="43.53879" lon="5.55984">
        <ele>621.0096</ele>
        <time>2011-03-27T08:04:02Z</time>
      </trkpt>
      <trkpt lat="43.53879" lon="5.55982">
        <ele>622.0096</ele>
        <time>2011-03-27T08:04:03Z</time>
      </trkpt>
      <trkpt lat="43.53881" lon="5.5597">
        <ele>621.0095</ele>
        <time>2011-03-27T08:04:10Z</time>
      </trkpt>
      <trkpt lat="43.53882" lon="5.55957">
        <ele>621.0095</ele>
        <time>2011-03-27T08:04:17Z</time>
      </trkpt>
      <trkpt lat="43.53883" lon="5.55949">
        <ele>622.0095</ele>
        <time>2011-03-27T08:04:20Z</time>
      </trkpt>
      <trkpt lat="43.53883" lon="5.55946">
        <ele>622.0095</ele>
        <time>2011-03-27T08:04:21Z</time>
      </trkpt>
      <trkpt lat="43.53883" lon="5.55938">
        <ele>622.0095</ele>
        <time>2011-03-27T08:04:24Z</time>
      </trkpt>
      <trkpt lat="43.53883" lon="5.55935">
        <ele>622.0095</ele>
        <time>2011-03-27T08:04:25Z</time>
      </trkpt>
      <trkpt lat="43.53883" lon="5.55932">
        <ele>622.0095</ele>
        <time>2011-03-27T08:04:26Z</time>
      </trkpt>
      <trkpt lat="43.53883" lon="5.55929">
        <ele>622.0095</ele>
        <time>2011-03-27T08:04:27Z</time>
      </trkpt>
      <trkpt lat="43.53883" lon="5.55926">
        <ele>623.0095</ele>
        <time>2011-03-27T08:04:28Z</time>
      </trkpt>
      <trkpt lat="43.53882" lon="5.55924">
        <ele>623.0095</ele>
        <time>2011-03-27T08:04:29Z</time>
      </trkpt>
      <trkpt lat="43.5388" lon="5.5591">
        <ele>623.0094</ele>
        <time>2011-03-27T08:04:35Z</time>
      </trkpt>
      <trkpt lat="43.5388" lon="5.55895">
        <ele>624.0094</ele>
        <time>2011-03-27T08:04:43Z</time>
      </trkpt>
      <trkpt lat="43.53879" lon="5.55878">
        <ele>624.0093</ele>
        <time>2011-03-27T08:04:54Z</time>
      </trkpt>
      <trkpt lat="43.53879" lon="5.55877">
        <ele>624.0093</ele>
        <time>2011-03-27T08:04:55Z</time>
      </trkpt>
      <trkpt lat="43.53879" lon="5.55876">
        <ele>623.0093</ele>
        <time>2011-03-27T08:04:56Z</time>
      </trkpt>
      <trkpt lat="43.53878" lon="5.55876">
        <ele>623.0093</ele>
        <time>2011-03-27T08:04:57Z</time>
      </trkpt>
      <trkpt lat="43.5388" lon="5.55864">
        <ele>620.0093</ele>
        <time>2011-03-27T08:05:07Z</time>
      </trkpt>
      <trkpt lat="43.53881" lon="5.55862">
        <ele>619.0093</ele>
        <time>2011-03-27T08:05:08Z</time>
      </trkpt>
      <trkpt lat="43.53882" lon="5.55855">
        <ele>618.0093</ele>
        <time>2011-03-27T08:05:13Z</time>
      </trkpt>
      <trkpt lat="43.53882" lon="5.55854">
        <ele>617.0093</ele>
        <time>2011-03-27T08:05:14Z</time>
      </trkpt>
      <trkpt lat="43.53882" lon="5.5585">
        <ele>616.0093</ele>
        <time>2011-03-27T08:05:18Z</time>
      </trkpt>
      <trkpt lat="43.53881" lon="5.55849">
        <ele>615.0093</ele>
        <time>2011-03-27T08:05:19Z</time>
      </trkpt>
      <trkpt lat="43.53881" lon="5.55848">
        <ele>615.0093</ele>
        <time>2011-03-27T08:05:20Z</time>
      </trkpt>
      <trkpt lat="43.53881" lon="5.55847">
        <ele>614.0093</ele>
        <time>2011-03-27T08:05:21Z</time>
      </trkpt>
      <trkpt lat="43.53881" lon="5.55846">
        <ele>614.0093</ele>
        <time>2011-03-27T08:05:22Z</time>
      </trkpt>
      <trkpt lat="43.53881" lon="5.55845">
        <ele>614.0093</ele>
        <time>2011-03-27T08:05:23Z</time>
      </trkpt>
      <trkpt lat="43.53881" lon="5.55829">
        <ele>613.0092</ele>
        <time>2011-03-27T08:05:33Z</time>
      </trkpt>
      <trkpt lat="43.53882" lon="5.55827">
        <ele>612.0092</ele>
        <time>2011-03-27T08:05:34Z</time>
      </trkpt>
      <trkpt lat="43.53882" lon="5.55826">
        <ele>612.0092</ele>
        <time>2011-03-27T08:05:35Z</time>
      </trkpt>
      <trkpt lat="43.53882" lon="5.55824">
        <ele>611.0092</ele>
        <time>2011-03-27T08:05:36Z</time>
      </trkpt>
      <trkpt lat="43.53884" lon="5.55807">
        <ele>606.0092</ele>
        <time>2011-03-27T08:05:44Z</time>
      </trkpt>
      <trkpt lat="43.53884" lon="5.55805">
        <ele>605.0092</ele>
        <time>2011-03-27T08:05:45Z</time>
      </trkpt>
      <trkpt lat="43.53884" lon="5.55803">
        <ele>605.0092</ele>
        <time>2011-03-27T08:05:46Z</time>
      </trkpt>
      <trkpt lat="43.53884" lon="5.558">
        <ele>604.0092</ele>
        <time>2011-03-27T08:05:47Z</time>
      </trkpt>
      <trkpt lat="43.53884" lon="5.55798">
        <ele>603.0092</ele>
        <time>2011-03-27T08:05:48Z</time>
      </trkpt>
      <trkpt lat="43.53884" lon="5.55795">
        <ele>603.0092</ele>
        <time>2011-03-27T08:05:49Z</time>
      </trkpt>
      <trkpt lat="43.53884" lon="5.55793">
        <ele>602.0092</ele>
        <time>2011-03-27T08:05:50Z</time>
      </trkpt>
      <trkpt lat="43.53884" lon="5.55791">
        <ele>602.0092</ele>
        <time>2011-03-27T08:05:51Z</time>
      </trkpt>
      <trkpt lat="43.53884" lon="5.55789">
        <ele>601.0092</ele>
        <time>2011-03-27T08:05:52Z</time>
      </trkpt>
      <trkpt lat="43.53884" lon="5.55787">
        <ele>601.0092</ele>
        <time>2011-03-27T08:05:53Z</time>
      </trkpt>
      <trkpt lat="43.53881" lon="5.55761">
        <ele>598.0091</ele>
        <time>2011-03-27T08:06:06Z</time>
      </trkpt>
      <trkpt lat="43.53879" lon="5.55748">
        <ele>598.009</ele>
        <time>2011-03-27T08:06:15Z</time>
      </trkpt>
      <trkpt lat="43.53878" lon="5.55747">
        <ele>598.009</ele>
        <time>2011-03-27T08:06:16Z</time>
      </trkpt>
      <trkpt lat="43.53878" lon="5.55745">
        <ele>598.009</ele>
        <time>2011-03-27T08:06:17Z</time>
      </trkpt>
      <trkpt lat="43.53878" lon="5.55744">
        <ele>598.009</ele>
        <time>2011-03-27T08:06:18Z</time>
      </trkpt>
      <trkpt lat="43.53877" lon="5.55743">
        <ele>598.009</ele>
        <time>2011-03-27T08:06:19Z</time>
      </trkpt>
      <trkpt lat="43.53875" lon="5.55727">
        <ele>599.009</ele>
        <time>2011-03-27T08:06:32Z</time>
      </trkpt>
      <trkpt lat="43.53873" lon="5.55721">
        <ele>597.009</ele>
        <time>2011-03-27T08:06:36Z</time>
      </trkpt>
      <trkpt lat="43.53872" lon="5.55719">
        <ele>597.009</ele>
        <time>2011-03-27T08:06:37Z</time>
      </trkpt>
      <trkpt lat="43.53866" lon="5.5571">
        <ele>594.0089</ele>
        <time>2011-03-27T08:06:44Z</time>
      </trkpt>
      <trkpt lat="43.53865" lon="5.55709">
        <ele>594.0089</ele>
        <time>2011-03-27T08:06:45Z</time>
      </trkpt>
      <trkpt lat="43.53861" lon="5.55701">
        <ele>593.0089</ele>
        <time>2011-03-27T08:06:51Z</time>
      </trkpt>
      <trkpt lat="43.5386" lon="5.55699">
        <ele>593.0089</ele>
        <time>2011-03-27T08:06:52Z</time>
      </trkpt>
      <trkpt lat="43.53859" lon="5.55697">
        <ele>593.0089</ele>
        <time>2011-03-27T08:06:53Z</time>
      </trkpt>
      <trkpt lat="43.53858" lon="5.55696">
        <ele>593.0089</ele>
        <time>2011-03-27T08:06:54Z</time>
      </trkpt>
      <trkpt lat="43.53854" lon="5.55684">
        <ele>591.0089</ele>
        <time>2011-03-27T08:07:02Z</time>
      </trkpt>
      <trkpt lat="43.53853" lon="5.55683">
        <ele>591.0089</ele>
        <time>2011-03-27T08:07:03Z</time>
      </trkpt>
      <trkpt lat="43.53852" lon="5.55678">
        <ele>591.0089</ele>
        <time>2011-03-27T08:07:06Z</time>
      </trkpt>
      <trkpt lat="43.53852" lon="5.55676">
        <ele>592.0089</ele>
        <time>2011-03-27T08:07:07Z</time>
      </trkpt>
      <trkpt lat="43.53851" lon="5.55671">
        <ele>592.0088</ele>
        <time>2011-03-27T08:07:10Z</time>
      </trkpt>
      <trkpt lat="43.53851" lon="5.55669">
        <ele>592.0088</ele>
        <time>2011-03-27T08:07:11Z</time>
      </trkpt>
      <trkpt lat="43.53851" lon="5.55668">
        <ele>592.0088</ele>
        <time>2011-03-27T08:07:12Z</time>
      </trkpt>
      <trkpt lat="43.53851" lon="5.55666">
        <ele>592.0088</ele>
        <time>2011-03-27T08:07:13Z</time>
      </trkpt>
      <trkpt lat="43.53851" lon="5.55655">
        <ele>591.0088</ele>
        <time>2011-03-27T08:07:19Z</time>
      </trkpt>
      <trkpt lat="43.53851" lon="5.55653">
        <ele>591.0088</ele>
        <time>2011-03-27T08:07:20Z</time>
      </trkpt>
      <trkpt lat="43.5385" lon="5.55651">
        <ele>591.0088</ele>
        <time>2011-03-27T08:07:21Z</time>
      </trkpt>
      <trkpt lat="43.5385" lon="5.55649">
        <ele>591.0088</ele>
        <time>2011-03-27T08:07:22Z</time>
      </trkpt>
      <trkpt lat="43.53849" lon="5.55643">
        <ele>592.0087</ele>
        <time>2011-03-27T08:07:25Z</time>
      </trkpt>
      <trkpt lat="43.53849" lon="5.55641">
        <ele>592.0087</ele>
        <time>2011-03-27T08:07:26Z</time>
      </trkpt>
      <trkpt lat="43.53849" lon="5.55639">
        <ele>591.0087</ele>
        <time>2011-03-27T08:07:27Z</time>
      </trkpt>
      <trkpt lat="43.53849" lon="5.55637">
        <ele>591.0087</ele>
        <time>2011-03-27T08:07:28Z</time>
      </trkpt>
      <trkpt lat="43.53848" lon="5.55622">
        <ele>589.0087</ele>
        <time>2011-03-27T08:07:38Z</time>
      </trkpt>
      <trkpt lat="43.53849" lon="5.5562">
        <ele>590.0087</ele>
        <time>2011-03-27T08:07:39Z</time>
      </trkpt>
      <trkpt lat="43.53849" lon="5.55619">
        <ele>590.0087</ele>
        <time>2011-03-27T08:07:40Z</time>
      </trkpt>
      <trkpt lat="43.53849" lon="5.55617">
        <ele>589.0087</ele>
        <time>2011-03-27T08:07:41Z</time>
      </trkpt>
      <trkpt lat="43.53849" lon="5.55605">
        <ele>589.0087</ele>
        <time>2011-03-27T08:07:49Z</time>
      </trkpt>
      <trkpt lat="43.53849" lon="5.55603">
        <ele>589.0087</ele>
        <time>2011-03-27T08:07:50Z</time>
      </trkpt>
      <trkpt lat="43.53849" lon="5.55602">
        <ele>588.0087</ele>
        <time>2011-03-27T08:07:51Z</time>
      </trkpt>
      <trkpt lat="43.53849" lon="5.55597">
        <ele>587.0087</ele>
        <time>2011-03-27T08:07:54Z</time>
      </trkpt>
      <trkpt lat="43.5385" lon="5.55596">
        <ele>587.0087</ele>
        <time>2011-03-27T08:07:55Z</time>
      </trkpt>
      <trkpt lat="43.53851" lon="5.55578">
        <ele>586.0086</ele>
        <time>2011-03-27T08:08:10Z</time>
      </trkpt>
      <trkpt lat="43.53851" lon="5.5557">
        <ele>585.0086</ele>
        <time>2011-03-27T08:08:17Z</time>
      </trkpt>
      <trkpt lat="43.53851" lon="5.55569">
        <ele>585.0086</ele>
        <time>2011-03-27T08:08:18Z</time>
      </trkpt>
      <trkpt lat="43.53851" lon="5.55568">
        <ele>585.0086</ele>
        <time>2011-03-27T08:08:19Z</time>
      </trkpt>
      <trkpt lat="43.53851" lon="5.55566">
        <ele>585.0086</ele>
        <time>2011-03-27T08:08:20Z</time>
      </trkpt>
      <trkpt lat="43.53851" lon="5.55565">
        <ele>584.0085</ele>
        <time>2011-03-27T08:08:21Z</time>
      </trkpt>
      <trkpt lat="43.53851" lon="5.55563">
        <ele>584.0085</ele>
        <time>2011-03-27T08:08:22Z</time>
      </trkpt>
      <trkpt lat="43.53853" lon="5.55551">
        <ele>582.0085</ele>
        <time>2011-03-27T08:08:34Z</time>
      </trkpt>
      <trkpt lat="43.53853" lon="5.55549">
        <ele>582.0085</ele>
        <time>2011-03-27T08:08:36Z</time>
      </trkpt>
      <trkpt lat="43.53854" lon="5.55547">
        <ele>582.0085</ele>
        <time>2011-03-27T08:08:37Z</time>
      </trkpt>
      <trkpt lat="43.53855" lon="5.55546">
        <ele>582.0085</ele>
        <time>2011-03-27T08:08:41Z</time>
      </trkpt>
      <trkpt lat="43.53855" lon="5.55545">
        <ele>581.0085</ele>
        <time>2011-03-27T08:08:42Z</time>
      </trkpt>
      <trkpt lat="43.53855" lon="5.55544">
        <ele>581.0085</ele>
        <time>2011-03-27T08:08:43Z</time>
      </trkpt>
      <trkpt lat="43.53855" lon="5.55544">
        <ele>581.0085</ele>
        <time>2011-03-27T08:08:44Z</time>
      </trkpt>
      <trkpt lat="43.53856" lon="5.5554">
        <ele>578.0085</ele>
        <time>2011-03-27T08:08:48Z</time>
      </trkpt>
      <trkpt lat="43.53856" lon="5.55539">
        <ele>577.0085</ele>
        <time>2011-03-27T08:08:49Z</time>
      </trkpt>
      <trkpt lat="43.53856" lon="5.55538">
        <ele>576.0085</ele>
        <time>2011-03-27T08:08:50Z</time>
      </trkpt>
      <trkpt lat="43.53856" lon="5.55537">
        <ele>576.0085</ele>
        <time>2011-03-27T08:08:51Z</time>
      </trkpt>
      <trkpt lat="43.53856" lon="5.55536">
        <ele>576.0085</ele>
        <time>2011-03-27T08:08:52Z</time>
      </trkpt>
      <trkpt lat="43.53856" lon="5.55536">
        <ele>575.0085</ele>
        <time>2011-03-27T08:08:53Z</time>
      </trkpt>
      <trkpt lat="43.53856" lon="5.55535">
        <ele>575.0085</ele>
        <time>2011-03-27T08:08:54Z</time>
      </trkpt>
      <trkpt lat="43.53856" lon="5.55534">
        <ele>575.0085</ele>
        <time>2011-03-27T08:08:55Z</time>
      </trkpt>
      <trkpt lat="43.53856" lon="5.5553">
        <ele>574.0085</ele>
        <time>2011-03-27T08:08:59Z</time>
      </trkpt>
      <trkpt lat="43.53857" lon="5.55529">
        <ele>574.0085</ele>
        <time>2011-03-27T08:09:00Z</time>
      </trkpt>
      <trkpt lat="43.53857" lon="5.55528">
        <ele>574.0085</ele>
        <time>2011-03-27T08:09:01Z</time>
      </trkpt>
      <trkpt lat="43.53857" lon="5.55528">
        <ele>573.0085</ele>
        <time>2011-03-27T08:09:02Z</time>
      </trkpt>
      <trkpt lat="43.53858" lon="5.55527">
        <ele>573.0085</ele>
        <time>2011-03-27T08:09:03Z</time>
      </trkpt>
      <trkpt lat="43.53858" lon="5.55526">
        <ele>573.0085</ele>
        <time>2011-03-27T08:09:04Z</time>
      </trkpt>
      <trkpt lat="43.53861" lon="5.55521">
        <ele>571.0085</ele>
        <time>2011-03-27T08:09:10Z</time>
      </trkpt>
      <trkpt lat="43.53861" lon="5.5552">
        <ele>571.0085</ele>
        <time>2011-03-27T08:09:11Z</time>
      </trkpt>
      <trkpt lat="43.53861" lon="5.55519">
        <ele>571.0085</ele>
        <time>2011-03-27T08:09:12Z</time>
      </trkpt>
      <trkpt lat="43.53861" lon="5.5552">
        <ele>571.0085</ele>
        <time>2011-03-27T08:09:13Z</time>
      </trkpt>
      <trkpt lat="43.53863" lon="5.5551">
        <ele>568.0085</ele>
        <time>2011-03-27T08:09:25Z</time>
      </trkpt>
      <trkpt lat="43.53863" lon="5.55509">
        <ele>567.0085</ele>
        <time>2011-03-27T08:09:26Z</time>
      </trkpt>
      <trkpt lat="43.53864" lon="5.55505">
        <ele>566.0085</ele>
        <time>2011-03-27T08:09:29Z</time>
      </trkpt>
      <trkpt lat="43.53864" lon="5.55504">
        <ele>566.0085</ele>
        <time>2011-03-27T08:09:30Z</time>
      </trkpt>
      <trkpt lat="43.53864" lon="5.55503">
        <ele>565.0085</ele>
        <time>2011-03-27T08:09:31Z</time>
      </trkpt>
      <trkpt lat="43.53864" lon="5.55502">
        <ele>565.0085</ele>
        <time>2011-03-27T08:09:32Z</time>
      </trkpt>
      <trkpt lat="43.53865" lon="5.55488">
        <ele>563.0084</ele>
        <time>2011-03-27T08:09:41Z</time>
      </trkpt>
      <trkpt lat="43.53866" lon="5.55485">
        <ele>562.0084</ele>
        <time>2011-03-27T08:09:43Z</time>
      </trkpt>
      <trkpt lat="43.53866" lon="5.55484">
        <ele>562.0084</ele>
        <time>2011-03-27T08:09:44Z</time>
      </trkpt>
      <trkpt lat="43.53865" lon="5.55481">
        <ele>561.0084</ele>
        <time>2011-03-27T08:09:47Z</time>
      </trkpt>
      <trkpt lat="43.53865" lon="5.5548">
        <ele>560.0084</ele>
        <time>2011-03-27T08:09:48Z</time>
      </trkpt>
      <trkpt lat="43.53864" lon="5.55478">
        <ele>559.0084</ele>
        <time>2011-03-27T08:09:51Z</time>
      </trkpt>
      <trkpt lat="43.53864" lon="5.55478">
        <ele>559.0084</ele>
        <time>2011-03-27T08:09:52Z</time>
      </trkpt>
      <trkpt lat="43.53864" lon="5.55478">
        <ele>558.0084</ele>
        <time>2011-03-27T08:09:53Z</time>
      </trkpt>
      <trkpt lat="43.53864" lon="5.55477">
        <ele>558.0084</ele>
        <time>2011-03-27T08:09:54Z</time>
      </trkpt>
      <trkpt lat="43.53864" lon="5.55469">
        <ele>555.0084</ele>
        <time>2011-03-27T08:10:04Z</time>
      </trkpt>
      <trkpt lat="43.53863" lon="5.55467">
        <ele>555.0084</ele>
        <time>2011-03-27T08:10:05Z</time>
      </trkpt>
      <trkpt lat="43.53863" lon="5.55466">
        <ele>555.0084</ele>
        <time>2011-03-27T08:10:06Z</time>
      </trkpt>
      <trkpt lat="43.53863" lon="5.55465">
        <ele>555.0084</ele>
        <time>2011-03-27T08:10:07Z</time>
      </trkpt>
      <trkpt lat="43.53862" lon="5.55463">
        <ele>555.0084</ele>
        <time>2011-03-27T08:10:08Z</time>
      </trkpt>
      <trkpt lat="43.53862" lon="5.55462">
        <ele>554.0084</ele>
        <time>2011-03-27T08:10:09Z</time>
      </trkpt>
      <trkpt lat="43.53861" lon="5.5546">
        <ele>554.0084</ele>
        <time>2011-03-27T08:10:10Z</time>
      </trkpt>
      <trkpt lat="43.53861" lon="5.55459">
        <ele>554.0084</ele>
        <time>2011-03-27T08:10:11Z</time>
      </trkpt>
      <trkpt lat="43.53861" lon="5.55435">
        <ele>550.0083</ele>
        <time>2011-03-27T08:10:34Z</time>
      </trkpt>
      <trkpt lat="43.53861" lon="5.55435">
        <ele>550.0083</ele>
        <time>2011-03-27T08:10:35Z</time>
      </trkpt>
      <trkpt lat="43.53862" lon="5.55434">
        <ele>550.0083</ele>
        <time>2011-03-27T08:10:36Z</time>
      </trkpt>
      <trkpt lat="43.53862" lon="5.55433">
        <ele>550.0083</ele>
        <time>2011-03-27T08:10:37Z</time>
      </trkpt>
      <trkpt lat="43.53862" lon="5.55432">
        <ele>550.0083</ele>
        <time>2011-03-27T08:10:38Z</time>
      </trkpt>
      <trkpt lat="43.53862" lon="5.55431">
        <ele>550.0083</ele>
        <time>2011-03-27T08:10:39Z</time>
      </trkpt>
      <trkpt lat="43.53862" lon="5.5543">
        <ele>549.0083</ele>
        <time>2011-03-27T08:10:40Z</time>
      </trkpt>
      <trkpt lat="43.53863" lon="5.55429">
        <ele>549.0083</ele>
        <time>2011-03-27T08:10:41Z</time>
      </trkpt>
      <trkpt lat="43.53863" lon="5.55427">
        <ele>549.0083</ele>
        <time>2011-03-27T08:10:42Z</time>
      </trkpt>
      <trkpt lat="43.53864" lon="5.55424">
        <ele>548.0083</ele>
        <time>2011-03-27T08:10:44Z</time>
      </trkpt>
      <trkpt lat="43.53865" lon="5.55423">
        <ele>548.0083</ele>
        <time>2011-03-27T08:10:45Z</time>
      </trkpt>
      <trkpt lat="43.53867" lon="5.55422">
        <ele>547.0083</ele>
        <time>2011-03-27T08:10:46Z</time>
      </trkpt>
      <trkpt lat="43.5387" lon="5.55418">
        <ele>546.0083</ele>
        <time>2011-03-27T08:10:49Z</time>
      </trkpt>
      <trkpt lat="43.53871" lon="5.55416">
        <ele>545.0083</ele>
        <time>2011-03-27T08:10:50Z</time>
      </trkpt>
      <trkpt lat="43.53881" lon="5.55411">
        <ele>541.0083</ele>
        <time>2011-03-27T08:11:02Z</time>
      </trkpt>
      <trkpt lat="43.53881" lon="5.5541">
        <ele>541.0083</ele>
        <time>2011-03-27T08:11:03Z</time>
      </trkpt>
      <trkpt lat="43.53882" lon="5.55409">
        <ele>540.0083</ele>
        <time>2011-03-27T08:11:04Z</time>
      </trkpt>
      <trkpt lat="43.53882" lon="5.55408">
        <ele>540.0083</ele>
        <time>2011-03-27T08:11:05Z</time>
      </trkpt>
      <trkpt lat="43.53883" lon="5.55407">
        <ele>539.0083</ele>
        <time>2011-03-27T08:11:06Z</time>
      </trkpt>
      <trkpt lat="43.53883" lon="5.55406">
        <ele>539.0083</ele>
        <time>2011-03-27T08:11:07Z</time>
      </trkpt>
      <trkpt lat="43.53883" lon="5.55405">
        <ele>539.0083</ele>
        <time>2011-03-27T08:11:08Z</time>
      </trkpt>
      <trkpt lat="43.53886" lon="5.55402">
        <ele>538.0083</ele>
        <time>2011-03-27T08:11:12Z</time>
      </trkpt>
      <trkpt lat="43.53887" lon="5.55401">
        <ele>537.0083</ele>
        <time>2011-03-27T08:11:13Z</time>
      </trkpt>
      <trkpt lat="43.53899" lon="5.55393">
        <ele>534.0083</ele>
        <time>2011-03-27T08:11:27Z</time>
      </trkpt>
      <trkpt lat="43.53901" lon="5.55392">
        <ele>534.0083</ele>
        <time>2011-03-27T08:11:28Z</time>
      </trkpt>
      <trkpt lat="43.53904" lon="5.55392">
        <ele>533.0083</ele>
        <time>2011-03-27T08:11:32Z</time>
      </trkpt>
      <trkpt lat="43.53904" lon="5.55392">
        <ele>533.0083</ele>
        <time>2011-03-27T08:11:33Z</time>
      </trkpt>
      <trkpt lat="43.53905" lon="5.55392">
        <ele>533.0083</ele>
        <time>2011-03-27T08:11:34Z</time>
      </trkpt>
      <trkpt lat="43.53914" lon="5.55392">
        <ele>531.0084</ele>
        <time>2011-03-27T08:11:46Z</time>
      </trkpt>
      <trkpt lat="43.53914" lon="5.55392">
        <ele>531.0083</ele>
        <time>2011-03-27T08:11:47Z</time>
      </trkpt>
      <trkpt lat="43.53915" lon="5.55392">
        <ele>531.0083</ele>
        <time>2011-03-27T08:11:48Z</time>
      </trkpt>
      <trkpt lat="43.53915" lon="5.55391">
        <ele>530.0084</ele>
        <time>2011-03-27T08:11:49Z</time>
      </trkpt>
      <trkpt lat="43.53917" lon="5.55389">
        <ele>530.0084</ele>
        <time>2011-03-27T08:11:52Z</time>
      </trkpt>
      <trkpt lat="43.53918" lon="5.55387">
        <ele>530.0083</ele>
        <time>2011-03-27T08:11:53Z</time>
      </trkpt>
      <trkpt lat="43.53919" lon="5.55385">
        <ele>529.0083</ele>
        <time>2011-03-27T08:11:54Z</time>
      </trkpt>
      <trkpt lat="43.53919" lon="5.55383">
        <ele>529.0083</ele>
        <time>2011-03-27T08:11:55Z</time>
      </trkpt>
      <trkpt lat="43.53922" lon="5.55372">
        <ele>528.0083</ele>
        <time>2011-03-27T08:12:03Z</time>
      </trkpt>
      <trkpt lat="43.53922" lon="5.55371">
        <ele>527.0083</ele>
        <time>2011-03-27T08:12:04Z</time>
      </trkpt>
      <trkpt lat="43.53922" lon="5.55368">
        <ele>527.0083</ele>
        <time>2011-03-27T08:12:05Z</time>
      </trkpt>
      <trkpt lat="43.53922" lon="5.55366">
        <ele>527.0083</ele>
        <time>2011-03-27T08:12:06Z</time>
      </trkpt>
      <trkpt lat="43.53923" lon="5.55362">
        <ele>526.0083</ele>
        <time>2011-03-27T08:12:09Z</time>
      </trkpt>
      <trkpt lat="43.53923" lon="5.55362">
        <ele>526.0083</ele>
        <time>2011-03-27T08:12:10Z</time>
      </trkpt>
      <trkpt lat="43.53923" lon="5.5536">
        <ele>526.0083</ele>
        <time>2011-03-27T08:12:11Z</time>
      </trkpt>
      <trkpt lat="43.53923" lon="5.55359">
        <ele>526.0083</ele>
        <time>2011-03-27T08:12:12Z</time>
      </trkpt>
      <trkpt lat="43.53923" lon="5.55357">
        <ele>525.0083</ele>
        <time>2011-03-27T08:12:13Z</time>
      </trkpt>
      <trkpt lat="43.53923" lon="5.55356">
        <ele>525.0083</ele>
        <time>2011-03-27T08:12:14Z</time>
      </trkpt>
      <trkpt lat="43.53923" lon="5.55354">
        <ele>524.0082</ele>
        <time>2011-03-27T08:12:15Z</time>
      </trkpt>
      <trkpt lat="43.53923" lon="5.55353">
        <ele>524.0082</ele>
        <time>2011-03-27T08:12:16Z</time>
      </trkpt>
      <trkpt lat="43.53924" lon="5.55352">
        <ele>524.0082</ele>
        <time>2011-03-27T08:12:17Z</time>
      </trkpt>
      <trkpt lat="43.53924" lon="5.55349">
        <ele>524.0082</ele>
        <time>2011-03-27T08:12:18Z</time>
      </trkpt>
      <trkpt lat="43.53925" lon="5.55337">
        <ele>522.0082</ele>
        <time>2011-03-27T08:12:23Z</time>
      </trkpt>
      <trkpt lat="43.53925" lon="5.55335">
        <ele>521.0082</ele>
        <time>2011-03-27T08:12:24Z</time>
      </trkpt>
      <trkpt lat="43.53925" lon="5.55332">
        <ele>520.0082</ele>
        <time>2011-03-27T08:12:25Z</time>
      </trkpt>
      <trkpt lat="43.53925" lon="5.55319">
        <ele>516.0082</ele>
        <time>2011-03-27T08:12:30Z</time>
      </trkpt>
      <trkpt lat="43.53925" lon="5.55317">
        <ele>516.0082</ele>
        <time>2011-03-27T08:12:31Z</time>
      </trkpt>
      <trkpt lat="43.53925" lon="5.55312">
        <ele>515.0082</ele>
        <time>2011-03-27T08:12:34Z</time>
      </trkpt>
      <trkpt lat="43.53925" lon="5.5531">
        <ele>514.0082</ele>
        <time>2011-03-27T08:12:35Z</time>
      </trkpt>
      <trkpt lat="43.53925" lon="5.55308">
        <ele>514.0082</ele>
        <time>2011-03-27T08:12:36Z</time>
      </trkpt>
      <trkpt lat="43.53925" lon="5.55306">
        <ele>513.0082</ele>
        <time>2011-03-27T08:12:37Z</time>
      </trkpt>
      <trkpt lat="43.53925" lon="5.55304">
        <ele>513.0082</ele>
        <time>2011-03-27T08:12:39Z</time>
      </trkpt>
      <trkpt lat="43.53925" lon="5.55302">
        <ele>512.0082</ele>
        <time>2011-03-27T08:12:40Z</time>
      </trkpt>
      <trkpt lat="43.53928" lon="5.55287">
        <ele>510.0081</ele>
        <time>2011-03-27T08:12:52Z</time>
      </trkpt>
      <trkpt lat="43.53934" lon="5.55277">
        <ele>506.0081</ele>
        <time>2011-03-27T08:13:05Z</time>
      </trkpt>
      <trkpt lat="43.53935" lon="5.55277">
        <ele>505.0081</ele>
        <time>2011-03-27T08:13:06Z</time>
      </trkpt>
      <trkpt lat="43.53935" lon="5.55278">
        <ele>505.0081</ele>
        <time>2011-03-27T08:13:07Z</time>
      </trkpt>
      <trkpt lat="43.53935" lon="5.55277">
        <ele>504.0081</ele>
        <time>2011-03-27T08:13:08Z</time>
      </trkpt>
      <trkpt lat="43.53935" lon="5.55277">
        <ele>503.0081</ele>
        <time>2011-03-27T08:13:09Z</time>
      </trkpt>
      <trkpt lat="43.53935" lon="5.55275">
        <ele>503.0081</ele>
        <time>2011-03-27T08:13:10Z</time>
      </trkpt>
      <trkpt lat="43.53936" lon="5.55267">
        <ele>500.0081</ele>
        <time>2011-03-27T08:13:16Z</time>
      </trkpt>
      <trkpt lat="43.53936" lon="5.55266">
        <ele>500.0081</ele>
        <time>2011-03-27T08:13:17Z</time>
      </trkpt>
      <trkpt lat="43.53936" lon="5.55264">
        <ele>499.0081</ele>
        <time>2011-03-27T08:13:18Z</time>
      </trkpt>
      <trkpt lat="43.53936" lon="5.55262">
        <ele>499.0081</ele>
        <time>2011-03-27T08:13:19Z</time>
      </trkpt>
      <trkpt lat="43.53936" lon="5.55261">
        <ele>498.0081</ele>
        <time>2011-03-27T08:13:20Z</time>
      </trkpt>
      <trkpt lat="43.53935" lon="5.55259">
        <ele>498.0081</ele>
        <time>2011-03-27T08:13:21Z</time>
      </trkpt>
      <trkpt lat="43.53935" lon="5.55257">
        <ele>498.0081</ele>
        <time>2011-03-27T08:13:22Z</time>
      </trkpt>
      <trkpt lat="43.53935" lon="5.55254">
        <ele>497.0081</ele>
        <time>2011-03-27T08:13:23Z</time>
      </trkpt>
      <trkpt lat="43.53935" lon="5.55251">
        <ele>497.0081</ele>
        <time>2011-03-27T08:13:24Z</time>
      </trkpt>
      <trkpt lat="43.53935" lon="5.55249">
        <ele>497.0081</ele>
        <time>2011-03-27T08:13:25Z</time>
      </trkpt>
      <trkpt lat="43.53935" lon="5.55246">
        <ele>496.0081</ele>
        <time>2011-03-27T08:13:26Z</time>
      </trkpt>
      <trkpt lat="43.53935" lon="5.55243">
        <ele>496.0081</ele>
        <time>2011-03-27T08:13:27Z</time>
      </trkpt>
      <trkpt lat="43.53933" lon="5.55238">
        <ele>496.008</ele>
        <time>2011-03-27T08:13:29Z</time>
      </trkpt>
      <trkpt lat="43.53933" lon="5.55235">
        <ele>496.008</ele>
        <time>2011-03-27T08:13:30Z</time>
      </trkpt>
      <trkpt lat="43.53931" lon="5.55231">
        <ele>497.008</ele>
        <time>2011-03-27T08:13:32Z</time>
      </trkpt>
      <trkpt lat="43.53931" lon="5.55229">
        <ele>497.008</ele>
        <time>2011-03-27T08:13:33Z</time>
      </trkpt>
      <trkpt lat="43.53929" lon="5.55226">
        <ele>497.008</ele>
        <time>2011-03-27T08:13:34Z</time>
      </trkpt>
      <trkpt lat="43.53927" lon="5.5522">
        <ele>498.008</ele>
        <time>2011-03-27T08:13:36Z</time>
      </trkpt>
      <trkpt lat="43.53927" lon="5.55218">
        <ele>498.008</ele>
        <time>2011-03-27T08:13:37Z</time>
      </trkpt>
      <trkpt lat="43.53926" lon="5.55214">
        <ele>498.008</ele>
        <time>2011-03-27T08:13:38Z</time>
      </trkpt>
      <trkpt lat="43.53925" lon="5.55211">
        <ele>498.0079</ele>
        <time>2011-03-27T08:13:39Z</time>
      </trkpt>
      <trkpt lat="43.53924" lon="5.55207">
        <ele>499.0079</ele>
        <time>2011-03-27T08:13:40Z</time>
      </trkpt>
      <trkpt lat="43.53924" lon="5.55204">
        <ele>500.0079</ele>
        <time>2011-03-27T08:13:41Z</time>
      </trkpt>
      <trkpt lat="43.53924" lon="5.552">
        <ele>501.0079</ele>
        <time>2011-03-27T08:13:42Z</time>
      </trkpt>
      <trkpt lat="43.53924" lon="5.55196">
        <ele>502.0079</ele>
        <time>2011-03-27T08:13:43Z</time>
      </trkpt>
      <trkpt lat="43.53923" lon="5.55193">
        <ele>502.0079</ele>
        <time>2011-03-27T08:13:44Z</time>
      </trkpt>
      <trkpt lat="43.53923" lon="5.5519">
        <ele>502.0079</ele>
        <time>2011-03-27T08:13:45Z</time>
      </trkpt>
      <trkpt lat="43.53923" lon="5.55187">
        <ele>502.0079</ele>
        <time>2011-03-27T08:13:46Z</time>
      </trkpt>
      <trkpt lat="43.53923" lon="5.55184">
        <ele>502.0079</ele>
        <time>2011-03-27T08:13:47Z</time>
      </trkpt>
      <trkpt lat="43.53923" lon="5.55181">
        <ele>502.0079</ele>
        <time>2011-03-27T08:13:48Z</time>
      </trkpt>
      <trkpt lat="43.53923" lon="5.55178">
        <ele>501.0079</ele>
        <time>2011-03-27T08:13:49Z</time>
      </trkpt>
      <trkpt lat="43.53923" lon="5.55175">
        <ele>501.0079</ele>
        <time>2011-03-27T08:13:50Z</time>
      </trkpt>
      <trkpt lat="43.53923" lon="5.55172">
        <ele>501.0079</ele>
        <time>2011-03-27T08:13:51Z</time>
      </trkpt>
      <trkpt lat="43.53923" lon="5.55169">
        <ele>501.0079</ele>
        <time>2011-03-27T08:13:52Z</time>
      </trkpt>
      <trkpt lat="43.53923" lon="5.55167">
        <ele>501.0078</ele>
        <time>2011-03-27T08:13:53Z</time>
      </trkpt>
      <trkpt lat="43.53923" lon="5.55164">
        <ele>501.0078</ele>
        <time>2011-03-27T08:13:54Z</time>
      </trkpt>
      <trkpt lat="43.53923" lon="5.55161">
        <ele>501.0078</ele>
        <time>2011-03-27T08:13:55Z</time>
      </trkpt>
      <trkpt lat="43.53923" lon="5.55159">
        <ele>501.0078</ele>
        <time>2011-03-27T08:13:56Z</time>
      </trkpt>
      <trkpt lat="43.53923" lon="5.55156">
        <ele>501.0078</ele>
        <time>2011-03-27T08:13:57Z</time>
      </trkpt>
      <trkpt lat="43.53923" lon="5.55154">
        <ele>501.0078</ele>
        <time>2011-03-27T08:13:58Z</time>
      </trkpt>
      <trkpt lat="43.53923" lon="5.55149">
        <ele>500.0078</ele>
        <time>2011-03-27T08:14:00Z</time>
      </trkpt>
      <trkpt lat="43.53923" lon="5.55147">
        <ele>500.0078</ele>
        <time>2011-03-27T08:14:01Z</time>
      </trkpt>
      <trkpt lat="43.53923" lon="5.55136">
        <ele>500.0078</ele>
        <time>2011-03-27T08:14:10Z</time>
      </trkpt>
      <trkpt lat="43.53922" lon="5.55134">
        <ele>499.0078</ele>
        <time>2011-03-27T08:14:11Z</time>
      </trkpt>
      <trkpt lat="43.53922" lon="5.55128">
        <ele>498.0078</ele>
        <time>2011-03-27T08:14:14Z</time>
      </trkpt>
      <trkpt lat="43.53922" lon="5.55126">
        <ele>497.0078</ele>
        <time>2011-03-27T08:14:15Z</time>
      </trkpt>
      <trkpt lat="43.53921" lon="5.55122">
        <ele>496.0078</ele>
        <time>2011-03-27T08:14:17Z</time>
      </trkpt>
      <trkpt lat="43.5392" lon="5.55121">
        <ele>496.0078</ele>
        <time>2011-03-27T08:14:18Z</time>
      </trkpt>
      <trkpt lat="43.53919" lon="5.55109">
        <ele>493.0077</ele>
        <time>2011-03-27T08:14:24Z</time>
      </trkpt>
      <trkpt lat="43.53919" lon="5.55107">
        <ele>492.0077</ele>
        <time>2011-03-27T08:14:25Z</time>
      </trkpt>
      <trkpt lat="43.53918" lon="5.551">
        <ele>489.0077</ele>
        <time>2011-03-27T08:14:28Z</time>
      </trkpt>
      <trkpt lat="43.53917" lon="5.55097">
        <ele>489.0077</ele>
        <time>2011-03-27T08:14:29Z</time>
      </trkpt>
      <trkpt lat="43.53917" lon="5.55095">
        <ele>488.0077</ele>
        <time>2011-03-27T08:14:30Z</time>
      </trkpt>
      <trkpt lat="43.53916" lon="5.55092">
        <ele>487.0077</ele>
        <time>2011-03-27T08:14:31Z</time>
      </trkpt>
      <trkpt lat="43.53913" lon="5.55082">
        <ele>485.0076</ele>
        <time>2011-03-27T08:14:35Z</time>
      </trkpt>
      <trkpt lat="43.53912" lon="5.55079">
        <ele>484.0076</ele>
        <time>2011-03-27T08:14:36Z</time>
      </trkpt>
      <trkpt lat="43.53907" lon="5.55068">
        <ele>482.0076</ele>
        <time>2011-03-27T08:14:41Z</time>
      </trkpt>
      <trkpt lat="43.53902" lon="5.55051">
        <ele>479.0075</ele>
        <time>2011-03-27T08:14:48Z</time>
      </trkpt>
      <trkpt lat="43.53902" lon="5.55049">
        <ele>479.0075</ele>
        <time>2011-03-27T08:14:49Z</time>
      </trkpt>
      <trkpt lat="43.53901" lon="5.55046">
        <ele>479.0075</ele>
        <time>2011-03-27T08:14:50Z</time>
      </trkpt>
      <trkpt lat="43.53901" lon="5.55044">
        <ele>479.0075</ele>
        <time>2011-03-27T08:14:51Z</time>
      </trkpt>
      <trkpt lat="43.53897" lon="5.55031">
        <ele>478.0075</ele>
        <time>2011-03-27T08:14:56Z</time>
      </trkpt>
      <trkpt lat="43.53897" lon="5.55028">
        <ele>478.0075</ele>
        <time>2011-03-27T08:14:57Z</time>
      </trkpt>
      <trkpt lat="43.53896" lon="5.55026">
        <ele>477.0075</ele>
        <time>2011-03-27T08:14:58Z</time>
      </trkpt>
      <trkpt lat="43.53896" lon="5.55023">
        <ele>477.0075</ele>
        <time>2011-03-27T08:14:59Z</time>
      </trkpt>
      <trkpt lat="43.53896" lon="5.55021">
        <ele>477.0075</ele>
        <time>2011-03-27T08:15:00Z</time>
      </trkpt>
      <trkpt lat="43.53895" lon="5.55019">
        <ele>477.0074</ele>
        <time>2011-03-27T08:15:01Z</time>
      </trkpt>
      <trkpt lat="43.53895" lon="5.55016">
        <ele>476.0074</ele>
        <time>2011-03-27T08:15:02Z</time>
      </trkpt>
      <trkpt lat="43.53894" lon="5.55014">
        <ele>476.0074</ele>
        <time>2011-03-27T08:15:03Z</time>
      </trkpt>
      <trkpt lat="43.53894" lon="5.55012">
        <ele>476.0074</ele>
        <time>2011-03-27T08:15:04Z</time>
      </trkpt>
      <trkpt lat="43.53894" lon="5.55009">
        <ele>476.0074</ele>
        <time>2011-03-27T08:15:05Z</time>
      </trkpt>
      <trkpt lat="43.53893" lon="5.55007">
        <ele>476.0074</ele>
        <time>2011-03-27T08:15:06Z</time>
      </trkpt>
      <trkpt lat="43.5389" lon="5.54995">
        <ele>475.0074</ele>
        <time>2011-03-27T08:15:12Z</time>
      </trkpt>
      <trkpt lat="43.53889" lon="5.54993">
        <ele>475.0074</ele>
        <time>2011-03-27T08:15:13Z</time>
      </trkpt>
      <trkpt lat="43.53888" lon="5.54991">
        <ele>475.0074</ele>
        <time>2011-03-27T08:15:14Z</time>
      </trkpt>
      <trkpt lat="43.53888" lon="5.5499">
        <ele>475.0074</ele>
        <time>2011-03-27T08:15:15Z</time>
      </trkpt>
      <trkpt lat="43.53887" lon="5.54988">
        <ele>475.0074</ele>
        <time>2011-03-27T08:15:16Z</time>
      </trkpt>
      <trkpt lat="43.53887" lon="5.54986">
        <ele>474.0074</ele>
        <time>2011-03-27T08:15:17Z</time>
      </trkpt>
      <trkpt lat="43.53886" lon="5.54984">
        <ele>474.0074</ele>
        <time>2011-03-27T08:15:18Z</time>
      </trkpt>
      <trkpt lat="43.53886" lon="5.54982">
        <ele>474.0074</ele>
        <time>2011-03-27T08:15:19Z</time>
      </trkpt>
      <trkpt lat="43.53886" lon="5.54979">
        <ele>473.0074</ele>
        <time>2011-03-27T08:15:20Z</time>
      </trkpt>
      <trkpt lat="43.53886" lon="5.54977">
        <ele>473.0074</ele>
        <time>2011-03-27T08:15:21Z</time>
      </trkpt>
      <trkpt lat="43.53883" lon="5.54965">
        <ele>472.0073</ele>
        <time>2011-03-27T08:15:27Z</time>
      </trkpt>
      <trkpt lat="43.53881" lon="5.5496">
        <ele>472.0073</ele>
        <time>2011-03-27T08:15:30Z</time>
      </trkpt>
      <trkpt lat="43.53881" lon="5.54958">
        <ele>472.0073</ele>
        <time>2011-03-27T08:15:31Z</time>
      </trkpt>
      <trkpt lat="43.5388" lon="5.54957">
        <ele>472.0073</ele>
        <time>2011-03-27T08:15:32Z</time>
      </trkpt>
      <trkpt lat="43.5388" lon="5.54955">
        <ele>472.0073</ele>
        <time>2011-03-27T08:15:33Z</time>
      </trkpt>
      <trkpt lat="43.53879" lon="5.54952">
        <ele>470.0073</ele>
        <time>2011-03-27T08:15:39Z</time>
      </trkpt>
      <trkpt lat="43.53878" lon="5.54951">
        <ele>470.0073</ele>
        <time>2011-03-27T08:15:40Z</time>
      </trkpt>
      <trkpt lat="43.53878" lon="5.54949">
        <ele>470.0073</ele>
        <time>2011-03-27T08:15:42Z</time>
      </trkpt>
      <trkpt lat="43.53878" lon="5.54948">
        <ele>471.0073</ele>
        <time>2011-03-27T08:15:43Z</time>
      </trkpt>
      <trkpt lat="43.53877" lon="5.54947">
        <ele>471.0073</ele>
        <time>2011-03-27T08:15:44Z</time>
      </trkpt>
      <trkpt lat="43.53877" lon="5.54946">
        <ele>471.0073</ele>
        <time>2011-03-27T08:15:45Z</time>
      </trkpt>
      <trkpt lat="43.53876" lon="5.54944">
        <ele>471.0072</ele>
        <time>2011-03-27T08:15:47Z</time>
      </trkpt>
      <trkpt lat="43.53876" lon="5.54942">
        <ele>471.0073</ele>
        <time>2011-03-27T08:15:48Z</time>
      </trkpt>
      <trkpt lat="43.53875" lon="5.5494">
        <ele>471.0072</ele>
        <time>2011-03-27T08:15:50Z</time>
      </trkpt>
      <trkpt lat="43.53875" lon="5.54939">
        <ele>471.0072</ele>
        <time>2011-03-27T08:15:51Z</time>
      </trkpt>
      <trkpt lat="43.53874" lon="5.54937">
        <ele>472.0072</ele>
        <time>2011-03-27T08:15:52Z</time>
      </trkpt>
      <trkpt lat="43.53872" lon="5.54925">
        <ele>471.0072</ele>
        <time>2011-03-27T08:15:57Z</time>
      </trkpt>
      <trkpt lat="43.53871" lon="5.54923">
        <ele>471.0072</ele>
        <time>2011-03-27T08:15:58Z</time>
      </trkpt>
      <trkpt lat="43.5387" lon="5.5492">
        <ele>471.0072</ele>
        <time>2011-03-27T08:15:59Z</time>
      </trkpt>
      <trkpt lat="43.53863" lon="5.54907">
        <ele>469.0071</ele>
        <time>2011-03-27T08:16:04Z</time>
      </trkpt>
      <trkpt lat="43.53862" lon="5.54904">
        <ele>469.0071</ele>
        <time>2011-03-27T08:16:05Z</time>
      </trkpt>
      <trkpt lat="43.53857" lon="5.54895">
        <ele>468.0071</ele>
        <time>2011-03-27T08:16:08Z</time>
      </trkpt>
      <trkpt lat="43.53856" lon="5.54893">
        <ele>468.0071</ele>
        <time>2011-03-27T08:16:09Z</time>
      </trkpt>
      <trkpt lat="43.53853" lon="5.5489">
        <ele>467.0071</ele>
        <time>2011-03-27T08:16:10Z</time>
      </trkpt>
      <trkpt lat="43.53852" lon="5.54888">
        <ele>467.0071</ele>
        <time>2011-03-27T08:16:11Z</time>
      </trkpt>
      <trkpt lat="43.5385" lon="5.54886">
        <ele>466.007</ele>
        <time>2011-03-27T08:16:12Z</time>
      </trkpt>
      <trkpt lat="43.53841" lon="5.54876">
        <ele>462.007</ele>
        <time>2011-03-27T08:16:17Z</time>
      </trkpt>
      <trkpt lat="43.53838" lon="5.54875">
        <ele>462.007</ele>
        <time>2011-03-27T08:16:18Z</time>
      </trkpt>
      <trkpt lat="43.53833" lon="5.54872">
        <ele>461.007</ele>
        <time>2011-03-27T08:16:20Z</time>
      </trkpt>
      <trkpt lat="43.53831" lon="5.5487">
        <ele>460.007</ele>
        <time>2011-03-27T08:16:21Z</time>
      </trkpt>
      <trkpt lat="43.53828" lon="5.54868">
        <ele>459.007</ele>
        <time>2011-03-27T08:16:22Z</time>
      </trkpt>
      <trkpt lat="43.53825" lon="5.54867">
        <ele>459.007</ele>
        <time>2011-03-27T08:16:23Z</time>
      </trkpt>
      <trkpt lat="43.53823" lon="5.54865">
        <ele>458.007</ele>
        <time>2011-03-27T08:16:24Z</time>
      </trkpt>
      <trkpt lat="43.53811" lon="5.54854">
        <ele>453.0069</ele>
        <time>2011-03-27T08:16:31Z</time>
      </trkpt>
      <trkpt lat="43.5381" lon="5.54852">
        <ele>453.0069</ele>
        <time>2011-03-27T08:16:32Z</time>
      </trkpt>
      <trkpt lat="43.53808" lon="5.5485">
        <ele>453.0069</ele>
        <time>2011-03-27T08:16:33Z</time>
      </trkpt>
      <trkpt lat="43.53807" lon="5.54847">
        <ele>453.0069</ele>
        <time>2011-03-27T08:16:34Z</time>
      </trkpt>
      <trkpt lat="43.53807" lon="5.54845">
        <ele>452.0069</ele>
        <time>2011-03-27T08:16:35Z</time>
      </trkpt>
      <trkpt lat="43.53806" lon="5.54842">
        <ele>452.0069</ele>
        <time>2011-03-27T08:16:36Z</time>
      </trkpt>
      <trkpt lat="43.53806" lon="5.54839">
        <ele>451.0069</ele>
        <time>2011-03-27T08:16:37Z</time>
      </trkpt>
      <trkpt lat="43.53805" lon="5.54836">
        <ele>451.0068</ele>
        <time>2011-03-27T08:16:38Z</time>
      </trkpt>
      <trkpt lat="43.53803" lon="5.54827">
        <ele>449.0068</ele>
        <time>2011-03-27T08:16:41Z</time>
      </trkpt>
      <trkpt lat="43.53803" lon="5.54825">
        <ele>448.0068</ele>
        <time>2011-03-27T08:16:42Z</time>
      </trkpt>
      <trkpt lat="43.53803" lon="5.54822">
        <ele>448.0068</ele>
        <time>2011-03-27T08:16:43Z</time>
      </trkpt>
      <trkpt lat="43.53803" lon="5.5482">
        <ele>447.0068</ele>
        <time>2011-03-27T08:16:44Z</time>
      </trkpt>
      <trkpt lat="43.53802" lon="5.54811">
        <ele>445.0068</ele>
        <time>2011-03-27T08:16:48Z</time>
      </trkpt>
      <trkpt lat="43.53802" lon="5.54809">
        <ele>445.0068</ele>
        <time>2011-03-27T08:16:49Z</time>
      </trkpt>
      <trkpt lat="43.53801" lon="5.54807">
        <ele>444.0068</ele>
        <time>2011-03-27T08:16:50Z</time>
      </trkpt>
      <trkpt lat="43.53801" lon="5.54806">
        <ele>444.0068</ele>
        <time>2011-03-27T08:16:51Z</time>
      </trkpt>
      <trkpt lat="43.53801" lon="5.54804">
        <ele>444.0068</ele>
        <time>2011-03-27T08:16:52Z</time>
      </trkpt>
      <trkpt lat="43.53801" lon="5.54802">
        <ele>444.0068</ele>
        <time>2011-03-27T08:16:53Z</time>
      </trkpt>
      <trkpt lat="43.53801" lon="5.54801">
        <ele>444.0068</ele>
        <time>2011-03-27T08:16:54Z</time>
      </trkpt>
      <trkpt lat="43.53801" lon="5.548">
        <ele>444.0068</ele>
        <time>2011-03-27T08:16:55Z</time>
      </trkpt>
      <trkpt lat="43.53801" lon="5.54798">
        <ele>444.0067</ele>
        <time>2011-03-27T08:16:56Z</time>
      </trkpt>
      <trkpt lat="43.538" lon="5.54797">
        <ele>444.0067</ele>
        <time>2011-03-27T08:16:57Z</time>
      </trkpt>
      <trkpt lat="43.53801" lon="5.54797">
        <ele>443.0067</ele>
        <time>2011-03-27T08:16:58Z</time>
      </trkpt>
      <trkpt lat="43.53799" lon="5.5476">
        <ele>444.0067</ele>
        <time>2011-03-27T08:17:33Z</time>
      </trkpt>
      <trkpt lat="43.53795" lon="5.54722">
        <ele>439.0066</ele>
        <time>2011-03-27T08:18:04Z</time>
      </trkpt>
      <trkpt lat="43.53791" lon="5.54683">
        <ele>440.0065</ele>
        <time>2011-03-27T08:18:49Z</time>
      </trkpt>
      <trkpt lat="43.53773" lon="5.54634">
        <ele>435.0063</ele>
        <time>2011-03-27T08:19:24Z</time>
      </trkpt>
      <trkpt lat="43.53761" lon="5.54595">
        <ele>436.0062</ele>
        <time>2011-03-27T08:19:40Z</time>
      </trkpt>
      <trkpt lat="43.53757" lon="5.54556">
        <ele>438.0061</ele>
        <time>2011-03-27T08:19:51Z</time>
      </trkpt>
      <trkpt lat="43.53751" lon="5.54509">
        <ele>440.006</ele>
        <time>2011-03-27T08:20:20Z</time>
      </trkpt>
      <trkpt lat="43.53693" lon="5.54356">
        <ele>430.0055</ele>
        <time>2011-03-27T08:21:25Z</time>
      </trkpt>
      <trkpt lat="43.53708" lon="5.5432">
        <ele>430.0055</ele>
        <time>2011-03-27T08:21:52Z</time>
      </trkpt>
      <trkpt lat="43.53718" lon="5.54285">
        <ele>429.0054</ele>
        <time>2011-03-27T08:22:11Z</time>
      </trkpt>
      <trkpt lat="43.5372" lon="5.54258">
        <ele>428.0054</ele>
        <time>2011-03-27T08:22:23Z</time>
      </trkpt>
      <trkpt lat="43.5372" lon="5.54256">
        <ele>428.0054</ele>
        <time>2011-03-27T08:22:24Z</time>
      </trkpt>
      <trkpt lat="43.5372" lon="5.54254">
        <ele>428.0054</ele>
        <time>2011-03-27T08:22:25Z</time>
      </trkpt>
      <trkpt lat="43.53719" lon="5.54232">
        <ele>427.0053</ele>
        <time>2011-03-27T08:22:34Z</time>
      </trkpt>
      <trkpt lat="43.53719" lon="5.54227">
        <ele>427.0053</ele>
        <time>2011-03-27T08:22:35Z</time>
      </trkpt>
      <trkpt lat="43.5372" lon="5.54202">
        <ele>419.0052</ele>
        <time>2011-03-27T08:22:43Z</time>
      </trkpt>
      <trkpt lat="43.5372" lon="5.54199">
        <ele>418.0052</ele>
        <time>2011-03-27T08:22:44Z</time>
      </trkpt>
      <trkpt lat="43.5372" lon="5.54191">
        <ele>414.0052</ele>
        <time>2011-03-27T08:22:47Z</time>
      </trkpt>
      <trkpt lat="43.5372" lon="5.54188">
        <ele>413.0052</ele>
        <time>2011-03-27T08:22:48Z</time>
      </trkpt>
      <trkpt lat="43.53725" lon="5.54171">
        <ele>412.0052</ele>
        <time>2011-03-27T08:22:56Z</time>
      </trkpt>
      <trkpt lat="43.53726" lon="5.54169">
        <ele>412.0052</ele>
        <time>2011-03-27T08:22:57Z</time>
      </trkpt>
      <trkpt lat="43.53727" lon="5.54166">
        <ele>412.0052</ele>
        <time>2011-03-27T08:22:58Z</time>
      </trkpt>
      <trkpt lat="43.53728" lon="5.54164">
        <ele>413.0052</ele>
        <time>2011-03-27T08:22:59Z</time>
      </trkpt>
      <trkpt lat="43.53729" lon="5.54162">
        <ele>413.0052</ele>
        <time>2011-03-27T08:23:00Z</time>
      </trkpt>
      <trkpt lat="43.5373" lon="5.54159">
        <ele>413.0052</ele>
        <time>2011-03-27T08:23:01Z</time>
      </trkpt>
      <trkpt lat="43.53731" lon="5.54157">
        <ele>413.0052</ele>
        <time>2011-03-27T08:23:02Z</time>
      </trkpt>
      <trkpt lat="43.53732" lon="5.54154">
        <ele>413.0052</ele>
        <time>2011-03-27T08:23:03Z</time>
      </trkpt>
      <trkpt lat="43.53733" lon="5.54152">
        <ele>413.0052</ele>
        <time>2011-03-27T08:23:04Z</time>
      </trkpt>
      <trkpt lat="43.53736" lon="5.54117">
        <ele>405.0051</ele>
        <time>2011-03-27T08:23:20Z</time>
      </trkpt>
      <trkpt lat="43.53736" lon="5.54115">
        <ele>405.0051</ele>
        <time>2011-03-27T08:23:21Z</time>
      </trkpt>
      <trkpt lat="43.53736" lon="5.54113">
        <ele>405.0051</ele>
        <time>2011-03-27T08:23:22Z</time>
      </trkpt>
      <trkpt lat="43.53736" lon="5.54111">
        <ele>404.0051</ele>
        <time>2011-03-27T08:23:23Z</time>
      </trkpt>
      <trkpt lat="43.53736" lon="5.54108">
        <ele>403.0051</ele>
        <time>2011-03-27T08:23:24Z</time>
      </trkpt>
      <trkpt lat="43.53736" lon="5.54106">
        <ele>403.0051</ele>
        <time>2011-03-27T08:23:25Z</time>
      </trkpt>
      <trkpt lat="43.53736" lon="5.54104">
        <ele>402.0051</ele>
        <time>2011-03-27T08:23:26Z</time>
      </trkpt>
      <trkpt lat="43.53736" lon="5.54101">
        <ele>401.0051</ele>
        <time>2011-03-27T08:23:27Z</time>
      </trkpt>
      <trkpt lat="43.53736" lon="5.54087">
        <ele>399.005</ele>
        <time>2011-03-27T08:23:33Z</time>
      </trkpt>
      <trkpt lat="43.53735" lon="5.54075">
        <ele>400.005</ele>
        <time>2011-03-27T08:23:38Z</time>
      </trkpt>
      <trkpt lat="43.53735" lon="5.5407">
        <ele>401.005</ele>
        <time>2011-03-27T08:23:40Z</time>
      </trkpt>
      <trkpt lat="43.53735" lon="5.54067">
        <ele>402.005</ele>
        <time>2011-03-27T08:23:41Z</time>
      </trkpt>
      <trkpt lat="43.53734" lon="5.54064">
        <ele>402.005</ele>
        <time>2011-03-27T08:23:42Z</time>
      </trkpt>
      <trkpt lat="43.53734" lon="5.54061">
        <ele>403.005</ele>
        <time>2011-03-27T08:23:43Z</time>
      </trkpt>
      <trkpt lat="43.53733" lon="5.54053">
        <ele>404.0049</ele>
        <time>2011-03-27T08:23:46Z</time>
      </trkpt>
      <trkpt lat="43.53733" lon="5.5405">
        <ele>405.0049</ele>
        <time>2011-03-27T08:23:47Z</time>
      </trkpt>
      <trkpt lat="43.53732" lon="5.54047">
        <ele>405.0049</ele>
        <time>2011-03-27T08:23:48Z</time>
      </trkpt>
      <trkpt lat="43.53732" lon="5.54044">
        <ele>406.0049</ele>
        <time>2011-03-27T08:23:49Z</time>
      </trkpt>
      <trkpt lat="43.53735" lon="5.54027">
        <ele>407.0049</ele>
        <time>2011-03-27T08:23:56Z</time>
      </trkpt>
      <trkpt lat="43.53739" lon="5.54021">
        <ele>406.0049</ele>
        <time>2011-03-27T08:23:59Z</time>
      </trkpt>
      <trkpt lat="43.5374" lon="5.54019">
        <ele>406.0049</ele>
        <time>2011-03-27T08:24:00Z</time>
      </trkpt>
      <trkpt lat="43.5374" lon="5.5402">
        <ele>406.0049</ele>
        <time>2011-03-27T08:24:01Z</time>
      </trkpt>
      <trkpt lat="43.53745" lon="5.54013">
        <ele>406.0049</ele>
        <time>2011-03-27T08:24:04Z</time>
      </trkpt>
      <trkpt lat="43.53747" lon="5.5401">
        <ele>406.0049</ele>
        <time>2011-03-27T08:24:05Z</time>
      </trkpt>
      <trkpt lat="43.53749" lon="5.54007">
        <ele>406.0049</ele>
        <time>2011-03-27T08:24:06Z</time>
      </trkpt>
      <trkpt lat="43.53751" lon="5.54005">
        <ele>406.0049</ele>
        <time>2011-03-27T08:24:07Z</time>
      </trkpt>
      <trkpt lat="43.53753" lon="5.54002">
        <ele>406.0049</ele>
        <time>2011-03-27T08:24:08Z</time>
      </trkpt>
      <trkpt lat="43.53755" lon="5.53999">
        <ele>406.0049</ele>
        <time>2011-03-27T08:24:09Z</time>
      </trkpt>
      <trkpt lat="43.53757" lon="5.53997">
        <ele>406.0049</ele>
        <time>2011-03-27T08:24:10Z</time>
      </trkpt>
      <trkpt lat="43.53759" lon="5.53994">
        <ele>406.0049</ele>
        <time>2011-03-27T08:24:11Z</time>
      </trkpt>
      <trkpt lat="43.53761" lon="5.53992">
        <ele>406.0049</ele>
        <time>2011-03-27T08:24:12Z</time>
      </trkpt>
      <trkpt lat="43.53763" lon="5.53989">
        <ele>407.0049</ele>
        <time>2011-03-27T08:24:13Z</time>
      </trkpt>
      <trkpt lat="43.53765" lon="5.53987">
        <ele>407.0049</ele>
        <time>2011-03-27T08:24:14Z</time>
      </trkpt>
      <trkpt lat="43.53767" lon="5.53985">
        <ele>407.0049</ele>
        <time>2011-03-27T08:24:15Z</time>
      </trkpt>
      <trkpt lat="43.53769" lon="5.53982">
        <ele>407.0049</ele>
        <time>2011-03-27T08:24:16Z</time>
      </trkpt>
      <trkpt lat="43.5377" lon="5.5398">
        <ele>407.0049</ele>
        <time>2011-03-27T08:24:17Z</time>
      </trkpt>
      <trkpt lat="43.53772" lon="5.53978">
        <ele>407.0049</ele>
        <time>2011-03-27T08:24:18Z</time>
      </trkpt>
      <trkpt lat="43.53773" lon="5.53975">
        <ele>407.0049</ele>
        <time>2011-03-27T08:24:19Z</time>
      </trkpt>
      <trkpt lat="43.53774" lon="5.53973">
        <ele>407.0049</ele>
        <time>2011-03-27T08:24:20Z</time>
      </trkpt>
      <trkpt lat="43.53775" lon="5.53971">
        <ele>407.0049</ele>
        <time>2011-03-27T08:24:21Z</time>
      </trkpt>
      <trkpt lat="43.53774" lon="5.53972">
        <ele>407.0049</ele>
        <time>2011-03-27T08:24:22Z</time>
      </trkpt>
      <trkpt lat="43.53775" lon="5.5397">
        <ele>407.0049</ele>
        <time>2011-03-27T08:24:24Z</time>
      </trkpt>
      <trkpt lat="43.53776" lon="5.53969">
        <ele>407.0049</ele>
        <time>2011-03-27T08:24:25Z</time>
      </trkpt>
      <trkpt lat="43.53786" lon="5.53954">
        <ele>409.0048</ele>
        <time>2011-03-27T08:24:34Z</time>
      </trkpt>
      <trkpt lat="43.53787" lon="5.53953">
        <ele>409.0048</ele>
        <time>2011-03-27T08:24:35Z</time>
      </trkpt>
      <trkpt lat="43.53788" lon="5.53952">
        <ele>409.0048</ele>
        <time>2011-03-27T08:24:36Z</time>
      </trkpt>
      <trkpt lat="43.53788" lon="5.53951">
        <ele>409.0048</ele>
        <time>2011-03-27T08:24:37Z</time>
      </trkpt>
      <trkpt lat="43.53794" lon="5.53939">
        <ele>410.0048</ele>
        <time>2011-03-27T08:24:42Z</time>
      </trkpt>
      <trkpt lat="43.53795" lon="5.53935">
        <ele>410.0048</ele>
        <time>2011-03-27T08:24:43Z</time>
      </trkpt>
      <trkpt lat="43.53796" lon="5.53931">
        <ele>411.0048</ele>
        <time>2011-03-27T08:24:44Z</time>
      </trkpt>
      <trkpt lat="43.53797" lon="5.53927">
        <ele>412.0048</ele>
        <time>2011-03-27T08:24:45Z</time>
      </trkpt>
      <trkpt lat="43.53798" lon="5.53923">
        <ele>412.0048</ele>
        <time>2011-03-27T08:24:46Z</time>
      </trkpt>
      <trkpt lat="43.53799" lon="5.53919">
        <ele>413.0048</ele>
        <time>2011-03-27T08:24:47Z</time>
      </trkpt>
      <trkpt lat="43.53802" lon="5.53909">
        <ele>416.0048</ele>
        <time>2011-03-27T08:24:52Z</time>
      </trkpt>
      <trkpt lat="43.53803" lon="5.53907">
        <ele>416.0048</ele>
        <time>2011-03-27T08:24:53Z</time>
      </trkpt>
      <trkpt lat="43.53809" lon="5.53893">
        <ele>415.0048</ele>
        <time>2011-03-27T08:24:59Z</time>
      </trkpt>
      <trkpt lat="43.53811" lon="5.53891">
        <ele>415.0048</ele>
        <time>2011-03-27T08:25:00Z</time>
      </trkpt>
      <trkpt lat="43.53816" lon="5.53883">
        <ele>414.0048</ele>
        <time>2011-03-27T08:25:03Z</time>
      </trkpt>
      <trkpt lat="43.53818" lon="5.5388">
        <ele>415.0048</ele>
        <time>2011-03-27T08:25:04Z</time>
      </trkpt>
      <trkpt lat="43.5382" lon="5.53877">
        <ele>415.0048</ele>
        <time>2011-03-27T08:25:05Z</time>
      </trkpt>
      <trkpt lat="43.53823" lon="5.53873">
        <ele>416.0047</ele>
        <time>2011-03-27T08:25:06Z</time>
      </trkpt>
      <trkpt lat="43.53831" lon="5.53862">
        <ele>416.0047</ele>
        <time>2011-03-27T08:25:09Z</time>
      </trkpt>
      <trkpt lat="43.53834" lon="5.53859">
        <ele>417.0047</ele>
        <time>2011-03-27T08:25:10Z</time>
      </trkpt>
      <trkpt lat="43.53844" lon="5.53845">
        <ele>417.0047</ele>
        <time>2011-03-27T08:25:14Z</time>
      </trkpt>
      <trkpt lat="43.53849" lon="5.53839">
        <ele>417.0047</ele>
        <time>2011-03-27T08:25:16Z</time>
      </trkpt>
      <trkpt lat="43.5385" lon="5.53836">
        <ele>417.0047</ele>
        <time>2011-03-27T08:25:17Z</time>
      </trkpt>
      <trkpt lat="43.53851" lon="5.53834">
        <ele>417.0047</ele>
        <time>2011-03-27T08:25:18Z</time>
      </trkpt>
      <trkpt lat="43.53851" lon="5.53836">
        <ele>417.0047</ele>
        <time>2011-03-27T08:25:19Z</time>
      </trkpt>
      <trkpt lat="43.53861" lon="5.53819">
        <ele>418.0047</ele>
        <time>2011-03-27T08:25:25Z</time>
      </trkpt>
      <trkpt lat="43.53867" lon="5.53809">
        <ele>418.0047</ele>
        <time>2011-03-27T08:25:28Z</time>
      </trkpt>
      <trkpt lat="43.53871" lon="5.53803">
        <ele>419.0047</ele>
        <time>2011-03-27T08:25:30Z</time>
      </trkpt>
      <trkpt lat="43.53872" lon="5.538">
        <ele>419.0047</ele>
        <time>2011-03-27T08:25:31Z</time>
      </trkpt>
      <trkpt lat="43.53874" lon="5.53797">
        <ele>419.0047</ele>
        <time>2011-03-27T08:25:32Z</time>
      </trkpt>
      <trkpt lat="43.53876" lon="5.53794">
        <ele>419.0047</ele>
        <time>2011-03-27T08:25:33Z</time>
      </trkpt>
      <trkpt lat="43.53877" lon="5.53791">
        <ele>419.0047</ele>
        <time>2011-03-27T08:25:34Z</time>
      </trkpt>
      <trkpt lat="43.53878" lon="5.53788">
        <ele>419.0047</ele>
        <time>2011-03-27T08:25:35Z</time>
      </trkpt>
      <trkpt lat="43.53885" lon="5.53766">
        <ele>414.0046</ele>
        <time>2011-03-27T08:25:42Z</time>
      </trkpt>
      <trkpt lat="43.53885" lon="5.53764">
        <ele>414.0046</ele>
        <time>2011-03-27T08:25:43Z</time>
      </trkpt>
      <trkpt lat="43.53886" lon="5.5376">
        <ele>413.0046</ele>
        <time>2011-03-27T08:25:44Z</time>
      </trkpt>
      <trkpt lat="43.53887" lon="5.53758">
        <ele>412.0046</ele>
        <time>2011-03-27T08:25:45Z</time>
      </trkpt>
      <trkpt lat="43.53888" lon="5.53755">
        <ele>411.0046</ele>
        <time>2011-03-27T08:25:46Z</time>
      </trkpt>
      <trkpt lat="43.53889" lon="5.53752">
        <ele>411.0046</ele>
        <time>2011-03-27T08:25:47Z</time>
      </trkpt>
      <trkpt lat="43.5389" lon="5.53747">
        <ele>410.0046</ele>
        <time>2011-03-27T08:25:48Z</time>
      </trkpt>
      <trkpt lat="43.53895" lon="5.53731">
        <ele>407.0046</ele>
        <time>2011-03-27T08:25:52Z</time>
      </trkpt>
      <trkpt lat="43.53895" lon="5.53727">
        <ele>406.0046</ele>
        <time>2011-03-27T08:25:53Z</time>
      </trkpt>
      <trkpt lat="43.539" lon="5.53707">
        <ele>405.0045</ele>
        <time>2011-03-27T08:25:59Z</time>
      </trkpt>
      <trkpt lat="43.53901" lon="5.53704">
        <ele>405.0045</ele>
        <time>2011-03-27T08:26:00Z</time>
      </trkpt>
      <trkpt lat="43.5391" lon="5.53673">
        <ele>401.0045</ele>
        <time>2011-03-27T08:26:10Z</time>
      </trkpt>
      <trkpt lat="43.53911" lon="5.53669">
        <ele>400.0045</ele>
        <time>2011-03-27T08:26:11Z</time>
      </trkpt>
      <trkpt lat="43.53911" lon="5.53665">
        <ele>399.0045</ele>
        <time>2011-03-27T08:26:12Z</time>
      </trkpt>
      <trkpt lat="43.53912" lon="5.53661">
        <ele>399.0045</ele>
        <time>2011-03-27T08:26:13Z</time>
      </trkpt>
      <trkpt lat="43.53913" lon="5.53657">
        <ele>398.0045</ele>
        <time>2011-03-27T08:26:14Z</time>
      </trkpt>
      <trkpt lat="43.53914" lon="5.53653">
        <ele>398.0045</ele>
        <time>2011-03-27T08:26:15Z</time>
      </trkpt>
      <trkpt lat="43.53914" lon="5.53649">
        <ele>397.0045</ele>
        <time>2011-03-27T08:26:16Z</time>
      </trkpt>
      <trkpt lat="43.53915" lon="5.53645">
        <ele>397.0045</ele>
        <time>2011-03-27T08:26:17Z</time>
      </trkpt>
      <trkpt lat="43.53916" lon="5.53642">
        <ele>396.0044</ele>
        <time>2011-03-27T08:26:18Z</time>
      </trkpt>
      <trkpt lat="43.53917" lon="5.53638">
        <ele>396.0044</ele>
        <time>2011-03-27T08:26:19Z</time>
      </trkpt>
      <trkpt lat="43.53917" lon="5.53635">
        <ele>396.0044</ele>
        <time>2011-03-27T08:26:20Z</time>
      </trkpt>
      <trkpt lat="43.53918" lon="5.53631">
        <ele>396.0044</ele>
        <time>2011-03-27T08:26:21Z</time>
      </trkpt>
      <trkpt lat="43.53918" lon="5.53627">
        <ele>396.0044</ele>
        <time>2011-03-27T08:26:22Z</time>
      </trkpt>
      <trkpt lat="43.53919" lon="5.53624">
        <ele>396.0044</ele>
        <time>2011-03-27T08:26:23Z</time>
      </trkpt>
      <trkpt lat="43.53919" lon="5.53621">
        <ele>396.0044</ele>
        <time>2011-03-27T08:26:24Z</time>
      </trkpt>
      <trkpt lat="43.53919" lon="5.53618">
        <ele>396.0044</ele>
        <time>2011-03-27T08:26:25Z</time>
      </trkpt>
      <trkpt lat="43.5392" lon="5.53615">
        <ele>396.0044</ele>
        <time>2011-03-27T08:26:26Z</time>
      </trkpt>
      <trkpt lat="43.5392" lon="5.53612">
        <ele>396.0044</ele>
        <time>2011-03-27T08:26:27Z</time>
      </trkpt>
      <trkpt lat="43.5392" lon="5.53608">
        <ele>396.0044</ele>
        <time>2011-03-27T08:26:28Z</time>
      </trkpt>
      <trkpt lat="43.5392" lon="5.53605">
        <ele>396.0044</ele>
        <time>2011-03-27T08:26:29Z</time>
      </trkpt>
      <trkpt lat="43.53921" lon="5.53602">
        <ele>396.0044</ele>
        <time>2011-03-27T08:26:30Z</time>
      </trkpt>
      <trkpt lat="43.53922" lon="5.53598">
        <ele>396.0043</ele>
        <time>2011-03-27T08:26:31Z</time>
      </trkpt>
      <trkpt lat="43.53923" lon="5.53595">
        <ele>396.0043</ele>
        <time>2011-03-27T08:26:32Z</time>
      </trkpt>
      <trkpt lat="43.53925" lon="5.5359">
        <ele>397.0043</ele>
        <time>2011-03-27T08:26:34Z</time>
      </trkpt>
      <trkpt lat="43.53926" lon="5.53588">
        <ele>397.0043</ele>
        <time>2011-03-27T08:26:35Z</time>
      </trkpt>
      <trkpt lat="43.53933" lon="5.53588">
        <ele>396.0044</ele>
        <time>2011-03-27T08:26:41Z</time>
      </trkpt>
      <trkpt lat="43.53935" lon="5.53591">
        <ele>394.0044</ele>
        <time>2011-03-27T08:26:44Z</time>
      </trkpt>
      <trkpt lat="43.53936" lon="5.53593">
        <ele>394.0044</ele>
        <time>2011-03-27T08:26:45Z</time>
      </trkpt>
      <trkpt lat="43.53938" lon="5.53594">
        <ele>393.0044</ele>
        <time>2011-03-27T08:26:46Z</time>
      </trkpt>
      <trkpt lat="43.53939" lon="5.53597">
        <ele>392.0044</ele>
        <time>2011-03-27T08:26:47Z</time>
      </trkpt>
      <trkpt lat="43.53941" lon="5.53599">
        <ele>391.0044</ele>
        <time>2011-03-27T08:26:48Z</time>
      </trkpt>
      <trkpt lat="43.53946" lon="5.53608">
        <ele>389.0044</ele>
        <time>2011-03-27T08:26:53Z</time>
      </trkpt>
      <trkpt lat="43.53947" lon="5.53609">
        <ele>389.0044</ele>
        <time>2011-03-27T08:26:54Z</time>
      </trkpt>
      <trkpt lat="43.53948" lon="5.53611">
        <ele>389.0045</ele>
        <time>2011-03-27T08:26:55Z</time>
      </trkpt>
      <trkpt lat="43.53949" lon="5.53613">
        <ele>389.0045</ele>
        <time>2011-03-27T08:26:56Z</time>
      </trkpt>
      <trkpt lat="43.53951" lon="5.53616">
        <ele>388.0045</ele>
        <time>2011-03-27T08:26:57Z</time>
      </trkpt>
      <trkpt lat="43.53968" lon="5.53633">
        <ele>385.0045</ele>
        <time>2011-03-27T08:27:06Z</time>
      </trkpt>
      <trkpt lat="43.53969" lon="5.53634">
        <ele>385.0045</ele>
        <time>2011-03-27T08:27:07Z</time>
      </trkpt>
      <trkpt lat="43.53971" lon="5.53636">
        <ele>385.0045</ele>
        <time>2011-03-27T08:27:08Z</time>
      </trkpt>
      <trkpt lat="43.53973" lon="5.53638">
        <ele>384.0045</ele>
        <time>2011-03-27T08:27:09Z</time>
      </trkpt>
      <trkpt lat="43.53977" lon="5.53642">
        <ele>384.0046</ele>
        <time>2011-03-27T08:27:13Z</time>
      </trkpt>
      <trkpt lat="43.53978" lon="5.53643">
        <ele>384.0046</ele>
        <time>2011-03-27T08:27:14Z</time>
      </trkpt>
      <trkpt lat="43.5398" lon="5.53644">
        <ele>384.0046</ele>
        <time>2011-03-27T08:27:15Z</time>
      </trkpt>
      <trkpt lat="43.53981" lon="5.53645">
        <ele>384.0046</ele>
        <time>2011-03-27T08:27:16Z</time>
      </trkpt>
      <trkpt lat="43.53983" lon="5.53646">
        <ele>385.0046</ele>
        <time>2011-03-27T08:27:17Z</time>
      </trkpt>
      <trkpt lat="43.53984" lon="5.53648">
        <ele>385.0046</ele>
        <time>2011-03-27T08:27:18Z</time>
      </trkpt>
      <trkpt lat="43.53986" lon="5.53649">
        <ele>386.0046</ele>
        <time>2011-03-27T08:27:19Z</time>
      </trkpt>
      <trkpt lat="43.53988" lon="5.53651">
        <ele>386.0046</ele>
        <time>2011-03-27T08:27:20Z</time>
      </trkpt>
      <trkpt lat="43.53989" lon="5.53652">
        <ele>386.0046</ele>
        <time>2011-03-27T08:27:21Z</time>
      </trkpt>
      <trkpt lat="43.53992" lon="5.53654">
        <ele>386.0046</ele>
        <time>2011-03-27T08:27:22Z</time>
      </trkpt>
      <trkpt lat="43.54" lon="5.53659">
        <ele>385.0047</ele>
        <time>2011-03-27T08:27:26Z</time>
      </trkpt>
      <trkpt lat="43.54009" lon="5.53664">
        <ele>385.0047</ele>
        <time>2011-03-27T08:27:30Z</time>
      </trkpt>
      <trkpt lat="43.54012" lon="5.53665">
        <ele>384.0047</ele>
        <time>2011-03-27T08:27:31Z</time>
      </trkpt>
      <trkpt lat="43.54015" lon="5.53666">
        <ele>384.0047</ele>
        <time>2011-03-27T08:27:32Z</time>
      </trkpt>
      <trkpt lat="43.54017" lon="5.53667">
        <ele>385.0047</ele>
        <time>2011-03-27T08:27:33Z</time>
      </trkpt>
      <trkpt lat="43.5402" lon="5.53668">
        <ele>385.0047</ele>
        <time>2011-03-27T08:27:34Z</time>
      </trkpt>
      <trkpt lat="43.54023" lon="5.53668">
        <ele>385.0047</ele>
        <time>2011-03-27T08:27:35Z</time>
      </trkpt>
      <trkpt lat="43.54025" lon="5.53669">
        <ele>385.0047</ele>
        <time>2011-03-27T08:27:36Z</time>
      </trkpt>
      <trkpt lat="43.54028" lon="5.53669">
        <ele>386.0048</ele>
        <time>2011-03-27T08:27:37Z</time>
      </trkpt>
      <trkpt lat="43.54031" lon="5.5367">
        <ele>386.0048</ele>
        <time>2011-03-27T08:27:38Z</time>
      </trkpt>
      <trkpt lat="43.54033" lon="5.5367">
        <ele>387.0048</ele>
        <time>2011-03-27T08:27:39Z</time>
      </trkpt>
      <trkpt lat="43.54036" lon="5.5367">
        <ele>387.0048</ele>
        <time>2011-03-27T08:27:40Z</time>
      </trkpt>
      <trkpt lat="43.54039" lon="5.5367">
        <ele>387.0048</ele>
        <time>2011-03-27T08:27:41Z</time>
      </trkpt>
      <trkpt lat="43.54042" lon="5.5367">
        <ele>388.0048</ele>
        <time>2011-03-27T08:27:42Z</time>
      </trkpt>
      <trkpt lat="43.54044" lon="5.53669">
        <ele>388.0048</ele>
        <time>2011-03-27T08:27:43Z</time>
      </trkpt>
      <trkpt lat="43.54047" lon="5.53669">
        <ele>388.0048</ele>
        <time>2011-03-27T08:27:44Z</time>
      </trkpt>
      <trkpt lat="43.5405" lon="5.53668">
        <ele>388.0048</ele>
        <time>2011-03-27T08:27:45Z</time>
      </trkpt>
      <trkpt lat="43.54054" lon="5.53668">
        <ele>388.0048</ele>
        <time>2011-03-27T08:27:46Z</time>
      </trkpt>
      <trkpt lat="43.54056" lon="5.53667">
        <ele>388.0048</ele>
        <time>2011-03-27T08:27:47Z</time>
      </trkpt>
      <trkpt lat="43.54059" lon="5.53667">
        <ele>387.0048</ele>
        <time>2011-03-27T08:27:48Z</time>
      </trkpt>
      <trkpt lat="43.54062" lon="5.53666">
        <ele>387.0048</ele>
        <time>2011-03-27T08:27:49Z</time>
      </trkpt>
      <trkpt lat="43.54064" lon="5.53665">
        <ele>387.0048</ele>
        <time>2011-03-27T08:27:50Z</time>
      </trkpt>
      <trkpt lat="43.54067" lon="5.53664">
        <ele>387.0048</ele>
        <time>2011-03-27T08:27:51Z</time>
      </trkpt>
      <trkpt lat="43.5407" lon="5.53663">
        <ele>387.0048</ele>
        <time>2011-03-27T08:27:52Z</time>
      </trkpt>
      <trkpt lat="43.54072" lon="5.53662">
        <ele>387.0048</ele>
        <time>2011-03-27T08:27:53Z</time>
      </trkpt>
      <trkpt lat="43.54075" lon="5.53661">
        <ele>387.0048</ele>
        <time>2011-03-27T08:27:54Z</time>
      </trkpt>
      <trkpt lat="43.54077" lon="5.5366">
        <ele>387.0048</ele>
        <time>2011-03-27T08:27:55Z</time>
      </trkpt>
      <trkpt lat="43.5408" lon="5.53658">
        <ele>387.0048</ele>
        <time>2011-03-27T08:27:56Z</time>
      </trkpt>
      <trkpt lat="43.54083" lon="5.53657">
        <ele>386.0049</ele>
        <time>2011-03-27T08:27:57Z</time>
      </trkpt>
      <trkpt lat="43.54085" lon="5.53655">
        <ele>386.0049</ele>
        <time>2011-03-27T08:27:58Z</time>
      </trkpt>
      <trkpt lat="43.54088" lon="5.53654">
        <ele>386.0049</ele>
        <time>2011-03-27T08:27:59Z</time>
      </trkpt>
      <trkpt lat="43.54091" lon="5.53652">
        <ele>386.0049</ele>
        <time>2011-03-27T08:28:00Z</time>
      </trkpt>
      <trkpt lat="43.54093" lon="5.5365">
        <ele>386.0049</ele>
        <time>2011-03-27T08:28:01Z</time>
      </trkpt>
      <trkpt lat="43.54096" lon="5.53648">
        <ele>386.0049</ele>
        <time>2011-03-27T08:28:02Z</time>
      </trkpt>
      <trkpt lat="43.54098" lon="5.53646">
        <ele>386.0049</ele>
        <time>2011-03-27T08:28:03Z</time>
      </trkpt>
      <trkpt lat="43.541" lon="5.53644">
        <ele>385.0049</ele>
        <time>2011-03-27T08:28:04Z</time>
      </trkpt>
      <trkpt lat="43.54103" lon="5.53642">
        <ele>385.0049</ele>
        <time>2011-03-27T08:28:05Z</time>
      </trkpt>
      <trkpt lat="43.54105" lon="5.5364">
        <ele>385.0049</ele>
        <time>2011-03-27T08:28:06Z</time>
      </trkpt>
      <trkpt lat="43.54107" lon="5.53638">
        <ele>384.0049</ele>
        <time>2011-03-27T08:28:07Z</time>
      </trkpt>
      <trkpt lat="43.5411" lon="5.53636">
        <ele>384.0049</ele>
        <time>2011-03-27T08:28:08Z</time>
      </trkpt>
      <trkpt lat="43.54112" lon="5.53634">
        <ele>383.0049</ele>
        <time>2011-03-27T08:28:09Z</time>
      </trkpt>
      <trkpt lat="43.54114" lon="5.53631">
        <ele>383.0049</ele>
        <time>2011-03-27T08:28:10Z</time>
      </trkpt>
      <trkpt lat="43.54116" lon="5.53629">
        <ele>382.0049</ele>
        <time>2011-03-27T08:28:11Z</time>
      </trkpt>
      <trkpt lat="43.54118" lon="5.53627">
        <ele>382.0049</ele>
        <time>2011-03-27T08:28:12Z</time>
      </trkpt>
      <trkpt lat="43.5412" lon="5.53625">
        <ele>381.0049</ele>
        <time>2011-03-27T08:28:13Z</time>
      </trkpt>
      <trkpt lat="43.54122" lon="5.53622">
        <ele>380.0049</ele>
        <time>2011-03-27T08:28:14Z</time>
      </trkpt>
      <trkpt lat="43.54124" lon="5.5362">
        <ele>380.0049</ele>
        <time>2011-03-27T08:28:15Z</time>
      </trkpt>
      <trkpt lat="43.54126" lon="5.53617">
        <ele>379.0049</ele>
        <time>2011-03-27T08:28:16Z</time>
      </trkpt>
      <trkpt lat="43.54128" lon="5.53614">
        <ele>378.0049</ele>
        <time>2011-03-27T08:28:17Z</time>
      </trkpt>
      <trkpt lat="43.5413" lon="5.53612">
        <ele>378.0049</ele>
        <time>2011-03-27T08:28:18Z</time>
      </trkpt>
      <trkpt lat="43.54132" lon="5.53609">
        <ele>377.0049</ele>
        <time>2011-03-27T08:28:19Z</time>
      </trkpt>
      <trkpt lat="43.54134" lon="5.53606">
        <ele>377.0048</ele>
        <time>2011-03-27T08:28:20Z</time>
      </trkpt>
      <trkpt lat="43.54136" lon="5.53603">
        <ele>377.0049</ele>
        <time>2011-03-27T08:28:21Z</time>
      </trkpt>
      <trkpt lat="43.54137" lon="5.53601">
        <ele>377.0048</ele>
        <time>2011-03-27T08:28:22Z</time>
      </trkpt>
      <trkpt lat="43.54139" lon="5.53598">
        <ele>377.0048</ele>
        <time>2011-03-27T08:28:23Z</time>
      </trkpt>
      <trkpt lat="43.54141" lon="5.53595">
        <ele>377.0048</ele>
        <time>2011-03-27T08:28:24Z</time>
      </trkpt>
      <trkpt lat="43.54143" lon="5.53592">
        <ele>377.0048</ele>
        <time>2011-03-27T08:28:25Z</time>
      </trkpt>
      <trkpt lat="43.54145" lon="5.5359">
        <ele>377.0048</ele>
        <time>2011-03-27T08:28:26Z</time>
      </trkpt>
      <trkpt lat="43.54147" lon="5.53587">
        <ele>377.0048</ele>
        <time>2011-03-27T08:28:27Z</time>
      </trkpt>
      <trkpt lat="43.54149" lon="5.53585">
        <ele>377.0048</ele>
        <time>2011-03-27T08:28:28Z</time>
      </trkpt>
      <trkpt lat="43.5415" lon="5.53582">
        <ele>377.0048</ele>
        <time>2011-03-27T08:28:29Z</time>
      </trkpt>
      <trkpt lat="43.54152" lon="5.53579">
        <ele>376.0048</ele>
        <time>2011-03-27T08:28:30Z</time>
      </trkpt>
      <trkpt lat="43.54153" lon="5.53576">
        <ele>376.0048</ele>
        <time>2011-03-27T08:28:31Z</time>
      </trkpt>
      <trkpt lat="43.54155" lon="5.53574">
        <ele>376.0048</ele>
        <time>2011-03-27T08:28:32Z</time>
      </trkpt>
      <trkpt lat="43.54156" lon="5.53571">
        <ele>376.0048</ele>
        <time>2011-03-27T08:28:33Z</time>
      </trkpt>
      <trkpt lat="43.54157" lon="5.53568">
        <ele>376.0048</ele>
        <time>2011-03-27T08:28:34Z</time>
      </trkpt>
      <trkpt lat="43.54158" lon="5.53565">
        <ele>375.0048</ele>
        <time>2011-03-27T08:28:35Z</time>
      </trkpt>
      <trkpt lat="43.54159" lon="5.53563">
        <ele>375.0048</ele>
        <time>2011-03-27T08:28:36Z</time>
      </trkpt>
      <trkpt lat="43.5416" lon="5.5356">
        <ele>376.0048</ele>
        <time>2011-03-27T08:28:37Z</time>
      </trkpt>
      <trkpt lat="43.5416" lon="5.53557">
        <ele>376.0048</ele>
        <time>2011-03-27T08:28:38Z</time>
      </trkpt>
      <trkpt lat="43.54161" lon="5.53555">
        <ele>376.0048</ele>
        <time>2011-03-27T08:28:39Z</time>
      </trkpt>
      <trkpt lat="43.54162" lon="5.53552">
        <ele>376.0048</ele>
        <time>2011-03-27T08:28:40Z</time>
      </trkpt>
      <trkpt lat="43.54162" lon="5.5355">
        <ele>376.0048</ele>
        <time>2011-03-27T08:28:41Z</time>
      </trkpt>
      <trkpt lat="43.54163" lon="5.53547">
        <ele>376.0048</ele>
        <time>2011-03-27T08:28:42Z</time>
      </trkpt>
      <trkpt lat="43.54162" lon="5.53547">
        <ele>376.0048</ele>
        <time>2011-03-27T08:28:43Z</time>
      </trkpt>
      <trkpt lat="43.54163" lon="5.53545">
        <ele>376.0048</ele>
        <time>2011-03-27T08:28:44Z</time>
      </trkpt>
      <trkpt lat="43.54162" lon="5.53544">
        <ele>376.0048</ele>
        <time>2011-03-27T08:28:45Z</time>
      </trkpt>
      <trkpt lat="43.54161" lon="5.53537">
        <ele>376.0048</ele>
        <time>2011-03-27T08:28:50Z</time>
      </trkpt>
      <trkpt lat="43.5416" lon="5.53536">
        <ele>376.0047</ele>
        <time>2011-03-27T08:28:51Z</time>
      </trkpt>
      <trkpt lat="43.5416" lon="5.53534">
        <ele>377.0047</ele>
        <time>2011-03-27T08:28:52Z</time>
      </trkpt>
      <trkpt lat="43.5416" lon="5.53533">
        <ele>377.0047</ele>
        <time>2011-03-27T08:28:53Z</time>
      </trkpt>
      <trkpt lat="43.5416" lon="5.53531">
        <ele>377.0047</ele>
        <time>2011-03-27T08:28:54Z</time>
      </trkpt>
      <trkpt lat="43.5416" lon="5.5353">
        <ele>377.0047</ele>
        <time>2011-03-27T08:28:55Z</time>
      </trkpt>
      <trkpt lat="43.54159" lon="5.53525">
        <ele>377.0047</ele>
        <time>2011-03-27T08:28:58Z</time>
      </trkpt>
      <trkpt lat="43.54159" lon="5.53524">
        <ele>376.0047</ele>
        <time>2011-03-27T08:28:59Z</time>
      </trkpt>
      <trkpt lat="43.54155" lon="5.53511">
        <ele>374.0047</ele>
        <time>2011-03-27T08:29:08Z</time>
      </trkpt>
      <trkpt lat="43.54155" lon="5.5351">
        <ele>373.0047</ele>
        <time>2011-03-27T08:29:09Z</time>
      </trkpt>
      <trkpt lat="43.54151" lon="5.535">
        <ele>372.0046</ele>
        <time>2011-03-27T08:29:17Z</time>
      </trkpt>
      <trkpt lat="43.5415" lon="5.53499">
        <ele>371.0046</ele>
        <time>2011-03-27T08:29:18Z</time>
      </trkpt>
      <trkpt lat="43.5415" lon="5.53498">
        <ele>371.0046</ele>
        <time>2011-03-27T08:29:19Z</time>
      </trkpt>
      <trkpt lat="43.5415" lon="5.53496">
        <ele>371.0046</ele>
        <time>2011-03-27T08:29:20Z</time>
      </trkpt>
      <trkpt lat="43.54149" lon="5.53494">
        <ele>371.0046</ele>
        <time>2011-03-27T08:29:22Z</time>
      </trkpt>
      <trkpt lat="43.54149" lon="5.53493">
        <ele>371.0046</ele>
        <time>2011-03-27T08:29:23Z</time>
      </trkpt>
      <trkpt lat="43.54146" lon="5.53481">
        <ele>371.0046</ele>
        <time>2011-03-27T08:29:35Z</time>
      </trkpt>
      <trkpt lat="43.54146" lon="5.5348">
        <ele>370.0046</ele>
        <time>2011-03-27T08:29:36Z</time>
      </trkpt>
      <trkpt lat="43.54146" lon="5.53479">
        <ele>371.0046</ele>
        <time>2011-03-27T08:29:37Z</time>
      </trkpt>
      <trkpt lat="43.54146" lon="5.53478">
        <ele>371.0046</ele>
        <time>2011-03-27T08:29:38Z</time>
      </trkpt>
      <trkpt lat="43.54146" lon="5.53477">
        <ele>371.0046</ele>
        <time>2011-03-27T08:29:39Z</time>
      </trkpt>
      <trkpt lat="43.54146" lon="5.53475">
        <ele>371.0046</ele>
        <time>2011-03-27T08:29:40Z</time>
      </trkpt>
      <trkpt lat="43.54146" lon="5.53474">
        <ele>372.0046</ele>
        <time>2011-03-27T08:29:41Z</time>
      </trkpt>
      <trkpt lat="43.54146" lon="5.53473">
        <ele>372.0046</ele>
        <time>2011-03-27T08:29:42Z</time>
      </trkpt>
      <trkpt lat="43.54146" lon="5.53468">
        <ele>372.0046</ele>
        <time>2011-03-27T08:29:46Z</time>
      </trkpt>
      <trkpt lat="43.54146" lon="5.53467">
        <ele>372.0045</ele>
        <time>2011-03-27T08:29:47Z</time>
      </trkpt>
      <trkpt lat="43.54145" lon="5.53462">
        <ele>373.0045</ele>
        <time>2011-03-27T08:29:51Z</time>
      </trkpt>
      <trkpt lat="43.54145" lon="5.53462">
        <ele>373.0045</ele>
        <time>2011-03-27T08:29:52Z</time>
      </trkpt>
      <trkpt lat="43.54144" lon="5.53459">
        <ele>373.0045</ele>
        <time>2011-03-27T08:29:55Z</time>
      </trkpt>
      <trkpt lat="43.54142" lon="5.53458">
        <ele>374.0045</ele>
        <time>2011-03-27T08:29:56Z</time>
      </trkpt>
      <trkpt lat="43.5414" lon="5.53457">
        <ele>375.0045</ele>
        <time>2011-03-27T08:29:58Z</time>
      </trkpt>
      <trkpt lat="43.54139" lon="5.53456">
        <ele>375.0045</ele>
        <time>2011-03-27T08:29:59Z</time>
      </trkpt>
      <trkpt lat="43.54137" lon="5.53456">
        <ele>375.0045</ele>
        <time>2011-03-27T08:30:00Z</time>
      </trkpt>
      <trkpt lat="43.54136" lon="5.53455">
        <ele>375.0045</ele>
        <time>2011-03-27T08:30:01Z</time>
      </trkpt>
      <trkpt lat="43.54131" lon="5.53454">
        <ele>374.0045</ele>
        <time>2011-03-27T08:30:04Z</time>
      </trkpt>
      <trkpt lat="43.54129" lon="5.53454">
        <ele>374.0045</ele>
        <time>2011-03-27T08:30:05Z</time>
      </trkpt>
      <trkpt lat="43.54127" lon="5.53454">
        <ele>374.0045</ele>
        <time>2011-03-27T08:30:06Z</time>
      </trkpt>
      <trkpt lat="43.54125" lon="5.53454">
        <ele>373.0045</ele>
        <time>2011-03-27T08:30:07Z</time>
      </trkpt>
      <trkpt lat="43.5412" lon="5.53454">
        <ele>372.0045</ele>
        <time>2011-03-27T08:30:11Z</time>
      </trkpt>
      <trkpt lat="43.5412" lon="5.53454">
        <ele>372.0045</ele>
        <time>2011-03-27T08:30:12Z</time>
      </trkpt>
      <trkpt lat="43.54119" lon="5.53454">
        <ele>371.0045</ele>
        <time>2011-03-27T08:30:13Z</time>
      </trkpt>
      <trkpt lat="43.54118" lon="5.53454">
        <ele>370.0045</ele>
        <time>2011-03-27T08:30:14Z</time>
      </trkpt>
      <trkpt lat="43.54117" lon="5.53454">
        <ele>369.0045</ele>
        <time>2011-03-27T08:30:15Z</time>
      </trkpt>
      <trkpt lat="43.54116" lon="5.53454">
        <ele>368.0045</ele>
        <time>2011-03-27T08:30:16Z</time>
      </trkpt>
      <trkpt lat="43.54115" lon="5.53455">
        <ele>365.0045</ele>
        <time>2011-03-27T08:30:19Z</time>
      </trkpt>
      <trkpt lat="43.54115" lon="5.53455">
        <ele>364.0045</ele>
        <time>2011-03-27T08:30:20Z</time>
      </trkpt>
      <trkpt lat="43.54115" lon="5.53455">
        <ele>363.0045</ele>
        <time>2011-03-27T08:30:21Z</time>
      </trkpt>
      <trkpt lat="43.54114" lon="5.53455">
        <ele>363.0045</ele>
        <time>2011-03-27T08:30:22Z</time>
      </trkpt>
      <trkpt lat="43.54115" lon="5.53456">
        <ele>362.0045</ele>
        <time>2011-03-27T08:30:24Z</time>
      </trkpt>
      <trkpt lat="43.54114" lon="5.53456">
        <ele>361.0045</ele>
        <time>2011-03-27T08:30:25Z</time>
      </trkpt>
      <trkpt lat="43.54113" lon="5.53457">
        <ele>361.0045</ele>
        <time>2011-03-27T08:30:33Z</time>
      </trkpt>
      <trkpt lat="43.54113" lon="5.53457">
        <ele>361.0045</ele>
        <time>2011-03-27T08:30:34Z</time>
      </trkpt>
      <trkpt lat="43.54114" lon="5.53457">
        <ele>361.0045</ele>
        <time>2011-03-27T08:30:35Z</time>
      </trkpt>
      <trkpt lat="43.54114" lon="5.53457">
        <ele>361.0045</ele>
        <time>2011-03-27T08:30:36Z</time>
      </trkpt>
      <trkpt lat="43.54115" lon="5.53456">
        <ele>362.0045</ele>
        <time>2011-03-27T08:30:37Z</time>
      </trkpt>
      <trkpt lat="43.54116" lon="5.53456">
        <ele>362.0045</ele>
        <time>2011-03-27T08:30:38Z</time>
      </trkpt>
      <trkpt lat="43.54123" lon="5.53454">
        <ele>363.0045</ele>
        <time>2011-03-27T08:30:44Z</time>
      </trkpt>
      <trkpt lat="43.54125" lon="5.53453">
        <ele>363.0045</ele>
        <time>2011-03-27T08:30:45Z</time>
      </trkpt>
      <trkpt lat="43.54127" lon="5.53451">
        <ele>363.0045</ele>
        <time>2011-03-27T08:30:46Z</time>
      </trkpt>
      <trkpt lat="43.54129" lon="5.53449">
        <ele>363.0045</ele>
        <time>2011-03-27T08:30:47Z</time>
      </trkpt>
      <trkpt lat="43.54132" lon="5.53447">
        <ele>363.0045</ele>
        <time>2011-03-27T08:30:48Z</time>
      </trkpt>
      <trkpt lat="43.54134" lon="5.53445">
        <ele>363.0045</ele>
        <time>2011-03-27T08:30:49Z</time>
      </trkpt>
      <trkpt lat="43.54136" lon="5.53443">
        <ele>364.0045</ele>
        <time>2011-03-27T08:30:50Z</time>
      </trkpt>
      <trkpt lat="43.54139" lon="5.5344">
        <ele>364.0045</ele>
        <time>2011-03-27T08:30:51Z</time>
      </trkpt>
      <trkpt lat="43.54141" lon="5.53438">
        <ele>364.0045</ele>
        <time>2011-03-27T08:30:52Z</time>
      </trkpt>
      <trkpt lat="43.54142" lon="5.53435">
        <ele>364.0045</ele>
        <time>2011-03-27T08:30:53Z</time>
      </trkpt>
      <trkpt lat="43.54145" lon="5.53433">
        <ele>364.0045</ele>
        <time>2011-03-27T08:30:54Z</time>
      </trkpt>
      <trkpt lat="43.54147" lon="5.53429">
        <ele>364.0045</ele>
        <time>2011-03-27T08:30:55Z</time>
      </trkpt>
      <trkpt lat="43.54149" lon="5.53426">
        <ele>364.0045</ele>
        <time>2011-03-27T08:30:56Z</time>
      </trkpt>
      <trkpt lat="43.5415" lon="5.53422">
        <ele>364.0045</ele>
        <time>2011-03-27T08:30:57Z</time>
      </trkpt>
      <trkpt lat="43.54152" lon="5.53418">
        <ele>365.0045</ele>
        <time>2011-03-27T08:30:58Z</time>
      </trkpt>
      <trkpt lat="43.54153" lon="5.53414">
        <ele>365.0045</ele>
        <time>2011-03-27T08:30:59Z</time>
      </trkpt>
      <trkpt lat="43.54155" lon="5.5341">
        <ele>365.0045</ele>
        <time>2011-03-27T08:31:00Z</time>
      </trkpt>
      <trkpt lat="43.54157" lon="5.53406">
        <ele>365.0045</ele>
        <time>2011-03-27T08:31:01Z</time>
      </trkpt>
      <trkpt lat="43.54158" lon="5.53402">
        <ele>365.0045</ele>
        <time>2011-03-27T08:31:02Z</time>
      </trkpt>
      <trkpt lat="43.5416" lon="5.53398">
        <ele>365.0044</ele>
        <time>2011-03-27T08:31:03Z</time>
      </trkpt>
      <trkpt lat="43.54162" lon="5.53394">
        <ele>365.0044</ele>
        <time>2011-03-27T08:31:04Z</time>
      </trkpt>
      <trkpt lat="43.54163" lon="5.5339">
        <ele>364.0044</ele>
        <time>2011-03-27T08:31:05Z</time>
      </trkpt>
      <trkpt lat="43.54164" lon="5.53387">
        <ele>364.0044</ele>
        <time>2011-03-27T08:31:06Z</time>
      </trkpt>
      <trkpt lat="43.54165" lon="5.53383">
        <ele>364.0044</ele>
        <time>2011-03-27T08:31:07Z</time>
      </trkpt>
      <trkpt lat="43.54167" lon="5.5338">
        <ele>363.0044</ele>
        <time>2011-03-27T08:31:08Z</time>
      </trkpt>
      <trkpt lat="43.54168" lon="5.53377">
        <ele>363.0044</ele>
        <time>2011-03-27T08:31:09Z</time>
      </trkpt>
      <trkpt lat="43.5417" lon="5.53373">
        <ele>363.0044</ele>
        <time>2011-03-27T08:31:10Z</time>
      </trkpt>
      <trkpt lat="43.54172" lon="5.5337">
        <ele>363.0044</ele>
        <time>2011-03-27T08:31:11Z</time>
      </trkpt>
      <trkpt lat="43.54173" lon="5.53367">
        <ele>363.0044</ele>
        <time>2011-03-27T08:31:12Z</time>
      </trkpt>
      <trkpt lat="43.54174" lon="5.53364">
        <ele>363.0044</ele>
        <time>2011-03-27T08:31:13Z</time>
      </trkpt>
      <trkpt lat="43.54175" lon="5.53361">
        <ele>363.0044</ele>
        <time>2011-03-27T08:31:14Z</time>
      </trkpt>
      <trkpt lat="43.54176" lon="5.53358">
        <ele>363.0044</ele>
        <time>2011-03-27T08:31:15Z</time>
      </trkpt>
      <trkpt lat="43.54177" lon="5.53354">
        <ele>363.0044</ele>
        <time>2011-03-27T08:31:16Z</time>
      </trkpt>
      <trkpt lat="43.54178" lon="5.5335">
        <ele>363.0044</ele>
        <time>2011-03-27T08:31:17Z</time>
      </trkpt>
      <trkpt lat="43.54179" lon="5.53346">
        <ele>363.0044</ele>
        <time>2011-03-27T08:31:18Z</time>
      </trkpt>
      <trkpt lat="43.54179" lon="5.53342">
        <ele>363.0044</ele>
        <time>2011-03-27T08:31:19Z</time>
      </trkpt>
      <trkpt lat="43.5418" lon="5.53338">
        <ele>363.0043</ele>
        <time>2011-03-27T08:31:20Z</time>
      </trkpt>
      <trkpt lat="43.54181" lon="5.53334">
        <ele>363.0043</ele>
        <time>2011-03-27T08:31:21Z</time>
      </trkpt>
      <trkpt lat="43.54181" lon="5.5333">
        <ele>364.0043</ele>
        <time>2011-03-27T08:31:22Z</time>
      </trkpt>
      <trkpt lat="43.54182" lon="5.53326">
        <ele>364.0043</ele>
        <time>2011-03-27T08:31:23Z</time>
      </trkpt>
      <trkpt lat="43.54182" lon="5.53322">
        <ele>364.0043</ele>
        <time>2011-03-27T08:31:24Z</time>
      </trkpt>
      <trkpt lat="43.54183" lon="5.53317">
        <ele>364.0043</ele>
        <time>2011-03-27T08:31:25Z</time>
      </trkpt>
      <trkpt lat="43.54184" lon="5.53314">
        <ele>364.0043</ele>
        <time>2011-03-27T08:31:26Z</time>
      </trkpt>
      <trkpt lat="43.54184" lon="5.5331">
        <ele>364.0043</ele>
        <time>2011-03-27T08:31:27Z</time>
      </trkpt>
      <trkpt lat="43.54184" lon="5.53306">
        <ele>365.0043</ele>
        <time>2011-03-27T08:31:28Z</time>
      </trkpt>
      <trkpt lat="43.54184" lon="5.53303">
        <ele>365.0043</ele>
        <time>2011-03-27T08:31:29Z</time>
      </trkpt>
      <trkpt lat="43.54185" lon="5.533">
        <ele>365.0043</ele>
        <time>2011-03-27T08:31:30Z</time>
      </trkpt>
      <trkpt lat="43.54185" lon="5.53296">
        <ele>366.0043</ele>
        <time>2011-03-27T08:31:31Z</time>
      </trkpt>
      <trkpt lat="43.54185" lon="5.53293">
        <ele>366.0043</ele>
        <time>2011-03-27T08:31:32Z</time>
      </trkpt>
      <trkpt lat="43.54186" lon="5.5329">
        <ele>366.0042</ele>
        <time>2011-03-27T08:31:33Z</time>
      </trkpt>
      <trkpt lat="43.54185" lon="5.53287">
        <ele>366.0042</ele>
        <time>2011-03-27T08:31:34Z</time>
      </trkpt>
      <trkpt lat="43.54185" lon="5.53283">
        <ele>367.0042</ele>
        <time>2011-03-27T08:31:35Z</time>
      </trkpt>
      <trkpt lat="43.54185" lon="5.5328">
        <ele>368.0042</ele>
        <time>2011-03-27T08:31:36Z</time>
      </trkpt>
      <trkpt lat="43.54184" lon="5.53277">
        <ele>369.0042</ele>
        <time>2011-03-27T08:31:37Z</time>
      </trkpt>
      <trkpt lat="43.54183" lon="5.53274">
        <ele>370.0042</ele>
        <time>2011-03-27T08:31:38Z</time>
      </trkpt>
      <trkpt lat="43.54182" lon="5.5327">
        <ele>370.0042</ele>
        <time>2011-03-27T08:31:39Z</time>
      </trkpt>
      <trkpt lat="43.54182" lon="5.53267">
        <ele>371.0042</ele>
        <time>2011-03-27T08:31:40Z</time>
      </trkpt>
      <trkpt lat="43.54181" lon="5.53263">
        <ele>372.0042</ele>
        <time>2011-03-27T08:31:41Z</time>
      </trkpt>
      <trkpt lat="43.54181" lon="5.5326">
        <ele>373.0042</ele>
        <time>2011-03-27T08:31:42Z</time>
      </trkpt>
      <trkpt lat="43.54181" lon="5.53257">
        <ele>373.0042</ele>
        <time>2011-03-27T08:31:43Z</time>
      </trkpt>
      <trkpt lat="43.54181" lon="5.53254">
        <ele>374.0042</ele>
        <time>2011-03-27T08:31:44Z</time>
      </trkpt>
      <trkpt lat="43.5418" lon="5.53251">
        <ele>375.0042</ele>
        <time>2011-03-27T08:31:45Z</time>
      </trkpt>
      <trkpt lat="43.54174" lon="5.53243">
        <ele>379.0041</ele>
        <time>2011-03-27T08:31:52Z</time>
      </trkpt>
      <trkpt lat="43.54173" lon="5.53243">
        <ele>379.0041</ele>
        <time>2011-03-27T08:31:53Z</time>
      </trkpt>
      <trkpt lat="43.5417" lon="5.53239">
        <ele>380.0041</ele>
        <time>2011-03-27T08:31:54Z</time>
      </trkpt>
      <trkpt lat="43.54169" lon="5.53238">
        <ele>380.0041</ele>
        <time>2011-03-27T08:31:55Z</time>
      </trkpt>
      <trkpt lat="43.54166" lon="5.53235">
        <ele>381.0041</ele>
        <time>2011-03-27T08:31:56Z</time>
      </trkpt>
      <trkpt lat="43.54162" lon="5.53231">
        <ele>381.0041</ele>
        <time>2011-03-27T08:31:57Z</time>
      </trkpt>
      <trkpt lat="43.54159" lon="5.53227">
        <ele>382.0041</ele>
        <time>2011-03-27T08:31:58Z</time>
      </trkpt>
      <trkpt lat="43.54158" lon="5.53225">
        <ele>382.004</ele>
        <time>2011-03-27T08:31:59Z</time>
      </trkpt>
      <trkpt lat="43.54155" lon="5.5322">
        <ele>382.004</ele>
        <time>2011-03-27T08:32:00Z</time>
      </trkpt>
      <trkpt lat="43.54154" lon="5.53217">
        <ele>382.004</ele>
        <time>2011-03-27T08:32:01Z</time>
      </trkpt>
      <trkpt lat="43.54151" lon="5.53212">
        <ele>383.004</ele>
        <time>2011-03-27T08:32:02Z</time>
      </trkpt>
      <trkpt lat="43.54149" lon="5.53208">
        <ele>384.004</ele>
        <time>2011-03-27T08:32:03Z</time>
      </trkpt>
      <trkpt lat="43.54146" lon="5.53203">
        <ele>384.004</ele>
        <time>2011-03-27T08:32:04Z</time>
      </trkpt>
      <trkpt lat="43.54144" lon="5.53199">
        <ele>384.004</ele>
        <time>2011-03-27T08:32:05Z</time>
      </trkpt>
      <trkpt lat="43.54142" lon="5.53196">
        <ele>385.0039</ele>
        <time>2011-03-27T08:32:06Z</time>
      </trkpt>
      <trkpt lat="43.54141" lon="5.53195">
        <ele>385.0039</ele>
        <time>2011-03-27T08:32:07Z</time>
      </trkpt>
      <trkpt lat="43.5414" lon="5.53193">
        <ele>385.0039</ele>
        <time>2011-03-27T08:32:08Z</time>
      </trkpt>
      <trkpt lat="43.54138" lon="5.5319">
        <ele>386.0039</ele>
        <time>2011-03-27T08:32:09Z</time>
      </trkpt>
      <trkpt lat="43.54136" lon="5.53188">
        <ele>386.0039</ele>
        <time>2011-03-27T08:32:10Z</time>
      </trkpt>
      <trkpt lat="43.54133" lon="5.53183">
        <ele>386.0039</ele>
        <time>2011-03-27T08:32:13Z</time>
      </trkpt>
      <trkpt lat="43.54133" lon="5.53181">
        <ele>386.0039</ele>
        <time>2011-03-27T08:32:14Z</time>
      </trkpt>
      <trkpt lat="43.54132" lon="5.53179">
        <ele>386.0039</ele>
        <time>2011-03-27T08:32:15Z</time>
      </trkpt>
      <trkpt lat="43.54131" lon="5.53174">
        <ele>386.0039</ele>
        <time>2011-03-27T08:32:16Z</time>
      </trkpt>
      <trkpt lat="43.54123" lon="5.53147">
        <ele>385.0038</ele>
        <time>2011-03-27T08:32:24Z</time>
      </trkpt>
      <trkpt lat="43.5412" lon="5.53128">
        <ele>384.0037</ele>
        <time>2011-03-27T08:32:28Z</time>
      </trkpt>
      <trkpt lat="43.5412" lon="5.53118">
        <ele>384.0037</ele>
        <time>2011-03-27T08:32:30Z</time>
      </trkpt>
      <trkpt lat="43.5412" lon="5.53115">
        <ele>384.0037</ele>
        <time>2011-03-27T08:32:31Z</time>
      </trkpt>
      <trkpt lat="43.5412" lon="5.53096">
        <ele>384.0037</ele>
        <time>2011-03-27T08:32:35Z</time>
      </trkpt>
      <trkpt lat="43.54122" lon="5.53081">
        <ele>383.0037</ele>
        <time>2011-03-27T08:32:39Z</time>
      </trkpt>
      <trkpt lat="43.54125" lon="5.53068">
        <ele>385.0036</ele>
        <time>2011-03-27T08:32:43Z</time>
      </trkpt>
      <trkpt lat="43.54128" lon="5.53054">
        <ele>386.0036</ele>
        <time>2011-03-27T08:32:48Z</time>
      </trkpt>
      <trkpt lat="43.54131" lon="5.53038">
        <ele>385.0036</ele>
        <time>2011-03-27T08:32:55Z</time>
      </trkpt>
      <trkpt lat="43.54133" lon="5.53021">
        <ele>385.0035</ele>
        <time>2011-03-27T08:33:02Z</time>
      </trkpt>
      <trkpt lat="43.54126" lon="5.52993">
        <ele>386.0034</ele>
        <time>2011-03-27T08:33:11Z</time>
      </trkpt>
      <trkpt lat="43.54125" lon="5.52991">
        <ele>386.0034</ele>
        <time>2011-03-27T08:33:12Z</time>
      </trkpt>
      <trkpt lat="43.54124" lon="5.52986">
        <ele>386.0034</ele>
        <time>2011-03-27T08:33:13Z</time>
      </trkpt>
      <trkpt lat="43.54122" lon="5.52983">
        <ele>387.0034</ele>
        <time>2011-03-27T08:33:14Z</time>
      </trkpt>
      <trkpt lat="43.54121" lon="5.52982">
        <ele>387.0034</ele>
        <time>2011-03-27T08:33:15Z</time>
      </trkpt>
      <trkpt lat="43.54119" lon="5.52976">
        <ele>387.0034</ele>
        <time>2011-03-27T08:33:16Z</time>
      </trkpt>
      <trkpt lat="43.54118" lon="5.52974">
        <ele>387.0034</ele>
        <time>2011-03-27T08:33:17Z</time>
      </trkpt>
      <trkpt lat="43.54115" lon="5.52969">
        <ele>388.0034</ele>
        <time>2011-03-27T08:33:18Z</time>
      </trkpt>
      <trkpt lat="43.54112" lon="5.52962">
        <ele>388.0034</ele>
        <time>2011-03-27T08:33:20Z</time>
      </trkpt>
      <trkpt lat="43.54112" lon="5.52959">
        <ele>388.0034</ele>
        <time>2011-03-27T08:33:21Z</time>
      </trkpt>
      <trkpt lat="43.54108" lon="5.52954">
        <ele>389.0033</ele>
        <time>2011-03-27T08:33:22Z</time>
      </trkpt>
      <trkpt lat="43.54108" lon="5.52951">
        <ele>389.0033</ele>
        <time>2011-03-27T08:33:23Z</time>
      </trkpt>
      <trkpt lat="43.54105" lon="5.52945">
        <ele>389.0033</ele>
        <time>2011-03-27T08:33:24Z</time>
      </trkpt>
      <trkpt lat="43.54104" lon="5.52942">
        <ele>389.0033</ele>
        <time>2011-03-27T08:33:25Z</time>
      </trkpt>
      <trkpt lat="43.54101" lon="5.52936">
        <ele>389.0033</ele>
        <time>2011-03-27T08:33:26Z</time>
      </trkpt>
      <trkpt lat="43.54099" lon="5.52931">
        <ele>389.0033</ele>
        <time>2011-03-27T08:33:27Z</time>
      </trkpt>
      <trkpt lat="43.54097" lon="5.52926">
        <ele>389.0032</ele>
        <time>2011-03-27T08:33:28Z</time>
      </trkpt>
      <trkpt lat="43.54094" lon="5.52921">
        <ele>388.0032</ele>
        <time>2011-03-27T08:33:29Z</time>
      </trkpt>
      <trkpt lat="43.54092" lon="5.52915">
        <ele>388.0032</ele>
        <time>2011-03-27T08:33:30Z</time>
      </trkpt>
      <trkpt lat="43.54081" lon="5.52898">
        <ele>388.0031</ele>
        <time>2011-03-27T08:33:34Z</time>
      </trkpt>
      <trkpt lat="43.54073" lon="5.52888">
        <ele>388.0031</ele>
        <time>2011-03-27T08:33:37Z</time>
      </trkpt>
      <trkpt lat="43.54056" lon="5.52865">
        <ele>386.003</ele>
        <time>2011-03-27T08:33:50Z</time>
      </trkpt>
      <trkpt lat="43.54054" lon="5.52862">
        <ele>386.003</ele>
        <time>2011-03-27T08:33:51Z</time>
      </trkpt>
      <trkpt lat="43.54052" lon="5.5286">
        <ele>386.003</ele>
        <time>2011-03-27T08:33:52Z</time>
      </trkpt>
      <trkpt lat="43.54049" lon="5.52858">
        <ele>386.003</ele>
        <time>2011-03-27T08:33:53Z</time>
      </trkpt>
      <trkpt lat="43.54039" lon="5.52847">
        <ele>385.0029</ele>
        <time>2011-03-27T08:33:57Z</time>
      </trkpt>
      <trkpt lat="43.54032" lon="5.52842">
        <ele>384.0029</ele>
        <time>2011-03-27T08:33:59Z</time>
      </trkpt>
      <trkpt lat="43.54029" lon="5.5284">
        <ele>384.0029</ele>
        <time>2011-03-27T08:34:00Z</time>
      </trkpt>
      <trkpt lat="43.54026" lon="5.52838">
        <ele>383.0029</ele>
        <time>2011-03-27T08:34:01Z</time>
      </trkpt>
      <trkpt lat="43.54023" lon="5.52836">
        <ele>383.0029</ele>
        <time>2011-03-27T08:34:02Z</time>
      </trkpt>
      <trkpt lat="43.54015" lon="5.52828">
        <ele>383.0028</ele>
        <time>2011-03-27T08:34:05Z</time>
      </trkpt>
      <trkpt lat="43.54012" lon="5.52825">
        <ele>383.0028</ele>
        <time>2011-03-27T08:34:06Z</time>
      </trkpt>
      <trkpt lat="43.54007" lon="5.52819">
        <ele>383.0028</ele>
        <time>2011-03-27T08:34:08Z</time>
      </trkpt>
      <trkpt lat="43.54005" lon="5.52816">
        <ele>383.0028</ele>
        <time>2011-03-27T08:34:09Z</time>
      </trkpt>
      <trkpt lat="43.54003" lon="5.52812">
        <ele>384.0028</ele>
        <time>2011-03-27T08:34:10Z</time>
      </trkpt>
      <trkpt lat="43.54002" lon="5.52808">
        <ele>384.0028</ele>
        <time>2011-03-27T08:34:11Z</time>
      </trkpt>
      <trkpt lat="43.54001" lon="5.52805">
        <ele>384.0027</ele>
        <time>2011-03-27T08:34:12Z</time>
      </trkpt>
      <trkpt lat="43.54" lon="5.52801">
        <ele>385.0027</ele>
        <time>2011-03-27T08:34:13Z</time>
      </trkpt>
      <trkpt lat="43.53997" lon="5.52785">
        <ele>385.0027</ele>
        <time>2011-03-27T08:34:17Z</time>
      </trkpt>
      <trkpt lat="43.53997" lon="5.5278">
        <ele>386.0027</ele>
        <time>2011-03-27T08:34:18Z</time>
      </trkpt>
      <trkpt lat="43.53997" lon="5.52775">
        <ele>386.0027</ele>
        <time>2011-03-27T08:34:19Z</time>
      </trkpt>
      <trkpt lat="43.53997" lon="5.52771">
        <ele>386.0027</ele>
        <time>2011-03-27T08:34:20Z</time>
      </trkpt>
      <trkpt lat="43.53998" lon="5.52767">
        <ele>387.0027</ele>
        <time>2011-03-27T08:34:21Z</time>
      </trkpt>
      <trkpt lat="43.53998" lon="5.52764">
        <ele>386.0027</ele>
        <time>2011-03-27T08:34:22Z</time>
      </trkpt>
      <trkpt lat="43.53999" lon="5.5276">
        <ele>386.0027</ele>
        <time>2011-03-27T08:34:23Z</time>
      </trkpt>
      <trkpt lat="43.53999" lon="5.52757">
        <ele>386.0027</ele>
        <time>2011-03-27T08:34:24Z</time>
      </trkpt>
      <trkpt lat="43.53999" lon="5.52754">
        <ele>387.0026</ele>
        <time>2011-03-27T08:34:25Z</time>
      </trkpt>
      <trkpt lat="43.53999" lon="5.5275">
        <ele>387.0026</ele>
        <time>2011-03-27T08:34:26Z</time>
      </trkpt>
      <trkpt lat="43.53999" lon="5.52746">
        <ele>387.0026</ele>
        <time>2011-03-27T08:34:27Z</time>
      </trkpt>
      <trkpt lat="43.53999" lon="5.52743">
        <ele>387.0026</ele>
        <time>2011-03-27T08:34:28Z</time>
      </trkpt>
      <trkpt lat="43.53999" lon="5.52739">
        <ele>387.0026</ele>
        <time>2011-03-27T08:34:29Z</time>
      </trkpt>
      <trkpt lat="43.53999" lon="5.52735">
        <ele>387.0026</ele>
        <time>2011-03-27T08:34:30Z</time>
      </trkpt>
      <trkpt lat="43.53999" lon="5.52732">
        <ele>387.0026</ele>
        <time>2011-03-27T08:34:31Z</time>
      </trkpt>
      <trkpt lat="43.53999" lon="5.52728">
        <ele>387.0026</ele>
        <time>2011-03-27T08:34:32Z</time>
      </trkpt>
      <trkpt lat="43.53998" lon="5.52725">
        <ele>387.0026</ele>
        <time>2011-03-27T08:34:33Z</time>
      </trkpt>
      <trkpt lat="43.53998" lon="5.52721">
        <ele>387.0026</ele>
        <time>2011-03-27T08:34:34Z</time>
      </trkpt>
      <trkpt lat="43.53997" lon="5.52717">
        <ele>387.0026</ele>
        <time>2011-03-27T08:34:35Z</time>
      </trkpt>
      <trkpt lat="43.53997" lon="5.52714">
        <ele>387.0025</ele>
        <time>2011-03-27T08:34:36Z</time>
      </trkpt>
      <trkpt lat="43.53996" lon="5.52711">
        <ele>387.0025</ele>
        <time>2011-03-27T08:34:37Z</time>
      </trkpt>
      <trkpt lat="43.53996" lon="5.52708">
        <ele>387.0025</ele>
        <time>2011-03-27T08:34:38Z</time>
      </trkpt>
      <trkpt lat="43.53994" lon="5.52704">
        <ele>386.0025</ele>
        <time>2011-03-27T08:34:39Z</time>
      </trkpt>
      <trkpt lat="43.53994" lon="5.527">
        <ele>386.0025</ele>
        <time>2011-03-27T08:34:40Z</time>
      </trkpt>
      <trkpt lat="43.53993" lon="5.52696">
        <ele>386.0025</ele>
        <time>2011-03-27T08:34:41Z</time>
      </trkpt>
      <trkpt lat="43.53992" lon="5.52692">
        <ele>386.0025</ele>
        <time>2011-03-27T08:34:42Z</time>
      </trkpt>
      <trkpt lat="43.53991" lon="5.52687">
        <ele>385.0025</ele>
        <time>2011-03-27T08:34:43Z</time>
      </trkpt>
      <trkpt lat="43.53989" lon="5.52682">
        <ele>385.0025</ele>
        <time>2011-03-27T08:34:44Z</time>
      </trkpt>
      <trkpt lat="43.53988" lon="5.52679">
        <ele>385.0024</ele>
        <time>2011-03-27T08:34:45Z</time>
      </trkpt>
      <trkpt lat="43.53987" lon="5.52675">
        <ele>385.0024</ele>
        <time>2011-03-27T08:34:46Z</time>
      </trkpt>
      <trkpt lat="43.53986" lon="5.52672">
        <ele>386.0024</ele>
        <time>2011-03-27T08:34:47Z</time>
      </trkpt>
      <trkpt lat="43.53985" lon="5.52668">
        <ele>386.0024</ele>
        <time>2011-03-27T08:34:48Z</time>
      </trkpt>
      <trkpt lat="43.53985" lon="5.52666">
        <ele>386.0024</ele>
        <time>2011-03-27T08:34:49Z</time>
      </trkpt>
      <trkpt lat="43.53984" lon="5.52663">
        <ele>387.0024</ele>
        <time>2011-03-27T08:34:50Z</time>
      </trkpt>
      <trkpt lat="43.53983" lon="5.5266">
        <ele>387.0024</ele>
        <time>2011-03-27T08:34:51Z</time>
      </trkpt>
      <trkpt lat="43.53983" lon="5.52656">
        <ele>387.0024</ele>
        <time>2011-03-27T08:34:52Z</time>
      </trkpt>
      <trkpt lat="43.53982" lon="5.5264">
        <ele>386.0023</ele>
        <time>2011-03-27T08:34:56Z</time>
      </trkpt>
      <trkpt lat="43.53982" lon="5.52637">
        <ele>386.0023</ele>
        <time>2011-03-27T08:34:57Z</time>
      </trkpt>
      <trkpt lat="43.53982" lon="5.52634">
        <ele>386.0023</ele>
        <time>2011-03-27T08:34:58Z</time>
      </trkpt>
      <trkpt lat="43.5398" lon="5.52625">
        <ele>386.0023</ele>
        <time>2011-03-27T08:35:01Z</time>
      </trkpt>
      <trkpt lat="43.5398" lon="5.52623">
        <ele>386.0023</ele>
        <time>2011-03-27T08:35:02Z</time>
      </trkpt>
      <trkpt lat="43.53978" lon="5.52617">
        <ele>386.0023</ele>
        <time>2011-03-27T08:35:03Z</time>
      </trkpt>
      <trkpt lat="43.53978" lon="5.52613">
        <ele>386.0023</ele>
        <time>2011-03-27T08:35:04Z</time>
      </trkpt>
      <trkpt lat="43.53976" lon="5.52608">
        <ele>386.0023</ele>
        <time>2011-03-27T08:35:05Z</time>
      </trkpt>
      <trkpt lat="43.53975" lon="5.52605">
        <ele>386.0023</ele>
        <time>2011-03-27T08:35:06Z</time>
      </trkpt>
      <trkpt lat="43.53974" lon="5.526">
        <ele>385.0022</ele>
        <time>2011-03-27T08:35:07Z</time>
      </trkpt>
      <trkpt lat="43.53973" lon="5.52595">
        <ele>385.0022</ele>
        <time>2011-03-27T08:35:08Z</time>
      </trkpt>
      <trkpt lat="43.53972" lon="5.52592">
        <ele>385.0022</ele>
        <time>2011-03-27T08:35:09Z</time>
      </trkpt>
      <trkpt lat="43.53971" lon="5.52588">
        <ele>384.0022</ele>
        <time>2011-03-27T08:35:10Z</time>
      </trkpt>
      <trkpt lat="43.5397" lon="5.52584">
        <ele>384.0022</ele>
        <time>2011-03-27T08:35:11Z</time>
      </trkpt>
      <trkpt lat="43.53968" lon="5.5258">
        <ele>384.0022</ele>
        <time>2011-03-27T08:35:12Z</time>
      </trkpt>
      <trkpt lat="43.53968" lon="5.52576">
        <ele>384.0022</ele>
        <time>2011-03-27T08:35:13Z</time>
      </trkpt>
      <trkpt lat="43.53967" lon="5.52571">
        <ele>383.0022</ele>
        <time>2011-03-27T08:35:14Z</time>
      </trkpt>
      <trkpt lat="43.53965" lon="5.52565">
        <ele>383.0021</ele>
        <time>2011-03-27T08:35:15Z</time>
      </trkpt>
      <trkpt lat="43.53964" lon="5.52559">
        <ele>382.0021</ele>
        <time>2011-03-27T08:35:16Z</time>
      </trkpt>
      <trkpt lat="43.53964" lon="5.52554">
        <ele>382.0021</ele>
        <time>2011-03-27T08:35:17Z</time>
      </trkpt>
      <trkpt lat="43.53963" lon="5.5255">
        <ele>382.0021</ele>
        <time>2011-03-27T08:35:18Z</time>
      </trkpt>
      <trkpt lat="43.53963" lon="5.52546">
        <ele>382.0021</ele>
        <time>2011-03-27T08:35:19Z</time>
      </trkpt>
      <trkpt lat="43.53963" lon="5.52542">
        <ele>382.0021</ele>
        <time>2011-03-27T08:35:20Z</time>
      </trkpt>
      <trkpt lat="43.53963" lon="5.52538">
        <ele>382.0021</ele>
        <time>2011-03-27T08:35:21Z</time>
      </trkpt>
      <trkpt lat="43.53963" lon="5.52534">
        <ele>382.0021</ele>
        <time>2011-03-27T08:35:22Z</time>
      </trkpt>
      <trkpt lat="43.53964" lon="5.52531">
        <ele>381.0021</ele>
        <time>2011-03-27T08:35:23Z</time>
      </trkpt>
      <trkpt lat="43.53964" lon="5.52527">
        <ele>381.002</ele>
        <time>2011-03-27T08:35:24Z</time>
      </trkpt>
      <trkpt lat="43.53964" lon="5.52524">
        <ele>381.002</ele>
        <time>2011-03-27T08:35:25Z</time>
      </trkpt>
      <trkpt lat="43.53964" lon="5.52521">
        <ele>381.002</ele>
        <time>2011-03-27T08:35:26Z</time>
      </trkpt>
      <trkpt lat="43.53963" lon="5.52518">
        <ele>381.002</ele>
        <time>2011-03-27T08:35:27Z</time>
      </trkpt>
      <trkpt lat="43.53963" lon="5.52514">
        <ele>381.002</ele>
        <time>2011-03-27T08:35:28Z</time>
      </trkpt>
      <trkpt lat="43.53963" lon="5.52511">
        <ele>381.002</ele>
        <time>2011-03-27T08:35:29Z</time>
      </trkpt>
      <trkpt lat="43.53962" lon="5.52508">
        <ele>381.002</ele>
        <time>2011-03-27T08:35:30Z</time>
      </trkpt>
      <trkpt lat="43.53962" lon="5.52505">
        <ele>381.002</ele>
        <time>2011-03-27T08:35:31Z</time>
      </trkpt>
      <trkpt lat="43.5396" lon="5.52503">
        <ele>381.002</ele>
        <time>2011-03-27T08:35:32Z</time>
      </trkpt>
      <trkpt lat="43.53959" lon="5.525">
        <ele>381.002</ele>
        <time>2011-03-27T08:35:33Z</time>
      </trkpt>
      <trkpt lat="43.53956" lon="5.52498">
        <ele>382.002</ele>
        <time>2011-03-27T08:35:34Z</time>
      </trkpt>
      <trkpt lat="43.53954" lon="5.52496">
        <ele>382.002</ele>
        <time>2011-03-27T08:35:35Z</time>
      </trkpt>
      <trkpt lat="43.53952" lon="5.52495">
        <ele>382.002</ele>
        <time>2011-03-27T08:35:36Z</time>
      </trkpt>
      <trkpt lat="43.53943" lon="5.52492">
        <ele>382.0019</ele>
        <time>2011-03-27T08:35:39Z</time>
      </trkpt>
      <trkpt lat="43.53939" lon="5.5249">
        <ele>382.0019</ele>
        <time>2011-03-27T08:35:40Z</time>
      </trkpt>
      <trkpt lat="43.53934" lon="5.52487">
        <ele>382.0019</ele>
        <time>2011-03-27T08:35:42Z</time>
      </trkpt>
      <trkpt lat="43.53933" lon="5.52485">
        <ele>382.0019</ele>
        <time>2011-03-27T08:35:43Z</time>
      </trkpt>
      <trkpt lat="43.5393" lon="5.52483">
        <ele>382.0019</ele>
        <time>2011-03-27T08:35:44Z</time>
      </trkpt>
      <trkpt lat="43.53928" lon="5.52481">
        <ele>382.0019</ele>
        <time>2011-03-27T08:35:45Z</time>
      </trkpt>
      <trkpt lat="43.53925" lon="5.52478">
        <ele>382.0019</ele>
        <time>2011-03-27T08:35:46Z</time>
      </trkpt>
      <trkpt lat="43.53923" lon="5.52475">
        <ele>382.0018</ele>
        <time>2011-03-27T08:35:47Z</time>
      </trkpt>
      <trkpt lat="43.53922" lon="5.52473">
        <ele>383.0018</ele>
        <time>2011-03-27T08:35:48Z</time>
      </trkpt>
      <trkpt lat="43.53921" lon="5.52471">
        <ele>383.0018</ele>
        <time>2011-03-27T08:35:49Z</time>
      </trkpt>
      <trkpt lat="43.53919" lon="5.52469">
        <ele>383.0018</ele>
        <time>2011-03-27T08:35:50Z</time>
      </trkpt>
      <trkpt lat="43.53912" lon="5.52445">
        <ele>382.0018</ele>
        <time>2011-03-27T08:35:58Z</time>
      </trkpt>
      <trkpt lat="43.53911" lon="5.52443">
        <ele>382.0017</ele>
        <time>2011-03-27T08:35:59Z</time>
      </trkpt>
      <trkpt lat="43.5391" lon="5.5244">
        <ele>383.0017</ele>
        <time>2011-03-27T08:36:00Z</time>
      </trkpt>
      <trkpt lat="43.5391" lon="5.52437">
        <ele>383.0017</ele>
        <time>2011-03-27T08:36:01Z</time>
      </trkpt>
      <trkpt lat="43.53909" lon="5.52433">
        <ele>383.0017</ele>
        <time>2011-03-27T08:36:02Z</time>
      </trkpt>
      <trkpt lat="43.53907" lon="5.52429">
        <ele>383.0017</ele>
        <time>2011-03-27T08:36:03Z</time>
      </trkpt>
      <trkpt lat="43.53907" lon="5.52425">
        <ele>383.0017</ele>
        <time>2011-03-27T08:36:04Z</time>
      </trkpt>
      <trkpt lat="43.53906" lon="5.5242">
        <ele>383.0017</ele>
        <time>2011-03-27T08:36:05Z</time>
      </trkpt>
      <trkpt lat="43.53905" lon="5.52418">
        <ele>383.0017</ele>
        <time>2011-03-27T08:36:06Z</time>
      </trkpt>
      <trkpt lat="43.53904" lon="5.52413">
        <ele>384.0016</ele>
        <time>2011-03-27T08:36:07Z</time>
      </trkpt>
      <trkpt lat="43.53904" lon="5.5241">
        <ele>384.0016</ele>
        <time>2011-03-27T08:36:08Z</time>
      </trkpt>
      <trkpt lat="43.53903" lon="5.52409">
        <ele>384.0016</ele>
        <time>2011-03-27T08:36:09Z</time>
      </trkpt>
      <trkpt lat="43.53902" lon="5.52388">
        <ele>383.0016</ele>
        <time>2011-03-27T08:36:14Z</time>
      </trkpt>
      <trkpt lat="43.53902" lon="5.52384">
        <ele>383.0016</ele>
        <time>2011-03-27T08:36:15Z</time>
      </trkpt>
      <trkpt lat="43.53901" lon="5.52382">
        <ele>383.0016</ele>
        <time>2011-03-27T08:36:16Z</time>
      </trkpt>
      <trkpt lat="43.53901" lon="5.5238">
        <ele>383.0016</ele>
        <time>2011-03-27T08:36:17Z</time>
      </trkpt>
      <trkpt lat="43.539" lon="5.52377">
        <ele>383.0016</ele>
        <time>2011-03-27T08:36:18Z</time>
      </trkpt>
      <trkpt lat="43.539" lon="5.52375">
        <ele>383.0016</ele>
        <time>2011-03-27T08:36:19Z</time>
      </trkpt>
      <trkpt lat="43.53899" lon="5.52371">
        <ele>383.0016</ele>
        <time>2011-03-27T08:36:20Z</time>
      </trkpt>
      <trkpt lat="43.53898" lon="5.52367">
        <ele>382.0016</ele>
        <time>2011-03-27T08:36:21Z</time>
      </trkpt>
      <trkpt lat="43.53894" lon="5.52345">
        <ele>381.0015</ele>
        <time>2011-03-27T08:36:26Z</time>
      </trkpt>
      <trkpt lat="43.53894" lon="5.5234">
        <ele>381.0015</ele>
        <time>2011-03-27T08:36:27Z</time>
      </trkpt>
      <trkpt lat="43.53893" lon="5.52336">
        <ele>381.0015</ele>
        <time>2011-03-27T08:36:28Z</time>
      </trkpt>
      <trkpt lat="43.53893" lon="5.52332">
        <ele>380.0015</ele>
        <time>2011-03-27T08:36:29Z</time>
      </trkpt>
      <trkpt lat="43.53893" lon="5.52328">
        <ele>380.0015</ele>
        <time>2011-03-27T08:36:30Z</time>
      </trkpt>
      <trkpt lat="43.53893" lon="5.52325">
        <ele>380.0015</ele>
        <time>2011-03-27T08:36:31Z</time>
      </trkpt>
      <trkpt lat="43.53891" lon="5.52321">
        <ele>380.0014</ele>
        <time>2011-03-27T08:36:32Z</time>
      </trkpt>
      <trkpt lat="43.53891" lon="5.52318">
        <ele>380.0014</ele>
        <time>2011-03-27T08:36:33Z</time>
      </trkpt>
      <trkpt lat="43.53889" lon="5.52314">
        <ele>380.0014</ele>
        <time>2011-03-27T08:36:34Z</time>
      </trkpt>
      <trkpt lat="43.53888" lon="5.52311">
        <ele>380.0014</ele>
        <time>2011-03-27T08:36:35Z</time>
      </trkpt>
      <trkpt lat="43.53886" lon="5.52307">
        <ele>380.0014</ele>
        <time>2011-03-27T08:36:36Z</time>
      </trkpt>
      <trkpt lat="43.53885" lon="5.52304">
        <ele>380.0014</ele>
        <time>2011-03-27T08:36:37Z</time>
      </trkpt>
      <trkpt lat="43.53882" lon="5.523">
        <ele>380.0014</ele>
        <time>2011-03-27T08:36:38Z</time>
      </trkpt>
      <trkpt lat="43.5388" lon="5.52296">
        <ele>380.0013</ele>
        <time>2011-03-27T08:36:39Z</time>
      </trkpt>
      <trkpt lat="43.53879" lon="5.52293">
        <ele>380.0013</ele>
        <time>2011-03-27T08:36:40Z</time>
      </trkpt>
      <trkpt lat="43.53876" lon="5.52286">
        <ele>379.0013</ele>
        <time>2011-03-27T08:36:42Z</time>
      </trkpt>
      <trkpt lat="43.53875" lon="5.52283">
        <ele>379.0013</ele>
        <time>2011-03-27T08:36:43Z</time>
      </trkpt>
      <trkpt lat="43.53872" lon="5.52279">
        <ele>379.0013</ele>
        <time>2011-03-27T08:36:44Z</time>
      </trkpt>
      <trkpt lat="43.53871" lon="5.52276">
        <ele>379.0013</ele>
        <time>2011-03-27T08:36:45Z</time>
      </trkpt>
      <trkpt lat="43.53869" lon="5.52273">
        <ele>379.0013</ele>
        <time>2011-03-27T08:36:46Z</time>
      </trkpt>
      <trkpt lat="43.53867" lon="5.5227">
        <ele>378.0013</ele>
        <time>2011-03-27T08:36:47Z</time>
      </trkpt>
      <trkpt lat="43.53843" lon="5.52246">
        <ele>373.0012</ele>
        <time>2011-03-27T08:36:57Z</time>
      </trkpt>
      <trkpt lat="43.5384" lon="5.52244">
        <ele>372.0012</ele>
        <time>2011-03-27T08:36:58Z</time>
      </trkpt>
      <trkpt lat="43.53837" lon="5.52242">
        <ele>372.0011</ele>
        <time>2011-03-27T08:36:59Z</time>
      </trkpt>
      <trkpt lat="43.53824" lon="5.52233">
        <ele>370.0011</ele>
        <time>2011-03-27T08:37:04Z</time>
      </trkpt>
      <trkpt lat="43.53822" lon="5.5223">
        <ele>369.0011</ele>
        <time>2011-03-27T08:37:05Z</time>
      </trkpt>
      <trkpt lat="43.53814" lon="5.5222">
        <ele>368.001</ele>
        <time>2011-03-27T08:37:09Z</time>
      </trkpt>
      <trkpt lat="43.53812" lon="5.52217">
        <ele>368.001</ele>
        <time>2011-03-27T08:37:10Z</time>
      </trkpt>
      <trkpt lat="43.53811" lon="5.52214">
        <ele>368.001</ele>
        <time>2011-03-27T08:37:11Z</time>
      </trkpt>
      <trkpt lat="43.5381" lon="5.5221">
        <ele>369.001</ele>
        <time>2011-03-27T08:37:12Z</time>
      </trkpt>
      <trkpt lat="43.53809" lon="5.52207">
        <ele>369.001</ele>
        <time>2011-03-27T08:37:13Z</time>
      </trkpt>
      <trkpt lat="43.53808" lon="5.52203">
        <ele>369.001</ele>
        <time>2011-03-27T08:37:14Z</time>
      </trkpt>
      <trkpt lat="43.53807" lon="5.522">
        <ele>369.001</ele>
        <time>2011-03-27T08:37:15Z</time>
      </trkpt>
      <trkpt lat="43.53806" lon="5.52196">
        <ele>370.001</ele>
        <time>2011-03-27T08:37:16Z</time>
      </trkpt>
      <trkpt lat="43.53805" lon="5.52192">
        <ele>370.0009</ele>
        <time>2011-03-27T08:37:17Z</time>
      </trkpt>
      <trkpt lat="43.53805" lon="5.52188">
        <ele>370.0009</ele>
        <time>2011-03-27T08:37:18Z</time>
      </trkpt>
      <trkpt lat="43.53805" lon="5.52184">
        <ele>370.0009</ele>
        <time>2011-03-27T08:37:19Z</time>
      </trkpt>
      <trkpt lat="43.53806" lon="5.5218">
        <ele>371.0009</ele>
        <time>2011-03-27T08:37:20Z</time>
      </trkpt>
      <trkpt lat="43.53806" lon="5.52176">
        <ele>371.0009</ele>
        <time>2011-03-27T08:37:21Z</time>
      </trkpt>
      <trkpt lat="43.53807" lon="5.52172">
        <ele>371.0009</ele>
        <time>2011-03-27T08:37:22Z</time>
      </trkpt>
      <trkpt lat="43.53808" lon="5.52168">
        <ele>371.0009</ele>
        <time>2011-03-27T08:37:23Z</time>
      </trkpt>
      <trkpt lat="43.53809" lon="5.52165">
        <ele>372.0009</ele>
        <time>2011-03-27T08:37:24Z</time>
      </trkpt>
      <trkpt lat="43.5381" lon="5.52161">
        <ele>372.0009</ele>
        <time>2011-03-27T08:37:25Z</time>
      </trkpt>
      <trkpt lat="43.53811" lon="5.52158">
        <ele>372.0009</ele>
        <time>2011-03-27T08:37:26Z</time>
      </trkpt>
      <trkpt lat="43.53812" lon="5.52155">
        <ele>372.0009</ele>
        <time>2011-03-27T08:37:27Z</time>
      </trkpt>
      <trkpt lat="43.53812" lon="5.52152">
        <ele>372.0009</ele>
        <time>2011-03-27T08:37:28Z</time>
      </trkpt>
      <trkpt lat="43.53823" lon="5.52146">
        <ele>370.0009</ele>
        <time>2011-03-27T08:37:35Z</time>
      </trkpt>
      <trkpt lat="43.53832" lon="5.52147">
        <ele>370.0009</ele>
        <time>2011-03-27T08:37:39Z</time>
      </trkpt>
      <trkpt lat="43.53835" lon="5.52148">
        <ele>370.0009</ele>
        <time>2011-03-27T08:37:40Z</time>
      </trkpt>
      <trkpt lat="43.53837" lon="5.52149">
        <ele>370.0009</ele>
        <time>2011-03-27T08:37:41Z</time>
      </trkpt>
      <trkpt lat="43.53839" lon="5.52149">
        <ele>370.0009</ele>
        <time>2011-03-27T08:37:42Z</time>
      </trkpt>
      <trkpt lat="43.53842" lon="5.52151">
        <ele>370.0009</ele>
        <time>2011-03-27T08:37:43Z</time>
      </trkpt>
      <trkpt lat="43.53844" lon="5.52152">
        <ele>370.0009</ele>
        <time>2011-03-27T08:37:44Z</time>
      </trkpt>
      <trkpt lat="43.53846" lon="5.52153">
        <ele>369.0009</ele>
        <time>2011-03-27T08:37:45Z</time>
      </trkpt>
      <trkpt lat="43.53848" lon="5.52154">
        <ele>369.001</ele>
        <time>2011-03-27T08:37:46Z</time>
      </trkpt>
      <trkpt lat="43.53851" lon="5.52156">
        <ele>369.001</ele>
        <time>2011-03-27T08:37:47Z</time>
      </trkpt>
      <trkpt lat="43.53853" lon="5.52158">
        <ele>369.001</ele>
        <time>2011-03-27T08:37:48Z</time>
      </trkpt>
      <trkpt lat="43.53856" lon="5.52162">
        <ele>369.001</ele>
        <time>2011-03-27T08:37:49Z</time>
      </trkpt>
      <trkpt lat="43.53858" lon="5.52166">
        <ele>369.001</ele>
        <time>2011-03-27T08:37:50Z</time>
      </trkpt>
      <trkpt lat="43.53861" lon="5.52169">
        <ele>369.001</ele>
        <time>2011-03-27T08:37:51Z</time>
      </trkpt>
      <trkpt lat="43.53861" lon="5.5217">
        <ele>369.001</ele>
        <time>2011-03-27T08:37:52Z</time>
      </trkpt>
      <trkpt lat="43.53865" lon="5.52174">
        <ele>369.001</ele>
        <time>2011-03-27T08:37:56Z</time>
      </trkpt>
      <trkpt lat="43.53867" lon="5.52175">
        <ele>369.001</ele>
        <time>2011-03-27T08:37:57Z</time>
      </trkpt>
      <trkpt lat="43.53869" lon="5.52176">
        <ele>369.001</ele>
        <time>2011-03-27T08:37:58Z</time>
      </trkpt>
      <trkpt lat="43.53886" lon="5.52183">
        <ele>368.0011</ele>
        <time>2011-03-27T08:38:05Z</time>
      </trkpt>
      <trkpt lat="43.53887" lon="5.52183">
        <ele>368.0011</ele>
        <time>2011-03-27T08:38:06Z</time>
      </trkpt>
      <trkpt lat="43.53891" lon="5.52182">
        <ele>368.0011</ele>
        <time>2011-03-27T08:38:07Z</time>
      </trkpt>
      <trkpt lat="43.53893" lon="5.52182">
        <ele>368.0011</ele>
        <time>2011-03-27T08:38:08Z</time>
      </trkpt>
      <trkpt lat="43.53896" lon="5.52181">
        <ele>368.0011</ele>
        <time>2011-03-27T08:38:09Z</time>
      </trkpt>
      <trkpt lat="43.53898" lon="5.5218">
        <ele>368.0011</ele>
        <time>2011-03-27T08:38:10Z</time>
      </trkpt>
      <trkpt lat="43.53902" lon="5.52179">
        <ele>367.0011</ele>
        <time>2011-03-27T08:38:11Z</time>
      </trkpt>
      <trkpt lat="43.53904" lon="5.52178">
        <ele>367.0011</ele>
        <time>2011-03-27T08:38:12Z</time>
      </trkpt>
      <trkpt lat="43.53907" lon="5.52176">
        <ele>367.0012</ele>
        <time>2011-03-27T08:38:13Z</time>
      </trkpt>
      <trkpt lat="43.5391" lon="5.52175">
        <ele>366.0012</ele>
        <time>2011-03-27T08:38:14Z</time>
      </trkpt>
      <trkpt lat="43.53913" lon="5.52173">
        <ele>366.0012</ele>
        <time>2011-03-27T08:38:15Z</time>
      </trkpt>
      <trkpt lat="43.53916" lon="5.52172">
        <ele>366.0012</ele>
        <time>2011-03-27T08:38:16Z</time>
      </trkpt>
      <trkpt lat="43.53919" lon="5.52171">
        <ele>366.0012</ele>
        <time>2011-03-27T08:38:17Z</time>
      </trkpt>
      <trkpt lat="43.53922" lon="5.52169">
        <ele>365.0012</ele>
        <time>2011-03-27T08:38:18Z</time>
      </trkpt>
      <trkpt lat="43.53924" lon="5.52168">
        <ele>365.0012</ele>
        <time>2011-03-27T08:38:19Z</time>
      </trkpt>
      <trkpt lat="43.53927" lon="5.52167">
        <ele>365.0012</ele>
        <time>2011-03-27T08:38:20Z</time>
      </trkpt>
      <trkpt lat="43.5393" lon="5.52167">
        <ele>365.0012</ele>
        <time>2011-03-27T08:38:21Z</time>
      </trkpt>
      <trkpt lat="43.53932" lon="5.52165">
        <ele>365.0012</ele>
        <time>2011-03-27T08:38:22Z</time>
      </trkpt>
      <trkpt lat="43.53934" lon="5.52165">
        <ele>365.0012</ele>
        <time>2011-03-27T08:38:23Z</time>
      </trkpt>
      <trkpt lat="43.53937" lon="5.52163">
        <ele>365.0012</ele>
        <time>2011-03-27T08:38:24Z</time>
      </trkpt>
      <trkpt lat="43.53939" lon="5.52161">
        <ele>365.0012</ele>
        <time>2011-03-27T08:38:25Z</time>
      </trkpt>
      <trkpt lat="43.53942" lon="5.52159">
        <ele>365.0012</ele>
        <time>2011-03-27T08:38:26Z</time>
      </trkpt>
      <trkpt lat="43.53944" lon="5.52158">
        <ele>365.0012</ele>
        <time>2011-03-27T08:38:27Z</time>
      </trkpt>
      <trkpt lat="43.53946" lon="5.52157">
        <ele>365.0012</ele>
        <time>2011-03-27T08:38:28Z</time>
      </trkpt>
      <trkpt lat="43.53949" lon="5.52155">
        <ele>365.0012</ele>
        <time>2011-03-27T08:38:29Z</time>
      </trkpt>
      <trkpt lat="43.53951" lon="5.52154">
        <ele>366.0012</ele>
        <time>2011-03-27T08:38:30Z</time>
      </trkpt>
      <trkpt lat="43.53953" lon="5.52152">
        <ele>366.0012</ele>
        <time>2011-03-27T08:38:31Z</time>
      </trkpt>
      <trkpt lat="43.53968" lon="5.52132">
        <ele>366.0012</ele>
        <time>2011-03-27T08:38:42Z</time>
      </trkpt>
      <trkpt lat="43.53975" lon="5.52094">
        <ele>363.0011</ele>
        <time>2011-03-27T08:38:55Z</time>
      </trkpt>
      <trkpt lat="43.53966" lon="5.52066">
        <ele>364.001</ele>
        <time>2011-03-27T08:39:04Z</time>
      </trkpt>
      <trkpt lat="43.53949" lon="5.52037">
        <ele>365.0009</ele>
        <time>2011-03-27T08:39:16Z</time>
      </trkpt>
      <trkpt lat="43.53941" lon="5.52015">
        <ele>364.0009</ele>
        <time>2011-03-27T08:39:25Z</time>
      </trkpt>
      <trkpt lat="43.53949" lon="5.51996">
        <ele>365.0009</ele>
        <time>2011-03-27T08:39:35Z</time>
      </trkpt>
      <trkpt lat="43.53958" lon="5.51984">
        <ele>364.0008</ele>
        <time>2011-03-27T08:39:44Z</time>
      </trkpt>
      <trkpt lat="43.53967" lon="5.51975">
        <ele>365.0008</ele>
        <time>2011-03-27T08:39:51Z</time>
      </trkpt>
      <trkpt lat="43.53993" lon="5.51961">
        <ele>364.0009</ele>
        <time>2011-03-27T08:40:07Z</time>
      </trkpt>
      <trkpt lat="43.54016" lon="5.51937">
        <ele>364.0009</ele>
        <time>2011-03-27T08:40:15Z</time>
      </trkpt>
      <trkpt lat="43.54031" lon="5.51905">
        <ele>364.0008</ele>
        <time>2011-03-27T08:40:24Z</time>
      </trkpt>
      <trkpt lat="43.54038" lon="5.51872">
        <ele>364.0008</ele>
        <time>2011-03-27T08:40:29Z</time>
      </trkpt>
      <trkpt lat="43.54037" lon="5.51866">
        <ele>364.0007</ele>
        <time>2011-03-27T08:40:30Z</time>
      </trkpt>
      <trkpt lat="43.54035" lon="5.5186">
        <ele>364.0007</ele>
        <time>2011-03-27T08:40:31Z</time>
      </trkpt>
      <trkpt lat="43.54034" lon="5.51856">
        <ele>363.0007</ele>
        <time>2011-03-27T08:40:32Z</time>
      </trkpt>
      <trkpt lat="43.54025" lon="5.51849">
        <ele>363.0007</ele>
        <time>2011-03-27T08:40:36Z</time>
      </trkpt>
      <trkpt lat="43.54007" lon="5.51849">
        <ele>363.0006</ele>
        <time>2011-03-27T08:40:46Z</time>
      </trkpt>
      <trkpt lat="43.54004" lon="5.51848">
        <ele>364.0006</ele>
        <time>2011-03-27T08:40:47Z</time>
      </trkpt>
      <trkpt lat="43.53999" lon="5.51847">
        <ele>364.0006</ele>
        <time>2011-03-27T08:40:48Z</time>
      </trkpt>
      <trkpt lat="43.53995" lon="5.51846">
        <ele>364.0006</ele>
        <time>2011-03-27T08:40:49Z</time>
      </trkpt>
      <trkpt lat="43.53984" lon="5.51843">
        <ele>366.0006</ele>
        <time>2011-03-27T08:40:53Z</time>
      </trkpt>
      <trkpt lat="43.53975" lon="5.51838">
        <ele>366.0005</ele>
        <time>2011-03-27T08:40:58Z</time>
      </trkpt>
      <trkpt lat="43.53973" lon="5.51838">
        <ele>366.0005</ele>
        <time>2011-03-27T08:40:59Z</time>
      </trkpt>
      <trkpt lat="43.53971" lon="5.51836">
        <ele>366.0005</ele>
        <time>2011-03-27T08:41:00Z</time>
      </trkpt>
      <trkpt lat="43.5397" lon="5.51835">
        <ele>366.0005</ele>
        <time>2011-03-27T08:41:01Z</time>
      </trkpt>
      <trkpt lat="43.53968" lon="5.51832">
        <ele>365.0005</ele>
        <time>2011-03-27T08:41:02Z</time>
      </trkpt>
      <trkpt lat="43.53966" lon="5.51826">
        <ele>365.0005</ele>
        <time>2011-03-27T08:41:04Z</time>
      </trkpt>
      <trkpt lat="43.53965" lon="5.51824">
        <ele>365.0005</ele>
        <time>2011-03-27T08:41:05Z</time>
      </trkpt>
      <trkpt lat="43.53965" lon="5.51822">
        <ele>365.0005</ele>
        <time>2011-03-27T08:41:06Z</time>
      </trkpt>
      <trkpt lat="43.53964" lon="5.51816">
        <ele>366.0005</ele>
        <time>2011-03-27T08:41:07Z</time>
      </trkpt>
      <trkpt lat="43.53962" lon="5.51812">
        <ele>366.0005</ele>
        <time>2011-03-27T08:41:08Z</time>
      </trkpt>
      <trkpt lat="43.53962" lon="5.51811">
        <ele>366.0005</ele>
        <time>2011-03-27T08:41:09Z</time>
      </trkpt>
      <trkpt lat="43.53957" lon="5.51792">
        <ele>364.0004</ele>
        <time>2011-03-27T08:41:18Z</time>
      </trkpt>
      <trkpt lat="43.53956" lon="5.51789">
        <ele>364.0004</ele>
        <time>2011-03-27T08:41:19Z</time>
      </trkpt>
      <trkpt lat="43.53954" lon="5.51785">
        <ele>363.0004</ele>
        <time>2011-03-27T08:41:20Z</time>
      </trkpt>
      <trkpt lat="43.53952" lon="5.5178">
        <ele>362.0004</ele>
        <time>2011-03-27T08:41:21Z</time>
      </trkpt>
      <trkpt lat="43.53947" lon="5.51766">
        <ele>360.0003</ele>
        <time>2011-03-27T08:41:24Z</time>
      </trkpt>
      <trkpt lat="43.53943" lon="5.51754">
        <ele>358.0003</ele>
        <time>2011-03-27T08:41:27Z</time>
      </trkpt>
      <trkpt lat="43.53942" lon="5.51753">
        <ele>358.0003</ele>
        <time>2011-03-27T08:41:28Z</time>
      </trkpt>
      <trkpt lat="43.53941" lon="5.51749">
        <ele>358.0003</ele>
        <time>2011-03-27T08:41:29Z</time>
      </trkpt>
      <trkpt lat="43.53939" lon="5.51748">
        <ele>358.0002</ele>
        <time>2011-03-27T08:41:30Z</time>
      </trkpt>
      <trkpt lat="43.53937" lon="5.51744">
        <ele>358.0002</ele>
        <time>2011-03-27T08:41:31Z</time>
      </trkpt>
      <trkpt lat="43.53934" lon="5.5174">
        <ele>358.0002</ele>
        <time>2011-03-27T08:41:32Z</time>
      </trkpt>
      <trkpt lat="43.53926" lon="5.51731">
        <ele>359.0002</ele>
        <time>2011-03-27T08:41:35Z</time>
      </trkpt>
      <trkpt lat="43.53925" lon="5.5173">
        <ele>359.0002</ele>
        <time>2011-03-27T08:41:36Z</time>
      </trkpt>
      <trkpt lat="43.5392" lon="5.51727">
        <ele>359.0002</ele>
        <time>2011-03-27T08:41:37Z</time>
      </trkpt>
      <trkpt lat="43.53918" lon="5.51726">
        <ele>359.0002</ele>
        <time>2011-03-27T08:41:38Z</time>
      </trkpt>
      <trkpt lat="43.53914" lon="5.51723">
        <ele>359.0002</ele>
        <time>2011-03-27T08:41:39Z</time>
      </trkpt>
      <trkpt lat="43.53909" lon="5.51721">
        <ele>359.0001</ele>
        <time>2011-03-27T08:41:40Z</time>
      </trkpt>
      <trkpt lat="43.53905" lon="5.51719">
        <ele>359.0001</ele>
        <time>2011-03-27T08:41:41Z</time>
      </trkpt>
      <trkpt lat="43.53901" lon="5.51717">
        <ele>360.0001</ele>
        <time>2011-03-27T08:41:42Z</time>
      </trkpt>
      <trkpt lat="43.53898" lon="5.51715">
        <ele>359.0001</ele>
        <time>2011-03-27T08:41:43Z</time>
      </trkpt>
      <trkpt lat="43.53895" lon="5.51713">
        <ele>360.0001</ele>
        <time>2011-03-27T08:41:44Z</time>
      </trkpt>
      <trkpt lat="43.53893" lon="5.51712">
        <ele>360.0001</ele>
        <time>2011-03-27T08:41:45Z</time>
      </trkpt>
      <trkpt lat="43.5389" lon="5.51711">
        <ele>360.0001</ele>
        <time>2011-03-27T08:41:46Z</time>
      </trkpt>
      <trkpt lat="43.53887" lon="5.51709">
        <ele>360.0001</ele>
        <time>2011-03-27T08:41:47Z</time>
      </trkpt>
      <trkpt lat="43.53884" lon="5.51708">
        <ele>359.0001</ele>
        <time>2011-03-27T08:41:48Z</time>
      </trkpt>
      <trkpt lat="43.53881" lon="5.51706">
        <ele>359</ele>
        <time>2011-03-27T08:41:49Z</time>
      </trkpt>
      <trkpt lat="43.53878" lon="5.51704">
        <ele>359</ele>
        <time>2011-03-27T08:41:50Z</time>
      </trkpt>
      <trkpt lat="43.53876" lon="5.51702">
        <ele>359</ele>
        <time>2011-03-27T08:41:51Z</time>
      </trkpt>
      <trkpt lat="43.53876" lon="5.51703">
        <ele>358</ele>
        <time>2011-03-27T08:41:52Z</time>
      </trkpt>
      <trkpt lat="43.53873" lon="5.517">
        <ele>358</ele>
        <time>2011-03-27T08:41:54Z</time>
      </trkpt>
      <trkpt lat="43.5387" lon="5.51699">
        <ele>358</ele>
        <time>2011-03-27T08:41:55Z</time>
      </trkpt>
      <trkpt lat="43.53845" lon="5.51686">
        <ele>357.9999</ele>
        <time>2011-03-27T08:42:03Z</time>
      </trkpt>
      <trkpt lat="43.53842" lon="5.51685">
        <ele>357.9999</ele>
        <time>2011-03-27T08:42:04Z</time>
      </trkpt>
      <trkpt lat="43.53838" lon="5.51683">
        <ele>357.9999</ele>
        <time>2011-03-27T08:42:05Z</time>
      </trkpt>
      <trkpt lat="43.53834" lon="5.51681">
        <ele>357.9999</ele>
        <time>2011-03-27T08:42:06Z</time>
      </trkpt>
      <trkpt lat="43.5383" lon="5.5168">
        <ele>357.9999</ele>
        <time>2011-03-27T08:42:07Z</time>
      </trkpt>
      <trkpt lat="43.53827" lon="5.51678">
        <ele>357.9998</ele>
        <time>2011-03-27T08:42:08Z</time>
      </trkpt>
      <trkpt lat="43.53823" lon="5.51676">
        <ele>356.9998</ele>
        <time>2011-03-27T08:42:09Z</time>
      </trkpt>
      <trkpt lat="43.53819" lon="5.51674">
        <ele>356.9998</ele>
        <time>2011-03-27T08:42:10Z</time>
      </trkpt>
      <trkpt lat="43.53816" lon="5.51673">
        <ele>356.9998</ele>
        <time>2011-03-27T08:42:11Z</time>
      </trkpt>
      <trkpt lat="43.53813" lon="5.51671">
        <ele>356.9998</ele>
        <time>2011-03-27T08:42:12Z</time>
      </trkpt>
      <trkpt lat="43.5381" lon="5.51668">
        <ele>356.9998</ele>
        <time>2011-03-27T08:42:13Z</time>
      </trkpt>
      <trkpt lat="43.53807" lon="5.51666">
        <ele>356.9998</ele>
        <time>2011-03-27T08:42:14Z</time>
      </trkpt>
      <trkpt lat="43.53804" lon="5.51664">
        <ele>356.9998</ele>
        <time>2011-03-27T08:42:15Z</time>
      </trkpt>
      <trkpt lat="43.53803" lon="5.51661">
        <ele>356.9998</ele>
        <time>2011-03-27T08:42:16Z</time>
      </trkpt>
      <trkpt lat="43.53801" lon="5.51657">
        <ele>357.9998</ele>
        <time>2011-03-27T08:42:17Z</time>
      </trkpt>
      <trkpt lat="43.538" lon="5.51655">
        <ele>358.9998</ele>
        <time>2011-03-27T08:42:18Z</time>
      </trkpt>
      <trkpt lat="43.53797" lon="5.51639">
        <ele>358.9997</ele>
        <time>2011-03-27T08:42:23Z</time>
      </trkpt>
      <trkpt lat="43.53797" lon="5.51635">
        <ele>358.9997</ele>
        <time>2011-03-27T08:42:24Z</time>
      </trkpt>
      <trkpt lat="43.53797" lon="5.51631">
        <ele>358.9997</ele>
        <time>2011-03-27T08:42:25Z</time>
      </trkpt>
      <trkpt lat="43.53796" lon="5.51628">
        <ele>358.9997</ele>
        <time>2011-03-27T08:42:26Z</time>
      </trkpt>
      <trkpt lat="43.53796" lon="5.51624">
        <ele>358.9997</ele>
        <time>2011-03-27T08:42:27Z</time>
      </trkpt>
      <trkpt lat="43.53796" lon="5.51621">
        <ele>358.9997</ele>
        <time>2011-03-27T08:42:28Z</time>
      </trkpt>
      <trkpt lat="43.53795" lon="5.51618">
        <ele>358.9996</ele>
        <time>2011-03-27T08:42:29Z</time>
      </trkpt>
      <trkpt lat="43.53795" lon="5.51614">
        <ele>358.9996</ele>
        <time>2011-03-27T08:42:30Z</time>
      </trkpt>
      <trkpt lat="43.53795" lon="5.51613">
        <ele>357.9996</ele>
        <time>2011-03-27T08:42:31Z</time>
      </trkpt>
      <trkpt lat="43.53795" lon="5.51611">
        <ele>358.9996</ele>
        <time>2011-03-27T08:42:32Z</time>
      </trkpt>
      <trkpt lat="43.53794" lon="5.51607">
        <ele>358.9996</ele>
        <time>2011-03-27T08:42:33Z</time>
      </trkpt>
      <trkpt lat="43.53792" lon="5.51602">
        <ele>358.9996</ele>
        <time>2011-03-27T08:42:35Z</time>
      </trkpt>
      <trkpt lat="43.53788" lon="5.51596">
        <ele>360.9996</ele>
        <time>2011-03-27T08:42:38Z</time>
      </trkpt>
      <trkpt lat="43.53787" lon="5.51595">
        <ele>360.9996</ele>
        <time>2011-03-27T08:42:39Z</time>
      </trkpt>
      <trkpt lat="43.53785" lon="5.51592">
        <ele>360.9996</ele>
        <time>2011-03-27T08:42:40Z</time>
      </trkpt>
      <trkpt lat="43.53783" lon="5.5159">
        <ele>360.9996</ele>
        <time>2011-03-27T08:42:41Z</time>
      </trkpt>
      <trkpt lat="43.53781" lon="5.51587">
        <ele>360.9995</ele>
        <time>2011-03-27T08:42:42Z</time>
      </trkpt>
      <trkpt lat="43.53779" lon="5.51585">
        <ele>360.9995</ele>
        <time>2011-03-27T08:42:43Z</time>
      </trkpt>
      <trkpt lat="43.53777" lon="5.51581">
        <ele>360.9995</ele>
        <time>2011-03-27T08:42:44Z</time>
      </trkpt>
      <trkpt lat="43.53776" lon="5.51579">
        <ele>360.9995</ele>
        <time>2011-03-27T08:42:45Z</time>
      </trkpt>
      <trkpt lat="43.53773" lon="5.51576">
        <ele>360.9995</ele>
        <time>2011-03-27T08:42:46Z</time>
      </trkpt>
      <trkpt lat="43.5377" lon="5.51572">
        <ele>361.9995</ele>
        <time>2011-03-27T08:42:47Z</time>
      </trkpt>
      <trkpt lat="43.53754" lon="5.51541">
        <ele>362.9994</ele>
        <time>2011-03-27T08:43:01Z</time>
      </trkpt>
      <trkpt lat="43.53749" lon="5.51532">
        <ele>361.9994</ele>
        <time>2011-03-27T08:43:04Z</time>
      </trkpt>
      <trkpt lat="43.53748" lon="5.51531">
        <ele>361.9994</ele>
        <time>2011-03-27T08:43:05Z</time>
      </trkpt>
      <trkpt lat="43.53746" lon="5.51527">
        <ele>360.9993</ele>
        <time>2011-03-27T08:43:06Z</time>
      </trkpt>
      <trkpt lat="43.53745" lon="5.51525">
        <ele>360.9993</ele>
        <time>2011-03-27T08:43:07Z</time>
      </trkpt>
      <trkpt lat="43.53744" lon="5.51521">
        <ele>360.9993</ele>
        <time>2011-03-27T08:43:08Z</time>
      </trkpt>
      <trkpt lat="43.53743" lon="5.51519">
        <ele>360.9993</ele>
        <time>2011-03-27T08:43:09Z</time>
      </trkpt>
      <trkpt lat="43.5374" lon="5.51511">
        <ele>359.9993</ele>
        <time>2011-03-27T08:43:10Z</time>
      </trkpt>
      <trkpt lat="43.53739" lon="5.51508">
        <ele>359.9993</ele>
        <time>2011-03-27T08:43:11Z</time>
      </trkpt>
      <trkpt lat="43.53738" lon="5.515">
        <ele>359.9993</ele>
        <time>2011-03-27T08:43:12Z</time>
      </trkpt>
      <trkpt lat="43.53737" lon="5.51496">
        <ele>358.9993</ele>
        <time>2011-03-27T08:43:13Z</time>
      </trkpt>
      <trkpt lat="43.53737" lon="5.51493">
        <ele>358.9992</ele>
        <time>2011-03-27T08:43:14Z</time>
      </trkpt>
      <trkpt lat="43.53736" lon="5.51492">
        <ele>358.9992</ele>
        <time>2011-03-27T08:43:15Z</time>
      </trkpt>
      <trkpt lat="43.53735" lon="5.51469">
        <ele>355.9992</ele>
        <time>2011-03-27T08:43:20Z</time>
      </trkpt>
      <trkpt lat="43.53735" lon="5.51467">
        <ele>355.9992</ele>
        <time>2011-03-27T08:43:21Z</time>
      </trkpt>
      <trkpt lat="43.53736" lon="5.51463">
        <ele>354.9992</ele>
        <time>2011-03-27T08:43:22Z</time>
      </trkpt>
      <trkpt lat="43.53737" lon="5.51461">
        <ele>354.9992</ele>
        <time>2011-03-27T08:43:23Z</time>
      </trkpt>
      <trkpt lat="43.53738" lon="5.51457">
        <ele>353.9991</ele>
        <time>2011-03-27T08:43:24Z</time>
      </trkpt>
      <trkpt lat="43.5374" lon="5.51455">
        <ele>353.9991</ele>
        <time>2011-03-27T08:43:25Z</time>
      </trkpt>
      <trkpt lat="43.53741" lon="5.51451">
        <ele>352.9991</ele>
        <time>2011-03-27T08:43:26Z</time>
      </trkpt>
      <trkpt lat="43.53742" lon="5.51449">
        <ele>352.9991</ele>
        <time>2011-03-27T08:43:27Z</time>
      </trkpt>
      <trkpt lat="43.53744" lon="5.51444">
        <ele>351.9991</ele>
        <time>2011-03-27T08:43:28Z</time>
      </trkpt>
      <trkpt lat="43.53746" lon="5.51437">
        <ele>350.9991</ele>
        <time>2011-03-27T08:43:30Z</time>
      </trkpt>
      <trkpt lat="43.53746" lon="5.51434">
        <ele>350.9991</ele>
        <time>2011-03-27T08:43:31Z</time>
      </trkpt>
      <trkpt lat="43.53748" lon="5.5143">
        <ele>349.9991</ele>
        <time>2011-03-27T08:43:32Z</time>
      </trkpt>
      <trkpt lat="43.53747" lon="5.51415">
        <ele>347.9991</ele>
        <time>2011-03-27T08:43:37Z</time>
      </trkpt>
      <trkpt lat="43.53746" lon="5.51413">
        <ele>347.9991</ele>
        <time>2011-03-27T08:43:38Z</time>
      </trkpt>
      <trkpt lat="43.53743" lon="5.51407">
        <ele>347.9991</ele>
        <time>2011-03-27T08:43:39Z</time>
      </trkpt>
      <trkpt lat="43.53742" lon="5.51403">
        <ele>347.9991</ele>
        <time>2011-03-27T08:43:40Z</time>
      </trkpt>
      <trkpt lat="43.53739" lon="5.51398">
        <ele>347.999</ele>
        <time>2011-03-27T08:43:41Z</time>
      </trkpt>
      <trkpt lat="43.53737" lon="5.51394">
        <ele>347.999</ele>
        <time>2011-03-27T08:43:42Z</time>
      </trkpt>
      <trkpt lat="43.53733" lon="5.51393">
        <ele>348.999</ele>
        <time>2011-03-27T08:43:43Z</time>
      </trkpt>
      <trkpt lat="43.53731" lon="5.51391">
        <ele>348.999</ele>
        <time>2011-03-27T08:43:44Z</time>
      </trkpt>
      <trkpt lat="43.5373" lon="5.51391">
        <ele>348.999</ele>
        <time>2011-03-27T08:43:45Z</time>
      </trkpt>
      <trkpt lat="43.53721" lon="5.51384">
        <ele>348.999</ele>
        <time>2011-03-27T08:43:49Z</time>
      </trkpt>
      <trkpt lat="43.53719" lon="5.51382">
        <ele>348.999</ele>
        <time>2011-03-27T08:43:50Z</time>
      </trkpt>
      <trkpt lat="43.53717" lon="5.51381">
        <ele>348.999</ele>
        <time>2011-03-27T08:43:51Z</time>
      </trkpt>
      <trkpt lat="43.53714" lon="5.51379">
        <ele>348.9989</ele>
        <time>2011-03-27T08:43:52Z</time>
      </trkpt>
      <trkpt lat="43.53712" lon="5.51377">
        <ele>348.9989</ele>
        <time>2011-03-27T08:43:53Z</time>
      </trkpt>
      <trkpt lat="43.53708" lon="5.51374">
        <ele>348.9989</ele>
        <time>2011-03-27T08:43:54Z</time>
      </trkpt>
      <trkpt lat="43.53702" lon="5.5137">
        <ele>348.9989</ele>
        <time>2011-03-27T08:43:56Z</time>
      </trkpt>
      <trkpt lat="43.537" lon="5.51369">
        <ele>348.9989</ele>
        <time>2011-03-27T08:43:57Z</time>
      </trkpt>
      <trkpt lat="43.53698" lon="5.51366">
        <ele>349.9989</ele>
        <time>2011-03-27T08:43:58Z</time>
      </trkpt>
      <trkpt lat="43.53697" lon="5.51365">
        <ele>349.9989</ele>
        <time>2011-03-27T08:43:59Z</time>
      </trkpt>
      <trkpt lat="43.53696" lon="5.5136">
        <ele>349.9988</ele>
        <time>2011-03-27T08:44:00Z</time>
      </trkpt>
      <trkpt lat="43.53694" lon="5.51355">
        <ele>349.9988</ele>
        <time>2011-03-27T08:44:01Z</time>
      </trkpt>
      <trkpt lat="43.53693" lon="5.51351">
        <ele>349.9988</ele>
        <time>2011-03-27T08:44:02Z</time>
      </trkpt>
      <trkpt lat="43.53693" lon="5.51347">
        <ele>349.9988</ele>
        <time>2011-03-27T08:44:03Z</time>
      </trkpt>
      <trkpt lat="43.53694" lon="5.51344">
        <ele>350.9988</ele>
        <time>2011-03-27T08:44:04Z</time>
      </trkpt>
      <trkpt lat="43.53694" lon="5.51341">
        <ele>350.9988</ele>
        <time>2011-03-27T08:44:05Z</time>
      </trkpt>
      <trkpt lat="43.53694" lon="5.51339">
        <ele>350.9988</ele>
        <time>2011-03-27T08:44:06Z</time>
      </trkpt>
      <trkpt lat="43.53694" lon="5.51334">
        <ele>350.9988</ele>
        <time>2011-03-27T08:44:07Z</time>
      </trkpt>
      <trkpt lat="43.53694" lon="5.51328">
        <ele>350.9988</ele>
        <time>2011-03-27T08:44:08Z</time>
      </trkpt>
      <trkpt lat="43.53694" lon="5.51323">
        <ele>351.9988</ele>
        <time>2011-03-27T08:44:09Z</time>
      </trkpt>
      <trkpt lat="43.53694" lon="5.51319">
        <ele>351.9987</ele>
        <time>2011-03-27T08:44:10Z</time>
      </trkpt>
      <trkpt lat="43.53694" lon="5.51315">
        <ele>351.9987</ele>
        <time>2011-03-27T08:44:11Z</time>
      </trkpt>
      <trkpt lat="43.53694" lon="5.51312">
        <ele>352.9987</ele>
        <time>2011-03-27T08:44:12Z</time>
      </trkpt>
      <trkpt lat="43.53694" lon="5.51305">
        <ele>352.9987</ele>
        <time>2011-03-27T08:44:14Z</time>
      </trkpt>
      <trkpt lat="43.53694" lon="5.51303">
        <ele>352.9987</ele>
        <time>2011-03-27T08:44:15Z</time>
      </trkpt>
      <trkpt lat="43.53694" lon="5.51299">
        <ele>352.9987</ele>
        <time>2011-03-27T08:44:16Z</time>
      </trkpt>
      <trkpt lat="43.53695" lon="5.51296">
        <ele>352.9987</ele>
        <time>2011-03-27T08:44:17Z</time>
      </trkpt>
      <trkpt lat="43.53694" lon="5.51293">
        <ele>353.9987</ele>
        <time>2011-03-27T08:44:18Z</time>
      </trkpt>
      <trkpt lat="43.53694" lon="5.51291">
        <ele>353.9987</ele>
        <time>2011-03-27T08:44:19Z</time>
      </trkpt>
      <trkpt lat="43.53695" lon="5.51291">
        <ele>353.9987</ele>
        <time>2011-03-27T08:44:20Z</time>
      </trkpt>
      <trkpt lat="43.53694" lon="5.51289">
        <ele>354.9987</ele>
        <time>2011-03-27T08:44:21Z</time>
      </trkpt>
      <trkpt lat="43.53695" lon="5.51276">
        <ele>355.9987</ele>
        <time>2011-03-27T08:44:26Z</time>
      </trkpt>
      <trkpt lat="43.53696" lon="5.51273">
        <ele>355.9987</ele>
        <time>2011-03-27T08:44:27Z</time>
      </trkpt>
      <trkpt lat="43.53696" lon="5.51268">
        <ele>355.9987</ele>
        <time>2011-03-27T08:44:29Z</time>
      </trkpt>
      <trkpt lat="43.53697" lon="5.51266">
        <ele>355.9987</ele>
        <time>2011-03-27T08:44:30Z</time>
      </trkpt>
      <trkpt lat="43.53697" lon="5.51265">
        <ele>355.9987</ele>
        <time>2011-03-27T08:44:31Z</time>
      </trkpt>
      <trkpt lat="43.53698" lon="5.51258">
        <ele>356.9986</ele>
        <time>2011-03-27T08:44:32Z</time>
      </trkpt>
      <trkpt lat="43.53699" lon="5.51256">
        <ele>356.9986</ele>
        <time>2011-03-27T08:44:33Z</time>
      </trkpt>
      <trkpt lat="43.537" lon="5.5125">
        <ele>356.9986</ele>
        <time>2011-03-27T08:44:34Z</time>
      </trkpt>
      <trkpt lat="43.53701" lon="5.51242">
        <ele>356.9986</ele>
        <time>2011-03-27T08:44:36Z</time>
      </trkpt>
      <trkpt lat="43.53703" lon="5.51239">
        <ele>356.9986</ele>
        <time>2011-03-27T08:44:37Z</time>
      </trkpt>
      <trkpt lat="43.53703" lon="5.51235">
        <ele>356.9986</ele>
        <time>2011-03-27T08:44:38Z</time>
      </trkpt>
      <trkpt lat="43.53704" lon="5.51233">
        <ele>356.9986</ele>
        <time>2011-03-27T08:44:39Z</time>
      </trkpt>
      <trkpt lat="43.53706" lon="5.51228">
        <ele>355.9986</ele>
        <time>2011-03-27T08:44:40Z</time>
      </trkpt>
      <trkpt lat="43.53707" lon="5.51226">
        <ele>355.9986</ele>
        <time>2011-03-27T08:44:41Z</time>
      </trkpt>
      <trkpt lat="43.53706" lon="5.51223">
        <ele>355.9986</ele>
        <time>2011-03-27T08:44:42Z</time>
      </trkpt>
      <trkpt lat="43.53709" lon="5.51219">
        <ele>355.9986</ele>
        <time>2011-03-27T08:44:44Z</time>
      </trkpt>
      <trkpt lat="43.53711" lon="5.51218">
        <ele>355.9986</ele>
        <time>2011-03-27T08:44:45Z</time>
      </trkpt>
      <trkpt lat="43.53712" lon="5.51218">
        <ele>355.9986</ele>
        <time>2011-03-27T08:44:46Z</time>
      </trkpt>
      <trkpt lat="43.53714" lon="5.51215">
        <ele>355.9986</ele>
        <time>2011-03-27T08:44:47Z</time>
      </trkpt>
      <trkpt lat="43.53721" lon="5.5121">
        <ele>355.9986</ele>
        <time>2011-03-27T08:44:51Z</time>
      </trkpt>
      <trkpt lat="43.53722" lon="5.51209">
        <ele>355.9986</ele>
        <time>2011-03-27T08:44:52Z</time>
      </trkpt>
      <trkpt lat="43.53724" lon="5.51207">
        <ele>355.9986</ele>
        <time>2011-03-27T08:44:53Z</time>
      </trkpt>
      <trkpt lat="43.53725" lon="5.51206">
        <ele>355.9986</ele>
        <time>2011-03-27T08:44:54Z</time>
      </trkpt>
      <trkpt lat="43.53727" lon="5.51204">
        <ele>355.9986</ele>
        <time>2011-03-27T08:44:55Z</time>
      </trkpt>
      <trkpt lat="43.53733" lon="5.51196">
        <ele>355.9986</ele>
        <time>2011-03-27T08:44:58Z</time>
      </trkpt>
      <trkpt lat="43.53733" lon="5.51194">
        <ele>355.9986</ele>
        <time>2011-03-27T08:44:59Z</time>
      </trkpt>
      <trkpt lat="43.53736" lon="5.51191">
        <ele>356.9986</ele>
        <time>2011-03-27T08:45:00Z</time>
      </trkpt>
      <trkpt lat="43.53737" lon="5.51189">
        <ele>356.9986</ele>
        <time>2011-03-27T08:45:01Z</time>
      </trkpt>
      <trkpt lat="43.53738" lon="5.51185">
        <ele>356.9986</ele>
        <time>2011-03-27T08:45:02Z</time>
      </trkpt>
      <trkpt lat="43.53738" lon="5.51176">
        <ele>358.9985</ele>
        <time>2011-03-27T08:45:06Z</time>
      </trkpt>
      <trkpt lat="43.53737" lon="5.51173">
        <ele>359.9985</ele>
        <time>2011-03-27T08:45:07Z</time>
      </trkpt>
      <trkpt lat="43.53735" lon="5.5117">
        <ele>359.9985</ele>
        <time>2011-03-27T08:45:08Z</time>
      </trkpt>
      <trkpt lat="43.53734" lon="5.51167">
        <ele>359.9985</ele>
        <time>2011-03-27T08:45:09Z</time>
      </trkpt>
      <trkpt lat="43.53733" lon="5.51165">
        <ele>359.9985</ele>
        <time>2011-03-27T08:45:10Z</time>
      </trkpt>
      <trkpt lat="43.5373" lon="5.51162">
        <ele>360.9985</ele>
        <time>2011-03-27T08:45:11Z</time>
      </trkpt>
      <trkpt lat="43.53728" lon="5.5116">
        <ele>360.9985</ele>
        <time>2011-03-27T08:45:12Z</time>
      </trkpt>
      <trkpt lat="43.53726" lon="5.51155">
        <ele>360.9985</ele>
        <time>2011-03-27T08:45:13Z</time>
      </trkpt>
      <trkpt lat="43.53725" lon="5.51153">
        <ele>360.9984</ele>
        <time>2011-03-27T08:45:14Z</time>
      </trkpt>
      <trkpt lat="43.53723" lon="5.51149">
        <ele>360.9984</ele>
        <time>2011-03-27T08:45:15Z</time>
      </trkpt>
      <trkpt lat="43.53722" lon="5.51146">
        <ele>360.9984</ele>
        <time>2011-03-27T08:45:16Z</time>
      </trkpt>
      <trkpt lat="43.53721" lon="5.51142">
        <ele>360.9984</ele>
        <time>2011-03-27T08:45:17Z</time>
      </trkpt>
      <trkpt lat="43.53719" lon="5.51138">
        <ele>359.9984</ele>
        <time>2011-03-27T08:45:19Z</time>
      </trkpt>
      <trkpt lat="43.53719" lon="5.51136">
        <ele>359.9984</ele>
        <time>2011-03-27T08:45:20Z</time>
      </trkpt>
      <trkpt lat="43.53718" lon="5.51135">
        <ele>359.9984</ele>
        <time>2011-03-27T08:45:21Z</time>
      </trkpt>
      <trkpt lat="43.53718" lon="5.51134">
        <ele>359.9984</ele>
        <time>2011-03-27T08:45:22Z</time>
      </trkpt>
      <trkpt lat="43.53717" lon="5.51132">
        <ele>358.9984</ele>
        <time>2011-03-27T08:45:23Z</time>
      </trkpt>
      <trkpt lat="43.53717" lon="5.51131">
        <ele>358.9984</ele>
        <time>2011-03-27T08:45:24Z</time>
      </trkpt>
      <trkpt lat="43.53717" lon="5.51129">
        <ele>358.9984</ele>
        <time>2011-03-27T08:45:25Z</time>
      </trkpt>
      <trkpt lat="43.53717" lon="5.51127">
        <ele>358.9984</ele>
        <time>2011-03-27T08:45:26Z</time>
      </trkpt>
      <trkpt lat="43.53717" lon="5.51127">
        <ele>358.9984</ele>
        <time>2011-03-27T08:45:27Z</time>
      </trkpt>
      <trkpt lat="43.53717" lon="5.51125">
        <ele>358.9984</ele>
        <time>2011-03-27T08:45:28Z</time>
      </trkpt>
      <trkpt lat="43.53717" lon="5.51124">
        <ele>358.9984</ele>
        <time>2011-03-27T08:45:29Z</time>
      </trkpt>
      <trkpt lat="43.53717" lon="5.51121">
        <ele>358.9984</ele>
        <time>2011-03-27T08:45:30Z</time>
      </trkpt>
      <trkpt lat="43.53717" lon="5.5112">
        <ele>358.9984</ele>
        <time>2011-03-27T08:45:31Z</time>
      </trkpt>
      <trkpt lat="43.53717" lon="5.51118">
        <ele>357.9984</ele>
        <time>2011-03-27T08:45:32Z</time>
      </trkpt>
      <trkpt lat="43.53717" lon="5.51117">
        <ele>357.9984</ele>
        <time>2011-03-27T08:45:33Z</time>
      </trkpt>
      <trkpt lat="43.53717" lon="5.51115">
        <ele>357.9984</ele>
        <time>2011-03-27T08:45:34Z</time>
      </trkpt>
      <trkpt lat="43.53717" lon="5.51115">
        <ele>357.9984</ele>
        <time>2011-03-27T08:45:35Z</time>
      </trkpt>
      <trkpt lat="43.53717" lon="5.51113">
        <ele>357.9984</ele>
        <time>2011-03-27T08:45:36Z</time>
      </trkpt>
      <trkpt lat="43.53717" lon="5.51112">
        <ele>357.9984</ele>
        <time>2011-03-27T08:45:37Z</time>
      </trkpt>
      <trkpt lat="43.53717" lon="5.51111">
        <ele>357.9984</ele>
        <time>2011-03-27T08:45:38Z</time>
      </trkpt>
      <trkpt lat="43.53718" lon="5.5111">
        <ele>357.9984</ele>
        <time>2011-03-27T08:45:39Z</time>
      </trkpt>
      <trkpt lat="43.53718" lon="5.51108">
        <ele>357.9984</ele>
        <time>2011-03-27T08:45:40Z</time>
      </trkpt>
      <trkpt lat="43.53718" lon="5.51107">
        <ele>357.9984</ele>
        <time>2011-03-27T08:45:41Z</time>
      </trkpt>
      <trkpt lat="43.53719" lon="5.51105">
        <ele>357.9983</ele>
        <time>2011-03-27T08:45:42Z</time>
      </trkpt>
      <trkpt lat="43.53718" lon="5.51098">
        <ele>358.9983</ele>
        <time>2011-03-27T08:45:47Z</time>
      </trkpt>
      <trkpt lat="43.53718" lon="5.51097">
        <ele>358.9983</ele>
        <time>2011-03-27T08:45:48Z</time>
      </trkpt>
      <trkpt lat="43.53718" lon="5.51095">
        <ele>358.9983</ele>
        <time>2011-03-27T08:45:49Z</time>
      </trkpt>
      <trkpt lat="43.53722" lon="5.51066">
        <ele>361.9983</ele>
        <time>2011-03-27T08:46:03Z</time>
      </trkpt>
      <trkpt lat="43.53727" lon="5.51053">
        <ele>361.9982</ele>
        <time>2011-03-27T08:46:10Z</time>
      </trkpt>
      <trkpt lat="43.53729" lon="5.5104">
        <ele>362.9982</ele>
        <time>2011-03-27T08:46:17Z</time>
      </trkpt>
      <trkpt lat="43.53726" lon="5.51028">
        <ele>362.9982</ele>
        <time>2011-03-27T08:46:25Z</time>
      </trkpt>
      <trkpt lat="43.53721" lon="5.51014">
        <ele>363.9981</ele>
        <time>2011-03-27T08:46:34Z</time>
      </trkpt>
      <trkpt lat="43.53716" lon="5.51001">
        <ele>364.9981</ele>
        <time>2011-03-27T08:46:44Z</time>
      </trkpt>
      <trkpt lat="43.53713" lon="5.50988">
        <ele>363.998</ele>
        <time>2011-03-27T08:46:54Z</time>
      </trkpt>
      <trkpt lat="43.53713" lon="5.50967">
        <ele>364.998</ele>
        <time>2011-03-27T08:47:02Z</time>
      </trkpt>
      <trkpt lat="43.53716" lon="5.50945">
        <ele>365.998</ele>
        <time>2011-03-27T08:47:07Z</time>
      </trkpt>
      <trkpt lat="43.53716" lon="5.50942">
        <ele>365.998</ele>
        <time>2011-03-27T08:47:08Z</time>
      </trkpt>
      <trkpt lat="43.53717" lon="5.50935">
        <ele>365.998</ele>
        <time>2011-03-27T08:47:09Z</time>
      </trkpt>
      <trkpt lat="43.53719" lon="5.50928">
        <ele>366.9979</ele>
        <time>2011-03-27T08:47:10Z</time>
      </trkpt>
      <trkpt lat="43.5372" lon="5.50922">
        <ele>367.9979</ele>
        <time>2011-03-27T08:47:11Z</time>
      </trkpt>
      <trkpt lat="43.53721" lon="5.50917">
        <ele>367.9979</ele>
        <time>2011-03-27T08:47:12Z</time>
      </trkpt>
      <trkpt lat="43.53722" lon="5.50912">
        <ele>367.9979</ele>
        <time>2011-03-27T08:47:13Z</time>
      </trkpt>
      <trkpt lat="43.53722" lon="5.50907">
        <ele>367.9979</ele>
        <time>2011-03-27T08:47:14Z</time>
      </trkpt>
      <trkpt lat="43.53723" lon="5.50903">
        <ele>367.9979</ele>
        <time>2011-03-27T08:47:15Z</time>
      </trkpt>
      <trkpt lat="43.53724" lon="5.50898">
        <ele>367.9979</ele>
        <time>2011-03-27T08:47:16Z</time>
      </trkpt>
      <trkpt lat="43.53725" lon="5.50894">
        <ele>367.9979</ele>
        <time>2011-03-27T08:47:17Z</time>
      </trkpt>
      <trkpt lat="43.53726" lon="5.5089">
        <ele>367.9979</ele>
        <time>2011-03-27T08:47:18Z</time>
      </trkpt>
      <trkpt lat="43.53727" lon="5.50886">
        <ele>368.9979</ele>
        <time>2011-03-27T08:47:19Z</time>
      </trkpt>
      <trkpt lat="43.53728" lon="5.50882">
        <ele>368.9979</ele>
        <time>2011-03-27T08:47:20Z</time>
      </trkpt>
      <trkpt lat="43.53729" lon="5.50879">
        <ele>368.9979</ele>
        <time>2011-03-27T08:47:21Z</time>
      </trkpt>
      <trkpt lat="43.5373" lon="5.50874">
        <ele>368.9978</ele>
        <time>2011-03-27T08:47:22Z</time>
      </trkpt>
      <trkpt lat="43.5373" lon="5.5087">
        <ele>368.9978</ele>
        <time>2011-03-27T08:47:23Z</time>
      </trkpt>
      <trkpt lat="43.5373" lon="5.50866">
        <ele>368.9978</ele>
        <time>2011-03-27T08:47:24Z</time>
      </trkpt>
      <trkpt lat="43.53731" lon="5.50863">
        <ele>369.9978</ele>
        <time>2011-03-27T08:47:25Z</time>
      </trkpt>
      <trkpt lat="43.53731" lon="5.50863">
        <ele>369.9978</ele>
        <time>2011-03-27T08:47:26Z</time>
      </trkpt>
      <trkpt lat="43.53732" lon="5.5084">
        <ele>365.9978</ele>
        <time>2011-03-27T08:47:36Z</time>
      </trkpt>
      <trkpt lat="43.53732" lon="5.50829">
        <ele>364.9977</ele>
        <time>2011-03-27T08:47:39Z</time>
      </trkpt>
      <trkpt lat="43.53731" lon="5.50825">
        <ele>363.9977</ele>
        <time>2011-03-27T08:47:40Z</time>
      </trkpt>
      <trkpt lat="43.5373" lon="5.50813">
        <ele>363.9977</ele>
        <time>2011-03-27T08:47:43Z</time>
      </trkpt>
      <trkpt lat="43.53729" lon="5.50809">
        <ele>363.9977</ele>
        <time>2011-03-27T08:47:44Z</time>
      </trkpt>
      <trkpt lat="43.53728" lon="5.50805">
        <ele>364.9977</ele>
        <time>2011-03-27T08:47:45Z</time>
      </trkpt>
      <trkpt lat="43.53727" lon="5.50803">
        <ele>363.9977</ele>
        <time>2011-03-27T08:47:46Z</time>
      </trkpt>
      <trkpt lat="43.53726" lon="5.508">
        <ele>363.9977</ele>
        <time>2011-03-27T08:47:47Z</time>
      </trkpt>
      <trkpt lat="43.53725" lon="5.50797">
        <ele>363.9977</ele>
        <time>2011-03-27T08:47:48Z</time>
      </trkpt>
      <trkpt lat="43.53703" lon="5.50769">
        <ele>361.9976</ele>
        <time>2011-03-27T08:47:57Z</time>
      </trkpt>
      <trkpt lat="43.53698" lon="5.50762">
        <ele>361.9975</ele>
        <time>2011-03-27T08:47:59Z</time>
      </trkpt>
      <trkpt lat="43.53696" lon="5.5076">
        <ele>361.9975</ele>
        <time>2011-03-27T08:48:00Z</time>
      </trkpt>
      <trkpt lat="43.53692" lon="5.50755">
        <ele>360.9975</ele>
        <time>2011-03-27T08:48:01Z</time>
      </trkpt>
      <trkpt lat="43.53689" lon="5.50751">
        <ele>360.9975</ele>
        <time>2011-03-27T08:48:02Z</time>
      </trkpt>
      <trkpt lat="43.53685" lon="5.50747">
        <ele>359.9975</ele>
        <time>2011-03-27T08:48:03Z</time>
      </trkpt>
      <trkpt lat="43.53682" lon="5.50743">
        <ele>359.9974</ele>
        <time>2011-03-27T08:48:04Z</time>
      </trkpt>
      <trkpt lat="43.53679" lon="5.50739">
        <ele>358.9974</ele>
        <time>2011-03-27T08:48:05Z</time>
      </trkpt>
      <trkpt lat="43.53677" lon="5.50735">
        <ele>358.9974</ele>
        <time>2011-03-27T08:48:06Z</time>
      </trkpt>
      <trkpt lat="43.53674" lon="5.50731">
        <ele>357.9974</ele>
        <time>2011-03-27T08:48:07Z</time>
      </trkpt>
      <trkpt lat="43.53672" lon="5.50726">
        <ele>357.9974</ele>
        <time>2011-03-27T08:48:08Z</time>
      </trkpt>
      <trkpt lat="43.53671" lon="5.50723">
        <ele>357.9974</ele>
        <time>2011-03-27T08:48:09Z</time>
      </trkpt>
      <trkpt lat="43.53669" lon="5.5072">
        <ele>357.9974</ele>
        <time>2011-03-27T08:48:10Z</time>
      </trkpt>
      <trkpt lat="43.53668" lon="5.50717">
        <ele>357.9973</ele>
        <time>2011-03-27T08:48:11Z</time>
      </trkpt>
      <trkpt lat="43.53666" lon="5.50713">
        <ele>356.9973</ele>
        <time>2011-03-27T08:48:12Z</time>
      </trkpt>
      <trkpt lat="43.53664" lon="5.50711">
        <ele>356.9973</ele>
        <time>2011-03-27T08:48:13Z</time>
      </trkpt>
      <trkpt lat="43.53662" lon="5.50707">
        <ele>356.9973</ele>
        <time>2011-03-27T08:48:14Z</time>
      </trkpt>
      <trkpt lat="43.53661" lon="5.50704">
        <ele>356.9973</ele>
        <time>2011-03-27T08:48:15Z</time>
      </trkpt>
      <trkpt lat="43.5366" lon="5.50702">
        <ele>356.9973</ele>
        <time>2011-03-27T08:48:16Z</time>
      </trkpt>
      <trkpt lat="43.53659" lon="5.50703">
        <ele>357.9973</ele>
        <time>2011-03-27T08:48:17Z</time>
      </trkpt>
      <trkpt lat="43.53643" lon="5.50674">
        <ele>359.9972</ele>
        <time>2011-03-27T08:48:29Z</time>
      </trkpt>
      <trkpt lat="43.53643" lon="5.50672">
        <ele>359.9972</ele>
        <time>2011-03-27T08:48:30Z</time>
      </trkpt>
      <trkpt lat="43.53642" lon="5.50669">
        <ele>359.9972</ele>
        <time>2011-03-27T08:48:31Z</time>
      </trkpt>
      <trkpt lat="43.53626" lon="5.50647">
        <ele>358.9971</ele>
        <time>2011-03-27T08:48:38Z</time>
      </trkpt>
      <trkpt lat="43.53625" lon="5.50645">
        <ele>358.9971</ele>
        <time>2011-03-27T08:48:39Z</time>
      </trkpt>
      <trkpt lat="43.53623" lon="5.50642">
        <ele>358.9971</ele>
        <time>2011-03-27T08:48:40Z</time>
      </trkpt>
      <trkpt lat="43.53618" lon="5.50635">
        <ele>357.9971</ele>
        <time>2011-03-27T08:48:42Z</time>
      </trkpt>
      <trkpt lat="43.53616" lon="5.50633">
        <ele>357.997</ele>
        <time>2011-03-27T08:48:43Z</time>
      </trkpt>
      <trkpt lat="43.53613" lon="5.50629">
        <ele>356.997</ele>
        <time>2011-03-27T08:48:44Z</time>
      </trkpt>
      <trkpt lat="43.53605" lon="5.5062">
        <ele>356.997</ele>
        <time>2011-03-27T08:48:47Z</time>
      </trkpt>
      <trkpt lat="43.53604" lon="5.50618">
        <ele>356.997</ele>
        <time>2011-03-27T08:48:48Z</time>
      </trkpt>
      <trkpt lat="43.53598" lon="5.50613">
        <ele>355.9969</ele>
        <time>2011-03-27T08:48:49Z</time>
      </trkpt>
      <trkpt lat="43.53595" lon="5.5061">
        <ele>355.9969</ele>
        <time>2011-03-27T08:48:50Z</time>
      </trkpt>
      <trkpt lat="43.53587" lon="5.50601">
        <ele>355.9969</ele>
        <time>2011-03-27T08:48:52Z</time>
      </trkpt>
      <trkpt lat="43.53578" lon="5.50591">
        <ele>355.9969</ele>
        <time>2011-03-27T08:48:56Z</time>
      </trkpt>
      <trkpt lat="43.53564" lon="5.50581">
        <ele>354.9968</ele>
        <time>2011-03-27T08:49:01Z</time>
      </trkpt>
      <trkpt lat="43.53553" lon="5.50572">
        <ele>353.9968</ele>
        <time>2011-03-27T08:49:06Z</time>
      </trkpt>
      <trkpt lat="43.53552" lon="5.5057">
        <ele>353.9968</ele>
        <time>2011-03-27T08:49:07Z</time>
      </trkpt>
      <trkpt lat="43.53548" lon="5.50565">
        <ele>353.9967</ele>
        <time>2011-03-27T08:49:08Z</time>
      </trkpt>
      <trkpt lat="43.53541" lon="5.50557">
        <ele>352.9967</ele>
        <time>2011-03-27T08:49:10Z</time>
      </trkpt>
      <trkpt lat="43.5354" lon="5.50554">
        <ele>352.9967</ele>
        <time>2011-03-27T08:49:11Z</time>
      </trkpt>
      <trkpt lat="43.53538" lon="5.5055">
        <ele>352.9967</ele>
        <time>2011-03-27T08:49:12Z</time>
      </trkpt>
      <trkpt lat="43.53536" lon="5.50546">
        <ele>351.9967</ele>
        <time>2011-03-27T08:49:13Z</time>
      </trkpt>
      <trkpt lat="43.53535" lon="5.50543">
        <ele>351.9967</ele>
        <time>2011-03-27T08:49:14Z</time>
      </trkpt>
      <trkpt lat="43.53533" lon="5.50538">
        <ele>351.9966</ele>
        <time>2011-03-27T08:49:15Z</time>
      </trkpt>
      <trkpt lat="43.53531" lon="5.50534">
        <ele>351.9966</ele>
        <time>2011-03-27T08:49:16Z</time>
      </trkpt>
      <trkpt lat="43.5353" lon="5.50532">
        <ele>351.9966</ele>
        <time>2011-03-27T08:49:17Z</time>
      </trkpt>
      <trkpt lat="43.5352" lon="5.5051">
        <ele>352.9966</ele>
        <time>2011-03-27T08:49:25Z</time>
      </trkpt>
      <trkpt lat="43.5351" lon="5.50475">
        <ele>353.9965</ele>
        <time>2011-03-27T08:49:34Z</time>
      </trkpt>
      <trkpt lat="43.53508" lon="5.50471">
        <ele>354.9965</ele>
        <time>2011-03-27T08:49:35Z</time>
      </trkpt>
      <trkpt lat="43.53507" lon="5.50467">
        <ele>354.9964</ele>
        <time>2011-03-27T08:49:36Z</time>
      </trkpt>
      <trkpt lat="43.53506" lon="5.50464">
        <ele>354.9964</ele>
        <time>2011-03-27T08:49:37Z</time>
      </trkpt>
      <trkpt lat="43.53505" lon="5.5046">
        <ele>355.9964</ele>
        <time>2011-03-27T08:49:38Z</time>
      </trkpt>
      <trkpt lat="43.535" lon="5.50445">
        <ele>355.9964</ele>
        <time>2011-03-27T08:49:43Z</time>
      </trkpt>
      <trkpt lat="43.53498" lon="5.50442">
        <ele>355.9964</ele>
        <time>2011-03-27T08:49:44Z</time>
      </trkpt>
      <trkpt lat="43.53494" lon="5.50433">
        <ele>355.9963</ele>
        <time>2011-03-27T08:49:46Z</time>
      </trkpt>
      <trkpt lat="43.53492" lon="5.50428">
        <ele>355.9963</ele>
        <time>2011-03-27T08:49:47Z</time>
      </trkpt>
      <trkpt lat="43.53491" lon="5.50424">
        <ele>355.9963</ele>
        <time>2011-03-27T08:49:48Z</time>
      </trkpt>
      <trkpt lat="43.5349" lon="5.50419">
        <ele>356.9963</ele>
        <time>2011-03-27T08:49:49Z</time>
      </trkpt>
      <trkpt lat="43.53489" lon="5.50415">
        <ele>356.9963</ele>
        <time>2011-03-27T08:49:50Z</time>
      </trkpt>
      <trkpt lat="43.53489" lon="5.5041">
        <ele>356.9963</ele>
        <time>2011-03-27T08:49:51Z</time>
      </trkpt>
      <trkpt lat="43.53489" lon="5.50406">
        <ele>356.9962</ele>
        <time>2011-03-27T08:49:52Z</time>
      </trkpt>
      <trkpt lat="43.53488" lon="5.50401">
        <ele>357.9962</ele>
        <time>2011-03-27T08:49:53Z</time>
      </trkpt>
      <trkpt lat="43.53488" lon="5.50397">
        <ele>357.9962</ele>
        <time>2011-03-27T08:49:54Z</time>
      </trkpt>
      <trkpt lat="43.53487" lon="5.50392">
        <ele>357.9962</ele>
        <time>2011-03-27T08:49:55Z</time>
      </trkpt>
      <trkpt lat="43.53487" lon="5.50388">
        <ele>357.9962</ele>
        <time>2011-03-27T08:49:56Z</time>
      </trkpt>
      <trkpt lat="43.53486" lon="5.50384">
        <ele>357.9962</ele>
        <time>2011-03-27T08:49:57Z</time>
      </trkpt>
      <trkpt lat="43.53486" lon="5.50379">
        <ele>357.9962</ele>
        <time>2011-03-27T08:49:58Z</time>
      </trkpt>
      <trkpt lat="43.53485" lon="5.50376">
        <ele>357.9962</ele>
        <time>2011-03-27T08:49:59Z</time>
      </trkpt>
      <trkpt lat="43.53485" lon="5.50372">
        <ele>357.9962</ele>
        <time>2011-03-27T08:50:00Z</time>
      </trkpt>
      <trkpt lat="43.53485" lon="5.50368">
        <ele>357.9962</ele>
        <time>2011-03-27T08:50:01Z</time>
      </trkpt>
      <trkpt lat="43.53484" lon="5.50365">
        <ele>357.9962</ele>
        <time>2011-03-27T08:50:02Z</time>
      </trkpt>
      <trkpt lat="43.53482" lon="5.50362">
        <ele>358.9962</ele>
        <time>2011-03-27T08:50:03Z</time>
      </trkpt>
      <trkpt lat="43.53479" lon="5.50358">
        <ele>358.9961</ele>
        <time>2011-03-27T08:50:04Z</time>
      </trkpt>
      <trkpt lat="43.53476" lon="5.50355">
        <ele>359.9961</ele>
        <time>2011-03-27T08:50:05Z</time>
      </trkpt>
      <trkpt lat="43.53472" lon="5.50352">
        <ele>359.9961</ele>
        <time>2011-03-27T08:50:06Z</time>
      </trkpt>
      <trkpt lat="43.53468" lon="5.50349">
        <ele>359.9961</ele>
        <time>2011-03-27T08:50:07Z</time>
      </trkpt>
      <trkpt lat="43.53463" lon="5.50347">
        <ele>360.9961</ele>
        <time>2011-03-27T08:50:08Z</time>
      </trkpt>
      <trkpt lat="43.53459" lon="5.50345">
        <ele>360.9961</ele>
        <time>2011-03-27T08:50:09Z</time>
      </trkpt>
      <trkpt lat="43.53455" lon="5.50343">
        <ele>360.996</ele>
        <time>2011-03-27T08:50:10Z</time>
      </trkpt>
      <trkpt lat="43.53452" lon="5.50342">
        <ele>360.996</ele>
        <time>2011-03-27T08:50:11Z</time>
      </trkpt>
      <trkpt lat="43.53448" lon="5.50341">
        <ele>360.996</ele>
        <time>2011-03-27T08:50:12Z</time>
      </trkpt>
      <trkpt lat="43.53445" lon="5.50339">
        <ele>360.996</ele>
        <time>2011-03-27T08:50:13Z</time>
      </trkpt>
      <trkpt lat="43.53442" lon="5.50338">
        <ele>359.996</ele>
        <time>2011-03-27T08:50:14Z</time>
      </trkpt>
      <trkpt lat="43.53437" lon="5.50337">
        <ele>359.996</ele>
        <time>2011-03-27T08:50:15Z</time>
      </trkpt>
      <trkpt lat="43.53433" lon="5.50336">
        <ele>359.996</ele>
        <time>2011-03-27T08:50:16Z</time>
      </trkpt>
      <trkpt lat="43.53428" lon="5.50335">
        <ele>360.996</ele>
        <time>2011-03-27T08:50:17Z</time>
      </trkpt>
      <trkpt lat="43.53422" lon="5.50335">
        <ele>360.9959</ele>
        <time>2011-03-27T08:50:18Z</time>
      </trkpt>
      <trkpt lat="43.53417" lon="5.50333">
        <ele>360.9959</ele>
        <time>2011-03-27T08:50:19Z</time>
      </trkpt>
      <trkpt lat="43.53412" lon="5.50332">
        <ele>360.9959</ele>
        <time>2011-03-27T08:50:20Z</time>
      </trkpt>
      <trkpt lat="43.53407" lon="5.50332">
        <ele>360.9959</ele>
        <time>2011-03-27T08:50:21Z</time>
      </trkpt>
      <trkpt lat="43.53403" lon="5.50331">
        <ele>360.9959</ele>
        <time>2011-03-27T08:50:22Z</time>
      </trkpt>
      <trkpt lat="43.53399" lon="5.5033">
        <ele>360.9959</ele>
        <time>2011-03-27T08:50:23Z</time>
      </trkpt>
      <trkpt lat="43.53397" lon="5.50331">
        <ele>360.9959</ele>
        <time>2011-03-27T08:50:24Z</time>
      </trkpt>
      <trkpt lat="43.53393" lon="5.50331">
        <ele>360.9959</ele>
        <time>2011-03-27T08:50:25Z</time>
      </trkpt>
      <trkpt lat="43.53389" lon="5.5033">
        <ele>360.9958</ele>
        <time>2011-03-27T08:50:26Z</time>
      </trkpt>
      <trkpt lat="43.53387" lon="5.50331">
        <ele>360.9958</ele>
        <time>2011-03-27T08:50:27Z</time>
      </trkpt>
      <trkpt lat="43.53382" lon="5.50331">
        <ele>361.9958</ele>
        <time>2011-03-27T08:50:28Z</time>
      </trkpt>
      <trkpt lat="43.53378" lon="5.50331">
        <ele>361.9958</ele>
        <time>2011-03-27T08:50:29Z</time>
      </trkpt>
      <trkpt lat="43.53378" lon="5.50331">
        <ele>361.9958</ele>
        <time>2011-03-27T08:50:30Z</time>
      </trkpt>
      <trkpt lat="43.53374" lon="5.50331">
        <ele>361.9958</ele>
        <time>2011-03-27T08:50:31Z</time>
      </trkpt>
      <trkpt lat="43.53371" lon="5.50332">
        <ele>361.9958</ele>
        <time>2011-03-27T08:50:32Z</time>
      </trkpt>
      <trkpt lat="43.53369" lon="5.50332">
        <ele>361.9958</ele>
        <time>2011-03-27T08:50:33Z</time>
      </trkpt>
      <trkpt lat="43.53366" lon="5.50333">
        <ele>361.9958</ele>
        <time>2011-03-27T08:50:34Z</time>
      </trkpt>
      <trkpt lat="43.53363" lon="5.50334">
        <ele>360.9958</ele>
        <time>2011-03-27T08:50:35Z</time>
      </trkpt>
      <trkpt lat="43.53359" lon="5.50336">
        <ele>359.9958</ele>
        <time>2011-03-27T08:50:36Z</time>
      </trkpt>
      <trkpt lat="43.53356" lon="5.50337">
        <ele>358.9958</ele>
        <time>2011-03-27T08:50:37Z</time>
      </trkpt>
      <trkpt lat="43.53352" lon="5.50339">
        <ele>358.9958</ele>
        <time>2011-03-27T08:50:38Z</time>
      </trkpt>
      <trkpt lat="43.53348" lon="5.50341">
        <ele>358.9958</ele>
        <time>2011-03-27T08:50:39Z</time>
      </trkpt>
      <trkpt lat="43.53344" lon="5.50342">
        <ele>358.9958</ele>
        <time>2011-03-27T08:50:40Z</time>
      </trkpt>
      <trkpt lat="43.53341" lon="5.50344">
        <ele>359.9958</ele>
        <time>2011-03-27T08:50:41Z</time>
      </trkpt>
      <trkpt lat="43.53338" lon="5.50345">
        <ele>359.9958</ele>
        <time>2011-03-27T08:50:42Z</time>
      </trkpt>
      <trkpt lat="43.53334" lon="5.50347">
        <ele>359.9958</ele>
        <time>2011-03-27T08:50:43Z</time>
      </trkpt>
      <trkpt lat="43.53331" lon="5.50349">
        <ele>360.9958</ele>
        <time>2011-03-27T08:50:44Z</time>
      </trkpt>
      <trkpt lat="43.53327" lon="5.50351">
        <ele>360.9958</ele>
        <time>2011-03-27T08:50:45Z</time>
      </trkpt>
      <trkpt lat="43.53323" lon="5.50353">
        <ele>360.9958</ele>
        <time>2011-03-27T08:50:46Z</time>
      </trkpt>
      <trkpt lat="43.53322" lon="5.50354">
        <ele>360.9958</ele>
        <time>2011-03-27T08:50:47Z</time>
      </trkpt>
      <trkpt lat="43.53317" lon="5.50357">
        <ele>360.9958</ele>
        <time>2011-03-27T08:50:49Z</time>
      </trkpt>
      <trkpt lat="43.53315" lon="5.50358">
        <ele>359.9958</ele>
        <time>2011-03-27T08:50:50Z</time>
      </trkpt>
      <trkpt lat="43.53312" lon="5.50359">
        <ele>359.9958</ele>
        <time>2011-03-27T08:50:51Z</time>
      </trkpt>
      <trkpt lat="43.53309" lon="5.5036">
        <ele>359.9958</ele>
        <time>2011-03-27T08:50:52Z</time>
      </trkpt>
      <trkpt lat="43.53307" lon="5.50361">
        <ele>358.9958</ele>
        <time>2011-03-27T08:50:53Z</time>
      </trkpt>
      <trkpt lat="43.53304" lon="5.50362">
        <ele>358.9957</ele>
        <time>2011-03-27T08:50:54Z</time>
      </trkpt>
      <trkpt lat="43.53301" lon="5.50363">
        <ele>358.9957</ele>
        <time>2011-03-27T08:50:55Z</time>
      </trkpt>
      <trkpt lat="43.53299" lon="5.50364">
        <ele>358.9957</ele>
        <time>2011-03-27T08:50:56Z</time>
      </trkpt>
      <trkpt lat="43.53296" lon="5.50365">
        <ele>358.9957</ele>
        <time>2011-03-27T08:50:57Z</time>
      </trkpt>
      <trkpt lat="43.53292" lon="5.50365">
        <ele>358.9957</ele>
        <time>2011-03-27T08:50:58Z</time>
      </trkpt>
      <trkpt lat="43.5329" lon="5.50366">
        <ele>358.9957</ele>
        <time>2011-03-27T08:50:59Z</time>
      </trkpt>
      <trkpt lat="43.53287" lon="5.50365">
        <ele>358.9957</ele>
        <time>2011-03-27T08:51:00Z</time>
      </trkpt>
      <trkpt lat="43.53284" lon="5.50366">
        <ele>358.9957</ele>
        <time>2011-03-27T08:51:01Z</time>
      </trkpt>
      <trkpt lat="43.53281" lon="5.50365">
        <ele>358.9957</ele>
        <time>2011-03-27T08:51:02Z</time>
      </trkpt>
      <trkpt lat="43.5328" lon="5.50365">
        <ele>358.9957</ele>
        <time>2011-03-27T08:51:03Z</time>
      </trkpt>
      <trkpt lat="43.53279" lon="5.50364">
        <ele>358.9957</ele>
        <time>2011-03-27T08:51:04Z</time>
      </trkpt>
      <trkpt lat="43.53273" lon="5.50356">
        <ele>358.9957</ele>
        <time>2011-03-27T08:51:13Z</time>
      </trkpt>
      <trkpt lat="43.53273" lon="5.50355">
        <ele>358.9957</ele>
        <time>2011-03-27T08:51:14Z</time>
      </trkpt>
      <trkpt lat="43.53272" lon="5.50355">
        <ele>358.9957</ele>
        <time>2011-03-27T08:51:15Z</time>
      </trkpt>
      <trkpt lat="43.53272" lon="5.50354">
        <ele>358.9957</ele>
        <time>2011-03-27T08:51:16Z</time>
      </trkpt>
      <trkpt lat="43.53271" lon="5.50354">
        <ele>358.9956</ele>
        <time>2011-03-27T08:51:17Z</time>
      </trkpt>
      <trkpt lat="43.5327" lon="5.50353">
        <ele>358.9956</ele>
        <time>2011-03-27T08:51:18Z</time>
      </trkpt>
      <trkpt lat="43.53269" lon="5.50351">
        <ele>359.9956</ele>
        <time>2011-03-27T08:51:19Z</time>
      </trkpt>
      <trkpt lat="43.53268" lon="5.5034">
        <ele>361.9956</ele>
        <time>2011-03-27T08:51:25Z</time>
      </trkpt>
      <trkpt lat="43.53268" lon="5.50338">
        <ele>361.9956</ele>
        <time>2011-03-27T08:51:26Z</time>
      </trkpt>
      <trkpt lat="43.53268" lon="5.50335">
        <ele>361.9956</ele>
        <time>2011-03-27T08:51:27Z</time>
      </trkpt>
      <trkpt lat="43.53267" lon="5.50338">
        <ele>362.9956</ele>
        <time>2011-03-27T08:51:28Z</time>
      </trkpt>
      <trkpt lat="43.5326" lon="5.50301">
        <ele>365.9955</ele>
        <time>2011-03-27T08:51:41Z</time>
      </trkpt>
      <trkpt lat="43.53256" lon="5.50287">
        <ele>364.9955</ele>
        <time>2011-03-27T08:51:44Z</time>
      </trkpt>
      <trkpt lat="43.53245" lon="5.5025">
        <ele>364.9954</ele>
        <time>2011-03-27T08:51:55Z</time>
      </trkpt>
      <trkpt lat="43.53236" lon="5.50229">
        <ele>364.9953</ele>
        <time>2011-03-27T08:52:03Z</time>
      </trkpt>
      <trkpt lat="43.53227" lon="5.50213">
        <ele>364.9952</ele>
        <time>2011-03-27T08:52:08Z</time>
      </trkpt>
      <trkpt lat="43.5322" lon="5.50201">
        <ele>363.9952</ele>
        <time>2011-03-27T08:52:13Z</time>
      </trkpt>
      <trkpt lat="43.53205" lon="5.50188">
        <ele>362.9951</ele>
        <time>2011-03-27T08:52:20Z</time>
      </trkpt>
      <trkpt lat="43.53203" lon="5.50175">
        <ele>361.9951</ele>
        <time>2011-03-27T08:52:30Z</time>
      </trkpt>
      <trkpt lat="43.53196" lon="5.50163">
        <ele>363.9951</ele>
        <time>2011-03-27T08:52:43Z</time>
      </trkpt>
      <trkpt lat="43.53188" lon="5.50154">
        <ele>364.995</ele>
        <time>2011-03-27T08:52:51Z</time>
      </trkpt>
      <trkpt lat="43.53183" lon="5.50143">
        <ele>364.995</ele>
        <time>2011-03-27T08:52:59Z</time>
      </trkpt>
      <trkpt lat="43.53176" lon="5.50134">
        <ele>364.9949</ele>
        <time>2011-03-27T08:53:06Z</time>
      </trkpt>
      <trkpt lat="43.53162" lon="5.501">
        <ele>366.9948</ele>
        <time>2011-03-27T08:53:32Z</time>
      </trkpt>
      <trkpt lat="43.53156" lon="5.50084">
        <ele>363.9948</ele>
        <time>2011-03-27T08:53:42Z</time>
      </trkpt>
      <trkpt lat="43.53147" lon="5.50079">
        <ele>361.9948</ele>
        <time>2011-03-27T08:53:46Z</time>
      </trkpt>
      <trkpt lat="43.53141" lon="5.50069">
        <ele>356.9947</ele>
        <time>2011-03-27T08:53:54Z</time>
      </trkpt>
      <trkpt lat="43.53141" lon="5.50056">
        <ele>353.9947</ele>
        <time>2011-03-27T08:54:04Z</time>
      </trkpt>
      <trkpt lat="43.53143" lon="5.50043">
        <ele>354.9947</ele>
        <time>2011-03-27T08:54:12Z</time>
      </trkpt>
      <trkpt lat="43.53146" lon="5.50031">
        <ele>354.9947</ele>
        <time>2011-03-27T08:54:20Z</time>
      </trkpt>
      <trkpt lat="43.53148" lon="5.50018">
        <ele>356.9946</ele>
        <time>2011-03-27T08:54:27Z</time>
      </trkpt>
      <trkpt lat="43.53147" lon="5.50004">
        <ele>355.9946</ele>
        <time>2011-03-27T08:54:35Z</time>
      </trkpt>
      <trkpt lat="43.53145" lon="5.49991">
        <ele>355.9946</ele>
        <time>2011-03-27T08:54:48Z</time>
      </trkpt>
      <trkpt lat="43.53146" lon="5.49979">
        <ele>355.9945</ele>
        <time>2011-03-27T08:54:56Z</time>
      </trkpt>
      <trkpt lat="43.53146" lon="5.4997">
        <ele>354.9945</ele>
        <time>2011-03-27T08:55:02Z</time>
      </trkpt>
      <trkpt lat="43.53146" lon="5.49969">
        <ele>354.9945</ele>
        <time>2011-03-27T08:55:03Z</time>
      </trkpt>
      <trkpt lat="43.53146" lon="5.49968">
        <ele>354.9945</ele>
        <time>2011-03-27T08:55:04Z</time>
      </trkpt>
      <trkpt lat="43.53146" lon="5.4996">
        <ele>354.9945</ele>
        <time>2011-03-27T08:55:11Z</time>
      </trkpt>
      <trkpt lat="43.53146" lon="5.49959">
        <ele>354.9945</ele>
        <time>2011-03-27T08:55:12Z</time>
      </trkpt>
      <trkpt lat="43.53145" lon="5.49958">
        <ele>355.9945</ele>
        <time>2011-03-27T08:55:13Z</time>
      </trkpt>
      <trkpt lat="43.53145" lon="5.49957">
        <ele>355.9945</ele>
        <time>2011-03-27T08:55:14Z</time>
      </trkpt>
      <trkpt lat="43.53142" lon="5.4995">
        <ele>351.9944</ele>
        <time>2011-03-27T08:55:31Z</time>
      </trkpt>
      <trkpt lat="43.53142" lon="5.4995">
        <ele>351.9944</ele>
        <time>2011-03-27T08:55:32Z</time>
      </trkpt>
      <trkpt lat="43.53136" lon="5.49951">
        <ele>354.9944</ele>
        <time>2011-03-27T08:55:43Z</time>
      </trkpt>
      <trkpt lat="43.53136" lon="5.49951">
        <ele>355.9944</ele>
        <time>2011-03-27T08:55:44Z</time>
      </trkpt>
      <trkpt lat="43.53136" lon="5.49951">
        <ele>355.9944</ele>
        <time>2011-03-27T08:55:45Z</time>
      </trkpt>
      <trkpt lat="43.53135" lon="5.49951">
        <ele>355.9944</ele>
        <time>2011-03-27T08:55:46Z</time>
      </trkpt>
      <trkpt lat="43.53133" lon="5.49949">
        <ele>354.9944</ele>
        <time>2011-03-27T08:55:54Z</time>
      </trkpt>
      <trkpt lat="43.53133" lon="5.49949">
        <ele>353.9944</ele>
        <time>2011-03-27T08:55:55Z</time>
      </trkpt>
      <trkpt lat="43.53132" lon="5.49948">
        <ele>352.9944</ele>
        <time>2011-03-27T08:55:56Z</time>
      </trkpt>
      <trkpt lat="43.53132" lon="5.49948">
        <ele>352.9944</ele>
        <time>2011-03-27T08:55:57Z</time>
      </trkpt>
    </trkseg>
  </trk>
</gpx>